<?xml version='1.0' encoding='UTF-8'?><gpx version="1.1" creator="JPX - https://github.com/jenetics/jpx" xmlns="http://www.topografix.com/GPX/1/1"><trk><trkseg><trkpt lat="45.489105653633594" lon="9.140756391176351"><ele>124.66666666666666</ele><time>2026-04-07T10:28:50Z</time></trkpt><trkpt lat="45.489222348700395" lon="9.140444700375353"><ele>124.33333333333334</ele><time>2026-04-07T10:29:04Z</time></trkpt><trkpt lat="45.489264487110596" lon="9.140341130519278"><ele>124.0</ele><time>2026-04-07T10:29:05Z</time></trkpt><trkpt lat="45.48937283740576" lon="9.140159567362474"><ele>124.0</ele><time>2026-04-07T10:29:06Z</time></trkpt><trkpt lat="45.48945391827166" lon="9.14003859860912"><ele>124.0</ele><time>2026-04-07T10:29:07Z</time></trkpt><trkpt lat="45.48953570061199" lon="9.139907322270988"><ele>124.0</ele><time>2026-04-07T10:29:08Z</time></trkpt><trkpt lat="45.48962892724534" lon="9.139775255134483"><ele>124.0</ele><time>2026-04-07T10:29:09Z</time></trkpt><trkpt lat="45.489727086347465" lon="9.139638929363901"><ele>124.33333333333334</ele><time>2026-04-07T10:29:10Z</time></trkpt><trkpt lat="45.48984600874574" lon="9.139502605008115"><ele>124.66666666666666</ele><time>2026-04-07T10:29:11Z</time></trkpt><trkpt lat="45.48996191437947" lon="9.139355325556249"><ele>125.0</ele><time>2026-04-07T10:29:12Z</time></trkpt><trkpt lat="45.49008504617816" lon="9.139212536128216"><ele>125.0</ele><time>2026-04-07T10:29:13Z</time></trkpt><trkpt lat="45.490226963494436" lon="9.139095552050932"><ele>125.0</ele><time>2026-04-07T10:29:14Z</time></trkpt><trkpt lat="45.49038191960634" lon="9.13899431535589"><ele>125.0</ele><time>2026-04-07T10:29:15Z</time></trkpt><trkpt lat="45.490539360512926" lon="9.138914394863594"><ele>126.0</ele><time>2026-04-07T10:29:16Z</time></trkpt><trkpt lat="45.49069732957911" lon="9.138842488896557"><ele>127.0</ele><time>2026-04-07T10:29:17Z</time></trkpt><trkpt lat="45.490852628835434" lon="9.138769829218653"><ele>128.0</ele><time>2026-04-07T10:29:18Z</time></trkpt><trkpt lat="45.491010274309765" lon="9.138683161459877"><ele>128.0</ele><time>2026-04-07T10:29:19Z</time></trkpt><trkpt lat="45.49116987205162" lon="9.138598653399695"><ele>128.0</ele><time>2026-04-07T10:29:20Z</time></trkpt><trkpt lat="45.491329243354734" lon="9.138513653341224"><ele>128.0</ele><time>2026-04-07T10:29:21Z</time></trkpt><trkpt lat="45.491495973446895" lon="9.138418909886589"><ele>128.0</ele><time>2026-04-07T10:29:22Z</time></trkpt><trkpt lat="45.49165597570204" lon="9.138327054062968"><ele>128.0</ele><time>2026-04-07T10:29:23Z</time></trkpt><trkpt lat="45.49180306480878" lon="9.138208338484809"><ele>128.0</ele><time>2026-04-07T10:29:24Z</time></trkpt><trkpt lat="45.49195283093039" lon="9.138078923427855"><ele>128.0</ele><time>2026-04-07T10:29:25Z</time></trkpt><trkpt lat="45.49207848036382" lon="9.13790789060232"><ele>128.0</ele><time>2026-04-07T10:29:26Z</time></trkpt><trkpt lat="45.49219557901267" lon="9.13769522375638"><ele>128.0</ele><time>2026-04-07T10:29:27Z</time></trkpt><trkpt lat="45.49229989643796" lon="9.137470304151124"><ele>128.33333333333331</ele><time>2026-04-07T10:29:28Z</time></trkpt><trkpt lat="45.492395118279234" lon="9.137225890461941"><ele>128.66666666666666</ele><time>2026-04-07T10:29:29Z</time></trkpt><trkpt lat="45.49248302667874" lon="9.136956307503274"><ele>129.0</ele><time>2026-04-07T10:29:30Z</time></trkpt><trkpt lat="45.492577211274906" lon="9.136667596899342"><ele>130.66666666666666</ele><time>2026-04-07T10:29:31Z</time></trkpt><trkpt lat="45.49267375466881" lon="9.136405035866511"><ele>132.33333333333331</ele><time>2026-04-07T10:29:32Z</time></trkpt><trkpt lat="45.49276891347126" lon="9.136152572667333"><ele>134.0</ele><time>2026-04-07T10:29:33Z</time></trkpt><trkpt lat="45.49286436509113" lon="9.135891714068984"><ele>132.66666666666666</ele><time>2026-04-07T10:29:34Z</time></trkpt><trkpt lat="45.49296081051893" lon="9.135628926463308"><ele>131.33333333333334</ele><time>2026-04-07T10:29:35Z</time></trkpt><trkpt lat="45.493058644151" lon="9.13536344646037"><ele>130.0</ele><time>2026-04-07T10:29:36Z</time></trkpt><trkpt lat="45.49315760855487" lon="9.135099203747487"><ele>132.0</ele><time>2026-04-07T10:29:37Z</time></trkpt><trkpt lat="45.49325916872448" lon="9.134830275523587"><ele>134.0</ele><time>2026-04-07T10:29:38Z</time></trkpt><trkpt lat="45.49336206334308" lon="9.134569224228144"><ele>136.0</ele><time>2026-04-07T10:29:39Z</time></trkpt><trkpt lat="45.493466680645454" lon="9.134311712170701"><ele>136.0</ele><time>2026-04-07T10:29:40Z</time></trkpt><trkpt lat="45.49357409621342" lon="9.134053835340133"><ele>136.0</ele><time>2026-04-07T10:29:41Z</time></trkpt><trkpt lat="45.493676591362984" lon="9.133806589788588"><ele>136.0</ele><time>2026-04-07T10:29:42Z</time></trkpt><trkpt lat="45.49377557168979" lon="9.133547623012587"><ele>136.0</ele><time>2026-04-07T10:29:43Z</time></trkpt><trkpt lat="45.49387530055089" lon="9.13329209545676"><ele>136.0</ele><time>2026-04-07T10:29:44Z</time></trkpt><trkpt lat="45.49397620156766" lon="9.133032113981582"><ele>136.0</ele><time>2026-04-07T10:29:45Z</time></trkpt><trkpt lat="45.49407591541699" lon="9.132773756668998"><ele>135.33333333333334</ele><time>2026-04-07T10:29:46Z</time></trkpt><trkpt lat="45.494178114772964" lon="9.132519738510593"><ele>134.66666666666666</ele><time>2026-04-07T10:29:47Z</time></trkpt><trkpt lat="45.49428545694542" lon="9.132262713386895"><ele>134.0</ele><time>2026-04-07T10:29:48Z</time></trkpt><trkpt lat="45.494386273607255" lon="9.132018885573771"><ele>134.0</ele><time>2026-04-07T10:29:49Z</time></trkpt><trkpt lat="45.49448822277449" lon="9.13177605680679"><ele>134.0</ele><time>2026-04-07T10:29:50Z</time></trkpt><trkpt lat="45.494587921518374" lon="9.13153175747435"><ele>134.0</ele><time>2026-04-07T10:29:51Z</time></trkpt><trkpt lat="45.49469204457369" lon="9.131294250914266"><ele>134.0</ele><time>2026-04-07T10:29:52Z</time></trkpt><trkpt lat="45.49480415556661" lon="9.131066088704882"><ele>134.0</ele><time>2026-04-07T10:29:53Z</time></trkpt><trkpt lat="45.4949265845409" lon="9.130865551681515"><ele>134.0</ele><time>2026-04-07T10:29:54Z</time></trkpt><trkpt lat="45.49506332345105" lon="9.130649592589005"><ele>133.66666666666666</ele><time>2026-04-07T10:29:55Z</time></trkpt><trkpt lat="45.49523926196308" lon="9.130538307791452"><ele>133.33333333333334</ele><time>2026-04-07T10:29:56Z</time></trkpt><trkpt lat="45.49541803304374" lon="9.130431088931202"><ele>133.0</ele><time>2026-04-07T10:29:57Z</time></trkpt><trkpt lat="45.49560882680455" lon="9.130356974643346"><ele>133.0</ele><time>2026-04-07T10:29:58Z</time></trkpt><trkpt lat="45.49580455480388" lon="9.1303243383799"><ele>133.0</ele><time>2026-04-07T10:29:59Z</time></trkpt><trkpt lat="45.49600783279071" lon="9.130316116227277"><ele>133.0</ele><time>2026-04-07T10:30:00Z</time></trkpt><trkpt lat="45.49621505322507" lon="9.130323543218315"><ele>133.66666666666669</ele><time>2026-04-07T10:30:01Z</time></trkpt><trkpt lat="45.496431708977894" lon="9.130356640818443"><ele>134.33333333333334</ele><time>2026-04-07T10:30:02Z</time></trkpt><trkpt lat="45.496642103732206" lon="9.130378643552893"><ele>135.0</ele><time>2026-04-07T10:30:03Z</time></trkpt><trkpt lat="45.49685650571367" lon="9.130396325873635"><ele>135.0</ele><time>2026-04-07T10:30:04Z</time></trkpt><trkpt lat="45.49707062328013" lon="9.130412709614445"><ele>135.0</ele><time>2026-04-07T10:30:05Z</time></trkpt><trkpt lat="45.4972806360247" lon="9.130423832327299"><ele>135.0</ele><time>2026-04-07T10:30:06Z</time></trkpt><trkpt lat="45.49749056857311" lon="9.13043609002363"><ele>135.33333333333334</ele><time>2026-04-07T10:30:07Z</time></trkpt><trkpt lat="45.497696357005154" lon="9.130445462815269"><ele>135.66666666666669</ele><time>2026-04-07T10:30:08Z</time></trkpt><trkpt lat="45.49790430930799" lon="9.130459357718859"><ele>136.0</ele><time>2026-04-07T10:30:09Z</time></trkpt><trkpt lat="45.4981094349708" lon="9.130470757178765"><ele>136.0</ele><time>2026-04-07T10:30:10Z</time></trkpt><trkpt lat="45.4983188104613" lon="9.130481064847908"><ele>136.0</ele><time>2026-04-07T10:30:11Z</time></trkpt><trkpt lat="45.49852842263468" lon="9.130488303459751"><ele>136.0</ele><time>2026-04-07T10:30:12Z</time></trkpt><trkpt lat="45.49873902873607" lon="9.130500169470135"><ele>135.66666666666669</ele><time>2026-04-07T10:30:13Z</time></trkpt><trkpt lat="45.49895140138688" lon="9.13050472366026"><ele>135.33333333333334</ele><time>2026-04-07T10:30:14Z</time></trkpt><trkpt lat="45.49916217704261" lon="9.130504150632436"><ele>135.0</ele><time>2026-04-07T10:30:15Z</time></trkpt><trkpt lat="45.499375264288005" lon="9.130508257148614"><ele>136.0</ele><time>2026-04-07T10:30:16Z</time></trkpt><trkpt lat="45.499589002346816" lon="9.13050927656833"><ele>137.0</ele><time>2026-04-07T10:30:17Z</time></trkpt><trkpt lat="45.49980528545321" lon="9.13050953611173"><ele>138.0</ele><time>2026-04-07T10:30:18Z</time></trkpt><trkpt lat="45.500020968235084" lon="9.130516318972882"><ele>138.0</ele><time>2026-04-07T10:30:19Z</time></trkpt><trkpt lat="45.50023702397472" lon="9.13052396017902"><ele>138.0</ele><time>2026-04-07T10:30:20Z</time></trkpt><trkpt lat="45.500453705466285" lon="9.130526663970311"><ele>138.0</ele><time>2026-04-07T10:30:21Z</time></trkpt><trkpt lat="45.500671623062715" lon="9.130526373002503"><ele>138.0</ele><time>2026-04-07T10:30:22Z</time></trkpt><trkpt lat="45.500888708714946" lon="9.130518386641333"><ele>138.0</ele><time>2026-04-07T10:30:23Z</time></trkpt><trkpt lat="45.5011076123553" lon="9.130516915975306"><ele>138.0</ele><time>2026-04-07T10:30:24Z</time></trkpt><trkpt lat="45.50132355814798" lon="9.13051807494181"><ele>136.66666666666666</ele><time>2026-04-07T10:30:25Z</time></trkpt><trkpt lat="45.50153075257512" lon="9.130524100881876"><ele>135.33333333333331</ele><time>2026-04-07T10:30:26Z</time></trkpt><trkpt lat="45.5017332756529" lon="9.130534080860642"><ele>134.0</ele><time>2026-04-07T10:30:27Z</time></trkpt><trkpt lat="45.5019332527625" lon="9.130552512835155"><ele>134.33333333333331</ele><time>2026-04-07T10:30:28Z</time></trkpt><trkpt lat="45.50212935663226" lon="9.130575903696315"><ele>134.66666666666666</ele><time>2026-04-07T10:30:29Z</time></trkpt><trkpt lat="45.50232947915825" lon="9.130601455263838"><ele>135.0</ele><time>2026-04-07T10:30:30Z</time></trkpt><trkpt lat="45.50252868461877" lon="9.130626505360526"><ele>135.0</ele><time>2026-04-07T10:30:31Z</time></trkpt><trkpt lat="45.50272713563021" lon="9.130645064948279"><ele>135.0</ele><time>2026-04-07T10:30:32Z</time></trkpt><trkpt lat="45.502939557398285" lon="9.130671114068702"><ele>135.0</ele><time>2026-04-07T10:30:33Z</time></trkpt><trkpt lat="45.50315189464363" lon="9.130699581506262"><ele>134.33333333333334</ele><time>2026-04-07T10:30:34Z</time></trkpt><trkpt lat="45.50335157712358" lon="9.130723199514541"><ele>133.66666666666669</ele><time>2026-04-07T10:30:35.001Z</time></trkpt><trkpt lat="45.5035450873302" lon="9.130756778983606"><ele>133.0</ele><time>2026-04-07T10:30:35.999Z</time></trkpt><trkpt lat="45.503736084091386" lon="9.130800708619855"><ele>133.66666666666669</ele><time>2026-04-07T10:30:36.999Z</time></trkpt><trkpt lat="45.50393671828303" lon="9.130825312479034"><ele>134.33333333333334</ele><time>2026-04-07T10:30:37.999Z</time></trkpt><trkpt lat="45.50415238159306" lon="9.130831177873509"><ele>135.0</ele><time>2026-04-07T10:30:38.999Z</time></trkpt><trkpt lat="45.504374466167455" lon="9.1308209926065"><ele>136.0</ele><time>2026-04-07T10:30:39.999Z</time></trkpt><trkpt lat="45.504603798438914" lon="9.130784820502825"><ele>137.0</ele><time>2026-04-07T10:30:40.999Z</time></trkpt><trkpt lat="45.5048567944382" lon="9.13073672023056"><ele>137.0</ele><time>2026-04-07T10:30:41.999Z</time></trkpt><trkpt lat="45.50512678610495" lon="9.130712729131472"><ele>137.0</ele><time>2026-04-07T10:30:42.999Z</time></trkpt><trkpt lat="45.50540569772505" lon="9.130689466621916"><ele>137.5</ele><time>2026-04-07T10:30:43.999Z</time></trkpt><trkpt lat="45.505696527245114" lon="9.130646440810537"><ele>138.0</ele><time>2026-04-07T10:30:44.999Z</time></trkpt><trkpt lat="45.50600119294246" lon="9.130590995437592"><ele>137.5</ele><time>2026-04-07T10:30:45.999Z</time></trkpt><trkpt lat="45.50631799261401" lon="9.130541167657912"><ele>137.0</ele><time>2026-04-07T10:30:46.999Z</time></trkpt><trkpt lat="45.50664070216924" lon="9.130486612246258"><ele>137.0</ele><time>2026-04-07T10:30:47.999Z</time></trkpt><trkpt lat="45.506964982437815" lon="9.13041678015799"><ele>137.0</ele><time>2026-04-07T10:30:48.999Z</time></trkpt><trkpt lat="45.50727570943656" lon="9.130340727478602"><ele>138.0</ele><time>2026-04-07T10:30:49.999Z</time></trkpt><trkpt lat="45.50757140695629" lon="9.130267603104555"><ele>139.0</ele><time>2026-04-07T10:30:50.999Z</time></trkpt><trkpt lat="45.50785299348743" lon="9.130201868330023"><ele>140.5</ele><time>2026-04-07T10:30:51.999Z</time></trkpt><trkpt lat="45.50813036573129" lon="9.130132557557305"><ele>142.0</ele><time>2026-04-07T10:30:52.999Z</time></trkpt><trkpt lat="45.508404058308386" lon="9.130071660286465"><ele>142.0</ele><time>2026-04-07T10:30:53.999Z</time></trkpt><trkpt lat="45.508679931567336" lon="9.130012532311257"><ele>142.0</ele><time>2026-04-07T10:30:55Z</time></trkpt><trkpt lat="45.508952936869875" lon="9.129943327182584"><ele>139.0</ele><time>2026-04-07T10:30:56Z</time></trkpt><trkpt lat="45.509228806739635" lon="9.129848095961412"><ele>136.0</ele><time>2026-04-07T10:30:57Z</time></trkpt><trkpt lat="45.50949328671455" lon="9.129719689388207"><ele>137.0</ele><time>2026-04-07T10:30:58Z</time></trkpt><trkpt lat="45.50975843484608" lon="9.129560146085641"><ele>138.0</ele><time>2026-04-07T10:30:59Z</time></trkpt><trkpt lat="45.51001342862276" lon="9.129371196535576"><ele>138.0</ele><time>2026-04-07T10:31:00Z</time></trkpt><trkpt lat="45.510258618275415" lon="9.129156181479813"><ele>138.0</ele><time>2026-04-07T10:31:01Z</time></trkpt><trkpt lat="45.5104952370364" lon="9.1289203639058"><ele>136.5</ele><time>2026-04-07T10:31:02Z</time></trkpt><trkpt lat="45.51072146932005" lon="9.128653005324747"><ele>135.0</ele><time>2026-04-07T10:31:03Z</time></trkpt><trkpt lat="45.51092778313268" lon="9.128364981229037"><ele>135.5</ele><time>2026-04-07T10:31:04Z</time></trkpt><trkpt lat="45.511121835696564" lon="9.128054749060432"><ele>136.0</ele><time>2026-04-07T10:31:05Z</time></trkpt><trkpt lat="45.51132349875977" lon="9.127743502463725"><ele>136.5</ele><time>2026-04-07T10:31:06Z</time></trkpt><trkpt lat="45.511526791134315" lon="9.127442582804926"><ele>137.0</ele><time>2026-04-07T10:31:07Z</time></trkpt><trkpt lat="45.51173897643772" lon="9.127145144881258"><ele>137.0</ele><time>2026-04-07T10:31:08Z</time></trkpt><trkpt lat="45.5119498451026" lon="9.126842806672371"><ele>137.0</ele><time>2026-04-07T10:31:09Z</time></trkpt><trkpt lat="45.51215390454004" lon="9.126539255019075"><ele>137.5</ele><time>2026-04-07T10:31:10Z</time></trkpt><trkpt lat="45.51235393859382" lon="9.12624778777274"><ele>138.0</ele><time>2026-04-07T10:31:11Z</time></trkpt><trkpt lat="45.512568555367196" lon="9.125939131304936"><ele>138.0</ele><time>2026-04-07T10:31:12Z</time></trkpt><trkpt lat="45.51277177337819" lon="9.125639496463828"><ele>138.0</ele><time>2026-04-07T10:31:13Z</time></trkpt><trkpt lat="45.51297543748787" lon="9.125335329792206"><ele>138.0</ele><time>2026-04-07T10:31:14Z</time></trkpt><trkpt lat="45.51317502522217" lon="9.125036335640914"><ele>138.0</ele><time>2026-04-07T10:31:15Z</time></trkpt><trkpt lat="45.51337981631044" lon="9.124743923491769"><ele>138.0</ele><time>2026-04-07T10:31:16Z</time></trkpt><trkpt lat="45.51357079859693" lon="9.1244646123184"><ele>138.0</ele><time>2026-04-07T10:31:17Z</time></trkpt><trkpt lat="45.51375386381636" lon="9.124198262258679"><ele>139.0</ele><time>2026-04-07T10:31:18Z</time></trkpt><trkpt lat="45.51393555573429" lon="9.123934846468782"><ele>140.0</ele><time>2026-04-07T10:31:19Z</time></trkpt><trkpt lat="45.5140992691157" lon="9.123687180019509"><ele>140.0</ele><time>2026-04-07T10:31:20Z</time></trkpt><trkpt lat="45.51426792967603" lon="9.123441601721657"><ele>140.0</ele><time>2026-04-07T10:31:21Z</time></trkpt><trkpt lat="45.51442778311296" lon="9.123204311491664"><ele>141.5</ele><time>2026-04-07T10:31:22Z</time></trkpt><trkpt lat="45.514583316372004" lon="9.12296855307494"><ele>143.0</ele><time>2026-04-07T10:31:23Z</time></trkpt><trkpt lat="45.514735965039506" lon="9.122734961302932"><ele>143.0</ele><time>2026-04-07T10:31:24Z</time></trkpt><trkpt lat="45.51488338545231" lon="9.122501774745045"><ele>143.0</ele><time>2026-04-07T10:31:25Z</time></trkpt><trkpt lat="45.515021914837405" lon="9.122268532288297"><ele>143.0</ele><time>2026-04-07T10:31:26Z</time></trkpt><trkpt lat="45.51516149069545" lon="9.12202447346031"><ele>142.66666666666666</ele><time>2026-04-07T10:31:27Z</time></trkpt><trkpt lat="45.51529588603443" lon="9.121783572169354"><ele>142.33333333333334</ele><time>2026-04-07T10:31:28Z</time></trkpt><trkpt lat="45.51542731928131" lon="9.121540478927097"><ele>142.0</ele><time>2026-04-07T10:31:29Z</time></trkpt><trkpt lat="45.51555713242814" lon="9.121296766203702"><ele>141.33333333333334</ele><time>2026-04-07T10:31:30Z</time></trkpt><trkpt lat="45.51568348101001" lon="9.12105538900328"><ele>140.66666666666666</ele><time>2026-04-07T10:31:31Z</time></trkpt><trkpt lat="45.51580619370252" lon="9.120806534242163"><ele>140.0</ele><time>2026-04-07T10:31:32Z</time></trkpt><trkpt lat="45.515923029197744" lon="9.120564226854867"><ele>140.0</ele><time>2026-04-07T10:31:33Z</time></trkpt><trkpt lat="45.51604034220129" lon="9.120312819878302"><ele>140.0</ele><time>2026-04-07T10:31:34Z</time></trkpt><trkpt lat="45.516155893872295" lon="9.120063523830895"><ele>140.0</ele><time>2026-04-07T10:31:35Z</time></trkpt><trkpt lat="45.516273731180796" lon="9.119815864782918"><ele>140.0</ele><time>2026-04-07T10:31:36Z</time></trkpt><trkpt lat="45.516393840179155" lon="9.119572866580691"><ele>140.0</ele><time>2026-04-07T10:31:37Z</time></trkpt><trkpt lat="45.51651714800173" lon="9.119321569189502"><ele>140.0</ele><time>2026-04-07T10:31:38Z</time></trkpt><trkpt lat="45.51663824191449" lon="9.11907189397686"><ele>139.0</ele><time>2026-04-07T10:31:39Z</time></trkpt><trkpt lat="45.51675778019016" lon="9.118822805459429"><ele>138.0</ele><time>2026-04-07T10:31:40Z</time></trkpt><trkpt lat="45.51688177218961" lon="9.118574413485918"><ele>137.0</ele><time>2026-04-07T10:31:41Z</time></trkpt><trkpt lat="45.517004057605135" lon="9.118326244318084"><ele>139.33333333333331</ele><time>2026-04-07T10:31:42Z</time></trkpt><trkpt lat="45.51712842070895" lon="9.118074948281823"><ele>141.66666666666666</ele><time>2026-04-07T10:31:43Z</time></trkpt><trkpt lat="45.51725188740983" lon="9.117820205322657"><ele>144.0</ele><time>2026-04-07T10:31:44Z</time></trkpt><trkpt lat="45.51737284159334" lon="9.117570427246166"><ele>143.33333333333334</ele><time>2026-04-07T10:31:45Z</time></trkpt><trkpt lat="45.51749485650275" lon="9.117316821479536"><ele>142.66666666666669</ele><time>2026-04-07T10:31:46Z</time></trkpt><trkpt lat="45.51761504206036" lon="9.117065886340898"><ele>142.0</ele><time>2026-04-07T10:31:47Z</time></trkpt><trkpt lat="45.51773745426352" lon="9.116814879204542"><ele>141.66666666666669</ele><time>2026-04-07T10:31:48Z</time></trkpt><trkpt lat="45.51786180297024" lon="9.116566323988813"><ele>141.33333333333334</ele><time>2026-04-07T10:31:49Z</time></trkpt><trkpt lat="45.517981769455304" lon="9.116320364989837"><ele>141.0</ele><time>2026-04-07T10:31:50Z</time></trkpt><trkpt lat="45.51811040400588" lon="9.116062022241584"><ele>141.0</ele><time>2026-04-07T10:31:51Z</time></trkpt><trkpt lat="45.51823558547766" lon="9.115802730517883"><ele>141.0</ele><time>2026-04-07T10:31:52Z</time></trkpt><trkpt lat="45.518368686521704" lon="9.115547527773181"><ele>141.0</ele><time>2026-04-07T10:31:53Z</time></trkpt><trkpt lat="45.518497864156416" lon="9.115310003915175"><ele>140.66666666666666</ele><time>2026-04-07T10:31:54Z</time></trkpt><trkpt lat="45.518634783543554" lon="9.115074241385972"><ele>140.33333333333331</ele><time>2026-04-07T10:31:55Z</time></trkpt><trkpt lat="45.518773455736124" lon="9.11483518914435"><ele>140.0</ele><time>2026-04-07T10:31:56Z</time></trkpt><trkpt lat="45.51891417758302" lon="9.114595821647505"><ele>140.0</ele><time>2026-04-07T10:31:57Z</time></trkpt><trkpt lat="45.519054893133635" lon="9.114353906119552"><ele>140.0</ele><time>2026-04-07T10:31:58Z</time></trkpt><trkpt lat="45.51918826812146" lon="9.11411694807261"><ele>140.0</ele><time>2026-04-07T10:31:59Z</time></trkpt><trkpt lat="45.51932338232556" lon="9.11387474813689"><ele>140.0</ele><time>2026-04-07T10:32:00Z</time></trkpt><trkpt lat="45.51945848505736" lon="9.113627786041025"><ele>140.0</ele><time>2026-04-07T10:32:01Z</time></trkpt><trkpt lat="45.519593669763765" lon="9.113378916225194"><ele>140.0</ele><time>2026-04-07T10:32:02Z</time></trkpt><trkpt lat="45.51972533619427" lon="9.113132505980987"><ele>140.0</ele><time>2026-04-07T10:32:03Z</time></trkpt><trkpt lat="45.519865737181576" lon="9.112879377781992"><ele>140.0</ele><time>2026-04-07T10:32:04Z</time></trkpt><trkpt lat="45.52000966554953" lon="9.112629994336835"><ele>140.0</ele><time>2026-04-07T10:32:05Z</time></trkpt><trkpt lat="45.520147568766326" lon="9.112376317489197"><ele>140.0</ele><time>2026-04-07T10:32:06Z</time></trkpt><trkpt lat="45.520281340764235" lon="9.112129313420049"><ele>140.0</ele><time>2026-04-07T10:32:07Z</time></trkpt><trkpt lat="45.52041730220946" lon="9.111882285095252"><ele>140.0</ele><time>2026-04-07T10:32:08Z</time></trkpt><trkpt lat="45.52055105506038" lon="9.111635196230136"><ele>140.0</ele><time>2026-04-07T10:32:09Z</time></trkpt><trkpt lat="45.52068619014769" lon="9.111387995019037"><ele>140.0</ele><time>2026-04-07T10:32:10Z</time></trkpt><trkpt lat="45.52082287994027" lon="9.111140202551367"><ele>139.66666666666666</ele><time>2026-04-07T10:32:11Z</time></trkpt><trkpt lat="45.52095991410269" lon="9.110890142609463"><ele>139.33333333333334</ele><time>2026-04-07T10:32:12Z</time></trkpt><trkpt lat="45.521092361654944" lon="9.110646090304089"><ele>139.0</ele><time>2026-04-07T10:32:13Z</time></trkpt><trkpt lat="45.521225530217805" lon="9.110402691131446"><ele>139.0</ele><time>2026-04-07T10:32:14Z</time></trkpt><trkpt lat="45.52136282174106" lon="9.110158586544909"><ele>139.0</ele><time>2026-04-07T10:32:15Z</time></trkpt><trkpt lat="45.52150221266082" lon="9.109911654528652"><ele>139.0</ele><time>2026-04-07T10:32:16Z</time></trkpt><trkpt lat="45.52164299763783" lon="9.109663120861542"><ele>139.0</ele><time>2026-04-07T10:32:17Z</time></trkpt><trkpt lat="45.521780902581646" lon="9.109413605043338"><ele>139.0</ele><time>2026-04-07T10:32:18Z</time></trkpt><trkpt lat="45.52191886668449" lon="9.10916312767413"><ele>139.0</ele><time>2026-04-07T10:32:19Z</time></trkpt><trkpt lat="45.522051846973646" lon="9.108916537431513"><ele>140.33333333333334</ele><time>2026-04-07T10:32:20Z</time></trkpt><trkpt lat="45.52218413705791" lon="9.108670997426808"><ele>141.66666666666666</ele><time>2026-04-07T10:32:21Z</time></trkpt><trkpt lat="45.522325905101" lon="9.108416916133578"><ele>143.0</ele><time>2026-04-07T10:32:22Z</time></trkpt><trkpt lat="45.52246440863285" lon="9.108169583402294"><ele>143.0</ele><time>2026-04-07T10:32:23Z</time></trkpt><trkpt lat="45.52259963040509" lon="9.107924111638695"><ele>143.0</ele><time>2026-04-07T10:32:24Z</time></trkpt><trkpt lat="45.52273807851269" lon="9.107676269180848"><ele>143.0</ele><time>2026-04-07T10:32:25Z</time></trkpt><trkpt lat="45.52287603199831" lon="9.107428428673911"><ele>142.66666666666666</ele><time>2026-04-07T10:32:26Z</time></trkpt><trkpt lat="45.523011925853936" lon="9.107180288705846"><ele>142.33333333333334</ele><time>2026-04-07T10:32:27Z</time></trkpt><trkpt lat="45.52314832986172" lon="9.106930882730106"><ele>142.0</ele><time>2026-04-07T10:32:28Z</time></trkpt><trkpt lat="45.52328281130606" lon="9.106681014450423"><ele>142.0</ele><time>2026-04-07T10:32:29Z</time></trkpt><trkpt lat="45.52341980548518" lon="9.106428017088653"><ele>142.0</ele><time>2026-04-07T10:32:30Z</time></trkpt><trkpt lat="45.523550839496195" lon="9.106178636941763"><ele>142.0</ele><time>2026-04-07T10:32:31Z</time></trkpt><trkpt lat="45.523685383245805" lon="9.105930949079694"><ele>142.66666666666669</ele><time>2026-04-07T10:32:32Z</time></trkpt><trkpt lat="45.523819183283685" lon="9.105683523360042"><ele>143.33333333333334</ele><time>2026-04-07T10:32:33Z</time></trkpt><trkpt lat="45.523958436161415" lon="9.10544199479817"><ele>144.0</ele><time>2026-04-07T10:32:34Z</time></trkpt><trkpt lat="45.52410191220945" lon="9.105204954601511"><ele>144.0</ele><time>2026-04-07T10:32:35Z</time></trkpt><trkpt lat="45.524244299254924" lon="9.104964153268174"><ele>144.0</ele><time>2026-04-07T10:32:36Z</time></trkpt><trkpt lat="45.52438031772299" lon="9.104715760908388"><ele>144.0</ele><time>2026-04-07T10:32:37Z</time></trkpt><trkpt lat="45.524518107911476" lon="9.104462576971853"><ele>143.66666666666666</ele><time>2026-04-07T10:32:38Z</time></trkpt><trkpt lat="45.52465577777101" lon="9.104215706142297"><ele>143.33333333333331</ele><time>2026-04-07T10:32:39Z</time></trkpt><trkpt lat="45.52479588049389" lon="9.103970380019717"><ele>143.0</ele><time>2026-04-07T10:32:40Z</time></trkpt><trkpt lat="45.524934705437786" lon="9.103723665724871"><ele>143.33333333333331</ele><time>2026-04-07T10:32:41Z</time></trkpt><trkpt lat="45.52507410658082" lon="9.103470334575778"><ele>143.66666666666666</ele><time>2026-04-07T10:32:41.999Z</time></trkpt><trkpt lat="45.52521233138527" lon="9.103224816282356"><ele>144.0</ele><time>2026-04-07T10:32:42.999Z</time></trkpt><trkpt lat="45.52535165657336" lon="9.102970108031894"><ele>144.33333333333334</ele><time>2026-04-07T10:32:43.999Z</time></trkpt><trkpt lat="45.525487093185916" lon="9.102720266459475"><ele>144.66666666666669</ele><time>2026-04-07T10:32:44.999Z</time></trkpt><trkpt lat="45.52562229822168" lon="9.102463828057294"><ele>145.0</ele><time>2026-04-07T10:32:45.999Z</time></trkpt><trkpt lat="45.525761845369146" lon="9.102207199122871"><ele>145.0</ele><time>2026-04-07T10:32:46.999Z</time></trkpt><trkpt lat="45.52590288506709" lon="9.101951120733753"><ele>145.0</ele><time>2026-04-07T10:32:47.999Z</time></trkpt><trkpt lat="45.52604256139497" lon="9.101694106663656"><ele>145.5</ele><time>2026-04-07T10:32:48.999Z</time></trkpt><trkpt lat="45.526183849277295" lon="9.101432685725865"><ele>146.0</ele><time>2026-04-07T10:32:49.999Z</time></trkpt><trkpt lat="45.52632503189391" lon="9.101173334451968"><ele>146.0</ele><time>2026-04-07T10:32:50.999Z</time></trkpt><trkpt lat="45.52646420109817" lon="9.100912421746832"><ele>146.0</ele><time>2026-04-07T10:32:51.999Z</time></trkpt><trkpt lat="45.52660202853554" lon="9.10065417392049"><ele>145.0</ele><time>2026-04-07T10:32:52.999Z</time></trkpt><trkpt lat="45.52674549270775" lon="9.100392908371274"><ele>144.0</ele><time>2026-04-07T10:32:53.999Z</time></trkpt><trkpt lat="45.52688489709164" lon="9.100133739989099"><ele>144.0</ele><time>2026-04-07T10:32:54.999Z</time></trkpt><trkpt lat="45.527021111307185" lon="9.099874832165423"><ele>144.0</ele><time>2026-04-07T10:32:55.999Z</time></trkpt><trkpt lat="45.5271590945735" lon="9.099613454845208"><ele>148.5</ele><time>2026-04-07T10:32:56.999Z</time></trkpt><trkpt lat="45.527302588180234" lon="9.099349737689964"><ele>153.0</ele><time>2026-04-07T10:32:57.999Z</time></trkpt><trkpt lat="45.5274439163121" lon="9.099091436415925"><ele>151.0</ele><time>2026-04-07T10:32:58.999Z</time></trkpt><trkpt lat="45.52758310761835" lon="9.098832409868042"><ele>149.0</ele><time>2026-04-07T10:32:59.999Z</time></trkpt><trkpt lat="45.527724937817" lon="9.098569620458425"><ele>149.0</ele><time>2026-04-07T10:33:00.999Z</time></trkpt><trkpt lat="45.52787227486936" lon="9.09830507497417"><ele>149.0</ele><time>2026-04-07T10:33:01.999Z</time></trkpt><trkpt lat="45.52801668963985" lon="9.098042303919344"><ele>148.0</ele><time>2026-04-07T10:33:02.999Z</time></trkpt><trkpt lat="45.528160027569314" lon="9.097780326409069"><ele>147.0</ele><time>2026-04-07T10:33:03.999Z</time></trkpt><trkpt lat="45.528302696799926" lon="9.097516418643485"><ele>146.5</ele><time>2026-04-07T10:33:04.999Z</time></trkpt><trkpt lat="45.528443768023934" lon="9.097257867478195"><ele>146.0</ele><time>2026-04-07T10:33:05.999Z</time></trkpt><trkpt lat="45.52858614377483" lon="9.09700058442471"><ele>146.5</ele><time>2026-04-07T10:33:06.999Z</time></trkpt><trkpt lat="45.5287279944101" lon="9.096740610012315"><ele>147.0</ele><time>2026-04-07T10:33:07.999Z</time></trkpt><trkpt lat="45.528867528529936" lon="9.096484158679578"><ele>146.0</ele><time>2026-04-07T10:33:08.999Z</time></trkpt><trkpt lat="45.52900263530044" lon="9.096225462316303"><ele>145.0</ele><time>2026-04-07T10:33:09.999Z</time></trkpt><trkpt lat="45.52913626024396" lon="9.095967322317755"><ele>144.0</ele><time>2026-04-07T10:33:10.999Z</time></trkpt><trkpt lat="45.52927007178251" lon="9.09571356954536"><ele>143.0</ele><time>2026-04-07T10:33:11.999Z</time></trkpt><trkpt lat="45.52940756604377" lon="9.095455631601492"><ele>143.0</ele><time>2026-04-07T10:33:12.999Z</time></trkpt><trkpt lat="45.52954566434874" lon="9.095199872619618"><ele>143.0</ele><time>2026-04-07T10:33:13.999Z</time></trkpt><trkpt lat="45.52967938102752" lon="9.094949454162187"><ele>143.0</ele><time>2026-04-07T10:33:14.999Z</time></trkpt><trkpt lat="45.529809977621646" lon="9.094701483790033"><ele>144.0</ele><time>2026-04-07T10:33:15.999Z</time></trkpt><trkpt lat="45.52994367572605" lon="9.094451314265203"><ele>145.0</ele><time>2026-04-07T10:33:16.999Z</time></trkpt><trkpt lat="45.53008360614048" lon="9.094201003871493"><ele>146.0</ele><time>2026-04-07T10:33:17.999Z</time></trkpt><trkpt lat="45.53021657430112" lon="9.093943178791246"><ele>146.0</ele><time>2026-04-07T10:33:18.999Z</time></trkpt><trkpt lat="45.530352798592844" lon="9.093687062267824"><ele>146.0</ele><time>2026-04-07T10:33:20Z</time></trkpt><trkpt lat="45.530489004086334" lon="9.093431106702182"><ele>147.0</ele><time>2026-04-07T10:33:21Z</time></trkpt><trkpt lat="45.530624937780416" lon="9.093176404025098"><ele>148.0</ele><time>2026-04-07T10:33:22Z</time></trkpt><trkpt lat="45.53076331108355" lon="9.092921544289073"><ele>148.0</ele><time>2026-04-07T10:33:23Z</time></trkpt><trkpt lat="45.53090027502499" lon="9.092667110036983"><ele>148.0</ele><time>2026-04-07T10:33:24Z</time></trkpt><trkpt lat="45.5310385978838" lon="9.09241156121412"><ele>147.66666666666669</ele><time>2026-04-07T10:33:25Z</time></trkpt><trkpt lat="45.53117569789208" lon="9.092154770682018"><ele>147.33333333333334</ele><time>2026-04-07T10:33:26Z</time></trkpt><trkpt lat="45.53130962323695" lon="9.091900852837624"><ele>147.0</ele><time>2026-04-07T10:33:27Z</time></trkpt><trkpt lat="45.53144551796112" lon="9.09164372030443"><ele>147.33333333333334</ele><time>2026-04-07T10:33:28Z</time></trkpt><trkpt lat="45.53158040258827" lon="9.091388918365489"><ele>147.66666666666669</ele><time>2026-04-07T10:33:29Z</time></trkpt><trkpt lat="45.53171510511036" lon="9.091134774529335"><ele>148.0</ele><time>2026-04-07T10:33:30Z</time></trkpt><trkpt lat="45.53185035441511" lon="9.090879856845383"><ele>148.66666666666669</ele><time>2026-04-07T10:33:31Z</time></trkpt><trkpt lat="45.53198677509485" lon="9.090627524055453"><ele>149.33333333333334</ele><time>2026-04-07T10:33:32Z</time></trkpt><trkpt lat="45.53212460293656" lon="9.090372447415287"><ele>150.0</ele><time>2026-04-07T10:33:33Z</time></trkpt><trkpt lat="45.53226381869075" lon="9.090117136175856"><ele>150.0</ele><time>2026-04-07T10:33:34Z</time></trkpt><trkpt lat="45.53239978866672" lon="9.089865590739173"><ele>150.0</ele><time>2026-04-07T10:33:35Z</time></trkpt><trkpt lat="45.53253771311345" lon="9.089613720313565"><ele>150.0</ele><time>2026-04-07T10:33:36Z</time></trkpt><trkpt lat="45.53267729226864" lon="9.089357875420701"><ele>150.0</ele><time>2026-04-07T10:33:37Z</time></trkpt><trkpt lat="45.53281521421885" lon="9.089101984886941"><ele>150.0</ele><time>2026-04-07T10:33:38Z</time></trkpt><trkpt lat="45.53295246835044" lon="9.088846753956132"><ele>151.5</ele><time>2026-04-07T10:33:39Z</time></trkpt><trkpt lat="45.53308838346661" lon="9.088589887968897"><ele>153.0</ele><time>2026-04-07T10:33:40Z</time></trkpt><trkpt lat="45.53322506106772" lon="9.088332673378996"><ele>152.0</ele><time>2026-04-07T10:33:41Z</time></trkpt><trkpt lat="45.53336212598952" lon="9.088077232315179"><ele>151.0</ele><time>2026-04-07T10:33:42Z</time></trkpt><trkpt lat="45.53349906261138" lon="9.087821273730746"><ele>151.0</ele><time>2026-04-07T10:33:43Z</time></trkpt><trkpt lat="45.53363337794697" lon="9.087564047830218"><ele>151.0</ele><time>2026-04-07T10:33:44Z</time></trkpt><trkpt lat="45.53377344276111" lon="9.087303868115347"><ele>151.5</ele><time>2026-04-07T10:33:45Z</time></trkpt><trkpt lat="45.533913542230984" lon="9.087044089968213"><ele>152.0</ele><time>2026-04-07T10:33:46Z</time></trkpt><trkpt lat="45.53405518079771" lon="9.08678759827748"><ele>151.0</ele><time>2026-04-07T10:33:47Z</time></trkpt><trkpt lat="45.53419453161709" lon="9.086525814194102"><ele>150.0</ele><time>2026-04-07T10:33:48Z</time></trkpt><trkpt lat="45.53433640617568" lon="9.086265627048473"><ele>150.0</ele><time>2026-04-07T10:33:49Z</time></trkpt><trkpt lat="45.534477343324106" lon="9.086004642740292"><ele>150.0</ele><time>2026-04-07T10:33:50Z</time></trkpt><trkpt lat="45.534612322615274" lon="9.085748474721845"><ele>150.0</ele><time>2026-04-07T10:33:51Z</time></trkpt><trkpt lat="45.53475075200863" lon="9.085493070075499"><ele>150.0</ele><time>2026-04-07T10:33:52Z</time></trkpt><trkpt lat="45.534888614193534" lon="9.085242193640076"><ele>150.0</ele><time>2026-04-07T10:33:53Z</time></trkpt><trkpt lat="45.53502114889678" lon="9.084991258450776"><ele>150.0</ele><time>2026-04-07T10:33:54Z</time></trkpt><trkpt lat="45.53515508137812" lon="9.084737370872991"><ele>150.0</ele><time>2026-04-07T10:33:55Z</time></trkpt><trkpt lat="45.5352910613875" lon="9.084482061328437"><ele>151.5</ele><time>2026-04-07T10:33:56Z</time></trkpt><trkpt lat="45.53542887791473" lon="9.084227282421212"><ele>153.0</ele><time>2026-04-07T10:33:57Z</time></trkpt><trkpt lat="45.535567819066344" lon="9.083974078297953"><ele>153.33333333333334</ele><time>2026-04-07T10:33:58Z</time></trkpt><trkpt lat="45.53570349392505" lon="9.083718382117409"><ele>153.66666666666669</ele><time>2026-04-07T10:33:59Z</time></trkpt><trkpt lat="45.53583956287319" lon="9.08346452193869"><ele>154.0</ele><time>2026-04-07T10:34:00Z</time></trkpt><trkpt lat="45.53597826133706" lon="9.083208491249106"><ele>154.0</ele><time>2026-04-07T10:34:01Z</time></trkpt><trkpt lat="45.53611772423548" lon="9.082949622417342"><ele>154.0</ele><time>2026-04-07T10:34:02Z</time></trkpt><trkpt lat="45.536259363621085" lon="9.082689146999826"><ele>154.0</ele><time>2026-04-07T10:34:03Z</time></trkpt><trkpt lat="45.536395706417295" lon="9.082431212231873"><ele>154.0</ele><time>2026-04-07T10:34:04Z</time></trkpt><trkpt lat="45.536538534593156" lon="9.082167466515925"><ele>154.0</ele><time>2026-04-07T10:34:05Z</time></trkpt><trkpt lat="45.53667682920677" lon="9.081905904254992"><ele>154.0</ele><time>2026-04-07T10:34:06Z</time></trkpt><trkpt lat="45.536817501287985" lon="9.081642735473153"><ele>154.5</ele><time>2026-04-07T10:34:07Z</time></trkpt><trkpt lat="45.536957677231456" lon="9.081381463159365"><ele>155.0</ele><time>2026-04-07T10:34:08Z</time></trkpt><trkpt lat="45.53709864869191" lon="9.081118242861786"><ele>154.0</ele><time>2026-04-07T10:34:09Z</time></trkpt><trkpt lat="45.53723692266463" lon="9.080856005658632"><ele>153.0</ele><time>2026-04-07T10:34:10Z</time></trkpt><trkpt lat="45.53736700323019" lon="9.080603486152787"><ele>152.0</ele><time>2026-04-07T10:34:11Z</time></trkpt><trkpt lat="45.53750916594267" lon="9.080337446057598"><ele>152.0</ele><time>2026-04-07T10:34:12Z</time></trkpt><trkpt lat="45.537646608430435" lon="9.080081258307283"><ele>152.0</ele><time>2026-04-07T10:34:13Z</time></trkpt><trkpt lat="45.53778489228701" lon="9.079822120437317"><ele>152.5</ele><time>2026-04-07T10:34:14Z</time></trkpt><trkpt lat="45.53792248524282" lon="9.079566492941034"><ele>153.0</ele><time>2026-04-07T10:34:15Z</time></trkpt><trkpt lat="45.538062151430275" lon="9.079307153401603"><ele>153.0</ele><time>2026-04-07T10:34:16Z</time></trkpt><trkpt lat="45.53819699082973" lon="9.079053660219573"><ele>153.0</ele><time>2026-04-07T10:34:17Z</time></trkpt><trkpt lat="45.53833197863545" lon="9.078798872394408"><ele>153.0</ele><time>2026-04-07T10:34:18Z</time></trkpt><trkpt lat="45.538471463234536" lon="9.07853855296165"><ele>153.0</ele><time>2026-04-07T10:34:19Z</time></trkpt><trkpt lat="45.53860842094266" lon="9.078284465680778"><ele>153.0</ele><time>2026-04-07T10:34:20Z</time></trkpt><trkpt lat="45.53874468780542" lon="9.078031122163527"><ele>153.0</ele><time>2026-04-07T10:34:21Z</time></trkpt><trkpt lat="45.53888479449328" lon="9.077773306979596"><ele>153.5</ele><time>2026-04-07T10:34:22Z</time></trkpt><trkpt lat="45.53902328918621" lon="9.077516143741203"><ele>154.0</ele><time>2026-04-07T10:34:23Z</time></trkpt><trkpt lat="45.53915926177427" lon="9.077256348000288"><ele>154.0</ele><time>2026-04-07T10:34:24Z</time></trkpt><trkpt lat="45.53929718421599" lon="9.07699669805024"><ele>154.0</ele><time>2026-04-07T10:34:25Z</time></trkpt><trkpt lat="45.53943245625536" lon="9.076737403815578"><ele>154.33333333333334</ele><time>2026-04-07T10:34:26Z</time></trkpt><trkpt lat="45.53956389977349" lon="9.076479834648833"><ele>154.66666666666666</ele><time>2026-04-07T10:34:27Z</time></trkpt><trkpt lat="45.53970089522656" lon="9.076222729789599"><ele>155.0</ele><time>2026-04-07T10:34:28Z</time></trkpt><trkpt lat="45.53983712648161" lon="9.075967462055724"><ele>155.0</ele><time>2026-04-07T10:34:29Z</time></trkpt><trkpt lat="45.53997538527383" lon="9.075706848934702"><ele>155.0</ele><time>2026-04-07T10:34:30Z</time></trkpt><trkpt lat="45.54011234192085" lon="9.075447069913572"><ele>155.0</ele><time>2026-04-07T10:34:31Z</time></trkpt><trkpt lat="45.5402514333122" lon="9.075180680528009"><ele>155.0</ele><time>2026-04-07T10:34:32Z</time></trkpt><trkpt lat="45.540377467436805" lon="9.074923500293346"><ele>155.0</ele><time>2026-04-07T10:34:33Z</time></trkpt><trkpt lat="45.54051706855864" lon="9.074652308380676"><ele>155.0</ele><time>2026-04-07T10:34:34Z</time></trkpt><trkpt lat="45.54065891213245" lon="9.074384676081854"><ele>155.0</ele><time>2026-04-07T10:34:35Z</time></trkpt><trkpt lat="45.54079844889837" lon="9.074125541804156"><ele>155.0</ele><time>2026-04-07T10:34:36Z</time></trkpt><trkpt lat="45.54093935205595" lon="9.073866512164269"><ele>156.0</ele><time>2026-04-07T10:34:37Z</time></trkpt><trkpt lat="45.54107653282581" lon="9.073615955914786"><ele>157.0</ele><time>2026-04-07T10:34:38Z</time></trkpt><trkpt lat="45.54122310936415" lon="9.07336610841272"><ele>156.0</ele><time>2026-04-07T10:34:39Z</time></trkpt><trkpt lat="45.541369533923984" lon="9.073113554579251"><ele>155.0</ele><time>2026-04-07T10:34:40Z</time></trkpt><trkpt lat="45.54150677813801" lon="9.072861651873277"><ele>155.0</ele><time>2026-04-07T10:34:41Z</time></trkpt><trkpt lat="45.541646079762614" lon="9.072602796180048"><ele>155.0</ele><time>2026-04-07T10:34:42Z</time></trkpt><trkpt lat="45.54179132155096" lon="9.072338695411311"><ele>155.5</ele><time>2026-04-07T10:34:43.001Z</time></trkpt><trkpt lat="45.54192917667777" lon="9.072079795464944"><ele>156.0</ele><time>2026-04-07T10:34:44.001Z</time></trkpt><trkpt lat="45.542068866993645" lon="9.071815917571875"><ele>157.5</ele><time>2026-04-07T10:34:45.001Z</time></trkpt><trkpt lat="45.542212107848776" lon="9.071545387202363"><ele>159.0</ele><time>2026-04-07T10:34:46.001Z</time></trkpt><trkpt lat="45.54235125605064" lon="9.071289825651764"><ele>159.0</ele><time>2026-04-07T10:34:47.001Z</time></trkpt><trkpt lat="45.54249333862769" lon="9.07102999339192"><ele>159.0</ele><time>2026-04-07T10:34:47.998Z</time></trkpt><trkpt lat="45.54263340501934" lon="9.070764731139626"><ele>158.5</ele><time>2026-04-07T10:34:48.998Z</time></trkpt><trkpt lat="45.54277176615454" lon="9.070504822115923"><ele>158.0</ele><time>2026-04-07T10:34:49.998Z</time></trkpt><trkpt lat="45.54291076178482" lon="9.070244237515405"><ele>158.0</ele><time>2026-04-07T10:34:50.998Z</time></trkpt><trkpt lat="45.54305196557131" lon="9.069981204088856"><ele>158.0</ele><time>2026-04-07T10:34:51.998Z</time></trkpt><trkpt lat="45.543193769325356" lon="9.069717485314802"><ele>158.5</ele><time>2026-04-07T10:34:52.998Z</time></trkpt><trkpt lat="45.54333679141416" lon="9.069458334033536"><ele>159.0</ele><time>2026-04-07T10:34:53.998Z</time></trkpt><trkpt lat="45.54348048405817" lon="9.069204627233638"><ele>159.0</ele><time>2026-04-07T10:34:54.998Z</time></trkpt><trkpt lat="45.54362435440859" lon="9.068951221539828"><ele>159.0</ele><time>2026-04-07T10:34:55.998Z</time></trkpt><trkpt lat="45.54376418383933" lon="9.068691414700988"><ele>159.0</ele><time>2026-04-07T10:34:56.998Z</time></trkpt><trkpt lat="45.54389996869183" lon="9.06843691394698"><ele>159.0</ele><time>2026-04-07T10:34:57.998Z</time></trkpt><trkpt lat="45.54404132734064" lon="9.06818221791345"><ele>159.0</ele><time>2026-04-07T10:34:58.998Z</time></trkpt><trkpt lat="45.54416039451826" lon="9.06792922749826"><ele>159.0</ele><time>2026-04-07T10:34:59.998Z</time></trkpt><trkpt lat="45.544310280168595" lon="9.067672403373594"><ele>159.0</ele><time>2026-04-07T10:35:00.998Z</time></trkpt><trkpt lat="45.544447638277745" lon="9.067415953619612"><ele>161.0</ele><time>2026-04-07T10:35:01.998Z</time></trkpt><trkpt lat="45.544591546588826" lon="9.067163051270377"><ele>163.0</ele><time>2026-04-07T10:35:02.999Z</time></trkpt><trkpt lat="45.544730951769466" lon="9.066900487049233"><ele>163.0</ele><time>2026-04-07T10:35:03.999Z</time></trkpt><trkpt lat="45.5448695215452" lon="9.06664022591032"><ele>163.0</ele><time>2026-04-07T10:35:04.999Z</time></trkpt><trkpt lat="45.5450037472395" lon="9.066381021243693"><ele>163.0</ele><time>2026-04-07T10:35:05.999Z</time></trkpt><trkpt lat="45.54513639334876" lon="9.066124823375834"><ele>163.0</ele><time>2026-04-07T10:35:06.999Z</time></trkpt><trkpt lat="45.5452708013785" lon="9.065866858699383"><ele>163.0</ele><time>2026-04-07T10:35:07.999Z</time></trkpt><trkpt lat="45.54540865237303" lon="9.065610124378388"><ele>163.0</ele><time>2026-04-07T10:35:08.999Z</time></trkpt><trkpt lat="45.54554749866069" lon="9.065350439619753"><ele>163.0</ele><time>2026-04-07T10:35:09.999Z</time></trkpt><trkpt lat="45.54568541589975" lon="9.06509316367347"><ele>162.0</ele><time>2026-04-07T10:35:10.999Z</time></trkpt><trkpt lat="45.54582986000482" lon="9.06483497051235"><ele>161.0</ele><time>2026-04-07T10:35:11.999Z</time></trkpt><trkpt lat="45.545967170798534" lon="9.06457840586418"><ele>161.0</ele><time>2026-04-07T10:35:12.999Z</time></trkpt><trkpt lat="45.54610894426368" lon="9.064322572195909"><ele>161.0</ele><time>2026-04-07T10:35:13.999Z</time></trkpt><trkpt lat="45.54625185535199" lon="9.064071182427233"><ele>161.33333333333331</ele><time>2026-04-07T10:35:14.999Z</time></trkpt><trkpt lat="45.54639583971331" lon="9.063817591248103"><ele>161.66666666666666</ele><time>2026-04-07T10:35:15.999Z</time></trkpt><trkpt lat="45.54652982009335" lon="9.063571335188044"><ele>162.0</ele><time>2026-04-07T10:35:16.999Z</time></trkpt><trkpt lat="45.54666241454068" lon="9.063329972514609"><ele>162.0</ele><time>2026-04-07T10:35:17.999Z</time></trkpt><trkpt lat="45.54679415955673" lon="9.06309434539596"><ele>162.0</ele><time>2026-04-07T10:35:18.999Z</time></trkpt><trkpt lat="45.546923420026346" lon="9.06286556618384"><ele>162.0</ele><time>2026-04-07T10:35:19.999Z</time></trkpt><trkpt lat="45.54705470191922" lon="9.062640952466767"><ele>161.66666666666666</ele><time>2026-04-07T10:35:20.999Z</time></trkpt><trkpt lat="45.547187007173584" lon="9.062425601265156"><ele>161.33333333333331</ele><time>2026-04-07T10:35:21.999Z</time></trkpt><trkpt lat="45.547318451716926" lon="9.062224613112443"><ele>161.0</ele><time>2026-04-07T10:35:22.999Z</time></trkpt><trkpt lat="45.54744808087405" lon="9.062037450184409"><ele>161.0</ele><time>2026-04-07T10:35:23.999Z</time></trkpt><trkpt lat="45.54757208508461" lon="9.061869072993105"><ele>161.0</ele><time>2026-04-07T10:35:24.999Z</time></trkpt><trkpt lat="45.547694289608074" lon="9.061699308036111"><ele>161.0</ele><time>2026-04-07T10:35:25.999Z</time></trkpt><trkpt lat="45.54781795826273" lon="9.061550607958317"><ele>161.0</ele><time>2026-04-07T10:35:26.999Z</time></trkpt><trkpt lat="45.547936727035676" lon="9.061409090007947"><ele>161.0</ele><time>2026-04-07T10:35:28Z</time></trkpt><trkpt lat="45.54805370433518" lon="9.061275512537778"><ele>161.0</ele><time>2026-04-07T10:35:29Z</time></trkpt><trkpt lat="45.54815888262816" lon="9.061152173256762"><ele>161.0</ele><time>2026-04-07T10:35:30Z</time></trkpt><trkpt lat="45.54825400291249" lon="9.061028885483823"><ele>161.0</ele><time>2026-04-07T10:35:31Z</time></trkpt><trkpt lat="45.54833556750145" lon="9.060907560952362"><ele>161.0</ele><time>2026-04-07T10:35:32Z</time></trkpt><trkpt lat="45.54841272682324" lon="9.060782558107109"><ele>161.0</ele><time>2026-04-07T10:35:33Z</time></trkpt><trkpt lat="45.548484042814444" lon="9.060659861290043"><ele>161.0</ele><time>2026-04-07T10:35:34Z</time></trkpt><trkpt lat="45.54854477384478" lon="9.060551079297996"><ele>161.0</ele><time>2026-04-07T10:35:35Z</time></trkpt><trkpt lat="45.54860169116688" lon="9.06044786943423"><ele>161.0</ele><time>2026-04-07T10:35:36Z</time></trkpt><trkpt lat="45.54865767057972" lon="9.060343451036358"><ele>161.0</ele><time>2026-04-07T10:35:37Z</time></trkpt><trkpt lat="45.5487122600044" lon="9.060242634633578"><ele>161.0</ele><time>2026-04-07T10:35:38Z</time></trkpt><trkpt lat="45.54876932172494" lon="9.060140051418609"><ele>161.0</ele><time>2026-04-07T10:35:39Z</time></trkpt><trkpt lat="45.54882109682106" lon="9.06003135150976"><ele>161.0</ele><time>2026-04-07T10:35:40Z</time></trkpt><trkpt lat="45.548874308968536" lon="9.05991078756779"><ele>160.5</ele><time>2026-04-07T10:35:41Z</time></trkpt><trkpt lat="45.54893751374727" lon="9.059781979118165"><ele>160.0</ele><time>2026-04-07T10:35:42Z</time></trkpt><trkpt lat="45.54900465972475" lon="9.059634245434223"><ele>159.5</ele><time>2026-04-07T10:35:43Z</time></trkpt><trkpt lat="45.54906927211562" lon="9.059478338313669"><ele>159.0</ele><time>2026-04-07T10:35:44Z</time></trkpt><trkpt lat="45.549131232593915" lon="9.059321953653052"><ele>159.0</ele><time>2026-04-07T10:35:45Z</time></trkpt><trkpt lat="45.54919491242365" lon="9.059153572341948"><ele>159.0</ele><time>2026-04-07T10:35:46Z</time></trkpt><trkpt lat="45.549257674981845" lon="9.05898042375567"><ele>159.0</ele><time>2026-04-07T10:35:47Z</time></trkpt><trkpt lat="45.54932512635346" lon="9.058794727671385"><ele>159.0</ele><time>2026-04-07T10:35:48Z</time></trkpt><trkpt lat="45.54939255045496" lon="9.058608452248059"><ele>159.66666666666666</ele><time>2026-04-07T10:35:49Z</time></trkpt><trkpt lat="45.54946187798409" lon="9.058417264144811"><ele>160.33333333333331</ele><time>2026-04-07T10:35:50Z</time></trkpt><trkpt lat="45.549533751427404" lon="9.05822401075231"><ele>161.0</ele><time>2026-04-07T10:35:51Z</time></trkpt><trkpt lat="45.549612991346294" lon="9.058029664296736"><ele>163.33333333333331</ele><time>2026-04-07T10:35:52Z</time></trkpt><trkpt lat="45.54969619933485" lon="9.057838511959902"><ele>165.66666666666666</ele><time>2026-04-07T10:35:53Z</time></trkpt><trkpt lat="45.54977990015262" lon="9.057659790112245"><ele>168.0</ele><time>2026-04-07T10:35:54Z</time></trkpt><trkpt lat="45.549865391915105" lon="9.057490502737737"><ele>167.33333333333334</ele><time>2026-04-07T10:35:55Z</time></trkpt><trkpt lat="45.5499571154297" lon="9.05731162740805"><ele>166.66666666666669</ele><time>2026-04-07T10:35:56Z</time></trkpt><trkpt lat="45.55005547043184" lon="9.057128436265677"><ele>166.0</ele><time>2026-04-07T10:35:57Z</time></trkpt><trkpt lat="45.55015224243857" lon="9.056947950160687"><ele>166.0</ele><time>2026-04-07T10:35:58Z</time></trkpt><trkpt lat="45.550247402321425" lon="9.056768913099916"><ele>166.0</ele><time>2026-04-07T10:35:59Z</time></trkpt><trkpt lat="45.5503427473705" lon="9.056585726889955"><ele>166.0</ele><time>2026-04-07T10:36:00Z</time></trkpt><trkpt lat="45.550442522933416" lon="9.056398870822283"><ele>166.0</ele><time>2026-04-07T10:36:01Z</time></trkpt><trkpt lat="45.550546404027735" lon="9.056204620269186"><ele>166.0</ele><time>2026-04-07T10:36:02Z</time></trkpt><trkpt lat="45.55065492320844" lon="9.056006011471391"><ele>166.0</ele><time>2026-04-07T10:36:03Z</time></trkpt><trkpt lat="45.55076416602238" lon="9.055803772335652"><ele>165.66666666666669</ele><time>2026-04-07T10:36:04Z</time></trkpt><trkpt lat="45.550873853115" lon="9.055598729656577"><ele>165.33333333333334</ele><time>2026-04-07T10:36:05Z</time></trkpt><trkpt lat="45.55098445117079" lon="9.055391355633372"><ele>165.0</ele><time>2026-04-07T10:36:06Z</time></trkpt><trkpt lat="45.551098718445424" lon="9.055179844743275"><ele>164.0</ele><time>2026-04-07T10:36:07Z</time></trkpt><trkpt lat="45.55121488129542" lon="9.05496483123647"><ele>163.0</ele><time>2026-04-07T10:36:08Z</time></trkpt><trkpt lat="45.55133242485408" lon="9.054747563251588"><ele>162.0</ele><time>2026-04-07T10:36:09Z</time></trkpt><trkpt lat="45.551447572640214" lon="9.054534866789913"><ele>162.0</ele><time>2026-04-07T10:36:10Z</time></trkpt><trkpt lat="45.55156389222471" lon="9.054316901228509"><ele>162.0</ele><time>2026-04-07T10:36:11Z</time></trkpt><trkpt lat="45.551684803934705" lon="9.054094133205393"><ele>162.0</ele><time>2026-04-07T10:36:12Z</time></trkpt><trkpt lat="45.551807143747205" lon="9.053868381237766"><ele>162.66666666666666</ele><time>2026-04-07T10:36:13Z</time></trkpt><trkpt lat="45.55192910125291" lon="9.05364405899978"><ele>163.33333333333331</ele><time>2026-04-07T10:36:14Z</time></trkpt><trkpt lat="45.552055135109" lon="9.053414296640298"><ele>164.0</ele><time>2026-04-07T10:36:15Z</time></trkpt><trkpt lat="45.55217885789084" lon="9.053184275492814"><ele>164.33333333333331</ele><time>2026-04-07T10:36:16Z</time></trkpt><trkpt lat="45.552304393425146" lon="9.052951692046719"><ele>164.66666666666666</ele><time>2026-04-07T10:36:17Z</time></trkpt><trkpt lat="45.55242861508547" lon="9.052717972734554"><ele>165.0</ele><time>2026-04-07T10:36:18Z</time></trkpt><trkpt lat="45.55254946550439" lon="9.0524844668553"><ele>165.33333333333334</ele><time>2026-04-07T10:36:19Z</time></trkpt><trkpt lat="45.55267428480935" lon="9.052248536044072"><ele>165.66666666666669</ele><time>2026-04-07T10:36:20Z</time></trkpt><trkpt lat="45.55279938784779" lon="9.052005217278367"><ele>166.0</ele><time>2026-04-07T10:36:21Z</time></trkpt><trkpt lat="45.55291682230712" lon="9.051765603306626"><ele>165.66666666666669</ele><time>2026-04-07T10:36:22Z</time></trkpt><trkpt lat="45.55304381319747" lon="9.05151958074546"><ele>165.33333333333334</ele><time>2026-04-07T10:36:23.001Z</time></trkpt><trkpt lat="45.55317207863354" lon="9.051272366431691"><ele>165.0</ele><time>2026-04-07T10:36:24.001Z</time></trkpt><trkpt lat="45.55329848062459" lon="9.051024823289003"><ele>165.0</ele><time>2026-04-07T10:36:25.001Z</time></trkpt><trkpt lat="45.55342595846351" lon="9.050777171944926"><ele>165.0</ele><time>2026-04-07T10:36:26.001Z</time></trkpt><trkpt lat="45.55355106198295" lon="9.050532216225491"><ele>165.0</ele><time>2026-04-07T10:36:27.001Z</time></trkpt><trkpt lat="45.55367328912751" lon="9.050288825892721"><ele>164.66666666666666</ele><time>2026-04-07T10:36:28.001Z</time></trkpt><trkpt lat="45.55380981850118" lon="9.05004443771337"><ele>164.33333333333331</ele><time>2026-04-07T10:36:29.001Z</time></trkpt><trkpt lat="45.553937085442776" lon="9.049809594709362"><ele>164.0</ele><time>2026-04-07T10:36:30.001Z</time></trkpt><trkpt lat="45.554070053536044" lon="9.049567129484517"><ele>164.0</ele><time>2026-04-07T10:36:31.001Z</time></trkpt><trkpt lat="45.55420220161037" lon="9.049321359813671"><ele>164.0</ele><time>2026-04-07T10:36:32.001Z</time></trkpt><trkpt lat="45.5543279043058" lon="9.049076816611487"><ele>164.0</ele><time>2026-04-07T10:36:33.001Z</time></trkpt><trkpt lat="45.5544552372148" lon="9.048831146007501"><ele>164.0</ele><time>2026-04-07T10:36:34.001Z</time></trkpt><trkpt lat="45.55458330567758" lon="9.048583922240216"><ele>164.0</ele><time>2026-04-07T10:36:35.001Z</time></trkpt><trkpt lat="45.55471647187299" lon="9.048334078319362"><ele>164.0</ele><time>2026-04-07T10:36:36.001Z</time></trkpt><trkpt lat="45.554843025602494" lon="9.048089363543601"><ele>164.0</ele><time>2026-04-07T10:36:37.001Z</time></trkpt><trkpt lat="45.55497192977711" lon="9.047841694277782"><ele>164.0</ele><time>2026-04-07T10:36:38.001Z</time></trkpt><trkpt lat="45.55510195553611" lon="9.047592125066151"><ele>164.0</ele><time>2026-04-07T10:36:39.001Z</time></trkpt><trkpt lat="45.555233322216324" lon="9.047341484502908"><ele>164.33333333333331</ele><time>2026-04-07T10:36:40.001Z</time></trkpt><trkpt lat="45.55536386645834" lon="9.047093279592586"><ele>164.66666666666666</ele><time>2026-04-07T10:36:41.001Z</time></trkpt><trkpt lat="45.55549509863617" lon="9.0468471411519"><ele>165.0</ele><time>2026-04-07T10:36:42.001Z</time></trkpt><trkpt lat="45.55563005966719" lon="9.046604569238013"><ele>164.33333333333334</ele><time>2026-04-07T10:36:43.001Z</time></trkpt><trkpt lat="45.55575782730558" lon="9.046361584615507"><ele>163.66666666666669</ele><time>2026-04-07T10:36:44.001Z</time></trkpt><trkpt lat="45.55588691112439" lon="9.04611763663098"><ele>163.0</ele><time>2026-04-07T10:36:45.001Z</time></trkpt><trkpt lat="45.55601797021883" lon="9.04587247041878"><ele>163.33333333333334</ele><time>2026-04-07T10:36:46.001Z</time></trkpt><trkpt lat="45.55614860976408" lon="9.045626925630776"><ele>163.66666666666666</ele><time>2026-04-07T10:36:47.001Z</time></trkpt><trkpt lat="45.55627710933009" lon="9.04538309644092"><ele>164.0</ele><time>2026-04-07T10:36:48.001Z</time></trkpt><trkpt lat="45.55640827495231" lon="9.045137739560573"><ele>164.66666666666666</ele><time>2026-04-07T10:36:49.001Z</time></trkpt><trkpt lat="45.55654391165523" lon="9.044890879877867"><ele>165.33333333333334</ele><time>2026-04-07T10:36:50.001Z</time></trkpt><trkpt lat="45.55667976162918" lon="9.044643305125385"><ele>166.0</ele><time>2026-04-07T10:36:51.001Z</time></trkpt><trkpt lat="45.556813226607595" lon="9.044396284575857"><ele>166.0</ele><time>2026-04-07T10:36:52.001Z</time></trkpt><trkpt lat="45.55694390477786" lon="9.044150783961493"><ele>166.0</ele><time>2026-04-07T10:36:53.001Z</time></trkpt><trkpt lat="45.55707382078805" lon="9.043905503171626"><ele>166.0</ele><time>2026-04-07T10:36:53.998Z</time></trkpt><trkpt lat="45.55720512101689" lon="9.04365684106562"><ele>166.66666666666669</ele><time>2026-04-07T10:36:54.998Z</time></trkpt><trkpt lat="45.55733626894959" lon="9.043409436819777"><ele>167.33333333333334</ele><time>2026-04-07T10:36:55.998Z</time></trkpt><trkpt lat="45.55745716568837" lon="9.043169037375053"><ele>168.0</ele><time>2026-04-07T10:36:56.998Z</time></trkpt><trkpt lat="45.55759287291454" lon="9.042915279550074"><ele>168.0</ele><time>2026-04-07T10:36:57.998Z</time></trkpt><trkpt lat="45.55772442586104" lon="9.042665919916658"><ele>168.0</ele><time>2026-04-07T10:36:58.998Z</time></trkpt><trkpt lat="45.55785563939065" lon="9.042412160558735"><ele>168.0</ele><time>2026-04-07T10:36:59.998Z</time></trkpt><trkpt lat="45.557986116227816" lon="9.04216149544033"><ele>167.66666666666666</ele><time>2026-04-07T10:37:00.998Z</time></trkpt><trkpt lat="45.5581188736192" lon="9.041912264807555"><ele>167.33333333333331</ele><time>2026-04-07T10:37:01.998Z</time></trkpt><trkpt lat="45.558254493307054" lon="9.041662983064725"><ele>167.0</ele><time>2026-04-07T10:37:02.998Z</time></trkpt><trkpt lat="45.558394111816334" lon="9.041418032773961"><ele>167.0</ele><time>2026-04-07T10:37:03.998Z</time></trkpt><trkpt lat="45.55852870206229" lon="9.041169961729441"><ele>167.0</ele><time>2026-04-07T10:37:04.998Z</time></trkpt><trkpt lat="45.55866349489136" lon="9.04092150173031"><ele>167.0</ele><time>2026-04-07T10:37:05.998Z</time></trkpt><trkpt lat="45.558796547531976" lon="9.040674636200714"><ele>167.66666666666666</ele><time>2026-04-07T10:37:06.998Z</time></trkpt><trkpt lat="45.558927926464655" lon="9.040430394056308"><ele>168.33333333333334</ele><time>2026-04-07T10:37:07.998Z</time></trkpt><trkpt lat="45.55905627445246" lon="9.040188148257824"><ele>169.0</ele><time>2026-04-07T10:37:08.998Z</time></trkpt><trkpt lat="45.55918468670656" lon="9.039941943213035"><ele>169.0</ele><time>2026-04-07T10:37:09.998Z</time></trkpt><trkpt lat="45.559313250654476" lon="9.039697738716594"><ele>169.0</ele><time>2026-04-07T10:37:10.999Z</time></trkpt><trkpt lat="45.559440936476896" lon="9.039455016786407"><ele>169.0</ele><time>2026-04-07T10:37:11.999Z</time></trkpt><trkpt lat="45.55956650779207" lon="9.03921813247258"><ele>169.33333333333334</ele><time>2026-04-07T10:37:12.999Z</time></trkpt><trkpt lat="45.55969307533063" lon="9.038978906136316"><ele>169.66666666666666</ele><time>2026-04-07T10:37:13.999Z</time></trkpt><trkpt lat="45.55982331292508" lon="9.038738975741886"><ele>170.0</ele><time>2026-04-07T10:37:14.999Z</time></trkpt><trkpt lat="45.55995013508731" lon="9.038501563219535"><ele>170.0</ele><time>2026-04-07T10:37:15.999Z</time></trkpt><trkpt lat="45.56007730499273" lon="9.038265109624367"><ele>170.0</ele><time>2026-04-07T10:37:16.999Z</time></trkpt><trkpt lat="45.56020474261572" lon="9.0380296879018"><ele>170.0</ele><time>2026-04-07T10:37:17.999Z</time></trkpt><trkpt lat="45.56033239205627" lon="9.037795261701001"><ele>170.0</ele><time>2026-04-07T10:37:18.999Z</time></trkpt><trkpt lat="45.5604588432537" lon="9.037560875346934"><ele>170.0</ele><time>2026-04-07T10:37:19.999Z</time></trkpt><trkpt lat="45.560585583828" lon="9.03732478796337"><ele>170.0</ele><time>2026-04-07T10:37:20.999Z</time></trkpt><trkpt lat="45.56071142779606" lon="9.037087953826383"><ele>170.0</ele><time>2026-04-07T10:37:21.999Z</time></trkpt><trkpt lat="45.56084072645021" lon="9.036850085248949"><ele>170.0</ele><time>2026-04-07T10:37:22.999Z</time></trkpt><trkpt lat="45.56096740611274" lon="9.036613027299978"><ele>170.0</ele><time>2026-04-07T10:37:23.999Z</time></trkpt><trkpt lat="45.56109385109604" lon="9.036374806055116"><ele>170.33333333333331</ele><time>2026-04-07T10:37:24.999Z</time></trkpt><trkpt lat="45.561215281098086" lon="9.036142361074457"><ele>170.66666666666666</ele><time>2026-04-07T10:37:25.999Z</time></trkpt><trkpt lat="45.56134473900273" lon="9.035895785897708"><ele>171.0</ele><time>2026-04-07T10:37:26.999Z</time></trkpt><trkpt lat="45.56147381268072" lon="9.035647384507246"><ele>171.0</ele><time>2026-04-07T10:37:27.999Z</time></trkpt><trkpt lat="45.561600335310786" lon="9.035404820839124"><ele>171.0</ele><time>2026-04-07T10:37:28.999Z</time></trkpt><trkpt lat="45.5617286766616" lon="9.035159759866634"><ele>171.0</ele><time>2026-04-07T10:37:29.999Z</time></trkpt><trkpt lat="45.561856379922446" lon="9.034916927555466"><ele>171.0</ele><time>2026-04-07T10:37:30.999Z</time></trkpt><trkpt lat="45.561983834370984" lon="9.034674603948087"><ele>171.0</ele><time>2026-04-07T10:37:31.999Z</time></trkpt><trkpt lat="45.56210939636351" lon="9.03443098696592"><ele>171.0</ele><time>2026-04-07T10:37:32.999Z</time></trkpt><trkpt lat="45.56223598321864" lon="9.034186102725778"><ele>171.0</ele><time>2026-04-07T10:37:34Z</time></trkpt><trkpt lat="45.56236079663162" lon="9.033942305164109"><ele>171.0</ele><time>2026-04-07T10:37:35Z</time></trkpt><trkpt lat="45.562486687205435" lon="9.033698515511272"><ele>171.0</ele><time>2026-04-07T10:37:36Z</time></trkpt><trkpt lat="45.562609449470756" lon="9.03345677045227"><ele>171.33333333333334</ele><time>2026-04-07T10:37:37Z</time></trkpt><trkpt lat="45.56273551714158" lon="9.033213111017972"><ele>171.66666666666669</ele><time>2026-04-07T10:37:38Z</time></trkpt><trkpt lat="45.56285913846248" lon="9.032975848831754"><ele>172.0</ele><time>2026-04-07T10:37:39Z</time></trkpt><trkpt lat="45.56298239016905" lon="9.03273649218657"><ele>172.33333333333334</ele><time>2026-04-07T10:37:40Z</time></trkpt><trkpt lat="45.56311153138116" lon="9.032492346291269"><ele>172.66666666666666</ele><time>2026-04-07T10:37:41Z</time></trkpt><trkpt lat="45.563239489915475" lon="9.032250923408586"><ele>173.0</ele><time>2026-04-07T10:37:42Z</time></trkpt><trkpt lat="45.563368174947755" lon="9.032010302891583"><ele>173.0</ele><time>2026-04-07T10:37:43Z</time></trkpt><trkpt lat="45.56349844357155" lon="9.031772700720575"><ele>173.0</ele><time>2026-04-07T10:37:44Z</time></trkpt><trkpt lat="45.563629905193466" lon="9.03153289337754"><ele>173.0</ele><time>2026-04-07T10:37:45Z</time></trkpt><trkpt lat="45.56376013562683" lon="9.03129023338707"><ele>173.0</ele><time>2026-04-07T10:37:46Z</time></trkpt><trkpt lat="45.563890625424364" lon="9.031048161421358"><ele>173.0</ele><time>2026-04-07T10:37:47Z</time></trkpt><trkpt lat="45.5640226741435" lon="9.030802776165821"><ele>173.0</ele><time>2026-04-07T10:37:48Z</time></trkpt><trkpt lat="45.56415444623644" lon="9.03055641555939"><ele>173.0</ele><time>2026-04-07T10:37:49Z</time></trkpt><trkpt lat="45.56428440203493" lon="9.03031336080119"><ele>173.0</ele><time>2026-04-07T10:37:50Z</time></trkpt><trkpt lat="45.564416717710614" lon="9.030067335589145"><ele>173.0</ele><time>2026-04-07T10:37:51Z</time></trkpt><trkpt lat="45.56454902440447" lon="9.029823331230771"><ele>173.66666666666666</ele><time>2026-04-07T10:37:52Z</time></trkpt><trkpt lat="45.56468209158762" lon="9.029575793997655"><ele>174.33333333333334</ele><time>2026-04-07T10:37:53Z</time></trkpt><trkpt lat="45.56481535735263" lon="9.029332064517385"><ele>175.0</ele><time>2026-04-07T10:37:54Z</time></trkpt><trkpt lat="45.56494500173239" lon="9.029087526238207"><ele>175.0</ele><time>2026-04-07T10:37:55Z</time></trkpt><trkpt lat="45.56507952735083" lon="9.028839646137008"><ele>175.0</ele><time>2026-04-07T10:37:56Z</time></trkpt><trkpt lat="45.5652096349651" lon="9.028578551886396"><ele>175.0</ele><time>2026-04-07T10:37:57Z</time></trkpt><trkpt lat="45.565340121825976" lon="9.028333036327597"><ele>174.66666666666669</ele><time>2026-04-07T10:37:58Z</time></trkpt><trkpt lat="45.5654720791245" lon="9.028085677839698"><ele>174.33333333333334</ele><time>2026-04-07T10:37:59Z</time></trkpt><trkpt lat="45.56560255746096" lon="9.02783915564446"><ele>174.0</ele><time>2026-04-07T10:38:00Z</time></trkpt><trkpt lat="45.565728898414015" lon="9.027596270695769"><ele>174.0</ele><time>2026-04-07T10:38:01Z</time></trkpt><trkpt lat="45.56586202832604" lon="9.027346786711515"><ele>174.0</ele><time>2026-04-07T10:38:02Z</time></trkpt><trkpt lat="45.5659919629132" lon="9.027099680260315"><ele>174.0</ele><time>2026-04-07T10:38:03Z</time></trkpt><trkpt lat="45.56612438512879" lon="9.026854635444662"><ele>174.33333333333334</ele><time>2026-04-07T10:38:04Z</time></trkpt><trkpt lat="45.566256725042564" lon="9.026607130296892"><ele>174.66666666666669</ele><time>2026-04-07T10:38:05Z</time></trkpt><trkpt lat="45.566387664840995" lon="9.026360578299448"><ele>175.0</ele><time>2026-04-07T10:38:06Z</time></trkpt><trkpt lat="45.5665185777406" lon="9.026113074187727"><ele>175.0</ele><time>2026-04-07T10:38:07Z</time></trkpt><trkpt lat="45.56664975413331" lon="9.025871914301048"><ele>175.0</ele><time>2026-04-07T10:38:08Z</time></trkpt><trkpt lat="45.566782047270436" lon="9.02562833798808"><ele>175.0</ele><time>2026-04-07T10:38:09Z</time></trkpt><trkpt lat="45.56691276503734" lon="9.025384300493371"><ele>175.33333333333334</ele><time>2026-04-07T10:38:10Z</time></trkpt><trkpt lat="45.567041274447185" lon="9.025140478832883"><ele>175.66666666666666</ele><time>2026-04-07T10:38:11Z</time></trkpt><trkpt lat="45.56717076858464" lon="9.024895974622801"><ele>176.0</ele><time>2026-04-07T10:38:12Z</time></trkpt><trkpt lat="45.56730287719804" lon="9.024652349395046"><ele>176.0</ele><time>2026-04-07T10:38:13Z</time></trkpt><trkpt lat="45.56743278037282" lon="9.024409562228376"><ele>176.0</ele><time>2026-04-07T10:38:14Z</time></trkpt><trkpt lat="45.56756405277416" lon="9.024166498434866"><ele>176.0</ele><time>2026-04-07T10:38:15.001Z</time></trkpt><trkpt lat="45.56769252547109" lon="9.023922332205155"><ele>176.0</ele><time>2026-04-07T10:38:16.001Z</time></trkpt><trkpt lat="45.56782387166416" lon="9.02367957161163"><ele>176.0</ele><time>2026-04-07T10:38:17.001Z</time></trkpt><trkpt lat="45.56795257959441" lon="9.023435513691101"><ele>176.0</ele><time>2026-04-07T10:38:18.001Z</time></trkpt><trkpt lat="45.56808185057364" lon="9.023188251423681"><ele>176.33333333333331</ele><time>2026-04-07T10:38:19.001Z</time></trkpt><trkpt lat="45.56821225192429" lon="9.022944484972504"><ele>176.66666666666666</ele><time>2026-04-07T10:38:20.001Z</time></trkpt><trkpt lat="45.56834183667585" lon="9.022700279392573"><ele>177.0</ele><time>2026-04-07T10:38:21.001Z</time></trkpt><trkpt lat="45.568469998972375" lon="9.022457328533516"><ele>177.33333333333334</ele><time>2026-04-07T10:38:22.001Z</time></trkpt><trkpt lat="45.568597586646376" lon="9.022212956139755"><ele>177.66666666666669</ele><time>2026-04-07T10:38:23.001Z</time></trkpt><trkpt lat="45.5687279596803" lon="9.021964214376187"><ele>178.0</ele><time>2026-04-07T10:38:24.001Z</time></trkpt><trkpt lat="45.56885561557201" lon="9.021709146781422"><ele>179.0</ele><time>2026-04-07T10:38:25.001Z</time></trkpt><trkpt lat="45.56898354189112" lon="9.021454570069919"><ele>180.0</ele><time>2026-04-07T10:38:26.001Z</time></trkpt><trkpt lat="45.569108845843196" lon="9.021196035524287"><ele>181.0</ele><time>2026-04-07T10:38:27.001Z</time></trkpt><trkpt lat="45.56924044834964" lon="9.020939773022635"><ele>180.66666666666669</ele><time>2026-04-07T10:38:28.001Z</time></trkpt><trkpt lat="45.56936841421952" lon="9.020684597999098"><ele>180.33333333333334</ele><time>2026-04-07T10:38:29.001Z</time></trkpt><trkpt lat="45.56949650659902" lon="9.020429274910548"><ele>180.0</ele><time>2026-04-07T10:38:30.001Z</time></trkpt><trkpt lat="45.569627908416074" lon="9.02017942381262"><ele>180.0</ele><time>2026-04-07T10:38:31.001Z</time></trkpt><trkpt lat="45.56975924967049" lon="9.019933382871764"><ele>180.0</ele><time>2026-04-07T10:38:32.001Z</time></trkpt><trkpt lat="45.56989592836408" lon="9.01968705738897"><ele>180.0</ele><time>2026-04-07T10:38:33.001Z</time></trkpt><trkpt lat="45.570033435594915" lon="9.01944281835816"><ele>180.0</ele><time>2026-04-07T10:38:34.001Z</time></trkpt><trkpt lat="45.570168977416316" lon="9.019199088576611"><ele>180.0</ele><time>2026-04-07T10:38:35.001Z</time></trkpt><trkpt lat="45.570306856423485" lon="9.01895472083787"><ele>180.0</ele><time>2026-04-07T10:38:36.001Z</time></trkpt><trkpt lat="45.570444186071555" lon="9.018708970795515"><ele>180.0</ele><time>2026-04-07T10:38:37.001Z</time></trkpt><trkpt lat="45.5705777621536" lon="9.018465932668924"><ele>180.0</ele><time>2026-04-07T10:38:38.001Z</time></trkpt><trkpt lat="45.57071534903806" lon="9.018220567241363"><ele>180.0</ele><time>2026-04-07T10:38:39.001Z</time></trkpt><trkpt lat="45.57085136044848" lon="9.017974510970532"><ele>180.0</ele><time>2026-04-07T10:38:40.001Z</time></trkpt><trkpt lat="45.570986830855524" lon="9.017729621166145"><ele>180.0</ele><time>2026-04-07T10:38:41.001Z</time></trkpt><trkpt lat="45.571118905476354" lon="9.017481437355015"><ele>180.0</ele><time>2026-04-07T10:38:42.001Z</time></trkpt><trkpt lat="45.57125029421401" lon="9.017238847299181"><ele>180.0</ele><time>2026-04-07T10:38:43.001Z</time></trkpt><trkpt lat="45.571377768722165" lon="9.016997507849172"><ele>180.0</ele><time>2026-04-07T10:38:44.001Z</time></trkpt><trkpt lat="45.57150427657031" lon="9.016754572778636"><ele>180.0</ele><time>2026-04-07T10:38:45.001Z</time></trkpt><trkpt lat="45.57163494626658" lon="9.016509725131353"><ele>180.33333333333334</ele><time>2026-04-07T10:38:46.001Z</time></trkpt><trkpt lat="45.57176566736263" lon="9.0162609958967"><ele>180.66666666666669</ele><time>2026-04-07T10:38:47.001Z</time></trkpt><trkpt lat="45.57189841331539" lon="9.016015802657002"><ele>181.0</ele><time>2026-04-07T10:38:48.001Z</time></trkpt><trkpt lat="45.57202941481463" lon="9.01576874525093"><ele>181.0</ele><time>2026-04-07T10:38:49.001Z</time></trkpt><trkpt lat="45.5721630560256" lon="9.015519839711624"><ele>181.0</ele><time>2026-04-07T10:38:50.001Z</time></trkpt><trkpt lat="45.57229476038982" lon="9.015271817144768"><ele>181.0</ele><time>2026-04-07T10:38:51.001Z</time></trkpt><trkpt lat="45.5724234024777" lon="9.015022845715638"><ele>181.33333333333334</ele><time>2026-04-07T10:38:52.001Z</time></trkpt><trkpt lat="45.57255487051026" lon="9.014775605693972"><ele>181.66666666666666</ele><time>2026-04-07T10:38:53.001Z</time></trkpt><trkpt lat="45.572685429677314" lon="9.01453292306131"><ele>182.0</ele><time>2026-04-07T10:38:54.001Z</time></trkpt><trkpt lat="45.57281586865969" lon="9.014291351077954"><ele>181.66666666666666</ele><time>2026-04-07T10:38:55.001Z</time></trkpt><trkpt lat="45.572948417812995" lon="9.014051049157342"><ele>181.33333333333334</ele><time>2026-04-07T10:38:56.001Z</time></trkpt><trkpt lat="45.57308616619066" lon="9.013812546561487"><ele>181.0</ele><time>2026-04-07T10:38:57.001Z</time></trkpt><trkpt lat="45.57322404064134" lon="9.013580027977582"><ele>181.0</ele><time>2026-04-07T10:38:58.001Z</time></trkpt><trkpt lat="45.5733633645228" lon="9.01334102433861"><ele>181.0</ele><time>2026-04-07T10:38:59.001Z</time></trkpt><trkpt lat="45.573500187832046" lon="9.01310687697626"><ele>181.0</ele><time>2026-04-07T10:38:59.999Z</time></trkpt><trkpt lat="45.5736383848789" lon="9.012870981809831"><ele>180.33333333333334</ele><time>2026-04-07T10:39:00.999Z</time></trkpt><trkpt lat="45.57377758214315" lon="9.012633987654779"><ele>179.66666666666666</ele><time>2026-04-07T10:39:01.999Z</time></trkpt><trkpt lat="45.57391459725223" lon="9.012398082194833"><ele>179.0</ele><time>2026-04-07T10:39:02.999Z</time></trkpt><trkpt lat="45.57405181781953" lon="9.012161916598796"><ele>178.66666666666666</ele><time>2026-04-07T10:39:03.999Z</time></trkpt><trkpt lat="45.57418813041154" lon="9.011924733143266"><ele>178.33333333333334</ele><time>2026-04-07T10:39:04.999Z</time></trkpt><trkpt lat="45.57432467500066" lon="9.011688122039185"><ele>178.0</ele><time>2026-04-07T10:39:05.999Z</time></trkpt><trkpt lat="45.57446067327344" lon="9.011448313671202"><ele>178.33333333333334</ele><time>2026-04-07T10:39:06.999Z</time></trkpt><trkpt lat="45.574594804160554" lon="9.011210598502348"><ele>178.66666666666666</ele><time>2026-04-07T10:39:07.999Z</time></trkpt><trkpt lat="45.57472698620893" lon="9.010972413235292"><ele>179.0</ele><time>2026-04-07T10:39:08.999Z</time></trkpt><trkpt lat="45.57486378110603" lon="9.01073213677043"><ele>179.66666666666666</ele><time>2026-04-07T10:39:09.999Z</time></trkpt><trkpt lat="45.57499915747941" lon="9.010489193990578"><ele>180.33333333333334</ele><time>2026-04-07T10:39:10.999Z</time></trkpt><trkpt lat="45.57512990661942" lon="9.010252313717485"><ele>181.0</ele><time>2026-04-07T10:39:11.999Z</time></trkpt><trkpt lat="45.57526174502215" lon="9.01001721206401"><ele>182.0</ele><time>2026-04-07T10:39:12.999Z</time></trkpt><trkpt lat="45.575393304740025" lon="9.009783888335368"><ele>183.0</ele><time>2026-04-07T10:39:13.999Z</time></trkpt><trkpt lat="45.57552208713557" lon="9.00955263112714"><ele>184.0</ele><time>2026-04-07T10:39:15Z</time></trkpt><trkpt lat="45.57564948408298" lon="9.00931977843059"><ele>184.0</ele><time>2026-04-07T10:39:16Z</time></trkpt><trkpt lat="45.57577890405582" lon="9.009084045436436"><ele>184.0</ele><time>2026-04-07T10:39:17Z</time></trkpt><trkpt lat="45.57590609822736" lon="9.00884782519708"><ele>184.0</ele><time>2026-04-07T10:39:18Z</time></trkpt><trkpt lat="45.57603425201892" lon="9.008610161473955"><ele>184.0</ele><time>2026-04-07T10:39:19Z</time></trkpt><trkpt lat="45.576161999295515" lon="9.008373472251602"><ele>184.0</ele><time>2026-04-07T10:39:20Z</time></trkpt><trkpt lat="45.576290204926096" lon="9.00813730552901"><ele>184.0</ele><time>2026-04-07T10:39:21Z</time></trkpt><trkpt lat="45.57641846468399" lon="9.007901499623836"><ele>184.33333333333334</ele><time>2026-04-07T10:39:22Z</time></trkpt><trkpt lat="45.576543676988464" lon="9.007664694714055"><ele>184.66666666666666</ele><time>2026-04-07T10:39:23Z</time></trkpt><trkpt lat="45.57667070122957" lon="9.007425387999044"><ele>185.0</ele><time>2026-04-07T10:39:24Z</time></trkpt><trkpt lat="45.57679732307788" lon="9.007184728252462"><ele>185.0</ele><time>2026-04-07T10:39:25Z</time></trkpt><trkpt lat="45.57692402160808" lon="9.006944909549995"><ele>185.0</ele><time>2026-04-07T10:39:26Z</time></trkpt><trkpt lat="45.57704846724435" lon="9.006710090284427"><ele>185.0</ele><time>2026-04-07T10:39:27Z</time></trkpt><trkpt lat="45.57717100529551" lon="9.006469232127511"><ele>184.66666666666666</ele><time>2026-04-07T10:39:28Z</time></trkpt><trkpt lat="45.5772945991365" lon="9.006228763062454"><ele>184.33333333333334</ele><time>2026-04-07T10:39:29Z</time></trkpt><trkpt lat="45.5774195162633" lon="9.005985872693152"><ele>184.0</ele><time>2026-04-07T10:39:30Z</time></trkpt><trkpt lat="45.57754657285762" lon="9.005741948578487"><ele>183.66666666666669</ele><time>2026-04-07T10:39:31Z</time></trkpt><trkpt lat="45.577669336715054" lon="9.005499531338312"><ele>183.33333333333334</ele><time>2026-04-07T10:39:32Z</time></trkpt><trkpt lat="45.57779415834183" lon="9.005254020376624"><ele>183.0</ele><time>2026-04-07T10:39:33Z</time></trkpt><trkpt lat="45.577915217449636" lon="9.00500457193915"><ele>184.33333333333334</ele><time>2026-04-07T10:39:34Z</time></trkpt><trkpt lat="45.57803546504121" lon="9.004755443984104"><ele>185.66666666666669</ele><time>2026-04-07T10:39:35Z</time></trkpt><trkpt lat="45.57815456391513" lon="9.00450430372508"><ele>187.0</ele><time>2026-04-07T10:39:36Z</time></trkpt><trkpt lat="45.57827141843932" lon="9.004253073694183"><ele>186.0</ele><time>2026-04-07T10:39:37Z</time></trkpt><trkpt lat="45.578389334077734" lon="9.003996236517958"><ele>185.0</ele><time>2026-04-07T10:39:38Z</time></trkpt><trkpt lat="45.57850848555107" lon="9.003738405703807"><ele>184.0</ele><time>2026-04-07T10:39:39Z</time></trkpt><trkpt lat="45.57862273970786" lon="9.00348266263616"><ele>185.0</ele><time>2026-04-07T10:39:40Z</time></trkpt><trkpt lat="45.578734272924216" lon="9.003225848251763"><ele>186.0</ele><time>2026-04-07T10:39:41Z</time></trkpt><trkpt lat="45.578847434786525" lon="9.002968877572963"><ele>187.0</ele><time>2026-04-07T10:39:42Z</time></trkpt><trkpt lat="45.578959157637485" lon="9.00271363118318"><ele>186.66666666666669</ele><time>2026-04-07T10:39:43Z</time></trkpt><trkpt lat="45.57907346538165" lon="9.002453787429458"><ele>186.33333333333334</ele><time>2026-04-07T10:39:44Z</time></trkpt><trkpt lat="45.57918550962936" lon="9.002193976807188"><ele>186.0</ele><time>2026-04-07T10:39:45Z</time></trkpt><trkpt lat="45.57929244976297" lon="9.001936685353925"><ele>186.0</ele><time>2026-04-07T10:39:46Z</time></trkpt><trkpt lat="45.579400029644354" lon="9.001679787069845"><ele>186.0</ele><time>2026-04-07T10:39:47Z</time></trkpt><trkpt lat="45.57951177690166" lon="9.00141745471717"><ele>186.0</ele><time>2026-04-07T10:39:48.001Z</time></trkpt><trkpt lat="45.57962993922011" lon="9.001162257343623"><ele>187.33333333333334</ele><time>2026-04-07T10:39:49.001Z</time></trkpt><trkpt lat="45.57973785260918" lon="9.00089752807775"><ele>188.66666666666669</ele><time>2026-04-07T10:39:50.001Z</time></trkpt><trkpt lat="45.57984677653599" lon="9.0006313506428"><ele>190.0</ele><time>2026-04-07T10:39:51.001Z</time></trkpt><trkpt lat="45.579958102437246" lon="9.000368781564307"><ele>190.0</ele><time>2026-04-07T10:39:52.001Z</time></trkpt><trkpt lat="45.580068307535676" lon="9.000107724405638"><ele>190.0</ele><time>2026-04-07T10:39:53.001Z</time></trkpt><trkpt lat="45.580181256506286" lon="8.999842424829298"><ele>190.0</ele><time>2026-04-07T10:39:54.001Z</time></trkpt><trkpt lat="45.58029572038474" lon="8.99957428530321"><ele>191.33333333333334</ele><time>2026-04-07T10:39:55.001Z</time></trkpt><trkpt lat="45.58040723546163" lon="8.99930718431287"><ele>192.66666666666669</ele><time>2026-04-07T10:39:56.001Z</time></trkpt><trkpt lat="45.58052047351713" lon="8.999040383968698"><ele>194.0</ele><time>2026-04-07T10:39:57.001Z</time></trkpt><trkpt lat="45.58063130646246" lon="8.998773650130323"><ele>194.0</ele><time>2026-04-07T10:39:58.001Z</time></trkpt><trkpt lat="45.58073881086469" lon="8.998515662201688"><ele>194.0</ele><time>2026-04-07T10:39:59.001Z</time></trkpt><trkpt lat="45.580848272586685" lon="8.998253194722285"><ele>194.0</ele><time>2026-04-07T10:40:00.001Z</time></trkpt><trkpt lat="45.58095177801643" lon="8.998003056767727"><ele>193.33333333333334</ele><time>2026-04-07T10:40:01.001Z</time></trkpt><trkpt lat="45.58106199127816" lon="8.997746890373385"><ele>192.66666666666669</ele><time>2026-04-07T10:40:02.001Z</time></trkpt><trkpt lat="45.581167562138106" lon="8.997496973089921"><ele>192.0</ele><time>2026-04-07T10:40:03.001Z</time></trkpt><trkpt lat="45.581283086070435" lon="8.997236393066617"><ele>193.33333333333331</ele><time>2026-04-07T10:40:04.001Z</time></trkpt><trkpt lat="45.58138890963147" lon="8.996978823270965"><ele>194.66666666666666</ele><time>2026-04-07T10:40:05.001Z</time></trkpt><trkpt lat="45.58150039430152" lon="8.996719369164685"><ele>196.0</ele><time>2026-04-07T10:40:06.001Z</time></trkpt><trkpt lat="45.58160664927698" lon="8.996462018309826"><ele>194.0</ele><time>2026-04-07T10:40:07.001Z</time></trkpt><trkpt lat="45.58171361525458" lon="8.996203130606226"><ele>192.0</ele><time>2026-04-07T10:40:08.001Z</time></trkpt><trkpt lat="45.581826937842905" lon="8.99594111614721"><ele>190.0</ele><time>2026-04-07T10:40:09.001Z</time></trkpt><trkpt lat="45.5819386230902" lon="8.995684298196661"><ele>189.0</ele><time>2026-04-07T10:40:10.001Z</time></trkpt><trkpt lat="45.582053108916746" lon="8.995421267055018"><ele>188.0</ele><time>2026-04-07T10:40:11.001Z</time></trkpt><trkpt lat="45.58216669907119" lon="8.995156127044794"><ele>187.0</ele><time>2026-04-07T10:40:12.001Z</time></trkpt><trkpt lat="45.58227482777808" lon="8.994897841858068"><ele>187.0</ele><time>2026-04-07T10:40:13.001Z</time></trkpt><trkpt lat="45.58238915471869" lon="8.9946304825159"><ele>187.0</ele><time>2026-04-07T10:40:14.001Z</time></trkpt><trkpt lat="45.58249758407764" lon="8.994361618979763"><ele>187.0</ele><time>2026-04-07T10:40:15.001Z</time></trkpt><trkpt lat="45.58260470125958" lon="8.994087235394982"><ele>187.0</ele><time>2026-04-07T10:40:16.001Z</time></trkpt><trkpt lat="45.582717290446986" lon="8.993813780082062"><ele>187.0</ele><time>2026-04-07T10:40:17.001Z</time></trkpt><trkpt lat="45.582831345845335" lon="8.993545173322634"><ele>187.0</ele><time>2026-04-07T10:40:18.001Z</time></trkpt><trkpt lat="45.58294781925103" lon="8.993279675943848"><ele>188.33333333333334</ele><time>2026-04-07T10:40:19.001Z</time></trkpt><trkpt lat="45.583062681264174" lon="8.993015188914304"><ele>189.66666666666666</ele><time>2026-04-07T10:40:20.001Z</time></trkpt><trkpt lat="45.58317361162534" lon="8.992750344153817"><ele>191.0</ele><time>2026-04-07T10:40:21.001Z</time></trkpt><trkpt lat="45.58328514898144" lon="8.992482623701186"><ele>191.33333333333331</ele><time>2026-04-07T10:40:22.001Z</time></trkpt><trkpt lat="45.583397115831595" lon="8.992219386092623"><ele>191.66666666666666</ele><time>2026-04-07T10:40:23.001Z</time></trkpt><trkpt lat="45.583506992050815" lon="8.99196179105252"><ele>192.0</ele><time>2026-04-07T10:40:24.001Z</time></trkpt><trkpt lat="45.58361815196198" lon="8.991700239606601"><ele>194.0</ele><time>2026-04-07T10:40:25.001Z</time></trkpt><trkpt lat="45.58372898070113" lon="8.991434145088453"><ele>196.0</ele><time>2026-04-07T10:40:26.001Z</time></trkpt><trkpt lat="45.58383960280351" lon="8.99117063768713"><ele>198.0</ele><time>2026-04-07T10:40:27.001Z</time></trkpt><trkpt lat="45.583951841490446" lon="8.990905499078988"><ele>196.66666666666669</ele><time>2026-04-07T10:40:28.001Z</time></trkpt><trkpt lat="45.58406000307552" lon="8.99064200402124"><ele>195.33333333333334</ele><time>2026-04-07T10:40:29.001Z</time></trkpt><trkpt lat="45.584172543173736" lon="8.990377962676947"><ele>194.0</ele><time>2026-04-07T10:40:30.002Z</time></trkpt><trkpt lat="45.58428570769388" lon="8.99011483285901"><ele>194.0</ele><time>2026-04-07T10:40:31.002Z</time></trkpt><trkpt lat="45.58439501035477" lon="8.989850448259533"><ele>194.0</ele><time>2026-04-07T10:40:32.002Z</time></trkpt><trkpt lat="45.58450427555993" lon="8.989590350966681"><ele>194.0</ele><time>2026-04-07T10:40:33.002Z</time></trkpt><trkpt lat="45.58460852896709" lon="8.989324894813269"><ele>194.0</ele><time>2026-04-07T10:40:34.002Z</time></trkpt><trkpt lat="45.58471738628627" lon="8.989064424024487"><ele>194.0</ele><time>2026-04-07T10:40:35.002Z</time></trkpt><trkpt lat="45.58482559415182" lon="8.988803036080462"><ele>194.0</ele><time>2026-04-07T10:40:36.002Z</time></trkpt><trkpt lat="45.58493767079152" lon="8.988540278665964"><ele>193.66666666666669</ele><time>2026-04-07T10:40:37.002Z</time></trkpt><trkpt lat="45.58504591475642" lon="8.988283453855077"><ele>193.33333333333331</ele><time>2026-04-07T10:40:38.002Z</time></trkpt><trkpt lat="45.58515602988955" lon="8.988027252089168"><ele>193.0</ele><time>2026-04-07T10:40:39.002Z</time></trkpt><trkpt lat="45.58526317300924" lon="8.987770761158599"><ele>193.0</ele><time>2026-04-07T10:40:40.002Z</time></trkpt><trkpt lat="45.58537144123943" lon="8.987513137538683"><ele>193.0</ele><time>2026-04-07T10:40:41.002Z</time></trkpt><trkpt lat="45.585477242664155" lon="8.987257151105682"><ele>193.0</ele><time>2026-04-07T10:40:42.002Z</time></trkpt><trkpt lat="45.58558523829311" lon="8.987001019705536"><ele>193.33333333333331</ele><time>2026-04-07T10:40:43.002Z</time></trkpt><trkpt lat="45.58569511445686" lon="8.986744774219632"><ele>193.66666666666669</ele><time>2026-04-07T10:40:44.002Z</time></trkpt><trkpt lat="45.5858072166133" lon="8.986485491888708"><ele>194.0</ele><time>2026-04-07T10:40:45.002Z</time></trkpt><trkpt lat="45.58591643061396" lon="8.986227226974622"><ele>194.0</ele><time>2026-04-07T10:40:46.002Z</time></trkpt><trkpt lat="45.586023977039105" lon="8.98596976079794"><ele>194.0</ele><time>2026-04-07T10:40:47.002Z</time></trkpt><trkpt lat="45.586131258255534" lon="8.98571175080274"><ele>194.0</ele><time>2026-04-07T10:40:48.002Z</time></trkpt><trkpt lat="45.586239666454325" lon="8.98545417122618"><ele>194.33333333333334</ele><time>2026-04-07T10:40:49.002Z</time></trkpt><trkpt lat="45.586347936402184" lon="8.98519531140119"><ele>194.66666666666669</ele><time>2026-04-07T10:40:50.002Z</time></trkpt><trkpt lat="45.5864573710704" lon="8.984935993122706"><ele>195.0</ele><time>2026-04-07T10:40:51.002Z</time></trkpt><trkpt lat="45.58656494542994" lon="8.984676239794101"><ele>195.0</ele><time>2026-04-07T10:40:52.002Z</time></trkpt><trkpt lat="45.58667317110092" lon="8.984418060114661"><ele>195.0</ele><time>2026-04-07T10:40:53.002Z</time></trkpt><trkpt lat="45.58678272039971" lon="8.984157135277654"><ele>195.0</ele><time>2026-04-07T10:40:54.002Z</time></trkpt><trkpt lat="45.586891186079065" lon="8.983898339971503"><ele>195.0</ele><time>2026-04-07T10:40:55.002Z</time></trkpt><trkpt lat="45.58699820526936" lon="8.983642135642048"><ele>195.0</ele><time>2026-04-07T10:40:56.002Z</time></trkpt><trkpt lat="45.587110272927845" lon="8.983380313764107"><ele>195.0</ele><time>2026-04-07T10:40:57.002Z</time></trkpt><trkpt lat="45.587218090195954" lon="8.983117360711912"><ele>194.0</ele><time>2026-04-07T10:40:58.002Z</time></trkpt><trkpt lat="45.5873268143358" lon="8.982856252770908"><ele>193.0</ele><time>2026-04-07T10:40:59.002Z</time></trkpt><trkpt lat="45.58743699634694" lon="8.982595199037824"><ele>192.0</ele><time>2026-04-07T10:41:00.002Z</time></trkpt><trkpt lat="45.58754532901173" lon="8.982334708251706"><ele>192.0</ele><time>2026-04-07T10:41:01.002Z</time></trkpt><trkpt lat="45.58765538597566" lon="8.982072605683104"><ele>192.0</ele><time>2026-04-07T10:41:02.002Z</time></trkpt><trkpt lat="45.58776382" lon="8.98181342457599"><ele>192.0</ele><time>2026-04-07T10:41:03.002Z</time></trkpt><trkpt lat="45.587874414945254" lon="8.981551214613454"><ele>192.66666666666669</ele><time>2026-04-07T10:41:04.002Z</time></trkpt><trkpt lat="45.587983536226915" lon="8.981291853362801"><ele>193.33333333333334</ele><time>2026-04-07T10:41:05.002Z</time></trkpt><trkpt lat="45.588092410209285" lon="8.98103123555649"><ele>194.0</ele><time>2026-04-07T10:41:05.999Z</time></trkpt><trkpt lat="45.588202183327" lon="8.980770957077565"><ele>194.66666666666669</ele><time>2026-04-07T10:41:06.999Z</time></trkpt><trkpt lat="45.58831038556781" lon="8.98051461453756"><ele>195.33333333333331</ele><time>2026-04-07T10:41:08Z</time></trkpt><trkpt lat="45.58842024080701" lon="8.980259379813562"><ele>196.0</ele><time>2026-04-07T10:41:09Z</time></trkpt><trkpt lat="45.58852710708742" lon="8.979999855294723"><ele>195.66666666666666</ele><time>2026-04-07T10:41:10Z</time></trkpt><trkpt lat="45.58863499217281" lon="8.979740837073257"><ele>195.33333333333331</ele><time>2026-04-07T10:41:11Z</time></trkpt><trkpt lat="45.58874419163433" lon="8.97948076827736"><ele>195.0</ele><time>2026-04-07T10:41:12Z</time></trkpt><trkpt lat="45.58885585536292" lon="8.979226842116411"><ele>195.0</ele><time>2026-04-07T10:41:13Z</time></trkpt><trkpt lat="45.58896774107076" lon="8.978969157774031"><ele>195.0</ele><time>2026-04-07T10:41:14Z</time></trkpt><trkpt lat="45.58907381267637" lon="8.97870588977299"><ele>195.0</ele><time>2026-04-07T10:41:15Z</time></trkpt><trkpt lat="45.589182656462135" lon="8.978440563126128"><ele>196.0</ele><time>2026-04-07T10:41:16Z</time></trkpt><trkpt lat="45.5892938219265" lon="8.97818089611365"><ele>197.0</ele><time>2026-04-07T10:41:17Z</time></trkpt><trkpt lat="45.58940277711802" lon="8.977914726208185"><ele>198.0</ele><time>2026-04-07T10:41:18Z</time></trkpt><trkpt lat="45.589516345221796" lon="8.977645806651859"><ele>198.66666666666669</ele><time>2026-04-07T10:41:19Z</time></trkpt><trkpt lat="45.58963097142861" lon="8.977381725802742"><ele>199.33333333333334</ele><time>2026-04-07T10:41:20Z</time></trkpt><trkpt lat="45.58974109206614" lon="8.977114873579104"><ele>200.0</ele><time>2026-04-07T10:41:21Z</time></trkpt><trkpt lat="45.58985580581544" lon="8.976846381236774"><ele>199.0</ele><time>2026-04-07T10:41:22Z</time></trkpt><trkpt lat="45.589971078039085" lon="8.976579844735939"><ele>198.0</ele><time>2026-04-07T10:41:23Z</time></trkpt><trkpt lat="45.59008155601479" lon="8.97631540469528"><ele>197.0</ele><time>2026-04-07T10:41:24Z</time></trkpt><trkpt lat="45.590187614864945" lon="8.9760435229917"><ele>197.33333333333334</ele><time>2026-04-07T10:41:25Z</time></trkpt><trkpt lat="45.590303788483894" lon="8.975782645898006"><ele>197.66666666666669</ele><time>2026-04-07T10:41:26Z</time></trkpt><trkpt lat="45.59041403511951" lon="8.97551344514147"><ele>198.0</ele><time>2026-04-07T10:41:27Z</time></trkpt><trkpt lat="45.59052479634961" lon="8.97524884789352"><ele>197.66666666666669</ele><time>2026-04-07T10:41:28Z</time></trkpt><trkpt lat="45.59063669750088" lon="8.974985173527863"><ele>197.33333333333334</ele><time>2026-04-07T10:41:29Z</time></trkpt><trkpt lat="45.59074672162641" lon="8.974723018499816"><ele>197.0</ele><time>2026-04-07T10:41:30Z</time></trkpt><trkpt lat="45.59085653371969" lon="8.974460921782567"><ele>197.0</ele><time>2026-04-07T10:41:31Z</time></trkpt><trkpt lat="45.590966093323956" lon="8.974198285386837"><ele>197.0</ele><time>2026-04-07T10:41:32Z</time></trkpt><trkpt lat="45.59107469519873" lon="8.97393777311642"><ele>197.0</ele><time>2026-04-07T10:41:33Z</time></trkpt><trkpt lat="45.5911865075692" lon="8.973674271225022"><ele>197.0</ele><time>2026-04-07T10:41:34Z</time></trkpt><trkpt lat="45.591295056204864" lon="8.973413046204671"><ele>197.0</ele><time>2026-04-07T10:41:35Z</time></trkpt><trkpt lat="45.59140665040758" lon="8.97315391656839"><ele>197.0</ele><time>2026-04-07T10:41:36Z</time></trkpt><trkpt lat="45.59151795833208" lon="8.972893018680004"><ele>197.0</ele><time>2026-04-07T10:41:37Z</time></trkpt><trkpt lat="45.59163049010715" lon="8.97263103456659"><ele>197.0</ele><time>2026-04-07T10:41:38Z</time></trkpt><trkpt lat="45.591740780185866" lon="8.972369177845406"><ele>197.0</ele><time>2026-04-07T10:41:39Z</time></trkpt><trkpt lat="45.59185020920758" lon="8.972106167195271"><ele>197.33333333333334</ele><time>2026-04-07T10:41:40Z</time></trkpt><trkpt lat="45.59196271382916" lon="8.971841546220743"><ele>197.66666666666669</ele><time>2026-04-07T10:41:41Z</time></trkpt><trkpt lat="45.592074835930156" lon="8.97157716080053"><ele>198.0</ele><time>2026-04-07T10:41:42Z</time></trkpt><trkpt lat="45.59218565973377" lon="8.971312422358029"><ele>198.66666666666669</ele><time>2026-04-07T10:41:43Z</time></trkpt><trkpt lat="45.592294538675695" lon="8.971048087266324"><ele>199.33333333333334</ele><time>2026-04-07T10:41:44Z</time></trkpt><trkpt lat="45.59240502305032" lon="8.97078173568746"><ele>200.0</ele><time>2026-04-07T10:41:45Z</time></trkpt><trkpt lat="45.59251471217219" lon="8.970518891451187"><ele>200.0</ele><time>2026-04-07T10:41:46.001Z</time></trkpt><trkpt lat="45.59262709500334" lon="8.97025800379156"><ele>200.0</ele><time>2026-04-07T10:41:47.001Z</time></trkpt><trkpt lat="45.59273779959128" lon="8.96999663566072"><ele>200.0</ele><time>2026-04-07T10:41:48.001Z</time></trkpt><trkpt lat="45.592849631642814" lon="8.969737329320392"><ele>200.66666666666669</ele><time>2026-04-07T10:41:49.001Z</time></trkpt><trkpt lat="45.59296242457989" lon="8.969471440258822"><ele>201.33333333333331</ele><time>2026-04-07T10:41:50.001Z</time></trkpt><trkpt lat="45.593071385159526" lon="8.9692061821941"><ele>202.0</ele><time>2026-04-07T10:41:51.001Z</time></trkpt><trkpt lat="45.59318165746334" lon="8.968945447605032"><ele>202.33333333333331</ele><time>2026-04-07T10:41:52.001Z</time></trkpt><trkpt lat="45.59329123582436" lon="8.968685759596786"><ele>202.66666666666669</ele><time>2026-04-07T10:41:53.001Z</time></trkpt><trkpt lat="45.593401062910594" lon="8.968423297212816"><ele>203.0</ele><time>2026-04-07T10:41:54.001Z</time></trkpt><trkpt lat="45.593511518992784" lon="8.968162292309314"><ele>203.33333333333334</ele><time>2026-04-07T10:41:55.001Z</time></trkpt><trkpt lat="45.59362259590112" lon="8.967902396688181"><ele>203.66666666666669</ele><time>2026-04-07T10:41:56.001Z</time></trkpt><trkpt lat="45.59373377232637" lon="8.96763965319479"><ele>204.0</ele><time>2026-04-07T10:41:57.001Z</time></trkpt><trkpt lat="45.59384554206744" lon="8.967378339085746"><ele>204.0</ele><time>2026-04-07T10:41:58.001Z</time></trkpt><trkpt lat="45.59395471766645" lon="8.967117576210411"><ele>204.0</ele><time>2026-04-07T10:41:59.001Z</time></trkpt><trkpt lat="45.594065096514214" lon="8.966853016519055"><ele>204.0</ele><time>2026-04-07T10:42:00.001Z</time></trkpt><trkpt lat="45.594173834457216" lon="8.96659240357865"><ele>204.33333333333331</ele><time>2026-04-07T10:42:01.001Z</time></trkpt><trkpt lat="45.59428581419554" lon="8.966328072045858"><ele>204.66666666666666</ele><time>2026-04-07T10:42:02.001Z</time></trkpt><trkpt lat="45.59439791145841" lon="8.966063174581043"><ele>205.0</ele><time>2026-04-07T10:42:03.001Z</time></trkpt><trkpt lat="45.59450836184495" lon="8.965797006909138"><ele>205.0</ele><time>2026-04-07T10:42:04.001Z</time></trkpt><trkpt lat="45.594618558745296" lon="8.965529881187038"><ele>205.0</ele><time>2026-04-07T10:42:05.001Z</time></trkpt><trkpt lat="45.59473028292309" lon="8.965259818829406"><ele>205.0</ele><time>2026-04-07T10:42:06.001Z</time></trkpt><trkpt lat="45.59484246046465" lon="8.964995043074167"><ele>205.0</ele><time>2026-04-07T10:42:07.001Z</time></trkpt><trkpt lat="45.59495566218353" lon="8.964727148033965"><ele>205.0</ele><time>2026-04-07T10:42:08.001Z</time></trkpt><trkpt lat="45.59506857978757" lon="8.964459043852894"><ele>205.0</ele><time>2026-04-07T10:42:09.001Z</time></trkpt><trkpt lat="45.59518078401159" lon="8.96419496885907"><ele>204.66666666666666</ele><time>2026-04-07T10:42:10.001Z</time></trkpt><trkpt lat="45.59529372141687" lon="8.96393282671055"><ele>204.33333333333331</ele><time>2026-04-07T10:42:11.001Z</time></trkpt><trkpt lat="45.59540477403462" lon="8.963671950693033"><ele>204.0</ele><time>2026-04-07T10:42:12.001Z</time></trkpt><trkpt lat="45.595512981382996" lon="8.963411764989159"><ele>204.66666666666669</ele><time>2026-04-07T10:42:13.001Z</time></trkpt><trkpt lat="45.59562747363668" lon="8.96314448025586"><ele>205.33333333333334</ele><time>2026-04-07T10:42:14.001Z</time></trkpt><trkpt lat="45.59573678089389" lon="8.962882585394684"><ele>206.0</ele><time>2026-04-07T10:42:15.001Z</time></trkpt><trkpt lat="45.595847063907506" lon="8.962618185669163"><ele>205.66666666666669</ele><time>2026-04-07T10:42:16.001Z</time></trkpt><trkpt lat="45.595957762816795" lon="8.962352256109108"><ele>205.33333333333331</ele><time>2026-04-07T10:42:17.001Z</time></trkpt><trkpt lat="45.596069503607666" lon="8.962090528084653"><ele>205.0</ele><time>2026-04-07T10:42:18.001Z</time></trkpt><trkpt lat="45.59618267189294" lon="8.96182239666177"><ele>205.66666666666666</ele><time>2026-04-07T10:42:19.001Z</time></trkpt><trkpt lat="45.59629438351533" lon="8.961555094368066"><ele>206.33333333333331</ele><time>2026-04-07T10:42:20.001Z</time></trkpt><trkpt lat="45.596408007485785" lon="8.961286412854877"><ele>207.0</ele><time>2026-04-07T10:42:21.001Z</time></trkpt><trkpt lat="45.59652033760475" lon="8.961015633806902"><ele>207.0</ele><time>2026-04-07T10:42:22.001Z</time></trkpt><trkpt lat="45.596635793016326" lon="8.960747448132569"><ele>207.0</ele><time>2026-04-07T10:42:23.001Z</time></trkpt><trkpt lat="45.596743959894624" lon="8.960485880868879"><ele>207.0</ele><time>2026-04-07T10:42:24.001Z</time></trkpt><trkpt lat="45.59685518285154" lon="8.960223530823436"><ele>207.0</ele><time>2026-04-07T10:42:25.002Z</time></trkpt><trkpt lat="45.596963810216245" lon="8.959963679776763"><ele>207.0</ele><time>2026-04-07T10:42:26.002Z</time></trkpt><trkpt lat="45.59707651448561" lon="8.959698453269285"><ele>207.0</ele><time>2026-04-07T10:42:27.002Z</time></trkpt><trkpt lat="45.59718826982631" lon="8.959433917850367"><ele>207.0</ele><time>2026-04-07T10:42:28.002Z</time></trkpt><trkpt lat="45.59729820240391" lon="8.959172735422806"><ele>207.0</ele><time>2026-04-07T10:42:29.002Z</time></trkpt><trkpt lat="45.597408093713696" lon="8.958912421847588"><ele>207.0</ele><time>2026-04-07T10:42:30.002Z</time></trkpt><trkpt lat="45.5975156002781" lon="8.958655004517313"><ele>207.0</ele><time>2026-04-07T10:42:31.002Z</time></trkpt><trkpt lat="45.59762326772766" lon="8.958395473046751"><ele>207.0</ele><time>2026-04-07T10:42:32.002Z</time></trkpt><trkpt lat="45.597730235821224" lon="8.958135815619142"><ele>207.0</ele><time>2026-04-07T10:42:33.002Z</time></trkpt><trkpt lat="45.59784138549025" lon="8.957873754352343"><ele>207.0</ele><time>2026-04-07T10:42:34.002Z</time></trkpt><trkpt lat="45.59794971640547" lon="8.95761464804087"><ele>207.0</ele><time>2026-04-07T10:42:35.002Z</time></trkpt><trkpt lat="45.59805829894122" lon="8.957352506644163"><ele>207.0</ele><time>2026-04-07T10:42:36.002Z</time></trkpt><trkpt lat="45.59816730075937" lon="8.957093311739529"><ele>207.0</ele><time>2026-04-07T10:42:37.002Z</time></trkpt><trkpt lat="45.59827896705316" lon="8.956827393782403"><ele>207.0</ele><time>2026-04-07T10:42:38.002Z</time></trkpt><trkpt lat="45.598390218204244" lon="8.956564677861483"><ele>207.0</ele><time>2026-04-07T10:42:39.002Z</time></trkpt><trkpt lat="45.598500540320686" lon="8.956303942274566"><ele>207.0</ele><time>2026-04-07T10:42:40.002Z</time></trkpt><trkpt lat="45.598612040400454" lon="8.956039491835647"><ele>207.0</ele><time>2026-04-07T10:42:41.002Z</time></trkpt><trkpt lat="45.59872184414731" lon="8.955776459549362"><ele>207.0</ele><time>2026-04-07T10:42:42.002Z</time></trkpt><trkpt lat="45.59883262313478" lon="8.955511937992208"><ele>207.33333333333331</ele><time>2026-04-07T10:42:43.002Z</time></trkpt><trkpt lat="45.59894588580527" lon="8.955247427436893"><ele>207.66666666666666</ele><time>2026-04-07T10:42:44.002Z</time></trkpt><trkpt lat="45.5990544713142" lon="8.95497479270124"><ele>208.0</ele><time>2026-04-07T10:42:45.002Z</time></trkpt><trkpt lat="45.59916725915252" lon="8.954713418201909"><ele>208.0</ele><time>2026-04-07T10:42:46.002Z</time></trkpt><trkpt lat="45.59928005988953" lon="8.954440686968349"><ele>208.0</ele><time>2026-04-07T10:42:47.002Z</time></trkpt><trkpt lat="45.5994065288358" lon="8.954141110712733"><ele>208.5</ele><time>2026-04-07T10:42:48.002Z</time></trkpt><trkpt lat="45.59954624589648" lon="8.953822329787032"><ele>209.0</ele><time>2026-04-07T10:42:49.002Z</time></trkpt><trkpt lat="45.599681948697864" lon="8.953510693882427"><ele>208.5</ele><time>2026-04-07T10:42:50.002Z</time></trkpt><trkpt lat="45.599814805092166" lon="8.953210118004966"><ele>208.0</ele><time>2026-04-07T10:42:51.002Z</time></trkpt><trkpt lat="45.59994218471849" lon="8.952895426468915"><ele>208.0</ele><time>2026-04-07T10:42:52.002Z</time></trkpt><trkpt lat="45.60006688876081" lon="8.95257559386116"><ele>208.0</ele><time>2026-04-07T10:42:53.002Z</time></trkpt><trkpt lat="45.60018783046067" lon="8.95227974589271"><ele>209.0</ele><time>2026-04-07T10:42:54.002Z</time></trkpt><trkpt lat="45.60030786263103" lon="8.952008776071873"><ele>210.0</ele><time>2026-04-07T10:42:55.002Z</time></trkpt><trkpt lat="45.60042571991531" lon="8.951732041036077"><ele>211.33333333333331</ele><time>2026-04-07T10:42:56.002Z</time></trkpt><trkpt lat="45.6005347562313" lon="8.95146422825152"><ele>212.66666666666666</ele><time>2026-04-07T10:42:57.002Z</time></trkpt><trkpt lat="45.60064532577412" lon="8.951203481453176"><ele>214.0</ele><time>2026-04-07T10:42:58.002Z</time></trkpt><trkpt lat="45.600755139357915" lon="8.950951330836736"><ele>212.66666666666666</ele><time>2026-04-07T10:42:59.002Z</time></trkpt><trkpt lat="45.60086244342189" lon="8.950690029820905"><ele>211.33333333333331</ele><time>2026-04-07T10:43:00.002Z</time></trkpt><trkpt lat="45.60097349115276" lon="8.950424655251611"><ele>210.0</ele><time>2026-04-07T10:43:01.002Z</time></trkpt><trkpt lat="45.60108039999467" lon="8.950167298273415"><ele>210.0</ele><time>2026-04-07T10:43:02.002Z</time></trkpt><trkpt lat="45.60118818134028" lon="8.94990656281769"><ele>210.0</ele><time>2026-04-07T10:43:03.002Z</time></trkpt><trkpt lat="45.601293502217665" lon="8.949645772800656"><ele>210.0</ele><time>2026-04-07T10:43:04.002Z</time></trkpt><trkpt lat="45.60140046072849" lon="8.949381864236118"><ele>209.66666666666669</ele><time>2026-04-07T10:43:05.002Z</time></trkpt><trkpt lat="45.60151329172922" lon="8.949115029371153"><ele>209.33333333333334</ele><time>2026-04-07T10:43:06.003Z</time></trkpt><trkpt lat="45.60162568682144" lon="8.948850120227817"><ele>209.0</ele><time>2026-04-07T10:43:07.003Z</time></trkpt><trkpt lat="45.60173799102904" lon="8.948581329229578"><ele>209.0</ele><time>2026-04-07T10:43:08.003Z</time></trkpt><trkpt lat="45.60185330733135" lon="8.94830943129295"><ele>209.0</ele><time>2026-04-07T10:43:09.003Z</time></trkpt><trkpt lat="45.60197072182248" lon="8.948038919292955"><ele>209.0</ele><time>2026-04-07T10:43:10.003Z</time></trkpt><trkpt lat="45.6020836397661" lon="8.947771836936305"><ele>210.66666666666669</ele><time>2026-04-07T10:43:11.003Z</time></trkpt><trkpt lat="45.602195867215876" lon="8.947501834958988"><ele>212.33333333333331</ele><time>2026-04-07T10:43:12.001Z</time></trkpt><trkpt lat="45.602310541728826" lon="8.947230312510788"><ele>214.0</ele><time>2026-04-07T10:43:13.001Z</time></trkpt><trkpt lat="45.602424506371726" lon="8.946958392237391"><ele>214.0</ele><time>2026-04-07T10:43:14.001Z</time></trkpt><trkpt lat="45.602538613835186" lon="8.946686473572562"><ele>214.0</ele><time>2026-04-07T10:43:15.001Z</time></trkpt><trkpt lat="45.60265279700017" lon="8.946414353385418"><ele>214.0</ele><time>2026-04-07T10:43:16.001Z</time></trkpt><trkpt lat="45.60276491289836" lon="8.946146579907523"><ele>213.66666666666666</ele><time>2026-04-07T10:43:17.001Z</time></trkpt><trkpt lat="45.60287984633324" lon="8.94587994412652"><ele>213.33333333333331</ele><time>2026-04-07T10:43:18.001Z</time></trkpt><trkpt lat="45.602993459279105" lon="8.945609754696621"><ele>213.0</ele><time>2026-04-07T10:43:19.001Z</time></trkpt><trkpt lat="45.60310635915805" lon="8.945340399870593"><ele>213.66666666666669</ele><time>2026-04-07T10:43:20.001Z</time></trkpt><trkpt lat="45.603218723215086" lon="8.94507090520219"><ele>214.33333333333334</ele><time>2026-04-07T10:43:21.001Z</time></trkpt><trkpt lat="45.60332875892588" lon="8.944801565423615"><ele>215.0</ele><time>2026-04-07T10:43:22.001Z</time></trkpt><trkpt lat="45.603443291088766" lon="8.944535552111379"><ele>215.0</ele><time>2026-04-07T10:43:23.001Z</time></trkpt><trkpt lat="45.603555924984626" lon="8.944263886679048"><ele>215.0</ele><time>2026-04-07T10:43:24.001Z</time></trkpt><trkpt lat="45.60366636522159" lon="8.943994964231402"><ele>215.0</ele><time>2026-04-07T10:43:25.001Z</time></trkpt><trkpt lat="45.603778033210645" lon="8.943725444047603"><ele>215.0</ele><time>2026-04-07T10:43:26.001Z</time></trkpt><trkpt lat="45.60389227498815" lon="8.943451464957137"><ele>215.0</ele><time>2026-04-07T10:43:27.001Z</time></trkpt><trkpt lat="45.604001864807124" lon="8.943186930293525"><ele>215.0</ele><time>2026-04-07T10:43:28.001Z</time></trkpt><trkpt lat="45.60411350061862" lon="8.942912635715492"><ele>215.0</ele><time>2026-04-07T10:43:29.001Z</time></trkpt><trkpt lat="45.604226736007085" lon="8.942640432733004"><ele>215.0</ele><time>2026-04-07T10:43:30.001Z</time></trkpt><trkpt lat="45.60433873785704" lon="8.942370680317026"><ele>215.0</ele><time>2026-04-07T10:43:31.001Z</time></trkpt><trkpt lat="45.6044550257191" lon="8.942094141538465"><ele>216.0</ele><time>2026-04-07T10:43:32.001Z</time></trkpt><trkpt lat="45.60456958406001" lon="8.941823831392801"><ele>217.0</ele><time>2026-04-07T10:43:33.001Z</time></trkpt><trkpt lat="45.60468244596679" lon="8.941551493854327"><ele>218.0</ele><time>2026-04-07T10:43:34.001Z</time></trkpt><trkpt lat="45.6047950257237" lon="8.941276486184812"><ele>218.66666666666669</ele><time>2026-04-07T10:43:35.001Z</time></trkpt><trkpt lat="45.6049091915404" lon="8.941002744076227"><ele>219.33333333333331</ele><time>2026-04-07T10:43:36.001Z</time></trkpt><trkpt lat="45.60502359236572" lon="8.940735524842053"><ele>220.0</ele><time>2026-04-07T10:43:37.001Z</time></trkpt><trkpt lat="45.60513536086098" lon="8.940466111150702"><ele>218.66666666666666</ele><time>2026-04-07T10:43:38.001Z</time></trkpt><trkpt lat="45.605248653403656" lon="8.940196940192155"><ele>217.33333333333331</ele><time>2026-04-07T10:43:39.001Z</time></trkpt><trkpt lat="45.60536439839886" lon="8.939924642448512"><ele>216.0</ele><time>2026-04-07T10:43:40.001Z</time></trkpt><trkpt lat="45.60547849566937" lon="8.939655375337164"><ele>216.0</ele><time>2026-04-07T10:43:41.001Z</time></trkpt><trkpt lat="45.60559171282504" lon="8.939386516164936"><ele>216.0</ele><time>2026-04-07T10:43:42.001Z</time></trkpt><trkpt lat="45.605702665228485" lon="8.9391206917423"><ele>216.0</ele><time>2026-04-07T10:43:43.001Z</time></trkpt><trkpt lat="45.60581605406835" lon="8.938847413725853"><ele>216.0</ele><time>2026-04-07T10:43:44.001Z</time></trkpt><trkpt lat="45.60592672708858" lon="8.938578727599042"><ele>216.0</ele><time>2026-04-07T10:43:45.001Z</time></trkpt><trkpt lat="45.60604276660708" lon="8.938307287384937"><ele>216.0</ele><time>2026-04-07T10:43:46.001Z</time></trkpt><trkpt lat="45.60616014503511" lon="8.938031672971826"><ele>216.0</ele><time>2026-04-07T10:43:47.001Z</time></trkpt><trkpt lat="45.60627194931292" lon="8.937761524846563"><ele>216.0</ele><time>2026-04-07T10:43:48.001Z</time></trkpt><trkpt lat="45.60638925401354" lon="8.937481636393738"><ele>216.0</ele><time>2026-04-07T10:43:49.001Z</time></trkpt><trkpt lat="45.606505519455354" lon="8.937205392027304"><ele>215.5</ele><time>2026-04-07T10:43:50.001Z</time></trkpt><trkpt lat="45.606626169883555" lon="8.93693099558007"><ele>215.0</ele><time>2026-04-07T10:43:51.001Z</time></trkpt><trkpt lat="45.60674341659196" lon="8.93665450353969"><ele>215.66666666666669</ele><time>2026-04-07T10:43:52.001Z</time></trkpt><trkpt lat="45.606857731408134" lon="8.93637714691137"><ele>216.33333333333331</ele><time>2026-04-07T10:43:53.001Z</time></trkpt><trkpt lat="45.606971004329935" lon="8.936100518541897"><ele>217.0</ele><time>2026-04-07T10:43:54.001Z</time></trkpt><trkpt lat="45.60708309316852" lon="8.935830581497616"><ele>217.0</ele><time>2026-04-07T10:43:55.001Z</time></trkpt><trkpt lat="45.60719495885802" lon="8.935559006786214"><ele>217.0</ele><time>2026-04-07T10:43:56.001Z</time></trkpt><trkpt lat="45.60730803902089" lon="8.935285198150606"><ele>217.0</ele><time>2026-04-07T10:43:57.001Z</time></trkpt><trkpt lat="45.607419526946266" lon="8.935014724748264"><ele>216.66666666666666</ele><time>2026-04-07T10:43:58.001Z</time></trkpt><trkpt lat="45.607532986883406" lon="8.934742421209886"><ele>216.33333333333331</ele><time>2026-04-07T10:43:59.001Z</time></trkpt><trkpt lat="45.607645746644586" lon="8.934472264989415"><ele>216.0</ele><time>2026-04-07T10:44:00.001Z</time></trkpt><trkpt lat="45.607759169884694" lon="8.934201240313088"><ele>216.33333333333331</ele><time>2026-04-07T10:44:01.001Z</time></trkpt><trkpt lat="45.60787113026202" lon="8.933929701351957"><ele>216.66666666666666</ele><time>2026-04-07T10:44:02.001Z</time></trkpt><trkpt lat="45.60798653775042" lon="8.933653249191012"><ele>217.0</ele><time>2026-04-07T10:44:03.001Z</time></trkpt><trkpt lat="45.60810201965314" lon="8.933377572401898"><ele>216.0</ele><time>2026-04-07T10:44:04.001Z</time></trkpt><trkpt lat="45.60821843211434" lon="8.933102559162549"><ele>215.0</ele><time>2026-04-07T10:44:05.001Z</time></trkpt><trkpt lat="45.608333595988604" lon="8.932828822677806"><ele>214.0</ele><time>2026-04-07T10:44:06.001Z</time></trkpt><trkpt lat="45.60845000108663" lon="8.932551649640585"><ele>214.0</ele><time>2026-04-07T10:44:07.001Z</time></trkpt><trkpt lat="45.60856310470544" lon="8.932279769821612"><ele>214.0</ele><time>2026-04-07T10:44:08.001Z</time></trkpt><trkpt lat="45.60867608656946" lon="8.932008010122274"><ele>214.0</ele><time>2026-04-07T10:44:09.001Z</time></trkpt><trkpt lat="45.60878686752851" lon="8.931741139703613"><ele>213.66666666666666</ele><time>2026-04-07T10:44:10.001Z</time></trkpt><trkpt lat="45.608903276980776" lon="8.931468553201823"><ele>213.33333333333331</ele><time>2026-04-07T10:44:11.001Z</time></trkpt><trkpt lat="45.60901761590011" lon="8.931200085082628"><ele>213.0</ele><time>2026-04-07T10:44:12.001Z</time></trkpt><trkpt lat="45.60913366437475" lon="8.930930983948596"><ele>212.0</ele><time>2026-04-07T10:44:13.001Z</time></trkpt><trkpt lat="45.609247845260704" lon="8.930665936146555"><ele>211.0</ele><time>2026-04-07T10:44:14.001Z</time></trkpt><trkpt lat="45.609363870315875" lon="8.930395882809805"><ele>210.0</ele><time>2026-04-07T10:44:15.001Z</time></trkpt><trkpt lat="45.60947685065385" lon="8.93013207253081"><ele>209.66666666666669</ele><time>2026-04-07T10:44:16.002Z</time></trkpt><trkpt lat="45.60958884151079" lon="8.929868059494039"><ele>209.33333333333334</ele><time>2026-04-07T10:44:17.002Z</time></trkpt><trkpt lat="45.60969862461421" lon="8.929603987051035"><ele>209.0</ele><time>2026-04-07T10:44:18.002Z</time></trkpt><trkpt lat="45.60980931237378" lon="8.92933754250213"><ele>208.66666666666669</ele><time>2026-04-07T10:44:19.002Z</time></trkpt><trkpt lat="45.6099183631103" lon="8.929069269705211"><ele>208.33333333333331</ele><time>2026-04-07T10:44:20.002Z</time></trkpt><trkpt lat="45.61002713120776" lon="8.928802251685275"><ele>208.0</ele><time>2026-04-07T10:44:21.002Z</time></trkpt><trkpt lat="45.61013608889013" lon="8.928535815700258"><ele>208.0</ele><time>2026-04-07T10:44:22.002Z</time></trkpt><trkpt lat="45.610247201595726" lon="8.92827642076062"><ele>208.0</ele><time>2026-04-07T10:44:23.002Z</time></trkpt><trkpt lat="45.61035655036143" lon="8.92801733886784"><ele>208.0</ele><time>2026-04-07T10:44:24.002Z</time></trkpt><trkpt lat="45.61046565425258" lon="8.927760767000693"><ele>208.0</ele><time>2026-04-07T10:44:25.002Z</time></trkpt><trkpt lat="45.610580001961466" lon="8.927500218377222"><ele>208.0</ele><time>2026-04-07T10:44:26.002Z</time></trkpt><trkpt lat="45.61068831546675" lon="8.927249493773806"><ele>208.0</ele><time>2026-04-07T10:44:27.002Z</time></trkpt><trkpt lat="45.61079001691422" lon="8.926999394427654"><ele>208.0</ele><time>2026-04-07T10:44:28.002Z</time></trkpt><trkpt lat="45.6108928694907" lon="8.926752501437118"><ele>208.0</ele><time>2026-04-07T10:44:29.002Z</time></trkpt><trkpt lat="45.61099739218114" lon="8.926504905407123"><ele>208.0</ele><time>2026-04-07T10:44:30.002Z</time></trkpt><trkpt lat="45.61110308388019" lon="8.926253587099518"><ele>208.0</ele><time>2026-04-07T10:44:31.002Z</time></trkpt><trkpt lat="45.61121339706127" lon="8.925995938158973"><ele>208.0</ele><time>2026-04-07T10:44:32.002Z</time></trkpt><trkpt lat="45.61132243392617" lon="8.925733461817297"><ele>208.0</ele><time>2026-04-07T10:44:33.002Z</time></trkpt><trkpt lat="45.61143159696463" lon="8.925468933168096"><ele>208.33333333333331</ele><time>2026-04-07T10:44:34.002Z</time></trkpt><trkpt lat="45.6115363608966" lon="8.925209225464249"><ele>208.66666666666669</ele><time>2026-04-07T10:44:35.002Z</time></trkpt><trkpt lat="45.61164765349499" lon="8.924944001375637"><ele>209.0</ele><time>2026-04-07T10:44:36.002Z</time></trkpt><trkpt lat="45.61176015859315" lon="8.92468052093779"><ele>209.0</ele><time>2026-04-07T10:44:37.002Z</time></trkpt><trkpt lat="45.61187161189509" lon="8.924418478907658"><ele>209.0</ele><time>2026-04-07T10:44:38.002Z</time></trkpt><trkpt lat="45.61198502003087" lon="8.924156815581258"><ele>209.0</ele><time>2026-04-07T10:44:39.002Z</time></trkpt><trkpt lat="45.612094553925644" lon="8.923895753276424"><ele>208.66666666666669</ele><time>2026-04-07T10:44:40.002Z</time></trkpt><trkpt lat="45.61220619838835" lon="8.92363512276748"><ele>208.33333333333331</ele><time>2026-04-07T10:44:41.002Z</time></trkpt><trkpt lat="45.61231338590188" lon="8.923380817224071"><ele>208.0</ele><time>2026-04-07T10:44:42.002Z</time></trkpt><trkpt lat="45.61242288297898" lon="8.923120056395266"><ele>208.33333333333331</ele><time>2026-04-07T10:44:43.002Z</time></trkpt><trkpt lat="45.61253258953299" lon="8.922859957756522"><ele>208.66666666666669</ele><time>2026-04-07T10:44:44.002Z</time></trkpt><trkpt lat="45.61263721956891" lon="8.922607007558579"><ele>209.0</ele><time>2026-04-07T10:44:45.002Z</time></trkpt><trkpt lat="45.61274790799049" lon="8.922353156281915"><ele>210.33333333333334</ele><time>2026-04-07T10:44:46.002Z</time></trkpt><trkpt lat="45.612857211190835" lon="8.922093453256483"><ele>211.66666666666669</ele><time>2026-04-07T10:44:47.002Z</time></trkpt><trkpt lat="45.61296362406378" lon="8.921837408303762"><ele>213.0</ele><time>2026-04-07T10:44:48.002Z</time></trkpt><trkpt lat="45.613074505303565" lon="8.921575738322638"><ele>213.0</ele><time>2026-04-07T10:44:49.002Z</time></trkpt><trkpt lat="45.61318260450125" lon="8.921320347185942"><ele>213.0</ele><time>2026-04-07T10:44:50.002Z</time></trkpt><trkpt lat="45.61329209289698" lon="8.921060876909143"><ele>213.0</ele><time>2026-04-07T10:44:51.002Z</time></trkpt><trkpt lat="45.61340050973411" lon="8.920799037167315"><ele>212.66666666666669</ele><time>2026-04-07T10:44:52.002Z</time></trkpt><trkpt lat="45.61350760226289" lon="8.920535471367897"><ele>212.33333333333334</ele><time>2026-04-07T10:44:53.002Z</time></trkpt><trkpt lat="45.61361473161543" lon="8.920280096163053"><ele>212.0</ele><time>2026-04-07T10:44:54.002Z</time></trkpt><trkpt lat="45.613723462550006" lon="8.920026793995184"><ele>214.66666666666669</ele><time>2026-04-07T10:44:55.002Z</time></trkpt><trkpt lat="45.61382932130792" lon="8.919771350872939"><ele>217.33333333333331</ele><time>2026-04-07T10:44:56.002Z</time></trkpt><trkpt lat="45.613927105852824" lon="8.919526131050501"><ele>220.0</ele><time>2026-04-07T10:44:57.002Z</time></trkpt><trkpt lat="45.61403561996491" lon="8.91926869450249"><ele>220.33333333333331</ele><time>2026-04-07T10:44:58.002Z</time></trkpt><trkpt lat="45.61414567672167" lon="8.919010886562036"><ele>220.66666666666669</ele><time>2026-04-07T10:44:59.002Z</time></trkpt><trkpt lat="45.61425347376415" lon="8.918755618420507"><ele>221.0</ele><time>2026-04-07T10:45:00.002Z</time></trkpt><trkpt lat="45.61436175978073" lon="8.918497640678124"><ele>221.0</ele><time>2026-04-07T10:45:01.003Z</time></trkpt><trkpt lat="45.61446986453949" lon="8.918236389971279"><ele>221.0</ele><time>2026-04-07T10:45:02.003Z</time></trkpt><trkpt lat="45.61457407079171" lon="8.917979484433413"><ele>221.0</ele><time>2026-04-07T10:45:03.003Z</time></trkpt><trkpt lat="45.61468191513682" lon="8.917715409749414"><ele>218.66666666666669</ele><time>2026-04-07T10:45:04.003Z</time></trkpt><trkpt lat="45.614790073728635" lon="8.917453227056733"><ele>216.33333333333331</ele><time>2026-04-07T10:45:05.003Z</time></trkpt><trkpt lat="45.614897483293454" lon="8.917199526195844"><ele>214.0</ele><time>2026-04-07T10:45:06.003Z</time></trkpt><trkpt lat="45.61500491803454" lon="8.916942681162368"><ele>213.66666666666666</ele><time>2026-04-07T10:45:07.003Z</time></trkpt><trkpt lat="45.61511411233944" lon="8.916686577921293"><ele>213.33333333333331</ele><time>2026-04-07T10:45:08.003Z</time></trkpt><trkpt lat="45.61522324526721" lon="8.916432996875265"><ele>213.0</ele><time>2026-04-07T10:45:09.003Z</time></trkpt><trkpt lat="45.615332210488106" lon="8.916175291599297"><ele>216.33333333333331</ele><time>2026-04-07T10:45:10.003Z</time></trkpt><trkpt lat="45.61544207464761" lon="8.915917679350777"><ele>219.66666666666666</ele><time>2026-04-07T10:45:11.003Z</time></trkpt><trkpt lat="45.61554930731155" lon="8.915665320490005"><ele>223.0</ele><time>2026-04-07T10:45:12.003Z</time></trkpt><trkpt lat="45.61565691362856" lon="8.91541567532524"><ele>223.0</ele><time>2026-04-07T10:45:13.003Z</time></trkpt><trkpt lat="45.61576885350477" lon="8.915154914914673"><ele>223.0</ele><time>2026-04-07T10:45:14.003Z</time></trkpt><trkpt lat="45.615876007649724" lon="8.914899208520323"><ele>223.0</ele><time>2026-04-07T10:45:15.003Z</time></trkpt><trkpt lat="45.6159811936866" lon="8.914640295680233"><ele>223.33333333333331</ele><time>2026-04-07T10:45:16.003Z</time></trkpt><trkpt lat="45.616091824031656" lon="8.914377337992452"><ele>223.66666666666669</ele><time>2026-04-07T10:45:17.003Z</time></trkpt><trkpt lat="45.616202530901525" lon="8.914116724644806"><ele>224.0</ele><time>2026-04-07T10:45:18.001Z</time></trkpt><trkpt lat="45.616312387900344" lon="8.913853095592833"><ele>224.0</ele><time>2026-04-07T10:45:19.001Z</time></trkpt><trkpt lat="45.61641998341199" lon="8.913592421973764"><ele>224.0</ele><time>2026-04-07T10:45:20.001Z</time></trkpt><trkpt lat="45.61653266046224" lon="8.913329022763484"><ele>224.0</ele><time>2026-04-07T10:45:21.001Z</time></trkpt><trkpt lat="45.61664384783656" lon="8.913068237484271"><ele>223.33333333333334</ele><time>2026-04-07T10:45:22.001Z</time></trkpt><trkpt lat="45.61675365299101" lon="8.912805070050826"><ele>222.66666666666669</ele><time>2026-04-07T10:45:23.001Z</time></trkpt><trkpt lat="45.6168633453429" lon="8.912545701624836"><ele>222.0</ele><time>2026-04-07T10:45:24.001Z</time></trkpt><trkpt lat="45.616972084368" lon="8.912294630885661"><ele>221.66666666666669</ele><time>2026-04-07T10:45:25.001Z</time></trkpt><trkpt lat="45.61708294528491" lon="8.912031162862258"><ele>221.33333333333334</ele><time>2026-04-07T10:45:26.001Z</time></trkpt><trkpt lat="45.617192174051695" lon="8.911769722273442"><ele>221.0</ele><time>2026-04-07T10:45:27.001Z</time></trkpt><trkpt lat="45.61730055318732" lon="8.911505589921738"><ele>221.0</ele><time>2026-04-07T10:45:28.001Z</time></trkpt><trkpt lat="45.61741154121987" lon="8.911238793734677"><ele>221.0</ele><time>2026-04-07T10:45:29.001Z</time></trkpt><trkpt lat="45.61752251062798" lon="8.910973476502948"><ele>221.0</ele><time>2026-04-07T10:45:30.001Z</time></trkpt><trkpt lat="45.617632581901205" lon="8.910712255601624"><ele>221.0</ele><time>2026-04-07T10:45:31.001Z</time></trkpt><trkpt lat="45.61774391911206" lon="8.910450612683778"><ele>221.0</ele><time>2026-04-07T10:45:32.001Z</time></trkpt><trkpt lat="45.61785779978803" lon="8.910184676905741"><ele>221.0</ele><time>2026-04-07T10:45:33.001Z</time></trkpt><trkpt lat="45.617967390577576" lon="8.909923242876976"><ele>221.0</ele><time>2026-04-07T10:45:34.001Z</time></trkpt><trkpt lat="45.618077590570486" lon="8.90965820016149"><ele>221.0</ele><time>2026-04-07T10:45:35.001Z</time></trkpt><trkpt lat="45.61818954451876" lon="8.90939369546039"><ele>221.0</ele><time>2026-04-07T10:45:36.001Z</time></trkpt><trkpt lat="45.618306486126926" lon="8.909121936542988"><ele>221.0</ele><time>2026-04-07T10:45:37.001Z</time></trkpt><trkpt lat="45.618418173984146" lon="8.908854327986711"><ele>221.0</ele><time>2026-04-07T10:45:38.001Z</time></trkpt><trkpt lat="45.618528633407585" lon="8.90859122321542"><ele>221.0</ele><time>2026-04-07T10:45:39.001Z</time></trkpt><trkpt lat="45.618640330371036" lon="8.908325345295685"><ele>221.0</ele><time>2026-04-07T10:45:40.001Z</time></trkpt><trkpt lat="45.61875231002292" lon="8.908055209474098"><ele>221.0</ele><time>2026-04-07T10:45:41.001Z</time></trkpt><trkpt lat="45.61886084022762" lon="8.907787946814544"><ele>221.0</ele><time>2026-04-07T10:45:42.001Z</time></trkpt><trkpt lat="45.61897113258608" lon="8.90752629412247"><ele>221.0</ele><time>2026-04-07T10:45:43.001Z</time></trkpt><trkpt lat="45.61908261884084" lon="8.907266604057803"><ele>221.0</ele><time>2026-04-07T10:45:44.001Z</time></trkpt><trkpt lat="45.61919341256121" lon="8.907003974740949"><ele>221.0</ele><time>2026-04-07T10:45:45.001Z</time></trkpt><trkpt lat="45.619303920925084" lon="8.906741155048982"><ele>221.33333333333334</ele><time>2026-04-07T10:45:46.001Z</time></trkpt><trkpt lat="45.619416037102354" lon="8.906475014608883"><ele>221.66666666666669</ele><time>2026-04-07T10:45:47.001Z</time></trkpt><trkpt lat="45.61952773627201" lon="8.906210136239775"><ele>222.0</ele><time>2026-04-07T10:45:48.001Z</time></trkpt><trkpt lat="45.619637992292" lon="8.905947195267748"><ele>222.33333333333331</ele><time>2026-04-07T10:45:49.001Z</time></trkpt><trkpt lat="45.619749417751315" lon="8.905683042683833"><ele>222.66666666666666</ele><time>2026-04-07T10:45:50.001Z</time></trkpt><trkpt lat="45.619862399360656" lon="8.905416104208529"><ele>223.0</ele><time>2026-04-07T10:45:51.001Z</time></trkpt><trkpt lat="45.61997740854142" lon="8.905147672083043"><ele>223.0</ele><time>2026-04-07T10:45:52.001Z</time></trkpt><trkpt lat="45.620092287372756" lon="8.904880800717091"><ele>223.0</ele><time>2026-04-07T10:45:53.001Z</time></trkpt><trkpt lat="45.62020482535294" lon="8.904616089937452"><ele>223.0</ele><time>2026-04-07T10:45:54.001Z</time></trkpt><trkpt lat="45.620324071884326" lon="8.904352769825957"><ele>223.33333333333331</ele><time>2026-04-07T10:45:55.001Z</time></trkpt><trkpt lat="45.6204339056633" lon="8.904083878765299"><ele>223.66666666666669</ele><time>2026-04-07T10:45:56.001Z</time></trkpt><trkpt lat="45.62054679166726" lon="8.903818092066727"><ele>224.0</ele><time>2026-04-07T10:45:57.001Z</time></trkpt><trkpt lat="45.62065764884953" lon="8.903556640312544"><ele>223.33333333333334</ele><time>2026-04-07T10:45:58.001Z</time></trkpt><trkpt lat="45.62076923624419" lon="8.90328199781452"><ele>222.66666666666669</ele><time>2026-04-07T10:45:59.001Z</time></trkpt><trkpt lat="45.62088526465032" lon="8.903014584117766"><ele>222.0</ele><time>2026-04-07T10:46:00.001Z</time></trkpt><trkpt lat="45.62099999403871" lon="8.902750553436434"><ele>221.66666666666669</ele><time>2026-04-07T10:46:01.001Z</time></trkpt><trkpt lat="45.62110934399173" lon="8.902480934574038"><ele>221.33333333333334</ele><time>2026-04-07T10:46:02.001Z</time></trkpt><trkpt lat="45.62121929043804" lon="8.902211990990596"><ele>221.0</ele><time>2026-04-07T10:46:03.001Z</time></trkpt><trkpt lat="45.621330528658994" lon="8.90194318883695"><ele>221.33333333333334</ele><time>2026-04-07T10:46:04.001Z</time></trkpt><trkpt lat="45.6214394174288" lon="8.90168603211634"><ele>221.66666666666669</ele><time>2026-04-07T10:46:05.001Z</time></trkpt><trkpt lat="45.62154866373082" lon="8.901423987547451"><ele>222.0</ele><time>2026-04-07T10:46:06.001Z</time></trkpt><trkpt lat="45.62165947127958" lon="8.901162504312673"><ele>222.0</ele><time>2026-04-07T10:46:07.001Z</time></trkpt><trkpt lat="45.62176838917103" lon="8.900900789602327"><ele>222.0</ele><time>2026-04-07T10:46:08.001Z</time></trkpt><trkpt lat="45.62187806089416" lon="8.900635702509616"><ele>222.0</ele><time>2026-04-07T10:46:09.001Z</time></trkpt><trkpt lat="45.62199022407641" lon="8.90036980119796"><ele>222.0</ele><time>2026-04-07T10:46:10.001Z</time></trkpt><trkpt lat="45.622099452303594" lon="8.900107620027477"><ele>222.0</ele><time>2026-04-07T10:46:11.001Z</time></trkpt><trkpt lat="45.62220750422827" lon="8.899847840852544"><ele>222.0</ele><time>2026-04-07T10:46:12.001Z</time></trkpt><trkpt lat="45.62231913404777" lon="8.89958476789347"><ele>222.0</ele><time>2026-04-07T10:46:13.001Z</time></trkpt><trkpt lat="45.622429544117644" lon="8.899323286337395"><ele>222.0</ele><time>2026-04-07T10:46:14.001Z</time></trkpt><trkpt lat="45.622538792851465" lon="8.89905850602358"><ele>222.0</ele><time>2026-04-07T10:46:15.001Z</time></trkpt><trkpt lat="45.622649195722666" lon="8.89879230086022"><ele>222.0</ele><time>2026-04-07T10:46:16.001Z</time></trkpt><trkpt lat="45.62276054557643" lon="8.89852819406792"><ele>222.0</ele><time>2026-04-07T10:46:17.001Z</time></trkpt><trkpt lat="45.62287163992594" lon="8.898261274177921"><ele>222.0</ele><time>2026-04-07T10:46:18.001Z</time></trkpt><trkpt lat="45.622986395026686" lon="8.897989210479544"><ele>221.33333333333331</ele><time>2026-04-07T10:46:19.001Z</time></trkpt><trkpt lat="45.62309638175081" lon="8.897725873193545"><ele>220.66666666666666</ele><time>2026-04-07T10:46:20.002Z</time></trkpt><trkpt lat="45.6232090404436" lon="8.897457764438972"><ele>220.0</ele><time>2026-04-07T10:46:21.002Z</time></trkpt><trkpt lat="45.623324763382115" lon="8.897184994411548"><ele>220.0</ele><time>2026-04-07T10:46:22.002Z</time></trkpt><trkpt lat="45.623435485646475" lon="8.896921591331461"><ele>220.0</ele><time>2026-04-07T10:46:23.002Z</time></trkpt><trkpt lat="45.623544499429656" lon="8.89665470495852"><ele>220.0</ele><time>2026-04-07T10:46:24.002Z</time></trkpt><trkpt lat="45.623659225810655" lon="8.896383153187513"><ele>218.33333333333331</ele><time>2026-04-07T10:46:25.002Z</time></trkpt><trkpt lat="45.623775134186005" lon="8.89611473348404"><ele>216.66666666666669</ele><time>2026-04-07T10:46:26.002Z</time></trkpt><trkpt lat="45.623886125064715" lon="8.89584843899889"><ele>215.0</ele><time>2026-04-07T10:46:27.002Z</time></trkpt><trkpt lat="45.623999338835105" lon="8.895580252070761"><ele>215.0</ele><time>2026-04-07T10:46:28.002Z</time></trkpt><trkpt lat="45.62411224955918" lon="8.89531200579379"><ele>215.0</ele><time>2026-04-07T10:46:29.002Z</time></trkpt><trkpt lat="45.624225667088794" lon="8.89504460936986"><ele>215.0</ele><time>2026-04-07T10:46:30.002Z</time></trkpt><trkpt lat="45.62433776056682" lon="8.894775221857206"><ele>215.0</ele><time>2026-04-07T10:46:31.002Z</time></trkpt><trkpt lat="45.62444940131512" lon="8.894506495098778"><ele>215.0</ele><time>2026-04-07T10:46:32.002Z</time></trkpt><trkpt lat="45.62456219363834" lon="8.894240272560634"><ele>215.0</ele><time>2026-04-07T10:46:33.002Z</time></trkpt><trkpt lat="45.62467315920178" lon="8.893971785444387"><ele>215.0</ele><time>2026-04-07T10:46:34.002Z</time></trkpt><trkpt lat="45.62478722372854" lon="8.893699463304909"><ele>215.0</ele><time>2026-04-07T10:46:35.002Z</time></trkpt><trkpt lat="45.624902358209255" lon="8.89342455568511"><ele>215.0</ele><time>2026-04-07T10:46:36.002Z</time></trkpt><trkpt lat="45.62501374180891" lon="8.893154185453549"><ele>215.66666666666669</ele><time>2026-04-07T10:46:37.002Z</time></trkpt><trkpt lat="45.625125298494" lon="8.892884271588184"><ele>216.33333333333331</ele><time>2026-04-07T10:46:38.002Z</time></trkpt><trkpt lat="45.6252378460987" lon="8.892619688527454"><ele>217.0</ele><time>2026-04-07T10:46:39.002Z</time></trkpt><trkpt lat="45.62535116790946" lon="8.892348663637513"><ele>220.0</ele><time>2026-04-07T10:46:40.002Z</time></trkpt><trkpt lat="45.625463629192" lon="8.8920752838464"><ele>223.0</ele><time>2026-04-07T10:46:41.002Z</time></trkpt><trkpt lat="45.62557453068511" lon="8.891801679166884"><ele>226.0</ele><time>2026-04-07T10:46:42.002Z</time></trkpt><trkpt lat="45.6256899995146" lon="8.891536245377184"><ele>226.33333333333331</ele><time>2026-04-07T10:46:43.002Z</time></trkpt><trkpt lat="45.62580061338434" lon="8.89126671105774"><ele>226.66666666666669</ele><time>2026-04-07T10:46:44.002Z</time></trkpt><trkpt lat="45.62591338947593" lon="8.890999225702075"><ele>227.0</ele><time>2026-04-07T10:46:45.002Z</time></trkpt><trkpt lat="45.62602401870627" lon="8.890735275079656"><ele>228.66666666666669</ele><time>2026-04-07T10:46:46.002Z</time></trkpt><trkpt lat="45.62613547296883" lon="8.890467631124514"><ele>230.33333333333331</ele><time>2026-04-07T10:46:47.002Z</time></trkpt><trkpt lat="45.6262471417068" lon="8.890207119513077"><ele>232.0</ele><time>2026-04-07T10:46:48.002Z</time></trkpt><trkpt lat="45.62635615817073" lon="8.889938814056938"><ele>232.33333333333331</ele><time>2026-04-07T10:46:49.002Z</time></trkpt><trkpt lat="45.626466272469735" lon="8.889671679206469"><ele>232.66666666666669</ele><time>2026-04-07T10:46:50.002Z</time></trkpt><trkpt lat="45.6265689822084" lon="8.88938991063719"><ele>233.0</ele><time>2026-04-07T10:46:51.002Z</time></trkpt><trkpt lat="45.62668027234379" lon="8.889117282297768"><ele>233.0</ele><time>2026-04-07T10:46:52.002Z</time></trkpt><trkpt lat="45.6267971576742" lon="8.888857988082558"><ele>233.0</ele><time>2026-04-07T10:46:53.002Z</time></trkpt><trkpt lat="45.62690451634268" lon="8.888584893592025"><ele>233.0</ele><time>2026-04-07T10:46:54.002Z</time></trkpt><trkpt lat="45.62701331602518" lon="8.8883244963864"><ele>233.66666666666669</ele><time>2026-04-07T10:46:55.002Z</time></trkpt><trkpt lat="45.627125983730885" lon="8.888060266971621"><ele>234.33333333333331</ele><time>2026-04-07T10:46:56.002Z</time></trkpt><trkpt lat="45.62723668755942" lon="8.887791773788067"><ele>235.0</ele><time>2026-04-07T10:46:57.002Z</time></trkpt><trkpt lat="45.62734688574025" lon="8.887519507655227"><ele>235.0</ele><time>2026-04-07T10:46:58.002Z</time></trkpt><trkpt lat="45.627461578438194" lon="8.887254864088208"><ele>235.0</ele><time>2026-04-07T10:46:59.002Z</time></trkpt><trkpt lat="45.62757303850861" lon="8.886987120949465"><ele>235.0</ele><time>2026-04-07T10:47:00.002Z</time></trkpt><trkpt lat="45.627684378037934" lon="8.886714421636484"><ele>234.66666666666666</ele><time>2026-04-07T10:47:01.002Z</time></trkpt><trkpt lat="45.62779694779126" lon="8.886444461940243"><ele>234.33333333333331</ele><time>2026-04-07T10:47:02.002Z</time></trkpt><trkpt lat="45.62790870929235" lon="8.886176119306949"><ele>234.0</ele><time>2026-04-07T10:47:03.002Z</time></trkpt><trkpt lat="45.62802273700821" lon="8.885905270233659"><ele>234.0</ele><time>2026-04-07T10:47:04.002Z</time></trkpt><trkpt lat="45.62813237321362" lon="8.8856396079222"><ele>234.0</ele><time>2026-04-07T10:47:05.002Z</time></trkpt><trkpt lat="45.62824138325938" lon="8.885373444422061"><ele>234.0</ele><time>2026-04-07T10:47:06.002Z</time></trkpt><trkpt lat="45.628353627490796" lon="8.885104878661734"><ele>234.66666666666669</ele><time>2026-04-07T10:47:07.002Z</time></trkpt><trkpt lat="45.628464691497584" lon="8.884833113301587"><ele>235.33333333333334</ele><time>2026-04-07T10:47:08.002Z</time></trkpt><trkpt lat="45.62857002469623" lon="8.884570693962393"><ele>236.0</ele><time>2026-04-07T10:47:09.002Z</time></trkpt><trkpt lat="45.62867613745225" lon="8.884305258290537"><ele>236.0</ele><time>2026-04-07T10:47:10.002Z</time></trkpt><trkpt lat="45.628784614285095" lon="8.8840260902961"><ele>236.0</ele><time>2026-04-07T10:47:11.002Z</time></trkpt><trkpt lat="45.62889874798683" lon="8.883763590562896"><ele>236.0</ele><time>2026-04-07T10:47:12.003Z</time></trkpt><trkpt lat="45.62901462817846" lon="8.883500355105914"><ele>236.33333333333334</ele><time>2026-04-07T10:47:13.003Z</time></trkpt><trkpt lat="45.62912576775639" lon="8.883236430025448"><ele>236.66666666666669</ele><time>2026-04-07T10:47:14.003Z</time></trkpt><trkpt lat="45.62924212240681" lon="8.882970124632802"><ele>237.0</ele><time>2026-04-07T10:47:15.003Z</time></trkpt><trkpt lat="45.62935914937426" lon="8.882703520071047"><ele>237.0</ele><time>2026-04-07T10:47:16.003Z</time></trkpt><trkpt lat="45.629471673188384" lon="8.882440457346027"><ele>237.0</ele><time>2026-04-07T10:47:17.003Z</time></trkpt><trkpt lat="45.629586422596276" lon="8.882170107287672"><ele>237.0</ele><time>2026-04-07T10:47:18.003Z</time></trkpt><trkpt lat="45.6296989903254" lon="8.88190104682775"><ele>237.0</ele><time>2026-04-07T10:47:19.003Z</time></trkpt><trkpt lat="45.62981191930503" lon="8.881632051661533"><ele>237.0</ele><time>2026-04-07T10:47:20.003Z</time></trkpt><trkpt lat="45.62992514690859" lon="8.881365404900379"><ele>237.0</ele><time>2026-04-07T10:47:21.003Z</time></trkpt><trkpt lat="45.630040678002274" lon="8.881099724066674"><ele>237.66666666666669</ele><time>2026-04-07T10:47:22.003Z</time></trkpt><trkpt lat="45.63015338529932" lon="8.880835271169726"><ele>238.33333333333334</ele><time>2026-04-07T10:47:23.003Z</time></trkpt><trkpt lat="45.63026664277534" lon="8.880568178576397"><ele>239.0</ele><time>2026-04-07T10:47:24.001Z</time></trkpt><trkpt lat="45.63038004056718" lon="8.880299509556085"><ele>238.33333333333334</ele><time>2026-04-07T10:47:25.001Z</time></trkpt><trkpt lat="45.630493816895125" lon="8.880026581172741"><ele>237.66666666666669</ele><time>2026-04-07T10:47:26.001Z</time></trkpt><trkpt lat="45.63060724441544" lon="8.879758664176002"><ele>237.0</ele><time>2026-04-07T10:47:27.001Z</time></trkpt><trkpt lat="45.630722897315565" lon="8.879486151809958"><ele>238.0</ele><time>2026-04-07T10:47:28.001Z</time></trkpt><trkpt lat="45.63084088838706" lon="8.879213896573855"><ele>239.0</ele><time>2026-04-07T10:47:29.001Z</time></trkpt><trkpt lat="45.63095397375348" lon="8.878947824395265"><ele>240.0</ele><time>2026-04-07T10:47:30.001Z</time></trkpt><trkpt lat="45.63107203189497" lon="8.878677895265199"><ele>240.33333333333331</ele><time>2026-04-07T10:47:31.001Z</time></trkpt><trkpt lat="45.631182448246356" lon="8.878416330692836"><ele>240.66666666666666</ele><time>2026-04-07T10:47:32.001Z</time></trkpt><trkpt lat="45.63129780838549" lon="8.878152207042419"><ele>241.0</ele><time>2026-04-07T10:47:33.001Z</time></trkpt><trkpt lat="45.63140809312345" lon="8.877889182199711"><ele>241.0</ele><time>2026-04-07T10:47:34.001Z</time></trkpt><trkpt lat="45.63152126276363" lon="8.877624195986035"><ele>241.0</ele><time>2026-04-07T10:47:35.001Z</time></trkpt><trkpt lat="45.63163131220067" lon="8.877360532153537"><ele>241.0</ele><time>2026-04-07T10:47:36.001Z</time></trkpt><trkpt lat="45.63174261792475" lon="8.877093466566867"><ele>241.0</ele><time>2026-04-07T10:47:37.001Z</time></trkpt><trkpt lat="45.63185255898663" lon="8.87682981238864"><ele>241.0</ele><time>2026-04-07T10:47:38.001Z</time></trkpt><trkpt lat="45.631968160402856" lon="8.87656004127219"><ele>241.0</ele><time>2026-04-07T10:47:39.001Z</time></trkpt><trkpt lat="45.632082577430104" lon="8.876293727797632"><ele>241.0</ele><time>2026-04-07T10:47:40.001Z</time></trkpt><trkpt lat="45.63219572305204" lon="8.876026093982471"><ele>241.0</ele><time>2026-04-07T10:47:41.001Z</time></trkpt><trkpt lat="45.632308808247345" lon="8.875758350352779"><ele>241.0</ele><time>2026-04-07T10:47:42.001Z</time></trkpt><trkpt lat="45.632422920621146" lon="8.875488627056633"><ele>241.0</ele><time>2026-04-07T10:47:43.001Z</time></trkpt><trkpt lat="45.6325343981396" lon="8.875218841447728"><ele>241.0</ele><time>2026-04-07T10:47:44.001Z</time></trkpt><trkpt lat="45.63264697973843" lon="8.874950304870676"><ele>241.0</ele><time>2026-04-07T10:47:45.001Z</time></trkpt><trkpt lat="45.63276185366079" lon="8.874682286491884"><ele>242.0</ele><time>2026-04-07T10:47:46.001Z</time></trkpt><trkpt lat="45.63287682473836" lon="8.874411747137803"><ele>243.0</ele><time>2026-04-07T10:47:47.001Z</time></trkpt><trkpt lat="45.632993865508546" lon="8.874139244961617"><ele>244.0</ele><time>2026-04-07T10:47:48.001Z</time></trkpt><trkpt lat="45.63310874078172" lon="8.873869595045"><ele>244.0</ele><time>2026-04-07T10:47:49.001Z</time></trkpt><trkpt lat="45.63322157522397" lon="8.873602736581589"><ele>244.0</ele><time>2026-04-07T10:47:50.001Z</time></trkpt><trkpt lat="45.63333471826645" lon="8.873335859644294"><ele>244.0</ele><time>2026-04-07T10:47:51.001Z</time></trkpt><trkpt lat="45.633444794098786" lon="8.873068685061837"><ele>244.0</ele><time>2026-04-07T10:47:52.001Z</time></trkpt><trkpt lat="45.63355953372592" lon="8.872797730934282"><ele>244.0</ele><time>2026-04-07T10:47:53.001Z</time></trkpt><trkpt lat="45.63367401963895" lon="8.872532664286794"><ele>244.0</ele><time>2026-04-07T10:47:54.001Z</time></trkpt><trkpt lat="45.63378810696759" lon="8.87226436987341"><ele>243.0</ele><time>2026-04-07T10:47:55.001Z</time></trkpt><trkpt lat="45.633899320816525" lon="8.871996616164672"><ele>242.0</ele><time>2026-04-07T10:47:56.001Z</time></trkpt><trkpt lat="45.634010592284504" lon="8.871729807294676"><ele>241.0</ele><time>2026-04-07T10:47:57.001Z</time></trkpt><trkpt lat="45.63412451819687" lon="8.87146201099411"><ele>241.0</ele><time>2026-04-07T10:47:58.001Z</time></trkpt><trkpt lat="45.63423689384128" lon="8.871194717860568"><ele>241.0</ele><time>2026-04-07T10:47:59.001Z</time></trkpt><trkpt lat="45.63435109301815" lon="8.870923971920488"><ele>241.0</ele><time>2026-04-07T10:48:00.001Z</time></trkpt><trkpt lat="45.63446389530105" lon="8.870655201169127"><ele>240.33333333333331</ele><time>2026-04-07T10:48:01.001Z</time></trkpt><trkpt lat="45.63457658840315" lon="8.870383943512545"><ele>239.66666666666669</ele><time>2026-04-07T10:48:02.001Z</time></trkpt><trkpt lat="45.63469135009221" lon="8.870109684845419"><ele>239.0</ele><time>2026-04-07T10:48:03.001Z</time></trkpt><trkpt lat="45.634807430733986" lon="8.869837677930974"><ele>239.0</ele><time>2026-04-07T10:48:04.001Z</time></trkpt><trkpt lat="45.63491947854149" lon="8.869564550401988"><ele>239.0</ele><time>2026-04-07T10:48:05.001Z</time></trkpt><trkpt lat="45.635041587452754" lon="8.86929122277008"><ele>239.0</ele><time>2026-04-07T10:48:06.001Z</time></trkpt><trkpt lat="45.63515480921728" lon="8.869015435619158"><ele>239.33333333333334</ele><time>2026-04-07T10:48:07.001Z</time></trkpt><trkpt lat="45.63527048905613" lon="8.868742536116198"><ele>239.66666666666669</ele><time>2026-04-07T10:48:08.001Z</time></trkpt><trkpt lat="45.635386045615114" lon="8.86846982290354"><ele>240.0</ele><time>2026-04-07T10:48:09.001Z</time></trkpt><trkpt lat="45.635500235751344" lon="8.86819698906854"><ele>240.0</ele><time>2026-04-07T10:48:10.001Z</time></trkpt><trkpt lat="45.635620275508785" lon="8.867922512756095"><ele>240.0</ele><time>2026-04-07T10:48:11.001Z</time></trkpt><trkpt lat="45.63573704098682" lon="8.867647146528906"><ele>240.0</ele><time>2026-04-07T10:48:12.001Z</time></trkpt><trkpt lat="45.63584899304673" lon="8.867373594556566"><ele>240.0</ele><time>2026-04-07T10:48:13.001Z</time></trkpt><trkpt lat="45.63596213070767" lon="8.867108586452577"><ele>240.0</ele><time>2026-04-07T10:48:14.001Z</time></trkpt><trkpt lat="45.63607180892071" lon="8.866843331540949"><ele>240.33333333333331</ele><time>2026-04-07T10:48:15.001Z</time></trkpt><trkpt lat="45.636183825838934" lon="8.866577786655366"><ele>240.66666666666666</ele><time>2026-04-07T10:48:16.001Z</time></trkpt><trkpt lat="45.63629747351917" lon="8.866310483004703"><ele>241.0</ele><time>2026-04-07T10:48:17.001Z</time></trkpt><trkpt lat="45.636406240277786" lon="8.866045023777772"><ele>241.66666666666666</ele><time>2026-04-07T10:48:18.001Z</time></trkpt><trkpt lat="45.636516951054" lon="8.865779071743583"><ele>242.33333333333331</ele><time>2026-04-07T10:48:19.001Z</time></trkpt><trkpt lat="45.63663113044354" lon="8.86550785048952"><ele>243.0</ele><time>2026-04-07T10:48:20.001Z</time></trkpt><trkpt lat="45.636740104916434" lon="8.865237374000394"><ele>243.0</ele><time>2026-04-07T10:48:21.001Z</time></trkpt><trkpt lat="45.63685545915807" lon="8.864968871080702"><ele>243.0</ele><time>2026-04-07T10:48:22.001Z</time></trkpt><trkpt lat="45.63696665693882" lon="8.864700445748772"><ele>243.0</ele><time>2026-04-07T10:48:23.001Z</time></trkpt><trkpt lat="45.637078600018704" lon="8.864432541359482"><ele>242.33333333333331</ele><time>2026-04-07T10:48:24.001Z</time></trkpt><trkpt lat="45.637188796124256" lon="8.864165583098181"><ele>241.66666666666666</ele><time>2026-04-07T10:48:25.001Z</time></trkpt><trkpt lat="45.637302339394715" lon="8.863895963757498"><ele>241.0</ele><time>2026-04-07T10:48:26.001Z</time></trkpt><trkpt lat="45.63741301487053" lon="8.863629813472121"><ele>241.33333333333331</ele><time>2026-04-07T10:48:27.001Z</time></trkpt><trkpt lat="45.637525201125605" lon="8.863365563272508"><ele>241.66666666666669</ele><time>2026-04-07T10:48:28.001Z</time></trkpt><trkpt lat="45.637640288339746" lon="8.863104664293164"><ele>242.0</ele><time>2026-04-07T10:48:29.001Z</time></trkpt><trkpt lat="45.637759828711104" lon="8.862831813662304"><ele>242.0</ele><time>2026-04-07T10:48:30.001Z</time></trkpt><trkpt lat="45.63787283583193" lon="8.862574769415959"><ele>242.0</ele><time>2026-04-07T10:48:31.001Z</time></trkpt><trkpt lat="45.6379877417829" lon="8.862310987532094"><ele>242.0</ele><time>2026-04-07T10:48:32.001Z</time></trkpt><trkpt lat="45.63810329734723" lon="8.862053493980342"><ele>242.0</ele><time>2026-04-07T10:48:33.001Z</time></trkpt><trkpt lat="45.638218595989294" lon="8.861790538851672"><ele>242.0</ele><time>2026-04-07T10:48:34.001Z</time></trkpt><trkpt lat="45.63833189015831" lon="8.861529083478786"><ele>242.0</ele><time>2026-04-07T10:48:35.001Z</time></trkpt><trkpt lat="45.6384453608781" lon="8.861261743230553"><ele>242.33333333333334</ele><time>2026-04-07T10:48:36.001Z</time></trkpt><trkpt lat="45.63856017956921" lon="8.86099537991418"><ele>242.66666666666669</ele><time>2026-04-07T10:48:37.001Z</time></trkpt><trkpt lat="45.638676826667826" lon="8.860727771430163"><ele>243.0</ele><time>2026-04-07T10:48:38.001Z</time></trkpt><trkpt lat="45.63879313090738" lon="8.860455330343065"><ele>243.0</ele><time>2026-04-07T10:48:39.001Z</time></trkpt><trkpt lat="45.638905364322994" lon="8.860179301717233"><ele>243.0</ele><time>2026-04-07T10:48:40.002Z</time></trkpt><trkpt lat="45.63901777194866" lon="8.859904595512939"><ele>243.0</ele><time>2026-04-07T10:48:41.002Z</time></trkpt><trkpt lat="45.63912827193849" lon="8.859661830449772"><ele>243.66666666666669</ele><time>2026-04-07T10:48:42.002Z</time></trkpt><trkpt lat="45.63923965857954" lon="8.859404615198173"><ele>244.33333333333334</ele><time>2026-04-07T10:48:43.002Z</time></trkpt><trkpt lat="45.63934220729109" lon="8.859138514049473"><ele>245.0</ele><time>2026-04-07T10:48:44.002Z</time></trkpt><trkpt lat="45.639446366902376" lon="8.858887743873584"><ele>245.33333333333334</ele><time>2026-04-07T10:48:45.002Z</time></trkpt><trkpt lat="45.63954492515067" lon="8.85865965167048"><ele>245.66666666666669</ele><time>2026-04-07T10:48:46.002Z</time></trkpt><trkpt lat="45.639643112848326" lon="8.858440757825244"><ele>246.0</ele><time>2026-04-07T10:48:47.002Z</time></trkpt><trkpt lat="45.63974714186926" lon="8.858245319221384"><ele>246.0</ele><time>2026-04-07T10:48:48.002Z</time></trkpt><trkpt lat="45.6398704749952" lon="8.858060908114723"><ele>246.0</ele><time>2026-04-07T10:48:49.002Z</time></trkpt><trkpt lat="45.640022724495154" lon="8.857907996522643"><ele>246.0</ele><time>2026-04-07T10:48:50.002Z</time></trkpt><trkpt lat="45.64018277117216" lon="8.857786936170758"><ele>247.33333333333331</ele><time>2026-04-07T10:48:51.002Z</time></trkpt><trkpt lat="45.640348347072475" lon="8.85771149819004"><ele>248.66666666666666</ele><time>2026-04-07T10:48:52.002Z</time></trkpt><trkpt lat="45.64050420874904" lon="8.85767203309941"><ele>250.0</ele><time>2026-04-07T10:48:53.002Z</time></trkpt><trkpt lat="45.64065517989142" lon="8.857634853816407"><ele>249.0</ele><time>2026-04-07T10:48:54.002Z</time></trkpt><trkpt lat="45.64078625888289" lon="8.857586157051973"><ele>248.0</ele><time>2026-04-07T10:48:55.002Z</time></trkpt><trkpt lat="45.64090712532412" lon="8.857513456546528"><ele>247.0</ele><time>2026-04-07T10:48:56.002Z</time></trkpt><trkpt lat="45.641003273748304" lon="8.857407023296258"><ele>246.0</ele><time>2026-04-07T10:48:57.002Z</time></trkpt><trkpt lat="45.641076550655065" lon="8.857262955260655"><ele>246.0</ele><time>2026-04-07T10:48:58.002Z</time></trkpt><trkpt lat="45.641119180596846" lon="8.857107124667328"><ele>246.0</ele><time>2026-04-07T10:48:59.002Z</time></trkpt><trkpt lat="45.64113095002221" lon="8.856946884167442"><ele>246.0</ele><time>2026-04-07T10:49:00.002Z</time></trkpt><trkpt lat="45.641104953311604" lon="8.856790792786526"><ele>246.0</ele><time>2026-04-07T10:49:01.002Z</time></trkpt><trkpt lat="45.64104270585692" lon="8.85665015404907"><ele>245.75</ele><time>2026-04-07T10:49:02.002Z</time></trkpt><trkpt lat="45.640953679008696" lon="8.856529156372828"><ele>245.5</ele><time>2026-04-07T10:49:03.002Z</time></trkpt><trkpt lat="45.640842191233126" lon="8.8564224426968"><ele>245.25</ele><time>2026-04-07T10:49:04.002Z</time></trkpt><trkpt lat="45.64071417100964" lon="8.856323675408003"><ele>245.0</ele><time>2026-04-07T10:49:05.002Z</time></trkpt><trkpt lat="45.640585518895016" lon="8.856217097392285"><ele>245.0</ele><time>2026-04-07T10:49:06.002Z</time></trkpt><trkpt lat="45.64046691432719" lon="8.856116179853048"><ele>245.0</ele><time>2026-04-07T10:49:07.002Z</time></trkpt><trkpt lat="45.64034997167606" lon="8.856016109864672"><ele>245.0</ele><time>2026-04-07T10:49:08.002Z</time></trkpt><trkpt lat="45.64022447612097" lon="8.855916788285509"><ele>245.0</ele><time>2026-04-07T10:49:09.002Z</time></trkpt><trkpt lat="45.64009332850888" lon="8.85581014093746"><ele>245.66666666666669</ele><time>2026-04-07T10:49:10.002Z</time></trkpt><trkpt lat="45.63995528867853" lon="8.855697221509873"><ele>246.33333333333331</ele><time>2026-04-07T10:49:11.002Z</time></trkpt><trkpt lat="45.63980626310158" lon="8.85558827313803"><ele>247.0</ele><time>2026-04-07T10:49:12.002Z</time></trkpt><trkpt lat="45.63965154269664" lon="8.855474390508702"><ele>247.0</ele><time>2026-04-07T10:49:13.002Z</time></trkpt><trkpt lat="45.63949479511296" lon="8.85534764502703"><ele>247.0</ele><time>2026-04-07T10:49:14.002Z</time></trkpt><trkpt lat="45.63934196473097" lon="8.855213126800582"><ele>247.0</ele><time>2026-04-07T10:49:15.002Z</time></trkpt><trkpt lat="45.639187213802145" lon="8.855069814838792"><ele>247.33333333333331</ele><time>2026-04-07T10:49:16.002Z</time></trkpt><trkpt lat="45.63903156503714" lon="8.854923389724748"><ele>247.66666666666669</ele><time>2026-04-07T10:49:17.002Z</time></trkpt><trkpt lat="45.6388701026327" lon="8.854775358225082"><ele>248.0</ele><time>2026-04-07T10:49:18.002Z</time></trkpt><trkpt lat="45.638710355848595" lon="8.854632803759245"><ele>248.0</ele><time>2026-04-07T10:49:19.002Z</time></trkpt><trkpt lat="45.638551248123335" lon="8.854485398322627"><ele>248.0</ele><time>2026-04-07T10:49:20.002Z</time></trkpt><trkpt lat="45.638393098461506" lon="8.854343828149778"><ele>248.0</ele><time>2026-04-07T10:49:21.002Z</time></trkpt><trkpt lat="45.63823383103107" lon="8.854201404734996"><ele>247.0</ele><time>2026-04-07T10:49:22.002Z</time></trkpt><trkpt lat="45.63808240382529" lon="8.854050548362178"><ele>246.0</ele><time>2026-04-07T10:49:23.002Z</time></trkpt><trkpt lat="45.63794185684512" lon="8.85389333990416"><ele>245.0</ele><time>2026-04-07T10:49:24.002Z</time></trkpt><trkpt lat="45.63780471083473" lon="8.853729248242432"><ele>245.0</ele><time>2026-04-07T10:49:25.002Z</time></trkpt><trkpt lat="45.637681055693704" lon="8.853541625564514"><ele>245.0</ele><time>2026-04-07T10:49:26.002Z</time></trkpt><trkpt lat="45.637574709091545" lon="8.853329645663523"><ele>245.0</ele><time>2026-04-07T10:49:27.002Z</time></trkpt><trkpt lat="45.63748822214243" lon="8.853103127510378"><ele>245.0</ele><time>2026-04-07T10:49:28.002Z</time></trkpt><trkpt lat="45.637428022726965" lon="8.852848668395882"><ele>245.0</ele><time>2026-04-07T10:49:29.002Z</time></trkpt><trkpt lat="45.63738605655653" lon="8.852577486683602"><ele>245.0</ele><time>2026-04-07T10:49:30.001Z</time></trkpt><trkpt lat="45.637364197272596" lon="8.852291970867267"><ele>245.0</ele><time>2026-04-07T10:49:31.001Z</time></trkpt><trkpt lat="45.63736269539904" lon="8.851998188958936"><ele>245.0</ele><time>2026-04-07T10:49:32.001Z</time></trkpt><trkpt lat="45.637383561840636" lon="8.851699040378806"><ele>245.0</ele><time>2026-04-07T10:49:33.001Z</time></trkpt><trkpt lat="45.63741869015401" lon="8.851404635474081"><ele>244.66666666666669</ele><time>2026-04-07T10:49:34.001Z</time></trkpt><trkpt lat="45.63745708017047" lon="8.851108757867403"><ele>244.33333333333331</ele><time>2026-04-07T10:49:35.001Z</time></trkpt><trkpt lat="45.63749268561458" lon="8.85080738623225"><ele>244.0</ele><time>2026-04-07T10:49:36.001Z</time></trkpt><trkpt lat="45.63752714305056" lon="8.850509997065096"><ele>244.0</ele><time>2026-04-07T10:49:37.001Z</time></trkpt><trkpt lat="45.63756046065078" lon="8.850214186713096"><ele>244.0</ele><time>2026-04-07T10:49:38.001Z</time></trkpt><trkpt lat="45.6375910932696" lon="8.849918815532586"><ele>244.0</ele><time>2026-04-07T10:49:39.001Z</time></trkpt><trkpt lat="45.63762359690155" lon="8.849622663588118"><ele>243.66666666666666</ele><time>2026-04-07T10:49:40.001Z</time></trkpt><trkpt lat="45.63765539034087" lon="8.849329687570878"><ele>243.33333333333331</ele><time>2026-04-07T10:49:41.001Z</time></trkpt><trkpt lat="45.63769059322764" lon="8.849035848007215"><ele>243.0</ele><time>2026-04-07T10:49:42.001Z</time></trkpt><trkpt lat="45.63772540861705" lon="8.848741834092026"><ele>242.66666666666669</ele><time>2026-04-07T10:49:43.001Z</time></trkpt><trkpt lat="45.637761504523084" lon="8.84844880501429"><ele>242.33333333333334</ele><time>2026-04-07T10:49:44.001Z</time></trkpt><trkpt lat="45.63779578532296" lon="8.848153858340801"><ele>242.0</ele><time>2026-04-07T10:49:45.001Z</time></trkpt><trkpt lat="45.637827036360115" lon="8.847862439856053"><ele>242.33333333333334</ele><time>2026-04-07T10:49:46.001Z</time></trkpt><trkpt lat="45.63786113082667" lon="8.847570883438651"><ele>242.66666666666669</ele><time>2026-04-07T10:49:47.001Z</time></trkpt><trkpt lat="45.63789277391044" lon="8.847282995337572"><ele>243.0</ele><time>2026-04-07T10:49:48.001Z</time></trkpt><trkpt lat="45.6379284461593" lon="8.846991720110925"><ele>243.0</ele><time>2026-04-07T10:49:49.001Z</time></trkpt><trkpt lat="45.637963159718495" lon="8.846702554384684"><ele>243.0</ele><time>2026-04-07T10:49:50.001Z</time></trkpt><trkpt lat="45.63799616847789" lon="8.846414739549123"><ele>243.0</ele><time>2026-04-07T10:49:51.001Z</time></trkpt><trkpt lat="45.638027068971866" lon="8.846126751875344"><ele>243.0</ele><time>2026-04-07T10:49:52.001Z</time></trkpt><trkpt lat="45.63805879854119" lon="8.845846630346491"><ele>243.0</ele><time>2026-04-07T10:49:53.001Z</time></trkpt><trkpt lat="45.63808970247385" lon="8.84556668768499"><ele>243.0</ele><time>2026-04-07T10:49:54.001Z</time></trkpt><trkpt lat="45.638122615817906" lon="8.845283915651732"><ele>243.0</ele><time>2026-04-07T10:49:55.001Z</time></trkpt><trkpt lat="45.638157245418704" lon="8.844999769963392"><ele>243.0</ele><time>2026-04-07T10:49:56.001Z</time></trkpt><trkpt lat="45.63819091354881" lon="8.844714843163045"><ele>243.0</ele><time>2026-04-07T10:49:57.001Z</time></trkpt><trkpt lat="45.638223592059234" lon="8.844428345051327"><ele>243.0</ele><time>2026-04-07T10:49:58.001Z</time></trkpt><trkpt lat="45.63825577434352" lon="8.844133379938304"><ele>243.0</ele><time>2026-04-07T10:49:59.001Z</time></trkpt><trkpt lat="45.63828786998805" lon="8.843840325081128"><ele>243.0</ele><time>2026-04-07T10:50:00.001Z</time></trkpt><trkpt lat="45.638321018355455" lon="8.843545494678365"><ele>243.0</ele><time>2026-04-07T10:50:01.001Z</time></trkpt><trkpt lat="45.63835502127855" lon="8.843246735819275"><ele>243.0</ele><time>2026-04-07T10:50:02.001Z</time></trkpt><trkpt lat="45.63838920915061" lon="8.842946041369432"><ele>243.0</ele><time>2026-04-07T10:50:03.001Z</time></trkpt><trkpt lat="45.63842264345258" lon="8.842645147866106"><ele>243.0</ele><time>2026-04-07T10:50:04.001Z</time></trkpt><trkpt lat="45.638456100369226" lon="8.842339837440974"><ele>243.0</ele><time>2026-04-07T10:50:05.001Z</time></trkpt><trkpt lat="45.63848923645239" lon="8.84203448370635"><ele>243.0</ele><time>2026-04-07T10:50:06.001Z</time></trkpt><trkpt lat="45.638525666881826" lon="8.841728367878703"><ele>243.0</ele><time>2026-04-07T10:50:07.001Z</time></trkpt><trkpt lat="45.63856124811163" lon="8.841423452738404"><ele>243.0</ele><time>2026-04-07T10:50:08.001Z</time></trkpt><trkpt lat="45.638596399816116" lon="8.841119270668402"><ele>243.0</ele><time>2026-04-07T10:50:09.001Z</time></trkpt><trkpt lat="45.63863243742417" lon="8.840817848977695"><ele>242.33333333333331</ele><time>2026-04-07T10:50:10.001Z</time></trkpt><trkpt lat="45.63866842702208" lon="8.840516560312135"><ele>241.66666666666666</ele><time>2026-04-07T10:50:11.001Z</time></trkpt><trkpt lat="45.63870337534815" lon="8.840217614203294"><ele>241.0</ele><time>2026-04-07T10:50:12.001Z</time></trkpt><trkpt lat="45.63873736647092" lon="8.839915094607186"><ele>241.0</ele><time>2026-04-07T10:50:13.001Z</time></trkpt><trkpt lat="45.63876729459837" lon="8.839621379047006"><ele>241.0</ele><time>2026-04-07T10:50:14.001Z</time></trkpt><trkpt lat="45.63879780911864" lon="8.839324059953915"><ele>241.0</ele><time>2026-04-07T10:50:15.001Z</time></trkpt><trkpt lat="45.63883377387088" lon="8.839023172782122"><ele>241.33333333333331</ele><time>2026-04-07T10:50:16.001Z</time></trkpt><trkpt lat="45.63886490198339" lon="8.83871969429915"><ele>241.66666666666669</ele><time>2026-04-07T10:50:17.001Z</time></trkpt><trkpt lat="45.6388980641826" lon="8.8384234047132"><ele>242.0</ele><time>2026-04-07T10:50:18.001Z</time></trkpt><trkpt lat="45.638932160678415" lon="8.838126060843132"><ele>242.0</ele><time>2026-04-07T10:50:19.001Z</time></trkpt><trkpt lat="45.63896551240188" lon="8.837826900425883"><ele>242.0</ele><time>2026-04-07T10:50:20.001Z</time></trkpt><trkpt lat="45.63899799208415" lon="8.83752912135816"><ele>242.0</ele><time>2026-04-07T10:50:21.001Z</time></trkpt><trkpt lat="45.63903063604258" lon="8.83723009814855"><ele>241.0</ele><time>2026-04-07T10:50:22.001Z</time></trkpt><trkpt lat="45.639064411792624" lon="8.83693015239125"><ele>240.0</ele><time>2026-04-07T10:50:23.001Z</time></trkpt><trkpt lat="45.639094689332914" lon="8.836628133289565"><ele>239.0</ele><time>2026-04-07T10:50:24.001Z</time></trkpt><trkpt lat="45.63912641556878" lon="8.836317454397333"><ele>239.0</ele><time>2026-04-07T10:50:25.001Z</time></trkpt><trkpt lat="45.639153379945874" lon="8.836005459059656"><ele>239.0</ele><time>2026-04-07T10:50:26.001Z</time></trkpt><trkpt lat="45.63919215474808" lon="8.835696751555387"><ele>239.0</ele><time>2026-04-07T10:50:27.001Z</time></trkpt><trkpt lat="45.63924046119891" lon="8.835395336037323"><ele>240.33333333333334</ele><time>2026-04-07T10:50:28.001Z</time></trkpt><trkpt lat="45.63928755371227" lon="8.835088856132586"><ele>241.66666666666669</ele><time>2026-04-07T10:50:29.001Z</time></trkpt><trkpt lat="45.63932328701527" lon="8.834782577711126"><ele>243.0</ele><time>2026-04-07T10:50:30.001Z</time></trkpt><trkpt lat="45.639355426409836" lon="8.834479673716876"><ele>241.33333333333331</ele><time>2026-04-07T10:50:31.001Z</time></trkpt><trkpt lat="45.63938823498982" lon="8.834178798054323"><ele>239.66666666666666</ele><time>2026-04-07T10:50:32.001Z</time></trkpt><trkpt lat="45.6394195121244" lon="8.83387898828647"><ele>238.0</ele><time>2026-04-07T10:50:33.001Z</time></trkpt><trkpt lat="45.63945093231929" lon="8.833580132410196"><ele>239.0</ele><time>2026-04-07T10:50:34.001Z</time></trkpt><trkpt lat="45.639484648759186" lon="8.833278878165775"><ele>240.0</ele><time>2026-04-07T10:50:35.001Z</time></trkpt><trkpt lat="45.639517111877176" lon="8.832977956822276"><ele>241.0</ele><time>2026-04-07T10:50:36.001Z</time></trkpt><trkpt lat="45.63955232780429" lon="8.832676623397361"><ele>241.33333333333331</ele><time>2026-04-07T10:50:37.001Z</time></trkpt><trkpt lat="45.63958888663489" lon="8.83237404441554"><ele>241.66666666666669</ele><time>2026-04-07T10:50:38.001Z</time></trkpt><trkpt lat="45.63962458310585" lon="8.832076458321914"><ele>242.0</ele><time>2026-04-07T10:50:39.001Z</time></trkpt><trkpt lat="45.639659613318294" lon="8.83177731476309"><ele>242.0</ele><time>2026-04-07T10:50:40.001Z</time></trkpt><trkpt lat="45.639693640490776" lon="8.831481058496818"><ele>242.0</ele><time>2026-04-07T10:50:41.001Z</time></trkpt><trkpt lat="45.63972517316071" lon="8.831185475986743"><ele>242.0</ele><time>2026-04-07T10:50:42.001Z</time></trkpt><trkpt lat="45.63975357782019" lon="8.830889402046084"><ele>241.66666666666669</ele><time>2026-04-07T10:50:43.001Z</time></trkpt><trkpt lat="45.63977618471791" lon="8.830591705416639"><ele>241.33333333333331</ele><time>2026-04-07T10:50:44.001Z</time></trkpt><trkpt lat="45.639791321665165" lon="8.830291005876504"><ele>241.0</ele><time>2026-04-07T10:50:45.001Z</time></trkpt><trkpt lat="45.63980155566219" lon="8.82998678645475"><ele>240.66666666666666</ele><time>2026-04-07T10:50:46.001Z</time></trkpt><trkpt lat="45.63980528226922" lon="8.82967873704497"><ele>240.33333333333331</ele><time>2026-04-07T10:50:47.001Z</time></trkpt><trkpt lat="45.63980593994701" lon="8.82936829823965"><ele>240.0</ele><time>2026-04-07T10:50:48.001Z</time></trkpt><trkpt lat="45.63981373587519" lon="8.829052586363227"><ele>240.0</ele><time>2026-04-07T10:50:49.001Z</time></trkpt><trkpt lat="45.639822260349256" lon="8.828737519683488"><ele>240.0</ele><time>2026-04-07T10:50:50.001Z</time></trkpt><trkpt lat="45.63983126264781" lon="8.828424585828374"><ele>240.0</ele><time>2026-04-07T10:50:51.001Z</time></trkpt><trkpt lat="45.639841812930676" lon="8.828111188579033"><ele>241.66666666666669</ele><time>2026-04-07T10:50:52.001Z</time></trkpt><trkpt lat="45.63985288999408" lon="8.827798676232431"><ele>243.33333333333334</ele><time>2026-04-07T10:50:53.001Z</time></trkpt><trkpt lat="45.639867546325675" lon="8.827486576643917"><ele>245.0</ele><time>2026-04-07T10:50:54.001Z</time></trkpt><trkpt lat="45.63988404116357" lon="8.82717388330035"><ele>245.33333333333334</ele><time>2026-04-07T10:50:55.001Z</time></trkpt><trkpt lat="45.63989885868027" lon="8.826862522551684"><ele>245.66666666666669</ele><time>2026-04-07T10:50:56.001Z</time></trkpt><trkpt lat="45.639910683484835" lon="8.826550399988292"><ele>246.0</ele><time>2026-04-07T10:50:57.001Z</time></trkpt><trkpt lat="45.63992008439545" lon="8.826236670440474"><ele>245.33333333333331</ele><time>2026-04-07T10:50:58.001Z</time></trkpt><trkpt lat="45.639927510023924" lon="8.825924003874338"><ele>244.66666666666666</ele><time>2026-04-07T10:50:59.001Z</time></trkpt><trkpt lat="45.63993441369623" lon="8.825610636961912"><ele>244.0</ele><time>2026-04-07T10:51:00.001Z</time></trkpt><trkpt lat="45.6399436033067" lon="8.825301107470812"><ele>243.0</ele><time>2026-04-07T10:51:01.001Z</time></trkpt><trkpt lat="45.639954140563816" lon="8.824991657838444"><ele>242.0</ele><time>2026-04-07T10:51:02.002Z</time></trkpt><trkpt lat="45.63996247848764" lon="8.824677866786605"><ele>241.0</ele><time>2026-04-07T10:51:03.002Z</time></trkpt><trkpt lat="45.63996949241479" lon="8.82436228054399"><ele>241.0</ele><time>2026-04-07T10:51:04.002Z</time></trkpt><trkpt lat="45.63997661995572" lon="8.824044319591588"><ele>241.0</ele><time>2026-04-07T10:51:05.002Z</time></trkpt><trkpt lat="45.6399860013097" lon="8.82372388120593"><ele>241.0</ele><time>2026-04-07T10:51:06.002Z</time></trkpt><trkpt lat="45.63999528431335" lon="8.823400711002215"><ele>239.5</ele><time>2026-04-07T10:51:07.002Z</time></trkpt><trkpt lat="45.64000293982948" lon="8.823077176433431"><ele>238.0</ele><time>2026-04-07T10:51:08.002Z</time></trkpt><trkpt lat="45.640008759627094" lon="8.822751328361981"><ele>237.5</ele><time>2026-04-07T10:51:09.002Z</time></trkpt><trkpt lat="45.64001362447867" lon="8.822416617629113"><ele>237.0</ele><time>2026-04-07T10:51:10.002Z</time></trkpt><trkpt lat="45.64001458499392" lon="8.822070888789947"><ele>238.0</ele><time>2026-04-07T10:51:11.002Z</time></trkpt><trkpt lat="45.64002584945339" lon="8.821697762994647"><ele>239.0</ele><time>2026-04-07T10:51:12.002Z</time></trkpt><trkpt lat="45.64003142751701" lon="8.821336425894824"><ele>238.0</ele><time>2026-04-07T10:51:13.002Z</time></trkpt><trkpt lat="45.64004179568787" lon="8.82096859715263"><ele>237.0</ele><time>2026-04-07T10:51:14.002Z</time></trkpt><trkpt lat="45.64006133430365" lon="8.820592879710441"><ele>237.0</ele><time>2026-04-07T10:51:15.002Z</time></trkpt><trkpt lat="45.64008085865891" lon="8.820219505001532"><ele>237.0</ele><time>2026-04-07T10:51:16.002Z</time></trkpt><trkpt lat="45.64009608471151" lon="8.819844367554762"><ele>237.0</ele><time>2026-04-07T10:51:17.002Z</time></trkpt><trkpt lat="45.64010903700627" lon="8.81947709103844"><ele>237.0</ele><time>2026-04-07T10:51:18.002Z</time></trkpt><trkpt lat="45.64011897543119" lon="8.819117160699525"><ele>238.5</ele><time>2026-04-07T10:51:19.002Z</time></trkpt><trkpt lat="45.64012962702518" lon="8.818764570299189"><ele>240.0</ele><time>2026-04-07T10:51:20.002Z</time></trkpt><trkpt lat="45.64014027774416" lon="8.818420860089187"><ele>241.0</ele><time>2026-04-07T10:51:21.002Z</time></trkpt><trkpt lat="45.64014761912699" lon="8.81807722053364"><ele>242.0</ele><time>2026-04-07T10:51:22.002Z</time></trkpt><trkpt lat="45.640154575063015" lon="8.817739424229192"><ele>240.0</ele><time>2026-04-07T10:51:23.002Z</time></trkpt><trkpt lat="45.64016604834025" lon="8.817403802471242"><ele>238.0</ele><time>2026-04-07T10:51:24.002Z</time></trkpt><trkpt lat="45.64017524425151" lon="8.817074194736097"><ele>237.66666666666666</ele><time>2026-04-07T10:51:25.002Z</time></trkpt><trkpt lat="45.64018347156689" lon="8.816751264240553"><ele>237.33333333333331</ele><time>2026-04-07T10:51:26.002Z</time></trkpt><trkpt lat="45.64018918384138" lon="8.816435898883363"><ele>237.0</ele><time>2026-04-07T10:51:27.002Z</time></trkpt><trkpt lat="45.64019907452898" lon="8.816120301878417"><ele>237.0</ele><time>2026-04-07T10:51:28.002Z</time></trkpt><trkpt lat="45.64020586446669" lon="8.815807328400155"><ele>237.0</ele><time>2026-04-07T10:51:29.002Z</time></trkpt><trkpt lat="45.64021226486265" lon="8.815499120228907"><ele>237.0</ele><time>2026-04-07T10:51:30.002Z</time></trkpt><trkpt lat="45.64021876120398" lon="8.815194456298643"><ele>237.0</ele><time>2026-04-07T10:51:31.002Z</time></trkpt><trkpt lat="45.640225446468634" lon="8.814891835187346"><ele>237.0</ele><time>2026-04-07T10:51:32.002Z</time></trkpt><trkpt lat="45.64023148603329" lon="8.814591139969005"><ele>237.0</ele><time>2026-04-07T10:51:33.002Z</time></trkpt><trkpt lat="45.640238176380514" lon="8.81428948053679"><ele>236.33333333333331</ele><time>2026-04-07T10:51:34.002Z</time></trkpt><trkpt lat="45.64025091742503" lon="8.81397572435826"><ele>235.66666666666666</ele><time>2026-04-07T10:51:35.002Z</time></trkpt><trkpt lat="45.64025780647191" lon="8.813671083206192"><ele>235.0</ele><time>2026-04-07T10:51:36.001Z</time></trkpt><trkpt lat="45.640266107990506" lon="8.813366954404277"><ele>235.0</ele><time>2026-04-07T10:51:37Z</time></trkpt><trkpt lat="45.640275132717505" lon="8.813059879040605"><ele>235.0</ele><time>2026-04-07T10:51:38.001Z</time></trkpt><trkpt lat="45.64028228568302" lon="8.812760956382528"><ele>235.0</ele><time>2026-04-07T10:51:39Z</time></trkpt><trkpt lat="45.640289943799345" lon="8.812459107843514"><ele>235.66666666666666</ele><time>2026-04-07T10:51:40Z</time></trkpt><trkpt lat="45.64029847350075" lon="8.812157849337638"><ele>236.33333333333331</ele><time>2026-04-07T10:51:41Z</time></trkpt><trkpt lat="45.640306954729645" lon="8.811855327691454"><ele>237.0</ele><time>2026-04-07T10:51:42Z</time></trkpt><trkpt lat="45.64031508540939" lon="8.811555964172001"><ele>237.66666666666669</ele><time>2026-04-07T10:51:43Z</time></trkpt><trkpt lat="45.64032445543611" lon="8.811259021219923"><ele>238.33333333333334</ele><time>2026-04-07T10:51:44Z</time></trkpt><trkpt lat="45.6403338705801" lon="8.810955535513372"><ele>239.0</ele><time>2026-04-07T10:51:45Z</time></trkpt><trkpt lat="45.64033986732779" lon="8.810652030426667"><ele>239.0</ele><time>2026-04-07T10:51:46Z</time></trkpt><trkpt lat="45.6403466157364" lon="8.810349295827338"><ele>239.0</ele><time>2026-04-07T10:51:47Z</time></trkpt><trkpt lat="45.640354725897474" lon="8.810045419323597"><ele>239.0</ele><time>2026-04-07T10:51:48Z</time></trkpt><trkpt lat="45.64036215195148" lon="8.809742324438648"><ele>238.33333333333334</ele><time>2026-04-07T10:51:49Z</time></trkpt><trkpt lat="45.64037395520292" lon="8.809434738769587"><ele>237.66666666666669</ele><time>2026-04-07T10:51:50Z</time></trkpt><trkpt lat="45.64038145508876" lon="8.80913103329621"><ele>237.0</ele><time>2026-04-07T10:51:51Z</time></trkpt><trkpt lat="45.64037924280626" lon="8.808829456073418"><ele>237.0</ele><time>2026-04-07T10:51:52Z</time></trkpt><trkpt lat="45.64038738086447" lon="8.808524657886636"><ele>237.0</ele><time>2026-04-07T10:51:53Z</time></trkpt><trkpt lat="45.640394308711585" lon="8.80822224271349"><ele>237.0</ele><time>2026-04-07T10:51:54Z</time></trkpt><trkpt lat="45.64040212345483" lon="8.807917500353918"><ele>236.66666666666669</ele><time>2026-04-07T10:51:55Z</time></trkpt><trkpt lat="45.64040874612937" lon="8.807618169762561"><ele>236.33333333333334</ele><time>2026-04-07T10:51:56Z</time></trkpt><trkpt lat="45.64041919084422" lon="8.807310606288404"><ele>236.0</ele><time>2026-04-07T10:51:57Z</time></trkpt><trkpt lat="45.640431133496115" lon="8.807002281921255"><ele>235.66666666666669</ele><time>2026-04-07T10:51:58Z</time></trkpt><trkpt lat="45.640440902831934" lon="8.806696446613543"><ele>235.33333333333331</ele><time>2026-04-07T10:51:59Z</time></trkpt><trkpt lat="45.640450154091376" lon="8.806390207689127"><ele>235.0</ele><time>2026-04-07T10:52:00Z</time></trkpt><trkpt lat="45.64045746272373" lon="8.806088473001655"><ele>235.33333333333331</ele><time>2026-04-07T10:52:01Z</time></trkpt><trkpt lat="45.64046545304522" lon="8.805786250893952"><ele>235.66666666666669</ele><time>2026-04-07T10:52:02Z</time></trkpt><trkpt lat="45.64047489340431" lon="8.805479313069615"><ele>236.0</ele><time>2026-04-07T10:52:03Z</time></trkpt><trkpt lat="45.64048631221058" lon="8.805170170493279"><ele>236.0</ele><time>2026-04-07T10:52:04Z</time></trkpt><trkpt lat="45.64049358866003" lon="8.8048650606623"><ele>236.0</ele><time>2026-04-07T10:52:05Z</time></trkpt><trkpt lat="45.64050353086309" lon="8.80456107051935"><ele>236.0</ele><time>2026-04-07T10:52:06Z</time></trkpt><trkpt lat="45.64051243743545" lon="8.804253865945045"><ele>235.33333333333334</ele><time>2026-04-07T10:52:07Z</time></trkpt><trkpt lat="45.64051905895034" lon="8.803948477242663"><ele>234.66666666666669</ele><time>2026-04-07T10:52:08.001Z</time></trkpt><trkpt lat="45.64052193468588" lon="8.803641384845863"><ele>234.0</ele><time>2026-04-07T10:52:09.001Z</time></trkpt><trkpt lat="45.64053594117702" lon="8.803332837657043"><ele>234.33333333333331</ele><time>2026-04-07T10:52:10.001Z</time></trkpt><trkpt lat="45.64054560248488" lon="8.803030289018515"><ele>234.66666666666666</ele><time>2026-04-07T10:52:11.001Z</time></trkpt><trkpt lat="45.64056549955768" lon="8.8027248129266"><ele>235.0</ele><time>2026-04-07T10:52:12.001Z</time></trkpt><trkpt lat="45.64059606269896" lon="8.802418345979914"><ele>235.0</ele><time>2026-04-07T10:52:13.001Z</time></trkpt><trkpt lat="45.64064045791656" lon="8.802113756765245"><ele>235.0</ele><time>2026-04-07T10:52:14.001Z</time></trkpt><trkpt lat="45.640690909944844" lon="8.801815942727012"><ele>235.0</ele><time>2026-04-07T10:52:15.001Z</time></trkpt><trkpt lat="45.64075300947464" lon="8.801521048379547"><ele>235.0</ele><time>2026-04-07T10:52:16.001Z</time></trkpt><trkpt lat="45.64082331252928" lon="8.801226180676116"><ele>235.0</ele><time>2026-04-07T10:52:17.001Z</time></trkpt><trkpt lat="45.640905575523824" lon="8.800926346755272"><ele>235.0</ele><time>2026-04-07T10:52:18.001Z</time></trkpt><trkpt lat="45.64100115826902" lon="8.800625781313029"><ele>235.0</ele><time>2026-04-07T10:52:19.001Z</time></trkpt><trkpt lat="45.64110234680882" lon="8.800333665571332"><ele>235.0</ele><time>2026-04-07T10:52:20.001Z</time></trkpt><trkpt lat="45.64120634635555" lon="8.80004170730035"><ele>235.0</ele><time>2026-04-07T10:52:21.001Z</time></trkpt><trkpt lat="45.64131324230364" lon="8.799750368470972"><ele>235.0</ele><time>2026-04-07T10:52:22.001Z</time></trkpt><trkpt lat="45.64141917347735" lon="8.799458637748135"><ele>236.0</ele><time>2026-04-07T10:52:23.001Z</time></trkpt><trkpt lat="45.641524619655925" lon="8.799170560234673"><ele>237.0</ele><time>2026-04-07T10:52:24.001Z</time></trkpt><trkpt lat="45.641632544895465" lon="8.798886117464708"><ele>237.0</ele><time>2026-04-07T10:52:25.001Z</time></trkpt><trkpt lat="45.64174553714923" lon="8.798606095254678"><ele>237.0</ele><time>2026-04-07T10:52:26.001Z</time></trkpt><trkpt lat="45.641858053026496" lon="8.798332175671298"><ele>237.0</ele><time>2026-04-07T10:52:27.001Z</time></trkpt><trkpt lat="45.641970733063275" lon="8.798058266255511"><ele>237.33333333333331</ele><time>2026-04-07T10:52:28.001Z</time></trkpt><trkpt lat="45.64207893730573" lon="8.79778274564849"><ele>237.66666666666666</ele><time>2026-04-07T10:52:29.001Z</time></trkpt><trkpt lat="45.64218193532922" lon="8.7975078648912"><ele>238.0</ele><time>2026-04-07T10:52:30.001Z</time></trkpt><trkpt lat="45.64228197374792" lon="8.797236013967973"><ele>236.66666666666666</ele><time>2026-04-07T10:52:31.001Z</time></trkpt><trkpt lat="45.64238174143552" lon="8.796962929232272"><ele>235.33333333333331</ele><time>2026-04-07T10:52:32.001Z</time></trkpt><trkpt lat="45.642476010637914" lon="8.796689022849643"><ele>234.0</ele><time>2026-04-07T10:52:33.001Z</time></trkpt><trkpt lat="45.642571005975135" lon="8.796415730130276"><ele>233.66666666666669</ele><time>2026-04-07T10:52:34.001Z</time></trkpt><trkpt lat="45.64266142152483" lon="8.796133534228398"><ele>233.33333333333334</ele><time>2026-04-07T10:52:35.001Z</time></trkpt><trkpt lat="45.64274262775939" lon="8.795847446749944"><ele>233.0</ele><time>2026-04-07T10:52:36.001Z</time></trkpt><trkpt lat="45.64281500297122" lon="8.795553940984261"><ele>233.0</ele><time>2026-04-07T10:52:37.001Z</time></trkpt><trkpt lat="45.64288257024462" lon="8.795255122620425"><ele>233.0</ele><time>2026-04-07T10:52:38.001Z</time></trkpt><trkpt lat="45.64294319861239" lon="8.794954089438539"><ele>233.0</ele><time>2026-04-07T10:52:39.001Z</time></trkpt><trkpt lat="45.642996859523635" lon="8.794648381047542"><ele>232.33333333333334</ele><time>2026-04-07T10:52:40.001Z</time></trkpt><trkpt lat="45.6430435824334" lon="8.794338074052735"><ele>231.66666666666669</ele><time>2026-04-07T10:52:41.001Z</time></trkpt><trkpt lat="45.64308170763723" lon="8.794024097939511"><ele>231.0</ele><time>2026-04-07T10:52:42.001Z</time></trkpt><trkpt lat="45.643113174399325" lon="8.793712655515282"><ele>231.66666666666669</ele><time>2026-04-07T10:52:43.001Z</time></trkpt><trkpt lat="45.64313865694042" lon="8.793397458111038"><ele>232.33333333333334</ele><time>2026-04-07T10:52:44.001Z</time></trkpt><trkpt lat="45.64315637109533" lon="8.79307749736844"><ele>233.0</ele><time>2026-04-07T10:52:45.001Z</time></trkpt><trkpt lat="45.64316572028292" lon="8.792760391321812"><ele>233.66666666666669</ele><time>2026-04-07T10:52:46.001Z</time></trkpt><trkpt lat="45.64316880133928" lon="8.792439753124516"><ele>234.33333333333331</ele><time>2026-04-07T10:52:47.001Z</time></trkpt><trkpt lat="45.64316229748485" lon="8.792123696792483"><ele>235.0</ele><time>2026-04-07T10:52:48.001Z</time></trkpt><trkpt lat="45.64315016306419" lon="8.791809401748209"><ele>233.33333333333331</ele><time>2026-04-07T10:52:49.001Z</time></trkpt><trkpt lat="45.64312531320685" lon="8.791498700397602"><ele>231.66666666666669</ele><time>2026-04-07T10:52:50.001Z</time></trkpt><trkpt lat="45.643087863625645" lon="8.791188811515696"><ele>230.0</ele><time>2026-04-07T10:52:51.001Z</time></trkpt><trkpt lat="45.643054045473086" lon="8.790883337394483"><ele>230.0</ele><time>2026-04-07T10:52:52.001Z</time></trkpt><trkpt lat="45.64301751222043" lon="8.790577904273322"><ele>230.0</ele><time>2026-04-07T10:52:53.001Z</time></trkpt><trkpt lat="45.642981789968836" lon="8.790273315063136"><ele>230.0</ele><time>2026-04-07T10:52:54.001Z</time></trkpt><trkpt lat="45.642948954170095" lon="8.789965959635309"><ele>230.33333333333334</ele><time>2026-04-07T10:52:55.001Z</time></trkpt><trkpt lat="45.64291685511855" lon="8.789660796679662"><ele>230.66666666666669</ele><time>2026-04-07T10:52:56.001Z</time></trkpt><trkpt lat="45.64288354475213" lon="8.789359154411828"><ele>231.0</ele><time>2026-04-07T10:52:57.001Z</time></trkpt><trkpt lat="45.64284877370376" lon="8.789058449458437"><ele>231.0</ele><time>2026-04-07T10:52:58.001Z</time></trkpt><trkpt lat="45.64281292426717" lon="8.788761345179207"><ele>231.0</ele><time>2026-04-07T10:52:59.001Z</time></trkpt><trkpt lat="45.64277639655113" lon="8.788466901249103"><ele>231.0</ele><time>2026-04-07T10:53:00.001Z</time></trkpt><trkpt lat="45.64274544389548" lon="8.788162434696279"><ele>230.66666666666669</ele><time>2026-04-07T10:53:01.001Z</time></trkpt><trkpt lat="45.64271082757459" lon="8.787856973392676"><ele>230.33333333333334</ele><time>2026-04-07T10:53:02.001Z</time></trkpt><trkpt lat="45.642675411078706" lon="8.787550760652545"><ele>230.0</ele><time>2026-04-07T10:53:03.001Z</time></trkpt><trkpt lat="45.64264123694101" lon="8.787245628368032"><ele>229.66666666666669</ele><time>2026-04-07T10:53:04.001Z</time></trkpt><trkpt lat="45.642605949589246" lon="8.786948103936583"><ele>229.33333333333331</ele><time>2026-04-07T10:53:05.001Z</time></trkpt><trkpt lat="45.64256928616477" lon="8.786648844129967"><ele>229.0</ele><time>2026-04-07T10:53:06.001Z</time></trkpt><trkpt lat="45.6425361468466" lon="8.786346540365809"><ele>229.66666666666666</ele><time>2026-04-07T10:53:07.001Z</time></trkpt><trkpt lat="45.642499294286495" lon="8.786049895183409"><ele>230.33333333333331</ele><time>2026-04-07T10:53:08.001Z</time></trkpt><trkpt lat="45.642464775626195" lon="8.785749315235362"><ele>231.0</ele><time>2026-04-07T10:53:09.001Z</time></trkpt><trkpt lat="45.64242610051735" lon="8.785452667972287"><ele>230.33333333333331</ele><time>2026-04-07T10:53:10.001Z</time></trkpt><trkpt lat="45.64238892906203" lon="8.785156484104483"><ele>229.66666666666666</ele><time>2026-04-07T10:53:11.001Z</time></trkpt><trkpt lat="45.64235281336703" lon="8.784853492335058"><ele>229.0</ele><time>2026-04-07T10:53:12.001Z</time></trkpt><trkpt lat="45.6423159042853" lon="8.78455318410318"><ele>229.33333333333331</ele><time>2026-04-07T10:53:13.001Z</time></trkpt><trkpt lat="45.64227717208952" lon="8.784256151214151"><ele>229.66666666666669</ele><time>2026-04-07T10:53:14.001Z</time></trkpt><trkpt lat="45.6422396044368" lon="8.783958893252388"><ele>230.0</ele><time>2026-04-07T10:53:15.001Z</time></trkpt><trkpt lat="45.64220152313733" lon="8.783657429031903"><ele>230.33333333333334</ele><time>2026-04-07T10:53:16.001Z</time></trkpt><trkpt lat="45.64216354400778" lon="8.783356965047156"><ele>230.66666666666669</ele><time>2026-04-07T10:53:17.001Z</time></trkpt><trkpt lat="45.64212503071001" lon="8.783055554276789"><ele>231.0</ele><time>2026-04-07T10:53:18.001Z</time></trkpt><trkpt lat="45.642086333299446" lon="8.782758680537931"><ele>232.0</ele><time>2026-04-07T10:53:19.001Z</time></trkpt><trkpt lat="45.64204630515481" lon="8.78246400925233"><ele>233.0</ele><time>2026-04-07T10:53:20.001Z</time></trkpt><trkpt lat="45.64200691019211" lon="8.782163497040454"><ele>234.0</ele><time>2026-04-07T10:53:21.001Z</time></trkpt><trkpt lat="45.64197060394659" lon="8.781859654749532"><ele>233.33333333333331</ele><time>2026-04-07T10:53:22.001Z</time></trkpt><trkpt lat="45.64193273625185" lon="8.781552752253965"><ele>232.66666666666666</ele><time>2026-04-07T10:53:23.001Z</time></trkpt><trkpt lat="45.64189651371587" lon="8.781250072860605"><ele>232.0</ele><time>2026-04-07T10:53:24.001Z</time></trkpt><trkpt lat="45.64186047395349" lon="8.78094685150409"><ele>231.33333333333331</ele><time>2026-04-07T10:53:25.001Z</time></trkpt><trkpt lat="45.64183091614352" lon="8.780636902156205"><ele>230.66666666666669</ele><time>2026-04-07T10:53:26.001Z</time></trkpt><trkpt lat="45.64179923851994" lon="8.780330008613559"><ele>230.0</ele><time>2026-04-07T10:53:27.002Z</time></trkpt><trkpt lat="45.64177591142016" lon="8.780022360448672"><ele>230.0</ele><time>2026-04-07T10:53:28.002Z</time></trkpt><trkpt lat="45.64175845995232" lon="8.779714498173007"><ele>230.0</ele><time>2026-04-07T10:53:29.002Z</time></trkpt><trkpt lat="45.64174598850883" lon="8.779406853453429"><ele>230.0</ele><time>2026-04-07T10:53:30.002Z</time></trkpt><trkpt lat="45.64173553792086" lon="8.77909769772511"><ele>230.0</ele><time>2026-04-07T10:53:31.002Z</time></trkpt><trkpt lat="45.64173307564693" lon="8.778782848003605"><ele>230.0</ele><time>2026-04-07T10:53:32.002Z</time></trkpt><trkpt lat="45.641733260682834" lon="8.77847321995496"><ele>230.0</ele><time>2026-04-07T10:53:33.002Z</time></trkpt><trkpt lat="45.64174154823555" lon="8.77816743912881"><ele>230.0</ele><time>2026-04-07T10:53:34.002Z</time></trkpt><trkpt lat="45.64175706165007" lon="8.777865642465864"><ele>230.0</ele><time>2026-04-07T10:53:35.002Z</time></trkpt><trkpt lat="45.64177505659783" lon="8.777563140726189"><ele>230.0</ele><time>2026-04-07T10:53:36.002Z</time></trkpt><trkpt lat="45.641799860607634" lon="8.777259203168631"><ele>229.66666666666669</ele><time>2026-04-07T10:53:37.002Z</time></trkpt><trkpt lat="45.641830796017636" lon="8.77695899087111"><ele>229.33333333333331</ele><time>2026-04-07T10:53:38.002Z</time></trkpt><trkpt lat="45.64187086220477" lon="8.77665372268694"><ele>229.0</ele><time>2026-04-07T10:53:39.002Z</time></trkpt><trkpt lat="45.64191698540158" lon="8.776354783860286"><ele>229.33333333333331</ele><time>2026-04-07T10:53:40.002Z</time></trkpt><trkpt lat="45.64196845796127" lon="8.776055686023234"><ele>229.66666666666669</ele><time>2026-04-07T10:53:41.002Z</time></trkpt><trkpt lat="45.64202289811886" lon="8.775753767772123"><ele>230.0</ele><time>2026-04-07T10:53:42Z</time></trkpt><trkpt lat="45.64206624231347" lon="8.775450967345304"><ele>230.33333333333334</ele><time>2026-04-07T10:53:43Z</time></trkpt><trkpt lat="45.642110085813115" lon="8.775145714433146"><ele>230.66666666666669</ele><time>2026-04-07T10:53:44Z</time></trkpt><trkpt lat="45.642154568777066" lon="8.774839419514173"><ele>231.0</ele><time>2026-04-07T10:53:45Z</time></trkpt><trkpt lat="45.642199342080524" lon="8.77453502673681"><ele>231.66666666666669</ele><time>2026-04-07T10:53:46Z</time></trkpt><trkpt lat="45.64223747733364" lon="8.774228701100865"><ele>232.33333333333334</ele><time>2026-04-07T10:53:47Z</time></trkpt><trkpt lat="45.642271798258236" lon="8.773923112029728"><ele>233.0</ele><time>2026-04-07T10:53:48Z</time></trkpt><trkpt lat="45.642311248209836" lon="8.773607411225287"><ele>233.33333333333334</ele><time>2026-04-07T10:53:49Z</time></trkpt><trkpt lat="45.64235473156596" lon="8.77329372743844"><ele>233.66666666666669</ele><time>2026-04-07T10:53:50Z</time></trkpt><trkpt lat="45.64240006889675" lon="8.772981026918258"><ele>234.0</ele><time>2026-04-07T10:53:51Z</time></trkpt><trkpt lat="45.64244916643158" lon="8.772670713705851"><ele>234.33333333333331</ele><time>2026-04-07T10:53:52Z</time></trkpt><trkpt lat="45.642496576979745" lon="8.772364767054931"><ele>234.66666666666666</ele><time>2026-04-07T10:53:53Z</time></trkpt><trkpt lat="45.64254292944712" lon="8.77205662989912"><ele>235.0</ele><time>2026-04-07T10:53:54Z</time></trkpt><trkpt lat="45.642590788834994" lon="8.771745103038803"><ele>236.0</ele><time>2026-04-07T10:53:55.013Z</time></trkpt><trkpt lat="45.642638279183615" lon="8.771437411285417"><ele>237.0</ele><time>2026-04-07T10:53:56.015Z</time></trkpt><trkpt lat="45.6426863778434" lon="8.771130467215386"><ele>238.0</ele><time>2026-04-07T10:53:57.014Z</time></trkpt><trkpt lat="45.642733079494796" lon="8.770821846412812"><ele>238.0</ele><time>2026-04-07T10:53:58.014Z</time></trkpt><trkpt lat="45.642782042422574" lon="8.770512452646512"><ele>238.0</ele><time>2026-04-07T10:53:59.018Z</time></trkpt><trkpt lat="45.64283094058189" lon="8.770207386051606"><ele>238.0</ele><time>2026-04-07T10:54:00.016Z</time></trkpt><trkpt lat="45.64287989154242" lon="8.769902184674166"><ele>237.0</ele><time>2026-04-07T10:54:01.014Z</time></trkpt><trkpt lat="45.64323265575398" lon="8.767738603063643"><ele>237.5</ele><time>2026-04-07T10:54:09Z</time></trkpt><trkpt lat="45.643271190343036" lon="8.767443531555479"><ele>238.0</ele><time>2026-04-07T10:54:10Z</time></trkpt><trkpt lat="45.643302789103465" lon="8.76683037139857"><ele>238.0</ele><time>2026-04-07T10:54:11Z</time></trkpt><trkpt lat="45.643353175309535" lon="8.766504364451436"><ele>238.0</ele><time>2026-04-07T10:54:12Z</time></trkpt><trkpt lat="45.64339783816381" lon="8.766191199818422"><ele>237.66666666666666</ele><time>2026-04-07T10:54:13Z</time></trkpt><trkpt lat="45.64344811545119" lon="8.765874871309476"><ele>237.33333333333331</ele><time>2026-04-07T10:54:14Z</time></trkpt><trkpt lat="45.64349670437888" lon="8.76556854318507"><ele>237.0</ele><time>2026-04-07T10:54:15Z</time></trkpt><trkpt lat="45.64353488521309" lon="8.765261223961913"><ele>236.5</ele><time>2026-04-07T10:54:16Z</time></trkpt><trkpt lat="45.643576170329716" lon="8.764946331540067"><ele>236.0</ele><time>2026-04-07T10:54:17Z</time></trkpt><trkpt lat="45.643632812077556" lon="8.764631619845089"><ele>236.0</ele><time>2026-04-07T10:54:18Z</time></trkpt><trkpt lat="45.643685032167056" lon="8.764316992351837"><ele>236.0</ele><time>2026-04-07T10:54:19Z</time></trkpt><trkpt lat="45.64373946209237" lon="8.764000518439202"><ele>236.0</ele><time>2026-04-07T10:54:20Z</time></trkpt><trkpt lat="45.64378191994875" lon="8.763695702967652"><ele>236.0</ele><time>2026-04-07T10:54:21Z</time></trkpt><trkpt lat="45.64383179082595" lon="8.763380837533429"><ele>236.0</ele><time>2026-04-07T10:54:22Z</time></trkpt><trkpt lat="45.643880284391855" lon="8.763068689481752"><ele>235.33333333333334</ele><time>2026-04-07T10:54:23Z</time></trkpt><trkpt lat="45.64392889177301" lon="8.762756600773084"><ele>234.66666666666669</ele><time>2026-04-07T10:54:24Z</time></trkpt><trkpt lat="45.643980317940965" lon="8.76244672873447"><ele>234.0</ele><time>2026-04-07T10:54:25Z</time></trkpt><trkpt lat="45.64402862349387" lon="8.762144382023793"><ele>234.0</ele><time>2026-04-07T10:54:26Z</time></trkpt><trkpt lat="45.64407670678355" lon="8.761839978214445"><ele>234.0</ele><time>2026-04-07T10:54:27Z</time></trkpt><trkpt lat="45.64412123872769" lon="8.761535777841964"><ele>234.0</ele><time>2026-04-07T10:54:28Z</time></trkpt><trkpt lat="45.64416878622792" lon="8.761233803060705"><ele>235.33333333333331</ele><time>2026-04-07T10:54:29Z</time></trkpt><trkpt lat="45.64421508741742" lon="8.760929745054424"><ele>236.66666666666666</ele><time>2026-04-07T10:54:30Z</time></trkpt><trkpt lat="45.644261701468935" lon="8.760625420086367"><ele>238.0</ele><time>2026-04-07T10:54:31Z</time></trkpt><trkpt lat="45.644307408769876" lon="8.76031933483352"><ele>237.66666666666666</ele><time>2026-04-07T10:54:32Z</time></trkpt><trkpt lat="45.644354990065345" lon="8.760013004487568"><ele>237.33333333333331</ele><time>2026-04-07T10:54:33Z</time></trkpt><trkpt lat="45.64440287912285" lon="8.759712234928234"><ele>237.0</ele><time>2026-04-07T10:54:34Z</time></trkpt><trkpt lat="45.64445289454954" lon="8.759390627619105"><ele>237.0</ele><time>2026-04-07T10:54:35Z</time></trkpt><trkpt lat="45.64449888864874" lon="8.759087585226332"><ele>237.0</ele><time>2026-04-07T10:54:36Z</time></trkpt><trkpt lat="45.64454323171908" lon="8.758782456141747"><ele>237.0</ele><time>2026-04-07T10:54:37.001Z</time></trkpt><trkpt lat="45.64458443341799" lon="8.758473544876617"><ele>237.0</ele><time>2026-04-07T10:54:38.001Z</time></trkpt><trkpt lat="45.644634045214126" lon="8.758168409124364"><ele>237.0</ele><time>2026-04-07T10:54:39.001Z</time></trkpt><trkpt lat="45.64468562476494" lon="8.757861673812183"><ele>237.0</ele><time>2026-04-07T10:54:40.001Z</time></trkpt><trkpt lat="45.6447273976687" lon="8.75755542512492"><ele>238.33333333333331</ele><time>2026-04-07T10:54:41.001Z</time></trkpt><trkpt lat="45.644764754789826" lon="8.757249956908773"><ele>239.66666666666666</ele><time>2026-04-07T10:54:42.001Z</time></trkpt><trkpt lat="45.64481237890735" lon="8.756944650127686"><ele>241.0</ele><time>2026-04-07T10:54:43.001Z</time></trkpt><trkpt lat="45.64485993838154" lon="8.756641432456775"><ele>241.33333333333331</ele><time>2026-04-07T10:54:44.001Z</time></trkpt><trkpt lat="45.64490362996729" lon="8.756339671670094"><ele>241.66666666666669</ele><time>2026-04-07T10:54:45.001Z</time></trkpt><trkpt lat="45.644950660763676" lon="8.756035208049713"><ele>242.0</ele><time>2026-04-07T10:54:46.001Z</time></trkpt><trkpt lat="45.64499703626638" lon="8.755731770378679"><ele>242.66666666666669</ele><time>2026-04-07T10:54:47.001Z</time></trkpt><trkpt lat="45.64504391463366" lon="8.755428443150139"><ele>243.33333333333331</ele><time>2026-04-07T10:54:48.001Z</time></trkpt><trkpt lat="45.645091648175715" lon="8.755123256141449"><ele>244.0</ele><time>2026-04-07T10:54:49.001Z</time></trkpt><trkpt lat="45.645137207064955" lon="8.754820688364383"><ele>244.33333333333331</ele><time>2026-04-07T10:54:50.001Z</time></trkpt><trkpt lat="45.645178572103895" lon="8.754521865099646"><ele>244.66666666666669</ele><time>2026-04-07T10:54:51.001Z</time></trkpt><trkpt lat="45.64522364977911" lon="8.754212755557042"><ele>245.0</ele><time>2026-04-07T10:54:52.001Z</time></trkpt><trkpt lat="45.645271025270574" lon="8.753906055300162"><ele>245.66666666666669</ele><time>2026-04-07T10:54:53.001Z</time></trkpt><trkpt lat="45.64531596921615" lon="8.75360018796209"><ele>246.33333333333331</ele><time>2026-04-07T10:54:54.001Z</time></trkpt><trkpt lat="45.645359283921586" lon="8.753293895650517"><ele>247.0</ele><time>2026-04-07T10:54:55.001Z</time></trkpt><trkpt lat="45.645402020356215" lon="8.752987423348088"><ele>247.0</ele><time>2026-04-07T10:54:56.001Z</time></trkpt><trkpt lat="45.645448327151115" lon="8.752677847992121"><ele>247.0</ele><time>2026-04-07T10:54:57.001Z</time></trkpt><trkpt lat="45.64548966938278" lon="8.752375276988023"><ele>247.0</ele><time>2026-04-07T10:54:58.001Z</time></trkpt><trkpt lat="45.645537579779074" lon="8.75207137033269"><ele>247.0</ele><time>2026-04-07T10:54:59.001Z</time></trkpt><trkpt lat="45.645584014532474" lon="8.751770706967081"><ele>247.0</ele><time>2026-04-07T10:55:00.001Z</time></trkpt><trkpt lat="45.645633050856716" lon="8.75146362700755"><ele>247.0</ele><time>2026-04-07T10:55:01.001Z</time></trkpt><trkpt lat="45.64568384431503" lon="8.751165210601181"><ele>247.0</ele><time>2026-04-07T10:55:02.001Z</time></trkpt><trkpt lat="45.64574150338908" lon="8.750867887615103"><ele>247.0</ele><time>2026-04-07T10:55:03.001Z</time></trkpt><trkpt lat="45.645804650031415" lon="8.750582264665594"><ele>247.0</ele><time>2026-04-07T10:55:04.001Z</time></trkpt><trkpt lat="45.64588382407077" lon="8.750299314495038"><ele>246.66666666666666</ele><time>2026-04-07T10:55:05.001Z</time></trkpt><trkpt lat="45.645971208091325" lon="8.75001440400035"><ele>246.33333333333331</ele><time>2026-04-07T10:55:06.001Z</time></trkpt><trkpt lat="45.64606532700846" lon="8.749737601198426"><ele>246.0</ele><time>2026-04-07T10:55:07.001Z</time></trkpt><trkpt lat="45.64616696439884" lon="8.749466846422761"><ele>247.66666666666669</ele><time>2026-04-07T10:55:08.001Z</time></trkpt><trkpt lat="45.64627914101851" lon="8.749207294484965"><ele>249.33333333333334</ele><time>2026-04-07T10:55:09.001Z</time></trkpt><trkpt lat="45.64639762800654" lon="8.748956329529815"><ele>251.0</ele><time>2026-04-07T10:55:10.001Z</time></trkpt><trkpt lat="45.646534927418635" lon="8.748711728904707"><ele>251.33333333333334</ele><time>2026-04-07T10:55:11.001Z</time></trkpt><trkpt lat="45.64667904309885" lon="8.748474147693178"><ele>251.66666666666669</ele><time>2026-04-07T10:55:12.001Z</time></trkpt><trkpt lat="45.64683497823567" lon="8.74825120173196"><ele>252.0</ele><time>2026-04-07T10:55:13.001Z</time></trkpt><trkpt lat="45.646996624051276" lon="8.748035581288342"><ele>252.33333333333331</ele><time>2026-04-07T10:55:14.001Z</time></trkpt><trkpt lat="45.64716522699353" lon="8.747830759421038"><ele>252.66666666666666</ele><time>2026-04-07T10:55:15.001Z</time></trkpt><trkpt lat="45.64733565392716" lon="8.747636054671638"><ele>253.0</ele><time>2026-04-07T10:55:16.001Z</time></trkpt><trkpt lat="45.64751247843466" lon="8.747451561019016"><ele>253.0</ele><time>2026-04-07T10:55:17.001Z</time></trkpt><trkpt lat="45.647691822391074" lon="8.74728210846973"><ele>253.0</ele><time>2026-04-07T10:55:18.001Z</time></trkpt><trkpt lat="45.647874025849895" lon="8.747121552203012"><ele>253.0</ele><time>2026-04-07T10:55:19.001Z</time></trkpt><trkpt lat="45.64805635033236" lon="8.746964628008692"><ele>252.33333333333331</ele><time>2026-04-07T10:55:20.001Z</time></trkpt><trkpt lat="45.64824256502204" lon="8.746804998091458"><ele>251.66666666666669</ele><time>2026-04-07T10:55:21.001Z</time></trkpt><trkpt lat="45.64842326867378" lon="8.746645673984089"><ele>251.0</ele><time>2026-04-07T10:55:22.001Z</time></trkpt><trkpt lat="45.64860682962803" lon="8.746480571857468"><ele>251.33333333333334</ele><time>2026-04-07T10:55:23.001Z</time></trkpt><trkpt lat="45.64878917402687" lon="8.746318777978756"><ele>251.66666666666669</ele><time>2026-04-07T10:55:24.001Z</time></trkpt><trkpt lat="45.648972916764464" lon="8.746157191633355"><ele>252.0</ele><time>2026-04-07T10:55:25.001Z</time></trkpt><trkpt lat="45.6491562873793" lon="8.745995838827746"><ele>251.33333333333331</ele><time>2026-04-07T10:55:26.001Z</time></trkpt><trkpt lat="45.64934323306811" lon="8.74583268042074"><ele>250.66666666666666</ele><time>2026-04-07T10:55:27.001Z</time></trkpt><trkpt lat="45.649529758248065" lon="8.745670225109874"><ele>250.0</ele><time>2026-04-07T10:55:28.001Z</time></trkpt><trkpt lat="45.64971069707605" lon="8.745505241124055"><ele>250.0</ele><time>2026-04-07T10:55:29.001Z</time></trkpt><trkpt lat="45.649888911548814" lon="8.74533804225465"><ele>250.0</ele><time>2026-04-07T10:55:30.001Z</time></trkpt><trkpt lat="45.650074557663885" lon="8.74517569124226"><ele>250.0</ele><time>2026-04-07T10:55:31.001Z</time></trkpt><trkpt lat="45.65025824327045" lon="8.745007741763368"><ele>246.33333333333331</ele><time>2026-04-07T10:55:32.001Z</time></trkpt><trkpt lat="45.650447222241844" lon="8.744848702351572"><ele>242.66666666666669</ele><time>2026-04-07T10:55:33.001Z</time></trkpt><trkpt lat="45.650631498845385" lon="8.74468445480483"><ele>239.0</ele><time>2026-04-07T10:55:34.001Z</time></trkpt><trkpt lat="45.65081961850753" lon="8.744516555340523"><ele>238.0</ele><time>2026-04-07T10:55:35.001Z</time></trkpt><trkpt lat="45.65100524712511" lon="8.744348267564668"><ele>237.0</ele><time>2026-04-07T10:55:36.001Z</time></trkpt><trkpt lat="45.651193585487796" lon="8.74417926188646"><ele>236.0</ele><time>2026-04-07T10:55:37.001Z</time></trkpt><trkpt lat="45.65137287087049" lon="8.743994727452577"><ele>236.0</ele><time>2026-04-07T10:55:38.001Z</time></trkpt><trkpt lat="45.651547685060265" lon="8.743809418517262"><ele>236.0</ele><time>2026-04-07T10:55:39.001Z</time></trkpt><trkpt lat="45.651720038498915" lon="8.743618726539674"><ele>236.0</ele><time>2026-04-07T10:55:40.001Z</time></trkpt><trkpt lat="45.651890153130346" lon="8.743423413315217"><ele>235.0</ele><time>2026-04-07T10:55:41.001Z</time></trkpt><trkpt lat="45.65205282312094" lon="8.743224374774277"><ele>234.0</ele><time>2026-04-07T10:55:42.001Z</time></trkpt><trkpt lat="45.65221333803086" lon="8.743017744572287"><ele>233.0</ele><time>2026-04-07T10:55:43.001Z</time></trkpt><trkpt lat="45.65237147729699" lon="8.742807092183504"><ele>233.0</ele><time>2026-04-07T10:55:44.001Z</time></trkpt><trkpt lat="45.65251935814471" lon="8.742587008616637"><ele>233.0</ele><time>2026-04-07T10:55:45.001Z</time></trkpt><trkpt lat="45.65266760383963" lon="8.742365711191342"><ele>233.0</ele><time>2026-04-07T10:55:46.001Z</time></trkpt><trkpt lat="45.652809797198714" lon="8.742132403531686"><ele>232.66666666666669</ele><time>2026-04-07T10:55:47.001Z</time></trkpt><trkpt lat="45.652946953237546" lon="8.741910324715109"><ele>232.33333333333331</ele><time>2026-04-07T10:55:48Z</time></trkpt><trkpt lat="45.65307502204338" lon="8.741696310144336"><ele>232.0</ele><time>2026-04-07T10:55:49Z</time></trkpt><trkpt lat="45.653200233197396" lon="8.741489388433688"><ele>233.0</ele><time>2026-04-07T10:55:50Z</time></trkpt><trkpt lat="45.65332419369753" lon="8.741278733546332"><ele>234.0</ele><time>2026-04-07T10:55:51Z</time></trkpt><trkpt lat="45.653448310745084" lon="8.741069247034211"><ele>235.0</ele><time>2026-04-07T10:55:52Z</time></trkpt><trkpt lat="45.65357048455094" lon="8.740842571470077"><ele>235.66666666666666</ele><time>2026-04-07T10:55:53Z</time></trkpt><trkpt lat="45.65369320375626" lon="8.74061581758008"><ele>236.33333333333331</ele><time>2026-04-07T10:55:54Z</time></trkpt><trkpt lat="45.653820985284476" lon="8.740391878402443"><ele>237.0</ele><time>2026-04-07T10:55:55Z</time></trkpt><trkpt lat="45.65395159088268" lon="8.740171924300778"><ele>237.0</ele><time>2026-04-07T10:55:56Z</time></trkpt><trkpt lat="45.65408088874218" lon="8.739953513751443"><ele>237.0</ele><time>2026-04-07T10:55:57Z</time></trkpt><trkpt lat="45.65421175473662" lon="8.739729640918313"><ele>237.0</ele><time>2026-04-07T10:55:58Z</time></trkpt><trkpt lat="45.654340996917966" lon="8.739504717132723"><ele>237.33333333333331</ele><time>2026-04-07T10:55:59Z</time></trkpt><trkpt lat="45.65446000982049" lon="8.739272400781081"><ele>237.66666666666666</ele><time>2026-04-07T10:56:00Z</time></trkpt><trkpt lat="45.65457159882566" lon="8.739026764494154"><ele>238.0</ele><time>2026-04-07T10:56:01Z</time></trkpt><trkpt lat="45.65467449572479" lon="8.738776394941393"><ele>238.0</ele><time>2026-04-07T10:56:02Z</time></trkpt><trkpt lat="45.65477630751941" lon="8.738520690702957"><ele>238.0</ele><time>2026-04-07T10:56:03Z</time></trkpt><trkpt lat="45.65486789244506" lon="8.738254092567447"><ele>238.0</ele><time>2026-04-07T10:56:04Z</time></trkpt><trkpt lat="45.65495405339681" lon="8.7379880112634"><ele>237.66666666666666</ele><time>2026-04-07T10:56:05Z</time></trkpt><trkpt lat="45.655033213969126" lon="8.737717516835106"><ele>237.33333333333331</ele><time>2026-04-07T10:56:06Z</time></trkpt><trkpt lat="45.65510487456676" lon="8.7374411623707"><ele>237.0</ele><time>2026-04-07T10:56:07Z</time></trkpt><trkpt lat="45.65516711506029" lon="8.737158196406664"><ele>236.33333333333331</ele><time>2026-04-07T10:56:08Z</time></trkpt><trkpt lat="45.65521872020029" lon="8.73687293411021"><ele>235.66666666666666</ele><time>2026-04-07T10:56:09Z</time></trkpt><trkpt lat="45.65525934753441" lon="8.736584657720574"><ele>235.0</ele><time>2026-04-07T10:56:10Z</time></trkpt><trkpt lat="45.655290938709335" lon="8.736293034174428"><ele>237.0</ele><time>2026-04-07T10:56:11Z</time></trkpt><trkpt lat="45.65531385778823" lon="8.735996908332291"><ele>239.0</ele><time>2026-04-07T10:56:12Z</time></trkpt><trkpt lat="45.655326073651175" lon="8.735700307367427"><ele>241.0</ele><time>2026-04-07T10:56:13Z</time></trkpt><trkpt lat="45.655328972956" lon="8.735405437479173"><ele>241.0</ele><time>2026-04-07T10:56:14Z</time></trkpt><trkpt lat="45.655322353090845" lon="8.735110340615035"><ele>241.0</ele><time>2026-04-07T10:56:15Z</time></trkpt><trkpt lat="45.65530644981592" lon="8.734818078667866"><ele>241.0</ele><time>2026-04-07T10:56:16Z</time></trkpt><trkpt lat="45.65528279682325" lon="8.73452607022353"><ele>239.33333333333331</ele><time>2026-04-07T10:56:17Z</time></trkpt><trkpt lat="45.65524949013563" lon="8.73423640310341"><ele>237.66666666666669</ele><time>2026-04-07T10:56:18Z</time></trkpt><trkpt lat="45.65520745521386" lon="8.733949090937337"><ele>236.0</ele><time>2026-04-07T10:56:19Z</time></trkpt><trkpt lat="45.65515664481071" lon="8.733665651710108"><ele>236.66666666666669</ele><time>2026-04-07T10:56:20Z</time></trkpt><trkpt lat="45.65509936697529" lon="8.733385298772768"><ele>237.33333333333331</ele><time>2026-04-07T10:56:21Z</time></trkpt><trkpt lat="45.6550376250834" lon="8.733107849348746"><ele>238.0</ele><time>2026-04-07T10:56:22Z</time></trkpt><trkpt lat="45.65496937318836" lon="8.732831820086943"><ele>238.33333333333331</ele><time>2026-04-07T10:56:23Z</time></trkpt><trkpt lat="45.654908650471484" lon="8.732554459235518"><ele>238.66666666666669</ele><time>2026-04-07T10:56:24Z</time></trkpt><trkpt lat="45.654845592014816" lon="8.732275985890201"><ele>239.0</ele><time>2026-04-07T10:56:25Z</time></trkpt><trkpt lat="45.654787889027574" lon="8.731993853291346"><ele>239.66666666666669</ele><time>2026-04-07T10:56:26Z</time></trkpt><trkpt lat="45.65472579193026" lon="8.731714811760781"><ele>240.33333333333331</ele><time>2026-04-07T10:56:27Z</time></trkpt><trkpt lat="45.65466653763117" lon="8.73143566207448"><ele>241.0</ele><time>2026-04-07T10:56:28Z</time></trkpt><trkpt lat="45.654604574054005" lon="8.731155505371227"><ele>241.66666666666666</ele><time>2026-04-07T10:56:29Z</time></trkpt><trkpt lat="45.65453991310377" lon="8.730874494165484"><ele>242.33333333333331</ele><time>2026-04-07T10:56:30Z</time></trkpt><trkpt lat="45.65447528102197" lon="8.730594274296838"><ele>243.0</ele><time>2026-04-07T10:56:31Z</time></trkpt><trkpt lat="45.65441031503633" lon="8.730310896912094"><ele>241.33333333333331</ele><time>2026-04-07T10:56:32Z</time></trkpt><trkpt lat="45.65434661222965" lon="8.73002099969879"><ele>239.66666666666666</ele><time>2026-04-07T10:56:33Z</time></trkpt><trkpt lat="45.654284302204864" lon="8.72972976031893"><ele>238.0</ele><time>2026-04-07T10:56:34Z</time></trkpt><trkpt lat="45.65422116837428" lon="8.729441430316934"><ele>238.0</ele><time>2026-04-07T10:56:35Z</time></trkpt><trkpt lat="45.65415717886891" lon="8.729149461039187"><ele>238.0</ele><time>2026-04-07T10:56:36Z</time></trkpt><trkpt lat="45.65409380259256" lon="8.728860469393737"><ele>238.0</ele><time>2026-04-07T10:56:37Z</time></trkpt><trkpt lat="45.65402956554239" lon="8.728569860289214"><ele>237.33333333333331</ele><time>2026-04-07T10:56:38.001Z</time></trkpt><trkpt lat="45.65396332941014" lon="8.728282196052103"><ele>236.66666666666669</ele><time>2026-04-07T10:56:39.001Z</time></trkpt><trkpt lat="45.65389855174587" lon="8.727990196121457"><ele>236.0</ele><time>2026-04-07T10:56:40.001Z</time></trkpt><trkpt lat="45.65382934080065" lon="8.727701893734238"><ele>235.0</ele><time>2026-04-07T10:56:41.001Z</time></trkpt><trkpt lat="45.65376462434691" lon="8.727409036208346"><ele>234.0</ele><time>2026-04-07T10:56:42.001Z</time></trkpt><trkpt lat="45.65369916538" lon="8.727117067015389"><ele>233.0</ele><time>2026-04-07T10:56:43.001Z</time></trkpt><trkpt lat="45.65363768159329" lon="8.726821858385037"><ele>234.0</ele><time>2026-04-07T10:56:44.001Z</time></trkpt><trkpt lat="45.653575828228384" lon="8.726526405399175"><ele>235.0</ele><time>2026-04-07T10:56:45.001Z</time></trkpt><trkpt lat="45.65351058891838" lon="8.726236319656676"><ele>236.0</ele><time>2026-04-07T10:56:46.001Z</time></trkpt><trkpt lat="45.65344459657437" lon="8.725945964227414"><ele>236.0</ele><time>2026-04-07T10:56:47.001Z</time></trkpt><trkpt lat="45.65337751047233" lon="8.72565641356981"><ele>236.0</ele><time>2026-04-07T10:56:48.001Z</time></trkpt><trkpt lat="45.65331569268424" lon="8.725369826818653"><ele>236.0</ele><time>2026-04-07T10:56:49.001Z</time></trkpt><trkpt lat="45.65324822514443" lon="8.725081101042457"><ele>236.0</ele><time>2026-04-07T10:56:50.001Z</time></trkpt><trkpt lat="45.6531825813123" lon="8.724795623613813"><ele>236.0</ele><time>2026-04-07T10:56:51.001Z</time></trkpt><trkpt lat="45.65311537158814" lon="8.72450649628603"><ele>236.0</ele><time>2026-04-07T10:56:52.001Z</time></trkpt><trkpt lat="45.653042368450045" lon="8.724226032998299"><ele>236.66666666666669</ele><time>2026-04-07T10:56:53.001Z</time></trkpt><trkpt lat="45.65295602783736" lon="8.723956021525197"><ele>237.33333333333331</ele><time>2026-04-07T10:56:54.001Z</time></trkpt><trkpt lat="45.6528429576545" lon="8.7237038855863"><ele>238.0</ele><time>2026-04-07T10:56:55.001Z</time></trkpt><trkpt lat="45.65271489336634" lon="8.723470087484097"><ele>236.66666666666666</ele><time>2026-04-07T10:56:56.001Z</time></trkpt><trkpt lat="45.652571581326136" lon="8.723250820642576"><ele>235.33333333333331</ele><time>2026-04-07T10:56:57.001Z</time></trkpt><trkpt lat="45.6524127783924" lon="8.723053045601688"><ele>234.0</ele><time>2026-04-07T10:56:58.001Z</time></trkpt><trkpt lat="45.65223968602433" lon="8.722873287266651"><ele>234.66666666666669</ele><time>2026-04-07T10:56:59.001Z</time></trkpt><trkpt lat="45.65206278204876" lon="8.722711780258292"><ele>235.33333333333334</ele><time>2026-04-07T10:57:00.001Z</time></trkpt><trkpt lat="45.65187895197275" lon="8.72254622542605"><ele>236.0</ele><time>2026-04-07T10:57:01.001Z</time></trkpt><trkpt lat="45.65170472264399" lon="8.722379777852307"><ele>236.66666666666669</ele><time>2026-04-07T10:57:02.001Z</time></trkpt><trkpt lat="45.651530850266234" lon="8.722214640016034"><ele>237.33333333333331</ele><time>2026-04-07T10:57:03.001Z</time></trkpt><trkpt lat="45.65137720297478" lon="8.722019373801626"><ele>238.0</ele><time>2026-04-07T10:57:04.001Z</time></trkpt><trkpt lat="45.651242788380664" lon="8.721795082141893"><ele>238.0</ele><time>2026-04-07T10:57:05.001Z</time></trkpt><trkpt lat="45.651131840755305" lon="8.721546601574783"><ele>238.0</ele><time>2026-04-07T10:57:06.001Z</time></trkpt><trkpt lat="45.651040821614004" lon="8.7212659965223"><ele>238.0</ele><time>2026-04-07T10:57:07.001Z</time></trkpt><trkpt lat="45.65097057401346" lon="8.720976457581505"><ele>237.33333333333331</ele><time>2026-04-07T10:57:08.001Z</time></trkpt><trkpt lat="45.650909570744275" lon="8.720680405181572"><ele>236.66666666666669</ele><time>2026-04-07T10:57:09.001Z</time></trkpt><trkpt lat="45.65084007102605" lon="8.720385153009655"><ele>236.0</ele><time>2026-04-07T10:57:10.001Z</time></trkpt><trkpt lat="45.65076355003279" lon="8.720094010416545"><ele>235.66666666666669</ele><time>2026-04-07T10:57:11.001Z</time></trkpt><trkpt lat="45.65068095882461" lon="8.719798494160688"><ele>235.33333333333331</ele><time>2026-04-07T10:57:12.001Z</time></trkpt><trkpt lat="45.65059830764323" lon="8.719498321372233"><ele>235.0</ele><time>2026-04-07T10:57:13.001Z</time></trkpt><trkpt lat="45.650523334447" lon="8.719194955897569"><ele>234.0</ele><time>2026-04-07T10:57:14.001Z</time></trkpt><trkpt lat="45.65045450797735" lon="8.71889725972116"><ele>233.0</ele><time>2026-04-07T10:57:15.001Z</time></trkpt><trkpt lat="45.650387960186606" lon="8.71859912712672"><ele>232.0</ele><time>2026-04-07T10:57:16.001Z</time></trkpt><trkpt lat="45.65032290620679" lon="8.718299252315262"><ele>232.33333333333331</ele><time>2026-04-07T10:57:17.001Z</time></trkpt><trkpt lat="45.65025706534169" lon="8.718001632356044"><ele>232.66666666666669</ele><time>2026-04-07T10:57:18.001Z</time></trkpt><trkpt lat="45.65019356607297" lon="8.717704827861578"><ele>233.0</ele><time>2026-04-07T10:57:19.001Z</time></trkpt><trkpt lat="45.650129719222015" lon="8.71740730509533"><ele>233.0</ele><time>2026-04-07T10:57:20.001Z</time></trkpt><trkpt lat="45.650068064064705" lon="8.717108517176033"><ele>233.0</ele><time>2026-04-07T10:57:21.001Z</time></trkpt><trkpt lat="45.65000672207252" lon="8.716810060324137"><ele>233.0</ele><time>2026-04-07T10:57:22.001Z</time></trkpt><trkpt lat="45.649946525746934" lon="8.716508789690561"><ele>233.66666666666669</ele><time>2026-04-07T10:57:23.001Z</time></trkpt><trkpt lat="45.649882547716146" lon="8.716208356894866"><ele>234.33333333333331</ele><time>2026-04-07T10:57:24.001Z</time></trkpt><trkpt lat="45.649819426366065" lon="8.715910509761597"><ele>235.0</ele><time>2026-04-07T10:57:25.001Z</time></trkpt><trkpt lat="45.649761181639754" lon="8.715610632963086"><ele>235.0</ele><time>2026-04-07T10:57:26.001Z</time></trkpt><trkpt lat="45.64970179448688" lon="8.715310041984038"><ele>235.0</ele><time>2026-04-07T10:57:27.001Z</time></trkpt><trkpt lat="45.64963986708512" lon="8.715014416752751"><ele>235.0</ele><time>2026-04-07T10:57:28.001Z</time></trkpt><trkpt lat="45.64957473296109" lon="8.714721093795037"><ele>235.33333333333331</ele><time>2026-04-07T10:57:29.001Z</time></trkpt><trkpt lat="45.64951314796502" lon="8.714423683198026"><ele>235.66666666666669</ele><time>2026-04-07T10:57:30.001Z</time></trkpt><trkpt lat="45.64945345464875" lon="8.714123132510537"><ele>236.0</ele><time>2026-04-07T10:57:31.001Z</time></trkpt><trkpt lat="45.64939439452928" lon="8.713822715615375"><ele>237.0</ele><time>2026-04-07T10:57:32.001Z</time></trkpt><trkpt lat="45.64933568529406" lon="8.713524076946198"><ele>238.0</ele><time>2026-04-07T10:57:33.001Z</time></trkpt><trkpt lat="45.649277319054754" lon="8.713220455414927"><ele>239.0</ele><time>2026-04-07T10:57:34.001Z</time></trkpt><trkpt lat="45.64922134356317" lon="8.712917823506872"><ele>239.0</ele><time>2026-04-07T10:57:35.001Z</time></trkpt><trkpt lat="45.6491757291358" lon="8.712603715254481"><ele>239.0</ele><time>2026-04-07T10:57:36.001Z</time></trkpt><trkpt lat="45.64912425370586" lon="8.712293390979069"><ele>239.0</ele><time>2026-04-07T10:57:37.001Z</time></trkpt><trkpt lat="45.649061806399914" lon="8.71199356991657"><ele>240.0</ele><time>2026-04-07T10:57:38.001Z</time></trkpt><trkpt lat="45.6489983625927" lon="8.711699002868665"><ele>241.0</ele><time>2026-04-07T10:57:39.001Z</time></trkpt><trkpt lat="45.64894005364987" lon="8.711410167544583"><ele>242.0</ele><time>2026-04-07T10:57:40.001Z</time></trkpt><trkpt lat="45.64888307917974" lon="8.711128514207845"><ele>243.66666666666669</ele><time>2026-04-07T10:57:41.001Z</time></trkpt><trkpt lat="45.64882075121011" lon="8.710848238665049"><ele>245.33333333333331</ele><time>2026-04-07T10:57:42.001Z</time></trkpt><trkpt lat="45.64875994266422" lon="8.710567313186973"><ele>247.0</ele><time>2026-04-07T10:57:43.001Z</time></trkpt><trkpt lat="45.64869676378489" lon="8.710285180497488"><ele>244.33333333333331</ele><time>2026-04-07T10:57:44.001Z</time></trkpt><trkpt lat="45.64861976423197" lon="8.710009173424496"><ele>241.66666666666669</ele><time>2026-04-07T10:57:45.001Z</time></trkpt><trkpt lat="45.648533583218395" lon="8.709736191091258"><ele>239.0</ele><time>2026-04-07T10:57:46.001Z</time></trkpt><trkpt lat="45.648443220568346" lon="8.709472054100718"><ele>239.33333333333334</ele><time>2026-04-07T10:57:47.001Z</time></trkpt><trkpt lat="45.64834665972434" lon="8.709205633116163"><ele>239.66666666666669</ele><time>2026-04-07T10:57:48.001Z</time></trkpt><trkpt lat="45.64824695635355" lon="8.708953387203982"><ele>240.0</ele><time>2026-04-07T10:57:49.001Z</time></trkpt><trkpt lat="45.64815045558618" lon="8.70871906018364"><ele>241.33333333333331</ele><time>2026-04-07T10:57:50.001Z</time></trkpt><trkpt lat="45.648051947184946" lon="8.708490217016207"><ele>242.66666666666666</ele><time>2026-04-07T10:57:51.001Z</time></trkpt><trkpt lat="45.64794553209307" lon="8.708265495670299"><ele>244.0</ele><time>2026-04-07T10:57:52.001Z</time></trkpt><trkpt lat="45.64783491847007" lon="8.708047300196197"><ele>243.33333333333331</ele><time>2026-04-07T10:57:53.001Z</time></trkpt><trkpt lat="45.647721169915776" lon="8.707838174282147"><ele>242.66666666666669</ele><time>2026-04-07T10:57:54Z</time></trkpt><trkpt lat="45.647589434712685" lon="8.707619528537954"><ele>242.0</ele><time>2026-04-07T10:57:55Z</time></trkpt><trkpt lat="45.64745173244537" lon="8.707399847167006"><ele>241.0</ele><time>2026-04-07T10:57:56Z</time></trkpt><trkpt lat="45.647307513111016" lon="8.7071851077209"><ele>240.0</ele><time>2026-04-07T10:57:57Z</time></trkpt><trkpt lat="45.64716374598043" lon="8.706971971518392"><ele>239.0</ele><time>2026-04-07T10:57:58Z</time></trkpt><trkpt lat="45.64701616322784" lon="8.706769232671203"><ele>239.33333333333334</ele><time>2026-04-07T10:57:59Z</time></trkpt><trkpt lat="45.64686621168246" lon="8.706568380859766"><ele>239.66666666666669</ele><time>2026-04-07T10:58:00Z</time></trkpt><trkpt lat="45.64670935251676" lon="8.706381849191235"><ele>240.0</ele><time>2026-04-07T10:58:01Z</time></trkpt><trkpt lat="45.646552544773414" lon="8.706215798698272"><ele>240.0</ele><time>2026-04-07T10:58:02Z</time></trkpt><trkpt lat="45.64639269763385" lon="8.706050554788538"><ele>240.0</ele><time>2026-04-07T10:58:03Z</time></trkpt><trkpt lat="45.64622768620373" lon="8.705893224462368"><ele>240.0</ele><time>2026-04-07T10:58:04Z</time></trkpt><trkpt lat="45.64606179865591" lon="8.70574530271508"><ele>239.0</ele><time>2026-04-07T10:58:05Z</time></trkpt><trkpt lat="45.64588959373812" lon="8.70560304541668"><ele>238.0</ele><time>2026-04-07T10:58:06Z</time></trkpt><trkpt lat="45.64570650275607" lon="8.705468625082695"><ele>237.0</ele><time>2026-04-07T10:58:07Z</time></trkpt><trkpt lat="45.645515207806476" lon="8.705343063756384"><ele>236.66666666666669</ele><time>2026-04-07T10:58:08Z</time></trkpt><trkpt lat="45.64531221130452" lon="8.705221131224194"><ele>236.33333333333334</ele><time>2026-04-07T10:58:09Z</time></trkpt><trkpt lat="45.64510271709689" lon="8.705099778216725"><ele>236.0</ele><time>2026-04-07T10:58:10.016Z</time></trkpt><trkpt lat="45.64488982651997" lon="8.704983306435336"><ele>236.0</ele><time>2026-04-07T10:58:11.014Z</time></trkpt><trkpt lat="45.644658052915375" lon="8.704863951963143"><ele>236.0</ele><time>2026-04-07T10:58:12.017Z</time></trkpt><trkpt lat="45.64442655559239" lon="8.704747139586635"><ele>235.0</ele><time>2026-04-07T10:58:13Z</time></trkpt><trkpt lat="45.644178882737954" lon="8.704613178089168"><ele>234.0</ele><time>2026-04-07T10:58:14Z</time></trkpt><trkpt lat="45.64395775907521" lon="8.704485040311937"><ele>234.5</ele><time>2026-04-07T10:58:15Z</time></trkpt><trkpt lat="45.64373953776389" lon="8.704370989931514"><ele>235.0</ele><time>2026-04-07T10:58:16Z</time></trkpt><trkpt lat="45.64351917683685" lon="8.704275111984558"><ele>235.0</ele><time>2026-04-07T10:58:17Z</time></trkpt><trkpt lat="45.64330127179134" lon="8.704177723971139"><ele>235.0</ele><time>2026-04-07T10:58:18Z</time></trkpt><trkpt lat="45.64308023939214" lon="8.704086098614605"><ele>235.0</ele><time>2026-04-07T10:58:19Z</time></trkpt><trkpt lat="45.642854398521976" lon="8.704010405971106"><ele>235.0</ele><time>2026-04-07T10:58:20Z</time></trkpt><trkpt lat="45.642615056110344" lon="8.703933441905464"><ele>236.0</ele><time>2026-04-07T10:58:21Z</time></trkpt><trkpt lat="45.64237277174962" lon="8.703834612305604"><ele>237.0</ele><time>2026-04-07T10:58:22Z</time></trkpt><trkpt lat="45.64212228529383" lon="8.703733126677381"><ele>239.0</ele><time>2026-04-07T10:58:23Z</time></trkpt><trkpt lat="45.64186557955854" lon="8.703638677824502"><ele>241.0</ele><time>2026-04-07T10:58:24Z</time></trkpt><trkpt lat="45.64159968839333" lon="8.70354091974725"><ele>241.0</ele><time>2026-04-07T10:58:25Z</time></trkpt><trkpt lat="45.641321402684326" lon="8.703433499798978"><ele>241.0</ele><time>2026-04-07T10:58:26Z</time></trkpt><trkpt lat="45.64103431087715" lon="8.703319171751561"><ele>240.0</ele><time>2026-04-07T10:58:27Z</time></trkpt><trkpt lat="45.64075017871135" lon="8.703201410172952"><ele>239.0</ele><time>2026-04-07T10:58:28.016Z</time></trkpt><trkpt lat="45.64047344182709" lon="8.703100096462403"><ele>239.5</ele><time>2026-04-07T10:58:29.016Z</time></trkpt><trkpt lat="45.64020461602382" lon="8.703008112628467"><ele>240.0</ele><time>2026-04-07T10:58:30.014Z</time></trkpt><trkpt lat="45.6399475316735" lon="8.702915334941649"><ele>240.0</ele><time>2026-04-07T10:58:31.016Z</time></trkpt><trkpt lat="45.63969445937126" lon="8.702821570161914"><ele>240.0</ele><time>2026-04-07T10:58:32.016Z</time></trkpt><trkpt lat="45.63945259527468" lon="8.70273923758451"><ele>239.5</ele><time>2026-04-07T10:58:33.017Z</time></trkpt><trkpt lat="45.63921613222559" lon="8.702661079273016"><ele>239.0</ele><time>2026-04-07T10:58:34.016Z</time></trkpt><trkpt lat="45.638980955171405" lon="8.702580692551328"><ele>239.0</ele><time>2026-04-07T10:58:35.015Z</time></trkpt><trkpt lat="45.63874491849564" lon="8.702498095874324"><ele>239.0</ele><time>2026-04-07T10:58:36.015Z</time></trkpt><trkpt lat="45.63317663506198" lon="8.702181391426084"><ele>236.0</ele><time>2026-04-07T10:58:59.001Z</time></trkpt><trkpt lat="45.63296279510565" lon="8.702249838338252"><ele>233.0</ele><time>2026-04-07T10:59:00.001Z</time></trkpt><trkpt lat="45.632781784488365" lon="8.702328197818739"><ele>230.0</ele><time>2026-04-07T10:59:01.001Z</time></trkpt><trkpt lat="45.632584177594154" lon="8.702439811597507"><ele>230.0</ele><time>2026-04-07T10:59:02.001Z</time></trkpt><trkpt lat="45.63239649790365" lon="8.70256219190386"><ele>230.0</ele><time>2026-04-07T10:59:03.001Z</time></trkpt><trkpt lat="45.632206378402664" lon="8.702675821714251"><ele>230.0</ele><time>2026-04-07T10:59:04.001Z</time></trkpt><trkpt lat="45.63202389769136" lon="8.702790550537202"><ele>229.33333333333334</ele><time>2026-04-07T10:59:05.001Z</time></trkpt><trkpt lat="45.631834218136845" lon="8.702904541945484"><ele>228.66666666666669</ele><time>2026-04-07T10:59:06.001Z</time></trkpt><trkpt lat="45.631641845947584" lon="8.70300746706833"><ele>228.0</ele><time>2026-04-07T10:59:07.001Z</time></trkpt><trkpt lat="45.63145498816686" lon="8.703111965294136"><ele>228.0</ele><time>2026-04-07T10:59:08.001Z</time></trkpt><trkpt lat="45.63127221138627" lon="8.703213949587886"><ele>228.0</ele><time>2026-04-07T10:59:09.001Z</time></trkpt><trkpt lat="45.63109070041278" lon="8.703326971666957"><ele>228.0</ele><time>2026-04-07T10:59:10.001Z</time></trkpt><trkpt lat="45.63091254440557" lon="8.703432411878588"><ele>227.66666666666669</ele><time>2026-04-07T10:59:11.001Z</time></trkpt><trkpt lat="45.63073644266708" lon="8.70354395620262"><ele>227.33333333333334</ele><time>2026-04-07T10:59:12.001Z</time></trkpt><trkpt lat="45.6305610056828" lon="8.703647072780681"><ele>227.0</ele><time>2026-04-07T10:59:13.001Z</time></trkpt><trkpt lat="45.63038786934403" lon="8.703760064131416"><ele>227.33333333333334</ele><time>2026-04-07T10:59:14.001Z</time></trkpt><trkpt lat="45.63022324909079" lon="8.703864357714462"><ele>227.66666666666669</ele><time>2026-04-07T10:59:15.001Z</time></trkpt><trkpt lat="45.630058594033684" lon="8.70396224229005"><ele>228.0</ele><time>2026-04-07T10:59:16.001Z</time></trkpt><trkpt lat="45.6298916619995" lon="8.70405301665634"><ele>228.0</ele><time>2026-04-07T10:59:17.001Z</time></trkpt><trkpt lat="45.62972433721098" lon="8.704145134188316"><ele>228.0</ele><time>2026-04-07T10:59:18.001Z</time></trkpt><trkpt lat="45.62955591962487" lon="8.704227172956791"><ele>228.0</ele><time>2026-04-07T10:59:19.001Z</time></trkpt><trkpt lat="45.62938604887324" lon="8.704298004620318"><ele>228.0</ele><time>2026-04-07T10:59:20.001Z</time></trkpt><trkpt lat="45.629212159488915" lon="8.704359206863668"><ele>228.0</ele><time>2026-04-07T10:59:21.001Z</time></trkpt><trkpt lat="45.629040965341375" lon="8.70441514542939"><ele>228.0</ele><time>2026-04-07T10:59:22.001Z</time></trkpt><trkpt lat="45.62887545932603" lon="8.704476072502572"><ele>227.33333333333331</ele><time>2026-04-07T10:59:23.001Z</time></trkpt><trkpt lat="45.62871285013882" lon="8.704536540051928"><ele>226.66666666666666</ele><time>2026-04-07T10:59:24.001Z</time></trkpt><trkpt lat="45.628562065151215" lon="8.704588724645138"><ele>226.0</ele><time>2026-04-07T10:59:25.001Z</time></trkpt><trkpt lat="45.62841995375856" lon="8.7046452588503"><ele>225.75</ele><time>2026-04-07T10:59:26.001Z</time></trkpt><trkpt lat="45.62827882938447" lon="8.704694786150682"><ele>225.5</ele><time>2026-04-07T10:59:27.001Z</time></trkpt><trkpt lat="45.628137457" lon="8.704742971529898"><ele>225.25</ele><time>2026-04-07T10:59:28.001Z</time></trkpt><trkpt lat="45.628010733070845" lon="8.704786265902186"><ele>225.0</ele><time>2026-04-07T10:59:29.001Z</time></trkpt><trkpt lat="45.62788862339898" lon="8.704829952234068"><ele>225.4</ele><time>2026-04-07T10:59:30.001Z</time></trkpt><trkpt lat="45.62777013331893" lon="8.704855133027387"><ele>225.8</ele><time>2026-04-07T10:59:31.001Z</time></trkpt><trkpt lat="45.62764953932751" lon="8.704864559335336"><ele>226.2</ele><time>2026-04-07T10:59:32.001Z</time></trkpt><trkpt lat="45.62753975627649" lon="8.704863093272499"><ele>226.6</ele><time>2026-04-07T10:59:33.001Z</time></trkpt><trkpt lat="45.62745119866975" lon="8.704857594260845"><ele>227.0</ele><time>2026-04-07T10:59:34.001Z</time></trkpt><trkpt lat="45.627375060739" lon="8.704848999867805"><ele>227.0</ele><time>2026-04-07T10:59:35.001Z</time></trkpt><trkpt lat="45.62730409275438" lon="8.704842299899575"><ele>227.0</ele><time>2026-04-07T10:59:36.001Z</time></trkpt><trkpt lat="45.6272157893417" lon="8.70483419309226"><ele>227.0</ele><time>2026-04-07T10:59:37.001Z</time></trkpt><trkpt lat="45.62711722220903" lon="8.704824892693729"><ele>227.0</ele><time>2026-04-07T10:59:38.001Z</time></trkpt><trkpt lat="45.62700243723265" lon="8.704819092942337"><ele>227.0</ele><time>2026-04-07T10:59:39.001Z</time></trkpt><trkpt lat="45.62687597227529" lon="8.70481096617189"><ele>226.75</ele><time>2026-04-07T10:59:40.001Z</time></trkpt><trkpt lat="45.62675108157718" lon="8.70481065850399"><ele>226.5</ele><time>2026-04-07T10:59:41.001Z</time></trkpt><trkpt lat="45.62662825313156" lon="8.704815950441677"><ele>226.25</ele><time>2026-04-07T10:59:42.001Z</time></trkpt><trkpt lat="45.62651674200896" lon="8.704828537843346"><ele>226.0</ele><time>2026-04-07T10:59:43.001Z</time></trkpt><trkpt lat="45.62641330499541" lon="8.704849130976656"><ele>226.0</ele><time>2026-04-07T10:59:44.001Z</time></trkpt><trkpt lat="45.62631349946056" lon="8.704869702559996"><ele>226.00000000000003</ele><time>2026-04-07T10:59:45.001Z</time></trkpt><trkpt lat="45.62621188834847" lon="8.704908754096685"><ele>226.00000000000003</ele><time>2026-04-07T10:59:46.001Z</time></trkpt><trkpt lat="45.62610993052508" lon="8.704945879963415"><ele>226.0</ele><time>2026-04-07T10:59:47.001Z</time></trkpt><trkpt lat="45.62600097692416" lon="8.704976030652732"><ele>226.0</ele><time>2026-04-07T10:59:48.001Z</time></trkpt><trkpt lat="45.6258914439611" lon="8.705054375186625"><ele>226.0</ele><time>2026-04-07T10:59:49.001Z</time></trkpt><trkpt lat="45.6257806877447" lon="8.705115036988854"><ele>226.0</ele><time>2026-04-07T10:59:50.001Z</time></trkpt><trkpt lat="45.62566166563622" lon="8.70518758428562"><ele>226.0</ele><time>2026-04-07T10:59:51.001Z</time></trkpt><trkpt lat="45.62554696752807" lon="8.70528504544856"><ele>226.0</ele><time>2026-04-07T10:59:52.001Z</time></trkpt><trkpt lat="45.625393024676406" lon="8.70534532537415"><ele>225.0</ele><time>2026-04-07T10:59:53.001Z</time></trkpt><trkpt lat="45.62524434484326" lon="8.705456616946513"><ele>224.0</ele><time>2026-04-07T10:59:54.001Z</time></trkpt><trkpt lat="45.625091526948395" lon="8.705531167761006"><ele>223.0</ele><time>2026-04-07T10:59:55.001Z</time></trkpt><trkpt lat="45.62492797668337" lon="8.705567385439648"><ele>223.0</ele><time>2026-04-07T10:59:56.001Z</time></trkpt><trkpt lat="45.62476277974474" lon="8.705581623039807"><ele>223.0</ele><time>2026-04-07T10:59:57.001Z</time></trkpt><trkpt lat="45.62459442193927" lon="8.705610962649043"><ele>223.0</ele><time>2026-04-07T10:59:58.001Z</time></trkpt><trkpt lat="45.624425695920564" lon="8.705654612335286"><ele>222.33333333333331</ele><time>2026-04-07T10:59:59.001Z</time></trkpt><trkpt lat="45.62424566987373" lon="8.7056934551541"><ele>221.66666666666669</ele><time>2026-04-07T10:59:59.999Z</time></trkpt><trkpt lat="45.62406371012008" lon="8.705733334020175"><ele>221.0</ele><time>2026-04-07T11:00:00.999Z</time></trkpt><trkpt lat="45.62387283973362" lon="8.705774827685696"><ele>221.0</ele><time>2026-04-07T11:00:01.999Z</time></trkpt><trkpt lat="45.62368041142585" lon="8.705817557518362"><ele>221.0</ele><time>2026-04-07T11:00:02.999Z</time></trkpt><trkpt lat="45.623486801963786" lon="8.70585925622012"><ele>221.0</ele><time>2026-04-07T11:00:03.999Z</time></trkpt><trkpt lat="45.62329009764382" lon="8.705906428488394"><ele>221.0</ele><time>2026-04-07T11:00:04.999Z</time></trkpt><trkpt lat="45.62309542857952" lon="8.705954099735147"><ele>221.0</ele><time>2026-04-07T11:00:05.999Z</time></trkpt><trkpt lat="45.62290147285893" lon="8.706001747271316"><ele>221.0</ele><time>2026-04-07T11:00:06.999Z</time></trkpt><trkpt lat="45.622703544061075" lon="8.706050230980528"><ele>219.66666666666669</ele><time>2026-04-07T11:00:07.999Z</time></trkpt><trkpt lat="45.62250317479016" lon="8.706093909363377"><ele>218.33333333333331</ele><time>2026-04-07T11:00:08.999Z</time></trkpt><trkpt lat="45.622301639586915" lon="8.706142389552335"><ele>217.0</ele><time>2026-04-07T11:00:09.999Z</time></trkpt><trkpt lat="45.622101463623125" lon="8.706193581750448"><ele>216.66666666666666</ele><time>2026-04-07T11:00:10.999Z</time></trkpt><trkpt lat="45.62190027159507" lon="8.70625255108269"><ele>216.33333333333331</ele><time>2026-04-07T11:00:11.999Z</time></trkpt><trkpt lat="45.621700146816515" lon="8.706323246579922"><ele>216.0</ele><time>2026-04-07T11:00:12.999Z</time></trkpt><trkpt lat="45.62150165421965" lon="8.706402994561955"><ele>216.0</ele><time>2026-04-07T11:00:13.999Z</time></trkpt><trkpt lat="45.62130264152507" lon="8.706489318362202"><ele>216.0</ele><time>2026-04-07T11:00:14.999Z</time></trkpt><trkpt lat="45.62110713448165" lon="8.706583628395604"><ele>216.0</ele><time>2026-04-07T11:00:15.999Z</time></trkpt><trkpt lat="45.62091513113146" lon="8.7066804071675"><ele>216.66666666666669</ele><time>2026-04-07T11:00:16.999Z</time></trkpt><trkpt lat="45.62072530568129" lon="8.706771040128375"><ele>217.33333333333334</ele><time>2026-04-07T11:00:17.999Z</time></trkpt><trkpt lat="45.62053077800911" lon="8.706870667322814"><ele>218.0</ele><time>2026-04-07T11:00:18.999Z</time></trkpt><trkpt lat="45.62033759046973" lon="8.706975092159773"><ele>217.33333333333334</ele><time>2026-04-07T11:00:19.999Z</time></trkpt><trkpt lat="45.62014583535147" lon="8.707089103457985"><ele>216.66666666666669</ele><time>2026-04-07T11:00:21Z</time></trkpt><trkpt lat="45.61995314162886" lon="8.707194436781702"><ele>216.0</ele><time>2026-04-07T11:00:22Z</time></trkpt><trkpt lat="45.61976106724472" lon="8.707288177024887"><ele>216.0</ele><time>2026-04-07T11:00:23Z</time></trkpt><trkpt lat="45.61955914186987" lon="8.707386796724954"><ele>216.0</ele><time>2026-04-07T11:00:24Z</time></trkpt><trkpt lat="45.61935916314655" lon="8.70748543482466"><ele>216.0</ele><time>2026-04-07T11:00:25Z</time></trkpt><trkpt lat="45.619160991213136" lon="8.707582654071826"><ele>215.66666666666669</ele><time>2026-04-07T11:00:26Z</time></trkpt><trkpt lat="45.61896245114081" lon="8.707682114336848"><ele>215.33333333333334</ele><time>2026-04-07T11:00:27Z</time></trkpt><trkpt lat="45.618760118223605" lon="8.707779231856255"><ele>215.0</ele><time>2026-04-07T11:00:28Z</time></trkpt><trkpt lat="45.61855528208747" lon="8.707875238081781"><ele>215.0</ele><time>2026-04-07T11:00:29Z</time></trkpt><trkpt lat="45.61835366965636" lon="8.707963972105237"><ele>215.0</ele><time>2026-04-07T11:00:30Z</time></trkpt><trkpt lat="45.61814285794075" lon="8.708049549924157"><ele>215.0</ele><time>2026-04-07T11:00:31Z</time></trkpt><trkpt lat="45.61793649158859" lon="8.708113164003095"><ele>215.0</ele><time>2026-04-07T11:00:32Z</time></trkpt><trkpt lat="45.617729256508525" lon="8.708172905052699"><ele>215.0</ele><time>2026-04-07T11:00:33Z</time></trkpt><trkpt lat="45.61751908234247" lon="8.708231883780645"><ele>215.0</ele><time>2026-04-07T11:00:34Z</time></trkpt><trkpt lat="45.617311753009034" lon="8.708291079740462"><ele>215.0</ele><time>2026-04-07T11:00:35Z</time></trkpt><trkpt lat="45.6171018112571" lon="8.708346427049781"><ele>215.0</ele><time>2026-04-07T11:00:36Z</time></trkpt><trkpt lat="45.61689490027331" lon="8.708395124743046"><ele>215.0</ele><time>2026-04-07T11:00:37Z</time></trkpt><trkpt lat="45.616683881022176" lon="8.708443801085707"><ele>214.66666666666669</ele><time>2026-04-07T11:00:38Z</time></trkpt><trkpt lat="45.61647447028168" lon="8.708494882502889"><ele>214.33333333333331</ele><time>2026-04-07T11:00:39Z</time></trkpt><trkpt lat="45.61626635945158" lon="8.708543243520419"><ele>214.0</ele><time>2026-04-07T11:00:40Z</time></trkpt><trkpt lat="45.616061004735876" lon="8.708589956960937"><ele>214.0</ele><time>2026-04-07T11:00:41Z</time></trkpt><trkpt lat="45.61586224657519" lon="8.708635586304823"><ele>214.0</ele><time>2026-04-07T11:00:42Z</time></trkpt><trkpt lat="45.61567079934744" lon="8.708678622028698"><ele>214.0</ele><time>2026-04-07T11:00:43Z</time></trkpt><trkpt lat="45.61548651236221" lon="8.70871684380229"><ele>214.0</ele><time>2026-04-07T11:00:44Z</time></trkpt><trkpt lat="45.615309806217624" lon="8.708756717287532"><ele>214.0</ele><time>2026-04-07T11:00:45Z</time></trkpt><trkpt lat="45.61513230129419" lon="8.70879725732648"><ele>214.0</ele><time>2026-04-07T11:00:46Z</time></trkpt><trkpt lat="45.614949529099576" lon="8.708836747516724"><ele>214.0</ele><time>2026-04-07T11:00:47Z</time></trkpt><trkpt lat="45.61477402764617" lon="8.708876009483141"><ele>214.0</ele><time>2026-04-07T11:00:48Z</time></trkpt><trkpt lat="45.61460553157889" lon="8.708909650011913"><ele>214.0</ele><time>2026-04-07T11:00:49Z</time></trkpt><trkpt lat="45.61443880545425" lon="8.708943756782341"><ele>213.66666666666666</ele><time>2026-04-07T11:00:50Z</time></trkpt><trkpt lat="45.614268844050336" lon="8.708978697970302"><ele>213.33333333333331</ele><time>2026-04-07T11:00:51Z</time></trkpt><trkpt lat="45.61409873576789" lon="8.709019972092587"><ele>213.0</ele><time>2026-04-07T11:00:52Z</time></trkpt><trkpt lat="45.6139299213401" lon="8.70906574978589"><ele>213.0</ele><time>2026-04-07T11:00:53Z</time></trkpt><trkpt lat="45.61375780693077" lon="8.709108569138435"><ele>213.0</ele><time>2026-04-07T11:00:54.015Z</time></trkpt><trkpt lat="45.61359553459499" lon="8.70914775412408"><ele>213.0</ele><time>2026-04-07T11:00:55.014Z</time></trkpt><trkpt lat="45.61344512985294" lon="8.709178889333911"><ele>213.25</ele><time>2026-04-07T11:00:56.015Z</time></trkpt><trkpt lat="45.61329523902132" lon="8.70919590995497"><ele>213.5</ele><time>2026-04-07T11:00:57.015Z</time></trkpt><trkpt lat="45.61315016641241" lon="8.709193375179938"><ele>213.75</ele><time>2026-04-07T11:00:58Z</time></trkpt><trkpt lat="45.61300777682434" lon="8.70918838212953"><ele>214.0</ele><time>2026-04-07T11:00:59Z</time></trkpt><trkpt lat="45.612853923690025" lon="8.709183795805023"><ele>213.0</ele><time>2026-04-07T11:01:00Z</time></trkpt><trkpt lat="45.61270464481107" lon="8.709193996914506"><ele>212.0</ele><time>2026-04-07T11:01:01Z</time></trkpt><trkpt lat="45.61254619672797" lon="8.709200422900198"><ele>211.0</ele><time>2026-04-07T11:01:02Z</time></trkpt><trkpt lat="45.61239073969256" lon="8.70921641233284"><ele>211.0</ele><time>2026-04-07T11:01:03Z</time></trkpt><trkpt lat="45.61223723903799" lon="8.709240420998121"><ele>211.0</ele><time>2026-04-07T11:01:04Z</time></trkpt><trkpt lat="45.61208888175526" lon="8.709266483927"><ele>211.0</ele><time>2026-04-07T11:01:05Z</time></trkpt><trkpt lat="45.61194385999217" lon="8.709288733600856"><ele>211.5</ele><time>2026-04-07T11:01:06Z</time></trkpt><trkpt lat="45.61180257899223" lon="8.709308049071899"><ele>212.0</ele><time>2026-04-07T11:01:07Z</time></trkpt><trkpt lat="45.611664228852895" lon="8.709320379958918"><ele>212.5</ele><time>2026-04-07T11:01:08Z</time></trkpt><trkpt lat="45.6115254788074" lon="8.7093274803965"><ele>213.0</ele><time>2026-04-07T11:01:09.001Z</time></trkpt><trkpt lat="45.61139171999802" lon="8.709322729531944"><ele>213.0</ele><time>2026-04-07T11:01:10.001Z</time></trkpt><trkpt lat="45.61125660931772" lon="8.709308589442136"><ele>213.0</ele><time>2026-04-07T11:01:11.001Z</time></trkpt><trkpt lat="45.61112783213835" lon="8.709288498662003"><ele>213.0</ele><time>2026-04-07T11:01:12.001Z</time></trkpt><trkpt lat="45.61101287074115" lon="8.709272239701118"><ele>213.0</ele><time>2026-04-07T11:01:13.001Z</time></trkpt><trkpt lat="45.61091050210746" lon="8.7092325645753"><ele>212.83333333333334</ele><time>2026-04-07T11:01:14.001Z</time></trkpt><trkpt lat="45.610843065712594" lon="8.709148303199532"><ele>212.66666666666669</ele><time>2026-04-07T11:01:15.001Z</time></trkpt><trkpt lat="45.61080529966489" lon="8.709044005516342"><ele>212.5</ele><time>2026-04-07T11:01:16.001Z</time></trkpt><trkpt lat="45.6107878062453" lon="8.708952884743246"><ele>212.33333333333334</ele><time>2026-04-07T11:01:17.001Z</time></trkpt><trkpt lat="45.61073760551984" lon="8.708815992621844"><ele>212.16666666666669</ele><time>2026-04-07T11:01:19.001Z</time></trkpt><trkpt lat="45.610643388293305" lon="8.70878864099692"><ele>212.0</ele><time>2026-04-07T11:01:20.001Z</time></trkpt><trkpt lat="45.61053254462573" lon="8.708813438518087"><ele>212.0</ele><time>2026-04-07T11:01:21.001Z</time></trkpt><trkpt lat="45.61042523848935" lon="8.708867426545838"><ele>212.0</ele><time>2026-04-07T11:01:22.001Z</time></trkpt><trkpt lat="45.610303721264614" lon="8.708957585734542"><ele>212.0</ele><time>2026-04-07T11:01:23.001Z</time></trkpt><trkpt lat="45.61018933906222" lon="8.709070809443512"><ele>212.0</ele><time>2026-04-07T11:01:24.001Z</time></trkpt><trkpt lat="45.610075660634074" lon="8.709217361849504"><ele>212.33333333333334</ele><time>2026-04-07T11:01:25.001Z</time></trkpt><trkpt lat="45.60995236766016" lon="8.709369643178498"><ele>212.66666666666669</ele><time>2026-04-07T11:01:26.001Z</time></trkpt><trkpt lat="45.609814002760956" lon="8.709495782053969"><ele>213.0</ele><time>2026-04-07T11:01:27.001Z</time></trkpt><trkpt lat="45.60965627478994" lon="8.709600474774515"><ele>212.0</ele><time>2026-04-07T11:01:28.001Z</time></trkpt><trkpt lat="45.609493412789426" lon="8.709677404113751"><ele>211.0</ele><time>2026-04-07T11:01:29.001Z</time></trkpt><trkpt lat="45.60933088529493" lon="8.709736346640296"><ele>210.0</ele><time>2026-04-07T11:01:30.001Z</time></trkpt><trkpt lat="45.609163748463175" lon="8.709790585164276"><ele>209.66666666666669</ele><time>2026-04-07T11:01:31.001Z</time></trkpt><trkpt lat="45.608993652812096" lon="8.709842594854136"><ele>209.33333333333334</ele><time>2026-04-07T11:01:32.001Z</time></trkpt><trkpt lat="45.60882337393951" lon="8.709893748369707"><ele>209.0</ele><time>2026-04-07T11:01:33.001Z</time></trkpt><trkpt lat="45.60864943118586" lon="8.709943990675"><ele>210.0</ele><time>2026-04-07T11:01:34.001Z</time></trkpt><trkpt lat="45.60847258455427" lon="8.709998844829828"><ele>211.0</ele><time>2026-04-07T11:01:35.001Z</time></trkpt><trkpt lat="45.60829548985216" lon="8.710055574023887"><ele>212.0</ele><time>2026-04-07T11:01:36.001Z</time></trkpt><trkpt lat="45.60811803952218" lon="8.710110876762204"><ele>212.0</ele><time>2026-04-07T11:01:37.001Z</time></trkpt><trkpt lat="45.60793877281575" lon="8.710166490884"><ele>212.0</ele><time>2026-04-07T11:01:38.001Z</time></trkpt><trkpt lat="45.607760416882115" lon="8.710220577295123"><ele>212.0</ele><time>2026-04-07T11:01:39.001Z</time></trkpt><trkpt lat="45.60758139058227" lon="8.710271472972678"><ele>211.0</ele><time>2026-04-07T11:01:40.001Z</time></trkpt><trkpt lat="45.607400954434326" lon="8.710323142057826"><ele>210.0</ele><time>2026-04-07T11:01:41.001Z</time></trkpt><trkpt lat="45.607221197549855" lon="8.710373421964366"><ele>209.0</ele><time>2026-04-07T11:01:42.001Z</time></trkpt><trkpt lat="45.607045784361404" lon="8.710425277355967"><ele>208.66666666666669</ele><time>2026-04-07T11:01:43.001Z</time></trkpt><trkpt lat="45.60686926108185" lon="8.710477387958635"><ele>208.33333333333331</ele><time>2026-04-07T11:01:44.001Z</time></trkpt><trkpt lat="45.606690654464565" lon="8.710526884228257"><ele>208.0</ele><time>2026-04-07T11:01:45.001Z</time></trkpt><trkpt lat="45.60650915880173" lon="8.710577598638555"><ele>208.0</ele><time>2026-04-07T11:01:46.001Z</time></trkpt><trkpt lat="45.60633893773242" lon="8.710618301865019"><ele>208.0</ele><time>2026-04-07T11:01:47.001Z</time></trkpt><trkpt lat="45.606159832207915" lon="8.710663312556969"><ele>208.0</ele><time>2026-04-07T11:01:48.001Z</time></trkpt><trkpt lat="45.60598113320774" lon="8.710709772260486"><ele>208.0</ele><time>2026-04-07T11:01:49.001Z</time></trkpt><trkpt lat="45.60580334646808" lon="8.710755338080718"><ele>208.0</ele><time>2026-04-07T11:01:50.001Z</time></trkpt><trkpt lat="45.60562919884565" lon="8.710801028094778"><ele>208.0</ele><time>2026-04-07T11:01:51.001Z</time></trkpt><trkpt lat="45.60545400652254" lon="8.710839674346621"><ele>208.33333333333331</ele><time>2026-04-07T11:01:52.001Z</time></trkpt><trkpt lat="45.60528474171903" lon="8.710871819573093"><ele>208.66666666666669</ele><time>2026-04-07T11:01:53.001Z</time></trkpt><trkpt lat="45.60512988573427" lon="8.710896774392307"><ele>209.0</ele><time>2026-04-07T11:01:54.001Z</time></trkpt><trkpt lat="45.604980235993864" lon="8.710913796047066"><ele>209.0</ele><time>2026-04-07T11:01:55.001Z</time></trkpt><trkpt lat="45.60483670476828" lon="8.710892151513983"><ele>209.0</ele><time>2026-04-07T11:01:56.001Z</time></trkpt><trkpt lat="45.60469823365582" lon="8.710912854898854"><ele>209.0</ele><time>2026-04-07T11:01:57.001Z</time></trkpt><trkpt lat="45.60456481087942" lon="8.710906172444057"><ele>209.0</ele><time>2026-04-07T11:01:58.001Z</time></trkpt><trkpt lat="45.60444441989057" lon="8.710897820476644"><ele>209.0</ele><time>2026-04-07T11:01:59.001Z</time></trkpt><trkpt lat="45.60432791980064" lon="8.71088989158381"><ele>209.0</ele><time>2026-04-07T11:02:00.001Z</time></trkpt><trkpt lat="45.60422367595849" lon="8.710892876141468"><ele>209.0</ele><time>2026-04-07T11:02:01.001Z</time></trkpt><trkpt lat="45.60412315443387" lon="8.710910336114841"><ele>209.0</ele><time>2026-04-07T11:02:02.001Z</time></trkpt><trkpt lat="45.60403836892339" lon="8.710913792902788"><ele>209.0</ele><time>2026-04-07T11:02:03.001Z</time></trkpt><trkpt lat="45.603963081828276" lon="8.71087482092263"><ele>209.0</ele><time>2026-04-07T11:02:04.001Z</time></trkpt><trkpt lat="45.60391494583676" lon="8.71080868334058"><ele>209.0</ele><time>2026-04-07T11:02:05.001Z</time></trkpt><trkpt lat="45.60387021033115" lon="8.71073569364847"><ele>209.0</ele><time>2026-04-07T11:02:05.999Z</time></trkpt><trkpt lat="45.60382367432513" lon="8.710648794173549"><ele>209.0</ele><time>2026-04-07T11:02:07.999Z</time></trkpt><trkpt lat="45.60384240080686" lon="8.710745428025927"><ele>209.0</ele><time>2026-04-07T11:02:41Z</time></trkpt><trkpt lat="45.60371065548515" lon="8.710903690236387"><ele>209.39999999999998</ele><time>2026-04-07T11:02:43Z</time></trkpt><trkpt lat="45.60364362204447" lon="8.710985889855642"><ele>209.8</ele><time>2026-04-07T11:02:44Z</time></trkpt><trkpt lat="45.60356598516435" lon="8.711070183654643"><ele>210.2</ele><time>2026-04-07T11:02:45Z</time></trkpt><trkpt lat="45.6034714140133" lon="8.711165311904107"><ele>210.60000000000002</ele><time>2026-04-07T11:02:46Z</time></trkpt><trkpt lat="45.60335071447021" lon="8.71121493361621"><ele>211.0</ele><time>2026-04-07T11:02:47Z</time></trkpt><trkpt lat="45.60324127928423" lon="8.711290633153206"><ele>210.0</ele><time>2026-04-07T11:02:48Z</time></trkpt><trkpt lat="45.60312409133166" lon="8.71135895692425"><ele>209.0</ele><time>2026-04-07T11:02:49Z</time></trkpt><trkpt lat="45.60300109316976" lon="8.711415500551393"><ele>208.0</ele><time>2026-04-07T11:02:50Z</time></trkpt><trkpt lat="45.602872598442985" lon="8.711472057361938"><ele>207.0</ele><time>2026-04-07T11:02:51Z</time></trkpt><trkpt lat="45.602749399405404" lon="8.711524865102252"><ele>207.0</ele><time>2026-04-07T11:02:52Z</time></trkpt><trkpt lat="45.602617141690814" lon="8.71157974461361"><ele>207.0</ele><time>2026-04-07T11:02:53Z</time></trkpt><trkpt lat="45.60248200074761" lon="8.711635427052833"><ele>207.0</ele><time>2026-04-07T11:02:54Z</time></trkpt><trkpt lat="45.60234022102969" lon="8.711691725091267"><ele>207.0</ele><time>2026-04-07T11:02:55Z</time></trkpt><trkpt lat="45.602198141849065" lon="8.71174814205525"><ele>207.0</ele><time>2026-04-07T11:02:56Z</time></trkpt><trkpt lat="45.602054752251576" lon="8.711805079347734"><ele>207.0</ele><time>2026-04-07T11:02:57Z</time></trkpt><trkpt lat="45.601914116726604" lon="8.711860923047126"><ele>207.0</ele><time>2026-04-07T11:02:58Z</time></trkpt><trkpt lat="45.60177261258686" lon="8.711940386582016"><ele>207.0</ele><time>2026-04-07T11:02:59Z</time></trkpt><trkpt lat="45.601624697455044" lon="8.711992533474808"><ele>205.66666666666669</ele><time>2026-04-07T11:03:00Z</time></trkpt><trkpt lat="45.60147744682918" lon="8.712044844431656"><ele>204.33333333333334</ele><time>2026-04-07T11:03:01Z</time></trkpt><trkpt lat="45.601330442330486" lon="8.712089632184059"><ele>203.0</ele><time>2026-04-07T11:03:02Z</time></trkpt><trkpt lat="45.601181868944806" lon="8.712143117722873"><ele>202.66666666666669</ele><time>2026-04-07T11:03:03Z</time></trkpt><trkpt lat="45.60103690907158" lon="8.712188546131955"><ele>202.33333333333331</ele><time>2026-04-07T11:03:04Z</time></trkpt><trkpt lat="45.60089025357883" lon="8.712233117348358"><ele>202.0</ele><time>2026-04-07T11:03:05Z</time></trkpt><trkpt lat="45.60074241711696" lon="8.71228468982417"><ele>202.0</ele><time>2026-04-07T11:03:06Z</time></trkpt><trkpt lat="45.60059032332521" lon="8.712330581129468"><ele>202.0</ele><time>2026-04-07T11:03:07Z</time></trkpt><trkpt lat="45.600437817880334" lon="8.712383441387292"><ele>202.0</ele><time>2026-04-07T11:03:08Z</time></trkpt><trkpt lat="45.60028305686169" lon="8.712438315819728"><ele>202.66666666666666</ele><time>2026-04-07T11:03:09Z</time></trkpt><trkpt lat="45.60012603414601" lon="8.712489302811893"><ele>203.33333333333331</ele><time>2026-04-07T11:03:10.001Z</time></trkpt><trkpt lat="45.59996965248042" lon="8.712540444963043"><ele>204.0</ele><time>2026-04-07T11:03:11.001Z</time></trkpt><trkpt lat="45.59980713349614" lon="8.712567758325571"><ele>204.0</ele><time>2026-04-07T11:03:12.001Z</time></trkpt><trkpt lat="45.59964411458599" lon="8.712612308057153"><ele>204.0</ele><time>2026-04-07T11:03:13.001Z</time></trkpt><trkpt lat="45.599482508113006" lon="8.712676103824267"><ele>204.0</ele><time>2026-04-07T11:03:14.001Z</time></trkpt><trkpt lat="45.59931951572076" lon="8.712702619509033"><ele>204.0</ele><time>2026-04-07T11:03:15.001Z</time></trkpt><trkpt lat="45.59914797827372" lon="8.71273757487356"><ele>204.0</ele><time>2026-04-07T11:03:16.001Z</time></trkpt><trkpt lat="45.59897799998737" lon="8.712778082452719"><ele>204.0</ele><time>2026-04-07T11:03:17.001Z</time></trkpt><trkpt lat="45.59880851224087" lon="8.71281199090403"><ele>204.0</ele><time>2026-04-07T11:03:18.001Z</time></trkpt><trkpt lat="45.598640889704775" lon="8.712852560635785"><ele>204.0</ele><time>2026-04-07T11:03:19.001Z</time></trkpt><trkpt lat="45.598471469229324" lon="8.712891645317974"><ele>204.0</ele><time>2026-04-07T11:03:20.001Z</time></trkpt><trkpt lat="45.59830177615477" lon="8.71293357667489"><ele>204.0</ele><time>2026-04-07T11:03:21.001Z</time></trkpt><trkpt lat="45.598133006100795" lon="8.712974756701144"><ele>204.0</ele><time>2026-04-07T11:03:22.001Z</time></trkpt><trkpt lat="45.59796416923826" lon="8.713014764621933"><ele>204.0</ele><time>2026-04-07T11:03:23.001Z</time></trkpt><trkpt lat="45.59779091917591" lon="8.713054544538284"><ele>204.0</ele><time>2026-04-07T11:03:24.001Z</time></trkpt><trkpt lat="45.59762330691186" lon="8.713093931271585"><ele>204.0</ele><time>2026-04-07T11:03:25.001Z</time></trkpt><trkpt lat="45.59745750023594" lon="8.713129274220812"><ele>204.0</ele><time>2026-04-07T11:03:26.001Z</time></trkpt><trkpt lat="45.59729176087951" lon="8.713164484558803"><ele>204.0</ele><time>2026-04-07T11:03:27.001Z</time></trkpt><trkpt lat="45.5971274223896" lon="8.713206167379939"><ele>204.0</ele><time>2026-04-07T11:03:28.001Z</time></trkpt><trkpt lat="45.59696244464701" lon="8.713242752393928"><ele>204.0</ele><time>2026-04-07T11:03:29.001Z</time></trkpt><trkpt lat="45.59679859463462" lon="8.713277131057898"><ele>204.33333333333331</ele><time>2026-04-07T11:03:30.001Z</time></trkpt><trkpt lat="45.596636351801415" lon="8.713317190890216"><ele>204.66666666666666</ele><time>2026-04-07T11:03:31.001Z</time></trkpt><trkpt lat="45.5964709827482" lon="8.713329432732145"><ele>205.0</ele><time>2026-04-07T11:03:32.001Z</time></trkpt><trkpt lat="45.596309146077466" lon="8.713390008123312"><ele>205.33333333333331</ele><time>2026-04-07T11:03:33.001Z</time></trkpt><trkpt lat="45.59614370168429" lon="8.713424996719697"><ele>205.66666666666669</ele><time>2026-04-07T11:03:34.001Z</time></trkpt><trkpt lat="45.595970566069376" lon="8.713459086331214"><ele>206.0</ele><time>2026-04-07T11:03:35.001Z</time></trkpt><trkpt lat="45.595805077715816" lon="8.713491819252248"><ele>206.0</ele><time>2026-04-07T11:03:36.001Z</time></trkpt><trkpt lat="45.59563787997511" lon="8.713525447539176"><ele>206.0</ele><time>2026-04-07T11:03:37.001Z</time></trkpt><trkpt lat="45.59547629488624" lon="8.713562678610542"><ele>206.0</ele><time>2026-04-07T11:03:38.001Z</time></trkpt><trkpt lat="45.59531022637583" lon="8.713605351950482"><ele>204.75</ele><time>2026-04-07T11:03:39.001Z</time></trkpt><trkpt lat="45.59514760414902" lon="8.713646300940237"><ele>203.5</ele><time>2026-04-07T11:03:40.001Z</time></trkpt><trkpt lat="45.59500347130588" lon="8.713674931329727"><ele>202.25</ele><time>2026-04-07T11:03:41.001Z</time></trkpt><trkpt lat="45.594883552842774" lon="8.713688609928795"><ele>201.0</ele><time>2026-04-07T11:03:42.001Z</time></trkpt><trkpt lat="45.594784100375264" lon="8.713684518823413"><ele>201.0</ele><time>2026-04-07T11:03:43.001Z</time></trkpt><trkpt lat="45.59469800397487" lon="8.713641118306485"><ele>201.0</ele><time>2026-04-07T11:03:44.001Z</time></trkpt><trkpt lat="45.59462698602148" lon="8.713559205082051"><ele>201.0</ele><time>2026-04-07T11:03:45.001Z</time></trkpt><trkpt lat="45.5945662364178" lon="8.713459474401487"><ele>201.0</ele><time>2026-04-07T11:03:46.001Z</time></trkpt><trkpt lat="45.59448975229385" lon="8.713389336984747"><ele>201.0</ele><time>2026-04-07T11:03:47.001Z</time></trkpt><trkpt lat="45.594399271499675" lon="8.71338193718845"><ele>201.20000000000002</ele><time>2026-04-07T11:03:48.001Z</time></trkpt><trkpt lat="45.5943074378854" lon="8.713396845404874"><ele>201.4</ele><time>2026-04-07T11:03:49.001Z</time></trkpt><trkpt lat="45.594236910169585" lon="8.713516771094875"><ele>201.6</ele><time>2026-04-07T11:03:50.001Z</time></trkpt><trkpt lat="45.59420639137961" lon="8.71368892995803"><ele>201.8</ele><time>2026-04-07T11:03:51.001Z</time></trkpt><trkpt lat="45.5941411184398" lon="8.71381855234624"><ele>202.0</ele><time>2026-04-07T11:03:52.001Z</time></trkpt><trkpt lat="45.59405241445747" lon="8.713902585725366"><ele>202.0</ele><time>2026-04-07T11:03:53.001Z</time></trkpt><trkpt lat="45.593940440804545" lon="8.713923848994511"><ele>202.0</ele><time>2026-04-07T11:03:54.001Z</time></trkpt><trkpt lat="45.59382133604608" lon="8.713974912332164"><ele>202.0</ele><time>2026-04-07T11:03:55.001Z</time></trkpt><trkpt lat="45.59369179436723" lon="8.713995193979818"><ele>202.0</ele><time>2026-04-07T11:03:56.001Z</time></trkpt><trkpt lat="45.59356966689851" lon="8.714019789828921"><ele>201.75</ele><time>2026-04-07T11:03:57.001Z</time></trkpt><trkpt lat="45.59343667229827" lon="8.714049833906698"><ele>201.5</ele><time>2026-04-07T11:03:58.001Z</time></trkpt><trkpt lat="45.59329433047211" lon="8.714081909975986"><ele>201.25</ele><time>2026-04-07T11:03:59.001Z</time></trkpt><trkpt lat="45.59313894840049" lon="8.714117727908384"><ele>201.0</ele><time>2026-04-07T11:04:00.002Z</time></trkpt><trkpt lat="45.592979582216465" lon="8.714155769465233"><ele>201.66666666666669</ele><time>2026-04-07T11:04:01.002Z</time></trkpt><trkpt lat="45.59282225808674" lon="8.71419108599169"><ele>202.33333333333334</ele><time>2026-04-07T11:04:02.002Z</time></trkpt><trkpt lat="45.592662028453155" lon="8.7142252882684"><ele>203.0</ele><time>2026-04-07T11:04:03.002Z</time></trkpt><trkpt lat="45.59249566273497" lon="8.714265889075882"><ele>203.0</ele><time>2026-04-07T11:04:04.002Z</time></trkpt><trkpt lat="45.59232467175068" lon="8.714306521267039"><ele>203.0</ele><time>2026-04-07T11:04:05.002Z</time></trkpt><trkpt lat="45.592151116973625" lon="8.714350099102909"><ele>203.0</ele><time>2026-04-07T11:04:06.002Z</time></trkpt><trkpt lat="45.59197346214991" lon="8.714391980328335"><ele>202.33333333333334</ele><time>2026-04-07T11:04:07.002Z</time></trkpt><trkpt lat="45.591793142219316" lon="8.714426039016718"><ele>201.66666666666669</ele><time>2026-04-07T11:04:08.014Z</time></trkpt><trkpt lat="45.59161770555936" lon="8.714462702518766"><ele>201.0</ele><time>2026-04-07T11:04:09.015Z</time></trkpt><trkpt lat="45.59144316401101" lon="8.714504307180524"><ele>201.0</ele><time>2026-04-07T11:04:10.015Z</time></trkpt><trkpt lat="45.59127049084724" lon="8.714545700022285"><ele>201.0</ele><time>2026-04-07T11:04:11.014Z</time></trkpt><trkpt lat="45.59109942150705" lon="8.71458541983875"><ele>201.0</ele><time>2026-04-07T11:04:12.013Z</time></trkpt><trkpt lat="45.5909273365462" lon="8.714619662142075"><ele>199.66666666666669</ele><time>2026-04-07T11:04:13.019Z</time></trkpt><trkpt lat="45.59076030440842" lon="8.714657073686695"><ele>198.33333333333334</ele><time>2026-04-07T11:04:14.017Z</time></trkpt><trkpt lat="45.59053590930177" lon="8.714711305225093"><ele>197.0</ele><time>2026-04-07T11:04:15.002Z</time></trkpt><trkpt lat="45.590368522926184" lon="8.714750550856387"><ele>198.0</ele><time>2026-04-07T11:04:16.002Z</time></trkpt><trkpt lat="45.59021258749604" lon="8.714781074801751"><ele>199.0</ele><time>2026-04-07T11:04:17.002Z</time></trkpt><trkpt lat="45.59006358798675" lon="8.714821699793196"><ele>200.0</ele><time>2026-04-07T11:04:18.002Z</time></trkpt><trkpt lat="45.589903984409446" lon="8.71486808551724"><ele>200.0</ele><time>2026-04-07T11:04:18.999Z</time></trkpt><trkpt lat="45.58972975662228" lon="8.71490785520413"><ele>200.0</ele><time>2026-04-07T11:04:19.999Z</time></trkpt><trkpt lat="45.589560637703315" lon="8.714946531734249"><ele>200.0</ele><time>2026-04-07T11:04:20.999Z</time></trkpt><trkpt lat="45.58939052552959" lon="8.714981802575839"><ele>199.33333333333334</ele><time>2026-04-07T11:04:21.999Z</time></trkpt><trkpt lat="45.589218344090526" lon="8.7150245980142"><ele>198.66666666666669</ele><time>2026-04-07T11:04:22.999Z</time></trkpt><trkpt lat="45.58904784398598" lon="8.71507332694763"><ele>198.0</ele><time>2026-04-07T11:04:23.999Z</time></trkpt><trkpt lat="45.58887454823749" lon="8.715113890056674"><ele>198.0</ele><time>2026-04-07T11:04:24.999Z</time></trkpt><trkpt lat="45.58869756526027" lon="8.715131006474483"><ele>198.0</ele><time>2026-04-07T11:04:25.999Z</time></trkpt><trkpt lat="45.58852506616099" lon="8.715169512821232"><ele>198.0</ele><time>2026-04-07T11:04:26.999Z</time></trkpt><trkpt lat="45.58835249032948" lon="8.71520804470764"><ele>197.66666666666669</ele><time>2026-04-07T11:04:27.999Z</time></trkpt><trkpt lat="45.588181688764735" lon="8.715246180430038"><ele>197.33333333333334</ele><time>2026-04-07T11:04:28.999Z</time></trkpt><trkpt lat="45.588010729511005" lon="8.715284351362442"><ele>197.0</ele><time>2026-04-07T11:04:29.999Z</time></trkpt><trkpt lat="45.58784209731148" lon="8.715322002724733"><ele>199.0</ele><time>2026-04-07T11:04:30.999Z</time></trkpt><trkpt lat="45.58767201180464" lon="8.71538465746613"><ele>201.0</ele><time>2026-04-07T11:04:31.999Z</time></trkpt><trkpt lat="45.587496354572224" lon="8.715401138432108"><ele>203.0</ele><time>2026-04-07T11:04:32.999Z</time></trkpt><trkpt lat="45.58732461929725" lon="8.71544051016918"><ele>203.0</ele><time>2026-04-07T11:04:33.999Z</time></trkpt><trkpt lat="45.58715007952378" lon="8.715480277912743"><ele>203.0</ele><time>2026-04-07T11:04:34.999Z</time></trkpt><trkpt lat="45.586973634158596" lon="8.71552047983112"><ele>203.0</ele><time>2026-04-07T11:04:35.999Z</time></trkpt><trkpt lat="45.586800141765295" lon="8.715560083323775"><ele>203.0</ele><time>2026-04-07T11:04:36.999Z</time></trkpt><trkpt lat="45.58662692153326" lon="8.71560001541775"><ele>203.0</ele><time>2026-04-07T11:04:38Z</time></trkpt><trkpt lat="45.586449937226355" lon="8.71564081524068"><ele>203.0</ele><time>2026-04-07T11:04:39Z</time></trkpt><trkpt lat="45.58627439424014" lon="8.715681282793524"><ele>203.33333333333334</ele><time>2026-04-07T11:04:40Z</time></trkpt><trkpt lat="45.586099036466415" lon="8.715721707650312"><ele>203.66666666666669</ele><time>2026-04-07T11:04:41Z</time></trkpt><trkpt lat="45.58592409693708" lon="8.715761494743022"><ele>204.0</ele><time>2026-04-07T11:04:42Z</time></trkpt><trkpt lat="45.58575642164379" lon="8.715799616700128"><ele>204.0</ele><time>2026-04-07T11:04:43Z</time></trkpt><trkpt lat="45.58558903491893" lon="8.71583767304612"><ele>204.0</ele><time>2026-04-07T11:04:44Z</time></trkpt><trkpt lat="45.58542101296006" lon="8.7158782540949"><ele>204.0</ele><time>2026-04-07T11:04:45Z</time></trkpt><trkpt lat="45.58525272435646" lon="8.715922088491235"><ele>202.33333333333331</ele><time>2026-04-07T11:04:46Z</time></trkpt><trkpt lat="45.58508847380252" lon="8.715963433137272"><ele>200.66666666666666</ele><time>2026-04-07T11:04:47Z</time></trkpt><trkpt lat="45.584929249227166" lon="8.71599969293569"><ele>199.0</ele><time>2026-04-07T11:04:48Z</time></trkpt><trkpt lat="45.58477314674551" lon="8.716035242243025"><ele>199.0</ele><time>2026-04-07T11:04:49Z</time></trkpt><trkpt lat="45.584625151010954" lon="8.716067901896034"><ele>199.0</ele><time>2026-04-07T11:04:50Z</time></trkpt><trkpt lat="45.584486409808896" lon="8.716097632152875"><ele>199.0</ele><time>2026-04-07T11:04:51Z</time></trkpt><trkpt lat="45.5843520507061" lon="8.716126423387378"><ele>199.0</ele><time>2026-04-07T11:04:52Z</time></trkpt><trkpt lat="45.58422277755594" lon="8.716148003526811"><ele>198.79999999999998</ele><time>2026-04-07T11:04:53Z</time></trkpt><trkpt lat="45.58411093591668" lon="8.716145834599114"><ele>198.6</ele><time>2026-04-07T11:04:54Z</time></trkpt><trkpt lat="45.5840053795652" lon="8.716137579854836"><ele>198.4</ele><time>2026-04-07T11:04:55Z</time></trkpt><trkpt lat="45.583907667313554" lon="8.716151627641633"><ele>198.2</ele><time>2026-04-07T11:04:56Z</time></trkpt><trkpt lat="45.58382155058884" lon="8.716104744674155"><ele>198.0</ele><time>2026-04-07T11:04:57Z</time></trkpt><trkpt lat="45.583735233034865" lon="8.716029605705158"><ele>197.8</ele><time>2026-04-07T11:04:58Z</time></trkpt><trkpt lat="45.58364652585906" lon="8.716024720084551"><ele>197.60000000000002</ele><time>2026-04-07T11:04:59Z</time></trkpt><trkpt lat="45.583561623499506" lon="8.716082510226405"><ele>197.39999999999998</ele><time>2026-04-07T11:05:00Z</time></trkpt><trkpt lat="45.583496537806624" lon="8.716180731784686"><ele>197.2</ele><time>2026-04-07T11:05:01Z</time></trkpt><trkpt lat="45.58342488764872" lon="8.716291567465454"><ele>197.0</ele><time>2026-04-07T11:05:02Z</time></trkpt><trkpt lat="45.583324533910236" lon="8.716356564093502"><ele>197.0</ele><time>2026-04-07T11:05:03Z</time></trkpt><trkpt lat="45.58322150796814" lon="8.716397161865535"><ele>197.0</ele><time>2026-04-07T11:05:04Z</time></trkpt><trkpt lat="45.58311486940982" lon="8.716401691376332"><ele>197.0</ele><time>2026-04-07T11:05:05Z</time></trkpt><trkpt lat="45.58300998167004" lon="8.716425310034998"><ele>197.0</ele><time>2026-04-07T11:05:06Z</time></trkpt><trkpt lat="45.582901195594644" lon="8.71647100661309"><ele>197.0</ele><time>2026-04-07T11:05:07Z</time></trkpt><trkpt lat="45.58277841814117" lon="8.71647854073047"><ele>196.75</ele><time>2026-04-07T11:05:08Z</time></trkpt><trkpt lat="45.582662971200335" lon="8.716528398543268"><ele>196.5</ele><time>2026-04-07T11:05:09Z</time></trkpt><trkpt lat="45.58254591888291" lon="8.716549699803265"><ele>196.25</ele><time>2026-04-07T11:05:10Z</time></trkpt><trkpt lat="45.58242222400134" lon="8.716575414780669"><ele>196.0</ele><time>2026-04-07T11:05:11Z</time></trkpt><trkpt lat="45.58229902792301" lon="8.71660247991518"><ele>196.0</ele><time>2026-04-07T11:05:12Z</time></trkpt><trkpt lat="45.58218112828785" lon="8.716628056761571"><ele>196.0</ele><time>2026-04-07T11:05:13Z</time></trkpt><trkpt lat="45.58206756449383" lon="8.716654283417975"><ele>196.0</ele><time>2026-04-07T11:05:14.001Z</time></trkpt><trkpt lat="45.581948906080385" lon="8.716685772621604"><ele>196.0</ele><time>2026-04-07T11:05:15.001Z</time></trkpt><trkpt lat="45.581824003227695" lon="8.716713775806534"><ele>196.5</ele><time>2026-04-07T11:05:16.001Z</time></trkpt><trkpt lat="45.58169344876076" lon="8.716740567665145"><ele>197.0</ele><time>2026-04-07T11:05:17.001Z</time></trkpt><trkpt lat="45.58155973888724" lon="8.716771485223486"><ele>197.5</ele><time>2026-04-07T11:05:18.001Z</time></trkpt><trkpt lat="45.58142718505041" lon="8.716802265921002"><ele>198.0</ele><time>2026-04-07T11:05:19.001Z</time></trkpt><trkpt lat="45.581295782566" lon="8.716831753050258"><ele>198.0</ele><time>2026-04-07T11:05:20.001Z</time></trkpt><trkpt lat="45.58117018715068" lon="8.716857030264544"><ele>198.0</ele><time>2026-04-07T11:05:21.001Z</time></trkpt><trkpt lat="45.5810443272733" lon="8.716882441095203"><ele>198.0</ele><time>2026-04-07T11:05:22.001Z</time></trkpt><trkpt lat="45.58092221265315" lon="8.716911627169953"><ele>198.0</ele><time>2026-04-07T11:05:23.001Z</time></trkpt><trkpt lat="45.58079994219412" lon="8.716938176256386"><ele>198.0</ele><time>2026-04-07T11:05:24.001Z</time></trkpt><trkpt lat="45.58067969251899" lon="8.716964128318947"><ele>198.0</ele><time>2026-04-07T11:05:25.001Z</time></trkpt><trkpt lat="45.58055810486754" lon="8.716985691354262"><ele>198.0</ele><time>2026-04-07T11:05:26.001Z</time></trkpt><trkpt lat="45.58043605366317" lon="8.717013971719904"><ele>198.0</ele><time>2026-04-07T11:05:27.001Z</time></trkpt><trkpt lat="45.58031600722961" lon="8.717027277885693"><ele>198.0</ele><time>2026-04-07T11:05:28.001Z</time></trkpt><trkpt lat="45.580205077350016" lon="8.717035654030399"><ele>198.0</ele><time>2026-04-07T11:05:29.001Z</time></trkpt><trkpt lat="45.580096972932346" lon="8.71703616512708"><ele>198.0</ele><time>2026-04-07T11:05:30.001Z</time></trkpt><trkpt lat="45.579993499803805" lon="8.717018047133724"><ele>198.0</ele><time>2026-04-07T11:05:31.001Z</time></trkpt><trkpt lat="45.57989473666374" lon="8.716985131412919"><ele>198.0</ele><time>2026-04-07T11:05:32.001Z</time></trkpt><trkpt lat="45.57979957293258" lon="8.716948930820173"><ele>198.0</ele><time>2026-04-07T11:05:33.001Z</time></trkpt><trkpt lat="45.579702371569866" lon="8.716918377249621"><ele>198.0</ele><time>2026-04-07T11:05:34.001Z</time></trkpt><trkpt lat="45.57961724027802" lon="8.7169056140378"><ele>198.0</ele><time>2026-04-07T11:05:35.001Z</time></trkpt><trkpt lat="45.57953501127599" lon="8.716912374680264"><ele>198.0</ele><time>2026-04-07T11:05:36.001Z</time></trkpt><trkpt lat="45.57945863796659" lon="8.716938626606291"><ele>198.0</ele><time>2026-04-07T11:05:37.001Z</time></trkpt><trkpt lat="45.57939158326657" lon="8.716967924645697"><ele>198.0</ele><time>2026-04-07T11:05:38.001Z</time></trkpt><trkpt lat="45.57926594254797" lon="8.716988502107021"><ele>197.60000000000002</ele><time>2026-04-07T11:05:40.001Z</time></trkpt><trkpt lat="45.579192790720796" lon="8.716974590835841"><ele>197.20000000000002</ele><time>2026-04-07T11:05:41.001Z</time></trkpt><trkpt lat="45.57910213299106" lon="8.716962898752852"><ele>196.8</ele><time>2026-04-07T11:05:42.001Z</time></trkpt><trkpt lat="45.57901029562536" lon="8.716943073894077"><ele>196.4</ele><time>2026-04-07T11:05:43.001Z</time></trkpt><trkpt lat="45.57892673734372" lon="8.716983349121408"><ele>196.0</ele><time>2026-04-07T11:05:44.001Z</time></trkpt><trkpt lat="45.578829406648445" lon="8.716810101975735"><ele>196.0</ele><time>2026-04-07T11:05:45.001Z</time></trkpt><trkpt lat="45.57876100785743" lon="8.716673567291567"><ele>196.0</ele><time>2026-04-07T11:05:46.001Z</time></trkpt><trkpt lat="45.57868085410509" lon="8.716545297148775"><ele>196.0</ele><time>2026-04-07T11:05:47.001Z</time></trkpt><trkpt lat="45.57859555897778" lon="8.71640879927051"><ele>196.0</ele><time>2026-04-07T11:05:48.001Z</time></trkpt><trkpt lat="45.578504442523666" lon="8.716263653483821"><ele>194.75</ele><time>2026-04-07T11:05:49.001Z</time></trkpt><trkpt lat="45.57841084503058" lon="8.716115789782322"><ele>193.5</ele><time>2026-04-07T11:05:50.001Z</time></trkpt><trkpt lat="45.57830101884775" lon="8.715974069028372"><ele>192.25</ele><time>2026-04-07T11:05:51.001Z</time></trkpt><trkpt lat="45.57820733754929" lon="8.715803137425269"><ele>191.0</ele><time>2026-04-07T11:05:52.001Z</time></trkpt><trkpt lat="45.578109407088725" lon="8.715646559672733"><ele>191.0</ele><time>2026-04-07T11:05:53.001Z</time></trkpt><trkpt lat="45.578011701817346" lon="8.7154878911854"><ele>191.0</ele><time>2026-04-07T11:05:54.001Z</time></trkpt><trkpt lat="45.57791261228913" lon="8.71532779026348"><ele>191.0</ele><time>2026-04-07T11:05:55.001Z</time></trkpt><trkpt lat="45.57781297641189" lon="8.715163476446387"><ele>189.33333333333331</ele><time>2026-04-07T11:05:56.001Z</time></trkpt><trkpt lat="45.57771044083293" lon="8.71500756990323"><ele>187.66666666666666</ele><time>2026-04-07T11:05:57.001Z</time></trkpt><trkpt lat="45.57760581146186" lon="8.714847199060781"><ele>186.0</ele><time>2026-04-07T11:05:58.001Z</time></trkpt><trkpt lat="45.577510836712804" lon="8.71468318017269"><ele>186.0</ele><time>2026-04-07T11:05:59.002Z</time></trkpt><trkpt lat="45.57742437255679" lon="8.714512739601489"><ele>186.0</ele><time>2026-04-07T11:06:00.002Z</time></trkpt><trkpt lat="45.577356313058644" lon="8.714328837525262"><ele>186.0</ele><time>2026-04-07T11:06:01.002Z</time></trkpt><trkpt lat="45.5773067865596" lon="8.71413337933182"><ele>186.0</ele><time>2026-04-07T11:06:02.002Z</time></trkpt><trkpt lat="45.57727783665893" lon="8.713935169194142"><ele>187.0</ele><time>2026-04-07T11:06:03.002Z</time></trkpt><trkpt lat="45.57726433894283" lon="8.713736649010377"><ele>188.0</ele><time>2026-04-07T11:06:04.002Z</time></trkpt><trkpt lat="45.577250618864824" lon="8.713542523165279"><ele>189.0</ele><time>2026-04-07T11:06:05.002Z</time></trkpt><trkpt lat="45.577237574136156" lon="8.71334287313634"><ele>190.0</ele><time>2026-04-07T11:06:06.002Z</time></trkpt><trkpt lat="45.577240363134194" lon="8.713143286803142"><ele>190.0</ele><time>2026-04-07T11:06:07.002Z</time></trkpt><trkpt lat="45.577262791957516" lon="8.712946284172341"><ele>190.0</ele><time>2026-04-07T11:06:08.002Z</time></trkpt><trkpt lat="45.577297903549926" lon="8.712754386493183"><ele>190.0</ele><time>2026-04-07T11:06:09.002Z</time></trkpt><trkpt lat="45.577378150122534" lon="8.712592127785086"><ele>190.0</ele><time>2026-04-07T11:06:10.002Z</time></trkpt><trkpt lat="45.57747859569569" lon="8.712456463272057"><ele>189.66666666666669</ele><time>2026-04-07T11:06:11.002Z</time></trkpt><trkpt lat="45.577610679299774" lon="8.712359737006734"><ele>189.33333333333334</ele><time>2026-04-07T11:06:12.002Z</time></trkpt><trkpt lat="45.577748724655116" lon="8.712271861885792"><ele>189.0</ele><time>2026-04-07T11:06:13.002Z</time></trkpt><trkpt lat="45.57789964262519" lon="8.712202708532503"><ele>189.0</ele><time>2026-04-07T11:06:14.002Z</time></trkpt><trkpt lat="45.57804885660987" lon="8.71213663541242"><ele>189.0</ele><time>2026-04-07T11:06:15.002Z</time></trkpt><trkpt lat="45.578199522160645" lon="8.712071069382409"><ele>189.0</ele><time>2026-04-07T11:06:16.002Z</time></trkpt><trkpt lat="45.578349723833504" lon="8.7119951117759"><ele>189.0</ele><time>2026-04-07T11:06:17.002Z</time></trkpt><trkpt lat="45.57850025954712" lon="8.71190724152218"><ele>189.0</ele><time>2026-04-07T11:06:18.002Z</time></trkpt><trkpt lat="45.57864471562418" lon="8.711811295354044"><ele>189.0</ele><time>2026-04-07T11:06:19.002Z</time></trkpt><trkpt lat="45.57879093459782" lon="8.71171015211507"><ele>187.66666666666666</ele><time>2026-04-07T11:06:20.002Z</time></trkpt><trkpt lat="45.578936452964086" lon="8.71160112108312"><ele>186.33333333333331</ele><time>2026-04-07T11:06:21.002Z</time></trkpt><trkpt lat="45.579084673702454" lon="8.711481925203255"><ele>185.0</ele><time>2026-04-07T11:06:22.002Z</time></trkpt><trkpt lat="45.579234903831825" lon="8.711355887383881"><ele>185.0</ele><time>2026-04-07T11:06:23.002Z</time></trkpt><trkpt lat="45.57938114202443" lon="8.711209270369507"><ele>185.0</ele><time>2026-04-07T11:06:24.002Z</time></trkpt><trkpt lat="45.57952523966229" lon="8.711061030655923"><ele>185.0</ele><time>2026-04-07T11:06:24.999Z</time></trkpt><trkpt lat="45.57966912487781" lon="8.710905234973303"><ele>184.33333333333331</ele><time>2026-04-07T11:06:25.999Z</time></trkpt><trkpt lat="45.57980801878041" lon="8.71074125044291"><ele>183.66666666666666</ele><time>2026-04-07T11:06:27Z</time></trkpt><trkpt lat="45.57994487310345" lon="8.71056797648904"><ele>183.0</ele><time>2026-04-07T11:06:27.999Z</time></trkpt><trkpt lat="45.58008156960687" lon="8.710394890174504"><ele>183.0</ele><time>2026-04-07T11:06:28.999Z</time></trkpt><trkpt lat="45.58021943696121" lon="8.71022053022528"><ele>183.0</ele><time>2026-04-07T11:06:30Z</time></trkpt><trkpt lat="45.58035442804044" lon="8.71005057457422"><ele>183.0</ele><time>2026-04-07T11:06:31Z</time></trkpt><trkpt lat="45.58049174809285" lon="8.709880839999835"><ele>183.0</ele><time>2026-04-07T11:06:32Z</time></trkpt><trkpt lat="45.5806277584971" lon="8.709709828402483"><ele>183.0</ele><time>2026-04-07T11:06:33Z</time></trkpt><trkpt lat="45.58076544415169" lon="8.709541244410746"><ele>183.0</ele><time>2026-04-07T11:06:34Z</time></trkpt><trkpt lat="45.580900545162514" lon="8.709373360417331"><ele>184.33333333333334</ele><time>2026-04-07T11:06:35Z</time></trkpt><trkpt lat="45.58103369105" lon="8.709202935738487"><ele>185.66666666666669</ele><time>2026-04-07T11:06:36Z</time></trkpt><trkpt lat="45.58116474796598" lon="8.709033103361916"><ele>187.0</ele><time>2026-04-07T11:06:37Z</time></trkpt><trkpt lat="45.58129121916181" lon="8.708856920720857"><ele>187.0</ele><time>2026-04-07T11:06:38Z</time></trkpt><trkpt lat="45.58140673637498" lon="8.70867381713993"><ele>187.0</ele><time>2026-04-07T11:06:39Z</time></trkpt><trkpt lat="45.58150258779807" lon="8.70846539381048"><ele>187.0</ele><time>2026-04-07T11:06:40Z</time></trkpt><trkpt lat="45.58158460641197" lon="8.70824174733311"><ele>183.66666666666669</ele><time>2026-04-07T11:06:41Z</time></trkpt><trkpt lat="45.581695961679586" lon="8.708047548465181"><ele>180.33333333333334</ele><time>2026-04-07T11:06:42Z</time></trkpt><trkpt lat="45.581811895283195" lon="8.70785246195955"><ele>177.0</ele><time>2026-04-07T11:06:43Z</time></trkpt><trkpt lat="45.58193929719998" lon="8.707685166735217"><ele>176.66666666666666</ele><time>2026-04-07T11:06:44Z</time></trkpt><trkpt lat="45.58207438937929" lon="8.707535107398858"><ele>176.33333333333331</ele><time>2026-04-07T11:06:45Z</time></trkpt><trkpt lat="45.58222169454236" lon="8.707412702002546"><ele>176.0</ele><time>2026-04-07T11:06:46Z</time></trkpt><trkpt lat="45.582373159514844" lon="8.707311451809082"><ele>176.0</ele><time>2026-04-07T11:06:47Z</time></trkpt><trkpt lat="45.58253046279722" lon="8.707229225351428"><ele>176.0</ele><time>2026-04-07T11:06:48Z</time></trkpt><trkpt lat="45.582685541028376" lon="8.707155091586431"><ele>176.0</ele><time>2026-04-07T11:06:49Z</time></trkpt><trkpt lat="45.582830644982835" lon="8.707110960027183"><ele>177.0</ele><time>2026-04-07T11:06:50Z</time></trkpt><trkpt lat="45.582974842940196" lon="8.70711321729537"><ele>178.0</ele><time>2026-04-07T11:06:51Z</time></trkpt><trkpt lat="45.58311478880508" lon="8.70713632844804"><ele>179.0</ele><time>2026-04-07T11:06:52Z</time></trkpt><trkpt lat="45.58324998166885" lon="8.707170600404615"><ele>180.0</ele><time>2026-04-07T11:06:53Z</time></trkpt><trkpt lat="45.5833782894062" lon="8.707204998988876"><ele>180.0</ele><time>2026-04-07T11:06:54Z</time></trkpt><trkpt lat="45.58351112492163" lon="8.707227009181246"><ele>180.0</ele><time>2026-04-07T11:06:55Z</time></trkpt><trkpt lat="45.58365003096364" lon="8.707245854022675"><ele>180.0</ele><time>2026-04-07T11:06:56Z</time></trkpt><trkpt lat="45.58379056135892" lon="8.707246354176508"><ele>180.0</ele><time>2026-04-07T11:06:57Z</time></trkpt><trkpt lat="45.58393479869887" lon="8.707284875038678"><ele>177.66666666666666</ele><time>2026-04-07T11:06:58Z</time></trkpt><trkpt lat="45.58407651606453" lon="8.707348018158427"><ele>175.33333333333331</ele><time>2026-04-07T11:06:59Z</time></trkpt><trkpt lat="45.584225688995744" lon="8.707392938291372"><ele>173.0</ele><time>2026-04-07T11:07:00Z</time></trkpt><trkpt lat="45.584379945117874" lon="8.70742887945501"><ele>173.0</ele><time>2026-04-07T11:07:01Z</time></trkpt><trkpt lat="45.58453709262263" lon="8.707462966311729"><ele>173.0</ele><time>2026-04-07T11:07:02Z</time></trkpt><trkpt lat="45.58469630975176" lon="8.707492282231929"><ele>173.0</ele><time>2026-04-07T11:07:03Z</time></trkpt><trkpt lat="45.58486083350497" lon="8.70751391250071"><ele>173.0</ele><time>2026-04-07T11:07:04Z</time></trkpt><trkpt lat="45.58502199915511" lon="8.707530802395548"><ele>173.0</ele><time>2026-04-07T11:07:05Z</time></trkpt><trkpt lat="45.58518269487597" lon="8.707543460391824"><ele>173.0</ele><time>2026-04-07T11:07:06Z</time></trkpt><trkpt lat="45.58534517064405" lon="8.707550245998759"><ele>171.33333333333331</ele><time>2026-04-07T11:07:07Z</time></trkpt><trkpt lat="45.58550802861447" lon="8.707551804089327"><ele>169.66666666666666</ele><time>2026-04-07T11:07:08Z</time></trkpt><trkpt lat="45.58566787316492" lon="8.707536387210475"><ele>168.0</ele><time>2026-04-07T11:07:09.001Z</time></trkpt><trkpt lat="45.585819742952516" lon="8.70750745315983"><ele>168.0</ele><time>2026-04-07T11:07:10.001Z</time></trkpt><trkpt lat="45.58596569355826" lon="8.707469281914774"><ele>168.0</ele><time>2026-04-07T11:07:11.001Z</time></trkpt><trkpt lat="45.58609946393531" lon="8.707421638020612"><ele>168.0</ele><time>2026-04-07T11:07:12.001Z</time></trkpt><trkpt lat="45.58621746250747" lon="8.70733822039557"><ele>168.0</ele><time>2026-04-07T11:07:13.001Z</time></trkpt><trkpt lat="45.58633474149036" lon="8.707267140321335"><ele>166.5</ele><time>2026-04-07T11:07:14.001Z</time></trkpt><trkpt lat="45.58642851629161" lon="8.707147542034159"><ele>165.0</ele><time>2026-04-07T11:07:15.001Z</time></trkpt><trkpt lat="45.586492225762946" lon="8.706984958490995"><ele>163.5</ele><time>2026-04-07T11:07:16.001Z</time></trkpt><trkpt lat="45.58655944355877" lon="8.706826155302602"><ele>162.0</ele><time>2026-04-07T11:07:17.001Z</time></trkpt><trkpt lat="45.58663097100109" lon="8.70666705494019"><ele>162.0</ele><time>2026-04-07T11:07:18.001Z</time></trkpt><trkpt lat="45.58669900366676" lon="8.70649486708959"><ele>162.0</ele><time>2026-04-07T11:07:19.001Z</time></trkpt><trkpt lat="45.586769544673" lon="8.70632294069062"><ele>162.0</ele><time>2026-04-07T11:07:20.001Z</time></trkpt><trkpt lat="45.58685159662854" lon="8.706168416197471"><ele>162.0</ele><time>2026-04-07T11:07:21.001Z</time></trkpt><trkpt lat="45.586958440170235" lon="8.706050816828574"><ele>160.75</ele><time>2026-04-07T11:07:22.001Z</time></trkpt><trkpt lat="45.587075018621114" lon="8.705964061466757"><ele>159.5</ele><time>2026-04-07T11:07:23.001Z</time></trkpt><trkpt lat="45.58719838725706" lon="8.705910863520842"><ele>158.25</ele><time>2026-04-07T11:07:24.001Z</time></trkpt><trkpt lat="45.58732789161569" lon="8.705875563630006"><ele>157.0</ele><time>2026-04-07T11:07:25.001Z</time></trkpt><trkpt lat="45.58746120282579" lon="8.70589807855349"><ele>157.0</ele><time>2026-04-07T11:07:26.001Z</time></trkpt><trkpt lat="45.587593328945026" lon="8.705920975733498"><ele>157.0</ele><time>2026-04-07T11:07:27.001Z</time></trkpt><trkpt lat="45.58771569081685" lon="8.705979802997174"><ele>157.0</ele><time>2026-04-07T11:07:28.001Z</time></trkpt><trkpt lat="45.587844951895455" lon="8.706027508088168"><ele>157.0</ele><time>2026-04-07T11:07:29.001Z</time></trkpt><trkpt lat="45.587965257002075" lon="8.70611316101676"><ele>158.25</ele><time>2026-04-07T11:07:30.001Z</time></trkpt><trkpt lat="45.58809236983368" lon="8.70618776845423"><ele>159.5</ele><time>2026-04-07T11:07:31.001Z</time></trkpt><trkpt lat="45.58821958633304" lon="8.706261085722423"><ele>160.75</ele><time>2026-04-07T11:07:32.001Z</time></trkpt><trkpt lat="45.588340461448844" lon="8.706330160104597"><ele>162.0</ele><time>2026-04-07T11:07:33.001Z</time></trkpt><trkpt lat="45.58845394825174" lon="8.70639417021906"><ele>162.0</ele><time>2026-04-07T11:07:34.001Z</time></trkpt><trkpt lat="45.58856636590349" lon="8.706454330938755"><ele>162.0</ele><time>2026-04-07T11:07:35.001Z</time></trkpt><trkpt lat="45.58867404605734" lon="8.706515448585638"><ele>162.0</ele><time>2026-04-07T11:07:36.001Z</time></trkpt><trkpt lat="45.588789210204524" lon="8.7065440677463"><ele>162.0</ele><time>2026-04-07T11:07:37.001Z</time></trkpt><trkpt lat="45.58890923405858" lon="8.706540170750735"><ele>161.25</ele><time>2026-04-07T11:07:38.001Z</time></trkpt><trkpt lat="45.58903130037379" lon="8.706505199548003"><ele>160.5</ele><time>2026-04-07T11:07:39.001Z</time></trkpt><trkpt lat="45.58915071530876" lon="8.706428604019427"><ele>159.75</ele><time>2026-04-07T11:07:40.001Z</time></trkpt><trkpt lat="45.589257052931146" lon="8.70632299727823"><ele>159.0</ele><time>2026-04-07T11:07:41.001Z</time></trkpt><trkpt lat="45.58934583662452" lon="8.706190912614295"><ele>157.75</ele><time>2026-04-07T11:07:42.001Z</time></trkpt><trkpt lat="45.58940883011283" lon="8.70603926946393"><ele>156.5</ele><time>2026-04-07T11:07:43.001Z</time></trkpt><trkpt lat="45.58945344340797" lon="8.705880982337172"><ele>155.25</ele><time>2026-04-07T11:07:44.001Z</time></trkpt><trkpt lat="45.58947131076165" lon="8.705703537008269"><ele>154.0</ele><time>2026-04-07T11:07:45.001Z</time></trkpt><trkpt lat="45.589475314046986" lon="8.705526239211384"><ele>154.0</ele><time>2026-04-07T11:07:46.001Z</time></trkpt><trkpt lat="45.58947642691136" lon="8.705367509351023"><ele>154.0</ele><time>2026-04-07T11:07:47.001Z</time></trkpt><trkpt lat="45.58948769299706" lon="8.70519480785348"><ele>154.0</ele><time>2026-04-07T11:07:48.001Z</time></trkpt><trkpt lat="45.589497723855246" lon="8.70503731285491"><ele>154.0</ele><time>2026-04-07T11:07:49.001Z</time></trkpt><trkpt lat="45.58951381805296" lon="8.704908908358208"><ele>154.0</ele><time>2026-04-07T11:07:50.001Z</time></trkpt><trkpt lat="45.58952019335708" lon="8.704792351139357"><ele>152.6</ele><time>2026-04-07T11:07:51.002Z</time></trkpt><trkpt lat="45.58952813106228" lon="8.704647229207112"><ele>151.2</ele><time>2026-04-07T11:07:52.002Z</time></trkpt><trkpt lat="45.5895359128827" lon="8.704504957142166"><ele>149.79999999999998</ele><time>2026-04-07T11:07:53.002Z</time></trkpt><trkpt lat="45.58954401719235" lon="8.704356789160606"><ele>148.4</ele><time>2026-04-07T11:07:54.002Z</time></trkpt><trkpt lat="45.589552553128165" lon="8.704200674421855"><ele>147.0</ele><time>2026-04-07T11:07:55.002Z</time></trkpt><trkpt lat="45.58956122705604" lon="8.704041710286727"><ele>146.25</ele><time>2026-04-07T11:07:56.002Z</time></trkpt><trkpt lat="45.58956978254354" lon="8.703867520181168"><ele>145.5</ele><time>2026-04-07T11:07:57.002Z</time></trkpt><trkpt lat="45.58957805640203" lon="8.703674492829466"><ele>144.75</ele><time>2026-04-07T11:07:58.002Z</time></trkpt><trkpt lat="45.58958659173209" lon="8.703478521876862"><ele>144.0</ele><time>2026-04-07T11:07:59.002Z</time></trkpt><trkpt lat="45.58959611299367" lon="8.703276685661415"><ele>146.25</ele><time>2026-04-07T11:08:00.002Z</time></trkpt><trkpt lat="45.5896060509626" lon="8.703087695812046"><ele>148.5</ele><time>2026-04-07T11:08:01.002Z</time></trkpt><trkpt lat="45.589616736566" lon="8.70289069141101"><ele>150.75</ele><time>2026-04-07T11:08:02.002Z</time></trkpt><trkpt lat="45.58962794540381" lon="8.702684040530567"><ele>153.0</ele><time>2026-04-07T11:08:03.002Z</time></trkpt><trkpt lat="45.58963931675877" lon="8.702474393403326"><ele>153.75</ele><time>2026-04-07T11:08:04.002Z</time></trkpt><trkpt lat="45.58965026570413" lon="8.702272533990755"><ele>154.5</ele><time>2026-04-07T11:08:05.002Z</time></trkpt><trkpt lat="45.58966122038767" lon="8.702074091418698"><ele>155.25</ele><time>2026-04-07T11:08:06.002Z</time></trkpt><trkpt lat="45.589671579391776" lon="8.701872450009992"><ele>156.0</ele><time>2026-04-07T11:08:07.002Z</time></trkpt><trkpt lat="45.589682173321435" lon="8.701659953952028"><ele>156.33333333333334</ele><time>2026-04-07T11:08:08.002Z</time></trkpt><trkpt lat="45.58969307010744" lon="8.701447358919811"><ele>156.66666666666669</ele><time>2026-04-07T11:08:09.002Z</time></trkpt><trkpt lat="45.589704382160605" lon="8.701226662155047"><ele>157.0</ele><time>2026-04-07T11:08:10.002Z</time></trkpt><trkpt lat="45.58971683465183" lon="8.701005644197027"><ele>156.33333333333334</ele><time>2026-04-07T11:08:11.002Z</time></trkpt><trkpt lat="45.58973118493268" lon="8.700777781297056"><ele>155.66666666666666</ele><time>2026-04-07T11:08:12.002Z</time></trkpt><trkpt lat="45.58975115770464" lon="8.700556764947123"><ele>155.0</ele><time>2026-04-07T11:08:13.002Z</time></trkpt><trkpt lat="45.589783263166474" lon="8.700333863671922"><ele>155.0</ele><time>2026-04-07T11:08:14.002Z</time></trkpt><trkpt lat="45.58982675003873" lon="8.700106667352136"><ele>155.0</ele><time>2026-04-07T11:08:15.002Z</time></trkpt><trkpt lat="45.589879284680514" lon="8.699881496643643"><ele>155.0</ele><time>2026-04-07T11:08:16.002Z</time></trkpt><trkpt lat="45.589936524080535" lon="8.699650870609496"><ele>155.0</ele><time>2026-04-07T11:08:17.002Z</time></trkpt><trkpt lat="45.589995848203735" lon="8.69941913581102"><ele>155.0</ele><time>2026-04-07T11:08:18.002Z</time></trkpt><trkpt lat="45.59005652972787" lon="8.699182098742334"><ele>155.0</ele><time>2026-04-07T11:08:19.002Z</time></trkpt><trkpt lat="45.59011753429705" lon="8.698943799678561"><ele>155.0</ele><time>2026-04-07T11:08:20.002Z</time></trkpt><trkpt lat="45.59017858595821" lon="8.698705316578879"><ele>155.0</ele><time>2026-04-07T11:08:21.002Z</time></trkpt><trkpt lat="45.59024054536025" lon="8.698463287769563"><ele>155.0</ele><time>2026-04-07T11:08:22.002Z</time></trkpt><trkpt lat="45.5903019553688" lon="8.698223404808315"><ele>154.66666666666666</ele><time>2026-04-07T11:08:23.002Z</time></trkpt><trkpt lat="45.59036505659581" lon="8.697976529209475"><ele>154.33333333333334</ele><time>2026-04-07T11:08:24.002Z</time></trkpt><trkpt lat="45.59042424108329" lon="8.697744880604738"><ele>154.0</ele><time>2026-04-07T11:08:25.002Z</time></trkpt><trkpt lat="45.59048437954989" lon="8.697509498073785"><ele>154.0</ele><time>2026-04-07T11:08:26.002Z</time></trkpt><trkpt lat="45.5905444615939" lon="8.697274336441652"><ele>154.0</ele><time>2026-04-07T11:08:27.002Z</time></trkpt><trkpt lat="45.590603608355856" lon="8.697042835502668"><ele>154.0</ele><time>2026-04-07T11:08:28.002Z</time></trkpt><trkpt lat="45.590664550498616" lon="8.696804307478688"><ele>154.66666666666669</ele><time>2026-04-07T11:08:29.002Z</time></trkpt><trkpt lat="45.59072298811814" lon="8.696574445633356"><ele>155.33333333333334</ele><time>2026-04-07T11:08:30.002Z</time></trkpt><trkpt lat="45.59078130276627" lon="8.696344798428047"><ele>156.0</ele><time>2026-04-07T11:08:30.999Z</time></trkpt><trkpt lat="45.59084065621507" lon="8.696111060376824"><ele>156.0</ele><time>2026-04-07T11:08:31.999Z</time></trkpt><trkpt lat="45.59089960924099" lon="8.695878899412742"><ele>156.0</ele><time>2026-04-07T11:08:33Z</time></trkpt><trkpt lat="45.59095897887271" lon="8.69564509736385"><ele>156.0</ele><time>2026-04-07T11:08:33.999Z</time></trkpt><trkpt lat="45.59101819020924" lon="8.695410763030612"><ele>156.0</ele><time>2026-04-07T11:08:34.999Z</time></trkpt><trkpt lat="45.59106204627883" lon="8.695169571634622"><ele>156.0</ele><time>2026-04-07T11:08:36Z</time></trkpt><trkpt lat="45.59112184174412" lon="8.694941248522735"><ele>156.0</ele><time>2026-04-07T11:08:37Z</time></trkpt><trkpt lat="45.591185675036805" lon="8.694710612661858"><ele>156.0</ele><time>2026-04-07T11:08:37.999Z</time></trkpt><trkpt lat="45.59124534737773" lon="8.694479711294887"><ele>156.0</ele><time>2026-04-07T11:08:39Z</time></trkpt><trkpt lat="45.59130720911004" lon="8.694252335729454"><ele>156.0</ele><time>2026-04-07T11:08:40Z</time></trkpt><trkpt lat="45.591376659150086" lon="8.69402846966893"><ele>156.0</ele><time>2026-04-07T11:08:41Z</time></trkpt><trkpt lat="45.59145351734666" lon="8.693811904858137"><ele>156.0</ele><time>2026-04-07T11:08:42Z</time></trkpt><trkpt lat="45.59154394509361" lon="8.693602907877574"><ele>156.0</ele><time>2026-04-07T11:08:43Z</time></trkpt><trkpt lat="45.591646034538314" lon="8.693398381564307"><ele>156.33333333333334</ele><time>2026-04-07T11:08:44Z</time></trkpt><trkpt lat="45.59175856194018" lon="8.693195533876954"><ele>156.66666666666669</ele><time>2026-04-07T11:08:45Z</time></trkpt><trkpt lat="45.591875342226764" lon="8.693001021037636"><ele>157.0</ele><time>2026-04-07T11:08:46Z</time></trkpt><trkpt lat="45.591990118211896" lon="8.692798757629262"><ele>156.66666666666669</ele><time>2026-04-07T11:08:47Z</time></trkpt><trkpt lat="45.59210449353655" lon="8.692595643833931"><ele>156.33333333333334</ele><time>2026-04-07T11:08:48Z</time></trkpt><trkpt lat="45.59221695755806" lon="8.692392653226403"><ele>156.0</ele><time>2026-04-07T11:08:49Z</time></trkpt><trkpt lat="45.592328175227486" lon="8.692195175743256"><ele>156.0</ele><time>2026-04-07T11:08:50Z</time></trkpt><trkpt lat="45.59244323869566" lon="8.691997905656232"><ele>156.0</ele><time>2026-04-07T11:08:51Z</time></trkpt><trkpt lat="45.592554754677806" lon="8.691801764218342"><ele>156.0</ele><time>2026-04-07T11:08:52Z</time></trkpt><trkpt lat="45.59267004816125" lon="8.691600110541208"><ele>156.0</ele><time>2026-04-07T11:08:53Z</time></trkpt><trkpt lat="45.59278695713763" lon="8.69140132308013"><ele>156.0</ele><time>2026-04-07T11:08:54Z</time></trkpt><trkpt lat="45.59290129037652" lon="8.691198344307217"><ele>156.0</ele><time>2026-04-07T11:08:55Z</time></trkpt><trkpt lat="45.593015214120506" lon="8.69099975496565"><ele>155.66666666666666</ele><time>2026-04-07T11:08:56Z</time></trkpt><trkpt lat="45.593126218985674" lon="8.690804367261686"><ele>155.33333333333331</ele><time>2026-04-07T11:08:57Z</time></trkpt><trkpt lat="45.593236146357" lon="8.690610140710717"><ele>155.0</ele><time>2026-04-07T11:08:58Z</time></trkpt><trkpt lat="45.593345763918734" lon="8.690419703834904"><ele>155.0</ele><time>2026-04-07T11:08:59Z</time></trkpt><trkpt lat="45.59345558381594" lon="8.69022781460863"><ele>155.0</ele><time>2026-04-07T11:09:00Z</time></trkpt><trkpt lat="45.59356729757432" lon="8.690033355477206"><ele>155.0</ele><time>2026-04-07T11:09:01Z</time></trkpt><trkpt lat="45.59367859991616" lon="8.689841210696406"><ele>155.0</ele><time>2026-04-07T11:09:02Z</time></trkpt><trkpt lat="45.59378404644579" lon="8.689656919822452"><ele>155.0</ele><time>2026-04-07T11:09:03Z</time></trkpt><trkpt lat="45.593885905316185" lon="8.689475940960929"><ele>155.0</ele><time>2026-04-07T11:09:04Z</time></trkpt><trkpt lat="45.593977797809075" lon="8.689301185607688"><ele>155.0</ele><time>2026-04-07T11:09:05Z</time></trkpt><trkpt lat="45.59405728764316" lon="8.68913112072713"><ele>155.0</ele><time>2026-04-07T11:09:06Z</time></trkpt><trkpt lat="45.594120097750455" lon="8.688959234559539"><ele>155.0</ele><time>2026-04-07T11:09:07Z</time></trkpt><trkpt lat="45.59415966818801" lon="8.688779912296765"><ele>155.0</ele><time>2026-04-07T11:09:08Z</time></trkpt><trkpt lat="45.59420948919279" lon="8.68862344417179"><ele>155.0</ele><time>2026-04-07T11:09:09Z</time></trkpt><trkpt lat="45.594228828604564" lon="8.688470643334323"><ele>155.0</ele><time>2026-04-07T11:09:10Z</time></trkpt><trkpt lat="45.59427850879568" lon="8.688350219638474"><ele>155.0</ele><time>2026-04-07T11:09:11Z</time></trkpt><trkpt lat="45.59437972652616" lon="8.688282797053787"><ele>155.0</ele><time>2026-04-07T11:09:12Z</time></trkpt><trkpt lat="45.59446922373613" lon="8.68817286783884"><ele>155.0</ele><time>2026-04-07T11:09:13Z</time></trkpt><trkpt lat="45.59455228559827" lon="8.688039098026193"><ele>155.0</ele><time>2026-04-07T11:09:14Z</time></trkpt><trkpt lat="45.5946253483009" lon="8.687901213502705"><ele>155.0</ele><time>2026-04-07T11:09:15Z</time></trkpt><trkpt lat="45.594690675172885" lon="8.687739351013056"><ele>155.0</ele><time>2026-04-07T11:09:16Z</time></trkpt><trkpt lat="45.594750921812846" lon="8.687558615951707"><ele>155.0</ele><time>2026-04-07T11:09:17.001Z</time></trkpt><trkpt lat="45.59480915872595" lon="8.687375569735444"><ele>155.0</ele><time>2026-04-07T11:09:18.001Z</time></trkpt><trkpt lat="45.594864481605924" lon="8.687208927479086"><ele>155.0</ele><time>2026-04-07T11:09:19.001Z</time></trkpt><trkpt lat="45.59493314620215" lon="8.687060726137089"><ele>155.0</ele><time>2026-04-07T11:09:20.001Z</time></trkpt><trkpt lat="45.59502441144867" lon="8.68692224804108"><ele>155.0</ele><time>2026-04-07T11:09:21.001Z</time></trkpt><trkpt lat="45.59512058692053" lon="8.686785210007606"><ele>155.25</ele><time>2026-04-07T11:09:22.001Z</time></trkpt><trkpt lat="45.59522281135309" lon="8.686641696975538"><ele>155.5</ele><time>2026-04-07T11:09:23.001Z</time></trkpt><trkpt lat="45.59531229736318" lon="8.686481224349736"><ele>155.75</ele><time>2026-04-07T11:09:24.001Z</time></trkpt><trkpt lat="45.59540963921413" lon="8.686342479861938"><ele>156.0</ele><time>2026-04-07T11:09:25.001Z</time></trkpt><trkpt lat="45.595508007637285" lon="8.686203090186853"><ele>156.0</ele><time>2026-04-07T11:09:26.001Z</time></trkpt><trkpt lat="45.59560913995963" lon="8.686062707271393"><ele>156.0</ele><time>2026-04-07T11:09:27.001Z</time></trkpt><trkpt lat="45.5957087895516" lon="8.685918681317032"><ele>156.0</ele><time>2026-04-07T11:09:28.001Z</time></trkpt><trkpt lat="45.59581082633378" lon="8.685774229130267"><ele>156.0</ele><time>2026-04-07T11:09:29.001Z</time></trkpt><trkpt lat="45.5959125440382" lon="8.68563613634998"><ele>156.0</ele><time>2026-04-07T11:09:30.001Z</time></trkpt><trkpt lat="45.596014606262216" lon="8.685498738085029"><ele>156.0</ele><time>2026-04-07T11:09:31.001Z</time></trkpt><trkpt lat="45.59611215956371" lon="8.685351256432826"><ele>156.0</ele><time>2026-04-07T11:09:32.001Z</time></trkpt><trkpt lat="45.59620405026589" lon="8.685193329597414"><ele>156.0</ele><time>2026-04-07T11:09:33.001Z</time></trkpt><trkpt lat="45.59629178047436" lon="8.685021349051992"><ele>155.5</ele><time>2026-04-07T11:09:34.001Z</time></trkpt><trkpt lat="45.59637854200753" lon="8.68484755657645"><ele>155.0</ele><time>2026-04-07T11:09:35.001Z</time></trkpt><trkpt lat="45.596462717738326" lon="8.68468004893698"><ele>154.5</ele><time>2026-04-07T11:09:36.001Z</time></trkpt><trkpt lat="45.59654245599537" lon="8.684519643567315"><ele>154.0</ele><time>2026-04-07T11:09:37.001Z</time></trkpt><trkpt lat="45.59661684629924" lon="8.684364346807744"><ele>154.0</ele><time>2026-04-07T11:09:38.001Z</time></trkpt><trkpt lat="45.59669057813927" lon="8.684212574911687"><ele>154.0</ele><time>2026-04-07T11:09:39.001Z</time></trkpt><trkpt lat="45.596778014237806" lon="8.684073338401465"><ele>154.0</ele><time>2026-04-07T11:09:40.001Z</time></trkpt><trkpt lat="45.596852999934534" lon="8.683919831851453"><ele>154.0</ele><time>2026-04-07T11:09:41.001Z</time></trkpt><trkpt lat="45.59692496082644" lon="8.683770439697767"><ele>154.0</ele><time>2026-04-07T11:09:42.001Z</time></trkpt><trkpt lat="45.59698717081175" lon="8.683640468592767"><ele>154.0</ele><time>2026-04-07T11:09:43.001Z</time></trkpt><trkpt lat="45.59704586372914" lon="8.683517844745696"><ele>154.0</ele><time>2026-04-07T11:09:44.001Z</time></trkpt><trkpt lat="45.59709536318697" lon="8.683417355737513"><ele>154.0</ele><time>2026-04-07T11:09:45.001Z</time></trkpt><trkpt lat="45.5971245309819" lon="8.6833360771093"><ele>154.0</ele><time>2026-04-07T11:09:46.001Z</time></trkpt><trkpt lat="45.59720768596402" lon="8.683232479678036"><ele>155.0</ele><time>2026-04-07T11:09:48.001Z</time></trkpt><trkpt lat="45.597298116766495" lon="8.683285129460026"><ele>156.0</ele><time>2026-04-07T11:09:49.001Z</time></trkpt><trkpt lat="45.59738238611058" lon="8.683312545442357"><ele>157.0</ele><time>2026-04-07T11:09:50.001Z</time></trkpt><trkpt lat="45.59748509858935" lon="8.683333603848721"><ele>158.0</ele><time>2026-04-07T11:09:51.001Z</time></trkpt><trkpt lat="45.59758758038019" lon="8.683386736600792"><ele>159.0</ele><time>2026-04-07T11:09:52.001Z</time></trkpt><trkpt lat="45.59769654156525" lon="8.683434420057571"><ele>159.0</ele><time>2026-04-07T11:09:53.001Z</time></trkpt><trkpt lat="45.59780648974206" lon="8.683480471925936"><ele>159.0</ele><time>2026-04-07T11:09:54.001Z</time></trkpt><trkpt lat="45.5979109149037" lon="8.683523443406363"><ele>159.0</ele><time>2026-04-07T11:09:55.001Z</time></trkpt><trkpt lat="45.59800742286878" lon="8.683564204842527"><ele>159.0</ele><time>2026-04-07T11:09:56.001Z</time></trkpt><trkpt lat="45.59810636895781" lon="8.683600862700574"><ele>159.0</ele><time>2026-04-07T11:09:57.002Z</time></trkpt><trkpt lat="45.59820929761442" lon="8.683636532111901"><ele>159.0</ele><time>2026-04-07T11:09:58.002Z</time></trkpt><trkpt lat="45.59831802983568" lon="8.683679286911753"><ele>159.0</ele><time>2026-04-07T11:09:59.002Z</time></trkpt><trkpt lat="45.59842403107933" lon="8.683726978301165"><ele>159.0</ele><time>2026-04-07T11:10:00.002Z</time></trkpt><trkpt lat="45.598520456937415" lon="8.683772432459374"><ele>159.0</ele><time>2026-04-07T11:10:01.002Z</time></trkpt><trkpt lat="45.59860146309034" lon="8.683815056722413"><ele>159.0</ele><time>2026-04-07T11:10:02.002Z</time></trkpt><trkpt lat="45.598672718302836" lon="8.683855027872406"><ele>159.0</ele><time>2026-04-07T11:10:03.002Z</time></trkpt><trkpt lat="45.59873311399205" lon="8.683904324951545"><ele>159.0</ele><time>2026-04-07T11:10:04.002Z</time></trkpt><trkpt lat="45.59877983758072" lon="8.68398254514897"><ele>159.0</ele><time>2026-04-07T11:10:05.002Z</time></trkpt><trkpt lat="45.59879339417942" lon="8.684087364202872"><ele>159.0</ele><time>2026-04-07T11:10:06.002Z</time></trkpt><trkpt lat="45.598825103136605" lon="8.684186074895536"><ele>159.0</ele><time>2026-04-07T11:10:07.002Z</time></trkpt><trkpt lat="45.5988312758465" lon="8.684305285368376"><ele>159.0</ele><time>2026-04-07T11:10:08.002Z</time></trkpt><trkpt lat="45.598833223238344" lon="8.68439965381623"><ele>159.0</ele><time>2026-04-07T11:10:09.002Z</time></trkpt><trkpt lat="45.59883740566367" lon="8.684560331096666"><ele>158.4</ele><time>2026-04-07T11:10:11.002Z</time></trkpt><trkpt lat="45.598845196797555" lon="8.684671702337626"><ele>157.8</ele><time>2026-04-07T11:10:13.002Z</time></trkpt><trkpt lat="45.59893421035174" lon="8.684740875802715"><ele>157.2</ele><time>2026-04-07T11:12:34.002Z</time></trkpt><trkpt lat="45.599059673976036" lon="8.68468779642199"><ele>156.6</ele><time>2026-04-07T11:12:36.002Z</time></trkpt><trkpt lat="45.59915094621015" lon="8.684625452839304"><ele>156.0</ele><time>2026-04-07T11:12:37.002Z</time></trkpt><trkpt lat="45.5992766742733" lon="8.684592827717061"><ele>156.0</ele><time>2026-04-07T11:12:38.003Z</time></trkpt><trkpt lat="45.599384098154346" lon="8.684532822044824"><ele>156.0</ele><time>2026-04-07T11:12:39.003Z</time></trkpt><trkpt lat="45.5994724828099" lon="8.684484405601761"><ele>156.0</ele><time>2026-04-07T11:12:40.003Z</time></trkpt><trkpt lat="45.59956649476693" lon="8.684434338532776"><ele>156.0</ele><time>2026-04-07T11:12:41.003Z</time></trkpt><trkpt lat="45.599673103699445" lon="8.684379445300445"><ele>156.0</ele><time>2026-04-07T11:12:42.003Z</time></trkpt><trkpt lat="45.59977859399791" lon="8.68432512795422"><ele>156.4</ele><time>2026-04-07T11:12:43Z</time></trkpt><trkpt lat="45.59988803706446" lon="8.68426646279567"><ele>156.8</ele><time>2026-04-07T11:12:44Z</time></trkpt><trkpt lat="45.59999212203621" lon="8.684209670871294"><ele>157.20000000000002</ele><time>2026-04-07T11:12:45Z</time></trkpt><trkpt lat="45.60009154580587" lon="8.684154157301966"><ele>157.6</ele><time>2026-04-07T11:12:46Z</time></trkpt><trkpt lat="45.600189614482574" lon="8.684099650459487"><ele>158.0</ele><time>2026-04-07T11:12:47Z</time></trkpt><trkpt lat="45.60028266877413" lon="8.684048383339867"><ele>157.0</ele><time>2026-04-07T11:12:48Z</time></trkpt><trkpt lat="45.60038789179535" lon="8.683990240346427"><ele>156.0</ele><time>2026-04-07T11:12:49Z</time></trkpt><trkpt lat="45.60048472498616" lon="8.68393813446321"><ele>155.0</ele><time>2026-04-07T11:12:50Z</time></trkpt><trkpt lat="45.6005825292648" lon="8.683886873490962"><ele>154.0</ele><time>2026-04-07T11:12:51Z</time></trkpt><trkpt lat="45.60068377449934" lon="8.68383401135686"><ele>153.0</ele><time>2026-04-07T11:12:52Z</time></trkpt><trkpt lat="45.60078265046778" lon="8.683779684032226"><ele>153.0</ele><time>2026-04-07T11:12:53Z</time></trkpt><trkpt lat="45.600878291797315" lon="8.68370205665491"><ele>153.0</ele><time>2026-04-07T11:12:54Z</time></trkpt><trkpt lat="45.600979340173225" lon="8.683643468163078"><ele>153.0</ele><time>2026-04-07T11:12:55Z</time></trkpt><trkpt lat="45.60108216272043" lon="8.683577350028145"><ele>153.0</ele><time>2026-04-07T11:12:56Z</time></trkpt><trkpt lat="45.60118716006289" lon="8.683499420647383"><ele>154.0</ele><time>2026-04-07T11:12:57Z</time></trkpt><trkpt lat="45.6013003896555" lon="8.683443295402634"><ele>155.0</ele><time>2026-04-07T11:12:58Z</time></trkpt><trkpt lat="45.60139436593922" lon="8.68338004895135"><ele>156.0</ele><time>2026-04-07T11:12:59Z</time></trkpt><trkpt lat="45.60148685401802" lon="8.683322623082919"><ele>157.0</ele><time>2026-04-07T11:13:00Z</time></trkpt><trkpt lat="45.6015735194074" lon="8.68327094190798"><ele>158.0</ele><time>2026-04-07T11:13:01Z</time></trkpt><trkpt lat="45.60165867585246" lon="8.683215776526248"><ele>158.0</ele><time>2026-04-07T11:13:02Z</time></trkpt><trkpt lat="45.60172948711248" lon="8.683164331431502"><ele>158.0</ele><time>2026-04-07T11:13:03Z</time></trkpt><trkpt lat="45.60179595175668" lon="8.683099430740558"><ele>158.0</ele><time>2026-04-07T11:13:04Z</time></trkpt><trkpt lat="45.6018547320021" lon="8.683000387103524"><ele>158.0</ele><time>2026-04-07T11:13:05Z</time></trkpt><trkpt lat="45.60190924845315" lon="8.682883483753292"><ele>158.0</ele><time>2026-04-07T11:13:06Z</time></trkpt><trkpt lat="45.6019499595072" lon="8.682777404058228"><ele>158.0</ele><time>2026-04-07T11:13:07Z</time></trkpt><trkpt lat="45.60198796828017" lon="8.682680174890617"><ele>158.33333333333331</ele><time>2026-04-07T11:13:08Z</time></trkpt><trkpt lat="45.602012624867285" lon="8.682573059140974"><ele>158.66666666666666</ele><time>2026-04-07T11:13:09Z</time></trkpt><trkpt lat="45.60206935401313" lon="8.682504567491405"><ele>159.0</ele><time>2026-04-07T11:13:10Z</time></trkpt><trkpt lat="45.60210930862977" lon="8.682418475331183"><ele>159.33333333333334</ele><time>2026-04-07T11:13:11Z</time></trkpt><trkpt lat="45.60220746770243" lon="8.682390238540812"><ele>159.66666666666669</ele><time>2026-04-07T11:13:12Z</time></trkpt><trkpt lat="45.60229510034355" lon="8.682398188526795"><ele>160.0</ele><time>2026-04-07T11:13:13Z</time></trkpt><trkpt lat="45.60238610936555" lon="8.682416544495227"><ele>160.0</ele><time>2026-04-07T11:13:14Z</time></trkpt><trkpt lat="45.60247230629754" lon="8.682451624974659"><ele>160.0</ele><time>2026-04-07T11:13:15Z</time></trkpt><trkpt lat="45.60255406879812" lon="8.682432149371717"><ele>160.0</ele><time>2026-04-07T11:13:16Z</time></trkpt><trkpt lat="45.60264609677772" lon="8.68238824082491"><ele>160.0</ele><time>2026-04-07T11:13:17Z</time></trkpt><trkpt lat="45.60274746608023" lon="8.682311966951165"><ele>160.0</ele><time>2026-04-07T11:13:18Z</time></trkpt><trkpt lat="45.60285029952637" lon="8.682240661262036"><ele>160.0</ele><time>2026-04-07T11:13:19Z</time></trkpt><trkpt lat="45.60295680031833" lon="8.682160885271289"><ele>160.0</ele><time>2026-04-07T11:13:20.001Z</time></trkpt><trkpt lat="45.6030689482838" lon="8.682083572474498"><ele>160.0</ele><time>2026-04-07T11:13:21.001Z</time></trkpt><trkpt lat="45.60318172915102" lon="8.682013097878498"><ele>160.0</ele><time>2026-04-07T11:13:22.001Z</time></trkpt><trkpt lat="45.603288925882076" lon="8.681949602353182"><ele>160.25</ele><time>2026-04-07T11:13:23.001Z</time></trkpt><trkpt lat="45.60339996712634" lon="8.681884083742453"><ele>160.5</ele><time>2026-04-07T11:13:24.001Z</time></trkpt><trkpt lat="45.60351390645674" lon="8.681817227969521"><ele>160.75</ele><time>2026-04-07T11:13:25.001Z</time></trkpt><trkpt lat="45.6036331288682" lon="8.681757055625843"><ele>161.0</ele><time>2026-04-07T11:13:26.001Z</time></trkpt><trkpt lat="45.60374677682608" lon="8.6817001533881"><ele>161.0</ele><time>2026-04-07T11:13:27.001Z</time></trkpt><trkpt lat="45.60386225556472" lon="8.68164396219247"><ele>161.0</ele><time>2026-04-07T11:13:28.001Z</time></trkpt><trkpt lat="45.60397380218839" lon="8.681590920956248"><ele>161.0</ele><time>2026-04-07T11:13:29.001Z</time></trkpt><trkpt lat="45.604079153143196" lon="8.681546113280476"><ele>161.0</ele><time>2026-04-07T11:13:30.001Z</time></trkpt><trkpt lat="45.604186966243496" lon="8.681497629292858"><ele>161.0</ele><time>2026-04-07T11:13:31.001Z</time></trkpt><trkpt lat="45.60430067296363" lon="8.681445762588332"><ele>161.0</ele><time>2026-04-07T11:13:32.001Z</time></trkpt><trkpt lat="45.60441380342519" lon="8.681396750103378"><ele>161.0</ele><time>2026-04-07T11:13:33.001Z</time></trkpt><trkpt lat="45.60452663264699" lon="8.68135048901933"><ele>161.0</ele><time>2026-04-07T11:13:34.001Z</time></trkpt><trkpt lat="45.60464082133345" lon="8.681309400065492"><ele>160.25</ele><time>2026-04-07T11:13:35.001Z</time></trkpt><trkpt lat="45.60474739351883" lon="8.681271375589017"><ele>159.5</ele><time>2026-04-07T11:13:36.001Z</time></trkpt><trkpt lat="45.60485811050522" lon="8.681237221335074"><ele>158.75</ele><time>2026-04-07T11:13:37.001Z</time></trkpt><trkpt lat="45.60497458946206" lon="8.681209511561864"><ele>158.0</ele><time>2026-04-07T11:13:38.001Z</time></trkpt><trkpt lat="45.605091647188324" lon="8.681183074847453"><ele>158.0</ele><time>2026-04-07T11:13:39.001Z</time></trkpt><trkpt lat="45.6051915143113" lon="8.681156805623058"><ele>158.0</ele><time>2026-04-07T11:13:40.001Z</time></trkpt><trkpt lat="45.605277496148545" lon="8.6811391810503"><ele>158.0</ele><time>2026-04-07T11:13:41.001Z</time></trkpt><trkpt lat="45.60535891007547" lon="8.681122118688506"><ele>158.0</ele><time>2026-04-07T11:13:42.001Z</time></trkpt><trkpt lat="45.6054506400712" lon="8.681081318866223"><ele>158.0</ele><time>2026-04-07T11:13:43.001Z</time></trkpt><trkpt lat="45.605538372476765" lon="8.68103203450256"><ele>158.4</ele><time>2026-04-07T11:13:44.001Z</time></trkpt><trkpt lat="45.60563817905555" lon="8.68097267343119"><ele>158.8</ele><time>2026-04-07T11:13:45.001Z</time></trkpt><trkpt lat="45.60573857255429" lon="8.680938415077012"><ele>159.2</ele><time>2026-04-07T11:13:46.001Z</time></trkpt><trkpt lat="45.60584941507952" lon="8.680921582952637"><ele>159.6</ele><time>2026-04-07T11:13:47.001Z</time></trkpt><trkpt lat="45.60596973271315" lon="8.68090171086183"><ele>160.0</ele><time>2026-04-07T11:13:48.001Z</time></trkpt><trkpt lat="45.60609775291427" lon="8.680868102034836"><ele>160.25</ele><time>2026-04-07T11:13:49.001Z</time></trkpt><trkpt lat="45.60622040254136" lon="8.680829308000892"><ele>160.5</ele><time>2026-04-07T11:13:50.001Z</time></trkpt><trkpt lat="45.60634242311454" lon="8.680790393129962"><ele>160.75</ele><time>2026-04-07T11:13:51.001Z</time></trkpt><trkpt lat="45.60645771683717" lon="8.680749021825232"><ele>161.0</ele><time>2026-04-07T11:13:52.001Z</time></trkpt><trkpt lat="45.60657335900611" lon="8.680698017592889"><ele>161.0</ele><time>2026-04-07T11:13:53.001Z</time></trkpt><trkpt lat="45.60668615724347" lon="8.680648608698828"><ele>161.0</ele><time>2026-04-07T11:13:54.001Z</time></trkpt><trkpt lat="45.606801176965014" lon="8.680601473696592"><ele>161.0</ele><time>2026-04-07T11:13:55.001Z</time></trkpt><trkpt lat="45.60691659551173" lon="8.680552983846383"><ele>161.0</ele><time>2026-04-07T11:13:56.002Z</time></trkpt><trkpt lat="45.60703184878163" lon="8.680504580948213"><ele>160.60000000000002</ele><time>2026-04-07T11:13:57.002Z</time></trkpt><trkpt lat="45.60714245916326" lon="8.68045970569247"><ele>160.20000000000002</ele><time>2026-04-07T11:13:58.002Z</time></trkpt><trkpt lat="45.607248954159566" lon="8.680408196745173"><ele>159.8</ele><time>2026-04-07T11:13:59.002Z</time></trkpt><trkpt lat="45.607353890846284" lon="8.68035022355539"><ele>159.4</ele><time>2026-04-07T11:14:00.002Z</time></trkpt><trkpt lat="45.60745379864807" lon="8.680302481233207"><ele>159.0</ele><time>2026-04-07T11:14:01.002Z</time></trkpt><trkpt lat="45.607546833640946" lon="8.680266757149095"><ele>159.16666666666666</ele><time>2026-04-07T11:14:02.002Z</time></trkpt><trkpt lat="45.607644640330335" lon="8.680226978623288"><ele>159.33333333333334</ele><time>2026-04-07T11:14:03.002Z</time></trkpt><trkpt lat="45.60773718803889" lon="8.680190634188756"><ele>159.5</ele><time>2026-04-07T11:14:04.002Z</time></trkpt><trkpt lat="45.60781515780078" lon="8.680169435266988"><ele>159.66666666666669</ele><time>2026-04-07T11:14:05.002Z</time></trkpt><trkpt lat="45.607879538541454" lon="8.680146491434867"><ele>159.83333333333334</ele><time>2026-04-07T11:14:06.002Z</time></trkpt><trkpt lat="45.60795831110023" lon="8.68013398929581"><ele>160.0</ele><time>2026-04-07T11:14:07.002Z</time></trkpt><trkpt lat="45.608025078754125" lon="8.680120734583884"><ele>160.2</ele><time>2026-04-07T11:14:08.002Z</time></trkpt><trkpt lat="45.608114306701744" lon="8.680078792667146"><ele>160.4</ele><time>2026-04-07T11:14:10.002Z</time></trkpt><trkpt lat="45.60815812218198" lon="8.67997662146525"><ele>160.60000000000002</ele><time>2026-04-07T11:14:12.002Z</time></trkpt><trkpt lat="45.60814326456036" lon="8.679821086881155"><ele>160.8</ele><time>2026-04-07T11:14:14.002Z</time></trkpt><trkpt lat="45.608114904808474" lon="8.67972081117431"><ele>161.0</ele><time>2026-04-07T11:14:15.002Z</time></trkpt><trkpt lat="45.608079079494324" lon="8.679600916389445"><ele>161.0</ele><time>2026-04-07T11:14:16.002Z</time></trkpt><trkpt lat="45.60804228990233" lon="8.679477868123973"><ele>161.0</ele><time>2026-04-07T11:14:17.002Z</time></trkpt><trkpt lat="45.60801241650497" lon="8.679344644751394"><ele>161.0</ele><time>2026-04-07T11:14:18.002Z</time></trkpt><trkpt lat="45.6079905471552" lon="8.679215787007609"><ele>161.0</ele><time>2026-04-07T11:14:19.002Z</time></trkpt><trkpt lat="45.607984602997526" lon="8.679064488056424"><ele>161.0</ele><time>2026-04-07T11:14:20.002Z</time></trkpt><trkpt lat="45.60797764347838" lon="8.67892993859172"><ele>161.0</ele><time>2026-04-07T11:14:21.002Z</time></trkpt><trkpt lat="45.60797353183441" lon="8.678794226786046"><ele>161.0</ele><time>2026-04-07T11:14:22.002Z</time></trkpt><trkpt lat="45.60797027823142" lon="8.67865599897599"><ele>161.0</ele><time>2026-04-07T11:14:23.002Z</time></trkpt><trkpt lat="45.60796733422035" lon="8.678519392130776"><ele>161.0</ele><time>2026-04-07T11:14:24.002Z</time></trkpt><trkpt lat="45.60796488847076" lon="8.678400207790139"><ele>161.0</ele><time>2026-04-07T11:14:25.002Z</time></trkpt><trkpt lat="45.60795769100236" lon="8.678263724034128"><ele>161.0</ele><time>2026-04-07T11:14:26.002Z</time></trkpt><trkpt lat="45.60794741631415" lon="8.67811978291569"><ele>161.0</ele><time>2026-04-07T11:14:27.002Z</time></trkpt><trkpt lat="45.60793510668281" lon="8.677987803879276"><ele>161.0</ele><time>2026-04-07T11:14:28.002Z</time></trkpt><trkpt lat="45.607921934017924" lon="8.677880059174635"><ele>161.0</ele><time>2026-04-07T11:14:29.002Z</time></trkpt><trkpt lat="45.607909213245584" lon="8.677783263607937"><ele>161.0</ele><time>2026-04-07T11:14:30.002Z</time></trkpt><trkpt lat="45.607915316272674" lon="8.677658275112975"><ele>161.0</ele><time>2026-04-07T11:14:32.002Z</time></trkpt><trkpt lat="45.60802307411381" lon="8.677559102218302"><ele>163.25</ele><time>2026-04-07T11:14:34.003Z</time></trkpt><trkpt lat="45.60811681561209" lon="8.677543734406697"><ele>165.5</ele><time>2026-04-07T11:14:35.003Z</time></trkpt><trkpt lat="45.60822653277537" lon="8.677524521934513"><ele>167.75</ele><time>2026-04-07T11:14:36.003Z</time></trkpt><trkpt lat="45.6083465564564" lon="8.67750020216455"><ele>170.0</ele><time>2026-04-07T11:14:37.003Z</time></trkpt><trkpt lat="45.608476872881134" lon="8.677473319394958"><ele>170.0</ele><time>2026-04-07T11:14:38.003Z</time></trkpt><trkpt lat="45.60861188982192" lon="8.677447895130616"><ele>170.0</ele><time>2026-04-07T11:14:39.003Z</time></trkpt><trkpt lat="45.608742748387876" lon="8.677421936636694"><ele>170.0</ele><time>2026-04-07T11:14:40.003Z</time></trkpt><trkpt lat="45.6088841569918" lon="8.67740254615373"><ele>170.0</ele><time>2026-04-07T11:14:41.003Z</time></trkpt><trkpt lat="45.60902869063823" lon="8.677371781488825"><ele>169.33333333333331</ele><time>2026-04-07T11:14:42.003Z</time></trkpt><trkpt lat="45.60917470055475" lon="8.67733484676776"><ele>168.66666666666666</ele><time>2026-04-07T11:14:43.003Z</time></trkpt><trkpt lat="45.609322622767856" lon="8.67729640407494"><ele>168.0</ele><time>2026-04-07T11:14:44.003Z</time></trkpt><trkpt lat="45.60947221073118" lon="8.677257737136044"><ele>167.0</ele><time>2026-04-07T11:14:45.003Z</time></trkpt><trkpt lat="45.60962431521485" lon="8.677223016283026"><ele>166.0</ele><time>2026-04-07T11:14:46.003Z</time></trkpt><trkpt lat="45.60978844722959" lon="8.677185343129317"><ele>165.0</ele><time>2026-04-07T11:14:47.003Z</time></trkpt><trkpt lat="45.6099361755167" lon="8.677151989212486"><ele>165.0</ele><time>2026-04-07T11:14:48.003Z</time></trkpt><trkpt lat="45.610077682094804" lon="8.677116964602286"><ele>165.0</ele><time>2026-04-07T11:14:48.999Z</time></trkpt><trkpt lat="45.610230155658265" lon="8.677090710639238"><ele>165.0</ele><time>2026-04-07T11:14:49.999Z</time></trkpt><trkpt lat="45.61037638148372" lon="8.677062180450898"><ele>165.0</ele><time>2026-04-07T11:14:50.999Z</time></trkpt><trkpt lat="45.61052859908587" lon="8.677028887419402"><ele>164.33333333333334</ele><time>2026-04-07T11:14:51.999Z</time></trkpt><trkpt lat="45.61067928699627" lon="8.676993950849807"><ele>163.66666666666669</ele><time>2026-04-07T11:14:52.999Z</time></trkpt><trkpt lat="45.61083079897201" lon="8.676959653657303"><ele>163.0</ele><time>2026-04-07T11:14:53.999Z</time></trkpt><trkpt lat="45.61097924427491" lon="8.676913375771182"><ele>163.0</ele><time>2026-04-07T11:14:54.999Z</time></trkpt><trkpt lat="45.61112981593505" lon="8.67685678692218"><ele>163.0</ele><time>2026-04-07T11:14:55.999Z</time></trkpt><trkpt lat="45.61128104270691" lon="8.676802083772087"><ele>163.0</ele><time>2026-04-07T11:14:56.999Z</time></trkpt><trkpt lat="45.61142281281326" lon="8.67675446483677"><ele>162.25</ele><time>2026-04-07T11:14:57.999Z</time></trkpt><trkpt lat="45.61155270675176" lon="8.676707781020152"><ele>161.5</ele><time>2026-04-07T11:14:58.999Z</time></trkpt><trkpt lat="45.61167933169559" lon="8.676663031514812"><ele>160.75</ele><time>2026-04-07T11:14:59.999Z</time></trkpt><trkpt lat="45.61181553706768" lon="8.6766183533132"><ele>160.0</ele><time>2026-04-07T11:15:00.999Z</time></trkpt><trkpt lat="45.61195396073023" lon="8.676570265030097"><ele>160.25</ele><time>2026-04-07T11:15:01.999Z</time></trkpt><trkpt lat="45.61209022891737" lon="8.676520558969777"><ele>160.5</ele><time>2026-04-07T11:15:02.999Z</time></trkpt><trkpt lat="45.6122274123292" lon="8.676472082741002"><ele>160.75</ele><time>2026-04-07T11:15:03.999Z</time></trkpt><trkpt lat="45.61236420341959" lon="8.676425462214391"><ele>161.0</ele><time>2026-04-07T11:15:05Z</time></trkpt><trkpt lat="45.61249591087193" lon="8.676381927686178"><ele>161.0</ele><time>2026-04-07T11:15:06Z</time></trkpt><trkpt lat="45.61262358253594" lon="8.67633443696355"><ele>161.0</ele><time>2026-04-07T11:15:07Z</time></trkpt><trkpt lat="45.61274390229569" lon="8.676287394555175"><ele>161.0</ele><time>2026-04-07T11:15:08Z</time></trkpt><trkpt lat="45.612853171310405" lon="8.676249897952"><ele>161.0</ele><time>2026-04-07T11:15:09Z</time></trkpt><trkpt lat="45.61295699182464" lon="8.676216215466468"><ele>161.20000000000002</ele><time>2026-04-07T11:15:10Z</time></trkpt><trkpt lat="45.61306522033918" lon="8.676183161786852"><ele>161.4</ele><time>2026-04-07T11:15:11Z</time></trkpt><trkpt lat="45.61317134003249" lon="8.676147213396444"><ele>161.6</ele><time>2026-04-07T11:15:12Z</time></trkpt><trkpt lat="45.613259980607225" lon="8.676115729166453"><ele>161.8</ele><time>2026-04-07T11:15:13Z</time></trkpt><trkpt lat="45.61334255802865" lon="8.676087260480083"><ele>162.0</ele><time>2026-04-07T11:15:14Z</time></trkpt><trkpt lat="45.61341009467256" lon="8.67605755048922"><ele>162.0</ele><time>2026-04-07T11:15:15Z</time></trkpt><trkpt lat="45.613495469142045" lon="8.676017348430753"><ele>162.0</ele><time>2026-04-07T11:15:17Z</time></trkpt><trkpt lat="45.61354741020265" lon="8.675918545078405"><ele>162.0</ele><time>2026-04-07T11:15:19Z</time></trkpt><trkpt lat="45.61355314755366" lon="8.67575241467196"><ele>162.0</ele><time>2026-04-07T11:15:21Z</time></trkpt><trkpt lat="45.61355215080134" lon="8.675637136190261"><ele>162.0</ele><time>2026-04-07T11:15:22Z</time></trkpt><trkpt lat="45.61356699400425" lon="8.675507381876342"><ele>162.0</ele><time>2026-04-07T11:15:23Z</time></trkpt><trkpt lat="45.61359485557493" lon="8.67536885935665"><ele>162.0</ele><time>2026-04-07T11:15:24Z</time></trkpt><trkpt lat="45.613635538895316" lon="8.675203093902622"><ele>162.0</ele><time>2026-04-07T11:15:25Z</time></trkpt><trkpt lat="45.61368709242215" lon="8.675013321701023"><ele>162.0</ele><time>2026-04-07T11:15:26Z</time></trkpt><trkpt lat="45.61373786296626" lon="8.674825068067486"><ele>162.0</ele><time>2026-04-07T11:15:27Z</time></trkpt><trkpt lat="45.613788429376974" lon="8.67462669464299"><ele>162.0</ele><time>2026-04-07T11:15:28Z</time></trkpt><trkpt lat="45.613841941586955" lon="8.674393734018388"><ele>162.0</ele><time>2026-04-07T11:15:29Z</time></trkpt><trkpt lat="45.6139017964185" lon="8.674163065449228"><ele>162.75</ele><time>2026-04-07T11:15:30.001Z</time></trkpt><trkpt lat="45.61395937188015" lon="8.673960572039787"><ele>163.5</ele><time>2026-04-07T11:15:31.001Z</time></trkpt><trkpt lat="45.614008803309474" lon="8.673773663841942"><ele>164.25</ele><time>2026-04-07T11:15:32.001Z</time></trkpt><trkpt lat="45.61405210618349" lon="8.67360446180745"><ele>165.0</ele><time>2026-04-07T11:15:33.001Z</time></trkpt><trkpt lat="45.614086246919264" lon="8.673466416884729"><ele>165.0</ele><time>2026-04-07T11:15:34.001Z</time></trkpt><trkpt lat="45.61411981689842" lon="8.67333188690134"><ele>165.0</ele><time>2026-04-07T11:15:35.001Z</time></trkpt><trkpt lat="45.61414545740696" lon="8.673225809553564"><ele>165.0</ele><time>2026-04-07T11:15:36.001Z</time></trkpt><trkpt lat="45.61417837850702" lon="8.673111207616351"><ele>165.0</ele><time>2026-04-07T11:15:38.001Z</time></trkpt><trkpt lat="45.614248520445514" lon="8.673091705344719"><ele>165.0</ele><time>2026-04-07T11:15:40.001Z</time></trkpt><trkpt lat="45.614305595008425" lon="8.673191107655455"><ele>165.0</ele><time>2026-04-07T11:15:42.001Z</time></trkpt><trkpt lat="45.614385750158014" lon="8.673231514506892"><ele>165.0</ele><time>2026-04-07T11:15:46.001Z</time></trkpt><trkpt lat="45.6144502243358" lon="8.673200467607789"><ele>165.0</ele><time>2026-04-07T11:15:47.001Z</time></trkpt><trkpt lat="45.61451453352408" lon="8.673125719395399"><ele>165.0</ele><time>2026-04-07T11:15:48.001Z</time></trkpt><trkpt lat="45.61459246111711" lon="8.673070761474191"><ele>165.0</ele><time>2026-04-07T11:15:49.001Z</time></trkpt><trkpt lat="45.614664711844576" lon="8.673009811680057"><ele>165.0</ele><time>2026-04-07T11:15:50.001Z</time></trkpt><trkpt lat="45.61472398013846" lon="8.67296523486333"><ele>165.0</ele><time>2026-04-07T11:15:51.001Z</time></trkpt><trkpt lat="45.614802307481185" lon="8.67290551727141"><ele>165.0</ele><time>2026-04-07T11:15:53.001Z</time></trkpt><trkpt lat="45.61497200273099" lon="8.672789038021136"><ele>165.0</ele><time>2026-04-07T11:18:01.002Z</time></trkpt><trkpt lat="45.615055048891016" lon="8.672720516967887"><ele>165.0</ele><time>2026-04-07T11:18:03.002Z</time></trkpt><trkpt lat="45.61512558143842" lon="8.672655889407409"><ele>165.0</ele><time>2026-04-07T11:18:05.002Z</time></trkpt><trkpt lat="45.61521470850489" lon="8.67254945994988"><ele>165.0</ele><time>2026-04-07T11:18:07.002Z</time></trkpt><trkpt lat="45.61524685919053" lon="8.672458299456446"><ele>165.0</ele><time>2026-04-07T11:18:08.002Z</time></trkpt><trkpt lat="45.61527078373655" lon="8.672352119301527"><ele>165.0</ele><time>2026-04-07T11:18:09.002Z</time></trkpt><trkpt lat="45.6152991859841" lon="8.672226529751628"><ele>165.0</ele><time>2026-04-07T11:18:10.002Z</time></trkpt><trkpt lat="45.615325178522156" lon="8.67208769870439"><ele>165.0</ele><time>2026-04-07T11:18:11.002Z</time></trkpt><trkpt lat="45.6153566034829" lon="8.671946034547531"><ele>165.0</ele><time>2026-04-07T11:18:12.002Z</time></trkpt><trkpt lat="45.6153832693577" lon="8.671807935781322"><ele>164.4</ele><time>2026-04-07T11:18:13.002Z</time></trkpt><trkpt lat="45.61541639082984" lon="8.671667043462362"><ele>163.8</ele><time>2026-04-07T11:18:14.002Z</time></trkpt><trkpt lat="45.6154487814994" lon="8.671526852471743"><ele>163.2</ele><time>2026-04-07T11:18:15.002Z</time></trkpt><trkpt lat="45.615478250214515" lon="8.671388925565532"><ele>162.6</ele><time>2026-04-07T11:18:16.002Z</time></trkpt><trkpt lat="45.61551111593011" lon="8.671244657618672"><ele>162.0</ele><time>2026-04-07T11:18:17.002Z</time></trkpt><trkpt lat="45.615557289871106" lon="8.671126746753641"><ele>162.2</ele><time>2026-04-07T11:18:18.002Z</time></trkpt><trkpt lat="45.61556994636958" lon="8.670985495957163"><ele>162.39999999999998</ele><time>2026-04-07T11:18:19.002Z</time></trkpt><trkpt lat="45.61558467102422" lon="8.670894481508647"><ele>162.60000000000002</ele><time>2026-04-07T11:18:20.002Z</time></trkpt><trkpt lat="45.615592617541225" lon="8.670803137813511"><ele>162.8</ele><time>2026-04-07T11:18:21.002Z</time></trkpt><trkpt lat="45.61558074579668" lon="8.670651195934175"><ele>163.0</ele><time>2026-04-07T11:18:23.002Z</time></trkpt><trkpt lat="45.61549243933106" lon="8.670518394490095"><ele>163.0</ele><time>2026-04-07T11:18:25.002Z</time></trkpt><trkpt lat="45.61544181208165" lon="8.670449263902634"><ele>163.0</ele><time>2026-04-07T11:18:26.002Z</time></trkpt><trkpt lat="45.61539971208624" lon="8.670348265854352"><ele>163.0</ele><time>2026-04-07T11:18:27.002Z</time></trkpt><trkpt lat="45.615377823579735" lon="8.670226950886224"><ele>163.0</ele><time>2026-04-07T11:18:28.002Z</time></trkpt><trkpt lat="45.61536346081027" lon="8.6700958973915"><ele>163.0</ele><time>2026-04-07T11:18:29.002Z</time></trkpt><trkpt lat="45.61534466864171" lon="8.669981726602638"><ele>163.0</ele><time>2026-04-07T11:18:30.002Z</time></trkpt><trkpt lat="45.61532488446938" lon="8.669879017496108"><ele>163.16666666666669</ele><time>2026-04-07T11:18:31.002Z</time></trkpt><trkpt lat="45.615314970273765" lon="8.66978468508459"><ele>163.33333333333334</ele><time>2026-04-07T11:18:32.003Z</time></trkpt><trkpt lat="45.6153067652722" lon="8.669665944808967"><ele>163.5</ele><time>2026-04-07T11:18:34.003Z</time></trkpt><trkpt lat="45.615367079395575" lon="8.669593001515539"><ele>163.66666666666666</ele><time>2026-04-07T11:18:36.003Z</time></trkpt><trkpt lat="45.615438696642045" lon="8.669575313319404"><ele>163.83333333333331</ele><time>2026-04-07T11:18:37.003Z</time></trkpt><trkpt lat="45.61552257753615" lon="8.669563606217835"><ele>164.0</ele><time>2026-04-07T11:18:38.003Z</time></trkpt><trkpt lat="45.61561309427183" lon="8.669539966031957"><ele>164.16666666666666</ele><time>2026-04-07T11:18:39.003Z</time></trkpt><trkpt lat="45.61568872640025" lon="8.669507983813844"><ele>164.33333333333331</ele><time>2026-04-07T11:18:40.003Z</time></trkpt><trkpt lat="45.61574364034134" lon="8.669441589444826"><ele>164.5</ele><time>2026-04-07T11:18:41.003Z</time></trkpt><trkpt lat="45.61579338907518" lon="8.669386347264862"><ele>164.66666666666666</ele><time>2026-04-07T11:18:42.003Z</time></trkpt><trkpt lat="45.61583528075973" lon="8.669306268807166"><ele>164.83333333333334</ele><time>2026-04-07T11:18:43.003Z</time></trkpt><trkpt lat="45.61587961544277" lon="8.669201562546624"><ele>165.0</ele><time>2026-04-07T11:18:44.003Z</time></trkpt><trkpt lat="45.615917146251675" lon="8.66906799853892"><ele>165.0</ele><time>2026-04-07T11:18:45.003Z</time></trkpt><trkpt lat="45.61595362668992" lon="8.668932459597332"><ele>165.0</ele><time>2026-04-07T11:18:46.003Z</time></trkpt><trkpt lat="45.61599996831398" lon="8.668792995114165"><ele>165.0</ele><time>2026-04-07T11:18:47.003Z</time></trkpt><trkpt lat="45.61606278965403" lon="8.668642545457544"><ele>165.0</ele><time>2026-04-07T11:18:48.003Z</time></trkpt><trkpt lat="45.61613043174184" lon="8.668524449111382"><ele>165.0</ele><time>2026-04-07T11:18:49.003Z</time></trkpt><trkpt lat="45.61621320426941" lon="8.668420398644914"><ele>165.2</ele><time>2026-04-07T11:18:50.003Z</time></trkpt><trkpt lat="45.61630003080455" lon="8.6683248277859"><ele>165.4</ele><time>2026-04-07T11:18:51.003Z</time></trkpt><trkpt lat="45.61638386825479" lon="8.668220134449665"><ele>165.60000000000002</ele><time>2026-04-07T11:18:52.003Z</time></trkpt><trkpt lat="45.61646393659991" lon="8.668115074975253"><ele>165.8</ele><time>2026-04-07T11:18:53.003Z</time></trkpt><trkpt lat="45.61653687072401" lon="8.668009989872829"><ele>166.0</ele><time>2026-04-07T11:18:54.003Z</time></trkpt><trkpt lat="45.616618070242005" lon="8.667900425351052"><ele>166.0</ele><time>2026-04-07T11:18:55.003Z</time></trkpt><trkpt lat="45.616700330341395" lon="8.667806731752254"><ele>166.0</ele><time>2026-04-07T11:18:56.003Z</time></trkpt><trkpt lat="45.6167862919088" lon="8.667718850557165"><ele>166.0</ele><time>2026-04-07T11:18:57.003Z</time></trkpt><trkpt lat="45.61686879349702" lon="8.667641801459764"><ele>166.0</ele><time>2026-04-07T11:18:58.003Z</time></trkpt><trkpt lat="45.61694955447536" lon="8.667579287138791"><ele>166.0</ele><time>2026-04-07T11:18:59.003Z</time></trkpt><trkpt lat="45.61703469770073" lon="8.667522518366702"><ele>166.5</ele><time>2026-04-07T11:19:00.003Z</time></trkpt><trkpt lat="45.617124751085406" lon="8.667456566433806"><ele>167.0</ele><time>2026-04-07T11:19:01.001Z</time></trkpt><trkpt lat="45.6172084550613" lon="8.667366317966556"><ele>167.5</ele><time>2026-04-07T11:19:02.001Z</time></trkpt><trkpt lat="45.61731236484002" lon="8.667267793982449"><ele>168.0</ele><time>2026-04-07T11:19:03.001Z</time></trkpt><trkpt lat="45.617416044143035" lon="8.667180639154331"><ele>168.0</ele><time>2026-04-07T11:19:04.001Z</time></trkpt><trkpt lat="45.61751975922767" lon="8.66711857029341"><ele>168.0</ele><time>2026-04-07T11:19:05.001Z</time></trkpt><trkpt lat="45.61761565194562" lon="8.667064321084954"><ele>168.0</ele><time>2026-04-07T11:19:06.001Z</time></trkpt><trkpt lat="45.61770794824967" lon="8.667011392004357"><ele>168.0</ele><time>2026-04-07T11:19:07.001Z</time></trkpt><trkpt lat="45.61779203954734" lon="8.666972857769222"><ele>168.0</ele><time>2026-04-07T11:19:08.001Z</time></trkpt><trkpt lat="45.617862655254285" lon="8.666945020600966"><ele>168.2</ele><time>2026-04-07T11:19:09.001Z</time></trkpt><trkpt lat="45.61795981977531" lon="8.666895723176465"><ele>168.4</ele><time>2026-04-07T11:19:11Z</time></trkpt><trkpt lat="45.617988474937526" lon="8.666784071873746"><ele>168.6</ele><time>2026-04-07T11:19:13Z</time></trkpt><trkpt lat="45.61791548327584" lon="8.666631473355016"><ele>168.79999999999998</ele><time>2026-04-07T11:19:15Z</time></trkpt><trkpt lat="45.617850412783525" lon="8.666543332600892"><ele>169.0</ele><time>2026-04-07T11:19:16Z</time></trkpt><trkpt lat="45.617800492695196" lon="8.666461017196578"><ele>169.0</ele><time>2026-04-07T11:19:17Z</time></trkpt><trkpt lat="45.617786107216006" lon="8.666309148507963"><ele>169.0</ele><time>2026-04-07T11:19:19.001Z</time></trkpt><trkpt lat="45.61782153347774" lon="8.666195594553141"><ele>169.0</ele><time>2026-04-07T11:19:20.001Z</time></trkpt><trkpt lat="45.617875727584725" lon="8.666064005450357"><ele>169.0</ele><time>2026-04-07T11:19:21.001Z</time></trkpt><trkpt lat="45.6179315813265" lon="8.665939461882889"><ele>169.0</ele><time>2026-04-07T11:19:22.001Z</time></trkpt><trkpt lat="45.6179763830829" lon="8.665831298695846"><ele>168.2</ele><time>2026-04-07T11:19:23.001Z</time></trkpt><trkpt lat="45.618012615943975" lon="8.665712540498237"><ele>167.39999999999998</ele><time>2026-04-07T11:19:24.001Z</time></trkpt><trkpt lat="45.61804004934841" lon="8.66558252211158"><ele>166.6</ele><time>2026-04-07T11:19:25.001Z</time></trkpt><trkpt lat="45.61805414697322" lon="8.66542214394574"><ele>165.8</ele><time>2026-04-07T11:19:26.001Z</time></trkpt><trkpt lat="45.61806602702455" lon="8.665245185823702"><ele>165.0</ele><time>2026-04-07T11:19:27.001Z</time></trkpt><trkpt lat="45.61808260182886" lon="8.66507737957202"><ele>164.75</ele><time>2026-04-07T11:19:28.001Z</time></trkpt><trkpt lat="45.61809858897082" lon="8.664916975142201"><ele>164.5</ele><time>2026-04-07T11:19:29.001Z</time></trkpt><trkpt lat="45.618130894007805" lon="8.664768006642701"><ele>164.25</ele><time>2026-04-07T11:19:30.001Z</time></trkpt><trkpt lat="45.61818186442825" lon="8.664618269062482"><ele>164.0</ele><time>2026-04-07T11:19:31.001Z</time></trkpt><trkpt lat="45.618249741073974" lon="8.664466896298935"><ele>164.25</ele><time>2026-04-07T11:19:32.001Z</time></trkpt><trkpt lat="45.61833662875202" lon="8.66432086052032"><ele>164.5</ele><time>2026-04-07T11:19:33.001Z</time></trkpt><trkpt lat="45.6184172460046" lon="8.664197758380611"><ele>164.75</ele><time>2026-04-07T11:19:34.001Z</time></trkpt><trkpt lat="45.61848436335173" lon="8.66408254765746"><ele>165.0</ele><time>2026-04-07T11:19:35.001Z</time></trkpt><trkpt lat="45.61854356859191" lon="8.663980347451107"><ele>165.0</ele><time>2026-04-07T11:19:36.001Z</time></trkpt><trkpt lat="45.61859809497432" lon="8.663892988889002"><ele>165.0</ele><time>2026-04-07T11:19:37.001Z</time></trkpt><trkpt lat="45.61865482005975" lon="8.663765136438636"><ele>165.0</ele><time>2026-04-07T11:19:39.001Z</time></trkpt><trkpt lat="45.61860973994946" lon="8.663608065712978"><ele>165.0</ele><time>2026-04-07T11:19:41.001Z</time></trkpt><trkpt lat="45.61854973610322" lon="8.663534680963851"><ele>165.0</ele><time>2026-04-07T11:19:42.001Z</time></trkpt><trkpt lat="45.61846659032311" lon="8.663448117938717"><ele>164.8</ele><time>2026-04-07T11:19:43.001Z</time></trkpt><trkpt lat="45.61838030131732" lon="8.66333489082732"><ele>164.6</ele><time>2026-04-07T11:19:44.001Z</time></trkpt><trkpt lat="45.61829539574999" lon="8.66322010009904"><ele>164.39999999999998</ele><time>2026-04-07T11:19:45.001Z</time></trkpt><trkpt lat="45.618220648139044" lon="8.663119039067606"><ele>164.2</ele><time>2026-04-07T11:19:46.001Z</time></trkpt><trkpt lat="45.61815484537674" lon="8.663042797515066"><ele>164.0</ele><time>2026-04-07T11:19:47.001Z</time></trkpt><trkpt lat="45.61809824323218" lon="8.662985743532177"><ele>164.0</ele><time>2026-04-07T11:19:48.001Z</time></trkpt><trkpt lat="45.61805451333272" lon="8.662855347940372"><ele>164.0</ele><time>2026-04-07T11:19:50.001Z</time></trkpt><trkpt lat="45.61812191707794" lon="8.662711853420594"><ele>164.0</ele><time>2026-04-07T11:19:52.001Z</time></trkpt><trkpt lat="45.61819194287522" lon="8.662631803258234"><ele>164.0</ele><time>2026-04-07T11:19:53.001Z</time></trkpt><trkpt lat="45.6182618579887" lon="8.662544623096585"><ele>164.0</ele><time>2026-04-07T11:19:54.001Z</time></trkpt><trkpt lat="45.61831994926744" lon="8.662479824919838"><ele>163.66666666666666</ele><time>2026-04-07T11:19:55.001Z</time></trkpt><trkpt lat="45.618381220043645" lon="8.662427693102934"><ele>163.33333333333331</ele><time>2026-04-07T11:19:56.001Z</time></trkpt><trkpt lat="45.61845499202638" lon="8.662396701095478"><ele>163.0</ele><time>2026-04-07T11:19:57.001Z</time></trkpt><trkpt lat="45.61854694850217" lon="8.662387198666941"><ele>162.66666666666666</ele><time>2026-04-07T11:19:58.001Z</time></trkpt><trkpt lat="45.61864948954157" lon="8.66237468284516"><ele>162.33333333333334</ele><time>2026-04-07T11:19:59.001Z</time></trkpt><trkpt lat="45.61875316417038" lon="8.66235614463524"><ele>162.0</ele><time>2026-04-07T11:20:00.001Z</time></trkpt><trkpt lat="45.61885100589398" lon="8.662345591566481"><ele>162.83333333333334</ele><time>2026-04-07T11:20:01.002Z</time></trkpt><trkpt lat="45.618936787210366" lon="8.662330994880604"><ele>163.66666666666666</ele><time>2026-04-07T11:20:02.002Z</time></trkpt><trkpt lat="45.61900927713617" lon="8.662298540090532"><ele>164.5</ele><time>2026-04-07T11:20:03.002Z</time></trkpt><trkpt lat="45.619073185050574" lon="8.662226244413205"><ele>165.33333333333331</ele><time>2026-04-07T11:20:04.002Z</time></trkpt><trkpt lat="45.61914010147337" lon="8.662127918157795"><ele>166.16666666666666</ele><time>2026-04-07T11:20:05.002Z</time></trkpt><trkpt lat="45.619196838226564" lon="8.662025151590885"><ele>167.0</ele><time>2026-04-07T11:20:06.002Z</time></trkpt><trkpt lat="45.619241573910635" lon="8.661937943012196"><ele>167.0</ele><time>2026-04-07T11:20:07.002Z</time></trkpt><trkpt lat="45.619275499331614" lon="8.661859088612205"><ele>167.0</ele><time>2026-04-07T11:20:08.002Z</time></trkpt><trkpt lat="45.61931199449648" lon="8.661711831857918"><ele>167.0</ele><time>2026-04-07T11:20:10.002Z</time></trkpt><trkpt lat="45.619254058006355" lon="8.661565234781548"><ele>167.0</ele><time>2026-04-07T11:20:12.002Z</time></trkpt><trkpt lat="45.619181837489656" lon="8.661485252693037"><ele>167.0</ele><time>2026-04-07T11:20:13.002Z</time></trkpt><trkpt lat="45.61910688165383" lon="8.66138574971942"><ele>167.0</ele><time>2026-04-07T11:20:14.002Z</time></trkpt><trkpt lat="45.61903401765922" lon="8.661281330201154"><ele>167.0</ele><time>2026-04-07T11:20:15.002Z</time></trkpt><trkpt lat="45.61896834804005" lon="8.661195021383767"><ele>167.0</ele><time>2026-04-07T11:20:16.002Z</time></trkpt><trkpt lat="45.618906939105315" lon="8.661121656510103"><ele>167.0</ele><time>2026-04-07T11:20:17.002Z</time></trkpt><trkpt lat="45.61885561380549" lon="8.661056534213458"><ele>167.0</ele><time>2026-04-07T11:20:18.002Z</time></trkpt><trkpt lat="45.6187961907002" lon="8.660938303831752"><ele>167.0</ele><time>2026-04-07T11:20:20.002Z</time></trkpt><trkpt lat="45.61883015586521" lon="8.660756416184222"><ele>167.2</ele><time>2026-04-07T11:20:22.002Z</time></trkpt><trkpt lat="45.61888624344064" lon="8.660660120305314"><ele>167.39999999999998</ele><time>2026-04-07T11:20:23.002Z</time></trkpt><trkpt lat="45.61894845495162" lon="8.660550772185228"><ele>167.60000000000002</ele><time>2026-04-07T11:20:24.002Z</time></trkpt><trkpt lat="45.61901345191316" lon="8.660430888495688"><ele>167.8</ele><time>2026-04-07T11:20:25.002Z</time></trkpt><trkpt lat="45.61907952168457" lon="8.660306558455607"><ele>168.0</ele><time>2026-04-07T11:20:26.002Z</time></trkpt><trkpt lat="45.6191523299789" lon="8.660179560992107"><ele>170.4</ele><time>2026-04-07T11:20:27.002Z</time></trkpt><trkpt lat="45.61921691622891" lon="8.66005709253156"><ele>172.8</ele><time>2026-04-07T11:20:28.002Z</time></trkpt><trkpt lat="45.61927886518204" lon="8.659934576038134"><ele>175.2</ele><time>2026-04-07T11:20:29.002Z</time></trkpt><trkpt lat="45.61934449390283" lon="8.65981443251701"><ele>177.6</ele><time>2026-04-07T11:20:30.002Z</time></trkpt><trkpt lat="45.6194105944744" lon="8.659695743579514"><ele>180.0</ele><time>2026-04-07T11:20:31.002Z</time></trkpt><trkpt lat="45.61947617020356" lon="8.659575062634694"><ele>177.8</ele><time>2026-04-07T11:20:32.002Z</time></trkpt><trkpt lat="45.61954132852051" lon="8.65945403942956"><ele>175.6</ele><time>2026-04-07T11:20:33.002Z</time></trkpt><trkpt lat="45.619608560248416" lon="8.659333669253446"><ele>173.39999999999998</ele><time>2026-04-07T11:20:34.002Z</time></trkpt><trkpt lat="45.619678165636984" lon="8.659213067342732"><ele>171.2</ele><time>2026-04-07T11:20:35.002Z</time></trkpt><trkpt lat="45.619753852879505" lon="8.659097496324549"><ele>169.0</ele><time>2026-04-07T11:20:36.002Z</time></trkpt><trkpt lat="45.61983354946907" lon="8.658993067640294"><ele>169.0</ele><time>2026-04-07T11:20:37.003Z</time></trkpt><trkpt lat="45.619914378019274" lon="8.65888212835742"><ele>169.0</ele><time>2026-04-07T11:20:38.003Z</time></trkpt><trkpt lat="45.61999041729716" lon="8.658770248002655"><ele>169.0</ele><time>2026-04-07T11:20:39.003Z</time></trkpt><trkpt lat="45.62006377683147" lon="8.65865808084924"><ele>169.0</ele><time>2026-04-07T11:20:40.003Z</time></trkpt><trkpt lat="45.620129578234355" lon="8.658547432463454"><ele>169.0</ele><time>2026-04-07T11:20:41.003Z</time></trkpt><trkpt lat="45.620185755469834" lon="8.658443699205003"><ele>168.83333333333334</ele><time>2026-04-07T11:20:42.003Z</time></trkpt><trkpt lat="45.62023507226635" lon="8.658344855849318"><ele>168.66666666666669</ele><time>2026-04-07T11:20:43.003Z</time></trkpt><trkpt lat="45.62027164509737" lon="8.65824936876038"><ele>168.5</ele><time>2026-04-07T11:20:44.003Z</time></trkpt><trkpt lat="45.62029839154963" lon="8.658156885555416"><ele>168.33333333333334</ele><time>2026-04-07T11:20:45.003Z</time></trkpt><trkpt lat="45.62030967623048" lon="8.657973732523299"><ele>168.16666666666666</ele><time>2026-04-07T11:20:47.003Z</time></trkpt><trkpt lat="45.620310640163375" lon="8.657861097532047"><ele>168.0</ele><time>2026-04-07T11:20:48.003Z</time></trkpt><trkpt lat="45.62032965923867" lon="8.657748306954536"><ele>168.0</ele><time>2026-04-07T11:20:49.003Z</time></trkpt><trkpt lat="45.620361629489764" lon="8.657637787076002"><ele>168.0</ele><time>2026-04-07T11:20:50.003Z</time></trkpt><trkpt lat="45.62038958273172" lon="8.657517064124058"><ele>168.0</ele><time>2026-04-07T11:20:51.003Z</time></trkpt><trkpt lat="45.62041330789748" lon="8.657399620524318"><ele>168.0</ele><time>2026-04-07T11:20:52.003Z</time></trkpt><trkpt lat="45.62044002035708" lon="8.657280649202743"><ele>168.0</ele><time>2026-04-07T11:20:53.003Z</time></trkpt><trkpt lat="45.62046994765546" lon="8.657165091322883"><ele>168.0</ele><time>2026-04-07T11:20:54.003Z</time></trkpt><trkpt lat="45.620498211809775" lon="8.657054547452553"><ele>169.8</ele><time>2026-04-07T11:20:55.003Z</time></trkpt><trkpt lat="45.62052894512977" lon="8.656934086899057"><ele>171.60000000000002</ele><time>2026-04-07T11:20:56.003Z</time></trkpt><trkpt lat="45.62056942463429" lon="8.656817397294818"><ele>173.39999999999998</ele><time>2026-04-07T11:20:57.003Z</time></trkpt><trkpt lat="45.620625465502506" lon="8.65669214130153"><ele>175.2</ele><time>2026-04-07T11:20:58.003Z</time></trkpt><trkpt lat="45.62068209133093" lon="8.6565661029181"><ele>177.0</ele><time>2026-04-07T11:20:59.003Z</time></trkpt><trkpt lat="45.62074271517178" lon="8.656427616442302"><ele>177.0</ele><time>2026-04-07T11:21:00.003Z</time></trkpt><trkpt lat="45.620806014953445" lon="8.656295210624059"><ele>177.0</ele><time>2026-04-07T11:21:01.003Z</time></trkpt><trkpt lat="45.62086703027083" lon="8.656162185558465"><ele>177.0</ele><time>2026-04-07T11:21:02.003Z</time></trkpt><trkpt lat="45.62092951551932" lon="8.656025062480639"><ele>177.0</ele><time>2026-04-07T11:21:03.003Z</time></trkpt><trkpt lat="45.6209944485361" lon="8.655888061084045"><ele>176.6</ele><time>2026-04-07T11:21:04.003Z</time></trkpt><trkpt lat="45.62106857718388" lon="8.655757074344102"><ele>176.2</ele><time>2026-04-07T11:21:05.003Z</time></trkpt><trkpt lat="45.621138972030344" lon="8.655628776508264"><ele>175.8</ele><time>2026-04-07T11:21:06.003Z</time></trkpt><trkpt lat="45.621204684289886" lon="8.655509991061935"><ele>175.4</ele><time>2026-04-07T11:21:07Z</time></trkpt><trkpt lat="45.621266572806455" lon="8.655380596875528"><ele>175.0</ele><time>2026-04-07T11:21:08Z</time></trkpt><trkpt lat="45.621335286876345" lon="8.655244328996254"><ele>175.0</ele><time>2026-04-07T11:21:09Z</time></trkpt><trkpt lat="45.62140114330762" lon="8.655105360874439"><ele>175.0</ele><time>2026-04-07T11:21:10Z</time></trkpt><trkpt lat="45.62146190621171" lon="8.654974108358601"><ele>175.0</ele><time>2026-04-07T11:21:11Z</time></trkpt><trkpt lat="45.62150415607446" lon="8.654843291488516"><ele>175.0</ele><time>2026-04-07T11:21:12Z</time></trkpt><trkpt lat="45.621557047718" lon="8.654716181631473"><ele>175.0</ele><time>2026-04-07T11:21:13Z</time></trkpt><trkpt lat="45.62160943003677" lon="8.654593518757665"><ele>175.0</ele><time>2026-04-07T11:21:14Z</time></trkpt><trkpt lat="45.62165048954016" lon="8.65449085175344"><ele>175.0</ele><time>2026-04-07T11:21:15Z</time></trkpt><trkpt lat="45.62168920321299" lon="8.65440159165137"><ele>175.0</ele><time>2026-04-07T11:21:16Z</time></trkpt><trkpt lat="45.62175462042776" lon="8.654267123001581"><ele>175.0</ele><time>2026-04-07T11:21:18Z</time></trkpt><trkpt lat="45.621799717483256" lon="8.654193722322526"><ele>175.0</ele><time>2026-04-07T11:21:20Z</time></trkpt><trkpt lat="45.62184306838587" lon="8.654121284115757"><ele>175.0</ele><time>2026-04-07T11:21:23Z</time></trkpt><trkpt lat="45.62192548736504" lon="8.65402627839008"><ele>174.85714285714286</ele><time>2026-04-07T11:21:25Z</time></trkpt><trkpt lat="45.62197064851548" lon="8.653953783067951"><ele>174.71428571428572</ele><time>2026-04-07T11:21:26Z</time></trkpt><trkpt lat="45.62201417942944" lon="8.65388599785035"><ele>174.57142857142856</ele><time>2026-04-07T11:21:27Z</time></trkpt><trkpt lat="45.62206540591157" lon="8.653812863059464"><ele>174.42857142857144</ele><time>2026-04-07T11:21:28Z</time></trkpt><trkpt lat="45.62211015427354" lon="8.65373943016999"><ele>174.28571428571428</ele><time>2026-04-07T11:21:29Z</time></trkpt><trkpt lat="45.622159555222325" lon="8.65366868688706"><ele>174.14285714285714</ele><time>2026-04-07T11:21:30Z</time></trkpt><trkpt lat="45.62220526881209" lon="8.6535931484434"><ele>174.0</ele><time>2026-04-07T11:21:31Z</time></trkpt><trkpt lat="45.62225732224585" lon="8.653514910686123"><ele>174.0</ele><time>2026-04-07T11:21:32Z</time></trkpt><trkpt lat="45.62231744169019" lon="8.65342621964433"><ele>174.0</ele><time>2026-04-07T11:21:33Z</time></trkpt><trkpt lat="45.622377557316334" lon="8.653344539291034"><ele>174.0</ele><time>2026-04-07T11:21:34Z</time></trkpt><trkpt lat="45.62243574393494" lon="8.653261648025902"><ele>174.0</ele><time>2026-04-07T11:21:35Z</time></trkpt><trkpt lat="45.62249024238167" lon="8.653179682480985"><ele>174.0</ele><time>2026-04-07T11:21:36Z</time></trkpt><trkpt lat="45.62254416508808" lon="8.653106700851376"><ele>174.0</ele><time>2026-04-07T11:21:37.001Z</time></trkpt><trkpt lat="45.6225939529387" lon="8.65303641617252"><ele>174.0</ele><time>2026-04-07T11:21:38.001Z</time></trkpt><trkpt lat="45.62263581214021" lon="8.652968487705174"><ele>174.0</ele><time>2026-04-07T11:21:39.001Z</time></trkpt><trkpt lat="45.62271627241199" lon="8.652843847415097"><ele>174.0</ele><time>2026-04-07T11:21:41.001Z</time></trkpt><trkpt lat="45.62280843356287" lon="8.652733654841182"><ele>174.0</ele><time>2026-04-07T11:21:43.001Z</time></trkpt><trkpt lat="45.622866760051394" lon="8.652685591081314"><ele>174.0</ele><time>2026-04-07T11:21:44.001Z</time></trkpt><trkpt lat="45.622923662978984" lon="8.652643915640999"><ele>174.0</ele><time>2026-04-07T11:21:45.001Z</time></trkpt><trkpt lat="45.62301108016619" lon="8.652577870789012"><ele>174.66666666666666</ele><time>2026-04-07T11:21:47.001Z</time></trkpt><trkpt lat="45.623075654376294" lon="8.65252351297545"><ele>175.33333333333334</ele><time>2026-04-07T11:21:49.001Z</time></trkpt><trkpt lat="45.62314171350064" lon="8.652516493374536"><ele>176.0</ele><time>2026-04-07T11:21:51.001Z</time></trkpt><trkpt lat="45.623210428957364" lon="8.652576528367248"><ele>176.66666666666669</ele><time>2026-04-07T11:21:53.001Z</time></trkpt><trkpt lat="45.62326224074145" lon="8.652703773473087"><ele>177.33333333333334</ele><time>2026-04-07T11:21:55.001Z</time></trkpt><trkpt lat="45.62330496502243" lon="8.652772167575623"><ele>178.0</ele><time>2026-04-07T11:21:56.001Z</time></trkpt><trkpt lat="45.62336538056207" lon="8.652869451746325"><ele>176.7142857142857</ele><time>2026-04-07T11:21:57.001Z</time></trkpt><trkpt lat="45.623409084243974" lon="8.652952498083764"><ele>175.42857142857142</ele><time>2026-04-07T11:21:58.001Z</time></trkpt><trkpt lat="45.62345086282789" lon="8.653023565067167"><ele>174.14285714285714</ele><time>2026-04-07T11:21:59.001Z</time></trkpt><trkpt lat="45.623486880830335" lon="8.653100739022156"><ele>172.85714285714283</ele><time>2026-04-07T11:22:00.001Z</time></trkpt><trkpt lat="45.623523364623026" lon="8.653175100176554"><ele>171.57142857142856</ele><time>2026-04-07T11:22:01.001Z</time></trkpt><trkpt lat="45.62357747728056" lon="8.653262648655986"><ele>170.28571428571428</ele><time>2026-04-07T11:22:02.001Z</time></trkpt><trkpt lat="45.62362614680581" lon="8.653354958660003"><ele>169.0</ele><time>2026-04-07T11:22:03.001Z</time></trkpt><trkpt lat="45.62366225777891" lon="8.653442018328327"><ele>169.0</ele><time>2026-04-07T11:22:04.001Z</time></trkpt><trkpt lat="45.62369633976738" lon="8.653521601366544"><ele>169.0</ele><time>2026-04-07T11:22:05.001Z</time></trkpt><trkpt lat="45.6237316493797" lon="8.653598233795307"><ele>169.0</ele><time>2026-04-07T11:22:06.001Z</time></trkpt><trkpt lat="45.623817960304585" lon="8.653735092932951"><ele>169.0</ele><time>2026-04-07T11:22:08.001Z</time></trkpt><trkpt lat="45.62386801356012" lon="8.653792091053694"><ele>169.0</ele><time>2026-04-07T11:22:09.001Z</time></trkpt><trkpt lat="45.623916059486014" lon="8.653865127845341"><ele>169.0</ele><time>2026-04-07T11:22:10.001Z</time></trkpt><trkpt lat="45.623968261207416" lon="8.653939520123885"><ele>168.66666666666669</ele><time>2026-04-07T11:22:11.002Z</time></trkpt><trkpt lat="45.62401477309354" lon="8.654014405361139"><ele>168.33333333333334</ele><time>2026-04-07T11:22:12.002Z</time></trkpt><trkpt lat="45.6240861447792" lon="8.654110514740562"><ele>168.0</ele><time>2026-04-07T11:22:14.002Z</time></trkpt><trkpt lat="45.62415429449526" lon="8.654171813471594"><ele>167.66666666666666</ele><time>2026-04-07T11:22:16.002Z</time></trkpt><trkpt lat="45.624217032502706" lon="8.654213683091749"><ele>167.33333333333331</ele><time>2026-04-07T11:22:18.002Z</time></trkpt><trkpt lat="45.62428345583796" lon="8.654197289855645"><ele>167.0</ele><time>2026-04-07T11:22:23.002Z</time></trkpt><trkpt lat="45.62432446785035" lon="8.654118021794355"><ele>167.0</ele><time>2026-04-07T11:22:25.002Z</time></trkpt><trkpt lat="45.62437723270022" lon="8.654045289797564"><ele>167.0</ele><time>2026-04-07T11:22:27.002Z</time></trkpt><trkpt lat="45.62443263896774" lon="8.65396529633249"><ele>167.0</ele><time>2026-04-07T11:22:29.002Z</time></trkpt><trkpt lat="45.624488729769276" lon="8.653881894318841"><ele>167.0</ele><time>2026-04-07T11:22:31.002Z</time></trkpt><trkpt lat="45.62454930966692" lon="8.653810144081403"><ele>167.0</ele><time>2026-04-07T11:22:35.002Z</time></trkpt><trkpt lat="45.62448758124407" lon="8.653931440851874"><ele>167.0</ele><time>2026-04-07T11:23:20.001Z</time></trkpt><trkpt lat="45.62444411787574" lon="8.654007298170281"><ele>167.0</ele><time>2026-04-07T11:23:21.001Z</time></trkpt><trkpt lat="45.62440732250344" lon="8.654091518585693"><ele>167.0</ele><time>2026-04-07T11:23:22.001Z</time></trkpt><trkpt lat="45.62435873625037" lon="8.654167587229054"><ele>167.0</ele><time>2026-04-07T11:23:23.001Z</time></trkpt><trkpt lat="45.624312462861084" lon="8.654262734068757"><ele>167.0</ele><time>2026-04-07T11:23:26.001Z</time></trkpt><trkpt lat="45.62435877919387" lon="8.654336545386736"><ele>167.0</ele><time>2026-04-07T11:23:29.001Z</time></trkpt><trkpt lat="45.624428786065714" lon="8.654341060155824"><ele>167.0</ele><time>2026-04-07T11:23:31.001Z</time></trkpt><trkpt lat="45.62449481592601" lon="8.654372018874582"><ele>167.0</ele><time>2026-04-07T11:23:32.001Z</time></trkpt><trkpt lat="45.62456325988659" lon="8.654387215595936"><ele>167.83333333333331</ele><time>2026-04-07T11:23:33.001Z</time></trkpt><trkpt lat="45.624632264931705" lon="8.654393635943537"><ele>168.66666666666666</ele><time>2026-04-07T11:23:34.001Z</time></trkpt><trkpt lat="45.62469797837275" lon="8.654402378614652"><ele>169.5</ele><time>2026-04-07T11:23:35.001Z</time></trkpt><trkpt lat="45.62482669169647" lon="8.654422623839451"><ele>170.33333333333334</ele><time>2026-04-07T11:23:37.001Z</time></trkpt><trkpt lat="45.62488902819831" lon="8.654445646962659"><ele>171.16666666666669</ele><time>2026-04-07T11:23:38.001Z</time></trkpt><trkpt lat="45.624960952672836" lon="8.654462343842594"><ele>172.0</ele><time>2026-04-07T11:23:39.001Z</time></trkpt><trkpt lat="45.62507141378695" lon="8.654483546385949"><ele>172.2</ele><time>2026-04-07T11:23:41.001Z</time></trkpt><trkpt lat="45.62516964462561" lon="8.654501599271518"><ele>172.39999999999998</ele><time>2026-04-07T11:23:43.001Z</time></trkpt><trkpt lat="45.62527245406293" lon="8.654540054241357"><ele>172.60000000000002</ele><time>2026-04-07T11:23:45.001Z</time></trkpt><trkpt lat="45.62536467254419" lon="8.654545393107673"><ele>172.8</ele><time>2026-04-07T11:23:47.001Z</time></trkpt><trkpt lat="45.625488105818064" lon="8.654557112181521"><ele>173.0</ele><time>2026-04-07T11:23:49.001Z</time></trkpt><trkpt lat="45.6256081187359" lon="8.654580095906242"><ele>173.2</ele><time>2026-04-07T11:23:51.001Z</time></trkpt><trkpt lat="45.625671899143484" lon="8.654609699451104"><ele>173.4</ele><time>2026-04-07T11:23:52.001Z</time></trkpt><trkpt lat="45.62578731447821" lon="8.654657734556132"><ele>173.6</ele><time>2026-04-07T11:23:54.001Z</time></trkpt><trkpt lat="45.62585430704808" lon="8.654672245403086"><ele>173.79999999999998</ele><time>2026-04-07T11:23:55.001Z</time></trkpt><trkpt lat="45.62598703790952" lon="8.654678540547664"><ele>174.0</ele><time>2026-04-07T11:23:57.001Z</time></trkpt><trkpt lat="45.62605140366531" lon="8.654705985703922"><ele>174.0</ele><time>2026-04-07T11:23:58.001Z</time></trkpt><trkpt lat="45.626114518774514" lon="8.654739550523606"><ele>174.0</ele><time>2026-04-07T11:23:59.001Z</time></trkpt><trkpt lat="45.6261791764492" lon="8.654776508374571"><ele>174.0</ele><time>2026-04-07T11:24:00.001Z</time></trkpt><trkpt lat="45.6262890798198" lon="8.6548168826248"><ele>174.0</ele><time>2026-04-07T11:24:02.001Z</time></trkpt><trkpt lat="45.62639051366656" lon="8.654877957290907"><ele>174.0</ele><time>2026-04-07T11:24:04.002Z</time></trkpt><trkpt lat="45.626497836291705" lon="8.654920383192712"><ele>174.2</ele><time>2026-04-07T11:24:06.002Z</time></trkpt><trkpt lat="45.626574761919755" lon="8.654959554195992"><ele>174.39999999999998</ele><time>2026-04-07T11:24:08.002Z</time></trkpt><trkpt lat="45.62665271922283" lon="8.654976120040347"><ele>174.6</ele><time>2026-04-07T11:24:10.002Z</time></trkpt><trkpt lat="45.62673814041675" lon="8.654987657982906"><ele>174.8</ele><time>2026-04-07T11:24:12.002Z</time></trkpt><trkpt lat="45.626837429428065" lon="8.655003101558476"><ele>175.0</ele><time>2026-04-07T11:24:14.002Z</time></trkpt><trkpt lat="45.62694733508868" lon="8.65503586407109"><ele>175.0</ele><time>2026-04-07T11:24:16.002Z</time></trkpt><trkpt lat="45.627033355945" lon="8.655063394509554"><ele>175.0</ele><time>2026-04-07T11:24:18.002Z</time></trkpt><trkpt lat="45.627121542878406" lon="8.655094134254465"><ele>175.0</ele><time>2026-04-07T11:24:20.002Z</time></trkpt><trkpt lat="45.627189928083396" lon="8.65514760072216"><ele>175.0</ele><time>2026-04-07T11:24:22.002Z</time></trkpt><trkpt lat="45.627259357480554" lon="8.65517795089404"><ele>175.0</ele><time>2026-04-07T11:24:24.002Z</time></trkpt><trkpt lat="45.62732295633201" lon="8.655220877784776"><ele>175.0</ele><time>2026-04-07T11:24:28.002Z</time></trkpt><trkpt lat="45.62737064390813" lon="8.655282937192407"><ele>174.4</ele><time>2026-04-07T11:24:38.002Z</time></trkpt><trkpt lat="45.62739559842572" lon="8.65537151562468"><ele>173.8</ele><time>2026-04-07T11:24:52.003Z</time></trkpt><trkpt lat="45.62726558876072" lon="8.655407082267187"><ele>173.2</ele><time>2026-04-07T11:24:59.003Z</time></trkpt><trkpt lat="45.627189753813234" lon="8.655395548548539"><ele>172.6</ele><time>2026-04-07T11:25:00.003Z</time></trkpt><trkpt lat="45.62707767821898" lon="8.655366441177074"><ele>172.0</ele><time>2026-04-07T11:25:03.003Z</time></trkpt><trkpt lat="45.62697063583187" lon="8.655338288907632"><ele>172.0</ele><time>2026-04-07T11:25:04.003Z</time></trkpt><trkpt lat="45.62685819884676" lon="8.655291228357811"><ele>172.0</ele><time>2026-04-07T11:25:05.003Z</time></trkpt><trkpt lat="45.62676986485973" lon="8.65525906611085"><ele>172.0</ele><time>2026-04-07T11:25:06.003Z</time></trkpt><trkpt lat="45.626696066550366" lon="8.65523851905033"><ele>172.0</ele><time>2026-04-07T11:25:07.003Z</time></trkpt><trkpt lat="45.6266329204868" lon="8.655232815609244"><ele>172.0</ele><time>2026-04-07T11:25:08.003Z</time></trkpt><trkpt lat="45.6265344905626" lon="8.655250936522139"><ele>172.0</ele><time>2026-04-07T11:25:10.003Z</time></trkpt><trkpt lat="45.62647003801927" lon="8.655245404405369"><ele>172.39999999999998</ele><time>2026-04-07T11:25:12.003Z</time></trkpt><trkpt lat="45.62637263368225" lon="8.65521238604339"><ele>172.79999999999998</ele><time>2026-04-07T11:25:14.003Z</time></trkpt><trkpt lat="45.62628432272692" lon="8.65518340926737"><ele>173.2</ele><time>2026-04-07T11:25:15.004Z</time></trkpt><trkpt lat="45.62620868504697" lon="8.6551565690412"><ele>173.6</ele><time>2026-04-07T11:25:16.004Z</time></trkpt><trkpt lat="45.62609590290696" lon="8.655107977542825"><ele>174.0</ele><time>2026-04-07T11:25:17.004Z</time></trkpt><trkpt lat="45.62595187791794" lon="8.655045537479044"><ele>174.0</ele><time>2026-04-07T11:25:18.004Z</time></trkpt><trkpt lat="45.6258218455328" lon="8.655014856294953"><ele>174.0</ele><time>2026-04-07T11:25:19.001Z</time></trkpt><trkpt lat="45.62569101317723" lon="8.654972232718654"><ele>174.0</ele><time>2026-04-07T11:25:20.001Z</time></trkpt><trkpt lat="45.625570179429566" lon="8.654936826818842"><ele>174.0</ele><time>2026-04-07T11:25:21.001Z</time></trkpt><trkpt lat="45.62547866258055" lon="8.654898674132674"><ele>174.0</ele><time>2026-04-07T11:25:22.001Z</time></trkpt><trkpt lat="45.62535843220754" lon="8.654923186065746"><ele>174.0</ele><time>2026-04-07T11:25:24.001Z</time></trkpt><trkpt lat="45.625246977517044" lon="8.654853625895587"><ele>174.0</ele><time>2026-04-07T11:25:26.001Z</time></trkpt><trkpt lat="45.62514224776619" lon="8.654803331047102"><ele>174.0</ele><time>2026-04-07T11:25:28.001Z</time></trkpt><trkpt lat="45.625089168235405" lon="8.654720126415171"><ele>174.0</ele><time>2026-04-07T11:25:29.001Z</time></trkpt><trkpt lat="45.625003806280496" lon="8.654658444111327"><ele>173.79999999999998</ele><time>2026-04-07T11:25:30.001Z</time></trkpt><trkpt lat="45.62490843507488" lon="8.654614147784748"><ele>173.6</ele><time>2026-04-07T11:25:31.001Z</time></trkpt><trkpt lat="45.62480866730571" lon="8.654568114101487"><ele>173.4</ele><time>2026-04-07T11:25:32.001Z</time></trkpt><trkpt lat="45.62472322726124" lon="8.654539095237297"><ele>173.2</ele><time>2026-04-07T11:25:33.001Z</time></trkpt><trkpt lat="45.624639383236804" lon="8.654506054324838"><ele>173.0</ele><time>2026-04-07T11:25:34.001Z</time></trkpt><trkpt lat="45.62456810207052" lon="8.654472884933128"><ele>172.83333333333331</ele><time>2026-04-07T11:25:35.001Z</time></trkpt><trkpt lat="45.62449562477985" lon="8.654442935008326"><ele>172.66666666666666</ele><time>2026-04-07T11:25:36.001Z</time></trkpt><trkpt lat="45.62442504429819" lon="8.65443430634541"><ele>172.5</ele><time>2026-04-07T11:25:37.001Z</time></trkpt><trkpt lat="45.62435088121594" lon="8.654403450426363"><ele>172.33333333333334</ele><time>2026-04-07T11:25:38.001Z</time></trkpt><trkpt lat="45.62428609029775" lon="8.654393209576188"><ele>172.16666666666669</ele><time>2026-04-07T11:25:40.001Z</time></trkpt><trkpt lat="45.624184213393306" lon="8.654322893895174"><ele>172.0</ele><time>2026-04-07T11:25:42.001Z</time></trkpt><trkpt lat="45.62412608254779" lon="8.6542706220536"><ele>171.16666666666669</ele><time>2026-04-07T11:25:43.001Z</time></trkpt><trkpt lat="45.62407973000495" lon="8.654197800043194"><ele>170.33333333333334</ele><time>2026-04-07T11:25:44.001Z</time></trkpt><trkpt lat="45.62403903680972" lon="8.654109449677525"><ele>169.5</ele><time>2026-04-07T11:25:45.001Z</time></trkpt><trkpt lat="45.623980176373216" lon="8.654017354646106"><ele>168.66666666666666</ele><time>2026-04-07T11:25:46.001Z</time></trkpt><trkpt lat="45.62391470501795" lon="8.653924688329578"><ele>167.83333333333331</ele><time>2026-04-07T11:25:47.001Z</time></trkpt><trkpt lat="45.62384735563973" lon="8.65382404937878"><ele>167.0</ele><time>2026-04-07T11:25:48.001Z</time></trkpt><trkpt lat="45.62378498908119" lon="8.653734856980309"><ele>167.0</ele><time>2026-04-07T11:25:49.001Z</time></trkpt><trkpt lat="45.62374014136852" lon="8.653646064910275"><ele>167.0</ele><time>2026-04-07T11:25:50.001Z</time></trkpt><trkpt lat="45.62369990091632" lon="8.653530311039562"><ele>167.0</ele><time>2026-04-07T11:25:51.001Z</time></trkpt><trkpt lat="45.62364847752196" lon="8.653424260803156"><ele>167.0</ele><time>2026-04-07T11:25:52.001Z</time></trkpt><trkpt lat="45.62359799448526" lon="8.65330678650769"><ele>167.0</ele><time>2026-04-07T11:25:53.001Z</time></trkpt><trkpt lat="45.62352003787478" lon="8.653177793289556"><ele>167.39999999999998</ele><time>2026-04-07T11:25:54.001Z</time></trkpt><trkpt lat="45.623441155497666" lon="8.653053313134881"><ele>167.79999999999998</ele><time>2026-04-07T11:25:55.001Z</time></trkpt><trkpt lat="45.62338400337137" lon="8.652916010143622"><ele>168.2</ele><time>2026-04-07T11:25:56.001Z</time></trkpt><trkpt lat="45.62331858731976" lon="8.652781089183028"><ele>168.6</ele><time>2026-04-07T11:25:57.001Z</time></trkpt><trkpt lat="45.62326281896753" lon="8.652697510162618"><ele>169.0</ele><time>2026-04-07T11:25:58.001Z</time></trkpt><trkpt lat="45.623209717346" lon="8.652625655781206"><ele>169.0</ele><time>2026-04-07T11:25:59.001Z</time></trkpt><trkpt lat="45.62314731778148" lon="8.652569563242178"><ele>169.0</ele><time>2026-04-07T11:26:01.001Z</time></trkpt><trkpt lat="45.62308389707377" lon="8.652621082186672"><ele>169.0</ele><time>2026-04-07T11:26:03.001Z</time></trkpt><trkpt lat="45.62302703190847" lon="8.652661451456886"><ele>169.0</ele><time>2026-04-07T11:26:04.001Z</time></trkpt><trkpt lat="45.62297669529935" lon="8.652729465784248"><ele>169.0</ele><time>2026-04-07T11:26:05.001Z</time></trkpt><trkpt lat="45.62290814685685" lon="8.65279727476536"><ele>169.0</ele><time>2026-04-07T11:26:06.001Z</time></trkpt><trkpt lat="45.622825529765436" lon="8.652893837809483"><ele>170.25</ele><time>2026-04-07T11:26:07.001Z</time></trkpt><trkpt lat="45.62270090125254" lon="8.652996563948571"><ele>171.5</ele><time>2026-04-07T11:26:08.001Z</time></trkpt><trkpt lat="45.62262410506996" lon="8.653113944863383"><ele>172.75</ele><time>2026-04-07T11:26:09.001Z</time></trkpt><trkpt lat="45.622537502587356" lon="8.653247882222018"><ele>174.0</ele><time>2026-04-07T11:26:10.001Z</time></trkpt><trkpt lat="45.62245432354127" lon="8.653377135519234"><ele>174.0</ele><time>2026-04-07T11:26:11.001Z</time></trkpt><trkpt lat="45.62237590212585" lon="8.653485753094497"><ele>174.0</ele><time>2026-04-07T11:26:12.001Z</time></trkpt><trkpt lat="45.62229991625513" lon="8.65358682376628"><ele>174.0</ele><time>2026-04-07T11:26:13.001Z</time></trkpt><trkpt lat="45.622223909231565" lon="8.653692333252296"><ele>174.0</ele><time>2026-04-07T11:26:14.001Z</time></trkpt><trkpt lat="45.62215293169335" lon="8.653795076865693"><ele>174.0</ele><time>2026-04-07T11:26:15.001Z</time></trkpt><trkpt lat="45.6220879555352" lon="8.653850145203137"><ele>172.5</ele><time>2026-04-07T11:26:16.001Z</time></trkpt><trkpt lat="45.622027530549055" lon="8.65395854284984"><ele>171.0</ele><time>2026-04-07T11:26:17.002Z</time></trkpt><trkpt lat="45.62198029526452" lon="8.654043475974"><ele>169.5</ele><time>2026-04-07T11:26:18.002Z</time></trkpt><trkpt lat="45.621943484381845" lon="8.654145665846709"><ele>168.0</ele><time>2026-04-07T11:26:20.002Z</time></trkpt><trkpt lat="45.621947734293556" lon="8.654266414944303"><ele>166.5</ele><time>2026-04-07T11:26:23.002Z</time></trkpt><trkpt lat="45.6220087638726" lon="8.654340887582832"><ele>165.0</ele><time>2026-04-07T11:26:24.002Z</time></trkpt><trkpt lat="45.62209379119201" lon="8.654436974889489"><ele>165.25</ele><time>2026-04-07T11:26:25.002Z</time></trkpt><trkpt lat="45.62218414627069" lon="8.65455285584918"><ele>165.5</ele><time>2026-04-07T11:26:26.002Z</time></trkpt><trkpt lat="45.62228528303179" lon="8.654689414684116"><ele>165.75</ele><time>2026-04-07T11:26:27.002Z</time></trkpt><trkpt lat="45.62239570256078" lon="8.654835509803066"><ele>166.0</ele><time>2026-04-07T11:26:28.002Z</time></trkpt><trkpt lat="45.62251232783052" lon="8.654988735188759"><ele>166.0</ele><time>2026-04-07T11:26:29.002Z</time></trkpt><trkpt lat="45.62263182609317" lon="8.655147272593888"><ele>166.0</ele><time>2026-04-07T11:26:30.002Z</time></trkpt><trkpt lat="45.62275646816581" lon="8.655315492148443"><ele>166.0</ele><time>2026-04-07T11:26:31.002Z</time></trkpt><trkpt lat="45.6228851146291" lon="8.655485183569867"><ele>166.0</ele><time>2026-04-07T11:26:32.002Z</time></trkpt><trkpt lat="45.623010158140325" lon="8.65565419466268"><ele>166.0</ele><time>2026-04-07T11:26:33.002Z</time></trkpt><trkpt lat="45.62313579934183" lon="8.655818978532704"><ele>166.0</ele><time>2026-04-07T11:26:34.002Z</time></trkpt><trkpt lat="45.6232624115055" lon="8.655985427200491"><ele>166.0</ele><time>2026-04-07T11:26:35.002Z</time></trkpt><trkpt lat="45.623388733584974" lon="8.656151672553232"><ele>166.0</ele><time>2026-04-07T11:26:36.002Z</time></trkpt><trkpt lat="45.6235079275044" lon="8.656312509002532"><ele>166.0</ele><time>2026-04-07T11:26:37.002Z</time></trkpt><trkpt lat="45.62362523356101" lon="8.656469113419874"><ele>166.33333333333334</ele><time>2026-04-07T11:26:38.002Z</time></trkpt><trkpt lat="45.623741846729594" lon="8.656622844475084"><ele>166.66666666666666</ele><time>2026-04-07T11:26:39.002Z</time></trkpt><trkpt lat="45.62385545982956" lon="8.65677569002832"><ele>167.0</ele><time>2026-04-07T11:26:40.002Z</time></trkpt><trkpt lat="45.623965949108154" lon="8.656924858400608"><ele>166.75</ele><time>2026-04-07T11:26:41.002Z</time></trkpt><trkpt lat="45.62407364767707" lon="8.657070603005037"><ele>166.5</ele><time>2026-04-07T11:26:42.002Z</time></trkpt><trkpt lat="45.624175727659875" lon="8.65720371475746"><ele>166.25</ele><time>2026-04-07T11:26:43.002Z</time></trkpt><trkpt lat="45.62427170517815" lon="8.657319617935764"><ele>166.0</ele><time>2026-04-07T11:26:44.002Z</time></trkpt><trkpt lat="45.624365391665044" lon="8.657401055871187"><ele>166.0</ele><time>2026-04-07T11:26:45.002Z</time></trkpt><trkpt lat="45.62446761414627" lon="8.657432036505853"><ele>166.0</ele><time>2026-04-07T11:26:46.002Z</time></trkpt><trkpt lat="45.624581088813805" lon="8.657430962489263"><ele>166.0</ele><time>2026-04-07T11:26:47.002Z</time></trkpt><trkpt lat="45.62470224675067" lon="8.657392063662499"><ele>166.0</ele><time>2026-04-07T11:26:48.002Z</time></trkpt><trkpt lat="45.62482715862038" lon="8.6573254499788"><ele>166.25</ele><time>2026-04-07T11:26:49.002Z</time></trkpt><trkpt lat="45.624953938104696" lon="8.65725621822337"><ele>166.5</ele><time>2026-04-07T11:26:50.002Z</time></trkpt><trkpt lat="45.62508914858563" lon="8.657193396320018"><ele>166.75</ele><time>2026-04-07T11:26:51.002Z</time></trkpt><trkpt lat="45.625235340555484" lon="8.657126661005412"><ele>167.0</ele><time>2026-04-07T11:26:52.002Z</time></trkpt><trkpt lat="45.62538354213179" lon="8.657056970011997"><ele>167.0</ele><time>2026-04-07T11:26:53.002Z</time></trkpt><trkpt lat="45.62553227751305" lon="8.656993127532234"><ele>167.0</ele><time>2026-04-07T11:26:54.002Z</time></trkpt><trkpt lat="45.62568762826019" lon="8.656927947468482"><ele>167.0</ele><time>2026-04-07T11:26:55.002Z</time></trkpt><trkpt lat="45.625838271745515" lon="8.656860213778726"><ele>167.75</ele><time>2026-04-07T11:26:56.002Z</time></trkpt><trkpt lat="45.625982214407905" lon="8.656794574341596"><ele>168.5</ele><time>2026-04-07T11:26:57.002Z</time></trkpt><trkpt lat="45.6261219456419" lon="8.656732398201482"><ele>169.25</ele><time>2026-04-07T11:26:58.003Z</time></trkpt><trkpt lat="45.62626283012396" lon="8.656667765639698"><ele>170.0</ele><time>2026-04-07T11:26:59.003Z</time></trkpt><trkpt lat="45.62639647627597" lon="8.656594927219645"><ele>170.25</ele><time>2026-04-07T11:27:00.003Z</time></trkpt><trkpt lat="45.626529489410245" lon="8.656505271447866"><ele>170.5</ele><time>2026-04-07T11:27:01.003Z</time></trkpt><trkpt lat="45.62664935762355" lon="8.656399385668319"><ele>170.75</ele><time>2026-04-07T11:27:02.003Z</time></trkpt><trkpt lat="45.626786299268794" lon="8.656277955553337"><ele>171.0</ele><time>2026-04-07T11:27:03.003Z</time></trkpt><trkpt lat="45.62692081482126" lon="8.656161113394433"><ele>171.25</ele><time>2026-04-07T11:27:04.003Z</time></trkpt><trkpt lat="45.62705109917526" lon="8.656048752197462"><ele>171.5</ele><time>2026-04-07T11:27:05.003Z</time></trkpt><trkpt lat="45.627173840542305" lon="8.655940926079023"><ele>171.75</ele><time>2026-04-07T11:27:06.003Z</time></trkpt><trkpt lat="45.62728694247257" lon="8.655849369727353"><ele>172.0</ele><time>2026-04-07T11:27:07.003Z</time></trkpt><trkpt lat="45.62739030250602" lon="8.655761895531937"><ele>172.0</ele><time>2026-04-07T11:27:08.003Z</time></trkpt><trkpt lat="45.62748613756237" lon="8.655680784190855"><ele>172.0</ele><time>2026-04-07T11:27:09.003Z</time></trkpt><trkpt lat="45.62757217464593" lon="8.65561331280005"><ele>172.0</ele><time>2026-04-07T11:27:10.003Z</time></trkpt><trkpt lat="45.62764616009472" lon="8.655552946199396"><ele>172.0</ele><time>2026-04-07T11:27:11.003Z</time></trkpt><trkpt lat="45.62771122355085" lon="8.655531739266918"><ele>172.0</ele><time>2026-04-07T11:27:12.003Z</time></trkpt><trkpt lat="45.62778212651761" lon="8.655554243319767"><ele>172.0</ele><time>2026-04-07T11:27:13.003Z</time></trkpt><trkpt lat="45.62786529365458" lon="8.65561156321317"><ele>171.0</ele><time>2026-04-07T11:27:14.003Z</time></trkpt><trkpt lat="45.62794811060266" lon="8.655717994866311"><ele>170.0</ele><time>2026-04-07T11:27:15.003Z</time></trkpt><trkpt lat="45.62805636116384" lon="8.6558130255732"><ele>169.0</ele><time>2026-04-07T11:27:16.003Z</time></trkpt><trkpt lat="45.62816727357947" lon="8.65592802518775"><ele>168.0</ele><time>2026-04-07T11:27:17.003Z</time></trkpt><trkpt lat="45.62825723106958" lon="8.656061286669283"><ele>167.75</ele><time>2026-04-07T11:27:18.003Z</time></trkpt><trkpt lat="45.62835773344251" lon="8.656216160808352"><ele>167.5</ele><time>2026-04-07T11:27:19.003Z</time></trkpt><trkpt lat="45.62845940294344" lon="8.656376012590263"><ele>167.25</ele><time>2026-04-07T11:27:20.003Z</time></trkpt><trkpt lat="45.62855856393929" lon="8.656524739965091"><ele>167.0</ele><time>2026-04-07T11:27:21.003Z</time></trkpt><trkpt lat="45.628659578846886" lon="8.656653689931273"><ele>167.0</ele><time>2026-04-07T11:27:22.003Z</time></trkpt><trkpt lat="45.628766850135285" lon="8.656771566100577"><ele>167.0</ele><time>2026-04-07T11:27:23.003Z</time></trkpt><trkpt lat="45.628890207717234" lon="8.656854524000577"><ele>167.0</ele><time>2026-04-07T11:27:24.003Z</time></trkpt><trkpt lat="45.6290201269783" lon="8.656913828384608"><ele>167.0</ele><time>2026-04-07T11:27:25.001Z</time></trkpt><trkpt lat="45.629158484682854" lon="8.656956996206315"><ele>166.75</ele><time>2026-04-07T11:27:26.001Z</time></trkpt><trkpt lat="45.629298566501795" lon="8.657002087732058"><ele>166.5</ele><time>2026-04-07T11:27:27.001Z</time></trkpt><trkpt lat="45.62942940841834" lon="8.65705429222192"><ele>166.25</ele><time>2026-04-07T11:27:28.001Z</time></trkpt><trkpt lat="45.62955629050995" lon="8.657101651015374"><ele>166.0</ele><time>2026-04-07T11:27:29.001Z</time></trkpt><trkpt lat="45.629672492771114" lon="8.65715055368267"><ele>166.33333333333334</ele><time>2026-04-07T11:27:30.001Z</time></trkpt><trkpt lat="45.62978012313564" lon="8.65719096986541"><ele>166.66666666666669</ele><time>2026-04-07T11:27:31.001Z</time></trkpt><trkpt lat="45.62987131286145" lon="8.657224072453939"><ele>167.0</ele><time>2026-04-07T11:27:32.001Z</time></trkpt><trkpt lat="45.629941737954105" lon="8.657240887163058"><ele>167.33333333333334</ele><time>2026-04-07T11:27:33.001Z</time></trkpt><trkpt lat="45.63002710500626" lon="8.657217855515986"><ele>167.66666666666666</ele><time>2026-04-07T11:27:35.001Z</time></trkpt><trkpt lat="45.63005194009129" lon="8.65713461862407"><ele>168.0</ele><time>2026-04-07T11:27:37.001Z</time></trkpt><trkpt lat="45.63001036456364" lon="8.656975481657927"><ele>168.2</ele><time>2026-04-07T11:27:39.001Z</time></trkpt><trkpt lat="45.629952619169586" lon="8.656874986214426"><ele>168.4</ele><time>2026-04-07T11:27:40.001Z</time></trkpt><trkpt lat="45.62989109289771" lon="8.656772524618805"><ele>168.6</ele><time>2026-04-07T11:27:41.001Z</time></trkpt><trkpt lat="45.629858709816496" lon="8.656694431930555"><ele>168.79999999999998</ele><time>2026-04-07T11:27:42.001Z</time></trkpt><trkpt lat="45.62986019277587" lon="8.6565399914213"><ele>169.0</ele><time>2026-04-07T11:27:44.001Z</time></trkpt><trkpt lat="45.62992049086368" lon="8.65643006696985"><ele>169.0</ele><time>2026-04-07T11:27:46.001Z</time></trkpt><trkpt lat="45.62998311647917" lon="8.656389559303893"><ele>169.0</ele><time>2026-04-07T11:27:47.001Z</time></trkpt><trkpt lat="45.63007602027179" lon="8.656352848057173"><ele>169.0</ele><time>2026-04-07T11:27:48.001Z</time></trkpt><trkpt lat="45.63017862303719" lon="8.656318428030348"><ele>169.0</ele><time>2026-04-07T11:27:49.001Z</time></trkpt><trkpt lat="45.63028022522252" lon="8.656268998265741"><ele>169.0</ele><time>2026-04-07T11:27:50.001Z</time></trkpt><trkpt lat="45.63037899614485" lon="8.65621695515772"><ele>168.79999999999998</ele><time>2026-04-07T11:27:51.001Z</time></trkpt><trkpt lat="45.63046809870118" lon="8.656168295035023"><ele>168.6</ele><time>2026-04-07T11:27:52.001Z</time></trkpt><trkpt lat="45.6305607394885" lon="8.656118244904391"><ele>168.4</ele><time>2026-04-07T11:27:53.001Z</time></trkpt><trkpt lat="45.630646705062254" lon="8.656074135318617"><ele>168.2</ele><time>2026-04-07T11:27:54.001Z</time></trkpt><trkpt lat="45.63071706225358" lon="8.656023354925486"><ele>168.0</ele><time>2026-04-07T11:27:55.001Z</time></trkpt><trkpt lat="45.63078288099738" lon="8.655945885838083"><ele>168.0</ele><time>2026-04-07T11:27:56.001Z</time></trkpt><trkpt lat="45.630834373704616" lon="8.655830861756597"><ele>168.0</ele><time>2026-04-07T11:27:57.001Z</time></trkpt><trkpt lat="45.630869771557464" lon="8.655689749639958"><ele>168.0</ele><time>2026-04-07T11:27:58.001Z</time></trkpt><trkpt lat="45.630891594378966" lon="8.65551961515757"><ele>168.0</ele><time>2026-04-07T11:27:59.001Z</time></trkpt><trkpt lat="45.63090130685145" lon="8.655341949789717"><ele>168.0</ele><time>2026-04-07T11:28:00.001Z</time></trkpt><trkpt lat="45.63091658498107" lon="8.655162853723612"><ele>168.5</ele><time>2026-04-07T11:28:01.001Z</time></trkpt><trkpt lat="45.630924242310236" lon="8.654998220696966"><ele>169.0</ele><time>2026-04-07T11:28:02.001Z</time></trkpt><trkpt lat="45.63091520226957" lon="8.654830260417743"><ele>169.5</ele><time>2026-04-07T11:28:03.001Z</time></trkpt><trkpt lat="45.63088741246411" lon="8.654655492072333"><ele>170.0</ele><time>2026-04-07T11:28:04.001Z</time></trkpt><trkpt lat="45.63083788758195" lon="8.654473881818403"><ele>170.5</ele><time>2026-04-07T11:28:05.001Z</time></trkpt><trkpt lat="45.63078926377549" lon="8.6543041799663"><ele>171.0</ele><time>2026-04-07T11:28:06.001Z</time></trkpt><trkpt lat="45.630738470401916" lon="8.654158047025696"><ele>171.5</ele><time>2026-04-07T11:28:07.001Z</time></trkpt><trkpt lat="45.63068951129105" lon="8.654021027524337"><ele>172.0</ele><time>2026-04-07T11:28:08.001Z</time></trkpt><trkpt lat="45.6306469607095" lon="8.653887421297421"><ele>172.0</ele><time>2026-04-07T11:28:09.001Z</time></trkpt><trkpt lat="45.630613384665374" lon="8.653752756457994"><ele>172.0</ele><time>2026-04-07T11:28:10.001Z</time></trkpt><trkpt lat="45.63059995127523" lon="8.653620222856032"><ele>172.0</ele><time>2026-04-07T11:28:11.001Z</time></trkpt><trkpt lat="45.63060104663829" lon="8.653512166010511"><ele>172.0</ele><time>2026-04-07T11:28:12.001Z</time></trkpt><trkpt lat="45.63061959966038" lon="8.653379609571843"><ele>172.0</ele><time>2026-04-07T11:28:13.001Z</time></trkpt><trkpt lat="45.63065182419883" lon="8.653232130502435"><ele>172.25</ele><time>2026-04-07T11:28:14.001Z</time></trkpt><trkpt lat="45.63069785439324" lon="8.65307935016011"><ele>172.5</ele><time>2026-04-07T11:28:15.001Z</time></trkpt><trkpt lat="45.630765870837145" lon="8.652899227463038"><ele>172.75</ele><time>2026-04-07T11:28:16.001Z</time></trkpt><trkpt lat="45.630830910228376" lon="8.652710763844603"><ele>173.0</ele><time>2026-04-07T11:28:17.001Z</time></trkpt><trkpt lat="45.63089413805281" lon="8.65251159582843"><ele>173.0</ele><time>2026-04-07T11:28:18.001Z</time></trkpt><trkpt lat="45.63096723709486" lon="8.652310890602136"><ele>173.0</ele><time>2026-04-07T11:28:19.001Z</time></trkpt><trkpt lat="45.63103731229398" lon="8.652110113269666"><ele>173.0</ele><time>2026-04-07T11:28:20.001Z</time></trkpt><trkpt lat="45.631121004624575" lon="8.65189999413045"><ele>174.33333333333331</ele><time>2026-04-07T11:28:21.001Z</time></trkpt><trkpt lat="45.631198507276636" lon="8.65167465625759"><ele>175.66666666666666</ele><time>2026-04-07T11:28:22.001Z</time></trkpt><trkpt lat="45.63127694242819" lon="8.65145242938461"><ele>177.0</ele><time>2026-04-07T11:28:23.001Z</time></trkpt><trkpt lat="45.63135781025345" lon="8.651212505378501"><ele>176.33333333333334</ele><time>2026-04-07T11:28:24.001Z</time></trkpt><trkpt lat="45.63143958130583" lon="8.65097054994472"><ele>175.66666666666669</ele><time>2026-04-07T11:28:25.001Z</time></trkpt><trkpt lat="45.63151910686292" lon="8.650759489696465"><ele>175.0</ele><time>2026-04-07T11:28:26.001Z</time></trkpt><trkpt lat="45.63159243740945" lon="8.650569091805334"><ele>175.0</ele><time>2026-04-07T11:28:27.001Z</time></trkpt><trkpt lat="45.631661383521376" lon="8.650374998907388"><ele>175.0</ele><time>2026-04-07T11:28:28.001Z</time></trkpt><trkpt lat="45.63173750220074" lon="8.650174580143974"><ele>175.0</ele><time>2026-04-07T11:28:29.001Z</time></trkpt><trkpt lat="45.631811900776334" lon="8.649972434100329"><ele>173.66666666666669</ele><time>2026-04-07T11:28:30.001Z</time></trkpt><trkpt lat="45.63188565576475" lon="8.649773106014681"><ele>172.33333333333334</ele><time>2026-04-07T11:28:31.001Z</time></trkpt><trkpt lat="45.63195773744069" lon="8.649574535295212"><ele>171.0</ele><time>2026-04-07T11:28:32.001Z</time></trkpt><trkpt lat="45.63202983991695" lon="8.649375159742268"><ele>170.0</ele><time>2026-04-07T11:28:33.002Z</time></trkpt><trkpt lat="45.63210069507082" lon="8.649174438909146"><ele>169.0</ele><time>2026-04-07T11:28:34.002Z</time></trkpt><trkpt lat="45.632176543377305" lon="8.648969499512837"><ele>168.0</ele><time>2026-04-07T11:28:35.002Z</time></trkpt><trkpt lat="45.63225195999818" lon="8.648765121694273"><ele>168.66666666666666</ele><time>2026-04-07T11:28:36.002Z</time></trkpt><trkpt lat="45.632325155731614" lon="8.648562767022467"><ele>169.33333333333331</ele><time>2026-04-07T11:28:37.002Z</time></trkpt><trkpt lat="45.63239562367438" lon="8.648361183608051"><ele>170.0</ele><time>2026-04-07T11:28:38.002Z</time></trkpt><trkpt lat="45.63246665035426" lon="8.648155555188849"><ele>170.0</ele><time>2026-04-07T11:28:39.002Z</time></trkpt><trkpt lat="45.63253985125759" lon="8.647952142134892"><ele>170.0</ele><time>2026-04-07T11:28:40.002Z</time></trkpt><trkpt lat="45.63261258451434" lon="8.64776031321233"><ele>170.0</ele><time>2026-04-07T11:28:41.002Z</time></trkpt><trkpt lat="45.63268407062242" lon="8.647575093391305"><ele>170.33333333333331</ele><time>2026-04-07T11:28:42.002Z</time></trkpt><trkpt lat="45.63275070976063" lon="8.647375484714747"><ele>170.66666666666666</ele><time>2026-04-07T11:28:43.002Z</time></trkpt><trkpt lat="45.63281007461922" lon="8.647171394099926"><ele>171.0</ele><time>2026-04-07T11:28:44.002Z</time></trkpt><trkpt lat="45.63286216656884" lon="8.646962146575385"><ele>170.33333333333334</ele><time>2026-04-07T11:28:45.002Z</time></trkpt><trkpt lat="45.63290175505196" lon="8.646748200319132"><ele>169.66666666666669</ele><time>2026-04-07T11:28:46.002Z</time></trkpt><trkpt lat="45.63292119731718" lon="8.64652993398233"><ele>169.0</ele><time>2026-04-07T11:28:47.002Z</time></trkpt><trkpt lat="45.6329227641911" lon="8.64629877694421"><ele>170.0</ele><time>2026-04-07T11:28:48.002Z</time></trkpt><trkpt lat="45.63290983764123" lon="8.646061927137321"><ele>171.0</ele><time>2026-04-07T11:28:49.002Z</time></trkpt><trkpt lat="45.63289839268391" lon="8.645828958749112"><ele>172.0</ele><time>2026-04-07T11:28:50.002Z</time></trkpt><trkpt lat="45.6328913229499" lon="8.645590711475592"><ele>172.0</ele><time>2026-04-07T11:28:51.002Z</time></trkpt><trkpt lat="45.63288580576685" lon="8.645375515259586"><ele>172.0</ele><time>2026-04-07T11:28:52.002Z</time></trkpt><trkpt lat="45.63288044924744" lon="8.645172011814662"><ele>172.0</ele><time>2026-04-07T11:28:53.002Z</time></trkpt><trkpt lat="45.632875050682294" lon="8.644979434254063"><ele>172.0</ele><time>2026-04-07T11:28:54.002Z</time></trkpt><trkpt lat="45.632869188551105" lon="8.644797124893364"><ele>171.75</ele><time>2026-04-07T11:28:55.002Z</time></trkpt><trkpt lat="45.632865393625465" lon="8.64462147266139"><ele>171.5</ele><time>2026-04-07T11:28:56.002Z</time></trkpt><trkpt lat="45.632864579439335" lon="8.644449093863193"><ele>171.25</ele><time>2026-04-07T11:28:57.002Z</time></trkpt><trkpt lat="45.632861057963304" lon="8.644272403283356"><ele>171.0</ele><time>2026-04-07T11:28:58.002Z</time></trkpt><trkpt lat="45.63285197046655" lon="8.644095458053807"><ele>171.0</ele><time>2026-04-07T11:28:59.002Z</time></trkpt><trkpt lat="45.63284485498898" lon="8.643903098671373"><ele>171.0</ele><time>2026-04-07T11:29:00.002Z</time></trkpt><trkpt lat="45.6328378680557" lon="8.64372716360331"><ele>171.0</ele><time>2026-04-07T11:29:01.002Z</time></trkpt><trkpt lat="45.63282898972967" lon="8.64354999171857"><ele>171.0</ele><time>2026-04-07T11:29:02.002Z</time></trkpt><trkpt lat="45.63281871444624" lon="8.64337757350541"><ele>172.0</ele><time>2026-04-07T11:29:03.002Z</time></trkpt><trkpt lat="45.63281807978262" lon="8.643189770017157"><ele>173.0</ele><time>2026-04-07T11:29:04.002Z</time></trkpt><trkpt lat="45.632816740538956" lon="8.643001443548819"><ele>174.0</ele><time>2026-04-07T11:29:05.002Z</time></trkpt><trkpt lat="45.632814610149964" lon="8.64281812822771"><ele>175.0</ele><time>2026-04-07T11:29:06.002Z</time></trkpt><trkpt lat="45.63280924667849" lon="8.64263420501595"><ele>176.4</ele><time>2026-04-07T11:29:07.002Z</time></trkpt><trkpt lat="45.632805142285726" lon="8.64245345511753"><ele>177.8</ele><time>2026-04-07T11:29:08.002Z</time></trkpt><trkpt lat="45.63280446338871" lon="8.642292906308349"><ele>179.2</ele><time>2026-04-07T11:29:09.002Z</time></trkpt><trkpt lat="45.63280751861929" lon="8.642149646161577"><ele>180.6</ele><time>2026-04-07T11:29:10.002Z</time></trkpt><trkpt lat="45.63281330383788" lon="8.642022328035901"><ele>182.0</ele><time>2026-04-07T11:29:11.002Z</time></trkpt><trkpt lat="45.63281412856548" lon="8.641927253113401"><ele>182.0</ele><time>2026-04-07T11:29:12.002Z</time></trkpt><trkpt lat="45.632803559799804" lon="8.641788582476535"><ele>182.0</ele><time>2026-04-07T11:29:14.002Z</time></trkpt><trkpt lat="45.632770453812064" lon="8.641702998346716"><ele>182.0</ele><time>2026-04-07T11:29:17.002Z</time></trkpt><trkpt lat="45.632819683796725" lon="8.641823858175536"><ele>182.0</ele><time>2026-04-07T11:29:57.001Z</time></trkpt><trkpt lat="45.632836821747226" lon="8.642105048243028"><ele>182.0</ele><time>2026-04-07T11:29:59.001Z</time></trkpt><trkpt lat="45.632845825780514" lon="8.642252025187851"><ele>182.0</ele><time>2026-04-07T11:30:00.001Z</time></trkpt><trkpt lat="45.632841143956966" lon="8.642413316058134"><ele>182.0</ele><time>2026-04-07T11:30:01.001Z</time></trkpt><trkpt lat="45.63283805316544" lon="8.642558970948901"><ele>182.0</ele><time>2026-04-07T11:30:02.001Z</time></trkpt><trkpt lat="45.63283863523741" lon="8.642702780532131"><ele>182.0</ele><time>2026-04-07T11:30:03.001Z</time></trkpt><trkpt lat="45.632851249169256" lon="8.642840293969577"><ele>180.25</ele><time>2026-04-07T11:30:04.001Z</time></trkpt><trkpt lat="45.6328514932916" lon="8.642994026834304"><ele>178.5</ele><time>2026-04-07T11:30:05.001Z</time></trkpt><trkpt lat="45.63286508132411" lon="8.643163860052864"><ele>176.75</ele><time>2026-04-07T11:30:06.001Z</time></trkpt><trkpt lat="45.63286561710849" lon="8.643331700917356"><ele>175.0</ele><time>2026-04-07T11:30:07.001Z</time></trkpt><trkpt lat="45.63286540946136" lon="8.643492840773792"><ele>174.0</ele><time>2026-04-07T11:30:08.001Z</time></trkpt><trkpt lat="45.632866256921986" lon="8.643658270111432"><ele>173.0</ele><time>2026-04-07T11:30:09.001Z</time></trkpt><trkpt lat="45.63286897038893" lon="8.643835947337132"><ele>172.0</ele><time>2026-04-07T11:30:10.001Z</time></trkpt><trkpt lat="45.632876074275664" lon="8.644016378983341"><ele>171.0</ele><time>2026-04-07T11:30:11.001Z</time></trkpt><trkpt lat="45.63287930812641" lon="8.64419363431843"><ele>171.0</ele><time>2026-04-07T11:30:12.001Z</time></trkpt><trkpt lat="45.63288833582313" lon="8.644367854586937"><ele>171.0</ele><time>2026-04-07T11:30:13.001Z</time></trkpt><trkpt lat="45.63289718142797" lon="8.644542352644367"><ele>171.0</ele><time>2026-04-07T11:30:14.001Z</time></trkpt><trkpt lat="45.63290616398772" lon="8.6447235735439"><ele>171.0</ele><time>2026-04-07T11:30:15.001Z</time></trkpt><trkpt lat="45.632911048268646" lon="8.644920638837842"><ele>171.0</ele><time>2026-04-07T11:30:16.001Z</time></trkpt><trkpt lat="45.63290863467133" lon="8.645139034948086"><ele>171.0</ele><time>2026-04-07T11:30:17.001Z</time></trkpt><trkpt lat="45.632907023752445" lon="8.645362451156855"><ele>171.0</ele><time>2026-04-07T11:30:18.001Z</time></trkpt><trkpt lat="45.63290905813518" lon="8.645583834457238"><ele>171.25</ele><time>2026-04-07T11:30:19.001Z</time></trkpt><trkpt lat="45.63291171116482" lon="8.645815194814741"><ele>171.5</ele><time>2026-04-07T11:30:20.001Z</time></trkpt><trkpt lat="45.63291449504296" lon="8.646030563851724"><ele>171.75</ele><time>2026-04-07T11:30:21.001Z</time></trkpt><trkpt lat="45.63291860230946" lon="8.646225525264938"><ele>172.0</ele><time>2026-04-07T11:30:22.001Z</time></trkpt><trkpt lat="45.632920210579165" lon="8.64640850108299"><ele>171.8</ele><time>2026-04-07T11:30:23.001Z</time></trkpt><trkpt lat="45.63291779935787" lon="8.646577537851488"><ele>171.6</ele><time>2026-04-07T11:30:24.001Z</time></trkpt><trkpt lat="45.632909361172636" lon="8.646736510072165"><ele>171.4</ele><time>2026-04-07T11:30:25.001Z</time></trkpt><trkpt lat="45.63289296472188" lon="8.646877224143383"><ele>171.20000000000002</ele><time>2026-04-07T11:30:26.001Z</time></trkpt><trkpt lat="45.632866098131096" lon="8.647006844511978"><ele>171.0</ele><time>2026-04-07T11:30:27.001Z</time></trkpt><trkpt lat="45.63283100897015" lon="8.64713292838702"><ele>171.0</ele><time>2026-04-07T11:30:28.001Z</time></trkpt><trkpt lat="45.63278803105495" lon="8.64726665265754"><ele>171.0</ele><time>2026-04-07T11:30:29.001Z</time></trkpt><trkpt lat="45.632738241752755" lon="8.64740274731304"><ele>171.0</ele><time>2026-04-07T11:30:30.001Z</time></trkpt><trkpt lat="45.63263670147771" lon="8.647689266650843"><ele>171.0</ele><time>2026-04-07T11:30:32.001Z</time></trkpt><trkpt lat="45.63258107838119" lon="8.64783787405074"><ele>170.75</ele><time>2026-04-07T11:30:33.001Z</time></trkpt><trkpt lat="45.63252528548162" lon="8.647991830940466"><ele>170.5</ele><time>2026-04-07T11:30:34.001Z</time></trkpt><trkpt lat="45.6324729879595" lon="8.64814334249084"><ele>170.25</ele><time>2026-04-07T11:30:35.001Z</time></trkpt><trkpt lat="45.63241744005958" lon="8.64829639190329"><ele>170.0</ele><time>2026-04-07T11:30:36.001Z</time></trkpt><trkpt lat="45.63236164019921" lon="8.648448384139453"><ele>170.0</ele><time>2026-04-07T11:30:37.001Z</time></trkpt><trkpt lat="45.632310351424124" lon="8.64859507948177"><ele>170.0</ele><time>2026-04-07T11:30:38.001Z</time></trkpt><trkpt lat="45.63226138170024" lon="8.648739184977044"><ele>170.0</ele><time>2026-04-07T11:30:39.001Z</time></trkpt><trkpt lat="45.63221613712518" lon="8.648863514109394"><ele>170.0</ele><time>2026-04-07T11:30:40.001Z</time></trkpt><trkpt lat="45.63217241215511" lon="8.648985837401058"><ele>170.0</ele><time>2026-04-07T11:30:41.002Z</time></trkpt><trkpt lat="45.632127249813934" lon="8.649113662134834"><ele>170.25</ele><time>2026-04-07T11:30:42.002Z</time></trkpt><trkpt lat="45.63207609836681" lon="8.649252572360156"><ele>170.5</ele><time>2026-04-07T11:30:43.002Z</time></trkpt><trkpt lat="45.63202487679641" lon="8.649397542097125"><ele>170.75</ele><time>2026-04-07T11:30:44.002Z</time></trkpt><trkpt lat="45.63197255985283" lon="8.649544230645652"><ele>171.0</ele><time>2026-04-07T11:30:45.002Z</time></trkpt><trkpt lat="45.63191896041905" lon="8.649695848792367"><ele>171.0</ele><time>2026-04-07T11:30:46.002Z</time></trkpt><trkpt lat="45.63186399919049" lon="8.649848019034529"><ele>171.0</ele><time>2026-04-07T11:30:47.002Z</time></trkpt><trkpt lat="45.63181105893785" lon="8.649997130201072"><ele>171.0</ele><time>2026-04-07T11:30:48.002Z</time></trkpt><trkpt lat="45.631761094382696" lon="8.6501348824898"><ele>171.0</ele><time>2026-04-07T11:30:49.002Z</time></trkpt><trkpt lat="45.631716579076965" lon="8.650259330852498"><ele>171.0</ele><time>2026-04-07T11:30:50.002Z</time></trkpt><trkpt lat="45.63167515706685" lon="8.650374179268864"><ele>171.66666666666666</ele><time>2026-04-07T11:30:51.002Z</time></trkpt><trkpt lat="45.63163886353413" lon="8.65047895122195"><ele>172.33333333333334</ele><time>2026-04-07T11:30:52.002Z</time></trkpt><trkpt lat="45.63160669122236" lon="8.650568515670027"><ele>173.0</ele><time>2026-04-07T11:30:53.002Z</time></trkpt><trkpt lat="45.63156427605802" lon="8.650693127084883"><ele>173.66666666666669</ele><time>2026-04-07T11:30:55.002Z</time></trkpt><trkpt lat="45.631573582524645" lon="8.650792253378393"><ele>174.33333333333334</ele><time>2026-04-07T11:30:58.002Z</time></trkpt><trkpt lat="45.63168806216638" lon="8.650764961033513"><ele>175.0</ele><time>2026-04-07T11:31:01.002Z</time></trkpt><trkpt lat="45.63181655896538" lon="8.650710593149482"><ele>175.0</ele><time>2026-04-07T11:31:03.002Z</time></trkpt><trkpt lat="45.63190444968607" lon="8.650687669235992"><ele>175.0</ele><time>2026-04-07T11:31:04.002Z</time></trkpt><trkpt lat="45.63198902873943" lon="8.650661841677374"><ele>175.0</ele><time>2026-04-07T11:31:05.002Z</time></trkpt><trkpt lat="45.632075239501084" lon="8.650633309792985"><ele>175.0</ele><time>2026-04-07T11:31:06.002Z</time></trkpt><trkpt lat="45.63215612839651" lon="8.650606077767534"><ele>175.0</ele><time>2026-04-07T11:31:07.002Z</time></trkpt><trkpt lat="45.632235103212565" lon="8.650582788508148"><ele>175.0</ele><time>2026-04-07T11:31:08.002Z</time></trkpt><trkpt lat="45.632299766672425" lon="8.65054121955535"><ele>175.0</ele><time>2026-04-07T11:31:09.002Z</time></trkpt><trkpt lat="45.63236834901323" lon="8.650482136833716"><ele>175.0</ele><time>2026-04-07T11:31:10.002Z</time></trkpt><trkpt lat="45.63243137990623" lon="8.65043985426102"><ele>175.0</ele><time>2026-04-07T11:31:11.002Z</time></trkpt><trkpt lat="45.63250008015528" lon="8.650427004304719"><ele>175.0</ele><time>2026-04-07T11:31:12.002Z</time></trkpt><trkpt lat="45.632582789587474" lon="8.65041600194995"><ele>175.0</ele><time>2026-04-07T11:31:13.002Z</time></trkpt><trkpt lat="45.63266387020332" lon="8.650396673179355"><ele>175.0</ele><time>2026-04-07T11:31:14.002Z</time></trkpt><trkpt lat="45.63275274579688" lon="8.65037166665783"><ele>175.0</ele><time>2026-04-07T11:31:15.002Z</time></trkpt><trkpt lat="45.632839454666694" lon="8.650345769887904"><ele>175.0</ele><time>2026-04-07T11:31:16.002Z</time></trkpt><trkpt lat="45.6329324441141" lon="8.650320498589114"><ele>175.0</ele><time>2026-04-07T11:31:17.002Z</time></trkpt><trkpt lat="45.63302633392806" lon="8.650297699649396"><ele>175.0</ele><time>2026-04-07T11:31:18.002Z</time></trkpt><trkpt lat="45.63311792815584" lon="8.650275525812837"><ele>175.0</ele><time>2026-04-07T11:31:19.002Z</time></trkpt><trkpt lat="45.63321517039904" lon="8.650269580643956"><ele>174.6</ele><time>2026-04-07T11:31:20.002Z</time></trkpt><trkpt lat="45.63331155133446" lon="8.650259071489566"><ele>174.2</ele><time>2026-04-07T11:31:21.002Z</time></trkpt><trkpt lat="45.63340841579184" lon="8.650233413645909"><ele>173.8</ele><time>2026-04-07T11:31:22.002Z</time></trkpt><trkpt lat="45.633512849321974" lon="8.650221745850256"><ele>173.4</ele><time>2026-04-07T11:31:23.002Z</time></trkpt><trkpt lat="45.63361991393124" lon="8.650223790203121"><ele>173.0</ele><time>2026-04-07T11:31:24.002Z</time></trkpt><trkpt lat="45.63372739029967" lon="8.650222011813392"><ele>173.0</ele><time>2026-04-07T11:31:25.002Z</time></trkpt><trkpt lat="45.63383468512839" lon="8.650214102342014"><ele>173.0</ele><time>2026-04-07T11:31:26.002Z</time></trkpt><trkpt lat="45.633943425716105" lon="8.650199325848519"><ele>173.0</ele><time>2026-04-07T11:31:27.002Z</time></trkpt><trkpt lat="45.63404975255707" lon="8.650186894752087"><ele>173.0</ele><time>2026-04-07T11:31:28.002Z</time></trkpt><trkpt lat="45.634152356906114" lon="8.650171538367676"><ele>173.0</ele><time>2026-04-07T11:31:29.002Z</time></trkpt><trkpt lat="45.634257123170165" lon="8.650154585163612"><ele>173.0</ele><time>2026-04-07T11:31:30.003Z</time></trkpt><trkpt lat="45.63436096204837" lon="8.650132567943967"><ele>173.0</ele><time>2026-04-07T11:31:31.003Z</time></trkpt><trkpt lat="45.63446135134988" lon="8.650121253706983"><ele>173.0</ele><time>2026-04-07T11:31:32.003Z</time></trkpt><trkpt lat="45.6345515470157" lon="8.65011948762127"><ele>173.0</ele><time>2026-04-07T11:31:33.003Z</time></trkpt><trkpt lat="45.634644377160804" lon="8.65013585142956"><ele>173.0</ele><time>2026-04-07T11:31:34.003Z</time></trkpt><trkpt lat="45.634743505433754" lon="8.650175937379036"><ele>173.0</ele><time>2026-04-07T11:31:35.003Z</time></trkpt><trkpt lat="45.634841465666014" lon="8.650220855260054"><ele>173.0</ele><time>2026-04-07T11:31:36.003Z</time></trkpt><trkpt lat="45.63494610600253" lon="8.650261304719042"><ele>173.0</ele><time>2026-04-07T11:31:37Z</time></trkpt><trkpt lat="45.635051168029676" lon="8.650301629273889"><ele>173.0</ele><time>2026-04-07T11:31:38Z</time></trkpt><trkpt lat="45.63515769468789" lon="8.650346574328902"><ele>173.0</ele><time>2026-04-07T11:31:39Z</time></trkpt><trkpt lat="45.635258278820366" lon="8.650399107888067"><ele>172.8</ele><time>2026-04-07T11:31:40Z</time></trkpt><trkpt lat="45.63536003905404" lon="8.650447849775837"><ele>172.60000000000002</ele><time>2026-04-07T11:31:41Z</time></trkpt><trkpt lat="45.63546176394111" lon="8.650503128935792"><ele>172.39999999999998</ele><time>2026-04-07T11:31:42Z</time></trkpt><trkpt lat="45.63555651537466" lon="8.650549367257163"><ele>172.2</ele><time>2026-04-07T11:31:43Z</time></trkpt><trkpt lat="45.63563885494806" lon="8.650581551835451"><ele>172.0</ele><time>2026-04-07T11:31:44Z</time></trkpt><trkpt lat="45.63570788044785" lon="8.650605064012638"><ele>172.0</ele><time>2026-04-07T11:31:45Z</time></trkpt><trkpt lat="45.635771029552366" lon="8.650614502369134"><ele>172.0</ele><time>2026-04-07T11:31:47Z</time></trkpt><trkpt lat="45.6358751524233" lon="8.650646641533028"><ele>172.0</ele><time>2026-04-07T11:31:50Z</time></trkpt><trkpt lat="45.635934015275765" lon="8.65069054191761"><ele>172.0</ele><time>2026-04-07T11:31:51Z</time></trkpt><trkpt lat="45.63599733808671" lon="8.650740780026451"><ele>172.0</ele><time>2026-04-07T11:31:52Z</time></trkpt><trkpt lat="45.63607292434306" lon="8.650802965656762"><ele>172.0</ele><time>2026-04-07T11:31:53Z</time></trkpt><trkpt lat="45.6361570963189" lon="8.650869685373966"><ele>172.0</ele><time>2026-04-07T11:31:54Z</time></trkpt><trkpt lat="45.63624720525009" lon="8.650937854141688"><ele>172.0</ele><time>2026-04-07T11:31:55Z</time></trkpt><trkpt lat="45.63633781981436" lon="8.651015731038449"><ele>172.0</ele><time>2026-04-07T11:31:56Z</time></trkpt><trkpt lat="45.636424793637325" lon="8.651075101566915"><ele>172.0</ele><time>2026-04-07T11:31:57Z</time></trkpt><trkpt lat="45.63651498072779" lon="8.651131012786758"><ele>172.0</ele><time>2026-04-07T11:31:58Z</time></trkpt><trkpt lat="45.63660272923428" lon="8.651199062519145"><ele>172.0</ele><time>2026-04-07T11:31:59Z</time></trkpt><trkpt lat="45.636690595237226" lon="8.651262409156173"><ele>172.0</ele><time>2026-04-07T11:32:00Z</time></trkpt><trkpt lat="45.636774107950316" lon="8.651316037429247"><ele>172.0</ele><time>2026-04-07T11:32:01Z</time></trkpt><trkpt lat="45.63684787569549" lon="8.651369877556311"><ele>172.0</ele><time>2026-04-07T11:32:02Z</time></trkpt><trkpt lat="45.63691470329956" lon="8.65141744585814"><ele>172.0</ele><time>2026-04-07T11:32:03Z</time></trkpt><trkpt lat="45.63697568194056" lon="8.651469140363726"><ele>172.0</ele><time>2026-04-07T11:32:04Z</time></trkpt><trkpt lat="45.637038946101384" lon="8.651512432377944"><ele>172.16666666666669</ele><time>2026-04-07T11:32:05Z</time></trkpt><trkpt lat="45.637112784976146" lon="8.651558251916242"><ele>172.33333333333334</ele><time>2026-04-07T11:32:06.001Z</time></trkpt><trkpt lat="45.6371857589883" lon="8.65160553487669"><ele>172.5</ele><time>2026-04-07T11:32:07.001Z</time></trkpt><trkpt lat="45.63724982851071" lon="8.65166708662154"><ele>172.66666666666666</ele><time>2026-04-07T11:32:08.001Z</time></trkpt><trkpt lat="45.63730923109566" lon="8.651745689697455"><ele>172.83333333333331</ele><time>2026-04-07T11:32:09.001Z</time></trkpt><trkpt lat="45.6373865935948" lon="8.651819497655927"><ele>173.0</ele><time>2026-04-07T11:32:10.001Z</time></trkpt><trkpt lat="45.63746444579808" lon="8.65189550221971"><ele>173.4</ele><time>2026-04-07T11:32:11.001Z</time></trkpt><trkpt lat="45.637547263471724" lon="8.65196324799918"><ele>173.8</ele><time>2026-04-07T11:32:12.001Z</time></trkpt><trkpt lat="45.63762480859392" lon="8.652034398359962"><ele>174.2</ele><time>2026-04-07T11:32:13.001Z</time></trkpt><trkpt lat="45.63770080810256" lon="8.652091353036676"><ele>174.6</ele><time>2026-04-07T11:32:14.001Z</time></trkpt><trkpt lat="45.637778586865096" lon="8.652159033336664"><ele>175.0</ele><time>2026-04-07T11:32:15.001Z</time></trkpt><trkpt lat="45.63785646748553" lon="8.652221648656486"><ele>175.83333333333334</ele><time>2026-04-07T11:32:16.001Z</time></trkpt><trkpt lat="45.63793560217619" lon="8.652282374694824"><ele>176.66666666666669</ele><time>2026-04-07T11:32:17.001Z</time></trkpt><trkpt lat="45.63801802380089" lon="8.652332318652663"><ele>177.5</ele><time>2026-04-07T11:32:18.001Z</time></trkpt><trkpt lat="45.6380957943142" lon="8.652375475096752"><ele>178.33333333333334</ele><time>2026-04-07T11:32:19.001Z</time></trkpt><trkpt lat="45.638181293584104" lon="8.65242329562356"><ele>179.16666666666666</ele><time>2026-04-07T11:32:20.001Z</time></trkpt><trkpt lat="45.638269612856185" lon="8.652472858321525"><ele>180.0</ele><time>2026-04-07T11:32:21.001Z</time></trkpt><trkpt lat="45.63834277815547" lon="8.6525207586062"><ele>180.0</ele><time>2026-04-07T11:32:22.001Z</time></trkpt><trkpt lat="45.63842073376254" lon="8.65256220273048"><ele>180.0</ele><time>2026-04-07T11:32:23.001Z</time></trkpt><trkpt lat="45.63850066683169" lon="8.652635344910074"><ele>180.0</ele><time>2026-04-07T11:32:24.001Z</time></trkpt><trkpt lat="45.63856269154656" lon="8.652693878222447"><ele>180.0</ele><time>2026-04-07T11:32:25.001Z</time></trkpt><trkpt lat="45.63868838782503" lon="8.65273445600054"><ele>180.0</ele><time>2026-04-07T11:32:27.001Z</time></trkpt><trkpt lat="45.63874882150884" lon="8.65277080595421"><ele>180.0</ele><time>2026-04-07T11:32:28.001Z</time></trkpt><trkpt lat="45.638828717363474" lon="8.652792917560317"><ele>179.8</ele><time>2026-04-07T11:32:29.001Z</time></trkpt><trkpt lat="45.63889244425746" lon="8.652823093441533"><ele>179.6</ele><time>2026-04-07T11:32:30.001Z</time></trkpt><trkpt lat="45.63900263086431" lon="8.652885826428864"><ele>179.39999999999998</ele><time>2026-04-07T11:32:32.001Z</time></trkpt><trkpt lat="45.6391211275173" lon="8.652943564912976"><ele>179.2</ele><time>2026-04-07T11:32:34.001Z</time></trkpt><trkpt lat="45.639182523543326" lon="8.652979261918054"><ele>179.0</ele><time>2026-04-07T11:32:35.001Z</time></trkpt><trkpt lat="45.639254539475104" lon="8.653050113398267"><ele>179.0</ele><time>2026-04-07T11:32:36.001Z</time></trkpt><trkpt lat="45.639324243829925" lon="8.653099044086202"><ele>179.0</ele><time>2026-04-07T11:32:37.001Z</time></trkpt><trkpt lat="45.63939364346859" lon="8.65317031269867"><ele>179.0</ele><time>2026-04-07T11:32:38.001Z</time></trkpt><trkpt lat="45.63946244235705" lon="8.653237148630808"><ele>179.0</ele><time>2026-04-07T11:32:39.001Z</time></trkpt><trkpt lat="45.639525486336346" lon="8.653298777143926"><ele>179.0</ele><time>2026-04-07T11:32:40.001Z</time></trkpt><trkpt lat="45.639581308080054" lon="8.653364556393935"><ele>179.0</ele><time>2026-04-07T11:32:41.001Z</time></trkpt><trkpt lat="45.63963767765576" lon="8.653431464019224"><ele>179.0</ele><time>2026-04-07T11:32:42.001Z</time></trkpt><trkpt lat="45.63968678177631" lon="8.65351614018925"><ele>179.0</ele><time>2026-04-07T11:32:43.001Z</time></trkpt><trkpt lat="45.63971828803107" lon="8.653600420322675"><ele>179.0</ele><time>2026-04-07T11:32:44.001Z</time></trkpt><trkpt lat="45.63976438382568" lon="8.653724934521897"><ele>179.0</ele><time>2026-04-07T11:32:46.001Z</time></trkpt><trkpt lat="45.63982632252183" lon="8.653829067755764"><ele>179.0</ele><time>2026-04-07T11:32:49.001Z</time></trkpt><trkpt lat="45.63990182169099" lon="8.653950647135996"><ele>179.0</ele><time>2026-04-07T11:32:51.001Z</time></trkpt><trkpt lat="45.63997330986112" lon="8.654076709443036"><ele>179.0</ele><time>2026-04-07T11:32:53.001Z</time></trkpt><trkpt lat="45.64003377146227" lon="8.654187812422968"><ele>179.0</ele><time>2026-04-07T11:32:55.001Z</time></trkpt><trkpt lat="45.640080025497156" lon="8.654322950326604"><ele>179.0</ele><time>2026-04-07T11:32:57.001Z</time></trkpt><trkpt lat="45.64015803706185" lon="8.654430576532041"><ele>179.0</ele><time>2026-04-07T11:32:59.002Z</time></trkpt><trkpt lat="45.64024302215704" lon="8.65447036326671"><ele>178.85714285714286</ele><time>2026-04-07T11:33:01.002Z</time></trkpt><trkpt lat="45.64033353344928" lon="8.654427105300474"><ele>178.71428571428572</ele><time>2026-04-07T11:33:03.002Z</time></trkpt><trkpt lat="45.64039800742485" lon="8.654415670670906"><ele>178.57142857142856</ele><time>2026-04-07T11:33:04.002Z</time></trkpt><trkpt lat="45.64046821571733" lon="8.65439535467547"><ele>178.42857142857144</ele><time>2026-04-07T11:33:05.002Z</time></trkpt><trkpt lat="45.6405395680031" lon="8.654386155946943"><ele>178.28571428571428</ele><time>2026-04-07T11:33:06.002Z</time></trkpt><trkpt lat="45.640607435858726" lon="8.654368815048691"><ele>178.14285714285714</ele><time>2026-04-07T11:33:07.002Z</time></trkpt><trkpt lat="45.64068013810193" lon="8.654347495240902"><ele>178.0</ele><time>2026-04-07T11:33:08.002Z</time></trkpt><trkpt lat="45.64081304787269" lon="8.654357369512999"><ele>178.0</ele><time>2026-04-07T11:33:10.002Z</time></trkpt><trkpt lat="45.64090365211158" lon="8.65437956417964"><ele>178.0</ele><time>2026-04-07T11:33:11.002Z</time></trkpt><trkpt lat="45.640999804153765" lon="8.654375786102875"><ele>178.0</ele><time>2026-04-07T11:33:12.002Z</time></trkpt><trkpt lat="45.64111620432944" lon="8.654413650041107"><ele>178.0</ele><time>2026-04-07T11:33:13.002Z</time></trkpt><trkpt lat="45.6412256941033" lon="8.654429137649803"><ele>178.0</ele><time>2026-04-07T11:33:14.002Z</time></trkpt><trkpt lat="45.64134487070854" lon="8.654464548020597"><ele>178.25</ele><time>2026-04-07T11:33:15.002Z</time></trkpt><trkpt lat="45.641455416729485" lon="8.654490099938997"><ele>178.5</ele><time>2026-04-07T11:33:16.002Z</time></trkpt><trkpt lat="45.64156676762357" lon="8.65451001248402"><ele>178.75</ele><time>2026-04-07T11:33:17.002Z</time></trkpt><trkpt lat="45.641687729688876" lon="8.654535981387236"><ele>179.0</ele><time>2026-04-07T11:33:18.002Z</time></trkpt><trkpt lat="45.64180234010692" lon="8.654545900358334"><ele>179.0</ele><time>2026-04-07T11:33:19.002Z</time></trkpt><trkpt lat="45.64191973748976" lon="8.654580711243828"><ele>179.0</ele><time>2026-04-07T11:33:20.002Z</time></trkpt><trkpt lat="45.64204563653368" lon="8.654610989692634"><ele>179.0</ele><time>2026-04-07T11:33:21.002Z</time></trkpt><trkpt lat="45.64216306664613" lon="8.654636657461152"><ele>179.0</ele><time>2026-04-07T11:33:22.002Z</time></trkpt><trkpt lat="45.64227194957433" lon="8.654656385761074"><ele>179.0</ele><time>2026-04-07T11:33:23.002Z</time></trkpt><trkpt lat="45.6423789017746" lon="8.654706031013129"><ele>179.0</ele><time>2026-04-07T11:33:24.002Z</time></trkpt><trkpt lat="45.64248907909561" lon="8.654724520517377"><ele>179.0</ele><time>2026-04-07T11:33:25.002Z</time></trkpt><trkpt lat="45.64259707753202" lon="8.65474898905595"><ele>179.0</ele><time>2026-04-07T11:33:26.002Z</time></trkpt><trkpt lat="45.642704627800896" lon="8.654773787562132"><ele>179.0</ele><time>2026-04-07T11:33:27.002Z</time></trkpt><trkpt lat="45.64281389080543" lon="8.654804064498174"><ele>179.6</ele><time>2026-04-07T11:33:28.002Z</time></trkpt><trkpt lat="45.642916548042024" lon="8.654838352349659"><ele>180.2</ele><time>2026-04-07T11:33:29.002Z</time></trkpt><trkpt lat="45.64300155775389" lon="8.654862541283572"><ele>180.79999999999998</ele><time>2026-04-07T11:33:30.002Z</time></trkpt><trkpt lat="45.6430685518348" lon="8.654859357620204"><ele>181.39999999999998</ele><time>2026-04-07T11:33:31.002Z</time></trkpt><trkpt lat="45.64317277292371" lon="8.65486453185118"><ele>182.0</ele><time>2026-04-07T11:33:33.002Z</time></trkpt><trkpt lat="45.6432787174847" lon="8.654867099653908"><ele>182.0</ele><time>2026-04-07T11:33:36.002Z</time></trkpt><trkpt lat="45.6433525859353" lon="8.654885935734672"><ele>182.0</ele><time>2026-04-07T11:33:37.002Z</time></trkpt><trkpt lat="45.64344553899742" lon="8.654904729159096"><ele>182.0</ele><time>2026-04-07T11:33:38.002Z</time></trkpt><trkpt lat="45.64355305543323" lon="8.654925427401677"><ele>182.0</ele><time>2026-04-07T11:33:39.002Z</time></trkpt><trkpt lat="45.643676837575235" lon="8.654933701202452"><ele>182.0</ele><time>2026-04-07T11:33:40.002Z</time></trkpt><trkpt lat="45.64379516934681" lon="8.654962665174798"><ele>181.8</ele><time>2026-04-07T11:33:41.002Z</time></trkpt><trkpt lat="45.6439225856314" lon="8.655004068585457"><ele>181.6</ele><time>2026-04-07T11:33:42.002Z</time></trkpt><trkpt lat="45.644023484272765" lon="8.655026729204879"><ele>181.4</ele><time>2026-04-07T11:33:43Z</time></trkpt><trkpt lat="45.64410965296013" lon="8.655024619183209"><ele>181.20000000000002</ele><time>2026-04-07T11:33:44Z</time></trkpt><trkpt lat="45.64419866787931" lon="8.65503960894179"><ele>181.0</ele><time>2026-04-07T11:33:45Z</time></trkpt><trkpt lat="45.64429396630848" lon="8.655060259735938"><ele>181.0</ele><time>2026-04-07T11:33:46Z</time></trkpt><trkpt lat="45.64438465008363" lon="8.655069804712372"><ele>181.0</ele><time>2026-04-07T11:33:47Z</time></trkpt><trkpt lat="45.64445834749032" lon="8.655071651119028"><ele>181.0</ele><time>2026-04-07T11:33:48Z</time></trkpt><trkpt lat="45.64453607520713" lon="8.655066529936903"><ele>181.0</ele><time>2026-04-07T11:33:49Z</time></trkpt><trkpt lat="45.64463573725135" lon="8.65506816498006"><ele>181.0</ele><time>2026-04-07T11:33:50Z</time></trkpt><trkpt lat="45.64472486781739" lon="8.655088681008229"><ele>181.0</ele><time>2026-04-07T11:33:51Z</time></trkpt><trkpt lat="45.64483218207364" lon="8.655116303463036"><ele>181.25</ele><time>2026-04-07T11:33:52Z</time></trkpt><trkpt lat="45.64493430866645" lon="8.655134106216543"><ele>181.5</ele><time>2026-04-07T11:33:53Z</time></trkpt><trkpt lat="45.64505854015014" lon="8.655146400549418"><ele>181.75</ele><time>2026-04-07T11:33:54Z</time></trkpt><trkpt lat="45.64518523154307" lon="8.655168592122013"><ele>182.0</ele><time>2026-04-07T11:33:55Z</time></trkpt><trkpt lat="45.645318152213704" lon="8.65522602687317"><ele>182.25</ele><time>2026-04-07T11:33:56Z</time></trkpt><trkpt lat="45.6454429911136" lon="8.655251313234476"><ele>182.5</ele><time>2026-04-07T11:33:57Z</time></trkpt><trkpt lat="45.64556873563833" lon="8.655295063585717"><ele>182.75</ele><time>2026-04-07T11:33:58Z</time></trkpt><trkpt lat="45.64568705153357" lon="8.655335119157776"><ele>183.0</ele><time>2026-04-07T11:33:59Z</time></trkpt><trkpt lat="45.645811618588716" lon="8.65538155369696"><ele>182.60000000000002</ele><time>2026-04-07T11:34:00Z</time></trkpt><trkpt lat="45.64591745057144" lon="8.6554137598784"><ele>182.20000000000002</ele><time>2026-04-07T11:34:01Z</time></trkpt><trkpt lat="45.64601279869535" lon="8.655410617563302"><ele>181.8</ele><time>2026-04-07T11:34:02Z</time></trkpt><trkpt lat="45.64611772723658" lon="8.655408556609556"><ele>181.4</ele><time>2026-04-07T11:34:03Z</time></trkpt><trkpt lat="45.64622606599032" lon="8.655403968695806"><ele>181.0</ele><time>2026-04-07T11:34:04Z</time></trkpt><trkpt lat="45.64631935968856" lon="8.655417021334054"><ele>182.0</ele><time>2026-04-07T11:34:05Z</time></trkpt><trkpt lat="45.646429974166956" lon="8.655415038837198"><ele>183.0</ele><time>2026-04-07T11:34:06Z</time></trkpt><trkpt lat="45.64656130051376" lon="8.65544312034626"><ele>184.0</ele><time>2026-04-07T11:34:07Z</time></trkpt><trkpt lat="45.64670934187233" lon="8.655483403990555"><ele>185.0</ele><time>2026-04-07T11:34:08Z</time></trkpt><trkpt lat="45.64685842426013" lon="8.655519928937037"><ele>185.0</ele><time>2026-04-07T11:34:09Z</time></trkpt><trkpt lat="45.647002124724956" lon="8.655575182778499"><ele>185.0</ele><time>2026-04-07T11:34:10Z</time></trkpt><trkpt lat="45.647135121157504" lon="8.655600505316592"><ele>185.0</ele><time>2026-04-07T11:34:11Z</time></trkpt><trkpt lat="45.64726958825665" lon="8.65562146001679"><ele>185.0</ele><time>2026-04-07T11:34:12Z</time></trkpt><trkpt lat="45.647396796714666" lon="8.655649540165562"><ele>185.0</ele><time>2026-04-07T11:34:13Z</time></trkpt><trkpt lat="45.64752080744025" lon="8.655672418734177"><ele>185.0</ele><time>2026-04-07T11:34:14Z</time></trkpt><trkpt lat="45.647637714505414" lon="8.65569138541504"><ele>185.0</ele><time>2026-04-07T11:34:15Z</time></trkpt><trkpt lat="45.64775950261846" lon="8.655713902530744"><ele>185.0</ele><time>2026-04-07T11:34:16Z</time></trkpt><trkpt lat="45.64788979815497" lon="8.655750700565696"><ele>185.0</ele><time>2026-04-07T11:34:17Z</time></trkpt><trkpt lat="45.64801352039316" lon="8.6557725231345"><ele>185.0</ele><time>2026-04-07T11:34:18Z</time></trkpt><trkpt lat="45.648134626857846" lon="8.655769033666397"><ele>185.0</ele><time>2026-04-07T11:34:19Z</time></trkpt><trkpt lat="45.648232398226604" lon="8.6557658505918"><ele>185.0</ele><time>2026-04-07T11:34:20Z</time></trkpt><trkpt lat="45.64832627419388" lon="8.655795616050417"><ele>185.0</ele><time>2026-04-07T11:34:21Z</time></trkpt><trkpt lat="45.64841995808365" lon="8.655825390284077"><ele>185.0</ele><time>2026-04-07T11:34:22.001Z</time></trkpt><trkpt lat="45.648511013922004" lon="8.655859734807196"><ele>185.0</ele><time>2026-04-07T11:34:23.001Z</time></trkpt><trkpt lat="45.648608376444045" lon="8.655884655114841"><ele>185.0</ele><time>2026-04-07T11:34:24.001Z</time></trkpt><trkpt lat="45.64870376720661" lon="8.655893265254557"><ele>185.0</ele><time>2026-04-07T11:34:25.001Z</time></trkpt><trkpt lat="45.64880085770293" lon="8.655923291858997"><ele>185.0</ele><time>2026-04-07T11:34:26.001Z</time></trkpt><trkpt lat="45.64889275310914" lon="8.65593994715957"><ele>185.2</ele><time>2026-04-07T11:34:27.001Z</time></trkpt><trkpt lat="45.64899779704159" lon="8.65596830688935"><ele>185.4</ele><time>2026-04-07T11:34:28.001Z</time></trkpt><trkpt lat="45.64909509761816" lon="8.655980294467268"><ele>185.60000000000002</ele><time>2026-04-07T11:34:29.001Z</time></trkpt><trkpt lat="45.64920154496303" lon="8.655996376149469"><ele>185.8</ele><time>2026-04-07T11:34:30.001Z</time></trkpt><trkpt lat="45.64929638887377" lon="8.656020731739723"><ele>186.0</ele><time>2026-04-07T11:34:31.001Z</time></trkpt><trkpt lat="45.64939463569969" lon="8.656025941055086"><ele>186.20000000000002</ele><time>2026-04-07T11:34:32.001Z</time></trkpt><trkpt lat="45.64950949161807" lon="8.656021717234474"><ele>186.4</ele><time>2026-04-07T11:34:33.001Z</time></trkpt><trkpt lat="45.649621942527574" lon="8.65604292770011"><ele>186.6</ele><time>2026-04-07T11:34:34.001Z</time></trkpt><trkpt lat="45.649734106846815" lon="8.656067347598219"><ele>186.8</ele><time>2026-04-07T11:34:35.001Z</time></trkpt><trkpt lat="45.64983401739399" lon="8.656080872648923"><ele>187.0</ele><time>2026-04-07T11:34:36.001Z</time></trkpt><trkpt lat="45.64995183329731" lon="8.656097983879215"><ele>187.0</ele><time>2026-04-07T11:34:37.001Z</time></trkpt><trkpt lat="45.6500664552955" lon="8.65611866695922"><ele>187.0</ele><time>2026-04-07T11:34:38.001Z</time></trkpt><trkpt lat="45.65014799503529" lon="8.656123445457284"><ele>187.0</ele><time>2026-04-07T11:34:39.001Z</time></trkpt><trkpt lat="45.65021732808852" lon="8.656124185011748"><ele>187.0</ele><time>2026-04-07T11:34:40.001Z</time></trkpt><trkpt lat="45.650296353187244" lon="8.656116714174772"><ele>187.0</ele><time>2026-04-07T11:34:41.001Z</time></trkpt><trkpt lat="45.65037246292987" lon="8.65612262721621"><ele>187.0</ele><time>2026-04-07T11:34:42.001Z</time></trkpt><trkpt lat="45.65048864423902" lon="8.65613017698703"><ele>187.16666666666669</ele><time>2026-04-07T11:34:44.001Z</time></trkpt><trkpt lat="45.650564966918495" lon="8.65616628815075"><ele>187.33333333333334</ele><time>2026-04-07T11:34:45.001Z</time></trkpt><trkpt lat="45.65063430569105" lon="8.656193199042933"><ele>187.5</ele><time>2026-04-07T11:34:46.001Z</time></trkpt><trkpt lat="45.650714134379314" lon="8.65621081665481"><ele>187.66666666666666</ele><time>2026-04-07T11:34:47.001Z</time></trkpt><trkpt lat="45.65079191469996" lon="8.656224652388818"><ele>187.83333333333331</ele><time>2026-04-07T11:34:48.001Z</time></trkpt><trkpt lat="45.65085699244932" lon="8.656244262139836"><ele>188.0</ele><time>2026-04-07T11:34:49.001Z</time></trkpt><trkpt lat="45.650945639644746" lon="8.6562806425082"><ele>188.0</ele><time>2026-04-07T11:34:51.001Z</time></trkpt><trkpt lat="45.65101140181314" lon="8.656303509961944"><ele>188.0</ele><time>2026-04-07T11:34:53.001Z</time></trkpt><trkpt lat="45.65108697378998" lon="8.656254288983039"><ele>188.0</ele><time>2026-04-07T11:34:55.001Z</time></trkpt><trkpt lat="45.65112534480825" lon="8.656084400439845"><ele>188.0</ele><time>2026-04-07T11:34:57.001Z</time></trkpt><trkpt lat="45.651135666770536" lon="8.655979645576668"><ele>188.0</ele><time>2026-04-07T11:34:58.001Z</time></trkpt><trkpt lat="45.65115066563206" lon="8.655849951764317"><ele>188.0</ele><time>2026-04-07T11:34:59.001Z</time></trkpt><trkpt lat="45.65115454447985" lon="8.655703012265853"><ele>187.2</ele><time>2026-04-07T11:35:00.001Z</time></trkpt><trkpt lat="45.651168919167674" lon="8.655559301056552"><ele>186.4</ele><time>2026-04-07T11:35:01.001Z</time></trkpt><trkpt lat="45.65118915214052" lon="8.65541231306201"><ele>185.6</ele><time>2026-04-07T11:35:02.001Z</time></trkpt><trkpt lat="45.651210728198556" lon="8.655277476652744"><ele>184.79999999999998</ele><time>2026-04-07T11:35:03.001Z</time></trkpt><trkpt lat="45.65123161586697" lon="8.655143631056244"><ele>184.0</ele><time>2026-04-07T11:35:04.001Z</time></trkpt><trkpt lat="45.65124670766144" lon="8.65500779211999"><ele>184.0</ele><time>2026-04-07T11:35:05.001Z</time></trkpt><trkpt lat="45.65126771291973" lon="8.654870017356"><ele>184.0</ele><time>2026-04-07T11:35:06.001Z</time></trkpt><trkpt lat="45.65128241528241" lon="8.6547419670638"><ele>184.0</ele><time>2026-04-07T11:35:07.001Z</time></trkpt><trkpt lat="45.65128917881775" lon="8.654648599028963"><ele>184.0</ele><time>2026-04-07T11:35:08.001Z</time></trkpt><trkpt lat="45.65135022074618" lon="8.654539075670606"><ele>184.0</ele><time>2026-04-07T11:35:11.001Z</time></trkpt><trkpt lat="45.65141725929197" lon="8.654533580826243"><ele>184.0</ele><time>2026-04-07T11:35:12.002Z</time></trkpt><trkpt lat="45.65149800299988" lon="8.65461126310065"><ele>184.0</ele><time>2026-04-07T11:35:13.002Z</time></trkpt><trkpt lat="45.65160171341762" lon="8.654649644545632"><ele>184.0</ele><time>2026-04-07T11:35:14.002Z</time></trkpt><trkpt lat="45.651707590805366" lon="8.654661436900136"><ele>184.0</ele><time>2026-04-07T11:35:15.002Z</time></trkpt><trkpt lat="45.651798024685704" lon="8.654663238212969"><ele>184.0</ele><time>2026-04-07T11:35:16.002Z</time></trkpt><trkpt lat="45.65188250746131" lon="8.654658515959278"><ele>184.0</ele><time>2026-04-07T11:35:17.002Z</time></trkpt><trkpt lat="45.65196942371813" lon="8.654651051159309"><ele>184.0</ele><time>2026-04-07T11:35:18.002Z</time></trkpt><trkpt lat="45.65203570025115" lon="8.654639142930195"><ele>184.0</ele><time>2026-04-07T11:35:19.002Z</time></trkpt><trkpt lat="45.65210307556729" lon="8.654591466949606"><ele>184.0</ele><time>2026-04-07T11:35:20.002Z</time></trkpt><trkpt lat="45.65218350004043" lon="8.654552992011933"><ele>184.0</ele><time>2026-04-07T11:35:21.002Z</time></trkpt><trkpt lat="45.65226609860735" lon="8.654462928178246"><ele>184.0</ele><time>2026-04-07T11:35:22.002Z</time></trkpt><trkpt lat="45.65236562179465" lon="8.654392205825978"><ele>184.0</ele><time>2026-04-07T11:35:23.002Z</time></trkpt><trkpt lat="45.652483553829406" lon="8.654318064825445"><ele>182.25</ele><time>2026-04-07T11:35:24.002Z</time></trkpt><trkpt lat="45.65260985925741" lon="8.654273172227867"><ele>180.5</ele><time>2026-04-07T11:35:25.002Z</time></trkpt><trkpt lat="45.65272508998571" lon="8.654227848258564"><ele>178.75</ele><time>2026-04-07T11:35:26.002Z</time></trkpt><trkpt lat="45.65283217053597" lon="8.654181938785822"><ele>177.0</ele><time>2026-04-07T11:35:27.002Z</time></trkpt><trkpt lat="45.65294204466343" lon="8.654123002243145"><ele>177.0</ele><time>2026-04-07T11:35:28.002Z</time></trkpt><trkpt lat="45.65305091005157" lon="8.654061716890215"><ele>177.0</ele><time>2026-04-07T11:35:29.002Z</time></trkpt><trkpt lat="45.65316660715944" lon="8.653990095739324"><ele>177.0</ele><time>2026-04-07T11:35:30.002Z</time></trkpt><trkpt lat="45.653274276699996" lon="8.653926709740157"><ele>177.0</ele><time>2026-04-07T11:35:31.002Z</time></trkpt><trkpt lat="45.65338075026362" lon="8.653884600224906"><ele>177.0</ele><time>2026-04-07T11:35:32.002Z</time></trkpt><trkpt lat="45.65348354931999" lon="8.65384153496097"><ele>177.0</ele><time>2026-04-07T11:35:33.002Z</time></trkpt><trkpt lat="45.653587262228434" lon="8.653795784401956"><ele>177.0</ele><time>2026-04-07T11:35:34.002Z</time></trkpt><trkpt lat="45.6536934740216" lon="8.653753421744904"><ele>177.0</ele><time>2026-04-07T11:35:35.002Z</time></trkpt><trkpt lat="45.65380035629744" lon="8.653706992881169"><ele>177.0</ele><time>2026-04-07T11:35:36.002Z</time></trkpt><trkpt lat="45.653899182319996" lon="8.653666014767511"><ele>176.8</ele><time>2026-04-07T11:35:37.002Z</time></trkpt><trkpt lat="45.65400081136889" lon="8.653629588394294"><ele>176.6</ele><time>2026-04-07T11:35:38.002Z</time></trkpt><trkpt lat="45.65410605138554" lon="8.65358827974223"><ele>176.4</ele><time>2026-04-07T11:35:39.002Z</time></trkpt><trkpt lat="45.65421429720479" lon="8.653543591788454"><ele>176.20000000000002</ele><time>2026-04-07T11:35:40.002Z</time></trkpt><trkpt lat="45.654317065926186" lon="8.65350203353688"><ele>176.0</ele><time>2026-04-07T11:35:41.002Z</time></trkpt><trkpt lat="45.65440807500646" lon="8.653465304139669"><ele>176.33333333333331</ele><time>2026-04-07T11:35:42.002Z</time></trkpt><trkpt lat="45.65448904741814" lon="8.65343293316685"><ele>176.66666666666666</ele><time>2026-04-07T11:35:43.002Z</time></trkpt><trkpt lat="45.65456050475094" lon="8.65341205862743"><ele>177.0</ele><time>2026-04-07T11:35:44.002Z</time></trkpt><trkpt lat="45.65462289226239" lon="8.65338746835769"><ele>177.33333333333334</ele><time>2026-04-07T11:35:45.002Z</time></trkpt><trkpt lat="45.654697544285064" lon="8.653289305668252"><ele>177.66666666666669</ele><time>2026-04-07T11:35:47.002Z</time></trkpt><trkpt lat="45.65471259520934" lon="8.65318962984078"><ele>178.0</ele><time>2026-04-07T11:35:48.002Z</time></trkpt><trkpt lat="45.65469989281659" lon="8.653075533814388"><ele>178.0</ele><time>2026-04-07T11:35:49Z</time></trkpt><trkpt lat="45.65466620470932" lon="8.652962238321726"><ele>178.0</ele><time>2026-04-07T11:35:50Z</time></trkpt><trkpt lat="45.654661880789746" lon="8.652798368384998"><ele>178.0</ele><time>2026-04-07T11:35:52Z</time></trkpt><trkpt lat="45.65475441158518" lon="8.652652635859521"><ele>178.0</ele><time>2026-04-07T11:35:54Z</time></trkpt><trkpt lat="45.65482187196896" lon="8.652620425772566"><ele>178.0</ele><time>2026-04-07T11:35:55Z</time></trkpt><trkpt lat="45.65490443713902" lon="8.65258632179301"><ele>178.5</ele><time>2026-04-07T11:35:56Z</time></trkpt><trkpt lat="45.65499268110596" lon="8.652541073469617"><ele>179.0</ele><time>2026-04-07T11:35:57Z</time></trkpt><trkpt lat="45.65507569007736" lon="8.652496141318855"><ele>179.5</ele><time>2026-04-07T11:35:58Z</time></trkpt><trkpt lat="45.6551522790463" lon="8.652452187009189"><ele>180.0</ele><time>2026-04-07T11:35:58.999Z</time></trkpt><trkpt lat="45.65523268019563" lon="8.65241101546713"><ele>180.5</ele><time>2026-04-07T11:35:59.999Z</time></trkpt><trkpt lat="45.65530981706656" lon="8.652367654036151"><ele>181.0</ele><time>2026-04-07T11:36:00.999Z</time></trkpt><trkpt lat="45.65538567751712" lon="8.652319912709274"><ele>182.8</ele><time>2026-04-07T11:36:01.999Z</time></trkpt><trkpt lat="45.655461024410485" lon="8.652274405677636"><ele>184.60000000000002</ele><time>2026-04-07T11:36:02.999Z</time></trkpt><trkpt lat="45.655549464196646" lon="8.652232475271218"><ele>186.4</ele><time>2026-04-07T11:36:03.999Z</time></trkpt><trkpt lat="45.65564168266637" lon="8.652184466551775"><ele>188.2</ele><time>2026-04-07T11:36:04.999Z</time></trkpt><trkpt lat="45.65573930188859" lon="8.652140057492238"><ele>190.0</ele><time>2026-04-07T11:36:06Z</time></trkpt><trkpt lat="45.65584603282895" lon="8.652096044133744"><ele>190.0</ele><time>2026-04-07T11:36:07Z</time></trkpt><trkpt lat="45.65597045570473" lon="8.652052484223926"><ele>190.0</ele><time>2026-04-07T11:36:08Z</time></trkpt><trkpt lat="45.656092877858235" lon="8.651999894373336"><ele>190.0</ele><time>2026-04-07T11:36:09Z</time></trkpt><trkpt lat="45.656208756688955" lon="8.651955444145615"><ele>190.0</ele><time>2026-04-07T11:36:10Z</time></trkpt><trkpt lat="45.65632082456071" lon="8.651902444989949"><ele>189.6</ele><time>2026-04-07T11:36:11Z</time></trkpt><trkpt lat="45.65643337442306" lon="8.65185856936998"><ele>189.2</ele><time>2026-04-07T11:36:12Z</time></trkpt><trkpt lat="45.65653506879608" lon="8.65180984450433"><ele>188.8</ele><time>2026-04-07T11:36:13Z</time></trkpt><trkpt lat="45.65663627312254" lon="8.651763761793895"><ele>188.4</ele><time>2026-04-07T11:36:14Z</time></trkpt><trkpt lat="45.65673016262273" lon="8.651736551870446"><ele>188.0</ele><time>2026-04-07T11:36:15Z</time></trkpt><trkpt lat="45.6568126452287" lon="8.651690557891389"><ele>188.0</ele><time>2026-04-07T11:36:16Z</time></trkpt><trkpt lat="45.65688614655138" lon="8.651638148838575"><ele>188.0</ele><time>2026-04-07T11:36:17Z</time></trkpt><trkpt lat="45.656969230941165" lon="8.651577819371552"><ele>188.0</ele><time>2026-04-07T11:36:18Z</time></trkpt><trkpt lat="45.65704898282323" lon="8.651503849394729"><ele>188.0</ele><time>2026-04-07T11:36:19Z</time></trkpt><trkpt lat="45.65712463550163" lon="8.651419215932199"><ele>188.0</ele><time>2026-04-07T11:36:20Z</time></trkpt><trkpt lat="45.65719503960919" lon="8.65133321600436"><ele>188.66666666666666</ele><time>2026-04-07T11:36:21Z</time></trkpt><trkpt lat="45.65726223241963" lon="8.651243416444068"><ele>189.33333333333331</ele><time>2026-04-07T11:36:22Z</time></trkpt><trkpt lat="45.65733065177212" lon="8.651165301430687"><ele>190.0</ele><time>2026-04-07T11:36:23Z</time></trkpt><trkpt lat="45.6573890405314" lon="8.651090194624146"><ele>190.66666666666666</ele><time>2026-04-07T11:36:24Z</time></trkpt><trkpt lat="45.65746170828501" lon="8.651007189626206"><ele>191.33333333333334</ele><time>2026-04-07T11:36:25Z</time></trkpt><trkpt lat="45.65751608904715" lon="8.650928494897098"><ele>192.0</ele><time>2026-04-07T11:36:26Z</time></trkpt><trkpt lat="45.65757576072285" lon="8.650882097358155"><ele>192.0</ele><time>2026-04-07T11:36:27Z</time></trkpt><trkpt lat="45.657660639269345" lon="8.650812299594708"><ele>192.0</ele><time>2026-04-07T11:36:29Z</time></trkpt><trkpt lat="45.65772302446336" lon="8.650758398520237"><ele>192.0</ele><time>2026-04-07T11:36:31Z</time></trkpt><trkpt lat="45.65778676951915" lon="8.650716270659826"><ele>192.0</ele><time>2026-04-07T11:36:33Z</time></trkpt><trkpt lat="45.65785111004425" lon="8.65071691567952"><ele>192.0</ele><time>2026-04-07T11:36:35.001Z</time></trkpt><trkpt lat="45.65791785899281" lon="8.65080056592135"><ele>192.0</ele><time>2026-04-07T11:36:37.001Z</time></trkpt><trkpt lat="45.65797222091626" lon="8.650915967791217"><ele>192.5</ele><time>2026-04-07T11:36:39.001Z</time></trkpt><trkpt lat="45.65801964529768" lon="8.650990452412449"><ele>193.0</ele><time>2026-04-07T11:36:40.001Z</time></trkpt><trkpt lat="45.658064828843415" lon="8.65107714006936"><ele>193.5</ele><time>2026-04-07T11:36:41.001Z</time></trkpt><trkpt lat="45.658134812802075" lon="8.651191284664387"><ele>194.0</ele><time>2026-04-07T11:36:43.001Z</time></trkpt><trkpt lat="45.65821462127286" lon="8.651217326559493"><ele>194.5</ele><time>2026-04-07T11:36:45.001Z</time></trkpt><trkpt lat="45.65828638169652" lon="8.651187937662607"><ele>195.0</ele><time>2026-04-07T11:36:47.001Z</time></trkpt><trkpt lat="45.65834666458731" lon="8.651146749778272"><ele>195.85714285714286</ele><time>2026-04-07T11:36:48.001Z</time></trkpt><trkpt lat="45.65841507778189" lon="8.651108414430368"><ele>196.71428571428572</ele><time>2026-04-07T11:36:49.001Z</time></trkpt><trkpt lat="45.65849241670893" lon="8.651067995610775"><ele>197.57142857142856</ele><time>2026-04-07T11:36:50.001Z</time></trkpt><trkpt lat="45.658569223443465" lon="8.651015742400178"><ele>198.42857142857144</ele><time>2026-04-07T11:36:51.001Z</time></trkpt><trkpt lat="45.65863985004092" lon="8.650973925303044"><ele>199.2857142857143</ele><time>2026-04-07T11:36:52.001Z</time></trkpt><trkpt lat="45.65869624043634" lon="8.650931649594979"><ele>200.14285714285714</ele><time>2026-04-07T11:36:53.001Z</time></trkpt><trkpt lat="45.65875538576837" lon="8.65089937940887"><ele>201.0</ele><time>2026-04-07T11:36:54.001Z</time></trkpt><trkpt lat="45.658812040813274" lon="8.650859071268666"><ele>202.0</ele><time>2026-04-07T11:36:55.001Z</time></trkpt><trkpt lat="45.6589072714454" lon="8.650816204300014"><ele>203.0</ele><time>2026-04-07T11:36:57.001Z</time></trkpt><trkpt lat="45.65900558034184" lon="8.650851984509355"><ele>204.0</ele><time>2026-04-07T11:37:00.001Z</time></trkpt><trkpt lat="45.659107554038684" lon="8.650934236703778"><ele>205.0</ele><time>2026-04-07T11:37:02.001Z</time></trkpt><trkpt lat="45.65919556975368" lon="8.651035812461322"><ele>206.0</ele><time>2026-04-07T11:37:04.001Z</time></trkpt><trkpt lat="45.659272551644996" lon="8.6511356528727"><ele>206.00000000000003</ele><time>2026-04-07T11:37:06.001Z</time></trkpt><trkpt lat="45.659349891550136" lon="8.651130641784796"><ele>206.0</ele><time>2026-04-07T11:37:10.001Z</time></trkpt><trkpt lat="45.65940568861105" lon="8.651078707909662"><ele>206.0</ele><time>2026-04-07T11:37:12.001Z</time></trkpt><trkpt lat="45.659382929381685" lon="8.650969100886574"><ele>206.0</ele><time>2026-04-07T11:37:14.001Z</time></trkpt><trkpt lat="45.65934652371259" lon="8.650863908271106"><ele>206.00000000000003</ele><time>2026-04-07T11:37:16.001Z</time></trkpt><trkpt lat="45.659304033394996" lon="8.6507562542082"><ele>206.0</ele><time>2026-04-07T11:37:18.002Z</time></trkpt><trkpt lat="45.65923024307178" lon="8.650619045053395"><ele>207.8</ele><time>2026-04-07T11:37:20.002Z</time></trkpt><trkpt lat="45.659174726688406" lon="8.650503489070688"><ele>209.60000000000002</ele><time>2026-04-07T11:37:22.002Z</time></trkpt><trkpt lat="45.65914676193766" lon="8.650392513411193"><ele>211.4</ele><time>2026-04-07T11:37:25.002Z</time></trkpt><trkpt lat="45.65922751761416" lon="8.650321347958872"><ele>213.2</ele><time>2026-04-07T11:37:28.002Z</time></trkpt><trkpt lat="45.65932046901498" lon="8.650392069781873"><ele>215.0</ele><time>2026-04-07T11:37:30.002Z</time></trkpt><trkpt lat="45.65935889004762" lon="8.65047586429645"><ele>215.00000000000003</ele><time>2026-04-07T11:37:31.002Z</time></trkpt><trkpt lat="45.65941444552852" lon="8.650575596661573"><ele>215.0</ele><time>2026-04-07T11:37:32.002Z</time></trkpt><trkpt lat="45.65946562477793" lon="8.650678876142827"><ele>215.0</ele><time>2026-04-07T11:37:33.002Z</time></trkpt><trkpt lat="45.659517983877286" lon="8.65079197050939"><ele>215.0</ele><time>2026-04-07T11:37:34.002Z</time></trkpt><trkpt lat="45.65957141049335" lon="8.650895375562367"><ele>215.00000000000003</ele><time>2026-04-07T11:37:35.002Z</time></trkpt><trkpt lat="45.659611352854085" lon="8.650985815149976"><ele>215.0</ele><time>2026-04-07T11:37:36.002Z</time></trkpt><trkpt lat="45.659640680488316" lon="8.651069985380333"><ele>216.83333333333334</ele><time>2026-04-07T11:37:37.002Z</time></trkpt><trkpt lat="45.659680129811015" lon="8.651171663071372"><ele>218.66666666666669</ele><time>2026-04-07T11:37:39.002Z</time></trkpt><trkpt lat="45.65975796521896" lon="8.651192990977227"><ele>220.5</ele><time>2026-04-07T11:37:43.002Z</time></trkpt><trkpt lat="45.6597822312505" lon="8.651094060206635"><ele>222.33333333333331</ele><time>2026-04-07T11:37:45.002Z</time></trkpt><trkpt lat="45.65972927009501" lon="8.650977510574103"><ele>224.16666666666666</ele><time>2026-04-07T11:37:47.002Z</time></trkpt><trkpt lat="45.6596907072844" lon="8.650876263106435"><ele>226.0</ele><time>2026-04-07T11:37:49.002Z</time></trkpt><trkpt lat="45.6596700072553" lon="8.650746627560187"><ele>226.99999999999997</ele><time>2026-04-07T11:37:51.002Z</time></trkpt><trkpt lat="45.65967435762187" lon="8.650652192898686"><ele>228.0</ele><time>2026-04-07T11:37:53.002Z</time></trkpt><trkpt lat="45.65972895614744" lon="8.650525658543557"><ele>229.0</ele><time>2026-04-07T11:37:55Z</time></trkpt><trkpt lat="45.659778527111236" lon="8.65046696095386"><ele>230.0</ele><time>2026-04-07T11:37:56Z</time></trkpt><trkpt lat="45.65984812064831" lon="8.650367239026119"><ele>230.99999999999997</ele><time>2026-04-07T11:37:58Z</time></trkpt><trkpt lat="45.65986509804626" lon="8.650274876472716"><ele>232.0</ele><time>2026-04-07T11:38:00Z</time></trkpt><trkpt lat="45.65982933694932" lon="8.650187384494842"><ele>233.33333333333331</ele><time>2026-04-07T11:38:02Z</time></trkpt><trkpt lat="45.65975547648295" lon="8.650154173480027"><ele>234.66666666666666</ele><time>2026-04-07T11:38:04Z</time></trkpt><trkpt lat="45.65966558083985" lon="8.650145329381228"><ele>236.0</ele><time>2026-04-07T11:38:06Z</time></trkpt><trkpt lat="45.65960157759164" lon="8.650097548870816"><ele>237.33333333333331</ele><time>2026-04-07T11:38:10Z</time></trkpt><trkpt lat="45.65959757237091" lon="8.650006756210692"><ele>238.66666666666666</ele><time>2026-04-07T11:38:12Z</time></trkpt><trkpt lat="45.65968704468017" lon="8.649960970552176"><ele>240.0</ele><time>2026-04-07T11:38:14Z</time></trkpt><trkpt lat="45.65976761648289" lon="8.650000541207264"><ele>240.0</ele><time>2026-04-07T11:38:16Z</time></trkpt><trkpt lat="45.65984596110988" lon="8.649990516017427"><ele>240.0</ele><time>2026-04-07T11:38:18Z</time></trkpt><trkpt lat="45.65993349128153" lon="8.649966782032552"><ele>240.0</ele><time>2026-04-07T11:38:20Z</time></trkpt><trkpt lat="45.660015892603845" lon="8.649976537528232"><ele>240.0</ele><time>2026-04-07T11:38:22Z</time></trkpt><trkpt lat="45.66010431334295" lon="8.649996652450252"><ele>240.0</ele><time>2026-04-07T11:38:24Z</time></trkpt><trkpt lat="45.66016922718405" lon="8.650049434462158"><ele>240.0</ele><time>2026-04-07T11:38:25Z</time></trkpt><trkpt lat="45.660280989248406" lon="8.65012849388003"><ele>240.8</ele><time>2026-04-07T11:38:27Z</time></trkpt><trkpt lat="45.66036960501916" lon="8.6501816288626"><ele>241.6</ele><time>2026-04-07T11:38:29Z</time></trkpt><trkpt lat="45.66045092530319" lon="8.650159340920403"><ele>242.39999999999998</ele><time>2026-04-07T11:38:31.001Z</time></trkpt><trkpt lat="45.66053394769066" lon="8.650079175027612"><ele>243.2</ele><time>2026-04-07T11:38:33.001Z</time></trkpt><trkpt lat="45.660622296402174" lon="8.649933276484333"><ele>244.0</ele><time>2026-04-07T11:38:35.001Z</time></trkpt><trkpt lat="45.6606731200273" lon="8.649839431606399"><ele>243.99999999999997</ele><time>2026-04-07T11:38:36.001Z</time></trkpt><trkpt lat="45.66071840682641" lon="8.649749890355983"><ele>244.0</ele><time>2026-04-07T11:38:37.001Z</time></trkpt><trkpt lat="45.660765619495216" lon="8.649658319040755"><ele>244.0</ele><time>2026-04-07T11:38:38.001Z</time></trkpt><trkpt lat="45.66081487939105" lon="8.64956074404249"><ele>244.0</ele><time>2026-04-07T11:38:39.001Z</time></trkpt><trkpt lat="45.66086141707676" lon="8.649464035891032"><ele>243.99999999999997</ele><time>2026-04-07T11:38:40.001Z</time></trkpt><trkpt lat="45.66091724495085" lon="8.649357874889311"><ele>244.0</ele><time>2026-04-07T11:38:41.001Z</time></trkpt><trkpt lat="45.66096572213018" lon="8.649265737055241"><ele>244.2</ele><time>2026-04-07T11:38:42.001Z</time></trkpt><trkpt lat="45.66101453532167" lon="8.64916692275725"><ele>244.39999999999998</ele><time>2026-04-07T11:38:43.001Z</time></trkpt><trkpt lat="45.661061630941546" lon="8.64907002497235"><ele>244.6</ele><time>2026-04-07T11:38:44.001Z</time></trkpt><trkpt lat="45.66110626235042" lon="8.648981210219489"><ele>244.8</ele><time>2026-04-07T11:38:45.001Z</time></trkpt><trkpt lat="45.66116446487375" lon="8.648844376929548"><ele>245.0</ele><time>2026-04-07T11:38:47.001Z</time></trkpt><trkpt lat="45.66124783267166" lon="8.648722688750587"><ele>245.00000000000003</ele><time>2026-04-07T11:38:49.001Z</time></trkpt><trkpt lat="45.66130829050432" lon="8.648682505399995"><ele>245.0</ele><time>2026-04-07T11:38:50.001Z</time></trkpt><trkpt lat="45.661414223591855" lon="8.648644360791879"><ele>245.0</ele><time>2026-04-07T11:38:52.001Z</time></trkpt><trkpt lat="45.661482358434824" lon="8.64864684561579"><ele>245.0</ele><time>2026-04-07T11:38:53.001Z</time></trkpt><trkpt lat="45.66155516207011" lon="8.648644625693759"><ele>245.00000000000003</ele><time>2026-04-07T11:38:54.001Z</time></trkpt><trkpt lat="45.661633683952765" lon="8.648630223199444"><ele>245.0</ele><time>2026-04-07T11:38:55.001Z</time></trkpt><trkpt lat="45.66171745204955" lon="8.648619502272098"><ele>245.00000000000003</ele><time>2026-04-07T11:38:56.001Z</time></trkpt><trkpt lat="45.66181113013999" lon="8.648621925750643"><ele>245.0</ele><time>2026-04-07T11:38:57.001Z</time></trkpt><trkpt lat="45.66190971142612" lon="8.648635973306016"><ele>245.0</ele><time>2026-04-07T11:38:58.001Z</time></trkpt><trkpt lat="45.66198963917004" lon="8.648642860361246"><ele>245.0</ele><time>2026-04-07T11:38:59.001Z</time></trkpt><trkpt lat="45.66206058698199" lon="8.648665204502448"><ele>245.00000000000003</ele><time>2026-04-07T11:39:00.001Z</time></trkpt><trkpt lat="45.6621395943512" lon="8.648686406416456"><ele>245.0</ele><time>2026-04-07T11:39:01.001Z</time></trkpt><trkpt lat="45.662217608389675" lon="8.648709040822451"><ele>246.6</ele><time>2026-04-07T11:39:02.001Z</time></trkpt><trkpt lat="45.66228766360328" lon="8.648746534504959"><ele>248.2</ele><time>2026-04-07T11:39:03.001Z</time></trkpt><trkpt lat="45.66235992382395" lon="8.648784559540058"><ele>249.8</ele><time>2026-04-07T11:39:04.001Z</time></trkpt><trkpt lat="45.6624909333182" lon="8.648812836309029"><ele>251.4</ele><time>2026-04-07T11:39:06.001Z</time></trkpt><trkpt lat="45.662575160669256" lon="8.648847369714558"><ele>253.0</ele><time>2026-04-07T11:39:07.001Z</time></trkpt><trkpt lat="45.66267131108052" lon="8.648888921668409"><ele>253.0</ele><time>2026-04-07T11:39:08.001Z</time></trkpt><trkpt lat="45.6627661899377" lon="8.64889177979193"><ele>253.0</ele><time>2026-04-07T11:39:09.001Z</time></trkpt><trkpt lat="45.66286262200654" lon="8.648873526496038"><ele>253.0</ele><time>2026-04-07T11:39:10.001Z</time></trkpt><trkpt lat="45.662966045447405" lon="8.648867160753422"><ele>253.0</ele><time>2026-04-07T11:39:11.001Z</time></trkpt><trkpt lat="45.66306618089767" lon="8.64886660888251"><ele>253.0</ele><time>2026-04-07T11:39:12.001Z</time></trkpt><trkpt lat="45.66315097089207" lon="8.648843714313099"><ele>252.99999999999997</ele><time>2026-04-07T11:39:13.001Z</time></trkpt><trkpt lat="45.663225991987034" lon="8.648780856127457"><ele>253.0</ele><time>2026-04-07T11:39:14.001Z</time></trkpt><trkpt lat="45.66329476025469" lon="8.648711433618757"><ele>253.0</ele><time>2026-04-07T11:39:15.001Z</time></trkpt><trkpt lat="45.663345401766314" lon="8.648622063151882"><ele>253.0</ele><time>2026-04-07T11:39:16.001Z</time></trkpt><trkpt lat="45.66338038558563" lon="8.64852638468073"><ele>252.99999999999997</ele><time>2026-04-07T11:39:17.001Z</time></trkpt><trkpt lat="45.66343397896889" lon="8.648384947257375"><ele>253.0</ele><time>2026-04-07T11:39:19.002Z</time></trkpt><trkpt lat="45.6635016991411" lon="8.648300393994209"><ele>255.8</ele><time>2026-04-07T11:39:20.002Z</time></trkpt><trkpt lat="45.66358368253532" lon="8.648243249135858"><ele>258.6</ele><time>2026-04-07T11:39:21.002Z</time></trkpt><trkpt lat="45.66367013334015" lon="8.648185712012255"><ele>261.4</ele><time>2026-04-07T11:39:22.002Z</time></trkpt><trkpt lat="45.66377770448363" lon="8.648107835818148"><ele>264.2</ele><time>2026-04-07T11:39:23.002Z</time></trkpt><trkpt lat="45.66389024333164" lon="8.64801894092994"><ele>267.0</ele><time>2026-04-07T11:39:24.002Z</time></trkpt><trkpt lat="45.663993987210375" lon="8.647897611157974"><ele>269.25</ele><time>2026-04-07T11:39:25.002Z</time></trkpt><trkpt lat="45.664084773658" lon="8.64775634453197"><ele>271.5</ele><time>2026-04-07T11:39:26.002Z</time></trkpt><trkpt lat="45.664166716853536" lon="8.647618709861916"><ele>273.75</ele><time>2026-04-07T11:39:27.002Z</time></trkpt><trkpt lat="45.66424521488897" lon="8.647503088157242"><ele>276.0</ele><time>2026-04-07T11:39:28.002Z</time></trkpt><trkpt lat="45.66431708073643" lon="8.647358033478142"><ele>276.0</ele><time>2026-04-07T11:39:29.002Z</time></trkpt><trkpt lat="45.66439607640445" lon="8.647212249094123"><ele>276.0</ele><time>2026-04-07T11:39:30.002Z</time></trkpt><trkpt lat="45.664505939097225" lon="8.647083479447641"><ele>276.0</ele><time>2026-04-07T11:39:31.002Z</time></trkpt><trkpt lat="45.66463323486742" lon="8.646979449789173"><ele>276.0</ele><time>2026-04-07T11:39:32.002Z</time></trkpt><trkpt lat="45.664754726006485" lon="8.646880293471439"><ele>276.25</ele><time>2026-04-07T11:39:33.002Z</time></trkpt><trkpt lat="45.66487091361061" lon="8.646780236189414"><ele>276.5</ele><time>2026-04-07T11:39:34.002Z</time></trkpt><trkpt lat="45.664989853403526" lon="8.646674430704639"><ele>276.75</ele><time>2026-04-07T11:39:35.002Z</time></trkpt><trkpt lat="45.66510166135889" lon="8.646560623129645"><ele>277.0</ele><time>2026-04-07T11:39:36.002Z</time></trkpt><trkpt lat="45.66521506168504" lon="8.646443702360127"><ele>276.0</ele><time>2026-04-07T11:39:37.002Z</time></trkpt><trkpt lat="45.66532675821793" lon="8.646326130495467"><ele>275.0</ele><time>2026-04-07T11:39:38.002Z</time></trkpt><trkpt lat="45.66544526550447" lon="8.646211803761114"><ele>274.0</ele><time>2026-04-07T11:39:39.002Z</time></trkpt><trkpt lat="45.665559102666045" lon="8.646110757235867"><ele>273.0</ele><time>2026-04-07T11:39:40.002Z</time></trkpt><trkpt lat="45.665684283581925" lon="8.646017941793394"><ele>273.5</ele><time>2026-04-07T11:39:41.002Z</time></trkpt><trkpt lat="45.66581579511276" lon="8.645932730591937"><ele>274.0</ele><time>2026-04-07T11:39:42.002Z</time></trkpt><trkpt lat="45.665966444284244" lon="8.645883355536068"><ele>274.5</ele><time>2026-04-07T11:39:43.002Z</time></trkpt><trkpt lat="45.66610876977398" lon="8.645831275492233"><ele>275.0</ele><time>2026-04-07T11:39:44.002Z</time></trkpt><trkpt lat="45.666247574018726" lon="8.645789703406574"><ele>275.0</ele><time>2026-04-07T11:39:45.002Z</time></trkpt><trkpt lat="45.666390715260704" lon="8.645759599084611"><ele>275.0</ele><time>2026-04-07T11:39:46.002Z</time></trkpt><trkpt lat="45.66653265479176" lon="8.645700744286437"><ele>275.0</ele><time>2026-04-07T11:39:47.002Z</time></trkpt><trkpt lat="45.66666888426348" lon="8.645618573565864"><ele>275.0</ele><time>2026-04-07T11:39:48.002Z</time></trkpt><trkpt lat="45.66681184829562" lon="8.645547015020218"><ele>274.6666666666667</ele><time>2026-04-07T11:39:49.002Z</time></trkpt><trkpt lat="45.66695846163032" lon="8.645476350308114"><ele>274.3333333333333</ele><time>2026-04-07T11:39:50.002Z</time></trkpt><trkpt lat="45.667111245249075" lon="8.645410184083287"><ele>274.0</ele><time>2026-04-07T11:39:51.002Z</time></trkpt><trkpt lat="45.66726114032965" lon="8.645352160419549"><ele>276.66666666666663</ele><time>2026-04-07T11:39:52.002Z</time></trkpt><trkpt lat="45.6674129795444" lon="8.64528651686202"><ele>279.3333333333333</ele><time>2026-04-07T11:39:53.002Z</time></trkpt><trkpt lat="45.6675714144264" lon="8.645235750164058"><ele>282.0</ele><time>2026-04-07T11:39:54.002Z</time></trkpt><trkpt lat="45.66773032073141" lon="8.645205769339267"><ele>279.3333333333333</ele><time>2026-04-07T11:39:55.002Z</time></trkpt><trkpt lat="45.66788698442067" lon="8.645175687522093"><ele>276.66666666666663</ele><time>2026-04-07T11:39:56.002Z</time></trkpt><trkpt lat="45.668049901132" lon="8.64514590681107"><ele>274.0</ele><time>2026-04-07T11:39:57.002Z</time></trkpt><trkpt lat="45.66820264341513" lon="8.645122974260826"><ele>274.0</ele><time>2026-04-07T11:39:58.002Z</time></trkpt><trkpt lat="45.66834978784085" lon="8.645086634655135"><ele>274.0</ele><time>2026-04-07T11:39:59.002Z</time></trkpt><trkpt lat="45.66848922542426" lon="8.645022491416833"><ele>274.0</ele><time>2026-04-07T11:40:00.002Z</time></trkpt><trkpt lat="45.668615507362304" lon="8.6449337996891"><ele>274.0</ele><time>2026-04-07T11:40:01Z</time></trkpt><trkpt lat="45.66873397468011" lon="8.644845992512428"><ele>272.59999999999997</ele><time>2026-04-07T11:40:02Z</time></trkpt><trkpt lat="45.66884272778623" lon="8.644752404632877"><ele>271.2</ele><time>2026-04-07T11:40:03Z</time></trkpt><trkpt lat="45.66894172251096" lon="8.644668721135648"><ele>269.79999999999995</ele><time>2026-04-07T11:40:04Z</time></trkpt><trkpt lat="45.669028888775024" lon="8.644590301624511"><ele>268.4</ele><time>2026-04-07T11:40:05Z</time></trkpt><trkpt lat="45.6691113453395" lon="8.644520857622284"><ele>267.0</ele><time>2026-04-07T11:40:06Z</time></trkpt><trkpt lat="45.6691792342031" lon="8.64447176547735"><ele>267.8</ele><time>2026-04-07T11:40:07Z</time></trkpt><trkpt lat="45.6692632043513" lon="8.644410203480554"><ele>268.6</ele><time>2026-04-07T11:40:09Z</time></trkpt><trkpt lat="45.66933182300619" lon="8.644353381646964"><ele>269.40000000000003</ele><time>2026-04-07T11:40:10Z</time></trkpt><trkpt lat="45.66941881186625" lon="8.64426807910799"><ele>270.2</ele><time>2026-04-07T11:40:11Z</time></trkpt><trkpt lat="45.66950332418083" lon="8.6441836878418"><ele>271.0</ele><time>2026-04-07T11:40:12Z</time></trkpt><trkpt lat="45.6695797480923" lon="8.644108454142243"><ele>271.0</ele><time>2026-04-07T11:40:13Z</time></trkpt><trkpt lat="45.66966815545381" lon="8.644031833530391"><ele>271.0</ele><time>2026-04-07T11:40:14Z</time></trkpt><trkpt lat="45.6697616663708" lon="8.643950077625457"><ele>271.0</ele><time>2026-04-07T11:40:15Z</time></trkpt><trkpt lat="45.66985819276162" lon="8.643860047034064"><ele>271.0</ele><time>2026-04-07T11:40:16Z</time></trkpt><trkpt lat="45.66995520572997" lon="8.643757581485666"><ele>271.0</ele><time>2026-04-07T11:40:17Z</time></trkpt><trkpt lat="45.67005343487511" lon="8.643654531084046"><ele>271.0</ele><time>2026-04-07T11:40:18Z</time></trkpt><trkpt lat="45.67014492674715" lon="8.643560329178651"><ele>271.0</ele><time>2026-04-07T11:40:19Z</time></trkpt><trkpt lat="45.67024017779337" lon="8.643461429339167"><ele>271.0</ele><time>2026-04-07T11:40:20Z</time></trkpt><trkpt lat="45.67033902861147" lon="8.643353718221544"><ele>271.0</ele><time>2026-04-07T11:40:21Z</time></trkpt><trkpt lat="45.67044274362325" lon="8.643237504820734"><ele>271.0</ele><time>2026-04-07T11:40:22Z</time></trkpt><trkpt lat="45.670546818197664" lon="8.643118142584658"><ele>271.0</ele><time>2026-04-07T11:40:23Z</time></trkpt><trkpt lat="45.6706576775444" lon="8.642993759355528"><ele>271.0</ele><time>2026-04-07T11:40:24Z</time></trkpt><trkpt lat="45.6707664138563" lon="8.642867058347655"><ele>271.0</ele><time>2026-04-07T11:40:25Z</time></trkpt><trkpt lat="45.67087280805736" lon="8.642730957464698"><ele>270.25</ele><time>2026-04-07T11:40:26Z</time></trkpt><trkpt lat="45.67097691258826" lon="8.642581594138079"><ele>269.5</ele><time>2026-04-07T11:40:27Z</time></trkpt><trkpt lat="45.67107588253664" lon="8.642420628061249"><ele>268.75</ele><time>2026-04-07T11:40:28Z</time></trkpt><trkpt lat="45.67117556809866" lon="8.642267479296567"><ele>268.0</ele><time>2026-04-07T11:40:29Z</time></trkpt><trkpt lat="45.67126763965121" lon="8.642099586922436"><ele>269.75</ele><time>2026-04-07T11:40:30Z</time></trkpt><trkpt lat="45.67134798466799" lon="8.64193633004524"><ele>271.5</ele><time>2026-04-07T11:40:31Z</time></trkpt><trkpt lat="45.67143092541967" lon="8.641760137648697"><ele>273.25</ele><time>2026-04-07T11:40:32Z</time></trkpt><trkpt lat="45.67150139598557" lon="8.64160160075315"><ele>275.0</ele><time>2026-04-07T11:40:33Z</time></trkpt><trkpt lat="45.67156953374002" lon="8.641424179985487"><ele>275.0</ele><time>2026-04-07T11:40:34Z</time></trkpt><trkpt lat="45.67162814257127" lon="8.641234028493407"><ele>275.0</ele><time>2026-04-07T11:40:35Z</time></trkpt><trkpt lat="45.67168140458494" lon="8.641036560880714"><ele>275.0</ele><time>2026-04-07T11:40:36Z</time></trkpt><trkpt lat="45.67172918166511" lon="8.640836467079655"><ele>275.0</ele><time>2026-04-07T11:40:37.001Z</time></trkpt><trkpt lat="45.671779067604106" lon="8.640638570264205"><ele>277.25</ele><time>2026-04-07T11:40:38.001Z</time></trkpt><trkpt lat="45.671825244170456" lon="8.640446728176396"><ele>279.5</ele><time>2026-04-07T11:40:39.001Z</time></trkpt><trkpt lat="45.671867810395554" lon="8.640251798399033"><ele>281.75</ele><time>2026-04-07T11:40:40.001Z</time></trkpt><trkpt lat="45.67190611233818" lon="8.640055366275586"><ele>284.0</ele><time>2026-04-07T11:40:41.001Z</time></trkpt><trkpt lat="45.67193860255055" lon="8.63985497718138"><ele>280.0</ele><time>2026-04-07T11:40:42.001Z</time></trkpt><trkpt lat="45.67196943224" lon="8.63966143509435"><ele>276.0</ele><time>2026-04-07T11:40:43.001Z</time></trkpt><trkpt lat="45.672006184794256" lon="8.639464605001034"><ele>272.0</ele><time>2026-04-07T11:40:44.001Z</time></trkpt><trkpt lat="45.67203003349687" lon="8.639261987184744"><ele>268.0</ele><time>2026-04-07T11:40:45.001Z</time></trkpt><trkpt lat="45.672045980486764" lon="8.639062136517076"><ele>267.5</ele><time>2026-04-07T11:40:46.001Z</time></trkpt><trkpt lat="45.67206173313738" lon="8.638856418269718"><ele>267.0</ele><time>2026-04-07T11:40:47.001Z</time></trkpt><trkpt lat="45.672084276047" lon="8.638645409749563"><ele>266.5</ele><time>2026-04-07T11:40:48.001Z</time></trkpt><trkpt lat="45.67210401631503" lon="8.638441659991868"><ele>266.0</ele><time>2026-04-07T11:40:49.001Z</time></trkpt><trkpt lat="45.6721287118421" lon="8.638240444414974"><ele>267.0</ele><time>2026-04-07T11:40:50.001Z</time></trkpt><trkpt lat="45.67215989096965" lon="8.63804219260844"><ele>268.0</ele><time>2026-04-07T11:40:51.001Z</time></trkpt><trkpt lat="45.67219834227359" lon="8.637852512348763"><ele>269.0</ele><time>2026-04-07T11:40:52.001Z</time></trkpt><trkpt lat="45.67223962914952" lon="8.637661911150706"><ele>270.0</ele><time>2026-04-07T11:40:53.001Z</time></trkpt><trkpt lat="45.67228329935685" lon="8.637476398506102"><ele>270.0</ele><time>2026-04-07T11:40:54.001Z</time></trkpt><trkpt lat="45.672311879251616" lon="8.637284734477877"><ele>270.0</ele><time>2026-04-07T11:40:55.001Z</time></trkpt><trkpt lat="45.672329875029405" lon="8.63710030439611"><ele>270.0</ele><time>2026-04-07T11:40:56.001Z</time></trkpt><trkpt lat="45.67232363882269" lon="8.636914595673284"><ele>270.0</ele><time>2026-04-07T11:40:57.001Z</time></trkpt><trkpt lat="45.672303591832474" lon="8.636732650608732"><ele>270.0</ele><time>2026-04-07T11:40:58.001Z</time></trkpt><trkpt lat="45.67227030751441" lon="8.636559149636344"><ele>270.0</ele><time>2026-04-07T11:40:59.001Z</time></trkpt><trkpt lat="45.67223326350083" lon="8.636378670385854"><ele>270.0</ele><time>2026-04-07T11:41:00.001Z</time></trkpt><trkpt lat="45.67219065370729" lon="8.636206737079654"><ele>270.0</ele><time>2026-04-07T11:41:01.001Z</time></trkpt><trkpt lat="45.67214561358331" lon="8.636022343898409"><ele>269.5</ele><time>2026-04-07T11:41:02.001Z</time></trkpt><trkpt lat="45.67210407448953" lon="8.635834219929405"><ele>269.0</ele><time>2026-04-07T11:41:03.001Z</time></trkpt><trkpt lat="45.67207436616115" lon="8.63563783087271"><ele>268.5</ele><time>2026-04-07T11:41:04.001Z</time></trkpt><trkpt lat="45.67204444509392" lon="8.635447183428447"><ele>268.0</ele><time>2026-04-07T11:41:05.001Z</time></trkpt><trkpt lat="45.67201432565217" lon="8.635268925740492"><ele>268.0</ele><time>2026-04-07T11:41:06.001Z</time></trkpt><trkpt lat="45.67197292104401" lon="8.635096631543831"><ele>268.0</ele><time>2026-04-07T11:41:07.001Z</time></trkpt><trkpt lat="45.67192223574514" lon="8.634924384291535"><ele>268.0</ele><time>2026-04-07T11:41:08.001Z</time></trkpt><trkpt lat="45.67185820570974" lon="8.634758724230515"><ele>268.0</ele><time>2026-04-07T11:41:09.001Z</time></trkpt><trkpt lat="45.67178004558039" lon="8.634605025833007"><ele>270.5</ele><time>2026-04-07T11:41:10.001Z</time></trkpt><trkpt lat="45.67168854572389" lon="8.634464563047427"><ele>273.0</ele><time>2026-04-07T11:41:11.001Z</time></trkpt><trkpt lat="45.671583471177144" lon="8.634331696680038"><ele>275.5</ele><time>2026-04-07T11:41:12.001Z</time></trkpt><trkpt lat="45.671475596520935" lon="8.634200288577565"><ele>278.0</ele><time>2026-04-07T11:41:13.001Z</time></trkpt><trkpt lat="45.671372908970284" lon="8.634060706888873"><ele>278.0</ele><time>2026-04-07T11:41:14.001Z</time></trkpt><trkpt lat="45.671287820595204" lon="8.633907789352365"><ele>278.0</ele><time>2026-04-07T11:41:15.001Z</time></trkpt><trkpt lat="45.67121446198596" lon="8.633746275991683"><ele>278.0</ele><time>2026-04-07T11:41:16.001Z</time></trkpt><trkpt lat="45.67115005135436" lon="8.633574094792497"><ele>278.0</ele><time>2026-04-07T11:41:17.001Z</time></trkpt><trkpt lat="45.67108744577267" lon="8.63339609104451"><ele>278.75</ele><time>2026-04-07T11:41:18.001Z</time></trkpt><trkpt lat="45.67103168330799" lon="8.633207699388471"><ele>279.5</ele><time>2026-04-07T11:41:19.001Z</time></trkpt><trkpt lat="45.67098662123913" lon="8.633018221644248"><ele>280.25</ele><time>2026-04-07T11:41:20.001Z</time></trkpt><trkpt lat="45.67093475819235" lon="8.632835214525834"><ele>281.0</ele><time>2026-04-07T11:41:21.001Z</time></trkpt><trkpt lat="45.670875607710535" lon="8.63266288675471"><ele>281.0</ele><time>2026-04-07T11:41:22.001Z</time></trkpt><trkpt lat="45.67081028232774" lon="8.632496392063018"><ele>281.0</ele><time>2026-04-07T11:41:23.001Z</time></trkpt><trkpt lat="45.67074151924463" lon="8.632334071551686"><ele>281.0</ele><time>2026-04-07T11:41:24.002Z</time></trkpt><trkpt lat="45.67067264670283" lon="8.63217169487369"><ele>281.0</ele><time>2026-04-07T11:41:25.002Z</time></trkpt><trkpt lat="45.670603673738704" lon="8.632013803467094"><ele>279.8</ele><time>2026-04-07T11:41:26.002Z</time></trkpt><trkpt lat="45.670545305497534" lon="8.631890928168454"><ele>278.6</ele><time>2026-04-07T11:41:27.002Z</time></trkpt><trkpt lat="45.67048703394555" lon="8.631770742597148"><ele>277.4</ele><time>2026-04-07T11:41:28.002Z</time></trkpt><trkpt lat="45.67043664631905" lon="8.631666962951837"><ele>276.2</ele><time>2026-04-07T11:41:29.002Z</time></trkpt><trkpt lat="45.670395275249305" lon="8.631580821479359"><ele>275.0</ele><time>2026-04-07T11:41:30.002Z</time></trkpt><trkpt lat="45.67034727269595" lon="8.631442659362188"><ele>275.0</ele><time>2026-04-07T11:41:32.002Z</time></trkpt><trkpt lat="45.67036966158089" lon="8.631302462105"><ele>275.0</ele><time>2026-04-07T11:41:34.002Z</time></trkpt><trkpt lat="45.67048686244977" lon="8.631183396679619"><ele>275.0</ele><time>2026-04-07T11:41:36.002Z</time></trkpt><trkpt lat="45.67057643246873" lon="8.631162858632093"><ele>275.0</ele><time>2026-04-07T11:41:37.002Z</time></trkpt><trkpt lat="45.670689151612784" lon="8.63116204929835"><ele>275.0</ele><time>2026-04-07T11:41:38.002Z</time></trkpt><trkpt lat="45.670804971174924" lon="8.63116677369267"><ele>275.0</ele><time>2026-04-07T11:41:39.002Z</time></trkpt><trkpt lat="45.67093201849854" lon="8.63117421529067"><ele>275.0</ele><time>2026-04-07T11:41:40.002Z</time></trkpt><trkpt lat="45.671072323751815" lon="8.631219215491186"><ele>275.0</ele><time>2026-04-07T11:41:41.002Z</time></trkpt><trkpt lat="45.67120900996242" lon="8.63121815339154"><ele>275.0</ele><time>2026-04-07T11:41:42.002Z</time></trkpt><trkpt lat="45.671477393812765" lon="8.63122169275291"><ele>273.25</ele><time>2026-04-07T11:41:44.002Z</time></trkpt><trkpt lat="45.67161148605514" lon="8.631218865942168"><ele>271.5</ele><time>2026-04-07T11:41:45.002Z</time></trkpt><trkpt lat="45.67175979261058" lon="8.63121305799461"><ele>269.75</ele><time>2026-04-07T11:41:46.002Z</time></trkpt><trkpt lat="45.67191037781006" lon="8.631209233551507"><ele>268.0</ele><time>2026-04-07T11:41:47.002Z</time></trkpt><trkpt lat="45.672062629430414" lon="8.631200104761943"><ele>268.0</ele><time>2026-04-07T11:41:48.002Z</time></trkpt><trkpt lat="45.67221535453646" lon="8.63119419928658"><ele>268.0</ele><time>2026-04-07T11:41:49.002Z</time></trkpt><trkpt lat="45.67236444000309" lon="8.631189575196947"><ele>268.0</ele><time>2026-04-07T11:41:50.002Z</time></trkpt><trkpt lat="45.67252067213417" lon="8.631183077283689"><ele>268.0</ele><time>2026-04-07T11:41:51.002Z</time></trkpt><trkpt lat="45.67266684431298" lon="8.631171727262192"><ele>268.0</ele><time>2026-04-07T11:41:52.002Z</time></trkpt><trkpt lat="45.67281043876498" lon="8.631163614388756"><ele>268.0</ele><time>2026-04-07T11:41:53.002Z</time></trkpt><trkpt lat="45.672943917325945" lon="8.6311554153281"><ele>268.0</ele><time>2026-04-07T11:41:54.002Z</time></trkpt><trkpt lat="45.67307524696687" lon="8.631147706555183"><ele>267.8</ele><time>2026-04-07T11:41:55.002Z</time></trkpt><trkpt lat="45.67319056216061" lon="8.631141982689122"><ele>267.6</ele><time>2026-04-07T11:41:56.002Z</time></trkpt><trkpt lat="45.67329944056698" lon="8.631137591973845"><ele>267.4</ele><time>2026-04-07T11:41:57.002Z</time></trkpt><trkpt lat="45.673391543813835" lon="8.631132761010328"><ele>267.2</ele><time>2026-04-07T11:41:58.002Z</time></trkpt><trkpt lat="45.67345829226808" lon="8.631127819360294"><ele>267.0</ele><time>2026-04-07T11:41:59.002Z</time></trkpt><trkpt lat="45.67356392337189" lon="8.631086330703356"><ele>267.2</ele><time>2026-04-07T11:42:01.002Z</time></trkpt><trkpt lat="45.673628198687524" lon="8.630930905948938"><ele>267.4</ele><time>2026-04-07T11:42:03.002Z</time></trkpt><trkpt lat="45.673645870393734" lon="8.63081381103321"><ele>267.6</ele><time>2026-04-07T11:42:04.002Z</time></trkpt><trkpt lat="45.67366516173427" lon="8.63068032490978"><ele>267.8</ele><time>2026-04-07T11:42:05.002Z</time></trkpt><trkpt lat="45.673679620180145" lon="8.63055736054198"><ele>268.0</ele><time>2026-04-07T11:42:06.002Z</time></trkpt><trkpt lat="45.673686208980655" lon="8.630426672532328"><ele>268.0</ele><time>2026-04-07T11:42:07Z</time></trkpt><trkpt lat="45.67369227095208" lon="8.630289988396665"><ele>268.0</ele><time>2026-04-07T11:42:08Z</time></trkpt><trkpt lat="45.673706417009136" lon="8.63015757058675"><ele>268.0</ele><time>2026-04-07T11:42:09Z</time></trkpt><trkpt lat="45.67373047813985" lon="8.630041012909077"><ele>268.0</ele><time>2026-04-07T11:42:10Z</time></trkpt><trkpt lat="45.67376932064712" lon="8.629948093589428"><ele>268.0</ele><time>2026-04-07T11:42:11Z</time></trkpt><trkpt lat="45.67382712186025" lon="8.629883646972202"><ele>268.0</ele><time>2026-04-07T11:42:12Z</time></trkpt><trkpt lat="45.6739032734118" lon="8.62984344375528"><ele>268.0</ele><time>2026-04-07T11:42:13Z</time></trkpt><trkpt lat="45.67399545502918" lon="8.629814463685598"><ele>268.0</ele><time>2026-04-07T11:42:14Z</time></trkpt><trkpt lat="45.67408717067197" lon="8.629761674892798"><ele>268.0</ele><time>2026-04-07T11:42:15Z</time></trkpt><trkpt lat="45.67418427334556" lon="8.629685607107628"><ele>268.0</ele><time>2026-04-07T11:42:16Z</time></trkpt><trkpt lat="45.674279203506046" lon="8.629586497038794"><ele>268.0</ele><time>2026-04-07T11:42:17Z</time></trkpt><trkpt lat="45.67437216877189" lon="8.629479612067353"><ele>268.25</ele><time>2026-04-07T11:42:18Z</time></trkpt><trkpt lat="45.67447412064673" lon="8.629368967387592"><ele>268.5</ele><time>2026-04-07T11:42:19Z</time></trkpt><trkpt lat="45.67457902518073" lon="8.629273636801267"><ele>268.75</ele><time>2026-04-07T11:42:20Z</time></trkpt><trkpt lat="45.67468641871406" lon="8.62919563526544"><ele>269.0</ele><time>2026-04-07T11:42:21Z</time></trkpt><trkpt lat="45.674787288120044" lon="8.629140041315596"><ele>269.0</ele><time>2026-04-07T11:42:22Z</time></trkpt><trkpt lat="45.67487861906686" lon="8.629095625603716"><ele>269.0</ele><time>2026-04-07T11:42:23Z</time></trkpt><trkpt lat="45.674967287486865" lon="8.62905768931488"><ele>269.0</ele><time>2026-04-07T11:42:24Z</time></trkpt><trkpt lat="45.67505611770611" lon="8.629023802586048"><ele>269.0</ele><time>2026-04-07T11:42:25Z</time></trkpt><trkpt lat="45.67514706953041" lon="8.629002385604437"><ele>269.0</ele><time>2026-04-07T11:42:26Z</time></trkpt><trkpt lat="45.67524233572463" lon="8.628984119118618"><ele>269.0</ele><time>2026-04-07T11:42:27Z</time></trkpt><trkpt lat="45.6753397919617" lon="8.62896084604154"><ele>269.0</ele><time>2026-04-07T11:42:28Z</time></trkpt><trkpt lat="45.67543574725979" lon="8.62893079709274"><ele>269.0</ele><time>2026-04-07T11:42:29Z</time></trkpt><trkpt lat="45.67552546931925" lon="8.628904764964885"><ele>269.0</ele><time>2026-04-07T11:42:30Z</time></trkpt><trkpt lat="45.675608992661715" lon="8.628882146492074"><ele>269.0</ele><time>2026-04-07T11:42:31Z</time></trkpt><trkpt lat="45.67568269041727" lon="8.628861288025863"><ele>269.0</ele><time>2026-04-07T11:42:32Z</time></trkpt><trkpt lat="45.675746547337724" lon="8.62883276022172"><ele>269.0</ele><time>2026-04-07T11:42:33Z</time></trkpt><trkpt lat="45.675837386182025" lon="8.628755137942271"><ele>269.0</ele><time>2026-04-07T11:42:35Z</time></trkpt><trkpt lat="45.6758809723955" lon="8.62865662575341"><ele>269.0</ele><time>2026-04-07T11:42:37Z</time></trkpt><trkpt lat="45.67589565398534" lon="8.62851705361941"><ele>269.0</ele><time>2026-04-07T11:42:39.001Z</time></trkpt><trkpt lat="45.675904819875846" lon="8.628424416324076"><ele>269.0</ele><time>2026-04-07T11:42:40.001Z</time></trkpt><trkpt lat="45.675915360939484" lon="8.628314244168823"><ele>269.0</ele><time>2026-04-07T11:42:41.001Z</time></trkpt><trkpt lat="45.675924942077124" lon="8.628195458832348"><ele>269.1666666666667</ele><time>2026-04-07T11:42:42.001Z</time></trkpt><trkpt lat="45.675934426668704" lon="8.628078967374378"><ele>269.33333333333337</ele><time>2026-04-07T11:42:43.001Z</time></trkpt><trkpt lat="45.67594444272842" lon="8.627960592785511"><ele>269.5</ele><time>2026-04-07T11:42:44.001Z</time></trkpt><trkpt lat="45.67595183757703" lon="8.627845332862266"><ele>269.6666666666667</ele><time>2026-04-07T11:42:45.001Z</time></trkpt><trkpt lat="45.67596307638747" lon="8.62772642997327"><ele>269.8333333333333</ele><time>2026-04-07T11:42:46.001Z</time></trkpt><trkpt lat="45.67597547998783" lon="8.627607796031972"><ele>270.0</ele><time>2026-04-07T11:42:47.001Z</time></trkpt><trkpt lat="45.67598480774252" lon="8.627487828113827"><ele>270.0</ele><time>2026-04-07T11:42:48.001Z</time></trkpt><trkpt lat="45.67599527377749" lon="8.62737372288112"><ele>270.0</ele><time>2026-04-07T11:42:49.001Z</time></trkpt><trkpt lat="45.67600624252735" lon="8.62726296563559"><ele>270.0</ele><time>2026-04-07T11:42:50.001Z</time></trkpt><trkpt lat="45.67602495693459" lon="8.627157971494512"><ele>270.0</ele><time>2026-04-07T11:42:51.001Z</time></trkpt><trkpt lat="45.6760609249144" lon="8.627060803249867"><ele>270.0</ele><time>2026-04-07T11:42:52.001Z</time></trkpt><trkpt lat="45.6761089935879" lon="8.626977859966095"><ele>270.0</ele><time>2026-04-07T11:42:53.001Z</time></trkpt><trkpt lat="45.67616976874328" lon="8.626899510283312"><ele>270.6666666666667</ele><time>2026-04-07T11:42:54.001Z</time></trkpt><trkpt lat="45.67623234758247" lon="8.626822055036659"><ele>271.3333333333333</ele><time>2026-04-07T11:42:55.001Z</time></trkpt><trkpt lat="45.67629384798143" lon="8.626745948221835"><ele>272.0</ele><time>2026-04-07T11:42:56.001Z</time></trkpt><trkpt lat="45.67635741908319" lon="8.626674855827245"><ele>272.66666666666663</ele><time>2026-04-07T11:42:57.001Z</time></trkpt><trkpt lat="45.67642128484926" lon="8.626609530326833"><ele>273.3333333333333</ele><time>2026-04-07T11:42:58.001Z</time></trkpt><trkpt lat="45.67648838565804" lon="8.626542363732707"><ele>274.0</ele><time>2026-04-07T11:42:59.001Z</time></trkpt><trkpt lat="45.67655566288464" lon="8.626478806517254"><ele>274.0</ele><time>2026-04-07T11:43:00.001Z</time></trkpt><trkpt lat="45.676634161549096" lon="8.626430543163595"><ele>274.0</ele><time>2026-04-07T11:43:01.001Z</time></trkpt><trkpt lat="45.67671747134902" lon="8.62639996111202"><ele>274.0</ele><time>2026-04-07T11:43:02.001Z</time></trkpt><trkpt lat="45.6768023312818" lon="8.62637228179164"><ele>274.0</ele><time>2026-04-07T11:43:03.001Z</time></trkpt><trkpt lat="45.676878942863645" lon="8.626348627034158"><ele>274.0</ele><time>2026-04-07T11:43:04.001Z</time></trkpt><trkpt lat="45.67693825183897" lon="8.626308692192966"><ele>274.0</ele><time>2026-04-07T11:43:05.001Z</time></trkpt><trkpt lat="45.676989522251425" lon="8.626256342857207"><ele>274.59999999999997</ele><time>2026-04-07T11:43:06.001Z</time></trkpt><trkpt lat="45.67704216350708" lon="8.626101837015568"><ele>275.2</ele><time>2026-04-07T11:43:08.001Z</time></trkpt><trkpt lat="45.67706158101277" lon="8.625996786489738"><ele>275.79999999999995</ele><time>2026-04-07T11:43:09.001Z</time></trkpt><trkpt lat="45.67708638456053" lon="8.625881800428111"><ele>276.4</ele><time>2026-04-07T11:43:10.001Z</time></trkpt><trkpt lat="45.67712259843175" lon="8.625767825543099"><ele>277.0</ele><time>2026-04-07T11:43:11.001Z</time></trkpt><trkpt lat="45.67716073853648" lon="8.625662180527055"><ele>277.0</ele><time>2026-04-07T11:43:12.001Z</time></trkpt><trkpt lat="45.677206162565135" lon="8.62555826814667"><ele>277.0</ele><time>2026-04-07T11:43:13.001Z</time></trkpt><trkpt lat="45.67726236502235" lon="8.625461716677423"><ele>277.0</ele><time>2026-04-07T11:43:14.001Z</time></trkpt><trkpt lat="45.677325514722206" lon="8.625363229851693"><ele>277.0</ele><time>2026-04-07T11:43:15.001Z</time></trkpt><trkpt lat="45.67738705740446" lon="8.625270650426044"><ele>277.0</ele><time>2026-04-07T11:43:16.001Z</time></trkpt><trkpt lat="45.67745594699112" lon="8.625187881528898"><ele>277.0</ele><time>2026-04-07T11:43:17.001Z</time></trkpt><trkpt lat="45.677523339932655" lon="8.625113285280548"><ele>277.16666666666663</ele><time>2026-04-07T11:43:18.001Z</time></trkpt><trkpt lat="45.67759887085766" lon="8.625036385471828"><ele>277.3333333333333</ele><time>2026-04-07T11:43:19.001Z</time></trkpt><trkpt lat="45.677673726890674" lon="8.624960346319302"><ele>277.5</ele><time>2026-04-07T11:43:20.001Z</time></trkpt><trkpt lat="45.67774935125859" lon="8.624898687705015"><ele>277.6666666666667</ele><time>2026-04-07T11:43:21.001Z</time></trkpt><trkpt lat="45.67781664293029" lon="8.624848789885426"><ele>277.83333333333337</ele><time>2026-04-07T11:43:22.001Z</time></trkpt><trkpt lat="45.67788591925031" lon="8.624814027230347"><ele>278.0</ele><time>2026-04-07T11:43:23.002Z</time></trkpt><trkpt lat="45.67795383754049" lon="8.624789229448801"><ele>278.0</ele><time>2026-04-07T11:43:24.002Z</time></trkpt><trkpt lat="45.67803125193247" lon="8.624774271697728"><ele>278.0</ele><time>2026-04-07T11:43:25.002Z</time></trkpt><trkpt lat="45.67811097180043" lon="8.624748562246362"><ele>278.0</ele><time>2026-04-07T11:43:26.002Z</time></trkpt><trkpt lat="45.67818991513262" lon="8.624696866252261"><ele>278.0</ele><time>2026-04-07T11:43:27.002Z</time></trkpt><trkpt lat="45.67827267887063" lon="8.62463513904304"><ele>278.0</ele><time>2026-04-07T11:43:28.002Z</time></trkpt><trkpt lat="45.67834949888516" lon="8.624561363591933"><ele>278.0</ele><time>2026-04-07T11:43:29.002Z</time></trkpt><trkpt lat="45.678423144350276" lon="8.624471438685665"><ele>278.0</ele><time>2026-04-07T11:43:30.002Z</time></trkpt><trkpt lat="45.678482962491" lon="8.624366373370663"><ele>278.0</ele><time>2026-04-07T11:43:31.002Z</time></trkpt><trkpt lat="45.67855008145455" lon="8.624258598275967"><ele>278.0</ele><time>2026-04-07T11:43:32.002Z</time></trkpt><trkpt lat="45.678616612393206" lon="8.624148956636088"><ele>278.0</ele><time>2026-04-07T11:43:33.002Z</time></trkpt><trkpt lat="45.67868500694338" lon="8.624046607641159"><ele>278.0</ele><time>2026-04-07T11:43:34.002Z</time></trkpt><trkpt lat="45.678741021540525" lon="8.623947913636828"><ele>278.0</ele><time>2026-04-07T11:43:35.002Z</time></trkpt><trkpt lat="45.678800168008685" lon="8.623851864257356"><ele>278.0</ele><time>2026-04-07T11:43:36.002Z</time></trkpt><trkpt lat="45.67886146919625" lon="8.623758638780352"><ele>278.0</ele><time>2026-04-07T11:43:37.002Z</time></trkpt><trkpt lat="45.678919332625384" lon="8.623664750769171"><ele>278.0</ele><time>2026-04-07T11:43:38.002Z</time></trkpt><trkpt lat="45.678984929070474" lon="8.623570535362783"><ele>278.0</ele><time>2026-04-07T11:43:39.002Z</time></trkpt><trkpt lat="45.6790493607579" lon="8.623481566663754"><ele>278.0</ele><time>2026-04-07T11:43:40.002Z</time></trkpt><trkpt lat="45.67911018885419" lon="8.623380379238185"><ele>278.4</ele><time>2026-04-07T11:43:41.002Z</time></trkpt><trkpt lat="45.67916405088669" lon="8.623269106446758"><ele>278.8</ele><time>2026-04-07T11:43:42.002Z</time></trkpt><trkpt lat="45.679218816502484" lon="8.623152643838164"><ele>279.2</ele><time>2026-04-07T11:43:43.002Z</time></trkpt><trkpt lat="45.67927394224925" lon="8.62303705376096"><ele>279.6</ele><time>2026-04-07T11:43:44.002Z</time></trkpt><trkpt lat="45.679314282114625" lon="8.622915258701187"><ele>280.0</ele><time>2026-04-07T11:43:45.002Z</time></trkpt><trkpt lat="45.679351918276836" lon="8.622783105175568"><ele>280.0</ele><time>2026-04-07T11:43:46.002Z</time></trkpt><trkpt lat="45.67939670381652" lon="8.622649622521658"><ele>280.0</ele><time>2026-04-07T11:43:47.002Z</time></trkpt><trkpt lat="45.67943762374743" lon="8.622521538882875"><ele>280.0</ele><time>2026-04-07T11:43:48.002Z</time></trkpt><trkpt lat="45.679469414862055" lon="8.622379937437596"><ele>280.0</ele><time>2026-04-07T11:43:49.002Z</time></trkpt><trkpt lat="45.67948640504827" lon="8.622219865346937"><ele>280.0</ele><time>2026-04-07T11:43:50.002Z</time></trkpt><trkpt lat="45.679524749128255" lon="8.622077115925505"><ele>280.2</ele><time>2026-04-07T11:43:51.002Z</time></trkpt><trkpt lat="45.679567901907426" lon="8.62193747620738"><ele>280.4</ele><time>2026-04-07T11:43:52.002Z</time></trkpt><trkpt lat="45.67960220503983" lon="8.621795541664145"><ele>280.6</ele><time>2026-04-07T11:43:53.002Z</time></trkpt><trkpt lat="45.67963824157369" lon="8.621664691474292"><ele>280.8</ele><time>2026-04-07T11:43:54.002Z</time></trkpt><trkpt lat="45.67966674530426" lon="8.621528457424397"><ele>281.0</ele><time>2026-04-07T11:43:55.002Z</time></trkpt><trkpt lat="45.679693534615105" lon="8.621387380527901"><ele>281.0</ele><time>2026-04-07T11:43:56.002Z</time></trkpt><trkpt lat="45.679697114720184" lon="8.621240610474278"><ele>281.0</ele><time>2026-04-07T11:43:57.002Z</time></trkpt><trkpt lat="45.67970349748929" lon="8.621096108403604"><ele>281.0</ele><time>2026-04-07T11:43:58.002Z</time></trkpt><trkpt lat="45.67971304677052" lon="8.620954695709864"><ele>281.0</ele><time>2026-04-07T11:43:59.002Z</time></trkpt><trkpt lat="45.67972868626623" lon="8.620822918064622"><ele>281.0</ele><time>2026-04-07T11:44:00.002Z</time></trkpt><trkpt lat="45.67974494544674" lon="8.620693989282564"><ele>280.6</ele><time>2026-04-07T11:44:01.002Z</time></trkpt><trkpt lat="45.67977133082556" lon="8.620558326156075"><ele>280.20000000000005</ele><time>2026-04-07T11:44:02.002Z</time></trkpt><trkpt lat="45.67979050915168" lon="8.620425651301861"><ele>279.79999999999995</ele><time>2026-04-07T11:44:03.002Z</time></trkpt><trkpt lat="45.67979984589437" lon="8.620274864407733"><ele>279.4</ele><time>2026-04-07T11:44:04.002Z</time></trkpt><trkpt lat="45.67980419268586" lon="8.62011711115722"><ele>279.0</ele><time>2026-04-07T11:44:05.002Z</time></trkpt><trkpt lat="45.67980488621236" lon="8.61996928710008"><ele>279.0</ele><time>2026-04-07T11:44:06.002Z</time></trkpt><trkpt lat="45.67980416876804" lon="8.619834698750235"><ele>279.0</ele><time>2026-04-07T11:44:07.002Z</time></trkpt><trkpt lat="45.6798049634997" lon="8.619701336146443"><ele>279.0</ele><time>2026-04-07T11:44:08.002Z</time></trkpt><trkpt lat="45.67980742455795" lon="8.619558359486435"><ele>279.0</ele><time>2026-04-07T11:44:09.002Z</time></trkpt><trkpt lat="45.67981728811485" lon="8.619406452243972"><ele>279.0</ele><time>2026-04-07T11:44:10.003Z</time></trkpt><trkpt lat="45.67982906441819" lon="8.619250295419558"><ele>279.0</ele><time>2026-04-07T11:44:11.003Z</time></trkpt><trkpt lat="45.67983993260108" lon="8.619105109002762"><ele>279.0</ele><time>2026-04-07T11:44:12.003Z</time></trkpt><trkpt lat="45.67985033254703" lon="8.61896216464902"><ele>279.0</ele><time>2026-04-07T11:44:13Z</time></trkpt><trkpt lat="45.679862645743015" lon="8.61881316368897"><ele>279.0</ele><time>2026-04-07T11:44:14Z</time></trkpt><trkpt lat="45.67987487549046" lon="8.618671469696528"><ele>279.0</ele><time>2026-04-07T11:44:15Z</time></trkpt><trkpt lat="45.67988557172511" lon="8.618552378687488"><ele>279.1666666666667</ele><time>2026-04-07T11:44:16Z</time></trkpt><trkpt lat="45.67989418482807" lon="8.618436899338658"><ele>279.3333333333333</ele><time>2026-04-07T11:44:17Z</time></trkpt><trkpt lat="45.67991725269526" lon="8.618333261620116"><ele>279.5</ele><time>2026-04-07T11:44:18Z</time></trkpt><trkpt lat="45.679955750207974" lon="8.618229713969969"><ele>279.66666666666663</ele><time>2026-04-07T11:44:19Z</time></trkpt><trkpt lat="45.68000847150073" lon="8.618120730201666"><ele>279.8333333333333</ele><time>2026-04-07T11:44:20Z</time></trkpt><trkpt lat="45.68006240932899" lon="8.618002793155666"><ele>280.0</ele><time>2026-04-07T11:44:21Z</time></trkpt><trkpt lat="45.68011639914338" lon="8.617889797468452"><ele>280.0</ele><time>2026-04-07T11:44:22Z</time></trkpt><trkpt lat="45.68016399116089" lon="8.617787255895427"><ele>280.0</ele><time>2026-04-07T11:44:23Z</time></trkpt><trkpt lat="45.68019938084213" lon="8.61768541710973"><ele>280.0</ele><time>2026-04-07T11:44:24Z</time></trkpt><trkpt lat="45.68023499235978" lon="8.617577135628965"><ele>280.0</ele><time>2026-04-07T11:44:25Z</time></trkpt><trkpt lat="45.68027681840821" lon="8.61746090119939"><ele>280.0</ele><time>2026-04-07T11:44:26Z</time></trkpt><trkpt lat="45.680325851960035" lon="8.617352797564497"><ele>280.0</ele><time>2026-04-07T11:44:27Z</time></trkpt><trkpt lat="45.68036681508275" lon="8.617273476454612"><ele>280.0</ele><time>2026-04-07T11:44:28Z</time></trkpt><trkpt lat="45.68041883936156" lon="8.617142384084879"><ele>280.0</ele><time>2026-04-07T11:44:30Z</time></trkpt><trkpt lat="45.68041246475137" lon="8.617049581964945"><ele>280.0</ele><time>2026-04-07T11:44:32Z</time></trkpt><trkpt lat="45.680331198356626" lon="8.617005623632958"><ele>280.0</ele><time>2026-04-07T11:44:35Z</time></trkpt><trkpt lat="45.680240192068055" lon="8.6170605625366"><ele>280.0</ele><time>2026-04-07T11:44:37Z</time></trkpt><trkpt lat="45.68018097063537" lon="8.61711431924145"><ele>280.0</ele><time>2026-04-07T11:44:38Z</time></trkpt><trkpt lat="45.68009131876243" lon="8.617209019126747"><ele>280.66666666666663</ele><time>2026-04-07T11:44:40Z</time></trkpt><trkpt lat="45.680036760273666" lon="8.617294437528257"><ele>281.3333333333333</ele><time>2026-04-07T11:44:41Z</time></trkpt><trkpt lat="45.679978015713615" lon="8.617392475148918"><ele>282.0</ele><time>2026-04-07T11:44:42Z</time></trkpt><trkpt lat="45.679906349491404" lon="8.617462404820557"><ele>282.6666666666667</ele><time>2026-04-07T11:44:43.001Z</time></trkpt><trkpt lat="45.679850146125176" lon="8.617514702664263"><ele>283.33333333333337</ele><time>2026-04-07T11:44:44.001Z</time></trkpt><trkpt lat="45.679796069792985" lon="8.617566058641694"><ele>284.0</ele><time>2026-04-07T11:44:45.001Z</time></trkpt><trkpt lat="45.67973333333795" lon="8.617608322207005"><ele>284.0</ele><time>2026-04-07T11:44:46.001Z</time></trkpt><trkpt lat="45.67967098556557" lon="8.617661694246426"><ele>284.0</ele><time>2026-04-07T11:44:47.001Z</time></trkpt><trkpt lat="45.67961578680902" lon="8.61771134471261"><ele>284.0</ele><time>2026-04-07T11:44:48.001Z</time></trkpt><trkpt lat="45.67955516474969" lon="8.617773400744879"><ele>284.0</ele><time>2026-04-07T11:44:49.001Z</time></trkpt><trkpt lat="45.67949254534384" lon="8.617826443595431"><ele>284.0</ele><time>2026-04-07T11:44:50.001Z</time></trkpt><trkpt lat="45.679427715120575" lon="8.617879705963032"><ele>284.0</ele><time>2026-04-07T11:44:51.001Z</time></trkpt><trkpt lat="45.679360911996035" lon="8.61793065956023"><ele>284.0</ele><time>2026-04-07T11:44:52.001Z</time></trkpt><trkpt lat="45.679300745515185" lon="8.61798010482227"><ele>283.33333333333337</ele><time>2026-04-07T11:44:53.001Z</time></trkpt><trkpt lat="45.67923423907699" lon="8.618030644726902"><ele>282.6666666666667</ele><time>2026-04-07T11:44:54.001Z</time></trkpt><trkpt lat="45.679162831233214" lon="8.618088368948522"><ele>282.0</ele><time>2026-04-07T11:44:55.001Z</time></trkpt><trkpt lat="45.67907705706941" lon="8.618179251182196"><ele>281.3333333333333</ele><time>2026-04-07T11:44:57.001Z</time></trkpt><trkpt lat="45.679009210836746" lon="8.618240317819378"><ele>280.66666666666663</ele><time>2026-04-07T11:44:59.001Z</time></trkpt><trkpt lat="45.67895241526513" lon="8.618318738717736"><ele>280.0</ele><time>2026-04-07T11:45:01.001Z</time></trkpt><trkpt lat="45.678885531117" lon="8.618426830398946"><ele>280.0</ele><time>2026-04-07T11:45:03.001Z</time></trkpt><trkpt lat="45.67883633167026" lon="8.618489561536945"><ele>280.0</ele><time>2026-04-07T11:45:04.001Z</time></trkpt><trkpt lat="45.6787678356298" lon="8.618600200424012"><ele>280.0</ele><time>2026-04-07T11:45:06.001Z</time></trkpt><trkpt lat="45.67869050612496" lon="8.61863038194609"><ele>280.0</ele><time>2026-04-07T11:45:08.001Z</time></trkpt><trkpt lat="45.678581184677846" lon="8.618569204385421"><ele>280.0</ele><time>2026-04-07T11:45:10.001Z</time></trkpt><trkpt lat="45.67850390841585" lon="8.618465605769556"><ele>281.4</ele><time>2026-04-07T11:45:12.001Z</time></trkpt><trkpt lat="45.67839638165667" lon="8.618393755932717"><ele>282.8</ele><time>2026-04-07T11:45:14.001Z</time></trkpt><trkpt lat="45.67828916279821" lon="8.618279812204536"><ele>284.2</ele><time>2026-04-07T11:45:16.001Z</time></trkpt><trkpt lat="45.678239117737114" lon="8.618216046500807"><ele>285.6</ele><time>2026-04-07T11:45:17.001Z</time></trkpt><trkpt lat="45.678186058600346" lon="8.618157339588436"><ele>287.0</ele><time>2026-04-07T11:45:18.001Z</time></trkpt><trkpt lat="45.67813856277042" lon="8.618097297363512"><ele>287.0</ele><time>2026-04-07T11:45:19.001Z</time></trkpt><trkpt lat="45.67805120713993" lon="8.617989694738409"><ele>287.0</ele><time>2026-04-07T11:45:21.001Z</time></trkpt><trkpt lat="45.677958453074424" lon="8.61788647623188"><ele>287.0</ele><time>2026-04-07T11:45:23.001Z</time></trkpt><trkpt lat="45.67791627217502" lon="8.617764293166058"><ele>287.0</ele><time>2026-04-07T11:45:25.001Z</time></trkpt><trkpt lat="45.67788745099042" lon="8.617637121718227"><ele>287.0</ele><time>2026-04-07T11:45:27.001Z</time></trkpt><trkpt lat="45.67781934239657" lon="8.617561378795292"><ele>287.2</ele><time>2026-04-07T11:45:29.001Z</time></trkpt><trkpt lat="45.677755650425325" lon="8.617525054053417"><ele>287.4</ele><time>2026-04-07T11:45:30.002Z</time></trkpt><trkpt lat="45.677649229177945" lon="8.617403688955918"><ele>287.6</ele><time>2026-04-07T11:45:32.002Z</time></trkpt><trkpt lat="45.67756877829837" lon="8.617333301829616"><ele>287.8</ele><time>2026-04-07T11:45:33.002Z</time></trkpt><trkpt lat="45.677500323948216" lon="8.617270002763066"><ele>288.0</ele><time>2026-04-07T11:45:34.002Z</time></trkpt><trkpt lat="45.677441774159874" lon="8.617203104843986"><ele>288.0</ele><time>2026-04-07T11:45:35.002Z</time></trkpt><trkpt lat="45.67736921212796" lon="8.617126325511878"><ele>288.0</ele><time>2026-04-07T11:45:36.002Z</time></trkpt><trkpt lat="45.67730137396884" lon="8.617060718370166"><ele>288.0</ele><time>2026-04-07T11:45:37.002Z</time></trkpt><trkpt lat="45.67724676613512" lon="8.617014880146298"><ele>288.0</ele><time>2026-04-07T11:45:38.002Z</time></trkpt><trkpt lat="45.67715911436325" lon="8.61696742492118"><ele>288.0</ele><time>2026-04-07T11:45:40.002Z</time></trkpt><trkpt lat="45.6770871503166" lon="8.616966408828915"><ele>288.0</ele><time>2026-04-07T11:45:42.002Z</time></trkpt><trkpt lat="45.67698099750481" lon="8.617037660857907"><ele>288.00000000000006</ele><time>2026-04-07T11:45:44.002Z</time></trkpt><trkpt lat="45.67691267006871" lon="8.617065137962447"><ele>288.0</ele><time>2026-04-07T11:45:45.002Z</time></trkpt><trkpt lat="45.67685156415244" lon="8.617087727812704"><ele>288.0</ele><time>2026-04-07T11:45:46.002Z</time></trkpt><trkpt lat="45.676765760698984" lon="8.617125497358174"><ele>288.0</ele><time>2026-04-07T11:45:47.002Z</time></trkpt><trkpt lat="45.67668983789542" lon="8.617153326318547"><ele>288.0</ele><time>2026-04-07T11:45:48.002Z</time></trkpt><trkpt lat="45.676616131996724" lon="8.617179137215823"><ele>288.00000000000006</ele><time>2026-04-07T11:45:49.002Z</time></trkpt><trkpt lat="45.67655123056783" lon="8.61721483462616"><ele>288.0</ele><time>2026-04-07T11:45:50.002Z</time></trkpt><trkpt lat="45.676467023680935" lon="8.617271137515896"><ele>288.0</ele><time>2026-04-07T11:45:52.002Z</time></trkpt><trkpt lat="45.67640292357774" lon="8.617270374544175"><ele>288.0</ele><time>2026-04-07T11:45:54.002Z</time></trkpt><trkpt lat="45.6762810011648" lon="8.617207871650377"><ele>288.0</ele><time>2026-04-07T11:46:01.002Z</time></trkpt><trkpt lat="45.67621639847021" lon="8.61713630621854"><ele>288.0</ele><time>2026-04-07T11:46:10.002Z</time></trkpt><trkpt lat="45.67623981739958" lon="8.616964820988425"><ele>288.0</ele><time>2026-04-07T11:46:12.002Z</time></trkpt><trkpt lat="45.67626871526368" lon="8.61686589037325"><ele>288.5</ele><time>2026-04-07T11:46:13.002Z</time></trkpt><trkpt lat="45.676295594742896" lon="8.616779703280793"><ele>289.0</ele><time>2026-04-07T11:46:14.002Z</time></trkpt><trkpt lat="45.676333324426565" lon="8.616680537247793"><ele>289.5</ele><time>2026-04-07T11:46:15.002Z</time></trkpt><trkpt lat="45.67638718101" lon="8.616574021504952"><ele>290.0</ele><time>2026-04-07T11:46:16.002Z</time></trkpt><trkpt lat="45.676439871142044" lon="8.616472887540446"><ele>290.5</ele><time>2026-04-07T11:46:17.003Z</time></trkpt><trkpt lat="45.67648546165774" lon="8.616394723547657"><ele>291.0</ele><time>2026-04-07T11:46:18.003Z</time></trkpt><trkpt lat="45.67654417775528" lon="8.616249742172647"><ele>291.0</ele><time>2026-04-07T11:46:20Z</time></trkpt><trkpt lat="45.67656610834001" lon="8.616154956888394"><ele>291.0</ele><time>2026-04-07T11:46:21Z</time></trkpt><trkpt lat="45.67663556161121" lon="8.61602266175697"><ele>291.0</ele><time>2026-04-07T11:46:22Z</time></trkpt><trkpt lat="45.676675016162406" lon="8.615889487011223"><ele>291.0</ele><time>2026-04-07T11:46:23Z</time></trkpt><trkpt lat="45.67669368735934" lon="8.615765770689725"><ele>291.0</ele><time>2026-04-07T11:46:24Z</time></trkpt><trkpt lat="45.67670324626167" lon="8.615649055099585"><ele>291.3333333333333</ele><time>2026-04-07T11:46:25Z</time></trkpt><trkpt lat="45.676698935053146" lon="8.61550388124922"><ele>291.6666666666667</ele><time>2026-04-07T11:46:26Z</time></trkpt><trkpt lat="45.67667982323309" lon="8.615392274052198"><ele>292.0</ele><time>2026-04-07T11:46:27Z</time></trkpt><trkpt lat="45.676686224812144" lon="8.615302281458094"><ele>292.33333333333337</ele><time>2026-04-07T11:46:28Z</time></trkpt><trkpt lat="45.67670558136094" lon="8.615208900671607"><ele>292.6666666666667</ele><time>2026-04-07T11:46:29Z</time></trkpt><trkpt lat="45.676748513532225" lon="8.615095095772041"><ele>293.0</ele><time>2026-04-07T11:46:30Z</time></trkpt><trkpt lat="45.67679439544302" lon="8.614981175135975"><ele>293.0</ele><time>2026-04-07T11:46:31Z</time></trkpt><trkpt lat="45.67682112240035" lon="8.614872922951841"><ele>293.0</ele><time>2026-04-07T11:46:32Z</time></trkpt><trkpt lat="45.67684033179331" lon="8.614728822820533"><ele>293.0</ele><time>2026-04-07T11:46:33Z</time></trkpt><trkpt lat="45.67685480113267" lon="8.61460566406343"><ele>293.0</ele><time>2026-04-07T11:46:34Z</time></trkpt><trkpt lat="45.67687592003073" lon="8.61450668165468"><ele>293.0</ele><time>2026-04-07T11:46:35Z</time></trkpt><trkpt lat="45.67687038662612" lon="8.614406264294098"><ele>293.0</ele><time>2026-04-07T11:46:36Z</time></trkpt><trkpt lat="45.67686467681278" lon="8.614278760851512"><ele>293.0</ele><time>2026-04-07T11:46:37Z</time></trkpt><trkpt lat="45.67685183920486" lon="8.614163330093582"><ele>293.0</ele><time>2026-04-07T11:46:38Z</time></trkpt><trkpt lat="45.67684248095553" lon="8.614046471762055"><ele>293.0</ele><time>2026-04-07T11:46:39Z</time></trkpt><trkpt lat="45.67684575983233" lon="8.613935180896155"><ele>293.0</ele><time>2026-04-07T11:46:40Z</time></trkpt><trkpt lat="45.67686381132969" lon="8.613844999448773"><ele>293.0</ele><time>2026-04-07T11:46:41Z</time></trkpt><trkpt lat="45.67694515055833" lon="8.61369490487357"><ele>293.0</ele><time>2026-04-07T11:46:43Z</time></trkpt><trkpt lat="45.67700892553246" lon="8.613609776095245"><ele>292.33333333333337</ele><time>2026-04-07T11:46:44Z</time></trkpt><trkpt lat="45.67706676839042" lon="8.613550819311088"><ele>291.6666666666667</ele><time>2026-04-07T11:46:45Z</time></trkpt><trkpt lat="45.67714860158876" lon="8.613433386338755"><ele>291.0</ele><time>2026-04-07T11:46:47Z</time></trkpt><trkpt lat="45.67718402491222" lon="8.613337928945768"><ele>290.3333333333333</ele><time>2026-04-07T11:46:48Z</time></trkpt><trkpt lat="45.67722257163731" lon="8.61322798519136"><ele>289.66666666666663</ele><time>2026-04-07T11:46:49.001Z</time></trkpt><trkpt lat="45.6772478125443" lon="8.613137873970752"><ele>289.0</ele><time>2026-04-07T11:46:50.001Z</time></trkpt><trkpt lat="45.67726559078565" lon="8.613042005089582"><ele>289.0</ele><time>2026-04-07T11:46:51.001Z</time></trkpt><trkpt lat="45.67731820022804" lon="8.61286778649854"><ele>289.0</ele><time>2026-04-07T11:46:53.001Z</time></trkpt><trkpt lat="45.677349329954936" lon="8.612778163238271"><ele>289.0</ele><time>2026-04-07T11:46:54.001Z</time></trkpt><trkpt lat="45.67737976721842" lon="8.612682443669701"><ele>289.0</ele><time>2026-04-07T11:46:55.001Z</time></trkpt><trkpt lat="45.67741186968053" lon="8.61258138091522"><ele>289.0</ele><time>2026-04-07T11:46:56.001Z</time></trkpt><trkpt lat="45.67745109564579" lon="8.612484831907203"><ele>289.0</ele><time>2026-04-07T11:46:57.001Z</time></trkpt><trkpt lat="45.67749209097914" lon="8.612385038745584"><ele>288.8333333333333</ele><time>2026-04-07T11:46:58.001Z</time></trkpt><trkpt lat="45.677534713411525" lon="8.612289148673307"><ele>288.66666666666663</ele><time>2026-04-07T11:46:59.001Z</time></trkpt><trkpt lat="45.677573998893" lon="8.612198380232774"><ele>288.5</ele><time>2026-04-07T11:47:00.001Z</time></trkpt><trkpt lat="45.67760827176684" lon="8.612117346822751"><ele>288.3333333333333</ele><time>2026-04-07T11:47:01.001Z</time></trkpt><trkpt lat="45.67767012591947" lon="8.61199108989428"><ele>288.1666666666667</ele><time>2026-04-07T11:47:03.001Z</time></trkpt><trkpt lat="45.677743318143705" lon="8.611881061237282"><ele>288.0</ele><time>2026-04-07T11:47:05.001Z</time></trkpt><trkpt lat="45.67778820721151" lon="8.611810528516804"><ele>288.5</ele><time>2026-04-07T11:47:06.001Z</time></trkpt><trkpt lat="45.67784508568589" lon="8.611727433436846"><ele>289.0</ele><time>2026-04-07T11:47:07.001Z</time></trkpt><trkpt lat="45.677885161348684" lon="8.611633573088978"><ele>289.5</ele><time>2026-04-07T11:47:08.001Z</time></trkpt><trkpt lat="45.67795591526278" lon="8.611520579281782"><ele>290.0</ele><time>2026-04-07T11:47:10.001Z</time></trkpt><trkpt lat="45.678050524590844" lon="8.611471516304745"><ele>290.5</ele><time>2026-04-07T11:47:12.001Z</time></trkpt><trkpt lat="45.67811445762334" lon="8.611487839896691"><ele>291.0</ele><time>2026-04-07T11:47:13.001Z</time></trkpt><trkpt lat="45.67818859131749" lon="8.611501368257096"><ele>291.0</ele><time>2026-04-07T11:47:14.001Z</time></trkpt><trkpt lat="45.67827652267716" lon="8.611521427315749"><ele>291.0</ele><time>2026-04-07T11:47:15.001Z</time></trkpt><trkpt lat="45.678354917260414" lon="8.61153246521219"><ele>291.0</ele><time>2026-04-07T11:47:16.001Z</time></trkpt><trkpt lat="45.6784341545156" lon="8.611550671179977"><ele>291.0</ele><time>2026-04-07T11:47:17.001Z</time></trkpt><trkpt lat="45.678523601339734" lon="8.611544167188905"><ele>291.0</ele><time>2026-04-07T11:47:18.001Z</time></trkpt><trkpt lat="45.67860265600381" lon="8.611511068691783"><ele>291.0</ele><time>2026-04-07T11:47:20.001Z</time></trkpt><trkpt lat="45.67867767020068" lon="8.611435538829474"><ele>290.8</ele><time>2026-04-07T11:47:23.001Z</time></trkpt><trkpt lat="45.67873260875673" lon="8.611360720088367"><ele>290.6</ele><time>2026-04-07T11:47:25.001Z</time></trkpt><trkpt lat="45.67879494562221" lon="8.611228424296645"><ele>290.4</ele><time>2026-04-07T11:47:27.001Z</time></trkpt><trkpt lat="45.67886761096865" lon="8.611082439003034"><ele>290.2</ele><time>2026-04-07T11:47:29.001Z</time></trkpt><trkpt lat="45.67891283437649" lon="8.61100301431579"><ele>290.0</ele><time>2026-04-07T11:47:30.001Z</time></trkpt><trkpt lat="45.67896656068248" lon="8.610922531052514"><ele>290.0</ele><time>2026-04-07T11:47:31.001Z</time></trkpt><trkpt lat="45.679020869940906" lon="8.610864638311265"><ele>290.0</ele><time>2026-04-07T11:47:32.001Z</time></trkpt><trkpt lat="45.67908416683746" lon="8.610829639528669"><ele>290.0</ele><time>2026-04-07T11:47:33.001Z</time></trkpt><trkpt lat="45.6791408205449" lon="8.610780758987662"><ele>290.0</ele><time>2026-04-07T11:47:34.001Z</time></trkpt><trkpt lat="45.67919298892514" lon="8.610724132950576"><ele>290.0</ele><time>2026-04-07T11:47:35.001Z</time></trkpt><trkpt lat="45.67923985472175" lon="8.610659006444587"><ele>290.0</ele><time>2026-04-07T11:47:36.001Z</time></trkpt><trkpt lat="45.679282198494825" lon="8.610583394695846"><ele>290.0</ele><time>2026-04-07T11:47:37.001Z</time></trkpt><trkpt lat="45.67931866835624" lon="8.610488132642612"><ele>290.0</ele><time>2026-04-07T11:47:38.001Z</time></trkpt><trkpt lat="45.67936023944328" lon="8.610395913887867"><ele>290.0</ele><time>2026-04-07T11:47:39.001Z</time></trkpt><trkpt lat="45.67940428619842" lon="8.610308968283897"><ele>290.0</ele><time>2026-04-07T11:47:40.002Z</time></trkpt><trkpt lat="45.679441780447114" lon="8.610217435987554"><ele>290.0</ele><time>2026-04-07T11:47:41.002Z</time></trkpt><trkpt lat="45.67948074467494" lon="8.610126380752696"><ele>290.0</ele><time>2026-04-07T11:47:42.002Z</time></trkpt><trkpt lat="45.67951838587526" lon="8.610033937663626"><ele>290.0</ele><time>2026-04-07T11:47:43.002Z</time></trkpt><trkpt lat="45.67954797544694" lon="8.609949919947777"><ele>290.0</ele><time>2026-04-07T11:47:44.002Z</time></trkpt><trkpt lat="45.67959762693047" lon="8.609790066720688"><ele>289.4</ele><time>2026-04-07T11:47:46.002Z</time></trkpt><trkpt lat="45.67965799487234" lon="8.609652058473825"><ele>288.8</ele><time>2026-04-07T11:47:48.002Z</time></trkpt><trkpt lat="45.679741827639816" lon="8.609540720606738"><ele>288.2</ele><time>2026-04-07T11:47:50.002Z</time></trkpt><trkpt lat="45.67983494639281" lon="8.609435599434589"><ele>287.6</ele><time>2026-04-07T11:47:52.002Z</time></trkpt><trkpt lat="45.67988516829245" lon="8.60937926111538"><ele>287.0</ele><time>2026-04-07T11:47:53.002Z</time></trkpt><trkpt lat="45.67997788502397" lon="8.609267432735837"><ele>287.0</ele><time>2026-04-07T11:47:55.002Z</time></trkpt><trkpt lat="45.68006645860923" lon="8.609166022329186"><ele>287.0</ele><time>2026-04-07T11:47:57.002Z</time></trkpt><trkpt lat="45.68016461482465" lon="8.609063674918104"><ele>287.0</ele><time>2026-04-07T11:47:59.002Z</time></trkpt><trkpt lat="45.68020767983466" lon="8.60899599961099"><ele>287.0</ele><time>2026-04-07T11:48:00.002Z</time></trkpt><trkpt lat="45.68025242757196" lon="8.608842412061154"><ele>287.0</ele><time>2026-04-07T11:48:02.002Z</time></trkpt><trkpt lat="45.6802534058161" lon="8.608666063010883"><ele>287.0</ele><time>2026-04-07T11:48:04.002Z</time></trkpt><trkpt lat="45.68023957048467" lon="8.608574509008008"><ele>287.0</ele><time>2026-04-07T11:48:05.002Z</time></trkpt><trkpt lat="45.68022333061737" lon="8.608487397363163"><ele>287.0</ele><time>2026-04-07T11:48:06.002Z</time></trkpt><trkpt lat="45.68021185589374" lon="8.608394750072167"><ele>287.0</ele><time>2026-04-07T11:48:07.002Z</time></trkpt><trkpt lat="45.68019971766253" lon="8.608302935743152"><ele>287.0</ele><time>2026-04-07T11:48:08.002Z</time></trkpt><trkpt lat="45.68018899004078" lon="8.608207149143608"><ele>287.0</ele><time>2026-04-07T11:48:09.002Z</time></trkpt><trkpt lat="45.68015775339687" lon="8.608061962899352"><ele>287.0</ele><time>2026-04-07T11:48:11.002Z</time></trkpt><trkpt lat="45.68013269986435" lon="8.60796412999808"><ele>287.0</ele><time>2026-04-07T11:48:13.002Z</time></trkpt><trkpt lat="45.68003310676083" lon="8.608015108907654"><ele>287.0</ele><time>2026-04-07T11:48:23.002Z</time></trkpt><trkpt lat="45.6799724259546" lon="8.608045437186872"><ele>287.0</ele><time>2026-04-07T11:48:24.002Z</time></trkpt><trkpt lat="45.67990089641913" lon="8.608072577330105"><ele>287.0</ele><time>2026-04-07T11:48:25Z</time></trkpt><trkpt lat="45.67980768110582" lon="8.608108161704687"><ele>287.0</ele><time>2026-04-07T11:48:26Z</time></trkpt><trkpt lat="45.679672903012325" lon="8.608152037515712"><ele>287.0</ele><time>2026-04-07T11:48:27Z</time></trkpt><trkpt lat="45.679518521269564" lon="8.60820350100745"><ele>287.0</ele><time>2026-04-07T11:48:28Z</time></trkpt><trkpt lat="45.67935245137295" lon="8.608266648983207"><ele>287.0</ele><time>2026-04-07T11:48:29Z</time></trkpt><trkpt lat="45.67917870683539" lon="8.608345277115626"><ele>287.6666666666667</ele><time>2026-04-07T11:48:30Z</time></trkpt><trkpt lat="45.679006699574664" lon="8.608432775645165"><ele>288.3333333333333</ele><time>2026-04-07T11:48:31Z</time></trkpt><trkpt lat="45.67884183771699" lon="8.608510401246205"><ele>289.0</ele><time>2026-04-07T11:48:32Z</time></trkpt><trkpt lat="45.678685557538046" lon="8.608582875608406"><ele>289.0</ele><time>2026-04-07T11:48:33Z</time></trkpt><trkpt lat="45.67853396444761" lon="8.60865227510125"><ele>289.0</ele><time>2026-04-07T11:48:34Z</time></trkpt><trkpt lat="45.678387714613784" lon="8.608723509074727"><ele>289.0</ele><time>2026-04-07T11:48:35Z</time></trkpt><trkpt lat="45.67824734214466" lon="8.608791497046521"><ele>289.0</ele><time>2026-04-07T11:48:36Z</time></trkpt><trkpt lat="45.678111725424046" lon="8.608857130083083"><ele>289.0</ele><time>2026-04-07T11:48:37Z</time></trkpt><trkpt lat="45.67797808677295" lon="8.608923336100935"><ele>289.0</ele><time>2026-04-07T11:48:38Z</time></trkpt><trkpt lat="45.677849145621956" lon="8.608988742689677"><ele>289.0</ele><time>2026-04-07T11:48:39Z</time></trkpt><trkpt lat="45.67772242477897" lon="8.609063634932946"><ele>290.5</ele><time>2026-04-07T11:48:40Z</time></trkpt><trkpt lat="45.67760151325737" lon="8.60914712113475"><ele>292.0</ele><time>2026-04-07T11:48:41Z</time></trkpt><trkpt lat="45.67748896259017" lon="8.609236429247382"><ele>293.5</ele><time>2026-04-07T11:48:42Z</time></trkpt><trkpt lat="45.67738932112814" lon="8.60931721242827"><ele>295.0</ele><time>2026-04-07T11:48:43Z</time></trkpt><trkpt lat="45.67729626076202" lon="8.609396025725571"><ele>295.0</ele><time>2026-04-07T11:48:44Z</time></trkpt><trkpt lat="45.67720610761916" lon="8.609462029113562"><ele>295.0</ele><time>2026-04-07T11:48:45Z</time></trkpt><trkpt lat="45.677113156754594" lon="8.609525852838132"><ele>295.0</ele><time>2026-04-07T11:48:46Z</time></trkpt><trkpt lat="45.6770193932447" lon="8.60957540076996"><ele>295.0</ele><time>2026-04-07T11:48:47Z</time></trkpt><trkpt lat="45.676941551959686" lon="8.609610612093968"><ele>295.0</ele><time>2026-04-07T11:48:48Z</time></trkpt><trkpt lat="45.67687262227809" lon="8.609630369055225"><ele>296.0</ele><time>2026-04-07T11:48:49Z</time></trkpt><trkpt lat="45.67680084259904" lon="8.609638129566251"><ele>297.0</ele><time>2026-04-07T11:48:50Z</time></trkpt><trkpt lat="45.67672243667218" lon="8.609619111852673"><ele>298.0</ele><time>2026-04-07T11:48:51Z</time></trkpt><trkpt lat="45.67663411876517" lon="8.609595501280866"><ele>299.0</ele><time>2026-04-07T11:48:52Z</time></trkpt><trkpt lat="45.67654466343745" lon="8.609598307421725"><ele>300.0</ele><time>2026-04-07T11:48:53Z</time></trkpt><trkpt lat="45.67644582522283" lon="8.609627445866463"><ele>301.0</ele><time>2026-04-07T11:48:54Z</time></trkpt><trkpt lat="45.67633017150075" lon="8.609644591230733"><ele>301.0</ele><time>2026-04-07T11:48:55Z</time></trkpt><trkpt lat="45.67620976053713" lon="8.609624918080412"><ele>301.0</ele><time>2026-04-07T11:48:56Z</time></trkpt><trkpt lat="45.67609651601371" lon="8.609574328122209"><ele>301.0</ele><time>2026-04-07T11:48:57.001Z</time></trkpt><trkpt lat="45.67597556978659" lon="8.6094967355385"><ele>301.0</ele><time>2026-04-07T11:48:58.001Z</time></trkpt><trkpt lat="45.67585248618839" lon="8.609407356202755"><ele>302.75</ele><time>2026-04-07T11:48:59.001Z</time></trkpt><trkpt lat="45.6757315529023" lon="8.609309630329925"><ele>304.5</ele><time>2026-04-07T11:49:00.001Z</time></trkpt><trkpt lat="45.67562797091089" lon="8.609192818059354"><ele>306.25</ele><time>2026-04-07T11:49:01.001Z</time></trkpt><trkpt lat="45.67553326364379" lon="8.609062573821983"><ele>308.0</ele><time>2026-04-07T11:49:02.001Z</time></trkpt><trkpt lat="45.67544102794224" lon="8.608926819894798"><ele>308.0</ele><time>2026-04-07T11:49:03.001Z</time></trkpt><trkpt lat="45.67534248325186" lon="8.60879830896379"><ele>308.0</ele><time>2026-04-07T11:49:04.001Z</time></trkpt><trkpt lat="45.67523896888901" lon="8.60869778955622"><ele>308.0</ele><time>2026-04-07T11:49:05.001Z</time></trkpt><trkpt lat="45.6751443378995" lon="8.608616265812918"><ele>308.0</ele><time>2026-04-07T11:49:06.001Z</time></trkpt><trkpt lat="45.675067773783674" lon="8.608548250466631"><ele>310.1666666666667</ele><time>2026-04-07T11:49:07.001Z</time></trkpt><trkpt lat="45.67499359560439" lon="8.608481014058363"><ele>312.33333333333337</ele><time>2026-04-07T11:49:08.001Z</time></trkpt><trkpt lat="45.674945052259524" lon="8.608390539326487"><ele>314.5</ele><time>2026-04-07T11:49:09.001Z</time></trkpt><trkpt lat="45.67491999869467" lon="8.608283979353685"><ele>316.6666666666667</ele><time>2026-04-07T11:49:10.001Z</time></trkpt><trkpt lat="45.67491565068676" lon="8.608162012943884"><ele>318.8333333333333</ele><time>2026-04-07T11:49:11.001Z</time></trkpt><trkpt lat="45.67493305833219" lon="8.608028682612934"><ele>321.0</ele><time>2026-04-07T11:49:12.001Z</time></trkpt><trkpt lat="45.67496056428437" lon="8.607875282324413"><ele>321.5</ele><time>2026-04-07T11:49:13.001Z</time></trkpt><trkpt lat="45.67498942909849" lon="8.607715045669043"><ele>322.0</ele><time>2026-04-07T11:49:14.001Z</time></trkpt><trkpt lat="45.67502087931304" lon="8.607549382601968"><ele>322.5</ele><time>2026-04-07T11:49:15.001Z</time></trkpt><trkpt lat="45.675058090369156" lon="8.60736759704105"><ele>323.0</ele><time>2026-04-07T11:49:16.001Z</time></trkpt><trkpt lat="45.675092677918734" lon="8.607180855265664"><ele>323.0</ele><time>2026-04-07T11:49:17.001Z</time></trkpt><trkpt lat="45.67513654520123" lon="8.606981215816703"><ele>323.0</ele><time>2026-04-07T11:49:18.001Z</time></trkpt><trkpt lat="45.67518181760579" lon="8.606796536903943"><ele>323.0</ele><time>2026-04-07T11:49:19.001Z</time></trkpt><trkpt lat="45.67525987849485" lon="8.606596442592659"><ele>323.0</ele><time>2026-04-07T11:49:20.001Z</time></trkpt><trkpt lat="45.67534911189525" lon="8.606403076608197"><ele>323.0</ele><time>2026-04-07T11:49:21.001Z</time></trkpt><trkpt lat="45.67542526540769" lon="8.6062132666572"><ele>323.0</ele><time>2026-04-07T11:49:22.001Z</time></trkpt><trkpt lat="45.6754926441927" lon="8.606006352146382"><ele>323.0</ele><time>2026-04-07T11:49:23.001Z</time></trkpt><trkpt lat="45.67553677309704" lon="8.605791579089457"><ele>323.33333333333337</ele><time>2026-04-07T11:49:24.001Z</time></trkpt><trkpt lat="45.67557062971719" lon="8.605572499284555"><ele>323.6666666666667</ele><time>2026-04-07T11:49:25.001Z</time></trkpt><trkpt lat="45.67560221475264" lon="8.60535464293125"><ele>324.0</ele><time>2026-04-07T11:49:26.001Z</time></trkpt><trkpt lat="45.67563708940508" lon="8.605135583718715"><ele>325.6666666666667</ele><time>2026-04-07T11:49:27.001Z</time></trkpt><trkpt lat="45.67566849285071" lon="8.604916207158176"><ele>327.33333333333337</ele><time>2026-04-07T11:49:28.001Z</time></trkpt><trkpt lat="45.67568888191609" lon="8.60469437407506"><ele>329.0</ele><time>2026-04-07T11:49:29.001Z</time></trkpt><trkpt lat="45.675695678931845" lon="8.604472653709992"><ele>329.33333333333337</ele><time>2026-04-07T11:49:30.001Z</time></trkpt><trkpt lat="45.675690179306116" lon="8.604251795389422"><ele>329.6666666666667</ele><time>2026-04-07T11:49:31.001Z</time></trkpt><trkpt lat="45.6756817545545" lon="8.60403301883459"><ele>330.0</ele><time>2026-04-07T11:49:32.001Z</time></trkpt><trkpt lat="45.67566281965813" lon="8.603805251042937"><ele>330.0</ele><time>2026-04-07T11:49:33.001Z</time></trkpt><trkpt lat="45.67564792556132" lon="8.603581523765408"><ele>330.0</ele><time>2026-04-07T11:49:34.001Z</time></trkpt><trkpt lat="45.67564605149672" lon="8.60335060512318"><ele>330.0</ele><time>2026-04-07T11:49:35.001Z</time></trkpt><trkpt lat="45.67566183168413" lon="8.6031167699626"><ele>330.0</ele><time>2026-04-07T11:49:36.001Z</time></trkpt><trkpt lat="45.675688747623425" lon="8.602887307364185"><ele>330.0</ele><time>2026-04-07T11:49:37.001Z</time></trkpt><trkpt lat="45.67571139435455" lon="8.602646045571692"><ele>330.0</ele><time>2026-04-07T11:49:38.001Z</time></trkpt><trkpt lat="45.675734844317724" lon="8.602399659630441"><ele>330.3333333333333</ele><time>2026-04-07T11:49:39.001Z</time></trkpt><trkpt lat="45.67575644291692" lon="8.602154619425512"><ele>330.66666666666663</ele><time>2026-04-07T11:49:40.001Z</time></trkpt><trkpt lat="45.6757753159984" lon="8.601914299765902"><ele>331.0</ele><time>2026-04-07T11:49:41.001Z</time></trkpt><trkpt lat="45.67578543485198" lon="8.601679731739324"><ele>330.3333333333333</ele><time>2026-04-07T11:49:42.001Z</time></trkpt><trkpt lat="45.6757848816937" lon="8.601442044159437"><ele>329.6666666666667</ele><time>2026-04-07T11:49:43.001Z</time></trkpt><trkpt lat="45.675771418932236" lon="8.6011971627053"><ele>329.0</ele><time>2026-04-07T11:49:44.001Z</time></trkpt><trkpt lat="45.67575648103247" lon="8.600958844476626"><ele>329.0</ele><time>2026-04-07T11:49:45.001Z</time></trkpt><trkpt lat="45.67574634955067" lon="8.600734824596724"><ele>329.0</ele><time>2026-04-07T11:49:46.001Z</time></trkpt><trkpt lat="45.675735662173565" lon="8.600523900825731"><ele>329.0</ele><time>2026-04-07T11:49:47.002Z</time></trkpt><trkpt lat="45.6757243503541" lon="8.600327546215787"><ele>329.0</ele><time>2026-04-07T11:49:48.002Z</time></trkpt><trkpt lat="45.67571551547347" lon="8.600128994539972"><ele>329.0</ele><time>2026-04-07T11:49:49.002Z</time></trkpt><trkpt lat="45.67570367980989" lon="8.599925666011071"><ele>329.0</ele><time>2026-04-07T11:49:50.002Z</time></trkpt><trkpt lat="45.675688889622386" lon="8.59972774313877"><ele>329.0</ele><time>2026-04-07T11:49:51.002Z</time></trkpt><trkpt lat="45.67566607019341" lon="8.599533749278622"><ele>329.0</ele><time>2026-04-07T11:49:52.002Z</time></trkpt><trkpt lat="45.67563813043407" lon="8.599361819246857"><ele>329.4</ele><time>2026-04-07T11:49:53.002Z</time></trkpt><trkpt lat="45.67560745421478" lon="8.599208916751543"><ele>329.79999999999995</ele><time>2026-04-07T11:49:54.002Z</time></trkpt><trkpt lat="45.675574121839496" lon="8.599080413927448"><ele>330.20000000000005</ele><time>2026-04-07T11:49:55.002Z</time></trkpt><trkpt lat="45.675541297198556" lon="8.598960407764167"><ele>330.6</ele><time>2026-04-07T11:49:56.002Z</time></trkpt><trkpt lat="45.675517725532885" lon="8.59886692967312"><ele>331.0</ele><time>2026-04-07T11:49:57.002Z</time></trkpt><trkpt lat="45.67547799043836" lon="8.598762061026983"><ele>331.0</ele><time>2026-04-07T11:49:59.002Z</time></trkpt><trkpt lat="45.67540855375054" lon="8.598731719182027"><ele>331.0</ele><time>2026-04-07T11:50:01.002Z</time></trkpt><trkpt lat="45.67530680193383" lon="8.598774858742791"><ele>331.0</ele><time>2026-04-07T11:50:03.002Z</time></trkpt><trkpt lat="45.675240541455054" lon="8.598819008585737"><ele>331.0</ele><time>2026-04-07T11:50:04.002Z</time></trkpt><trkpt lat="45.67517113645771" lon="8.598855705901947"><ele>331.0</ele><time>2026-04-07T11:50:05.002Z</time></trkpt><trkpt lat="45.67510545872894" lon="8.598887092307363"><ele>331.0</ele><time>2026-04-07T11:50:06.002Z</time></trkpt><trkpt lat="45.6750380686335" lon="8.598918872607394"><ele>330.8571428571429</ele><time>2026-04-07T11:50:07.002Z</time></trkpt><trkpt lat="45.674970451427676" lon="8.598955452205185"><ele>330.7142857142857</ele><time>2026-04-07T11:50:08.002Z</time></trkpt><trkpt lat="45.67490967474516" lon="8.599005336467279"><ele>330.57142857142856</ele><time>2026-04-07T11:50:09.002Z</time></trkpt><trkpt lat="45.674850734721254" lon="8.59906376523989"><ele>330.42857142857144</ele><time>2026-04-07T11:50:10.002Z</time></trkpt><trkpt lat="45.67479266251977" lon="8.59912349030699"><ele>330.2857142857143</ele><time>2026-04-07T11:50:11.002Z</time></trkpt><trkpt lat="45.674734672957946" lon="8.599188031231177"><ele>330.14285714285717</ele><time>2026-04-07T11:50:12.002Z</time></trkpt><trkpt lat="45.67467721740403" lon="8.599261593815527"><ele>330.0</ele><time>2026-04-07T11:50:13.002Z</time></trkpt><trkpt lat="45.674618089053396" lon="8.59933627502672"><ele>330.0</ele><time>2026-04-07T11:50:14.002Z</time></trkpt><trkpt lat="45.67455061037289" lon="8.59939844299661"><ele>330.0</ele><time>2026-04-07T11:50:15.002Z</time></trkpt><trkpt lat="45.674477586500764" lon="8.5994467097109"><ele>330.0</ele><time>2026-04-07T11:50:16.002Z</time></trkpt><trkpt lat="45.6744028110874" lon="8.59949921365303"><ele>330.0</ele><time>2026-04-07T11:50:17.002Z</time></trkpt><trkpt lat="45.67432717443998" lon="8.599554591536267"><ele>330.0</ele><time>2026-04-07T11:50:18.002Z</time></trkpt><trkpt lat="45.674251024071985" lon="8.599611226816176"><ele>330.0</ele><time>2026-04-07T11:50:19.002Z</time></trkpt><trkpt lat="45.67417333041287" lon="8.599666869528065"><ele>329.5</ele><time>2026-04-07T11:50:20.002Z</time></trkpt><trkpt lat="45.67409773146159" lon="8.599722768113667"><ele>329.0</ele><time>2026-04-07T11:50:21.002Z</time></trkpt><trkpt lat="45.67402569741666" lon="8.599775831296508"><ele>328.5</ele><time>2026-04-07T11:50:22.002Z</time></trkpt><trkpt lat="45.67395714795496" lon="8.599822197821652"><ele>328.0</ele><time>2026-04-07T11:50:23.002Z</time></trkpt><trkpt lat="45.673884638861395" lon="8.599851903733377"><ele>327.5</ele><time>2026-04-07T11:50:24.002Z</time></trkpt><trkpt lat="45.67381122262138" lon="8.599865786375995"><ele>327.0</ele><time>2026-04-07T11:50:25.002Z</time></trkpt><trkpt lat="45.67373473973378" lon="8.599875667671176"><ele>327.0</ele><time>2026-04-07T11:50:26.002Z</time></trkpt><trkpt lat="45.67366450206896" lon="8.599886332427095"><ele>327.0</ele><time>2026-04-07T11:50:27.002Z</time></trkpt><trkpt lat="45.673602558026545" lon="8.599905216827725"><ele>327.0</ele><time>2026-04-07T11:50:28.002Z</time></trkpt><trkpt lat="45.673491236801716" lon="8.599901903780722"><ele>327.0</ele><time>2026-04-07T11:50:30.002Z</time></trkpt><trkpt lat="45.673372896308535" lon="8.599884189820417"><ele>327.0</ele><time>2026-04-07T11:50:32Z</time></trkpt><trkpt lat="45.673310249135376" lon="8.59986786376238"><ele>327.0</ele><time>2026-04-07T11:50:33Z</time></trkpt><trkpt lat="45.67318371246242" lon="8.599828945087395"><ele>326.57142857142856</ele><time>2026-04-07T11:50:35Z</time></trkpt><trkpt lat="45.67311686466707" lon="8.599800580798092"><ele>326.14285714285717</ele><time>2026-04-07T11:50:36Z</time></trkpt><trkpt lat="45.673048544854254" lon="8.599774881246049"><ele>325.7142857142857</ele><time>2026-04-07T11:50:37Z</time></trkpt><trkpt lat="45.672978197924024" lon="8.599743280940162"><ele>325.2857142857143</ele><time>2026-04-07T11:50:38Z</time></trkpt><trkpt lat="45.67290547464109" lon="8.59971073815862"><ele>324.85714285714283</ele><time>2026-04-07T11:50:39Z</time></trkpt><trkpt lat="45.67283834784782" lon="8.59966470590993"><ele>324.42857142857144</ele><time>2026-04-07T11:50:40Z</time></trkpt><trkpt lat="45.67277509640105" lon="8.599631749269774"><ele>324.0</ele><time>2026-04-07T11:50:41Z</time></trkpt><trkpt lat="45.67266900637547" lon="8.599596396539694"><ele>323.79999999999995</ele><time>2026-04-07T11:50:43Z</time></trkpt><trkpt lat="45.67259289077031" lon="8.599567903767129"><ele>323.59999999999997</ele><time>2026-04-07T11:50:45Z</time></trkpt><trkpt lat="45.67250992472728" lon="8.599571609612655"><ele>323.4</ele><time>2026-04-07T11:50:47Z</time></trkpt><trkpt lat="45.67241567943917" lon="8.599669527076967"><ele>323.2</ele><time>2026-04-07T11:50:49Z</time></trkpt><trkpt lat="45.67236167888932" lon="8.599725594922985"><ele>323.0</ele><time>2026-04-07T11:50:50Z</time></trkpt><trkpt lat="45.67226705212818" lon="8.599804835583498"><ele>323.0</ele><time>2026-04-07T11:50:52Z</time></trkpt><trkpt lat="45.672195955938484" lon="8.599778933725176"><ele>323.0</ele><time>2026-04-07T11:50:54Z</time></trkpt><trkpt lat="45.672136999522955" lon="8.599646503080018"><ele>323.0</ele><time>2026-04-07T11:50:56Z</time></trkpt><trkpt lat="45.67211837413482" lon="8.599556505423362"><ele>323.0</ele><time>2026-04-07T11:50:57Z</time></trkpt><trkpt lat="45.67208886664389" lon="8.599454519690795"><ele>323.0</ele><time>2026-04-07T11:50:58Z</time></trkpt><trkpt lat="45.67205967185024" lon="8.599348641825022"><ele>323.0</ele><time>2026-04-07T11:50:59Z</time></trkpt><trkpt lat="45.67203073863655" lon="8.599263113780246"><ele>323.00000000000006</ele><time>2026-04-07T11:51:00Z</time></trkpt><trkpt lat="45.67200328604349" lon="8.599174486689115"><ele>323.0</ele><time>2026-04-07T11:51:01Z</time></trkpt><trkpt lat="45.67197744573801" lon="8.59908320166686"><ele>323.0</ele><time>2026-04-07T11:51:02Z</time></trkpt><trkpt lat="45.67194739102033" lon="8.598988297157218"><ele>323.0</ele><time>2026-04-07T11:51:03Z</time></trkpt><trkpt lat="45.671917604652904" lon="8.598887419774417"><ele>323.0</ele><time>2026-04-07T11:51:04Z</time></trkpt><trkpt lat="45.67188736699361" lon="8.598780808486625"><ele>323.00000000000006</ele><time>2026-04-07T11:51:05Z</time></trkpt><trkpt lat="45.67185512345297" lon="8.59867472978587"><ele>323.0</ele><time>2026-04-07T11:51:06Z</time></trkpt><trkpt lat="45.67182165855503" lon="8.59857229351086"><ele>323.28571428571433</ele><time>2026-04-07T11:51:07Z</time></trkpt><trkpt lat="45.671788608420755" lon="8.598469264037181"><ele>323.57142857142856</ele><time>2026-04-07T11:51:08Z</time></trkpt><trkpt lat="45.67175452903114" lon="8.598366520671265"><ele>323.8571428571429</ele><time>2026-04-07T11:51:09Z</time></trkpt><trkpt lat="45.671725248731626" lon="8.59827281582566"><ele>324.14285714285717</ele><time>2026-04-07T11:51:10Z</time></trkpt><trkpt lat="45.671696390357624" lon="8.598183872537746"><ele>324.42857142857144</ele><time>2026-04-07T11:51:11.001Z</time></trkpt><trkpt lat="45.67166234695081" lon="8.598088299300844"><ele>324.7142857142857</ele><time>2026-04-07T11:51:12.001Z</time></trkpt><trkpt lat="45.67163372548826" lon="8.598007872441347"><ele>325.0</ele><time>2026-04-07T11:51:13.001Z</time></trkpt><trkpt lat="45.67158452204735" lon="8.597864117724656"><ele>326.0</ele><time>2026-04-07T11:51:15.001Z</time></trkpt><trkpt lat="45.67157720242683" lon="8.597693004796938"><ele>327.0</ele><time>2026-04-07T11:51:17.001Z</time></trkpt><trkpt lat="45.671615912505295" lon="8.597528036780538"><ele>328.0</ele><time>2026-04-07T11:51:19.001Z</time></trkpt><trkpt lat="45.67164613539163" lon="8.597445195105157"><ele>329.0</ele><time>2026-04-07T11:51:20.001Z</time></trkpt><trkpt lat="45.67166917944967" lon="8.59735873010004"><ele>330.0</ele><time>2026-04-07T11:51:21.001Z</time></trkpt><trkpt lat="45.67168526652617" lon="8.597271583502577"><ele>331.0</ele><time>2026-04-07T11:51:22.001Z</time></trkpt><trkpt lat="45.67171496863029" lon="8.597176964180445"><ele>331.0</ele><time>2026-04-07T11:51:23.001Z</time></trkpt><trkpt lat="45.67174901421561" lon="8.597090395098926"><ele>331.0</ele><time>2026-04-07T11:51:24.001Z</time></trkpt><trkpt lat="45.6717966790292" lon="8.596918044389431"><ele>331.0</ele><time>2026-04-07T11:51:26.001Z</time></trkpt><trkpt lat="45.671802346604274" lon="8.596824343421234"><ele>331.0</ele><time>2026-04-07T11:51:27.001Z</time></trkpt><trkpt lat="45.67180954552159" lon="8.596734726717312"><ele>331.0</ele><time>2026-04-07T11:51:28.001Z</time></trkpt><trkpt lat="45.67181937760672" lon="8.59664064048968"><ele>331.0</ele><time>2026-04-07T11:51:29.001Z</time></trkpt><trkpt lat="45.67185047234341" lon="8.59650557042948"><ele>331.0</ele><time>2026-04-07T11:51:31.001Z</time></trkpt><trkpt lat="45.67190857787779" lon="8.596397998067431"><ele>331.0</ele><time>2026-04-07T11:51:33.001Z</time></trkpt><trkpt lat="45.671972009613135" lon="8.596327361378334"><ele>331.0</ele><time>2026-04-07T11:51:35.001Z</time></trkpt><trkpt lat="45.67206225546931" lon="8.59626118794659"><ele>331.0</ele><time>2026-04-07T11:51:37.001Z</time></trkpt><trkpt lat="45.67210015258746" lon="8.596185767905817"><ele>331.0</ele><time>2026-04-07T11:51:38.001Z</time></trkpt><trkpt lat="45.67216081796925" lon="8.596114001351593"><ele>331.0</ele><time>2026-04-07T11:51:39.001Z</time></trkpt><trkpt lat="45.67223689021694" lon="8.59605330793724"><ele>331.0</ele><time>2026-04-07T11:51:40.001Z</time></trkpt><trkpt lat="45.67230117357094" lon="8.595995028385966"><ele>331.0</ele><time>2026-04-07T11:51:41.001Z</time></trkpt><trkpt lat="45.6723607799197" lon="8.595936479269978"><ele>331.0</ele><time>2026-04-07T11:51:42.001Z</time></trkpt><trkpt lat="45.672411472844" lon="8.595869611481078"><ele>331.0</ele><time>2026-04-07T11:51:43.001Z</time></trkpt><trkpt lat="45.67245728305714" lon="8.595806569741782"><ele>331.0</ele><time>2026-04-07T11:51:44.001Z</time></trkpt><trkpt lat="45.67254700594042" lon="8.595730169676782"><ele>331.0</ele><time>2026-04-07T11:51:46.001Z</time></trkpt><trkpt lat="45.67265529005623" lon="8.59570624001677"><ele>331.0</ele><time>2026-04-07T11:51:48.001Z</time></trkpt><trkpt lat="45.672733840215386" lon="8.595687054699567"><ele>331.0</ele><time>2026-04-07T11:51:49.001Z</time></trkpt><trkpt lat="45.672819699412045" lon="8.595664368218532"><ele>331.0</ele><time>2026-04-07T11:51:50.001Z</time></trkpt><trkpt lat="45.6728968506803" lon="8.59564027045772"><ele>331.0</ele><time>2026-04-07T11:51:51.001Z</time></trkpt><trkpt lat="45.67297092166335" lon="8.595613510266285"><ele>331.0</ele><time>2026-04-07T11:51:52.001Z</time></trkpt><trkpt lat="45.6730392465956" lon="8.595579070512118"><ele>331.0</ele><time>2026-04-07T11:51:53.001Z</time></trkpt><trkpt lat="45.673102205571475" lon="8.595540347829196"><ele>331.16666666666663</ele><time>2026-04-07T11:51:54.001Z</time></trkpt><trkpt lat="45.673215578255615" lon="8.595465068460875"><ele>331.3333333333333</ele><time>2026-04-07T11:51:56.001Z</time></trkpt><trkpt lat="45.673278271012975" lon="8.595425949978566"><ele>331.5</ele><time>2026-04-07T11:51:57.001Z</time></trkpt><trkpt lat="45.6733444805527" lon="8.595390196839448"><ele>331.6666666666667</ele><time>2026-04-07T11:51:58.001Z</time></trkpt><trkpt lat="45.67341324300073" lon="8.595354182889883"><ele>331.83333333333337</ele><time>2026-04-07T11:51:59.002Z</time></trkpt><trkpt lat="45.67348410106958" lon="8.595315942396303"><ele>332.0</ele><time>2026-04-07T11:52:00.002Z</time></trkpt><trkpt lat="45.67355110426501" lon="8.595278843634574"><ele>332.20000000000005</ele><time>2026-04-07T11:52:01.002Z</time></trkpt><trkpt lat="45.6736532160908" lon="8.595209749108905"><ele>332.4</ele><time>2026-04-07T11:52:03.002Z</time></trkpt><trkpt lat="45.673705430851484" lon="8.595132034794753"><ele>332.6</ele><time>2026-04-07T11:52:05.002Z</time></trkpt><trkpt lat="45.67369932439296" lon="8.594989123982185"><ele>332.79999999999995</ele><time>2026-04-07T11:52:07.002Z</time></trkpt><trkpt lat="45.67366223604037" lon="8.594834344394279"><ele>333.0</ele><time>2026-04-07T11:52:09.002Z</time></trkpt><trkpt lat="45.67366069955317" lon="8.594707733049667"><ele>333.0</ele><time>2026-04-07T11:52:11.002Z</time></trkpt><trkpt lat="45.673716753667925" lon="8.594627254665957"><ele>333.0</ele><time>2026-04-07T11:52:13.002Z</time></trkpt><trkpt lat="45.67382595739893" lon="8.594584604475099"><ele>333.0</ele><time>2026-04-07T11:52:15.002Z</time></trkpt><trkpt lat="45.67388766968996" lon="8.594547537305253"><ele>333.0</ele><time>2026-04-07T11:52:16.002Z</time></trkpt><trkpt lat="45.6739601096909" lon="8.594510104999511"><ele>333.0</ele><time>2026-04-07T11:52:17.002Z</time></trkpt><trkpt lat="45.67404113625585" lon="8.594460842722231"><ele>333.0</ele><time>2026-04-07T11:52:18.002Z</time></trkpt><trkpt lat="45.67412216929108" lon="8.59441325910273"><ele>333.6666666666667</ele><time>2026-04-07T11:52:19.002Z</time></trkpt><trkpt lat="45.67420547585992" lon="8.594364989910884"><ele>334.3333333333333</ele><time>2026-04-07T11:52:20.002Z</time></trkpt><trkpt lat="45.67428384386087" lon="8.594316323312485"><ele>335.0</ele><time>2026-04-07T11:52:21.002Z</time></trkpt><trkpt lat="45.67436266530331" lon="8.594273559796381"><ele>335.66666666666663</ele><time>2026-04-07T11:52:22.002Z</time></trkpt><trkpt lat="45.6744386784218" lon="8.594227227616878"><ele>336.3333333333333</ele><time>2026-04-07T11:52:23.002Z</time></trkpt><trkpt lat="45.67451895870861" lon="8.594182703817165"><ele>337.0</ele><time>2026-04-07T11:52:24.002Z</time></trkpt><trkpt lat="45.67459581145044" lon="8.594133186704187"><ele>337.0</ele><time>2026-04-07T11:52:25.002Z</time></trkpt><trkpt lat="45.674662922918515" lon="8.594087773646624"><ele>337.0</ele><time>2026-04-07T11:52:26.002Z</time></trkpt><trkpt lat="45.67473674106038" lon="8.594055214225737"><ele>337.0</ele><time>2026-04-07T11:52:27.002Z</time></trkpt><trkpt lat="45.67480806820866" lon="8.594026861586855"><ele>337.0</ele><time>2026-04-07T11:52:28.002Z</time></trkpt><trkpt lat="45.67491441859616" lon="8.593982136817752"><ele>337.0</ele><time>2026-04-07T11:52:30.002Z</time></trkpt><trkpt lat="45.674986058975044" lon="8.593929863754404"><ele>337.0</ele><time>2026-04-07T11:52:34.002Z</time></trkpt><trkpt lat="45.674998793702756" lon="8.593834115236437"><ele>337.0</ele><time>2026-04-07T11:52:35.002Z</time></trkpt><trkpt lat="45.67499467142693" lon="8.593730709794702"><ele>337.0</ele><time>2026-04-07T11:52:36.002Z</time></trkpt><trkpt lat="45.6749853870346" lon="8.593616758280014"><ele>337.0</ele><time>2026-04-07T11:52:37Z</time></trkpt><trkpt lat="45.67497938729892" lon="8.593472097900735"><ele>337.0</ele><time>2026-04-07T11:52:39Z</time></trkpt><trkpt lat="45.675068023177786" lon="8.593378699768191"><ele>337.0</ele><time>2026-04-07T11:52:42Z</time></trkpt><trkpt lat="45.67513899044822" lon="8.593359144317546"><ele>337.0</ele><time>2026-04-07T11:52:43Z</time></trkpt><trkpt lat="45.6752119382997" lon="8.593338572260972"><ele>338.20000000000005</ele><time>2026-04-07T11:52:44Z</time></trkpt><trkpt lat="45.675291477420316" lon="8.593304359764309"><ele>339.4</ele><time>2026-04-07T11:52:45Z</time></trkpt><trkpt lat="45.67537285140692" lon="8.59327522095428"><ele>340.6</ele><time>2026-04-07T11:52:46Z</time></trkpt><trkpt lat="45.67544268346464" lon="8.593243443510952"><ele>341.79999999999995</ele><time>2026-04-07T11:52:47Z</time></trkpt><trkpt lat="45.67555930696231" lon="8.593210630766128"><ele>343.0</ele><time>2026-04-07T11:52:49Z</time></trkpt><trkpt lat="45.67568440117305" lon="8.593171037061483"><ele>343.0</ele><time>2026-04-07T11:52:51Z</time></trkpt><trkpt lat="45.675750398011466" lon="8.593138510881737"><ele>343.0</ele><time>2026-04-07T11:52:52Z</time></trkpt><trkpt lat="45.67581046134407" lon="8.593109581477332"><ele>343.0</ele><time>2026-04-07T11:52:53Z</time></trkpt><trkpt lat="45.6758755623633" lon="8.593086321301739"><ele>343.0</ele><time>2026-04-07T11:52:54Z</time></trkpt><trkpt lat="45.67598274214012" lon="8.593050914228511"><ele>343.0</ele><time>2026-04-07T11:52:56Z</time></trkpt><trkpt lat="45.67608607260809" lon="8.593018044480454"><ele>343.0</ele><time>2026-04-07T11:52:58Z</time></trkpt><trkpt lat="45.67619109432455" lon="8.592977093254117"><ele>342.59999999999997</ele><time>2026-04-07T11:53:00Z</time></trkpt><trkpt lat="45.67627041910635" lon="8.592954253405109"><ele>342.2</ele><time>2026-04-07T11:53:02Z</time></trkpt><trkpt lat="45.67635648873918" lon="8.592900704124167"><ele>341.8</ele><time>2026-04-07T11:53:04Z</time></trkpt><trkpt lat="45.67646465265013" lon="8.592818560897776"><ele>341.4</ele><time>2026-04-07T11:53:06Z</time></trkpt><trkpt lat="45.67656342171779" lon="8.592755725409088"><ele>341.0</ele><time>2026-04-07T11:53:08Z</time></trkpt><trkpt lat="45.67663304243282" lon="8.592710320025743"><ele>341.0</ele><time>2026-04-07T11:53:10Z</time></trkpt><trkpt lat="45.67669508950491" lon="8.592692529584001"><ele>341.0</ele><time>2026-04-07T11:53:12Z</time></trkpt><trkpt lat="45.67677943217296" lon="8.592672730414513"><ele>341.0</ele><time>2026-04-07T11:53:14.001Z</time></trkpt><trkpt lat="45.676856338881386" lon="8.592602542767109"><ele>341.0</ele><time>2026-04-07T11:53:17.001Z</time></trkpt><trkpt lat="45.6768305716101" lon="8.59248927549409"><ele>341.0</ele><time>2026-04-07T11:53:20.001Z</time></trkpt><trkpt lat="45.67680383745869" lon="8.592394366125387"><ele>341.0</ele><time>2026-04-07T11:53:23.001Z</time></trkpt><trkpt lat="45.67679762874196" lon="8.592302336582447"><ele>341.0</ele><time>2026-04-07T11:54:09.002Z</time></trkpt><trkpt lat="45.67683191288097" lon="8.59222481795159"><ele>341.0</ele><time>2026-04-07T11:54:37.002Z</time></trkpt><trkpt lat="45.67690509022339" lon="8.592252908944568"><ele>341.0</ele><time>2026-04-07T11:54:54Z</time></trkpt><trkpt lat="45.67684273814666" lon="8.592275932845801"><ele>341.0</ele><time>2026-04-07T11:55:02Z</time></trkpt><trkpt lat="45.67687990183475" lon="8.592404023796192"><ele>341.0</ele><time>2026-04-07T11:55:36.001Z</time></trkpt><trkpt lat="45.67692018738726" lon="8.592541000017434"><ele>341.0</ele><time>2026-04-07T11:55:38.001Z</time></trkpt><trkpt lat="45.67691847251455" lon="8.592650269541046"><ele>341.0</ele><time>2026-04-07T11:55:43.001Z</time></trkpt><trkpt lat="45.67685106417716" lon="8.592670313072805"><ele>341.0</ele><time>2026-04-07T11:55:45.001Z</time></trkpt><trkpt lat="45.67677833724007" lon="8.592678018635997"><ele>341.0</ele><time>2026-04-07T11:55:47.001Z</time></trkpt><trkpt lat="45.676705831637356" lon="8.592731032369793"><ele>341.0</ele><time>2026-04-07T11:55:49.001Z</time></trkpt><trkpt lat="45.67660755030895" lon="8.592829714587776"><ele>341.0</ele><time>2026-04-07T11:55:51.001Z</time></trkpt><trkpt lat="45.676535310750424" lon="8.592874407335442"><ele>341.0</ele><time>2026-04-07T11:55:52.001Z</time></trkpt><trkpt lat="45.67644680634043" lon="8.592950405001647"><ele>340.6</ele><time>2026-04-07T11:55:54.001Z</time></trkpt><trkpt lat="45.6763787717654" lon="8.593002696103202"><ele>340.20000000000005</ele><time>2026-04-07T11:55:56.001Z</time></trkpt><trkpt lat="45.676273626113804" lon="8.593047301116291"><ele>339.79999999999995</ele><time>2026-04-07T11:55:58.001Z</time></trkpt><trkpt lat="45.676168473565816" lon="8.593120162662126"><ele>339.4</ele><time>2026-04-07T11:56:00.001Z</time></trkpt><trkpt lat="45.676087608616236" lon="8.593150611472554"><ele>339.0</ele><time>2026-04-07T11:56:01.001Z</time></trkpt><trkpt lat="45.675992226416845" lon="8.5931763796062"><ele>339.79999999999995</ele><time>2026-04-07T11:56:02.001Z</time></trkpt><trkpt lat="45.67588951408462" lon="8.593201121054362"><ele>340.59999999999997</ele><time>2026-04-07T11:56:03.001Z</time></trkpt><trkpt lat="45.67578319906149" lon="8.593225065489865"><ele>341.4</ele><time>2026-04-07T11:56:04.002Z</time></trkpt><trkpt lat="45.67569659097958" lon="8.59325531171165"><ele>342.2</ele><time>2026-04-07T11:56:05.002Z</time></trkpt><trkpt lat="45.675592827979116" lon="8.593278123442648"><ele>343.0</ele><time>2026-04-07T11:56:06.002Z</time></trkpt><trkpt lat="45.675508237876386" lon="8.593296665690742"><ele>343.0</ele><time>2026-04-07T11:56:07.002Z</time></trkpt><trkpt lat="45.6754394753098" lon="8.593310774514"><ele>343.0</ele><time>2026-04-07T11:56:08.002Z</time></trkpt><trkpt lat="45.67537631993494" lon="8.593324324339275"><ele>343.0</ele><time>2026-04-07T11:56:09.002Z</time></trkpt><trkpt lat="45.675261214797295" lon="8.593352983287346"><ele>343.0</ele><time>2026-04-07T11:56:11.002Z</time></trkpt><trkpt lat="45.675178488558494" lon="8.593373809495882"><ele>343.0</ele><time>2026-04-07T11:56:13.002Z</time></trkpt><trkpt lat="45.67511565461231" lon="8.59338754795065"><ele>343.0</ele><time>2026-04-07T11:56:17.002Z</time></trkpt><trkpt lat="45.67503250560849" lon="8.593409979162132"><ele>343.16666666666663</ele><time>2026-04-07T11:57:02Z</time></trkpt><trkpt lat="45.67499282134885" lon="8.59350343587984"><ele>343.3333333333333</ele><time>2026-04-07T11:57:04Z</time></trkpt><trkpt lat="45.67500157339963" lon="8.59361068896856"><ele>343.5</ele><time>2026-04-07T11:57:05Z</time></trkpt><trkpt lat="45.675011415230934" lon="8.593734928102924"><ele>343.6666666666667</ele><time>2026-04-07T11:57:06Z</time></trkpt><trkpt lat="45.675015208995006" lon="8.593876733214232"><ele>343.83333333333337</ele><time>2026-04-07T11:57:07Z</time></trkpt><trkpt lat="45.67502078842359" lon="8.594032547956623"><ele>344.0</ele><time>2026-04-07T11:57:08Z</time></trkpt><trkpt lat="45.67502769014036" lon="8.594191301136595"><ele>342.25</ele><time>2026-04-07T11:57:09Z</time></trkpt><trkpt lat="45.675043454133295" lon="8.5943612331022"><ele>340.5</ele><time>2026-04-07T11:57:10Z</time></trkpt><trkpt lat="45.67507027197696" lon="8.594548449304607"><ele>338.75</ele><time>2026-04-07T11:57:11Z</time></trkpt><trkpt lat="45.67511910590739" lon="8.59473466481497"><ele>337.0</ele><time>2026-04-07T11:57:12Z</time></trkpt><trkpt lat="45.67518919464923" lon="8.594934867709052"><ele>334.66666666666663</ele><time>2026-04-07T11:57:13Z</time></trkpt><trkpt lat="45.675269073072656" lon="8.59513359768419"><ele>332.3333333333333</ele><time>2026-04-07T11:57:14Z</time></trkpt><trkpt lat="45.67534488559867" lon="8.595326109651571"><ele>330.0</ele><time>2026-04-07T11:57:15Z</time></trkpt><trkpt lat="45.67541368805842" lon="8.595531719255675"><ele>329.0</ele><time>2026-04-07T11:57:16Z</time></trkpt><trkpt lat="45.67547037342397" lon="8.595750475429956"><ele>328.0</ele><time>2026-04-07T11:57:17Z</time></trkpt><trkpt lat="45.675515923811254" lon="8.59598801347446"><ele>327.0</ele><time>2026-04-07T11:57:18Z</time></trkpt><trkpt lat="45.675548512999626" lon="8.596224294252456"><ele>327.0</ele><time>2026-04-07T11:57:19Z</time></trkpt><trkpt lat="45.67557636046319" lon="8.59645480494893"><ele>327.0</ele><time>2026-04-07T11:57:20Z</time></trkpt><trkpt lat="45.67560312941581" lon="8.596671593382196"><ele>327.0</ele><time>2026-04-07T11:57:21Z</time></trkpt><trkpt lat="45.67562747029988" lon="8.596873644123296"><ele>327.25</ele><time>2026-04-07T11:57:22Z</time></trkpt><trkpt lat="45.67565022508568" lon="8.597066226464154"><ele>327.5</ele><time>2026-04-07T11:57:23Z</time></trkpt><trkpt lat="45.67566526487289" lon="8.59724959255525"><ele>327.75</ele><time>2026-04-07T11:57:24Z</time></trkpt><trkpt lat="45.67566550033328" lon="8.597419216510675"><ele>328.0</ele><time>2026-04-07T11:57:25Z</time></trkpt><trkpt lat="45.67564836147087" lon="8.597580920688182"><ele>328.0</ele><time>2026-04-07T11:57:26Z</time></trkpt><trkpt lat="45.675617282153745" lon="8.597742359904748"><ele>328.0</ele><time>2026-04-07T11:57:27Z</time></trkpt><trkpt lat="45.67558370199728" lon="8.597904163558706"><ele>328.0</ele><time>2026-04-07T11:57:28Z</time></trkpt><trkpt lat="45.675554221940565" lon="8.598061664225913"><ele>328.0</ele><time>2026-04-07T11:57:29.001Z</time></trkpt><trkpt lat="45.675531291074975" lon="8.598196091019819"><ele>328.0</ele><time>2026-04-07T11:57:30.001Z</time></trkpt><trkpt lat="45.67550956922149" lon="8.598320809035467"><ele>328.5</ele><time>2026-04-07T11:57:31.001Z</time></trkpt><trkpt lat="45.675504434147705" lon="8.598425244796914"><ele>329.0</ele><time>2026-04-07T11:57:32.001Z</time></trkpt><trkpt lat="45.67555886054195" lon="8.598555013693337"><ele>329.5</ele><time>2026-04-07T11:57:34.001Z</time></trkpt><trkpt lat="45.675652043449965" lon="8.598511941008859"><ele>330.0</ele><time>2026-04-07T11:57:36.001Z</time></trkpt><trkpt lat="45.67571640400949" lon="8.598442081802927"><ele>330.5</ele><time>2026-04-07T11:57:37.001Z</time></trkpt><trkpt lat="45.67579284547269" lon="8.598384258834443"><ele>331.0</ele><time>2026-04-07T11:57:38.001Z</time></trkpt><trkpt lat="45.67587568204436" lon="8.598325051074855"><ele>331.0</ele><time>2026-04-07T11:57:39.001Z</time></trkpt><trkpt lat="45.67596726353036" lon="8.598259334750038"><ele>331.0</ele><time>2026-04-07T11:57:40.001Z</time></trkpt><trkpt lat="45.67606373907375" lon="8.598184539344068"><ele>331.0</ele><time>2026-04-07T11:57:41.001Z</time></trkpt><trkpt lat="45.67616570509482" lon="8.598109353352564"><ele>331.0</ele><time>2026-04-07T11:57:42.001Z</time></trkpt><trkpt lat="45.67626591498316" lon="8.598036204496244"><ele>331.0</ele><time>2026-04-07T11:57:43.001Z</time></trkpt><trkpt lat="45.67637265246496" lon="8.597961963963352"><ele>331.75</ele><time>2026-04-07T11:57:44.001Z</time></trkpt><trkpt lat="45.67648089995673" lon="8.597890164019583"><ele>332.5</ele><time>2026-04-07T11:57:45.001Z</time></trkpt><trkpt lat="45.67658881350139" lon="8.5978347591299"><ele>333.25</ele><time>2026-04-07T11:57:46.001Z</time></trkpt><trkpt lat="45.67669871633575" lon="8.597793460149687"><ele>334.0</ele><time>2026-04-07T11:57:47.001Z</time></trkpt><trkpt lat="45.676806875423374" lon="8.597770181378646"><ele>334.0</ele><time>2026-04-07T11:57:48.001Z</time></trkpt><trkpt lat="45.67691570510227" lon="8.597761272245604"><ele>334.0</ele><time>2026-04-07T11:57:49.001Z</time></trkpt><trkpt lat="45.67702025496648" lon="8.597758104153767"><ele>334.0</ele><time>2026-04-07T11:57:50.001Z</time></trkpt><trkpt lat="45.677124549497684" lon="8.597769851733826"><ele>334.0</ele><time>2026-04-07T11:57:51.001Z</time></trkpt><trkpt lat="45.677223155791765" lon="8.597806540265562"><ele>334.0</ele><time>2026-04-07T11:57:52.001Z</time></trkpt><trkpt lat="45.677300999566135" lon="8.59786248685496"><ele>335.66666666666663</ele><time>2026-04-07T11:57:53.001Z</time></trkpt><trkpt lat="45.677366971418216" lon="8.597919992031638"><ele>337.3333333333333</ele><time>2026-04-07T11:57:54.001Z</time></trkpt><trkpt lat="45.67744515679158" lon="8.597969290478243"><ele>339.0</ele><time>2026-04-07T11:57:55.001Z</time></trkpt><trkpt lat="45.67753114814263" lon="8.598000163754646"><ele>340.6666666666667</ele><time>2026-04-07T11:57:56.001Z</time></trkpt><trkpt lat="45.677620726137214" lon="8.598017322462393"><ele>342.33333333333337</ele><time>2026-04-07T11:57:57.001Z</time></trkpt><trkpt lat="45.677699159299415" lon="8.598015512525498"><ele>344.0</ele><time>2026-04-07T11:57:58.001Z</time></trkpt><trkpt lat="45.677778232626075" lon="8.598002338717887"><ele>344.0</ele><time>2026-04-07T11:57:59.001Z</time></trkpt><trkpt lat="45.67788591574731" lon="8.597963432323706"><ele>344.0</ele><time>2026-04-07T11:58:01.001Z</time></trkpt><trkpt lat="45.677988742208704" lon="8.597900588017959"><ele>344.0</ele><time>2026-04-07T11:58:03.001Z</time></trkpt><trkpt lat="45.678100201080284" lon="8.597880129958929"><ele>344.0</ele><time>2026-04-07T11:58:05.001Z</time></trkpt><trkpt lat="45.67822049521419" lon="8.597869717943816"><ele>344.0</ele><time>2026-04-07T11:58:07.001Z</time></trkpt><trkpt lat="45.6782847013771" lon="8.597862303417783"><ele>344.0</ele><time>2026-04-07T11:58:08.001Z</time></trkpt><trkpt lat="45.678357919933454" lon="8.597851693218733"><ele>344.0</ele><time>2026-04-07T11:58:09.001Z</time></trkpt><trkpt lat="45.67842724575751" lon="8.597834570929589"><ele>344.0</ele><time>2026-04-07T11:58:10.001Z</time></trkpt><trkpt lat="45.678551712353084" lon="8.59782476517988"><ele>344.0</ele><time>2026-04-07T11:58:12.001Z</time></trkpt><trkpt lat="45.6786157775312" lon="8.597826418775588"><ele>344.0</ele><time>2026-04-07T11:58:13.001Z</time></trkpt><trkpt lat="45.67870471211518" lon="8.597880223604806"><ele>343.33333333333337</ele><time>2026-04-07T11:58:15.001Z</time></trkpt><trkpt lat="45.67874053342296" lon="8.597968189355617"><ele>342.6666666666667</ele><time>2026-04-07T11:58:16.001Z</time></trkpt><trkpt lat="45.6787695926627" lon="8.598077361765476"><ele>342.0</ele><time>2026-04-07T11:58:17.001Z</time></trkpt><trkpt lat="45.67879849709049" lon="8.59820130075721"><ele>341.3333333333333</ele><time>2026-04-07T11:58:18.002Z</time></trkpt><trkpt lat="45.67883139322753" lon="8.598334232885735"><ele>340.66666666666663</ele><time>2026-04-07T11:58:19.002Z</time></trkpt><trkpt lat="45.67886078241205" lon="8.598462981411744"><ele>340.0</ele><time>2026-04-07T11:58:20.002Z</time></trkpt><trkpt lat="45.678892875509575" lon="8.5985892164002"><ele>339.2</ele><time>2026-04-07T11:58:21.002Z</time></trkpt><trkpt lat="45.6789221810365" lon="8.598710927358958"><ele>338.4</ele><time>2026-04-07T11:58:22.002Z</time></trkpt><trkpt lat="45.67896375281594" lon="8.598816650014804"><ele>337.6</ele><time>2026-04-07T11:58:23.002Z</time></trkpt><trkpt lat="45.67903170022316" lon="8.59890229767159"><ele>336.8</ele><time>2026-04-07T11:58:24.002Z</time></trkpt><trkpt lat="45.679120161980784" lon="8.598975463095437"><ele>336.0</ele><time>2026-04-07T11:58:25.002Z</time></trkpt><trkpt lat="45.679220594437005" lon="8.599045508182092"><ele>336.0</ele><time>2026-04-07T11:58:26.002Z</time></trkpt><trkpt lat="45.67932307644785" lon="8.59911909356641"><ele>336.0</ele><time>2026-04-07T11:58:27.002Z</time></trkpt><trkpt lat="45.67943263593306" lon="8.599200222737844"><ele>336.0</ele><time>2026-04-07T11:58:28.002Z</time></trkpt><trkpt lat="45.679531222345005" lon="8.599275227566256"><ele>336.0</ele><time>2026-04-07T11:58:29.002Z</time></trkpt><trkpt lat="45.679636979150324" lon="8.599363222061378"><ele>336.0</ele><time>2026-04-07T11:58:30.002Z</time></trkpt><trkpt lat="45.67974386611168" lon="8.599440272428584"><ele>336.0</ele><time>2026-04-07T11:58:31.002Z</time></trkpt><trkpt lat="45.67984884774525" lon="8.599489932903534"><ele>336.0</ele><time>2026-04-07T11:58:32.002Z</time></trkpt><trkpt lat="45.67995764348699" lon="8.599503577355657"><ele>336.0</ele><time>2026-04-07T11:58:33.002Z</time></trkpt><trkpt lat="45.680077285329205" lon="8.599485490615514"><ele>336.0</ele><time>2026-04-07T11:58:34.002Z</time></trkpt><trkpt lat="45.680202523795124" lon="8.599448804134125"><ele>336.0</ele><time>2026-04-07T11:58:35.002Z</time></trkpt><trkpt lat="45.68032925047001" lon="8.599391026396226"><ele>336.0</ele><time>2026-04-07T11:58:36.002Z</time></trkpt><trkpt lat="45.680445026690386" lon="8.59930081849367"><ele>336.0</ele><time>2026-04-07T11:58:37.002Z</time></trkpt><trkpt lat="45.680559210262885" lon="8.599222066246977"><ele>334.0</ele><time>2026-04-07T11:58:38.002Z</time></trkpt><trkpt lat="45.68066953407372" lon="8.599139254790453"><ele>332.0</ele><time>2026-04-07T11:58:39.002Z</time></trkpt><trkpt lat="45.68077647615676" lon="8.599054346558436"><ele>330.0</ele><time>2026-04-07T11:58:40.002Z</time></trkpt><trkpt lat="45.6808781580201" lon="8.598979573907654"><ele>328.0</ele><time>2026-04-07T11:58:41.002Z</time></trkpt><trkpt lat="45.68096198195919" lon="8.598926821142813"><ele>328.0</ele><time>2026-04-07T11:58:42.002Z</time></trkpt><trkpt lat="45.68102660792403" lon="8.598902068991288"><ele>328.0</ele><time>2026-04-07T11:58:43.002Z</time></trkpt><trkpt lat="45.68111096747614" lon="8.59896523702497"><ele>328.0</ele><time>2026-04-07T11:58:45.002Z</time></trkpt><trkpt lat="45.68109844815515" lon="8.599083479501864"><ele>328.0</ele><time>2026-04-07T11:58:46.002Z</time></trkpt><trkpt lat="45.680998438395896" lon="8.599230875225363"><ele>328.0</ele><time>2026-04-07T11:58:48.002Z</time></trkpt><trkpt lat="45.68092005456899" lon="8.599332546498133"><ele>328.0</ele><time>2026-04-07T11:58:49.002Z</time></trkpt><trkpt lat="45.68086303143662" lon="8.599452824142077"><ele>328.0</ele><time>2026-04-07T11:58:50.002Z</time></trkpt><trkpt lat="45.68080072064597" lon="8.599554768816517"><ele>328.0</ele><time>2026-04-07T11:58:51.002Z</time></trkpt><trkpt lat="45.68073735730472" lon="8.599652030250093"><ele>328.0</ele><time>2026-04-07T11:58:52.002Z</time></trkpt><trkpt lat="45.68069993524244" lon="8.59975495881547"><ele>328.0</ele><time>2026-04-07T11:58:53.002Z</time></trkpt><trkpt lat="45.68070297078305" lon="8.599860102372602"><ele>328.0</ele><time>2026-04-07T11:58:54.002Z</time></trkpt><trkpt lat="45.680749005599395" lon="8.59996227521588"><ele>326.4</ele><time>2026-04-07T11:58:55Z</time></trkpt><trkpt lat="45.68078626657557" lon="8.600056836155812"><ele>324.79999999999995</ele><time>2026-04-07T11:58:56Z</time></trkpt><trkpt lat="45.68090643682726" lon="8.600114072619702"><ele>323.2</ele><time>2026-04-07T11:58:58Z</time></trkpt><trkpt lat="45.68097279361241" lon="8.600078520172781"><ele>321.6</ele><time>2026-04-07T11:58:59Z</time></trkpt><trkpt lat="45.681071629335406" lon="8.599969756082716"><ele>320.0</ele><time>2026-04-07T11:59:01Z</time></trkpt><trkpt lat="45.68112511362013" lon="8.599894502736618"><ele>318.1666666666667</ele><time>2026-04-07T11:59:02Z</time></trkpt><trkpt lat="45.68118867362609" lon="8.599810564054744"><ele>316.33333333333337</ele><time>2026-04-07T11:59:03Z</time></trkpt><trkpt lat="45.68124956672296" lon="8.599734951501613"><ele>314.5</ele><time>2026-04-07T11:59:04Z</time></trkpt><trkpt lat="45.6813062507262" lon="8.599662868453864"><ele>312.6666666666667</ele><time>2026-04-07T11:59:05Z</time></trkpt><trkpt lat="45.681361782644345" lon="8.599583789847605"><ele>310.8333333333333</ele><time>2026-04-07T11:59:06Z</time></trkpt><trkpt lat="45.681415567193056" lon="8.599516869866182"><ele>309.0</ele><time>2026-04-07T11:59:07Z</time></trkpt><trkpt lat="45.68147297162254" lon="8.59943970211084"><ele>309.0</ele><time>2026-04-07T11:59:08Z</time></trkpt><trkpt lat="45.68152338838563" lon="8.599358330467163"><ele>309.0</ele><time>2026-04-07T11:59:09Z</time></trkpt><trkpt lat="45.68156650006614" lon="8.599262224223462"><ele>309.0</ele><time>2026-04-07T11:59:10Z</time></trkpt><trkpt lat="45.68160446134737" lon="8.599164379974761"><ele>309.0</ele><time>2026-04-07T11:59:11Z</time></trkpt><trkpt lat="45.681648274994664" lon="8.599061511811868"><ele>309.0</ele><time>2026-04-07T11:59:12Z</time></trkpt><trkpt lat="45.68170534991663" lon="8.598968940584705"><ele>309.0</ele><time>2026-04-07T11:59:13Z</time></trkpt><trkpt lat="45.68176118476234" lon="8.598874541384188"><ele>309.0</ele><time>2026-04-07T11:59:14Z</time></trkpt><trkpt lat="45.68181480413896" lon="8.598762421206095"><ele>309.0</ele><time>2026-04-07T11:59:15Z</time></trkpt><trkpt lat="45.68185403336435" lon="8.59866315856741"><ele>309.0</ele><time>2026-04-07T11:59:16Z</time></trkpt><trkpt lat="45.681891849585824" lon="8.598558703491777"><ele>309.0</ele><time>2026-04-07T11:59:17Z</time></trkpt><trkpt lat="45.681935714362" lon="8.59844895663467"><ele>309.0</ele><time>2026-04-07T11:59:18Z</time></trkpt><trkpt lat="45.68197849906689" lon="8.598314141604506"><ele>309.0</ele><time>2026-04-07T11:59:19Z</time></trkpt><trkpt lat="45.68201710546259" lon="8.598167247087249"><ele>307.75</ele><time>2026-04-07T11:59:20Z</time></trkpt><trkpt lat="45.682054291134016" lon="8.598011399045992"><ele>306.5</ele><time>2026-04-07T11:59:21Z</time></trkpt><trkpt lat="45.682087802525515" lon="8.597839283506731"><ele>305.25</ele><time>2026-04-07T11:59:22Z</time></trkpt><trkpt lat="45.6821237074122" lon="8.597668549183936"><ele>304.0</ele><time>2026-04-07T11:59:23Z</time></trkpt><trkpt lat="45.68215309893737" lon="8.597504254780429"><ele>307.75</ele><time>2026-04-07T11:59:24Z</time></trkpt><trkpt lat="45.682179891804815" lon="8.597329734770925"><ele>311.5</ele><time>2026-04-07T11:59:25Z</time></trkpt><trkpt lat="45.682208131266776" lon="8.597151731764335"><ele>315.25</ele><time>2026-04-07T11:59:26Z</time></trkpt><trkpt lat="45.68223510282478" lon="8.59696200860037"><ele>319.0</ele><time>2026-04-07T11:59:27Z</time></trkpt><trkpt lat="45.68225940173536" lon="8.596774268293329"><ele>320.75</ele><time>2026-04-07T11:59:28Z</time></trkpt><trkpt lat="45.68229078544497" lon="8.596593145175582"><ele>322.5</ele><time>2026-04-07T11:59:29Z</time></trkpt><trkpt lat="45.68231735208112" lon="8.596420021481395"><ele>324.25</ele><time>2026-04-07T11:59:30.001Z</time></trkpt><trkpt lat="45.68234074192154" lon="8.596232504680666"><ele>326.0</ele><time>2026-04-07T11:59:31.001Z</time></trkpt><trkpt lat="45.68237576916515" lon="8.59606221531274"><ele>327.0</ele><time>2026-04-07T11:59:32.001Z</time></trkpt><trkpt lat="45.682400320575944" lon="8.595885928761657"><ele>328.0</ele><time>2026-04-07T11:59:33.001Z</time></trkpt><trkpt lat="45.682424056196766" lon="8.595706599803632"><ele>329.0</ele><time>2026-04-07T11:59:34.001Z</time></trkpt><trkpt lat="45.68245850271101" lon="8.5955288449848"><ele>330.0</ele><time>2026-04-07T11:59:35.001Z</time></trkpt><trkpt lat="45.682483540997175" lon="8.595353335366124"><ele>331.25</ele><time>2026-04-07T11:59:36.001Z</time></trkpt><trkpt lat="45.682509921359" lon="8.595172255696037"><ele>332.5</ele><time>2026-04-07T11:59:37.001Z</time></trkpt><trkpt lat="45.68254247689201" lon="8.594981719993214"><ele>333.75</ele><time>2026-04-07T11:59:38.001Z</time></trkpt><trkpt lat="45.68256919220735" lon="8.5948021830244"><ele>335.0</ele><time>2026-04-07T11:59:39.001Z</time></trkpt><trkpt lat="45.682595291148125" lon="8.594619898486508"><ele>336.0</ele><time>2026-04-07T11:59:40.001Z</time></trkpt><trkpt lat="45.682622344762336" lon="8.59445135491911"><ele>337.0</ele><time>2026-04-07T11:59:41.001Z</time></trkpt><trkpt lat="45.68264792027732" lon="8.594277380172285"><ele>338.0</ele><time>2026-04-07T11:59:42.001Z</time></trkpt><trkpt lat="45.68267130010618" lon="8.594106495894737"><ele>339.0</ele><time>2026-04-07T11:59:43.001Z</time></trkpt><trkpt lat="45.68269406238942" lon="8.593937184766135"><ele>339.0</ele><time>2026-04-07T11:59:44.001Z</time></trkpt><trkpt lat="45.682721042336944" lon="8.59376433668773"><ele>339.0</ele><time>2026-04-07T11:59:45.001Z</time></trkpt><trkpt lat="45.682745880701745" lon="8.59358512418424"><ele>339.0</ele><time>2026-04-07T11:59:46.001Z</time></trkpt><trkpt lat="45.68277492366526" lon="8.593413692464821"><ele>339.0</ele><time>2026-04-07T11:59:47.001Z</time></trkpt><trkpt lat="45.68279757646043" lon="8.59323842834065"><ele>336.0</ele><time>2026-04-07T11:59:48.001Z</time></trkpt><trkpt lat="45.682825797109544" lon="8.593063110417162"><ele>333.0</ele><time>2026-04-07T11:59:49.001Z</time></trkpt><trkpt lat="45.68284291656613" lon="8.59287660675801"><ele>330.0</ele><time>2026-04-07T11:59:50.001Z</time></trkpt><trkpt lat="45.68288174453462" lon="8.592682819178343"><ele>327.0</ele><time>2026-04-07T11:59:51.001Z</time></trkpt><trkpt lat="45.68291669167941" lon="8.592493615388396"><ele>326.75</ele><time>2026-04-07T11:59:52.001Z</time></trkpt><trkpt lat="45.682948115353945" lon="8.59230799849554"><ele>326.5</ele><time>2026-04-07T11:59:53.001Z</time></trkpt><trkpt lat="45.68298191550344" lon="8.592116967452188"><ele>326.25</ele><time>2026-04-07T11:59:54.001Z</time></trkpt><trkpt lat="45.6830180132338" lon="8.591918407317568"><ele>326.0</ele><time>2026-04-07T11:59:55.001Z</time></trkpt><trkpt lat="45.68305071839371" lon="8.59172011409688"><ele>328.25</ele><time>2026-04-07T11:59:56.001Z</time></trkpt><trkpt lat="45.68308234806925" lon="8.591524600951015"><ele>330.5</ele><time>2026-04-07T11:59:57.001Z</time></trkpt><trkpt lat="45.683113388782886" lon="8.591327965643567"><ele>332.75</ele><time>2026-04-07T11:59:58.001Z</time></trkpt><trkpt lat="45.683142343606896" lon="8.591139295073473"><ele>335.0</ele><time>2026-04-07T11:59:59.001Z</time></trkpt><trkpt lat="45.68316502826425" lon="8.590950470332656"><ele>336.25</ele><time>2026-04-07T12:00:00.001Z</time></trkpt><trkpt lat="45.683177591348745" lon="8.590754870618406"><ele>337.5</ele><time>2026-04-07T12:00:01.001Z</time></trkpt><trkpt lat="45.68318174996321" lon="8.590552911526883"><ele>338.75</ele><time>2026-04-07T12:00:02.001Z</time></trkpt><trkpt lat="45.68317957084821" lon="8.590353901718057"><ele>340.0</ele><time>2026-04-07T12:00:03.001Z</time></trkpt><trkpt lat="45.68316879085891" lon="8.590157236810438"><ele>340.75</ele><time>2026-04-07T12:00:04.001Z</time></trkpt><trkpt lat="45.683150035684314" lon="8.589958681371872"><ele>341.5</ele><time>2026-04-07T12:00:05.001Z</time></trkpt><trkpt lat="45.68312789995477" lon="8.589753257764297"><ele>342.25</ele><time>2026-04-07T12:00:06.001Z</time></trkpt><trkpt lat="45.68310157910049" lon="8.589537664514458"><ele>343.0</ele><time>2026-04-07T12:00:07.001Z</time></trkpt><trkpt lat="45.68307957327925" lon="8.589310447496159"><ele>343.3333333333333</ele><time>2026-04-07T12:00:08.001Z</time></trkpt><trkpt lat="45.68306129201288" lon="8.589082220578973"><ele>343.6666666666667</ele><time>2026-04-07T12:00:09.001Z</time></trkpt><trkpt lat="45.683044909571706" lon="8.588871484158116"><ele>344.0</ele><time>2026-04-07T12:00:10.001Z</time></trkpt><trkpt lat="45.68303382100546" lon="8.588666957231544"><ele>344.5</ele><time>2026-04-07T12:00:11.001Z</time></trkpt><trkpt lat="45.683013539615196" lon="8.58848009742766"><ele>345.0</ele><time>2026-04-07T12:00:12.001Z</time></trkpt><trkpt lat="45.68299816662543" lon="8.588298626423244"><ele>345.5</ele><time>2026-04-07T12:00:13.001Z</time></trkpt><trkpt lat="45.68298200448791" lon="8.588130845314351"><ele>346.0</ele><time>2026-04-07T12:00:14.001Z</time></trkpt><trkpt lat="45.682974227852526" lon="8.587965925487117"><ele>346.8333333333333</ele><time>2026-04-07T12:00:15.001Z</time></trkpt><trkpt lat="45.68296222754634" lon="8.587826362768"><ele>347.66666666666663</ele><time>2026-04-07T12:00:16.002Z</time></trkpt><trkpt lat="45.68295181140697" lon="8.587704606419686"><ele>348.5</ele><time>2026-04-07T12:00:17.002Z</time></trkpt><trkpt lat="45.68294115244871" lon="8.587569312129492"><ele>349.3333333333333</ele><time>2026-04-07T12:00:19.002Z</time></trkpt><trkpt lat="45.682924293696644" lon="8.587469653454702"><ele>350.1666666666667</ele><time>2026-04-07T12:00:21.002Z</time></trkpt><trkpt lat="45.6829122908612" lon="8.587354573894993"><ele>351.0</ele><time>2026-04-07T12:00:23.002Z</time></trkpt><trkpt lat="45.682886341210754" lon="8.587185103761353"><ele>351.0</ele><time>2026-04-07T12:00:25.002Z</time></trkpt><trkpt lat="45.682878999694665" lon="8.587075659657646"><ele>351.0</ele><time>2026-04-07T12:00:26.002Z</time></trkpt><trkpt lat="45.6828732096316" lon="8.586959514369829"><ele>351.0</ele><time>2026-04-07T12:00:27.002Z</time></trkpt><trkpt lat="45.68286281908909" lon="8.586825069197792"><ele>351.0</ele><time>2026-04-07T12:00:28.002Z</time></trkpt><trkpt lat="45.68285052404894" lon="8.586675973736465"><ele>351.0</ele><time>2026-04-07T12:00:29.002Z</time></trkpt><trkpt lat="45.68283421244052" lon="8.586514372675286"><ele>351.5</ele><time>2026-04-07T12:00:30.002Z</time></trkpt><trkpt lat="45.6828175545566" lon="8.586356941267054"><ele>352.0</ele><time>2026-04-07T12:00:31.002Z</time></trkpt><trkpt lat="45.68280179932838" lon="8.586198315895693"><ele>352.5</ele><time>2026-04-07T12:00:32.002Z</time></trkpt><trkpt lat="45.68278485954754" lon="8.586040024948163"><ele>353.0</ele><time>2026-04-07T12:00:33.002Z</time></trkpt><trkpt lat="45.682770853398125" lon="8.58587027350707"><ele>351.75</ele><time>2026-04-07T12:00:34.002Z</time></trkpt><trkpt lat="45.68275752103568" lon="8.585701007695032"><ele>350.5</ele><time>2026-04-07T12:00:35.002Z</time></trkpt><trkpt lat="45.68274602523436" lon="8.585526688480979"><ele>349.25</ele><time>2026-04-07T12:00:36.002Z</time></trkpt><trkpt lat="45.682733726793465" lon="8.585351371978748"><ele>348.0</ele><time>2026-04-07T12:00:37.002Z</time></trkpt><trkpt lat="45.68272236350334" lon="8.585179681601717"><ele>347.8333333333333</ele><time>2026-04-07T12:00:38.002Z</time></trkpt><trkpt lat="45.68271273054561" lon="8.585012311205722"><ele>347.6666666666667</ele><time>2026-04-07T12:00:39.002Z</time></trkpt><trkpt lat="45.68270128780266" lon="8.584863187810603"><ele>347.5</ele><time>2026-04-07T12:00:40.002Z</time></trkpt><trkpt lat="45.68269447593144" lon="8.584741056029825"><ele>347.33333333333337</ele><time>2026-04-07T12:00:41.002Z</time></trkpt><trkpt lat="45.682692077467756" lon="8.584648348281222"><ele>347.1666666666667</ele><time>2026-04-07T12:00:42.002Z</time></trkpt><trkpt lat="45.68266750390609" lon="8.58454480567798"><ele>347.0</ele><time>2026-04-07T12:01:08Z</time></trkpt><trkpt lat="45.682653669955045" lon="8.58437153986198"><ele>347.0</ele><time>2026-04-07T12:01:10Z</time></trkpt><trkpt lat="45.682659072331205" lon="8.584256472181348"><ele>347.0</ele><time>2026-04-07T12:01:11Z</time></trkpt><trkpt lat="45.682667984239615" lon="8.584120623228381"><ele>347.0</ele><time>2026-04-07T12:01:12Z</time></trkpt><trkpt lat="45.682683113038806" lon="8.583963648064021"><ele>347.0</ele><time>2026-04-07T12:01:13Z</time></trkpt><trkpt lat="45.682694058518315" lon="8.583793904141352"><ele>347.0</ele><time>2026-04-07T12:01:14Z</time></trkpt><trkpt lat="45.68269871289006" lon="8.5836077923264"><ele>347.0</ele><time>2026-04-07T12:01:15Z</time></trkpt><trkpt lat="45.68270939796127" lon="8.583436852679876"><ele>347.0</ele><time>2026-04-07T12:01:16Z</time></trkpt><trkpt lat="45.68272358383459" lon="8.583253097883867"><ele>347.0</ele><time>2026-04-07T12:01:17Z</time></trkpt><trkpt lat="45.68273681541442" lon="8.583068465179132"><ele>347.0</ele><time>2026-04-07T12:01:18Z</time></trkpt><trkpt lat="45.68274980663113" lon="8.58287754217814"><ele>346.75</ele><time>2026-04-07T12:01:19Z</time></trkpt><trkpt lat="45.68275802928207" lon="8.582684999223611"><ele>346.5</ele><time>2026-04-07T12:01:20Z</time></trkpt><trkpt lat="45.68276664078692" lon="8.582491930265064"><ele>346.25</ele><time>2026-04-07T12:01:21Z</time></trkpt><trkpt lat="45.68277878172305" lon="8.582296030570499"><ele>346.0</ele><time>2026-04-07T12:01:22Z</time></trkpt><trkpt lat="45.682792728733865" lon="8.582098370080868"><ele>347.25</ele><time>2026-04-07T12:01:23Z</time></trkpt><trkpt lat="45.68280429441338" lon="8.581882198142841"><ele>348.5</ele><time>2026-04-07T12:01:24Z</time></trkpt><trkpt lat="45.68282141728911" lon="8.581687456218413"><ele>349.75</ele><time>2026-04-07T12:01:25Z</time></trkpt><trkpt lat="45.68283581211877" lon="8.581479996158116"><ele>351.0</ele><time>2026-04-07T12:01:26Z</time></trkpt><trkpt lat="45.6828484667995" lon="8.581278940031712"><ele>350.75</ele><time>2026-04-07T12:01:27Z</time></trkpt><trkpt lat="45.682863521686876" lon="8.581075168283633"><ele>350.5</ele><time>2026-04-07T12:01:28Z</time></trkpt><trkpt lat="45.68287901092317" lon="8.580874015959488"><ele>350.25</ele><time>2026-04-07T12:01:29Z</time></trkpt><trkpt lat="45.68289342232251" lon="8.58067183439827"><ele>350.0</ele><time>2026-04-07T12:01:30Z</time></trkpt><trkpt lat="45.68290752562702" lon="8.580468041484135"><ele>349.5</ele><time>2026-04-07T12:01:31Z</time></trkpt><trkpt lat="45.6829242159511" lon="8.580272258807767"><ele>349.0</ele><time>2026-04-07T12:01:32Z</time></trkpt><trkpt lat="45.6829350474505" lon="8.580059883831401"><ele>348.5</ele><time>2026-04-07T12:01:33Z</time></trkpt><trkpt lat="45.682943250852524" lon="8.579839253480683"><ele>348.0</ele><time>2026-04-07T12:01:34Z</time></trkpt><trkpt lat="45.68295200696904" lon="8.579619510369282"><ele>349.6666666666667</ele><time>2026-04-07T12:01:35Z</time></trkpt><trkpt lat="45.68295640096011" lon="8.579400398710089"><ele>351.33333333333337</ele><time>2026-04-07T12:01:36Z</time></trkpt><trkpt lat="45.68295501874322" lon="8.579169784567526"><ele>353.0</ele><time>2026-04-07T12:01:37Z</time></trkpt><trkpt lat="45.682950488123744" lon="8.578932200065768"><ele>353.0</ele><time>2026-04-07T12:01:38Z</time></trkpt><trkpt lat="45.682940282929266" lon="8.578700136680956"><ele>353.0</ele><time>2026-04-07T12:01:39Z</time></trkpt><trkpt lat="45.68293235198087" lon="8.57846794917195"><ele>353.0</ele><time>2026-04-07T12:01:40Z</time></trkpt><trkpt lat="45.68292736820003" lon="8.578235439460604"><ele>353.0</ele><time>2026-04-07T12:01:41Z</time></trkpt><trkpt lat="45.68292024944462" lon="8.578005311143551"><ele>353.0</ele><time>2026-04-07T12:01:42.001Z</time></trkpt><trkpt lat="45.68291089617052" lon="8.577786461681956"><ele>353.0</ele><time>2026-04-07T12:01:43.001Z</time></trkpt><trkpt lat="45.682905853048865" lon="8.577558483789774"><ele>353.0</ele><time>2026-04-07T12:01:44.001Z</time></trkpt><trkpt lat="45.682904629307004" lon="8.577331361851973"><ele>353.0</ele><time>2026-04-07T12:01:45.001Z</time></trkpt><trkpt lat="45.68290218995265" lon="8.57709192403778"><ele>353.0</ele><time>2026-04-07T12:01:46.001Z</time></trkpt><trkpt lat="45.682903452718314" lon="8.576859303240655"><ele>352.6666666666667</ele><time>2026-04-07T12:01:47.001Z</time></trkpt><trkpt lat="45.682905128985034" lon="8.576632764820417"><ele>352.3333333333333</ele><time>2026-04-07T12:01:48.001Z</time></trkpt><trkpt lat="45.682915584657735" lon="8.576401939476145"><ele>352.0</ele><time>2026-04-07T12:01:49.001Z</time></trkpt><trkpt lat="45.68293270122657" lon="8.576179290211485"><ele>352.0</ele><time>2026-04-07T12:01:50.001Z</time></trkpt><trkpt lat="45.68296587108536" lon="8.575938511515112"><ele>352.0</ele><time>2026-04-07T12:01:51.001Z</time></trkpt><trkpt lat="45.683012106850676" lon="8.575710178412567"><ele>352.0</ele><time>2026-04-07T12:01:52.001Z</time></trkpt><trkpt lat="45.6830621428965" lon="8.575483121606204"><ele>351.66666666666663</ele><time>2026-04-07T12:01:53.001Z</time></trkpt><trkpt lat="45.68310644936831" lon="8.575241590102205"><ele>351.3333333333333</ele><time>2026-04-07T12:01:54.001Z</time></trkpt><trkpt lat="45.68314574757442" lon="8.575001594771388"><ele>351.0</ele><time>2026-04-07T12:01:55.001Z</time></trkpt><trkpt lat="45.68317622238651" lon="8.574754139199625"><ele>352.3333333333333</ele><time>2026-04-07T12:01:56.001Z</time></trkpt><trkpt lat="45.68319982324761" lon="8.574499388189839"><ele>353.66666666666663</ele><time>2026-04-07T12:01:57.001Z</time></trkpt><trkpt lat="45.68321975644603" lon="8.5742534088724"><ele>355.0</ele><time>2026-04-07T12:01:58.001Z</time></trkpt><trkpt lat="45.683243929074294" lon="8.574010756569137"><ele>355.0</ele><time>2026-04-07T12:01:59.001Z</time></trkpt><trkpt lat="45.683269017054776" lon="8.57376789478855"><ele>355.0</ele><time>2026-04-07T12:02:00.001Z</time></trkpt><trkpt lat="45.683292073547484" lon="8.573530975565776"><ele>355.0</ele><time>2026-04-07T12:02:01.001Z</time></trkpt><trkpt lat="45.683315257332794" lon="8.57329356334186"><ele>355.3333333333333</ele><time>2026-04-07T12:02:02.001Z</time></trkpt><trkpt lat="45.68333707741375" lon="8.573058733643354"><ele>355.6666666666667</ele><time>2026-04-07T12:02:03.001Z</time></trkpt><trkpt lat="45.68335897874028" lon="8.572829377041232"><ele>356.0</ele><time>2026-04-07T12:02:04.001Z</time></trkpt><trkpt lat="45.6833792988601" lon="8.572612607708686"><ele>354.6666666666667</ele><time>2026-04-07T12:02:05.001Z</time></trkpt><trkpt lat="45.68339816879099" lon="8.572395061178224"><ele>353.3333333333333</ele><time>2026-04-07T12:02:06.001Z</time></trkpt><trkpt lat="45.683418750625954" lon="8.572173605072575"><ele>352.0</ele><time>2026-04-07T12:02:07.001Z</time></trkpt><trkpt lat="45.683447167084886" lon="8.571960271377467"><ele>351.5</ele><time>2026-04-07T12:02:08.001Z</time></trkpt><trkpt lat="45.68348485251464" lon="8.571767411628706"><ele>351.0</ele><time>2026-04-07T12:02:09.001Z</time></trkpt><trkpt lat="45.68354621948086" lon="8.571571382339139"><ele>350.5</ele><time>2026-04-07T12:02:10.001Z</time></trkpt><trkpt lat="45.683629759958066" lon="8.571388420772566"><ele>350.0</ele><time>2026-04-07T12:02:11.001Z</time></trkpt><trkpt lat="45.68372334222409" lon="8.57121157553668"><ele>352.0</ele><time>2026-04-07T12:02:12.001Z</time></trkpt><trkpt lat="45.68381392758228" lon="8.571030039806377"><ele>354.0</ele><time>2026-04-07T12:02:13.001Z</time></trkpt><trkpt lat="45.683908704044235" lon="8.570826127124096"><ele>356.0</ele><time>2026-04-07T12:02:14.001Z</time></trkpt><trkpt lat="45.68398708594167" lon="8.570625573639298"><ele>356.0</ele><time>2026-04-07T12:02:15.001Z</time></trkpt><trkpt lat="45.68406697862822" lon="8.570415705892103"><ele>356.0</ele><time>2026-04-07T12:02:16.001Z</time></trkpt><trkpt lat="45.684134295585785" lon="8.570201702474206"><ele>356.0</ele><time>2026-04-07T12:02:17.001Z</time></trkpt><trkpt lat="45.68419729341738" lon="8.569980913134076"><ele>356.0</ele><time>2026-04-07T12:02:18.001Z</time></trkpt><trkpt lat="45.68424527903158" lon="8.569751108219835"><ele>356.0</ele><time>2026-04-07T12:02:19.001Z</time></trkpt><trkpt lat="45.68427472666193" lon="8.569520073495454"><ele>356.0</ele><time>2026-04-07T12:02:20.001Z</time></trkpt><trkpt lat="45.68429219996773" lon="8.56928541033341"><ele>356.0</ele><time>2026-04-07T12:02:21.001Z</time></trkpt><trkpt lat="45.684295574488225" lon="8.569062801608826"><ele>356.0</ele><time>2026-04-07T12:02:22.001Z</time></trkpt><trkpt lat="45.68427815410389" lon="8.568847925555264"><ele>356.0</ele><time>2026-04-07T12:02:23.001Z</time></trkpt><trkpt lat="45.684249097359306" lon="8.568647434064365"><ele>355.75</ele><time>2026-04-07T12:02:24.001Z</time></trkpt><trkpt lat="45.68421552548725" lon="8.568457933486945"><ele>355.5</ele><time>2026-04-07T12:02:25.001Z</time></trkpt><trkpt lat="45.68418990805676" lon="8.568266264505905"><ele>355.25</ele><time>2026-04-07T12:02:26.001Z</time></trkpt><trkpt lat="45.68415981265991" lon="8.568078305711486"><ele>355.0</ele><time>2026-04-07T12:02:27.001Z</time></trkpt><trkpt lat="45.68413141925962" lon="8.567897798126015"><ele>355.25</ele><time>2026-04-07T12:02:28.001Z</time></trkpt><trkpt lat="45.68409895723263" lon="8.567730213506875"><ele>355.5</ele><time>2026-04-07T12:02:29.002Z</time></trkpt><trkpt lat="45.68405024978144" lon="8.567584230642947"><ele>355.75</ele><time>2026-04-07T12:02:30.002Z</time></trkpt><trkpt lat="45.68398581728232" lon="8.567455543580321"><ele>356.0</ele><time>2026-04-07T12:02:31.002Z</time></trkpt><trkpt lat="45.683898916006534" lon="8.567339775410591"><ele>356.0</ele><time>2026-04-07T12:02:32.002Z</time></trkpt><trkpt lat="45.683805471741024" lon="8.567231123138328"><ele>356.0</ele><time>2026-04-07T12:02:33.002Z</time></trkpt><trkpt lat="45.68370664299796" lon="8.567119910038587"><ele>356.0</ele><time>2026-04-07T12:02:34.002Z</time></trkpt><trkpt lat="45.68360029711481" lon="8.567009696832868"><ele>356.0</ele><time>2026-04-07T12:02:35.002Z</time></trkpt><trkpt lat="45.68349209573833" lon="8.566894895030407"><ele>354.0</ele><time>2026-04-07T12:02:36.002Z</time></trkpt><trkpt lat="45.68337922510736" lon="8.56677805416227"><ele>352.0</ele><time>2026-04-07T12:02:37.002Z</time></trkpt><trkpt lat="45.68327129227667" lon="8.566666240704976"><ele>350.0</ele><time>2026-04-07T12:02:38.002Z</time></trkpt><trkpt lat="45.6831695768212" lon="8.566555869110399"><ele>348.0</ele><time>2026-04-07T12:02:39.002Z</time></trkpt><trkpt lat="45.6830655240318" lon="8.566441481012498"><ele>348.0</ele><time>2026-04-07T12:02:40.002Z</time></trkpt><trkpt lat="45.68296080394673" lon="8.56632924519802"><ele>348.0</ele><time>2026-04-07T12:02:41.002Z</time></trkpt><trkpt lat="45.682854690066456" lon="8.566216325856042"><ele>348.0</ele><time>2026-04-07T12:02:42.002Z</time></trkpt><trkpt lat="45.68274865430268" lon="8.566096351034789"><ele>348.0</ele><time>2026-04-07T12:02:43.002Z</time></trkpt><trkpt lat="45.68264358931844" lon="8.565970555051127"><ele>346.25</ele><time>2026-04-07T12:02:44.002Z</time></trkpt><trkpt lat="45.68254522539318" lon="8.565837269437434"><ele>344.5</ele><time>2026-04-07T12:02:45.002Z</time></trkpt><trkpt lat="45.682453919494456" lon="8.565695319311118"><ele>342.75</ele><time>2026-04-07T12:02:46.002Z</time></trkpt><trkpt lat="45.682368030133304" lon="8.565552826677283"><ele>341.0</ele><time>2026-04-07T12:02:47.002Z</time></trkpt><trkpt lat="45.68227129875389" lon="8.565414982280076"><ele>341.5</ele><time>2026-04-07T12:02:48.002Z</time></trkpt><trkpt lat="45.68215805807681" lon="8.565308229606579"><ele>342.0</ele><time>2026-04-07T12:02:49.002Z</time></trkpt><trkpt lat="45.68203679005217" lon="8.565216184495222"><ele>342.5</ele><time>2026-04-07T12:02:50.002Z</time></trkpt><trkpt lat="45.68191693612009" lon="8.565120146353655"><ele>343.0</ele><time>2026-04-07T12:02:51.002Z</time></trkpt><trkpt lat="45.68180077686148" lon="8.565009658836312"><ele>342.75</ele><time>2026-04-07T12:02:52.002Z</time></trkpt><trkpt lat="45.68168789893953" lon="8.564889958217824"><ele>342.5</ele><time>2026-04-07T12:02:53.002Z</time></trkpt><trkpt lat="45.68158238752829" lon="8.564764067053416"><ele>342.25</ele><time>2026-04-07T12:02:54.002Z</time></trkpt><trkpt lat="45.68148866130406" lon="8.564644597283452"><ele>342.0</ele><time>2026-04-07T12:02:55.002Z</time></trkpt><trkpt lat="45.68141124843211" lon="8.564527482022738"><ele>342.0</ele><time>2026-04-07T12:02:56.002Z</time></trkpt><trkpt lat="45.68134149226031" lon="8.564403164093516"><ele>342.0</ele><time>2026-04-07T12:02:57.002Z</time></trkpt><trkpt lat="45.681278285493555" lon="8.564272700233552"><ele>342.0</ele><time>2026-04-07T12:02:58.002Z</time></trkpt><trkpt lat="45.68122670378514" lon="8.564132576943896"><ele>342.0</ele><time>2026-04-07T12:02:59.002Z</time></trkpt><trkpt lat="45.681178279817026" lon="8.563980467124281"><ele>342.0</ele><time>2026-04-07T12:03:00.002Z</time></trkpt><trkpt lat="45.68112795779512" lon="8.563823523483414"><ele>342.0</ele><time>2026-04-07T12:03:01.002Z</time></trkpt><trkpt lat="45.68108153235795" lon="8.563657219733745"><ele>342.0</ele><time>2026-04-07T12:03:02.002Z</time></trkpt><trkpt lat="45.681035997470694" lon="8.563485123207165"><ele>342.0</ele><time>2026-04-07T12:03:03.002Z</time></trkpt><trkpt lat="45.680992696098656" lon="8.563304844064112"><ele>341.75</ele><time>2026-04-07T12:03:04.002Z</time></trkpt><trkpt lat="45.68094150818429" lon="8.563136314414193"><ele>341.5</ele><time>2026-04-07T12:03:05.002Z</time></trkpt><trkpt lat="45.68088558102877" lon="8.56296320989584"><ele>341.25</ele><time>2026-04-07T12:03:06.002Z</time></trkpt><trkpt lat="45.680819265263295" lon="8.562800955741672"><ele>341.0</ele><time>2026-04-07T12:03:07Z</time></trkpt><trkpt lat="45.680753992435214" lon="8.562640700171503"><ele>341.0</ele><time>2026-04-07T12:03:08Z</time></trkpt><trkpt lat="45.680683286771185" lon="8.562486037604211"><ele>341.0</ele><time>2026-04-07T12:03:09Z</time></trkpt><trkpt lat="45.68061792358629" lon="8.56232720296404"><ele>341.0</ele><time>2026-04-07T12:03:10Z</time></trkpt><trkpt lat="45.68053828585698" lon="8.562182866878755"><ele>341.0</ele><time>2026-04-07T12:03:11Z</time></trkpt><trkpt lat="45.68045329863331" lon="8.56205218884634"><ele>341.4</ele><time>2026-04-07T12:03:12Z</time></trkpt><trkpt lat="45.68036244812536" lon="8.56193334203594"><ele>341.8</ele><time>2026-04-07T12:03:13Z</time></trkpt><trkpt lat="45.680270230136614" lon="8.561835732285962"><ele>342.2</ele><time>2026-04-07T12:03:14Z</time></trkpt><trkpt lat="45.68018854668977" lon="8.561743137988362"><ele>342.59999999999997</ele><time>2026-04-07T12:03:15Z</time></trkpt><trkpt lat="45.68012133242592" lon="8.561639538802902"><ele>343.0</ele><time>2026-04-07T12:03:16Z</time></trkpt><trkpt lat="45.68006725400875" lon="8.561522430907308"><ele>342.2</ele><time>2026-04-07T12:03:17Z</time></trkpt><trkpt lat="45.680031580087324" lon="8.561396481790906"><ele>341.4</ele><time>2026-04-07T12:03:18Z</time></trkpt><trkpt lat="45.68000076624763" lon="8.561252965342216"><ele>340.59999999999997</ele><time>2026-04-07T12:03:19Z</time></trkpt><trkpt lat="45.679969727713875" lon="8.561105397454766"><ele>339.79999999999995</ele><time>2026-04-07T12:03:19.999Z</time></trkpt><trkpt lat="45.67993011643587" lon="8.56095116578912"><ele>339.0</ele><time>2026-04-07T12:03:20.997Z</time></trkpt><trkpt lat="45.679878554597906" lon="8.560799547867676"><ele>339.0</ele><time>2026-04-07T12:03:21.997Z</time></trkpt><trkpt lat="45.679811897275535" lon="8.560655657755833"><ele>339.0</ele><time>2026-04-07T12:03:22.997Z</time></trkpt><trkpt lat="45.679731321370205" lon="8.560513793983926"><ele>339.0</ele><time>2026-04-07T12:03:23.997Z</time></trkpt><trkpt lat="45.67964210359547" lon="8.560375039905885"><ele>339.0</ele><time>2026-04-07T12:03:24.997Z</time></trkpt><trkpt lat="45.679553085935275" lon="8.560231147709414"><ele>339.0</ele><time>2026-04-07T12:03:25.997Z</time></trkpt><trkpt lat="45.67947033407522" lon="8.560088661158916"><ele>339.0</ele><time>2026-04-07T12:03:26.998Z</time></trkpt><trkpt lat="45.67938705453675" lon="8.559960515821606"><ele>339.0</ele><time>2026-04-07T12:03:27.998Z</time></trkpt><trkpt lat="45.67930415616213" lon="8.559828761890302"><ele>339.0</ele><time>2026-04-07T12:03:28.998Z</time></trkpt><trkpt lat="45.67922055676223" lon="8.559698336141166"><ele>338.5</ele><time>2026-04-07T12:03:29.998Z</time></trkpt><trkpt lat="45.679135966054375" lon="8.559565739550608"><ele>338.0</ele><time>2026-04-07T12:03:30.998Z</time></trkpt><trkpt lat="45.67905366665699" lon="8.559427063119182"><ele>337.5</ele><time>2026-04-07T12:03:31.998Z</time></trkpt><trkpt lat="45.67897095053578" lon="8.5592922806988"><ele>337.0</ele><time>2026-04-07T12:03:32.998Z</time></trkpt><trkpt lat="45.678886447878874" lon="8.559155379740515"><ele>336.75</ele><time>2026-04-07T12:03:33.998Z</time></trkpt><trkpt lat="45.67879926782746" lon="8.559026865293758"><ele>336.5</ele><time>2026-04-07T12:03:34.998Z</time></trkpt><trkpt lat="45.678710273294236" lon="8.558905654543802"><ele>336.25</ele><time>2026-04-07T12:03:35.998Z</time></trkpt><trkpt lat="45.67861951429632" lon="8.558789592717904"><ele>336.0</ele><time>2026-04-07T12:03:36.998Z</time></trkpt><trkpt lat="45.678526680770545" lon="8.558678895015534"><ele>336.0</ele><time>2026-04-07T12:03:37.998Z</time></trkpt><trkpt lat="45.67843559157516" lon="8.558565074999708"><ele>336.0</ele><time>2026-04-07T12:03:38.998Z</time></trkpt><trkpt lat="45.678342820509066" lon="8.55844956024199"><ele>336.0</ele><time>2026-04-07T12:03:39.998Z</time></trkpt><trkpt lat="45.678244746687284" lon="8.55833220570187"><ele>336.0</ele><time>2026-04-07T12:03:40.998Z</time></trkpt><trkpt lat="45.678143964603244" lon="8.558216459527422"><ele>336.0</ele><time>2026-04-07T12:03:41.998Z</time></trkpt><trkpt lat="45.67804251284968" lon="8.55810862848207"><ele>336.0</ele><time>2026-04-07T12:03:42.998Z</time></trkpt><trkpt lat="45.67794096321661" lon="8.55799816440851"><ele>336.0</ele><time>2026-04-07T12:03:43.998Z</time></trkpt><trkpt lat="45.67784146166893" lon="8.557881619982938"><ele>336.0</ele><time>2026-04-07T12:03:44.998Z</time></trkpt><trkpt lat="45.6777452012072" lon="8.55776664689494"><ele>335.0</ele><time>2026-04-07T12:03:45.998Z</time></trkpt><trkpt lat="45.67764983585041" lon="8.557648794055378"><ele>334.0</ele><time>2026-04-07T12:03:46.998Z</time></trkpt><trkpt lat="45.67755668706509" lon="8.557527166858302"><ele>333.0</ele><time>2026-04-07T12:03:47.998Z</time></trkpt><trkpt lat="45.67745937247892" lon="8.557410130546863"><ele>332.0</ele><time>2026-04-07T12:03:48.998Z</time></trkpt><trkpt lat="45.67736170998515" lon="8.557300904034104"><ele>332.0</ele><time>2026-04-07T12:03:49.998Z</time></trkpt><trkpt lat="45.67726815306802" lon="8.557201735124472"><ele>332.0</ele><time>2026-04-07T12:03:50.998Z</time></trkpt><trkpt lat="45.677177977473455" lon="8.557107667410852"><ele>332.0</ele><time>2026-04-07T12:03:51.998Z</time></trkpt><trkpt lat="45.67709565337572" lon="8.557006421486617"><ele>332.0</ele><time>2026-04-07T12:03:52.998Z</time></trkpt><trkpt lat="45.67701780456022" lon="8.556904931353982"><ele>332.0</ele><time>2026-04-07T12:03:53.998Z</time></trkpt><trkpt lat="45.676948103459154" lon="8.556819300040031"><ele>332.0</ele><time>2026-04-07T12:03:54.998Z</time></trkpt><trkpt lat="45.67688348812703" lon="8.556735861578657"><ele>332.0</ele><time>2026-04-07T12:03:55.999Z</time></trkpt><trkpt lat="45.67683957181526" lon="8.5566687718006"><ele>332.0</ele><time>2026-04-07T12:03:56.999Z</time></trkpt><trkpt lat="45.67681220144324" lon="8.556559873108275"><ele>332.0</ele><time>2026-04-07T12:03:58.999Z</time></trkpt><trkpt lat="45.67682112590846" lon="8.55640143127292"><ele>332.0</ele><time>2026-04-07T12:04:00.999Z</time></trkpt><trkpt lat="45.67683304959744" lon="8.556300036009208"><ele>332.0</ele><time>2026-04-07T12:04:01.999Z</time></trkpt><trkpt lat="45.67684400706479" lon="8.556179337521408"><ele>331.8</ele><time>2026-04-07T12:04:02.999Z</time></trkpt><trkpt lat="45.67685680267916" lon="8.556055358015872"><ele>331.6</ele><time>2026-04-07T12:04:03.999Z</time></trkpt><trkpt lat="45.676869928461436" lon="8.555926301956264"><ele>331.40000000000003</ele><time>2026-04-07T12:04:04.999Z</time></trkpt><trkpt lat="45.67688441421449" lon="8.555775172617262"><ele>331.20000000000005</ele><time>2026-04-07T12:04:05.999Z</time></trkpt><trkpt lat="45.67689989201253" lon="8.555612994856519"><ele>331.0</ele><time>2026-04-07T12:04:06.999Z</time></trkpt><trkpt lat="45.676918850828905" lon="8.555464622080418"><ele>331.0</ele><time>2026-04-07T12:04:07.999Z</time></trkpt><trkpt lat="45.67694094612519" lon="8.555316923774066"><ele>331.0</ele><time>2026-04-07T12:04:08.999Z</time></trkpt><trkpt lat="45.67695875967532" lon="8.555165403472106"><ele>331.0</ele><time>2026-04-07T12:04:09.999Z</time></trkpt><trkpt lat="45.676976586631035" lon="8.554835659094417"><ele>331.0</ele><time>2026-04-07T12:04:11.999Z</time></trkpt><trkpt lat="45.676976006955286" lon="8.554672301288866"><ele>330.75</ele><time>2026-04-07T12:04:12.999Z</time></trkpt><trkpt lat="45.67696467074541" lon="8.554507830981898"><ele>330.5</ele><time>2026-04-07T12:04:13.999Z</time></trkpt><trkpt lat="45.676947582159904" lon="8.554337753358363"><ele>330.25</ele><time>2026-04-07T12:04:14.999Z</time></trkpt><trkpt lat="45.67692699962071" lon="8.554169425504016"><ele>330.0</ele><time>2026-04-07T12:04:15.999Z</time></trkpt><trkpt lat="45.67690124874435" lon="8.554004037029717"><ele>330.0</ele><time>2026-04-07T12:04:16.999Z</time></trkpt><trkpt lat="45.67687907263449" lon="8.553833475202747"><ele>330.0</ele><time>2026-04-07T12:04:17.999Z</time></trkpt><trkpt lat="45.676848274817445" lon="8.553697079720504"><ele>330.0</ele><time>2026-04-07T12:04:19Z</time></trkpt><trkpt lat="45.67681831976757" lon="8.553579225879464"><ele>330.0</ele><time>2026-04-07T12:04:21Z</time></trkpt><trkpt lat="45.67679341490835" lon="8.553486083823609"><ele>330.0</ele><time>2026-04-07T12:04:23Z</time></trkpt><trkpt lat="45.67675874122422" lon="8.553324860303865"><ele>330.8</ele><time>2026-04-07T12:04:25Z</time></trkpt><trkpt lat="45.67673326083774" lon="8.553157560150646"><ele>331.6</ele><time>2026-04-07T12:04:27Z</time></trkpt><trkpt lat="45.67671896907302" lon="8.553030425505522"><ele>332.4</ele><time>2026-04-07T12:04:29.001Z</time></trkpt><trkpt lat="45.67673923574104" lon="8.552942963394049"><ele>333.2</ele><time>2026-04-07T12:04:32.001Z</time></trkpt><trkpt lat="45.676760225265106" lon="8.552823408534353"><ele>334.0</ele><time>2026-04-07T12:04:59.002Z</time></trkpt><trkpt lat="45.67687327924977" lon="8.552781387573729"><ele>334.66666666666663</ele><time>2026-04-07T12:05:01.002Z</time></trkpt><trkpt lat="45.676939636791786" lon="8.552798230957395"><ele>335.3333333333333</ele><time>2026-04-07T12:05:02.002Z</time></trkpt><trkpt lat="45.67701319851407" lon="8.552795248836237"><ele>336.0</ele><time>2026-04-07T12:05:03.002Z</time></trkpt><trkpt lat="45.677100857693596" lon="8.552784148678972"><ele>336.6666666666667</ele><time>2026-04-07T12:05:04.002Z</time></trkpt><trkpt lat="45.67718328862455" lon="8.552772723243491"><ele>337.33333333333337</ele><time>2026-04-07T12:05:05.002Z</time></trkpt><trkpt lat="45.677261332710856" lon="8.552754568183294"><ele>338.0</ele><time>2026-04-07T12:05:06.002Z</time></trkpt><trkpt lat="45.67735610134229" lon="8.552756881000276"><ele>338.0</ele><time>2026-04-07T12:05:07.002Z</time></trkpt><trkpt lat="45.677448151935295" lon="8.552766832580108"><ele>338.0</ele><time>2026-04-07T12:05:08.002Z</time></trkpt><trkpt lat="45.67755257134251" lon="8.552812927049855"><ele>338.0</ele><time>2026-04-07T12:05:09.002Z</time></trkpt><trkpt lat="45.67764976380396" lon="8.55285076289024"><ele>338.0</ele><time>2026-04-07T12:05:10.002Z</time></trkpt><trkpt lat="45.677751530119416" lon="8.552897568546506"><ele>338.0</ele><time>2026-04-07T12:05:11.002Z</time></trkpt><trkpt lat="45.67784469367305" lon="8.552946277623684"><ele>338.4</ele><time>2026-04-07T12:05:12.002Z</time></trkpt><trkpt lat="45.67794141905107" lon="8.552997364417772"><ele>338.79999999999995</ele><time>2026-04-07T12:05:13Z</time></trkpt><trkpt lat="45.678026079862576" lon="8.553017962259887"><ele>339.2</ele><time>2026-04-07T12:05:14Z</time></trkpt><trkpt lat="45.67812181201024" lon="8.553066708524371"><ele>339.6</ele><time>2026-04-07T12:05:15Z</time></trkpt><trkpt lat="45.67823280796749" lon="8.553085857753217"><ele>340.0</ele><time>2026-04-07T12:05:16Z</time></trkpt><trkpt lat="45.67834620701153" lon="8.553127092264337"><ele>340.0</ele><time>2026-04-07T12:05:17Z</time></trkpt><trkpt lat="45.6784556256374" lon="8.553162489824496"><ele>340.0</ele><time>2026-04-07T12:05:18Z</time></trkpt><trkpt lat="45.678564880436745" lon="8.553207135361522"><ele>340.0</ele><time>2026-04-07T12:05:19Z</time></trkpt><trkpt lat="45.678664907699314" lon="8.55324037960984"><ele>340.0</ele><time>2026-04-07T12:05:20Z</time></trkpt><trkpt lat="45.67876491058622" lon="8.553274919199637"><ele>340.0</ele><time>2026-04-07T12:05:21Z</time></trkpt><trkpt lat="45.67886085170756" lon="8.553306123542917"><ele>340.2</ele><time>2026-04-07T12:05:22Z</time></trkpt><trkpt lat="45.67896050497766" lon="8.553348364961726"><ele>340.4</ele><time>2026-04-07T12:05:23Z</time></trkpt><trkpt lat="45.67906308933314" lon="8.553380266678342"><ele>340.6</ele><time>2026-04-07T12:05:24Z</time></trkpt><trkpt lat="45.67916159029981" lon="8.553417459952588"><ele>340.8</ele><time>2026-04-07T12:05:25Z</time></trkpt><trkpt lat="45.67926771008767" lon="8.553463193663015"><ele>341.0</ele><time>2026-04-07T12:05:26Z</time></trkpt><trkpt lat="45.679373241129774" lon="8.553506673698294"><ele>341.25</ele><time>2026-04-07T12:05:27Z</time></trkpt><trkpt lat="45.67948431706527" lon="8.553552057103754"><ele>341.5</ele><time>2026-04-07T12:05:28Z</time></trkpt><trkpt lat="45.67960731001589" lon="8.553591227231806"><ele>341.75</ele><time>2026-04-07T12:05:29Z</time></trkpt><trkpt lat="45.679741079879534" lon="8.553632545196265"><ele>342.0</ele><time>2026-04-07T12:05:30Z</time></trkpt><trkpt lat="45.67987714320532" lon="8.55367258441552"><ele>342.0</ele><time>2026-04-07T12:05:31Z</time></trkpt><trkpt lat="45.680017509496736" lon="8.553699004635789"><ele>342.0</ele><time>2026-04-07T12:05:32Z</time></trkpt><trkpt lat="45.6801571074223" lon="8.553724204454133"><ele>342.0</ele><time>2026-04-07T12:05:33Z</time></trkpt><trkpt lat="45.68029760338682" lon="8.55375088458642"><ele>342.0</ele><time>2026-04-07T12:05:34Z</time></trkpt><trkpt lat="45.680437132400144" lon="8.553778015134503"><ele>341.5</ele><time>2026-04-07T12:05:35Z</time></trkpt><trkpt lat="45.68057297168356" lon="8.553808300011505"><ele>341.0</ele><time>2026-04-07T12:05:36Z</time></trkpt><trkpt lat="45.680707901684514" lon="8.553843253570907"><ele>340.5</ele><time>2026-04-07T12:05:37Z</time></trkpt><trkpt lat="45.68083577700358" lon="8.553882728931244"><ele>340.0</ele><time>2026-04-07T12:05:38Z</time></trkpt><trkpt lat="45.68096681609723" lon="8.553938685704718"><ele>340.66666666666663</ele><time>2026-04-07T12:05:39Z</time></trkpt><trkpt lat="45.68110003428253" lon="8.55401606610015"><ele>341.3333333333333</ele><time>2026-04-07T12:05:40Z</time></trkpt><trkpt lat="45.681244711133964" lon="8.554111748618727"><ele>342.0</ele><time>2026-04-07T12:05:41Z</time></trkpt><trkpt lat="45.68139328416503" lon="8.55420849313723"><ele>342.0</ele><time>2026-04-07T12:05:42Z</time></trkpt><trkpt lat="45.68155524652766" lon="8.554313125109182"><ele>342.0</ele><time>2026-04-07T12:05:43Z</time></trkpt><trkpt lat="45.681725372931915" lon="8.554420887708032"><ele>342.0</ele><time>2026-04-07T12:05:44Z</time></trkpt><trkpt lat="45.68190009379727" lon="8.554536301892632"><ele>343.6666666666667</ele><time>2026-04-07T12:05:45Z</time></trkpt><trkpt lat="45.68206048969752" lon="8.55464324410849"><ele>345.33333333333337</ele><time>2026-04-07T12:05:46Z</time></trkpt><trkpt lat="45.68221420330554" lon="8.554743489001702"><ele>347.0</ele><time>2026-04-07T12:05:47.001Z</time></trkpt><trkpt lat="45.682364998159755" lon="8.554843261075458"><ele>347.0</ele><time>2026-04-07T12:05:48.001Z</time></trkpt><trkpt lat="45.682518021041176" lon="8.554942932447123"><ele>347.0</ele><time>2026-04-07T12:05:49.001Z</time></trkpt><trkpt lat="45.68267064281562" lon="8.555044603851885"><ele>347.0</ele><time>2026-04-07T12:05:50.001Z</time></trkpt><trkpt lat="45.68282810036557" lon="8.555149084459359"><ele>346.6666666666667</ele><time>2026-04-07T12:05:51.001Z</time></trkpt><trkpt lat="45.68298585661282" lon="8.555247776256925"><ele>346.3333333333333</ele><time>2026-04-07T12:05:52.001Z</time></trkpt><trkpt lat="45.68314406754017" lon="8.55535007114656"><ele>346.0</ele><time>2026-04-07T12:05:53.001Z</time></trkpt><trkpt lat="45.68329506438359" lon="8.555451514401044"><ele>346.0</ele><time>2026-04-07T12:05:54.001Z</time></trkpt><trkpt lat="45.683454180453154" lon="8.555557108721338"><ele>346.0</ele><time>2026-04-07T12:05:55.001Z</time></trkpt><trkpt lat="45.68360011318654" lon="8.555678419725352"><ele>346.0</ele><time>2026-04-07T12:05:56.001Z</time></trkpt><trkpt lat="45.6837318306462" lon="8.555824346662185"><ele>347.3333333333333</ele><time>2026-04-07T12:05:57.001Z</time></trkpt><trkpt lat="45.683850155707646" lon="8.555997920699955"><ele>348.6666666666667</ele><time>2026-04-07T12:05:58.001Z</time></trkpt><trkpt lat="45.683954697420496" lon="8.55619086284285"><ele>350.0</ele><time>2026-04-07T12:05:59.001Z</time></trkpt><trkpt lat="45.68405345896359" lon="8.556393406708844"><ele>351.33333333333337</ele><time>2026-04-07T12:06:00.001Z</time></trkpt><trkpt lat="45.68415163756177" lon="8.55660092669034"><ele>352.6666666666667</ele><time>2026-04-07T12:06:01.001Z</time></trkpt><trkpt lat="45.68426077482879" lon="8.556791745885347"><ele>354.0</ele><time>2026-04-07T12:06:02.001Z</time></trkpt><trkpt lat="45.684391256898756" lon="8.556968763439983"><ele>356.3333333333333</ele><time>2026-04-07T12:06:03.001Z</time></trkpt><trkpt lat="45.68453005937327" lon="8.557130064945188"><ele>358.66666666666663</ele><time>2026-04-07T12:06:04.001Z</time></trkpt><trkpt lat="45.68467336281728" lon="8.557293310521388"><ele>361.0</ele><time>2026-04-07T12:06:05.001Z</time></trkpt><trkpt lat="45.68481768373129" lon="8.557454675574505"><ele>361.0</ele><time>2026-04-07T12:06:06.001Z</time></trkpt><trkpt lat="45.68496093222899" lon="8.557603085871525"><ele>361.0</ele><time>2026-04-07T12:06:07.001Z</time></trkpt><trkpt lat="45.6851127526562" lon="8.557746114371975"><ele>361.0</ele><time>2026-04-07T12:06:08.001Z</time></trkpt><trkpt lat="45.68527385889882" lon="8.557866703093525"><ele>361.0</ele><time>2026-04-07T12:06:09.001Z</time></trkpt><trkpt lat="45.68544363342856" lon="8.55796617949878"><ele>361.0</ele><time>2026-04-07T12:06:10.001Z</time></trkpt><trkpt lat="45.685617766129766" lon="8.558044114796562"><ele>361.0</ele><time>2026-04-07T12:06:11.001Z</time></trkpt><trkpt lat="45.68579119334672" lon="8.558116233561178"><ele>361.0</ele><time>2026-04-07T12:06:12.001Z</time></trkpt><trkpt lat="45.68595918179333" lon="8.558179175181818"><ele>361.0</ele><time>2026-04-07T12:06:13.001Z</time></trkpt><trkpt lat="45.686121504357104" lon="8.558237027572288"><ele>361.0</ele><time>2026-04-07T12:06:14.001Z</time></trkpt><trkpt lat="45.68627532154537" lon="8.558294211862927"><ele>359.75</ele><time>2026-04-07T12:06:15.001Z</time></trkpt><trkpt lat="45.68641820453098" lon="8.55834141810866"><ele>358.5</ele><time>2026-04-07T12:06:16.001Z</time></trkpt><trkpt lat="45.68656001243176" lon="8.558358506842334"><ele>357.25</ele><time>2026-04-07T12:06:17.001Z</time></trkpt><trkpt lat="45.68669276819022" lon="8.558319512183537"><ele>356.0</ele><time>2026-04-07T12:06:18.001Z</time></trkpt><trkpt lat="45.68681593610465" lon="8.55824500906829"><ele>356.0</ele><time>2026-04-07T12:06:19.001Z</time></trkpt><trkpt lat="45.68691651849921" lon="8.558131032454932"><ele>356.0</ele><time>2026-04-07T12:06:20.001Z</time></trkpt><trkpt lat="45.68699797295778" lon="8.557974950678908"><ele>356.0</ele><time>2026-04-07T12:06:21.001Z</time></trkpt><trkpt lat="45.687064594481114" lon="8.557792550611735"><ele>356.0</ele><time>2026-04-07T12:06:22.001Z</time></trkpt><trkpt lat="45.687128033781704" lon="8.55758716033322"><ele>354.6666666666667</ele><time>2026-04-07T12:06:23.001Z</time></trkpt><trkpt lat="45.68719670415879" lon="8.557374582409153"><ele>353.3333333333333</ele><time>2026-04-07T12:06:24.001Z</time></trkpt><trkpt lat="45.68727169092479" lon="8.55717639924386"><ele>352.0</ele><time>2026-04-07T12:06:25.001Z</time></trkpt><trkpt lat="45.687352474480306" lon="8.556959464817961"><ele>351.66666666666663</ele><time>2026-04-07T12:06:26.001Z</time></trkpt><trkpt lat="45.68742608137831" lon="8.556740693608104"><ele>351.3333333333333</ele><time>2026-04-07T12:06:27.001Z</time></trkpt><trkpt lat="45.68750813023327" lon="8.556512143419068"><ele>351.0</ele><time>2026-04-07T12:06:28.001Z</time></trkpt><trkpt lat="45.687584870283395" lon="8.556279747354763"><ele>351.0</ele><time>2026-04-07T12:06:29.001Z</time></trkpt><trkpt lat="45.6876650973673" lon="8.55604962615967"><ele>351.0</ele><time>2026-04-07T12:06:30.001Z</time></trkpt><trkpt lat="45.687739640994536" lon="8.55582930833313"><ele>351.0</ele><time>2026-04-07T12:06:31.001Z</time></trkpt><trkpt lat="45.68782236570009" lon="8.555620162539492"><ele>351.0</ele><time>2026-04-07T12:06:32.001Z</time></trkpt><trkpt lat="45.6879148659121" lon="8.555417499338303"><ele>351.0</ele><time>2026-04-07T12:06:33.002Z</time></trkpt><trkpt lat="45.688019365233416" lon="8.555228446293597"><ele>351.0</ele><time>2026-04-07T12:06:34.002Z</time></trkpt><trkpt lat="45.68813914667133" lon="8.555059287230607"><ele>351.0</ele><time>2026-04-07T12:06:35.002Z</time></trkpt><trkpt lat="45.6882757310254" lon="8.554900778565758"><ele>351.0</ele><time>2026-04-07T12:06:36.002Z</time></trkpt><trkpt lat="45.688418954725854" lon="8.554751779995378"><ele>351.0</ele><time>2026-04-07T12:06:37.002Z</time></trkpt><trkpt lat="45.688563824809215" lon="8.554608165812951"><ele>353.6666666666667</ele><time>2026-04-07T12:06:38.002Z</time></trkpt><trkpt lat="45.68870256804969" lon="8.554468243494629"><ele>356.33333333333337</ele><time>2026-04-07T12:06:39.002Z</time></trkpt><trkpt lat="45.688829914712045" lon="8.554340242441125"><ele>359.0</ele><time>2026-04-07T12:06:40.002Z</time></trkpt><trkpt lat="45.688940007278205" lon="8.554228205682897"><ele>359.0</ele><time>2026-04-07T12:06:41.002Z</time></trkpt><trkpt lat="45.689041115063674" lon="8.55412550651218"><ele>359.0</ele><time>2026-04-07T12:06:42.002Z</time></trkpt><trkpt lat="45.68913958806168" lon="8.554026597961743"><ele>359.0</ele><time>2026-04-07T12:06:43.002Z</time></trkpt><trkpt lat="45.68923782761498" lon="8.553947065435299"><ele>359.0</ele><time>2026-04-07T12:06:44.002Z</time></trkpt><trkpt lat="45.68933221370754" lon="8.553894064481465"><ele>358.75</ele><time>2026-04-07T12:06:45.002Z</time></trkpt><trkpt lat="45.68942972213687" lon="8.553879119423598"><ele>358.5</ele><time>2026-04-07T12:06:46.002Z</time></trkpt><trkpt lat="45.68954443514094" lon="8.553878440926347"><ele>358.25</ele><time>2026-04-07T12:06:47.002Z</time></trkpt><trkpt lat="45.6896646295579" lon="8.553893647232398"><ele>358.0</ele><time>2026-04-07T12:06:48.002Z</time></trkpt><trkpt lat="45.68978950543029" lon="8.553912960086596"><ele>358.0</ele><time>2026-04-07T12:06:49.002Z</time></trkpt><trkpt lat="45.68992357430553" lon="8.553931934845638"><ele>358.0</ele><time>2026-04-07T12:06:50.002Z</time></trkpt><trkpt lat="45.690066147718916" lon="8.553967719199255"><ele>358.0</ele><time>2026-04-07T12:06:51.002Z</time></trkpt><trkpt lat="45.6902123903595" lon="8.554001259287583"><ele>358.0</ele><time>2026-04-07T12:06:52.002Z</time></trkpt><trkpt lat="45.69035316642511" lon="8.554029907596648"><ele>357.25</ele><time>2026-04-07T12:06:53.002Z</time></trkpt><trkpt lat="45.6904923853709" lon="8.554057488367157"><ele>356.5</ele><time>2026-04-07T12:06:54.002Z</time></trkpt><trkpt lat="45.69062935510536" lon="8.554074853629045"><ele>355.75</ele><time>2026-04-07T12:06:55.002Z</time></trkpt><trkpt lat="45.69076163396025" lon="8.554063023282298"><ele>355.0</ele><time>2026-04-07T12:06:56.002Z</time></trkpt><trkpt lat="45.69088720030721" lon="8.554012221955048"><ele>355.0</ele><time>2026-04-07T12:06:57.002Z</time></trkpt><trkpt lat="45.691006443453794" lon="8.5539370624654"><ele>355.0</ele><time>2026-04-07T12:06:58.002Z</time></trkpt><trkpt lat="45.691108431022236" lon="8.553824971222056"><ele>355.0</ele><time>2026-04-07T12:06:59.002Z</time></trkpt><trkpt lat="45.69118375529581" lon="8.553704641156697"><ele>355.0</ele><time>2026-04-07T12:07:00.002Z</time></trkpt><trkpt lat="45.69124106164898" lon="8.553552070970866"><ele>354.25</ele><time>2026-04-07T12:07:01.002Z</time></trkpt><trkpt lat="45.69128677546977" lon="8.553370620015055"><ele>353.5</ele><time>2026-04-07T12:07:02.002Z</time></trkpt><trkpt lat="45.69134025211099" lon="8.553184073232098"><ele>352.75</ele><time>2026-04-07T12:07:03.002Z</time></trkpt><trkpt lat="45.69140393140093" lon="8.553003639455095"><ele>352.0</ele><time>2026-04-07T12:07:04.002Z</time></trkpt><trkpt lat="45.69147035877833" lon="8.552834196041921"><ele>352.0</ele><time>2026-04-07T12:07:05.002Z</time></trkpt><trkpt lat="45.69153971489218" lon="8.552688107362394"><ele>352.0</ele><time>2026-04-07T12:07:06.002Z</time></trkpt><trkpt lat="45.691611830747675" lon="8.552559030386586"><ele>352.0</ele><time>2026-04-07T12:07:07.002Z</time></trkpt><trkpt lat="45.69167652817966" lon="8.552461353194154"><ele>352.0</ele><time>2026-04-07T12:07:08.002Z</time></trkpt><trkpt lat="45.691738204809475" lon="8.552397929410992"><ele>352.0</ele><time>2026-04-07T12:07:09.002Z</time></trkpt><trkpt lat="45.691809730413425" lon="8.552349994191271"><ele>352.0</ele><time>2026-04-07T12:07:10.002Z</time></trkpt><trkpt lat="45.6918952455037" lon="8.552324643836847"><ele>352.0</ele><time>2026-04-07T12:07:11.002Z</time></trkpt><trkpt lat="45.69199513023311" lon="8.55232599434876"><ele>352.0</ele><time>2026-04-07T12:07:12.002Z</time></trkpt><trkpt lat="45.692104151184594" lon="8.552301651853753"><ele>352.0</ele><time>2026-04-07T12:07:13.002Z</time></trkpt><trkpt lat="45.69222692645432" lon="8.552269044236958"><ele>352.0</ele><time>2026-04-07T12:07:14.002Z</time></trkpt><trkpt lat="45.69235266038993" lon="8.552227021355572"><ele>353.0</ele><time>2026-04-07T12:07:15.002Z</time></trkpt><trkpt lat="45.69246433632263" lon="8.552196445348155"><ele>354.0</ele><time>2026-04-07T12:07:16.002Z</time></trkpt><trkpt lat="45.692576256154496" lon="8.55215253563238"><ele>355.0</ele><time>2026-04-07T12:07:17.002Z</time></trkpt><trkpt lat="45.692703355065554" lon="8.552130723038557"><ele>356.0</ele><time>2026-04-07T12:07:18.002Z</time></trkpt><trkpt lat="45.69282593412761" lon="8.55212344799031"><ele>356.25</ele><time>2026-04-07T12:07:19Z</time></trkpt><trkpt lat="45.692938557984924" lon="8.552088267819796"><ele>356.5</ele><time>2026-04-07T12:07:20Z</time></trkpt><trkpt lat="45.693046791785704" lon="8.552047490181641"><ele>356.75</ele><time>2026-04-07T12:07:21Z</time></trkpt><trkpt lat="45.693151581312904" lon="8.551969283023698"><ele>357.0</ele><time>2026-04-07T12:07:22Z</time></trkpt><trkpt lat="45.69325456755751" lon="8.551859760120962"><ele>357.25</ele><time>2026-04-07T12:07:23Z</time></trkpt><trkpt lat="45.69336745862379" lon="8.551762826275805"><ele>357.5</ele><time>2026-04-07T12:07:24Z</time></trkpt><trkpt lat="45.69347492421808" lon="8.551655832832255"><ele>357.75</ele><time>2026-04-07T12:07:25Z</time></trkpt><trkpt lat="45.69359109369701" lon="8.55155787644519"><ele>358.0</ele><time>2026-04-07T12:07:26Z</time></trkpt><trkpt lat="45.69370373273323" lon="8.55145739330011"><ele>357.25</ele><time>2026-04-07T12:07:27Z</time></trkpt><trkpt lat="45.69381594939377" lon="8.551364602826617"><ele>356.5</ele><time>2026-04-07T12:07:28Z</time></trkpt><trkpt lat="45.693928444377725" lon="8.55128351216549"><ele>355.75</ele><time>2026-04-07T12:07:29Z</time></trkpt><trkpt lat="45.69404398101844" lon="8.551234259315615"><ele>355.0</ele><time>2026-04-07T12:07:30Z</time></trkpt><trkpt lat="45.694162441775376" lon="8.551216918594811"><ele>355.0</ele><time>2026-04-07T12:07:31Z</time></trkpt><trkpt lat="45.694283324915595" lon="8.551238217977007"><ele>355.0</ele><time>2026-04-07T12:07:32Z</time></trkpt><trkpt lat="45.69440429578714" lon="8.55129489133992"><ele>355.0</ele><time>2026-04-07T12:07:33Z</time></trkpt><trkpt lat="45.69452706503495" lon="8.551376148891567"><ele>355.0</ele><time>2026-04-07T12:07:34Z</time></trkpt><trkpt lat="45.69465835554014" lon="8.551456576347247"><ele>354.5</ele><time>2026-04-07T12:07:35Z</time></trkpt><trkpt lat="45.694803973694725" lon="8.551539719262065"><ele>354.0</ele><time>2026-04-07T12:07:36Z</time></trkpt><trkpt lat="45.69494728741381" lon="8.55161363362292"><ele>353.5</ele><time>2026-04-07T12:07:37Z</time></trkpt><trkpt lat="45.69507710730002" lon="8.551677332882786"><ele>353.0</ele><time>2026-04-07T12:07:38Z</time></trkpt><trkpt lat="45.695201462091795" lon="8.551749758097484"><ele>352.75</ele><time>2026-04-07T12:07:39Z</time></trkpt><trkpt lat="45.69532004308666" lon="8.551812923556131"><ele>352.5</ele><time>2026-04-07T12:07:40Z</time></trkpt><trkpt lat="45.6954311012387" lon="8.551866830993482"><ele>352.25</ele><time>2026-04-07T12:07:41Z</time></trkpt><trkpt lat="45.69553366956993" lon="8.551933852512025"><ele>352.0</ele><time>2026-04-07T12:07:42Z</time></trkpt><trkpt lat="45.695632836354086" lon="8.551997637691773"><ele>352.25</ele><time>2026-04-07T12:07:43Z</time></trkpt><trkpt lat="45.69572932654398" lon="8.552048689767066"><ele>352.5</ele><time>2026-04-07T12:07:44Z</time></trkpt><trkpt lat="45.6958320090472" lon="8.552105440027328"><ele>352.75</ele><time>2026-04-07T12:07:45Z</time></trkpt><trkpt lat="45.6959447324045" lon="8.552166828092435"><ele>353.0</ele><time>2026-04-07T12:07:46Z</time></trkpt><trkpt lat="45.69606043672375" lon="8.55222292329948"><ele>353.4</ele><time>2026-04-07T12:07:47Z</time></trkpt><trkpt lat="45.696165622357135" lon="8.552284504819566"><ele>353.79999999999995</ele><time>2026-04-07T12:07:48.001Z</time></trkpt><trkpt lat="45.69626489429883" lon="8.552349253172842"><ele>354.2</ele><time>2026-04-07T12:07:49.001Z</time></trkpt><trkpt lat="45.69636078852597" lon="8.552410897718813"><ele>354.6</ele><time>2026-04-07T12:07:50.001Z</time></trkpt><trkpt lat="45.696458631577606" lon="8.552450424083558"><ele>355.0</ele><time>2026-04-07T12:07:51.001Z</time></trkpt><trkpt lat="45.6965717079588" lon="8.552449061997663"><ele>355.0</ele><time>2026-04-07T12:07:52.001Z</time></trkpt><trkpt lat="45.69669205852608" lon="8.552418142164873"><ele>355.0</ele><time>2026-04-07T12:07:53.001Z</time></trkpt><trkpt lat="45.69682063662632" lon="8.552376060947482"><ele>355.0</ele><time>2026-04-07T12:07:54.001Z</time></trkpt><trkpt lat="45.69695988459327" lon="8.552343564002005"><ele>355.0</ele><time>2026-04-07T12:07:55.001Z</time></trkpt><trkpt lat="45.697107594340274" lon="8.552318517759984"><ele>357.0</ele><time>2026-04-07T12:07:56.001Z</time></trkpt><trkpt lat="45.697263127741024" lon="8.552302100268864"><ele>359.0</ele><time>2026-04-07T12:07:57.001Z</time></trkpt><trkpt lat="45.69742866724231" lon="8.55229029221915"><ele>361.0</ele><time>2026-04-07T12:07:58.001Z</time></trkpt><trkpt lat="45.697598024317834" lon="8.552294098489035"><ele>362.66666666666663</ele><time>2026-04-07T12:07:59.001Z</time></trkpt><trkpt lat="45.697774865262396" lon="8.552311763628571"><ele>364.3333333333333</ele><time>2026-04-07T12:08:00.001Z</time></trkpt><trkpt lat="45.69794943169608" lon="8.552333754420111"><ele>366.0</ele><time>2026-04-07T12:08:01.001Z</time></trkpt><trkpt lat="45.69812733048841" lon="8.552355659609315"><ele>366.0</ele><time>2026-04-07T12:08:02.001Z</time></trkpt><trkpt lat="45.698303250437895" lon="8.552383704705411"><ele>366.0</ele><time>2026-04-07T12:08:03.001Z</time></trkpt><trkpt lat="45.69847474074487" lon="8.552414904928773"><ele>366.0</ele><time>2026-04-07T12:08:04.001Z</time></trkpt><trkpt lat="45.698642219615884" lon="8.552468425109582"><ele>367.3333333333333</ele><time>2026-04-07T12:08:05.001Z</time></trkpt><trkpt lat="45.69879718216652" lon="8.552545105537918"><ele>368.66666666666663</ele><time>2026-04-07T12:08:06.001Z</time></trkpt><trkpt lat="45.69894963953872" lon="8.552650337494786"><ele>370.0</ele><time>2026-04-07T12:08:07.001Z</time></trkpt><trkpt lat="45.699109183260475" lon="8.552752572521232"><ele>370.0</ele><time>2026-04-07T12:08:08.001Z</time></trkpt><trkpt lat="45.69927358819071" lon="8.552820754420976"><ele>370.0</ele><time>2026-04-07T12:08:09.001Z</time></trkpt><trkpt lat="45.69944511847611" lon="8.552839741729539"><ele>370.0</ele><time>2026-04-07T12:08:10.001Z</time></trkpt><trkpt lat="45.69962437052735" lon="8.55281800854935"><ele>368.3333333333333</ele><time>2026-04-07T12:08:11.001Z</time></trkpt><trkpt lat="45.69980577317881" lon="8.552772034970936"><ele>366.6666666666667</ele><time>2026-04-07T12:08:12.001Z</time></trkpt><trkpt lat="45.69999947183378" lon="8.552736366908425"><ele>365.0</ele><time>2026-04-07T12:08:13.001Z</time></trkpt><trkpt lat="45.70018488632649" lon="8.552706337597995"><ele>365.33333333333337</ele><time>2026-04-07T12:08:14.001Z</time></trkpt><trkpt lat="45.70036172930729" lon="8.552677264912"><ele>365.6666666666667</ele><time>2026-04-07T12:08:15.001Z</time></trkpt><trkpt lat="45.70052815915653" lon="8.552655196226002"><ele>366.0</ele><time>2026-04-07T12:08:16.001Z</time></trkpt><trkpt lat="45.700684906694214" lon="8.552655278239987"><ele>366.0</ele><time>2026-04-07T12:08:17.001Z</time></trkpt><trkpt lat="45.70083592243138" lon="8.552684762429653"><ele>366.0</ele><time>2026-04-07T12:08:18.001Z</time></trkpt><trkpt lat="45.70097966031016" lon="8.552733358511944"><ele>366.0</ele><time>2026-04-07T12:08:19.001Z</time></trkpt><trkpt lat="45.70110683102577" lon="8.552787202961452"><ele>366.0</ele><time>2026-04-07T12:08:20.001Z</time></trkpt><trkpt lat="45.701223805096674" lon="8.552852623795706"><ele>367.0</ele><time>2026-04-07T12:08:21.001Z</time></trkpt><trkpt lat="45.7013267563381" lon="8.552911226550462"><ele>368.0</ele><time>2026-04-07T12:08:22.001Z</time></trkpt><trkpt lat="45.701408159653454" lon="8.552962333810477"><ele>369.0</ele><time>2026-04-07T12:08:23.001Z</time></trkpt><trkpt lat="45.70146860795683" lon="8.553000180765254"><ele>370.0</ele><time>2026-04-07T12:08:24.001Z</time></trkpt><trkpt lat="45.701555465357686" lon="8.552971858294816"><ele>371.0</ele><time>2026-04-07T12:08:26.001Z</time></trkpt><trkpt lat="45.701605444363864" lon="8.552848064043424"><ele>371.0</ele><time>2026-04-07T12:08:28.001Z</time></trkpt><trkpt lat="45.7016448980719" lon="8.552681520063278"><ele>371.0</ele><time>2026-04-07T12:08:30.001Z</time></trkpt><trkpt lat="45.70164835320322" lon="8.552546457445557"><ele>371.0</ele><time>2026-04-07T12:08:32.001Z</time></trkpt><trkpt lat="45.7016364576512" lon="8.552453382810839"><ele>371.0</ele><time>2026-04-07T12:08:33.001Z</time></trkpt><trkpt lat="45.701594838704494" lon="8.552316456880082"><ele>371.0</ele><time>2026-04-07T12:08:35.001Z</time></trkpt><trkpt lat="45.70159340955064" lon="8.552182580476648"><ele>371.0</ele><time>2026-04-07T12:08:37.001Z</time></trkpt><trkpt lat="45.70158915566688" lon="8.552040022744345"><ele>371.0</ele><time>2026-04-07T12:08:39.002Z</time></trkpt><trkpt lat="45.70159660526825" lon="8.551895437485468"><ele>371.0</ele><time>2026-04-07T12:08:41.002Z</time></trkpt><trkpt lat="45.70157559675534" lon="8.551770181907415"><ele>371.0</ele><time>2026-04-07T12:08:43.002Z</time></trkpt><trkpt lat="45.70156686637543" lon="8.55163405733128"><ele>371.0</ele><time>2026-04-07T12:08:45.002Z</time></trkpt><trkpt lat="45.70154458440037" lon="8.55151872130157"><ele>370.33333333333337</ele><time>2026-04-07T12:08:47.002Z</time></trkpt><trkpt lat="45.701549875332134" lon="8.551409495734443"><ele>369.6666666666667</ele><time>2026-04-07T12:08:49.002Z</time></trkpt><trkpt lat="45.70154816750592" lon="8.551315487781176"><ele>369.0</ele><time>2026-04-07T12:08:51.002Z</time></trkpt><trkpt lat="45.70153161820144" lon="8.551211396138322"><ele>368.3333333333333</ele><time>2026-04-07T12:08:53.002Z</time></trkpt><trkpt lat="45.70149606455576" lon="8.551115264395811"><ele>367.66666666666663</ele><time>2026-04-07T12:08:56.002Z</time></trkpt><trkpt lat="45.70148731328259" lon="8.55096431871994"><ele>367.0</ele><time>2026-04-07T12:08:58.002Z</time></trkpt><trkpt lat="45.701497540081675" lon="8.550777878164249"><ele>365.8</ele><time>2026-04-07T12:09:00.002Z</time></trkpt><trkpt lat="45.701507084340214" lon="8.550615216955247"><ele>364.6</ele><time>2026-04-07T12:09:02.002Z</time></trkpt><trkpt lat="45.70150259019077" lon="8.550421458735508"><ele>363.40000000000003</ele><time>2026-04-07T12:09:04.002Z</time></trkpt><trkpt lat="45.70151108878187" lon="8.550312564903699"><ele>362.20000000000005</ele><time>2026-04-07T12:09:05.002Z</time></trkpt><trkpt lat="45.70150760771126" lon="8.550138395146247"><ele>361.0</ele><time>2026-04-07T12:09:07.002Z</time></trkpt><trkpt lat="45.70150775913584" lon="8.550040462326137"><ele>360.42857142857144</ele><time>2026-04-07T12:09:08.002Z</time></trkpt><trkpt lat="45.70152223519269" lon="8.549932241379649"><ele>359.85714285714283</ele><time>2026-04-07T12:09:09.002Z</time></trkpt><trkpt lat="45.701537562845566" lon="8.549842322738145"><ele>359.2857142857143</ele><time>2026-04-07T12:09:10.002Z</time></trkpt><trkpt lat="45.70155475171311" lon="8.549755064253151"><ele>358.7142857142857</ele><time>2026-04-07T12:09:11.002Z</time></trkpt><trkpt lat="45.70159551915538" lon="8.549648139592243"><ele>358.1428571428571</ele><time>2026-04-07T12:09:12.002Z</time></trkpt><trkpt lat="45.70163873432944" lon="8.549553710827034"><ele>357.57142857142856</ele><time>2026-04-07T12:09:13.002Z</time></trkpt><trkpt lat="45.701686831835026" lon="8.549481820432318"><ele>357.0</ele><time>2026-04-07T12:09:14.002Z</time></trkpt><trkpt lat="45.70173272281615" lon="8.549387879605812"><ele>357.5</ele><time>2026-04-07T12:09:15.002Z</time></trkpt><trkpt lat="45.7017810787694" lon="8.549278819998626"><ele>358.0</ele><time>2026-04-07T12:09:16.002Z</time></trkpt><trkpt lat="45.70181727730143" lon="8.549175900145057"><ele>358.5</ele><time>2026-04-07T12:09:17.002Z</time></trkpt><trkpt lat="45.70185137160154" lon="8.549071132994829"><ele>359.0</ele><time>2026-04-07T12:09:18.002Z</time></trkpt><trkpt lat="45.70188784926855" lon="8.548981901039054"><ele>359.5</ele><time>2026-04-07T12:09:19.002Z</time></trkpt><trkpt lat="45.70192347870554" lon="8.548880851722958"><ele>360.0</ele><time>2026-04-07T12:09:20.002Z</time></trkpt><trkpt lat="45.7019545528797" lon="8.548780325901248"><ele>358.5</ele><time>2026-04-07T12:09:21.002Z</time></trkpt><trkpt lat="45.70198784952721" lon="8.548674119373384"><ele>357.0</ele><time>2026-04-07T12:09:22.002Z</time></trkpt><trkpt lat="45.7020088825743" lon="8.548575744258663"><ele>355.5</ele><time>2026-04-07T12:09:23.002Z</time></trkpt><trkpt lat="45.70202361541903" lon="8.548479841187957"><ele>354.0</ele><time>2026-04-07T12:09:24.002Z</time></trkpt><trkpt lat="45.70202575599928" lon="8.548339569307172"><ele>352.5</ele><time>2026-04-07T12:09:26Z</time></trkpt><trkpt lat="45.70203718824624" lon="8.54820459610108"><ele>351.0</ele><time>2026-04-07T12:09:28Z</time></trkpt><trkpt lat="45.70208294659855" lon="8.548085024245951"><ele>351.0</ele><time>2026-04-07T12:09:30Z</time></trkpt><trkpt lat="45.702148148580775" lon="8.547953867380341"><ele>351.0</ele><time>2026-04-07T12:09:32Z</time></trkpt><trkpt lat="45.70222671726845" lon="8.547849038007769"><ele>351.0</ele><time>2026-04-07T12:09:34Z</time></trkpt><trkpt lat="45.70228730422028" lon="8.54774342731715"><ele>351.0</ele><time>2026-04-07T12:09:36Z</time></trkpt><trkpt lat="45.702315454166495" lon="8.547655937945157"><ele>351.0</ele><time>2026-04-07T12:09:38Z</time></trkpt><trkpt lat="45.70233584277539" lon="8.547550376870598"><ele>350.0</ele><time>2026-04-07T12:09:41Z</time></trkpt><trkpt lat="45.70230748891405" lon="8.547460299127822"><ele>349.0</ele><time>2026-04-07T12:09:43Z</time></trkpt><trkpt lat="45.70224439417045" lon="8.54742498327744"><ele>348.0</ele><time>2026-04-07T12:09:45Z</time></trkpt><trkpt lat="45.70223222251415" lon="8.54730312046033"><ele>347.0</ele><time>2026-04-07T12:09:48Z</time></trkpt><trkpt lat="45.70226597963557" lon="8.547212126728681"><ele>346.0</ele><time>2026-04-07T12:09:50Z</time></trkpt><trkpt lat="45.70228258150949" lon="8.547096679115157"><ele>345.0</ele><time>2026-04-07T12:09:52Z</time></trkpt><trkpt lat="45.702309973178565" lon="8.546941514422759"><ele>343.4</ele><time>2026-04-07T12:09:54Z</time></trkpt><trkpt lat="45.70234905623262" lon="8.546800385101605"><ele>341.8</ele><time>2026-04-07T12:09:56.001Z</time></trkpt><trkpt lat="45.702383586517925" lon="8.546703755092276"><ele>340.20000000000005</ele><time>2026-04-07T12:09:57.001Z</time></trkpt><trkpt lat="45.70241787086468" lon="8.54661476097195"><ele>338.6</ele><time>2026-04-07T12:09:58.001Z</time></trkpt><trkpt lat="45.70248214796477" lon="8.546454836274268"><ele>337.0</ele><time>2026-04-07T12:10:00.001Z</time></trkpt><trkpt lat="45.70252734583911" lon="8.546366364359804"><ele>337.0</ele><time>2026-04-07T12:10:01.001Z</time></trkpt><trkpt lat="45.702577329256066" lon="8.546293768406873"><ele>337.0</ele><time>2026-04-07T12:10:02.001Z</time></trkpt><trkpt lat="45.70263172386863" lon="8.546228690365034"><ele>337.0</ele><time>2026-04-07T12:10:03.001Z</time></trkpt><trkpt lat="45.70267343618831" lon="8.546093571342068"><ele>337.0</ele><time>2026-04-07T12:10:05.001Z</time></trkpt><trkpt lat="45.7026967329583" lon="8.545994472236268"><ele>337.0</ele><time>2026-04-07T12:10:07.001Z</time></trkpt><trkpt lat="45.70264419039379" lon="8.545938846423539"><ele>337.0</ele><time>2026-04-07T12:10:10.001Z</time></trkpt><trkpt lat="45.70258376812017" lon="8.545981069999582"><ele>335.66666666666663</ele><time>2026-04-07T12:10:12.001Z</time></trkpt><trkpt lat="45.702528161205365" lon="8.54603236491973"><ele>334.3333333333333</ele><time>2026-04-07T12:10:15.001Z</time></trkpt><trkpt lat="45.70243103178881" lon="8.546026776832962"><ele>333.0</ele><time>2026-04-07T12:10:18.001Z</time></trkpt><trkpt lat="45.702351155492885" lon="8.546024465357387"><ele>331.6666666666667</ele><time>2026-04-07T12:10:20.001Z</time></trkpt><trkpt lat="45.70227351028965" lon="8.545985173018458"><ele>330.33333333333337</ele><time>2026-04-07T12:10:22.001Z</time></trkpt><trkpt lat="45.70218888873497" lon="8.545951954570613"><ele>329.0</ele><time>2026-04-07T12:10:24.001Z</time></trkpt><trkpt lat="45.702096472290904" lon="8.54590598425163"><ele>329.0</ele><time>2026-04-07T12:10:26.001Z</time></trkpt><trkpt lat="45.70200521450933" lon="8.545808934613827"><ele>329.0</ele><time>2026-04-07T12:10:28.001Z</time></trkpt><trkpt lat="45.70194614216758" lon="8.545734482404695"><ele>329.0</ele><time>2026-04-07T12:10:29.001Z</time></trkpt><trkpt lat="45.70188631118552" lon="8.545675103024257"><ele>329.0</ele><time>2026-04-07T12:10:30.001Z</time></trkpt><trkpt lat="45.701826153625255" lon="8.545622981601438"><ele>329.0</ele><time>2026-04-07T12:10:31.001Z</time></trkpt><trkpt lat="45.70175697412497" lon="8.545593689378064"><ele>329.0</ele><time>2026-04-07T12:10:32.001Z</time></trkpt><trkpt lat="45.70169705925807" lon="8.545544257145979"><ele>328.5</ele><time>2026-04-07T12:10:33.001Z</time></trkpt><trkpt lat="45.701640002293374" lon="8.54550377089537"><ele>328.0</ele><time>2026-04-07T12:10:34.001Z</time></trkpt><trkpt lat="45.70156114601844" lon="8.545438709739445"><ele>327.5</ele><time>2026-04-07T12:10:36.001Z</time></trkpt><trkpt lat="45.70149842989808" lon="8.5454256686118"><ele>327.0</ele><time>2026-04-07T12:10:38.001Z</time></trkpt><trkpt lat="45.701482920350045" lon="8.54531951346973"><ele>326.5</ele><time>2026-04-07T12:10:42.001Z</time></trkpt><trkpt lat="45.70150461861586" lon="8.545218526382488"><ele>326.0</ele><time>2026-04-07T12:10:44.001Z</time></trkpt><trkpt lat="45.701567251895575" lon="8.545115434700946"><ele>325.0</ele><time>2026-04-07T12:10:45.002Z</time></trkpt><trkpt lat="45.70163108213925" lon="8.545018654668278"><ele>324.0</ele><time>2026-04-07T12:10:46.002Z</time></trkpt><trkpt lat="45.70167321996889" lon="8.544940380325354"><ele>323.0</ele><time>2026-04-07T12:10:47.002Z</time></trkpt><trkpt lat="45.70175262223444" lon="8.544841860122785"><ele>322.0</ele><time>2026-04-07T12:10:49.002Z</time></trkpt><trkpt lat="45.70180643587262" lon="8.544718905021137"><ele>321.0</ele><time>2026-04-07T12:10:51.002Z</time></trkpt><trkpt lat="45.701858189920166" lon="8.544609850859795"><ele>320.1666666666667</ele><time>2026-04-07T12:10:53.002Z</time></trkpt><trkpt lat="45.70188293679378" lon="8.54448872872047"><ele>319.3333333333333</ele><time>2026-04-07T12:10:55.002Z</time></trkpt><trkpt lat="45.70187916567107" lon="8.544381912643525"><ele>318.5</ele><time>2026-04-07T12:10:56.002Z</time></trkpt><trkpt lat="45.701892828438936" lon="8.544280313287187"><ele>317.66666666666663</ele><time>2026-04-07T12:10:57.002Z</time></trkpt><trkpt lat="45.70189357041747" lon="8.544186235029887"><ele>316.8333333333333</ele><time>2026-04-07T12:10:58.002Z</time></trkpt><trkpt lat="45.70187755865942" lon="8.544042709227826"><ele>316.0</ele><time>2026-04-07T12:11:00.002Z</time></trkpt><trkpt lat="45.70187146763778" lon="8.543907204638638"><ele>316.0</ele><time>2026-04-07T12:11:02.002Z</time></trkpt><trkpt lat="45.701907319469804" lon="8.543819012169447"><ele>316.0</ele><time>2026-04-07T12:11:04.002Z</time></trkpt><trkpt lat="45.70199803221086" lon="8.54376693924814"><ele>316.0</ele><time>2026-04-07T12:11:06.002Z</time></trkpt><trkpt lat="45.702101994966206" lon="8.543778581896023"><ele>316.0</ele><time>2026-04-07T12:11:08.002Z</time></trkpt><trkpt lat="45.70217300211217" lon="8.543779595224326"><ele>316.0</ele><time>2026-04-07T12:11:09.002Z</time></trkpt><trkpt lat="45.702236196379864" lon="8.543785610136595"><ele>316.0</ele><time>2026-04-07T12:11:10.002Z</time></trkpt><trkpt lat="45.702311074727646" lon="8.543798852305054"><ele>315.8</ele><time>2026-04-07T12:11:11.018Z</time></trkpt><trkpt lat="45.70239402147073" lon="8.543801820845495"><ele>315.6</ele><time>2026-04-07T12:11:12.02Z</time></trkpt><trkpt lat="45.70247334898665" lon="8.543798213062576"><ele>315.4</ele><time>2026-04-07T12:11:13.016Z</time></trkpt><trkpt lat="45.702538643249966" lon="8.54378620196917"><ele>315.2</ele><time>2026-04-07T12:11:14.002Z</time></trkpt><trkpt lat="45.70264217288368" lon="8.543720457612972"><ele>315.0</ele><time>2026-04-07T12:11:15.002Z</time></trkpt><trkpt lat="45.70274383129737" lon="8.54361620751318"><ele>315.1666666666667</ele><time>2026-04-07T12:11:16.002Z</time></trkpt><trkpt lat="45.702810393191335" lon="8.543547053264351"><ele>315.3333333333333</ele><time>2026-04-07T12:11:17.002Z</time></trkpt><trkpt lat="45.70288580457499" lon="8.54347476690943"><ele>315.5</ele><time>2026-04-07T12:11:18.002Z</time></trkpt><trkpt lat="45.702960534756045" lon="8.543416136848498"><ele>315.66666666666663</ele><time>2026-04-07T12:11:19.002Z</time></trkpt><trkpt lat="45.70303657465241" lon="8.543364802705717"><ele>315.8333333333333</ele><time>2026-04-07T12:11:20.002Z</time></trkpt><trkpt lat="45.70310771011389" lon="8.54332848928108"><ele>316.0</ele><time>2026-04-07T12:11:21.002Z</time></trkpt><trkpt lat="45.70317891421538" lon="8.543300750288262"><ele>316.0</ele><time>2026-04-07T12:11:22.002Z</time></trkpt><trkpt lat="45.70325593711629" lon="8.5432779372563"><ele>316.0</ele><time>2026-04-07T12:11:23.002Z</time></trkpt><trkpt lat="45.70333424857525" lon="8.5432746978075"><ele>316.0</ele><time>2026-04-07T12:11:24.002Z</time></trkpt><trkpt lat="45.70342471563217" lon="8.543285843833212"><ele>316.0</ele><time>2026-04-07T12:11:25.002Z</time></trkpt><trkpt lat="45.70351953415489" lon="8.54331425006626"><ele>316.0</ele><time>2026-04-07T12:11:26.002Z</time></trkpt><trkpt lat="45.703601700976755" lon="8.543358901870542"><ele>316.0</ele><time>2026-04-07T12:11:27.002Z</time></trkpt><trkpt lat="45.70367534303697" lon="8.543409020163253"><ele>317.0</ele><time>2026-04-07T12:11:28.002Z</time></trkpt><trkpt lat="45.70374239506981" lon="8.543445489950868"><ele>318.0</ele><time>2026-04-07T12:11:29.002Z</time></trkpt><trkpt lat="45.70382936441772" lon="8.543459382521059"><ele>319.0</ele><time>2026-04-07T12:11:30.002Z</time></trkpt><trkpt lat="45.703922688913345" lon="8.543451139116831"><ele>320.0</ele><time>2026-04-07T12:11:31Z</time></trkpt><trkpt lat="45.70402906070676" lon="8.543447223495745"><ele>321.0</ele><time>2026-04-07T12:11:32Z</time></trkpt><trkpt lat="45.70413841255414" lon="8.543425207251456"><ele>321.0</ele><time>2026-04-07T12:11:33Z</time></trkpt><trkpt lat="45.70425720010069" lon="8.543408425255354"><ele>321.0</ele><time>2026-04-07T12:11:34Z</time></trkpt><trkpt lat="45.704374188509235" lon="8.543387346938148"><ele>321.0</ele><time>2026-04-07T12:11:35Z</time></trkpt><trkpt lat="45.7044981533226" lon="8.5433752277119"><ele>321.0</ele><time>2026-04-07T12:11:36Z</time></trkpt><trkpt lat="45.70462339739898" lon="8.543366474866941"><ele>321.5</ele><time>2026-04-07T12:11:37Z</time></trkpt><trkpt lat="45.70473807168232" lon="8.543374480857402"><ele>322.0</ele><time>2026-04-07T12:11:38Z</time></trkpt><trkpt lat="45.70485061831244" lon="8.54336382902483"><ele>322.5</ele><time>2026-04-07T12:11:39Z</time></trkpt><trkpt lat="45.70497669669833" lon="8.543352720205696"><ele>323.0</ele><time>2026-04-07T12:11:40Z</time></trkpt><trkpt lat="45.70510038973065" lon="8.54333714680661"><ele>323.0</ele><time>2026-04-07T12:11:41Z</time></trkpt><trkpt lat="45.705227014643114" lon="8.543317180659393"><ele>323.0</ele><time>2026-04-07T12:11:42Z</time></trkpt><trkpt lat="45.70534880364781" lon="8.543299412846409"><ele>323.0</ele><time>2026-04-07T12:11:43Z</time></trkpt><trkpt lat="45.70546740778175" lon="8.543292122109074"><ele>323.0</ele><time>2026-04-07T12:11:44Z</time></trkpt><trkpt lat="45.7055929507498" lon="8.5432721205983"><ele>323.4</ele><time>2026-04-07T12:11:45Z</time></trkpt><trkpt lat="45.70572188674335" lon="8.5432629944709"><ele>323.79999999999995</ele><time>2026-04-07T12:11:46Z</time></trkpt><trkpt lat="45.70583951618151" lon="8.54325700258888"><ele>324.2</ele><time>2026-04-07T12:11:47Z</time></trkpt><trkpt lat="45.70594042254613" lon="8.543238501739815"><ele>324.6</ele><time>2026-04-07T12:11:48Z</time></trkpt><trkpt lat="45.70603660243888" lon="8.543219725994158"><ele>325.0</ele><time>2026-04-07T12:11:49Z</time></trkpt><trkpt lat="45.706114423769186" lon="8.543204500309795"><ele>325.0</ele><time>2026-04-07T12:11:50Z</time></trkpt><trkpt lat="45.70618212404654" lon="8.54320032326468"><ele>325.0</ele><time>2026-04-07T12:11:51Z</time></trkpt><trkpt lat="45.706264143180114" lon="8.543187469290778"><ele>325.0</ele><time>2026-04-07T12:11:52Z</time></trkpt><trkpt lat="45.70633353962738" lon="8.54315675845895"><ele>325.0</ele><time>2026-04-07T12:11:53Z</time></trkpt><trkpt lat="45.70641812016488" lon="8.543062947926021"><ele>325.0</ele><time>2026-04-07T12:11:55Z</time></trkpt><trkpt lat="45.706431386711685" lon="8.542894938328114"><ele>325.0</ele><time>2026-04-07T12:11:57Z</time></trkpt><trkpt lat="45.70639238861663" lon="8.542800729366714"><ele>324.6</ele><time>2026-04-07T12:11:58Z</time></trkpt><trkpt lat="45.706341419455505" lon="8.542690157609394"><ele>324.2</ele><time>2026-04-07T12:11:59Z</time></trkpt><trkpt lat="45.70627811135278" lon="8.542568333046923"><ele>323.79999999999995</ele><time>2026-04-07T12:12:00Z</time></trkpt><trkpt lat="45.70622775981903" lon="8.542468785009271"><ele>323.4</ele><time>2026-04-07T12:12:01Z</time></trkpt><trkpt lat="45.7061962157067" lon="8.542363978939036"><ele>323.0</ele><time>2026-04-07T12:12:02.001Z</time></trkpt><trkpt lat="45.70617636147319" lon="8.542239606656496"><ele>323.0</ele><time>2026-04-07T12:12:03.001Z</time></trkpt><trkpt lat="45.70615911862775" lon="8.542095218090568"><ele>323.0</ele><time>2026-04-07T12:12:04.001Z</time></trkpt><trkpt lat="45.706146098107816" lon="8.541956537501544"><ele>323.0</ele><time>2026-04-07T12:12:05.001Z</time></trkpt><trkpt lat="45.70614229940287" lon="8.54181834955922"><ele>323.0</ele><time>2026-04-07T12:12:06.001Z</time></trkpt><trkpt lat="45.70613781552405" lon="8.541708009737462"><ele>323.0</ele><time>2026-04-07T12:12:07.001Z</time></trkpt><trkpt lat="45.70611016165498" lon="8.541598584964845"><ele>325.0</ele><time>2026-04-07T12:12:08.001Z</time></trkpt><trkpt lat="45.706067163767294" lon="8.541485542070717"><ele>327.0</ele><time>2026-04-07T12:12:09.001Z</time></trkpt><trkpt lat="45.706015989631545" lon="8.541332491803661"><ele>329.0</ele><time>2026-04-07T12:12:11.001Z</time></trkpt><trkpt lat="45.70603374246099" lon="8.541230198057988"><ele>331.0</ele><time>2026-04-07T12:12:12.001Z</time></trkpt><trkpt lat="45.70606911271771" lon="8.541101736204327"><ele>333.0</ele><time>2026-04-07T12:12:13.001Z</time></trkpt><trkpt lat="45.706111435692364" lon="8.540974546608279"><ele>333.0</ele><time>2026-04-07T12:12:14.001Z</time></trkpt><trkpt lat="45.70613226823995" lon="8.540855964443445"><ele>333.0</ele><time>2026-04-07T12:12:15.001Z</time></trkpt><trkpt lat="45.70615599206289" lon="8.540753918501425"><ele>333.0</ele><time>2026-04-07T12:12:16.001Z</time></trkpt><trkpt lat="45.706157786072694" lon="8.54063205380627"><ele>333.0</ele><time>2026-04-07T12:12:17.001Z</time></trkpt><trkpt lat="45.706175349746616" lon="8.540507961808332"><ele>333.0</ele><time>2026-04-07T12:12:18.001Z</time></trkpt><trkpt lat="45.706177934591445" lon="8.54040460935874"><ele>333.0</ele><time>2026-04-07T12:12:19.001Z</time></trkpt><trkpt lat="45.706174150492046" lon="8.54031302880022"><ele>332.79999999999995</ele><time>2026-04-07T12:12:20.001Z</time></trkpt><trkpt lat="45.70616951247513" lon="8.540186315678152"><ele>332.6</ele><time>2026-04-07T12:12:21.001Z</time></trkpt><trkpt lat="45.70617289891387" lon="8.540064703570168"><ele>332.4</ele><time>2026-04-07T12:12:22.001Z</time></trkpt><trkpt lat="45.70618164611938" lon="8.539923338512141"><ele>332.20000000000005</ele><time>2026-04-07T12:12:23.001Z</time></trkpt><trkpt lat="45.70621709146024" lon="8.539780983713685"><ele>332.0</ele><time>2026-04-07T12:12:24.001Z</time></trkpt><trkpt lat="45.7062687243415" lon="8.539635990996905"><ele>332.40000000000003</ele><time>2026-04-07T12:12:25.001Z</time></trkpt><trkpt lat="45.706309377566974" lon="8.539490756820449"><ele>332.8</ele><time>2026-04-07T12:12:26.001Z</time></trkpt><trkpt lat="45.70634732592493" lon="8.539361580300808"><ele>333.2</ele><time>2026-04-07T12:12:27.001Z</time></trkpt><trkpt lat="45.706387354320015" lon="8.53923977997496"><ele>333.6</ele><time>2026-04-07T12:12:28.001Z</time></trkpt><trkpt lat="45.70642942187719" lon="8.539118911718605"><ele>334.0</ele><time>2026-04-07T12:12:29.001Z</time></trkpt><trkpt lat="45.7064709415408" lon="8.538979074255868"><ele>334.0</ele><time>2026-04-07T12:12:30.001Z</time></trkpt><trkpt lat="45.70651624739954" lon="8.538823383488284"><ele>334.0</ele><time>2026-04-07T12:12:31.001Z</time></trkpt><trkpt lat="45.70657026229768" lon="8.538687886071965"><ele>334.0</ele><time>2026-04-07T12:12:32.001Z</time></trkpt><trkpt lat="45.70662109849796" lon="8.538554743185811"><ele>334.0</ele><time>2026-04-07T12:12:33.001Z</time></trkpt><trkpt lat="45.70666540634051" lon="8.53842541019923"><ele>334.0</ele><time>2026-04-07T12:12:34.001Z</time></trkpt><trkpt lat="45.70670683181922" lon="8.538287070895853"><ele>334.66666666666663</ele><time>2026-04-07T12:12:35.001Z</time></trkpt><trkpt lat="45.70673904290989" lon="8.538165895253291"><ele>335.3333333333333</ele><time>2026-04-07T12:12:36.001Z</time></trkpt><trkpt lat="45.706761258031605" lon="8.538029532081183"><ele>336.0</ele><time>2026-04-07T12:12:37.001Z</time></trkpt><trkpt lat="45.70678471066093" lon="8.537909340826236"><ele>336.6666666666667</ele><time>2026-04-07T12:12:38.001Z</time></trkpt><trkpt lat="45.70682010140363" lon="8.5378000335291"><ele>337.33333333333337</ele><time>2026-04-07T12:12:39.001Z</time></trkpt><trkpt lat="45.70686219820688" lon="8.537702080095308"><ele>338.0</ele><time>2026-04-07T12:12:40.001Z</time></trkpt><trkpt lat="45.70690935741572" lon="8.537586807151737"><ele>337.59999999999997</ele><time>2026-04-07T12:12:41.001Z</time></trkpt><trkpt lat="45.7069628021728" lon="8.53747450839623"><ele>337.2</ele><time>2026-04-07T12:12:42.001Z</time></trkpt><trkpt lat="45.7070107654966" lon="8.537369634100616"><ele>336.8</ele><time>2026-04-07T12:12:43.001Z</time></trkpt><trkpt lat="45.70707209596653" lon="8.53725993070138"><ele>336.4</ele><time>2026-04-07T12:12:44.001Z</time></trkpt><trkpt lat="45.707126148891895" lon="8.537138918650273"><ele>336.0</ele><time>2026-04-07T12:12:45.001Z</time></trkpt><trkpt lat="45.707188556433046" lon="8.537019451141537"><ele>336.0</ele><time>2026-04-07T12:12:46.001Z</time></trkpt><trkpt lat="45.70724544946184" lon="8.536907558984886"><ele>336.0</ele><time>2026-04-07T12:12:47.001Z</time></trkpt><trkpt lat="45.70729595314283" lon="8.536781193546446"><ele>336.0</ele><time>2026-04-07T12:12:48.001Z</time></trkpt><trkpt lat="45.70735144758574" lon="8.536654388529229"><ele>336.0</ele><time>2026-04-07T12:12:49.001Z</time></trkpt><trkpt lat="45.70738731454155" lon="8.536533803451494"><ele>336.0</ele><time>2026-04-07T12:12:50.001Z</time></trkpt><trkpt lat="45.70744812272545" lon="8.536385080228497"><ele>336.0</ele><time>2026-04-07T12:12:51.001Z</time></trkpt><trkpt lat="45.70750815068429" lon="8.53624153269691"><ele>336.0</ele><time>2026-04-07T12:12:52.001Z</time></trkpt><trkpt lat="45.707581746755565" lon="8.5360855221018"><ele>336.0</ele><time>2026-04-07T12:12:53.002Z</time></trkpt><trkpt lat="45.70764927365896" lon="8.535945189906533"><ele>336.0</ele><time>2026-04-07T12:12:54.002Z</time></trkpt><trkpt lat="45.70772094531065" lon="8.535817021966027"><ele>336.0</ele><time>2026-04-07T12:12:55.002Z</time></trkpt><trkpt lat="45.70778440175718" lon="8.535694843814078"><ele>336.0</ele><time>2026-04-07T12:12:56.002Z</time></trkpt><trkpt lat="45.70784875264912" lon="8.535562420898179"><ele>336.0</ele><time>2026-04-07T12:12:57.002Z</time></trkpt><trkpt lat="45.70791959494656" lon="8.535430894739665"><ele>336.0</ele><time>2026-04-07T12:12:58.002Z</time></trkpt><trkpt lat="45.70799167846349" lon="8.535303254136211"><ele>336.0</ele><time>2026-04-07T12:12:59.002Z</time></trkpt><trkpt lat="45.7080344196338" lon="8.53518907657936"><ele>336.0</ele><time>2026-04-07T12:13:00.002Z</time></trkpt><trkpt lat="45.70807804381454" lon="8.535063321691135"><ele>336.0</ele><time>2026-04-07T12:13:01.002Z</time></trkpt><trkpt lat="45.708129905345345" lon="8.534932529067172"><ele>336.0</ele><time>2026-04-07T12:13:02.002Z</time></trkpt><trkpt lat="45.70816906913322" lon="8.53478883012203"><ele>336.0</ele><time>2026-04-07T12:13:03.002Z</time></trkpt><trkpt lat="45.70821931686709" lon="8.534661635739694"><ele>337.0</ele><time>2026-04-07T12:13:04.002Z</time></trkpt><trkpt lat="45.70827544714907" lon="8.534526167524954"><ele>338.0</ele><time>2026-04-07T12:13:05.002Z</time></trkpt><trkpt lat="45.70833795377081" lon="8.534403212082973"><ele>339.0</ele><time>2026-04-07T12:13:06.002Z</time></trkpt><trkpt lat="45.708400995549134" lon="8.534278048940017"><ele>340.0</ele><time>2026-04-07T12:13:07.002Z</time></trkpt><trkpt lat="45.70847718981365" lon="8.53414476784288"><ele>341.0</ele><time>2026-04-07T12:13:08.002Z</time></trkpt><trkpt lat="45.70855709259247" lon="8.534025661693592"><ele>339.6</ele><time>2026-04-07T12:13:09.002Z</time></trkpt><trkpt lat="45.708633925576834" lon="8.53392559046566"><ele>338.20000000000005</ele><time>2026-04-07T12:13:10.002Z</time></trkpt><trkpt lat="45.70871038047489" lon="8.533826040546636"><ele>336.79999999999995</ele><time>2026-04-07T12:13:11.002Z</time></trkpt><trkpt lat="45.70878647006323" lon="8.533714435698373"><ele>335.4</ele><time>2026-04-07T12:13:12.002Z</time></trkpt><trkpt lat="45.7088602331956" lon="8.533600252380712"><ele>334.0</ele><time>2026-04-07T12:13:13.002Z</time></trkpt><trkpt lat="45.70893513874146" lon="8.533490246309134"><ele>334.0</ele><time>2026-04-07T12:13:14.002Z</time></trkpt><trkpt lat="45.70901268795329" lon="8.533397294050856"><ele>334.0</ele><time>2026-04-07T12:13:15.002Z</time></trkpt><trkpt lat="45.70908135458613" lon="8.533306598997353"><ele>334.0</ele><time>2026-04-07T12:13:16.002Z</time></trkpt><trkpt lat="45.70912479739855" lon="8.533200542883302"><ele>334.0</ele><time>2026-04-07T12:13:17.002Z</time></trkpt><trkpt lat="45.70915582060815" lon="8.533076295709948"><ele>334.0</ele><time>2026-04-07T12:13:18.002Z</time></trkpt><trkpt lat="45.70916875798678" lon="8.5329369549035"><ele>335.75</ele><time>2026-04-07T12:13:19.002Z</time></trkpt><trkpt lat="45.709175668619054" lon="8.532778050123891"><ele>337.5</ele><time>2026-04-07T12:13:20.002Z</time></trkpt><trkpt lat="45.709187701341406" lon="8.532616667353466"><ele>339.25</ele><time>2026-04-07T12:13:21.002Z</time></trkpt><trkpt lat="45.70920645887805" lon="8.532457657766846"><ele>341.0</ele><time>2026-04-07T12:13:22.002Z</time></trkpt><trkpt lat="45.70922535595651" lon="8.532284500929942"><ele>341.0</ele><time>2026-04-07T12:13:23.002Z</time></trkpt><trkpt lat="45.70923729869498" lon="8.532113881423957"><ele>341.0</ele><time>2026-04-07T12:13:24.002Z</time></trkpt><trkpt lat="45.70925557705434" lon="8.531942658151326"><ele>341.0</ele><time>2026-04-07T12:13:25.002Z</time></trkpt><trkpt lat="45.7092804491152" lon="8.531774988321269"><ele>341.0</ele><time>2026-04-07T12:13:26.002Z</time></trkpt><trkpt lat="45.70931367898502" lon="8.531597285978348"><ele>342.0</ele><time>2026-04-07T12:13:27.002Z</time></trkpt><trkpt lat="45.709337832586264" lon="8.531428821526358"><ele>343.0</ele><time>2026-04-07T12:13:28.002Z</time></trkpt><trkpt lat="45.70936732270909" lon="8.531254021453515"><ele>344.0</ele><time>2026-04-07T12:13:29.002Z</time></trkpt><trkpt lat="45.70938704017226" lon="8.531087621665032"><ele>345.0</ele><time>2026-04-07T12:13:30.002Z</time></trkpt><trkpt lat="45.709402854532655" lon="8.530912806693216"><ele>343.6</ele><time>2026-04-07T12:13:31.002Z</time></trkpt><trkpt lat="45.70942294422523" lon="8.53076438129606"><ele>342.2</ele><time>2026-04-07T12:13:32.002Z</time></trkpt><trkpt lat="45.7094493540761" lon="8.530607716019421"><ele>340.79999999999995</ele><time>2026-04-07T12:13:33.002Z</time></trkpt><trkpt lat="45.70948295363103" lon="8.530465675658236"><ele>339.4</ele><time>2026-04-07T12:13:34.002Z</time></trkpt><trkpt lat="45.70954488249787" lon="8.530327679886643"><ele>338.0</ele><time>2026-04-07T12:13:35.002Z</time></trkpt><trkpt lat="45.709607951465074" lon="8.530191439695603"><ele>338.0</ele><time>2026-04-07T12:13:36.002Z</time></trkpt><trkpt lat="45.709651525561036" lon="8.530069066333148"><ele>338.0</ele><time>2026-04-07T12:13:37Z</time></trkpt><trkpt lat="45.709684695718806" lon="8.529951271371804"><ele>338.0</ele><time>2026-04-07T12:13:38Z</time></trkpt><trkpt lat="45.709715643552144" lon="8.529832119613157"><ele>338.0</ele><time>2026-04-07T12:13:39Z</time></trkpt><trkpt lat="45.70974629952269" lon="8.529718735210393"><ele>338.0</ele><time>2026-04-07T12:13:40Z</time></trkpt><trkpt lat="45.709777706101" lon="8.529613451644709"><ele>338.0</ele><time>2026-04-07T12:13:41Z</time></trkpt><trkpt lat="45.709814086722396" lon="8.52951506062856"><ele>338.33333333333337</ele><time>2026-04-07T12:13:42Z</time></trkpt><trkpt lat="45.70986031617156" lon="8.52944225728373"><ele>338.6666666666667</ele><time>2026-04-07T12:13:43Z</time></trkpt><trkpt lat="45.709913870410006" lon="8.5293709016183"><ele>339.0</ele><time>2026-04-07T12:13:44Z</time></trkpt><trkpt lat="45.70999391680442" lon="8.529271452301407"><ele>339.3333333333333</ele><time>2026-04-07T12:13:46Z</time></trkpt><trkpt lat="45.71002323111818" lon="8.529181566814666"><ele>339.66666666666663</ele><time>2026-04-07T12:13:49Z</time></trkpt><trkpt lat="45.71006072476428" lon="8.52908714690831"><ele>340.0</ele><time>2026-04-07T12:13:52Z</time></trkpt><trkpt lat="45.710106085277445" lon="8.528989220861252"><ele>340.0</ele><time>2026-04-07T12:13:53Z</time></trkpt><trkpt lat="45.71017436225247" lon="8.52888346439467"><ele>340.0</ele><time>2026-04-07T12:13:54Z</time></trkpt><trkpt lat="45.71026323425684" lon="8.528775403539457"><ele>340.0</ele><time>2026-04-07T12:13:55Z</time></trkpt><trkpt lat="45.71037022007062" lon="8.528650610297559"><ele>340.0</ele><time>2026-04-07T12:13:56Z</time></trkpt><trkpt lat="45.71047882402761" lon="8.528523999403975"><ele>339.2</ele><time>2026-04-07T12:13:57Z</time></trkpt><trkpt lat="45.71057010645742" lon="8.528400648780906"><ele>338.4</ele><time>2026-04-07T12:13:58Z</time></trkpt><trkpt lat="45.71065291578887" lon="8.528280028594102"><ele>337.6</ele><time>2026-04-07T12:13:59Z</time></trkpt><trkpt lat="45.71072937307902" lon="8.528175998042371"><ele>336.8</ele><time>2026-04-07T12:14:00Z</time></trkpt><trkpt lat="45.71079556833936" lon="8.528098397186588"><ele>336.0</ele><time>2026-04-07T12:14:01Z</time></trkpt><trkpt lat="45.71085920861779" lon="8.528031444558481"><ele>336.0</ele><time>2026-04-07T12:14:02Z</time></trkpt><trkpt lat="45.71093215679237" lon="8.527957388583882"><ele>336.0</ele><time>2026-04-07T12:14:03Z</time></trkpt><trkpt lat="45.711005388241695" lon="8.527883001756729"><ele>336.0</ele><time>2026-04-07T12:14:04Z</time></trkpt><trkpt lat="45.71106424337728" lon="8.527819315455739"><ele>336.0</ele><time>2026-04-07T12:14:05Z</time></trkpt><trkpt lat="45.71115141768171" lon="8.5277340044259"><ele>336.0</ele><time>2026-04-07T12:14:07Z</time></trkpt><trkpt lat="45.71122912396216" lon="8.527732289527377"><ele>336.0</ele><time>2026-04-07T12:14:09Z</time></trkpt><trkpt lat="45.71129827344476" lon="8.527790144852249"><ele>335.5</ele><time>2026-04-07T12:14:10Z</time></trkpt><trkpt lat="45.71135680405624" lon="8.527870877911194"><ele>335.0</ele><time>2026-04-07T12:14:11Z</time></trkpt><trkpt lat="45.71139437429745" lon="8.527963975368852"><ele>334.5</ele><time>2026-04-07T12:14:12Z</time></trkpt><trkpt lat="45.71141197553122" lon="8.528090481590207"><ele>334.0</ele><time>2026-04-07T12:14:13Z</time></trkpt><trkpt lat="45.711419282017815" lon="8.528234343819868"><ele>333.5</ele><time>2026-04-07T12:14:14Z</time></trkpt><trkpt lat="45.71144246067937" lon="8.528359653572295"><ele>333.0</ele><time>2026-04-07T12:14:15Z</time></trkpt><trkpt lat="45.711484183448285" lon="8.528477654860742"><ele>333.0</ele><time>2026-04-07T12:14:16Z</time></trkpt><trkpt lat="45.71154832551345" lon="8.528598983412849"><ele>333.0</ele><time>2026-04-07T12:14:17.001Z</time></trkpt><trkpt lat="45.7116302199303" lon="8.528723833875848"><ele>333.0</ele><time>2026-04-07T12:14:18.001Z</time></trkpt><trkpt lat="45.71170619652" lon="8.528864681458883"><ele>333.0</ele><time>2026-04-07T12:14:19.001Z</time></trkpt><trkpt lat="45.71177279627463" lon="8.529017390883313"><ele>333.0</ele><time>2026-04-07T12:14:20.001Z</time></trkpt><trkpt lat="45.71182096550576" lon="8.529154103580503"><ele>333.0</ele><time>2026-04-07T12:14:21.001Z</time></trkpt><trkpt lat="45.71186912752205" lon="8.529282334364188"><ele>333.0</ele><time>2026-04-07T12:14:22.001Z</time></trkpt><trkpt lat="45.711926461595056" lon="8.529401303309706"><ele>333.0</ele><time>2026-04-07T12:14:23.001Z</time></trkpt><trkpt lat="45.71198384986063" lon="8.529496995053574"><ele>333.0</ele><time>2026-04-07T12:14:24.001Z</time></trkpt><trkpt lat="45.712036868732845" lon="8.52957376040031"><ele>333.2</ele><time>2026-04-07T12:14:25.001Z</time></trkpt><trkpt lat="45.71208813429316" lon="8.529642313934719"><ele>333.4</ele><time>2026-04-07T12:14:26.001Z</time></trkpt><trkpt lat="45.71217201483376" lon="8.52972916371297"><ele>333.59999999999997</ele><time>2026-04-07T12:14:28.001Z</time></trkpt><trkpt lat="45.71225317855776" lon="8.529746339015679"><ele>333.79999999999995</ele><time>2026-04-07T12:14:30.001Z</time></trkpt><trkpt lat="45.712342233526606" lon="8.529636524772299"><ele>334.0</ele><time>2026-04-07T12:14:32.001Z</time></trkpt><trkpt lat="45.71239023628207" lon="8.529549602988247"><ele>334.0</ele><time>2026-04-07T12:14:33.001Z</time></trkpt><trkpt lat="45.71244714544643" lon="8.529471680454405"><ele>334.0</ele><time>2026-04-07T12:14:34.001Z</time></trkpt><trkpt lat="45.71250104192667" lon="8.529401316881094"><ele>334.0</ele><time>2026-04-07T12:14:35.001Z</time></trkpt><trkpt lat="45.71255901512995" lon="8.529341427554606"><ele>334.0</ele><time>2026-04-07T12:14:36.001Z</time></trkpt><trkpt lat="45.71266883463847" lon="8.529273258351383"><ele>334.0</ele><time>2026-04-07T12:14:38.001Z</time></trkpt><trkpt lat="45.71276057106336" lon="8.52920710288796"><ele>334.0</ele><time>2026-04-07T12:14:40.001Z</time></trkpt><trkpt lat="45.712842429334025" lon="8.529168219542353"><ele>334.16666666666663</ele><time>2026-04-07T12:14:42.001Z</time></trkpt><trkpt lat="45.71291002375634" lon="8.529129990524684"><ele>334.3333333333333</ele><time>2026-04-07T12:14:44.001Z</time></trkpt><trkpt lat="45.712970526357076" lon="8.529047008453295"><ele>334.5</ele><time>2026-04-07T12:14:46.001Z</time></trkpt><trkpt lat="45.71302270582284" lon="8.528978877527736"><ele>334.6666666666667</ele><time>2026-04-07T12:14:48.001Z</time></trkpt><trkpt lat="45.71306704118678" lon="8.528887367502849"><ele>334.83333333333337</ele><time>2026-04-07T12:14:51.001Z</time></trkpt><trkpt lat="45.71314154167299" lon="8.528813414176177"><ele>335.0</ele><time>2026-04-07T12:14:53.001Z</time></trkpt><trkpt lat="45.71323219671235" lon="8.528754835300441"><ele>334.6666666666667</ele><time>2026-04-07T12:14:55.001Z</time></trkpt><trkpt lat="45.71328445468425" lon="8.528648973764728"><ele>334.33333333333337</ele><time>2026-04-07T12:14:57.001Z</time></trkpt><trkpt lat="45.71335299578271" lon="8.528585410762437"><ele>334.0</ele><time>2026-04-07T12:15:00.001Z</time></trkpt><trkpt lat="45.713415325948546" lon="8.5284886139951"><ele>333.6666666666667</ele><time>2026-04-07T12:15:02.001Z</time></trkpt><trkpt lat="45.71346979948516" lon="8.52840989499523"><ele>333.3333333333333</ele><time>2026-04-07T12:15:04.001Z</time></trkpt><trkpt lat="45.71353325244489" lon="8.528364050203743"><ele>333.0</ele><time>2026-04-07T12:15:06.001Z</time></trkpt><trkpt lat="45.71363139140268" lon="8.528337379798907"><ele>333.0</ele><time>2026-04-07T12:15:08.002Z</time></trkpt><trkpt lat="45.7137129796132" lon="8.528336603991894"><ele>333.0</ele><time>2026-04-07T12:15:10.002Z</time></trkpt><trkpt lat="45.713801680444085" lon="8.52840894124159"><ele>333.0</ele><time>2026-04-07T12:15:13.002Z</time></trkpt><trkpt lat="45.713887392336126" lon="8.528564597488442"><ele>333.0</ele><time>2026-04-07T12:15:15.002Z</time></trkpt><trkpt lat="45.71395290445696" lon="8.528672516101159"><ele>333.0</ele><time>2026-04-07T12:15:16.002Z</time></trkpt><trkpt lat="45.714007762856276" lon="8.528734106266809"><ele>332.2</ele><time>2026-04-07T12:15:17.002Z</time></trkpt><trkpt lat="45.71409126501048" lon="8.528808421270988"><ele>331.4</ele><time>2026-04-07T12:15:18.002Z</time></trkpt><trkpt lat="45.714160562643926" lon="8.528945704155161"><ele>330.59999999999997</ele><time>2026-04-07T12:15:19.002Z</time></trkpt><trkpt lat="45.714237013490965" lon="8.529050790149016"><ele>329.79999999999995</ele><time>2026-04-07T12:15:20.002Z</time></trkpt><trkpt lat="45.71430266116916" lon="8.529156730257458"><ele>329.0</ele><time>2026-04-07T12:15:21.002Z</time></trkpt><trkpt lat="45.714366725981975" lon="8.529246851131129"><ele>329.0</ele><time>2026-04-07T12:15:22.002Z</time></trkpt><trkpt lat="45.71442235053251" lon="8.529332918146835"><ele>329.0</ele><time>2026-04-07T12:15:23.002Z</time></trkpt><trkpt lat="45.71448318172042" lon="8.529407764338112"><ele>329.0</ele><time>2026-04-07T12:15:24.002Z</time></trkpt><trkpt lat="45.71454463886246" lon="8.529497771546774"><ele>329.0</ele><time>2026-04-07T12:15:25.002Z</time></trkpt><trkpt lat="45.714611182389675" lon="8.529582836111892"><ele>329.0</ele><time>2026-04-07T12:15:26.002Z</time></trkpt><trkpt lat="45.71468377209798" lon="8.529678690938217"><ele>329.0</ele><time>2026-04-07T12:15:27.002Z</time></trkpt><trkpt lat="45.714794571559906" lon="8.529794468413916"><ele>329.0</ele><time>2026-04-07T12:15:29.002Z</time></trkpt><trkpt lat="45.71484816764921" lon="8.529882027132887"><ele>329.0</ele><time>2026-04-07T12:15:30.002Z</time></trkpt><trkpt lat="45.71490143606145" lon="8.529950039549922"><ele>329.0</ele><time>2026-04-07T12:15:31.002Z</time></trkpt><trkpt lat="45.71497842957222" lon="8.530061894149558"><ele>329.0</ele><time>2026-04-07T12:15:33.002Z</time></trkpt><trkpt lat="45.7150450934676" lon="8.530126882373292"><ele>329.0</ele><time>2026-04-07T12:15:35.002Z</time></trkpt><trkpt lat="45.715140169049945" lon="8.530131588663389"><ele>329.0</ele><time>2026-04-07T12:15:37.002Z</time></trkpt><trkpt lat="45.71522412267615" lon="8.530007038474443"><ele>329.1666666666667</ele><time>2026-04-07T12:15:39.002Z</time></trkpt><trkpt lat="45.715287089334936" lon="8.529957222034124"><ele>329.33333333333337</ele><time>2026-04-07T12:15:40.002Z</time></trkpt><trkpt lat="45.715357769356565" lon="8.52991095570644"><ele>329.5</ele><time>2026-04-07T12:15:41.002Z</time></trkpt><trkpt lat="45.71544670851651" lon="8.529872004483451"><ele>329.6666666666667</ele><time>2026-04-07T12:15:42.002Z</time></trkpt><trkpt lat="45.71551895950475" lon="8.52981072427372"><ele>329.8333333333333</ele><time>2026-04-07T12:15:43Z</time></trkpt><trkpt lat="45.715589164060056" lon="8.529736714267752"><ele>330.0</ele><time>2026-04-07T12:15:44Z</time></trkpt><trkpt lat="45.71565421838845" lon="8.529675255138777"><ele>330.0</ele><time>2026-04-07T12:15:45Z</time></trkpt><trkpt lat="45.71572369759942" lon="8.529623252999748"><ele>330.0</ele><time>2026-04-07T12:15:46Z</time></trkpt><trkpt lat="45.71578301835611" lon="8.52958340265246"><ele>330.0</ele><time>2026-04-07T12:15:47Z</time></trkpt><trkpt lat="45.715853537642786" lon="8.529543824514263"><ele>330.0</ele><time>2026-04-07T12:15:48Z</time></trkpt><trkpt lat="45.71593008590129" lon="8.529516438520076"><ele>330.0</ele><time>2026-04-07T12:15:49Z</time></trkpt><trkpt lat="45.71603538121333" lon="8.529468415686651"><ele>330.0</ele><time>2026-04-07T12:15:50Z</time></trkpt><trkpt lat="45.71611236236896" lon="8.529412269160366"><ele>330.0</ele><time>2026-04-07T12:15:51Z</time></trkpt><trkpt lat="45.716181383861276" lon="8.52934782111121"><ele>330.0</ele><time>2026-04-07T12:15:52Z</time></trkpt><trkpt lat="45.716256845013966" lon="8.529282531052157"><ele>330.0</ele><time>2026-04-07T12:15:53Z</time></trkpt><trkpt lat="45.71632517705808" lon="8.529204467596609"><ele>330.0</ele><time>2026-04-07T12:15:54Z</time></trkpt><trkpt lat="45.71640853629055" lon="8.529145331163148"><ele>330.0</ele><time>2026-04-07T12:15:55Z</time></trkpt><trkpt lat="45.716485027598814" lon="8.5290821495682"><ele>330.0</ele><time>2026-04-07T12:15:56Z</time></trkpt><trkpt lat="45.716564391177215" lon="8.529012821633826"><ele>330.0</ele><time>2026-04-07T12:15:57Z</time></trkpt><trkpt lat="45.71663644415492" lon="8.528935408284541"><ele>330.0</ele><time>2026-04-07T12:15:58Z</time></trkpt><trkpt lat="45.71672814422816" lon="8.528880933499625"><ele>330.0</ele><time>2026-04-07T12:15:59Z</time></trkpt><trkpt lat="45.71681409791558" lon="8.528819633470503"><ele>330.0</ele><time>2026-04-07T12:16:00Z</time></trkpt><trkpt lat="45.716899095818064" lon="8.528752971757063"><ele>330.0</ele><time>2026-04-07T12:16:01Z</time></trkpt><trkpt lat="45.71700073585475" lon="8.528689278319575"><ele>328.5</ele><time>2026-04-07T12:16:02Z</time></trkpt><trkpt lat="45.717101274222635" lon="8.528629849003053"><ele>327.0</ele><time>2026-04-07T12:16:03Z</time></trkpt><trkpt lat="45.71721338907737" lon="8.52855885016217"><ele>325.5</ele><time>2026-04-07T12:16:04Z</time></trkpt><trkpt lat="45.71733558053871" lon="8.528483734335438"><ele>324.0</ele><time>2026-04-07T12:16:05.001Z</time></trkpt><trkpt lat="45.71745977668833" lon="8.528428382371107"><ele>324.0</ele><time>2026-04-07T12:16:06.001Z</time></trkpt><trkpt lat="45.71756450258154" lon="8.528365664655198"><ele>324.0</ele><time>2026-04-07T12:16:07.001Z</time></trkpt><trkpt lat="45.7176720043349" lon="8.528292607279472"><ele>324.0</ele><time>2026-04-07T12:16:08.001Z</time></trkpt><trkpt lat="45.71778035438922" lon="8.528206963986884"><ele>324.0</ele><time>2026-04-07T12:16:09.001Z</time></trkpt><trkpt lat="45.71787035751073" lon="8.528134528801738"><ele>324.5</ele><time>2026-04-07T12:16:10.001Z</time></trkpt><trkpt lat="45.717983510999154" lon="8.528087742924662"><ele>325.0</ele><time>2026-04-07T12:16:11.001Z</time></trkpt><trkpt lat="45.71809575149105" lon="8.528025311457245"><ele>325.5</ele><time>2026-04-07T12:16:12.001Z</time></trkpt><trkpt lat="45.71819624546485" lon="8.527937665727737"><ele>326.0</ele><time>2026-04-07T12:16:13.001Z</time></trkpt><trkpt lat="45.71827827164591" lon="8.527838115716794"><ele>325.8</ele><time>2026-04-07T12:16:14.001Z</time></trkpt><trkpt lat="45.71835722939544" lon="8.52774460977782"><ele>325.6</ele><time>2026-04-07T12:16:15.001Z</time></trkpt><trkpt lat="45.71842934200223" lon="8.52766765649999"><ele>325.4</ele><time>2026-04-07T12:16:16.001Z</time></trkpt><trkpt lat="45.718488517070284" lon="8.52760325140566"><ele>325.2</ele><time>2026-04-07T12:16:17.001Z</time></trkpt><trkpt lat="45.71856789992897" lon="8.527511279366895"><ele>325.0</ele><time>2026-04-07T12:16:19.001Z</time></trkpt><trkpt lat="45.71863210101711" lon="8.527411340444923"><ele>325.0</ele><time>2026-04-07T12:16:21.001Z</time></trkpt><trkpt lat="45.71870648411786" lon="8.527246358648718"><ele>325.0</ele><time>2026-04-07T12:16:23.001Z</time></trkpt><trkpt lat="45.718762556247" lon="8.527138329481222"><ele>325.0</ele><time>2026-04-07T12:16:24.001Z</time></trkpt><trkpt lat="45.71882179253785" lon="8.527030403049757"><ele>325.0</ele><time>2026-04-07T12:16:25.001Z</time></trkpt><trkpt lat="45.71889181574395" lon="8.5269156821021"><ele>325.0</ele><time>2026-04-07T12:16:26.001Z</time></trkpt><trkpt lat="45.718961506499724" lon="8.526823035328503"><ele>326.2</ele><time>2026-04-07T12:16:27.001Z</time></trkpt><trkpt lat="45.719021437324905" lon="8.52673787944647"><ele>327.4</ele><time>2026-04-07T12:16:28.001Z</time></trkpt><trkpt lat="45.71909085557639" lon="8.526645571201579"><ele>328.6</ele><time>2026-04-07T12:16:29.001Z</time></trkpt><trkpt lat="45.71915534658255" lon="8.526535686942811"><ele>329.8</ele><time>2026-04-07T12:16:30.002Z</time></trkpt><trkpt lat="45.71922259141259" lon="8.52641653155871"><ele>331.0</ele><time>2026-04-07T12:16:31.002Z</time></trkpt><trkpt lat="45.71930280944233" lon="8.526308352796061"><ele>330.8</ele><time>2026-04-07T12:16:32.002Z</time></trkpt><trkpt lat="45.71937703908349" lon="8.526206284212595"><ele>330.6</ele><time>2026-04-07T12:16:33.002Z</time></trkpt><trkpt lat="45.71944735477342" lon="8.526122296141159"><ele>330.4</ele><time>2026-04-07T12:16:34.002Z</time></trkpt><trkpt lat="45.71951937225188" lon="8.526021972169334"><ele>330.2</ele><time>2026-04-07T12:16:35.002Z</time></trkpt><trkpt lat="45.71960525165696" lon="8.52592326007401"><ele>330.0</ele><time>2026-04-07T12:16:36.002Z</time></trkpt><trkpt lat="45.71968303614803" lon="8.525828250128933"><ele>330.0</ele><time>2026-04-07T12:16:37.002Z</time></trkpt><trkpt lat="45.719774908673735" lon="8.5257240123136"><ele>330.0</ele><time>2026-04-07T12:16:38.002Z</time></trkpt><trkpt lat="45.71986661914503" lon="8.525605543355553"><ele>330.0</ele><time>2026-04-07T12:16:39.002Z</time></trkpt><trkpt lat="45.719955417888144" lon="8.525488551248817"><ele>330.0</ele><time>2026-04-07T12:16:40.002Z</time></trkpt><trkpt lat="45.720054056860114" lon="8.525367178431447"><ele>330.75</ele><time>2026-04-07T12:16:41.002Z</time></trkpt><trkpt lat="45.7201518784304" lon="8.525242815436487"><ele>331.5</ele><time>2026-04-07T12:16:42.002Z</time></trkpt><trkpt lat="45.72025186067759" lon="8.525121143425991"><ele>332.25</ele><time>2026-04-07T12:16:43.002Z</time></trkpt><trkpt lat="45.72035035320055" lon="8.525004631428294"><ele>333.0</ele><time>2026-04-07T12:16:44.002Z</time></trkpt><trkpt lat="45.72044068934338" lon="8.52489205747454"><ele>333.0</ele><time>2026-04-07T12:16:45.002Z</time></trkpt><trkpt lat="45.720532525341085" lon="8.524775790243662"><ele>333.0</ele><time>2026-04-07T12:16:46.002Z</time></trkpt><trkpt lat="45.72062107037977" lon="8.524658954822874"><ele>333.0</ele><time>2026-04-07T12:16:47.002Z</time></trkpt><trkpt lat="45.72070846279798" lon="8.52453537770656"><ele>333.0</ele><time>2026-04-07T12:16:48.002Z</time></trkpt><trkpt lat="45.720798758671556" lon="8.52441071318436"><ele>333.25</ele><time>2026-04-07T12:16:49.002Z</time></trkpt><trkpt lat="45.72089320198054" lon="8.524280272274444"><ele>333.5</ele><time>2026-04-07T12:16:50.002Z</time></trkpt><trkpt lat="45.72097875081705" lon="8.524160352166612"><ele>333.75</ele><time>2026-04-07T12:16:51.002Z</time></trkpt><trkpt lat="45.721062898947" lon="8.524056222024829"><ele>334.0</ele><time>2026-04-07T12:16:52.002Z</time></trkpt><trkpt lat="45.72114964897692" lon="8.52394406105105"><ele>334.0</ele><time>2026-04-07T12:16:53.002Z</time></trkpt><trkpt lat="45.72124639966478" lon="8.523840039057013"><ele>334.0</ele><time>2026-04-07T12:16:54.002Z</time></trkpt><trkpt lat="45.721340835235544" lon="8.523750344343124"><ele>334.0</ele><time>2026-04-07T12:16:55.002Z</time></trkpt><trkpt lat="45.721444518687484" lon="8.523663319400463"><ele>334.0</ele><time>2026-04-07T12:16:56.002Z</time></trkpt><trkpt lat="45.72154151177079" lon="8.523575299818932"><ele>333.75</ele><time>2026-04-07T12:16:57.002Z</time></trkpt><trkpt lat="45.72164445690567" lon="8.52348565950367"><ele>333.5</ele><time>2026-04-07T12:16:58.002Z</time></trkpt><trkpt lat="45.721743192928585" lon="8.523393354552796"><ele>333.25</ele><time>2026-04-07T12:16:59.002Z</time></trkpt><trkpt lat="45.72183814083602" lon="8.523300279288241"><ele>333.0</ele><time>2026-04-07T12:17:00.002Z</time></trkpt><trkpt lat="45.72192981993503" lon="8.523188412214951"><ele>333.0</ele><time>2026-04-07T12:17:01.002Z</time></trkpt><trkpt lat="45.72202156344908" lon="8.523069251805211"><ele>333.0</ele><time>2026-04-07T12:17:02.002Z</time></trkpt><trkpt lat="45.72211425893965" lon="8.52296188953678"><ele>333.0</ele><time>2026-04-07T12:17:03.002Z</time></trkpt><trkpt lat="45.72220154571522" lon="8.522847785913157"><ele>333.0</ele><time>2026-04-07T12:17:04.002Z</time></trkpt><trkpt lat="45.72228695439078" lon="8.522734375880296"><ele>334.4</ele><time>2026-04-07T12:17:05.002Z</time></trkpt><trkpt lat="45.72236819052277" lon="8.522621641790673"><ele>335.79999999999995</ele><time>2026-04-07T12:17:06.002Z</time></trkpt><trkpt lat="45.72244455766775" lon="8.522499895225327"><ele>337.2</ele><time>2026-04-07T12:17:07.002Z</time></trkpt><trkpt lat="45.722524452562595" lon="8.522399918275703"><ele>338.6</ele><time>2026-04-07T12:17:08.003Z</time></trkpt><trkpt lat="45.7226164326517" lon="8.522303300731592"><ele>340.0</ele><time>2026-04-07T12:17:09.003Z</time></trkpt><trkpt lat="45.72270654158308" lon="8.522189099223397"><ele>339.25</ele><time>2026-04-07T12:17:10.003Z</time></trkpt><trkpt lat="45.72280217005111" lon="8.522079134250829"><ele>338.5</ele><time>2026-04-07T12:17:11.003Z</time></trkpt><trkpt lat="45.7229286859618" lon="8.521960567317839"><ele>337.75</ele><time>2026-04-07T12:17:12.003Z</time></trkpt><trkpt lat="45.72305180052589" lon="8.521832791415147"><ele>337.0</ele><time>2026-04-07T12:17:13.003Z</time></trkpt><trkpt lat="45.72317444764333" lon="8.521708695520552"><ele>339.0</ele><time>2026-04-07T12:17:14.003Z</time></trkpt><trkpt lat="45.72330128500844" lon="8.521585810036871"><ele>341.0</ele><time>2026-04-07T12:17:15.003Z</time></trkpt><trkpt lat="45.72343597425893" lon="8.521454982906736"><ele>343.0</ele><time>2026-04-07T12:17:16.003Z</time></trkpt><trkpt lat="45.723582375455976" lon="8.521308748083708"><ele>344.66666666666663</ele><time>2026-04-07T12:17:17.003Z</time></trkpt><trkpt lat="45.723724539141095" lon="8.52116190746643"><ele>346.3333333333333</ele><time>2026-04-07T12:17:18.003Z</time></trkpt><trkpt lat="45.723855119633065" lon="8.521022078333738"><ele>348.0</ele><time>2026-04-07T12:17:19.003Z</time></trkpt><trkpt lat="45.723970919446515" lon="8.520888155181591"><ele>348.0</ele><time>2026-04-07T12:17:20.003Z</time></trkpt><trkpt lat="45.72409654769279" lon="8.520740199877146"><ele>348.0</ele><time>2026-04-07T12:17:21.003Z</time></trkpt><trkpt lat="45.72422673169269" lon="8.520599847113166"><ele>348.0</ele><time>2026-04-07T12:17:22.003Z</time></trkpt><trkpt lat="45.72435764612959" lon="8.520423031477184"><ele>348.5</ele><time>2026-04-07T12:17:23.003Z</time></trkpt><trkpt lat="45.724477828103815" lon="8.520275930178974"><ele>349.0</ele><time>2026-04-07T12:17:24.003Z</time></trkpt><trkpt lat="45.72459114035379" lon="8.520154383838111"><ele>349.5</ele><time>2026-04-07T12:17:25.003Z</time></trkpt><trkpt lat="45.724693221343834" lon="8.520036264777172"><ele>350.0</ele><time>2026-04-07T12:17:26.003Z</time></trkpt><trkpt lat="45.72478837669638" lon="8.519914577055916"><ele>350.0</ele><time>2026-04-07T12:17:27.003Z</time></trkpt><trkpt lat="45.72488650690123" lon="8.519799235936148"><ele>350.0</ele><time>2026-04-07T12:17:28.003Z</time></trkpt><trkpt lat="45.72497540206481" lon="8.519718273681578"><ele>350.0</ele><time>2026-04-07T12:17:29.003Z</time></trkpt><trkpt lat="45.725051930436656" lon="8.519639418420578"><ele>350.0</ele><time>2026-04-07T12:17:30.003Z</time></trkpt><trkpt lat="45.725108840629964" lon="8.5195668082947"><ele>350.0</ele><time>2026-04-07T12:17:31.003Z</time></trkpt><trkpt lat="45.725167981338345" lon="8.51944904571703"><ele>350.0</ele><time>2026-04-07T12:17:33.003Z</time></trkpt><trkpt lat="45.72515673555062" lon="8.51933016933517"><ele>350.0</ele><time>2026-04-07T12:17:35.003Z</time></trkpt><trkpt lat="45.72512188015089" lon="8.5192081906361"><ele>350.0</ele><time>2026-04-07T12:17:37.003Z</time></trkpt><trkpt lat="45.725165206353076" lon="8.519053380678589"><ele>350.0</ele><time>2026-04-07T12:17:39.003Z</time></trkpt><trkpt lat="45.725228164191144" lon="8.518987562769256"><ele>350.0</ele><time>2026-04-07T12:17:40.003Z</time></trkpt><trkpt lat="45.725286662242844" lon="8.518921878256227"><ele>350.0</ele><time>2026-04-07T12:17:41.003Z</time></trkpt><trkpt lat="45.725340550503724" lon="8.518839973944669"><ele>350.0</ele><time>2026-04-07T12:17:42.003Z</time></trkpt><trkpt lat="45.72540780710493" lon="8.518768487791602"><ele>350.0</ele><time>2026-04-07T12:17:43.003Z</time></trkpt><trkpt lat="45.72547552152087" lon="8.518681680736268"><ele>350.0</ele><time>2026-04-07T12:17:44.003Z</time></trkpt><trkpt lat="45.725538346176904" lon="8.51859250544253"><ele>350.0</ele><time>2026-04-07T12:17:45.003Z</time></trkpt><trkpt lat="45.72561677913908" lon="8.518511178118388"><ele>350.0</ele><time>2026-04-07T12:17:46.003Z</time></trkpt><trkpt lat="45.72569759314596" lon="8.51844565755261"><ele>349.8</ele><time>2026-04-07T12:17:47.003Z</time></trkpt><trkpt lat="45.72578337978104" lon="8.518385817906978"><ele>349.6</ele><time>2026-04-07T12:17:48.004Z</time></trkpt><trkpt lat="45.72587544635751" lon="8.518333075564886"><ele>349.4</ele><time>2026-04-07T12:17:49.001Z</time></trkpt><trkpt lat="45.72596090623936" lon="8.518264899749276"><ele>349.2</ele><time>2026-04-07T12:17:50.001Z</time></trkpt><trkpt lat="45.72604180568538" lon="8.51818724551527"><ele>349.0</ele><time>2026-04-07T12:17:51.001Z</time></trkpt><trkpt lat="45.72612013754616" lon="8.51811723216276"><ele>349.0</ele><time>2026-04-07T12:17:52.001Z</time></trkpt><trkpt lat="45.72619238537843" lon="8.518034047271719"><ele>349.0</ele><time>2026-04-07T12:17:53.001Z</time></trkpt><trkpt lat="45.726252057908866" lon="8.517975402267965"><ele>349.0</ele><time>2026-04-07T12:17:54.001Z</time></trkpt><trkpt lat="45.72631900647628" lon="8.517910266758472"><ele>349.0</ele><time>2026-04-07T12:17:55.001Z</time></trkpt><trkpt lat="45.72638222121584" lon="8.51783265575972"><ele>349.0</ele><time>2026-04-07T12:17:56.001Z</time></trkpt><trkpt lat="45.7264270447474" lon="8.517753159114136"><ele>349.0</ele><time>2026-04-07T12:17:57.001Z</time></trkpt><trkpt lat="45.726473204481124" lon="8.51766052388874"><ele>349.79999999999995</ele><time>2026-04-07T12:17:58.001Z</time></trkpt><trkpt lat="45.72651055096877" lon="8.51754934954033"><ele>350.59999999999997</ele><time>2026-04-07T12:17:59.001Z</time></trkpt><trkpt lat="45.72654848924822" lon="8.517427385677516"><ele>351.4</ele><time>2026-04-07T12:18:00.001Z</time></trkpt><trkpt lat="45.72660125016848" lon="8.517310170911566"><ele>352.2</ele><time>2026-04-07T12:18:01.001Z</time></trkpt><trkpt lat="45.72667364068058" lon="8.517220469887189"><ele>353.0</ele><time>2026-04-07T12:18:02.001Z</time></trkpt><trkpt lat="45.72673531188716" lon="8.517127093829695"><ele>353.0</ele><time>2026-04-07T12:18:03.001Z</time></trkpt><trkpt lat="45.72679665038588" lon="8.517047926475636"><ele>353.0</ele><time>2026-04-07T12:18:04.001Z</time></trkpt><trkpt lat="45.7268634078364" lon="8.516984052591738"><ele>353.0</ele><time>2026-04-07T12:18:05.001Z</time></trkpt><trkpt lat="45.726934933556585" lon="8.51693393312158"><ele>353.0</ele><time>2026-04-07T12:18:06.001Z</time></trkpt><trkpt lat="45.72700195956903" lon="8.5168642225015"><ele>353.0</ele><time>2026-04-07T12:18:07.001Z</time></trkpt><trkpt lat="45.72707208304537" lon="8.516765526443496"><ele>353.0</ele><time>2026-04-07T12:18:08.001Z</time></trkpt><trkpt lat="45.72715462415381" lon="8.516654929555733"><ele>353.0</ele><time>2026-04-07T12:18:09.001Z</time></trkpt><trkpt lat="45.72724039655455" lon="8.516540346786424"><ele>353.0</ele><time>2026-04-07T12:18:10.001Z</time></trkpt><trkpt lat="45.72733287573969" lon="8.516406201865978"><ele>353.0</ele><time>2026-04-07T12:18:11.001Z</time></trkpt><trkpt lat="45.72742143862582" lon="8.51626993268005"><ele>353.0</ele><time>2026-04-07T12:18:12.001Z</time></trkpt><trkpt lat="45.72751360043698" lon="8.516115247017126"><ele>354.0</ele><time>2026-04-07T12:18:13.001Z</time></trkpt><trkpt lat="45.72759915899062" lon="8.515970665962962"><ele>355.0</ele><time>2026-04-07T12:18:14.001Z</time></trkpt><trkpt lat="45.727675845892335" lon="8.515835484716893"><ele>356.0</ele><time>2026-04-07T12:18:15.001Z</time></trkpt><trkpt lat="45.727750001214176" lon="8.51570912892174"><ele>357.0</ele><time>2026-04-07T12:18:16.001Z</time></trkpt><trkpt lat="45.72782410187659" lon="8.515578809052254"><ele>357.0</ele><time>2026-04-07T12:18:17.001Z</time></trkpt><trkpt lat="45.72790157690013" lon="8.515445804436963"><ele>357.0</ele><time>2026-04-07T12:18:18.001Z</time></trkpt><trkpt lat="45.72797950718556" lon="8.515327622322255"><ele>357.0</ele><time>2026-04-07T12:18:19.001Z</time></trkpt><trkpt lat="45.72806156794097" lon="8.515210691953444"><ele>357.0</ele><time>2026-04-07T12:18:20.001Z</time></trkpt><trkpt lat="45.72813638837192" lon="8.515096639488306"><ele>357.8</ele><time>2026-04-07T12:18:21.001Z</time></trkpt><trkpt lat="45.72820302796192" lon="8.514978950772765"><ele>358.6</ele><time>2026-04-07T12:18:22.001Z</time></trkpt><trkpt lat="45.72826959785029" lon="8.514871467399772"><ele>359.40000000000003</ele><time>2026-04-07T12:18:23.001Z</time></trkpt><trkpt lat="45.7283312418012" lon="8.514733852316684"><ele>360.20000000000005</ele><time>2026-04-07T12:18:24.001Z</time></trkpt><trkpt lat="45.728376391455505" lon="8.514601234457897"><ele>361.0</ele><time>2026-04-07T12:18:25.001Z</time></trkpt><trkpt lat="45.72842241248928" lon="8.514458753718522"><ele>360.6</ele><time>2026-04-07T12:18:26.001Z</time></trkpt><trkpt lat="45.728464381335826" lon="8.514362035028308"><ele>360.20000000000005</ele><time>2026-04-07T12:18:27.001Z</time></trkpt><trkpt lat="45.72853373030649" lon="8.514262333096832"><ele>359.79999999999995</ele><time>2026-04-07T12:18:28.001Z</time></trkpt><trkpt lat="45.72861603349696" lon="8.51415909602569"><ele>359.4</ele><time>2026-04-07T12:18:29.001Z</time></trkpt><trkpt lat="45.72869817569909" lon="8.514031252040244"><ele>359.0</ele><time>2026-04-07T12:18:30.001Z</time></trkpt><trkpt lat="45.7287901581552" lon="8.513898329870562"><ele>359.0</ele><time>2026-04-07T12:18:31.001Z</time></trkpt><trkpt lat="45.72888733956017" lon="8.513777599979528"><ele>359.0</ele><time>2026-04-07T12:18:32.001Z</time></trkpt><trkpt lat="45.72898429200488" lon="8.513655723793285"><ele>359.0</ele><time>2026-04-07T12:18:33.001Z</time></trkpt><trkpt lat="45.72908425613528" lon="8.513534754460908"><ele>359.0</ele><time>2026-04-07T12:18:34.001Z</time></trkpt><trkpt lat="45.729168514798644" lon="8.513403384985393"><ele>359.75</ele><time>2026-04-07T12:18:35.001Z</time></trkpt><trkpt lat="45.72924068155747" lon="8.513274165715725"><ele>360.5</ele><time>2026-04-07T12:18:36.001Z</time></trkpt><trkpt lat="45.72930742969434" lon="8.513134627884918"><ele>361.25</ele><time>2026-04-07T12:18:37.001Z</time></trkpt><trkpt lat="45.72938614296315" lon="8.513007839295675"><ele>362.0</ele><time>2026-04-07T12:18:38.001Z</time></trkpt><trkpt lat="45.72946987651814" lon="8.512894921354684"><ele>362.0</ele><time>2026-04-07T12:18:39.001Z</time></trkpt><trkpt lat="45.729546184546294" lon="8.512796171520863"><ele>362.0</ele><time>2026-04-07T12:18:40.001Z</time></trkpt><trkpt lat="45.72961219855348" lon="8.512681487075175"><ele>362.0</ele><time>2026-04-07T12:18:41.001Z</time></trkpt><trkpt lat="45.72968349515527" lon="8.5125453457107"><ele>362.0</ele><time>2026-04-07T12:18:42.001Z</time></trkpt><trkpt lat="45.72974651231112" lon="8.512440627058387"><ele>362.0</ele><time>2026-04-07T12:18:43.001Z</time></trkpt><trkpt lat="45.7298049992623" lon="8.512351944985854"><ele>362.0</ele><time>2026-04-07T12:18:44.001Z</time></trkpt><trkpt lat="45.72987702613861" lon="8.51226115348338"><ele>362.0</ele><time>2026-04-07T12:18:45.002Z</time></trkpt><trkpt lat="45.72997275413808" lon="8.512147206761767"><ele>362.0</ele><time>2026-04-07T12:18:46.002Z</time></trkpt><trkpt lat="45.73007319724842" lon="8.512024450900604"><ele>362.0</ele><time>2026-04-07T12:18:47.002Z</time></trkpt><trkpt lat="45.730174471385375" lon="8.511887393858798"><ele>362.0</ele><time>2026-04-07T12:18:48.002Z</time></trkpt><trkpt lat="45.730252163285556" lon="8.511761992137556"><ele>362.0</ele><time>2026-04-07T12:18:49.002Z</time></trkpt><trkpt lat="45.730336021128664" lon="8.511616948173907"><ele>362.0</ele><time>2026-04-07T12:18:50.002Z</time></trkpt><trkpt lat="45.73041329604909" lon="8.511480291154427"><ele>362.0</ele><time>2026-04-07T12:18:51.002Z</time></trkpt><trkpt lat="45.73048770034497" lon="8.511343706916898"><ele>362.8</ele><time>2026-04-07T12:18:52.002Z</time></trkpt><trkpt lat="45.73055880700243" lon="8.511228156775696"><ele>363.6</ele><time>2026-04-07T12:18:53.002Z</time></trkpt><trkpt lat="45.73062460403045" lon="8.51112365114168"><ele>364.40000000000003</ele><time>2026-04-07T12:18:54.002Z</time></trkpt><trkpt lat="45.730696918953846" lon="8.511018958856347"><ele>365.20000000000005</ele><time>2026-04-07T12:18:55.002Z</time></trkpt><trkpt lat="45.730752118963046" lon="8.510892375679314"><ele>366.0</ele><time>2026-04-07T12:18:56.002Z</time></trkpt><trkpt lat="45.730777393950106" lon="8.510761643695385"><ele>366.0</ele><time>2026-04-07T12:18:57.002Z</time></trkpt><trkpt lat="45.73080087982031" lon="8.510596020788668"><ele>366.0</ele><time>2026-04-07T12:18:58.002Z</time></trkpt><trkpt lat="45.73084008304066" lon="8.51040340679601"><ele>366.0</ele><time>2026-04-07T12:18:59.002Z</time></trkpt><trkpt lat="45.730856255584676" lon="8.510248630549532"><ele>366.0</ele><time>2026-04-07T12:19:00.002Z</time></trkpt><trkpt lat="45.730849402539896" lon="8.510102629056664"><ele>365.8333333333333</ele><time>2026-04-07T12:19:01.002Z</time></trkpt><trkpt lat="45.730843849920724" lon="8.509968823908356"><ele>365.6666666666667</ele><time>2026-04-07T12:19:02.002Z</time></trkpt><trkpt lat="45.73085244450469" lon="8.509845167267379"><ele>365.5</ele><time>2026-04-07T12:19:03.002Z</time></trkpt><trkpt lat="45.73085522975047" lon="8.50973218475277"><ele>365.33333333333337</ele><time>2026-04-07T12:19:04.002Z</time></trkpt><trkpt lat="45.730861773603216" lon="8.509622730881178"><ele>365.1666666666667</ele><time>2026-04-07T12:19:05.002Z</time></trkpt><trkpt lat="45.73086709572344" lon="8.509525076999621"><ele>365.0</ele><time>2026-04-07T12:19:06.002Z</time></trkpt><trkpt lat="45.73087627175047" lon="8.509406292120058"><ele>364.6</ele><time>2026-04-07T12:19:07.002Z</time></trkpt><trkpt lat="45.73088104814897" lon="8.509264997570398"><ele>364.2</ele><time>2026-04-07T12:19:08.002Z</time></trkpt><trkpt lat="45.730895254013696" lon="8.509138352103692"><ele>363.79999999999995</ele><time>2026-04-07T12:19:09.002Z</time></trkpt><trkpt lat="45.73089904453306" lon="8.508992998510966"><ele>363.4</ele><time>2026-04-07T12:19:10.002Z</time></trkpt><trkpt lat="45.73087753236339" lon="8.50883281371002"><ele>363.0</ele><time>2026-04-07T12:19:11.002Z</time></trkpt><trkpt lat="45.730850257796966" lon="8.508660449837482"><ele>363.0</ele><time>2026-04-07T12:19:12.002Z</time></trkpt><trkpt lat="45.730828772249204" lon="8.508478181473455"><ele>363.0</ele><time>2026-04-07T12:19:13.002Z</time></trkpt><trkpt lat="45.73082100757187" lon="8.508301583961156"><ele>363.0</ele><time>2026-04-07T12:19:14.002Z</time></trkpt><trkpt lat="45.730809529491665" lon="8.50815350765877"><ele>363.0</ele><time>2026-04-07T12:19:15.002Z</time></trkpt><trkpt lat="45.7308046010658" lon="8.508031794404237"><ele>363.0</ele><time>2026-04-07T12:19:16.002Z</time></trkpt><trkpt lat="45.73079865011892" lon="8.507921976740366"><ele>362.8333333333333</ele><time>2026-04-07T12:19:17.002Z</time></trkpt><trkpt lat="45.73080081407553" lon="8.507817942578523"><ele>362.6666666666667</ele><time>2026-04-07T12:19:18.002Z</time></trkpt><trkpt lat="45.730829169448896" lon="8.507723537467589"><ele>362.5</ele><time>2026-04-07T12:19:19.002Z</time></trkpt><trkpt lat="45.73087869881111" lon="8.507623073661195"><ele>362.33333333333337</ele><time>2026-04-07T12:19:20.002Z</time></trkpt><trkpt lat="45.73094136215372" lon="8.50752296628177"><ele>362.1666666666667</ele><time>2026-04-07T12:19:21.002Z</time></trkpt><trkpt lat="45.73100999802379" lon="8.507405209277218"><ele>362.0</ele><time>2026-04-07T12:19:22.002Z</time></trkpt><trkpt lat="45.73108137786635" lon="8.507323689570798"><ele>362.0</ele><time>2026-04-07T12:19:23.002Z</time></trkpt><trkpt lat="45.73117694280203" lon="8.507246948273503"><ele>362.0</ele><time>2026-04-07T12:19:25.002Z</time></trkpt><trkpt lat="45.73123519694072" lon="8.507183445748188"><ele>362.0</ele><time>2026-04-07T12:19:26.002Z</time></trkpt><trkpt lat="45.73130201691827" lon="8.50710149221321"><ele>362.0</ele><time>2026-04-07T12:19:27.002Z</time></trkpt><trkpt lat="45.7313789123279" lon="8.507020442028473"><ele>362.0</ele><time>2026-04-07T12:19:28.002Z</time></trkpt><trkpt lat="45.73145169715363" lon="8.506958379887788"><ele>362.0</ele><time>2026-04-07T12:19:29.002Z</time></trkpt><trkpt lat="45.73152672348589" lon="8.50690880390082"><ele>362.0</ele><time>2026-04-07T12:19:30.002Z</time></trkpt><trkpt lat="45.73161445525716" lon="8.506861215464134"><ele>362.0</ele><time>2026-04-07T12:19:31.002Z</time></trkpt><trkpt lat="45.73169639904811" lon="8.50682417997291"><ele>362.0</ele><time>2026-04-07T12:19:32.002Z</time></trkpt><trkpt lat="45.73177858048343" lon="8.50677327583242"><ele>362.0</ele><time>2026-04-07T12:19:33.002Z</time></trkpt><trkpt lat="45.7318584835161" lon="8.506723292068608"><ele>362.0</ele><time>2026-04-07T12:19:34.003Z</time></trkpt><trkpt lat="45.73195242398089" lon="8.506664847347663"><ele>362.0</ele><time>2026-04-07T12:19:35.003Z</time></trkpt><trkpt lat="45.732044304287115" lon="8.506592084424302"><ele>362.0</ele><time>2026-04-07T12:19:36.003Z</time></trkpt><trkpt lat="45.73212342101925" lon="8.50652991158967"><ele>362.0</ele><time>2026-04-07T12:19:37.003Z</time></trkpt><trkpt lat="45.73220754817265" lon="8.506464896934432"><ele>362.0</ele><time>2026-04-07T12:19:38.003Z</time></trkpt><trkpt lat="45.73230254405076" lon="8.506392764290368"><ele>362.0</ele><time>2026-04-07T12:19:39.003Z</time></trkpt><trkpt lat="45.732402336633655" lon="8.506319252761825"><ele>363.0</ele><time>2026-04-07T12:19:40.003Z</time></trkpt><trkpt lat="45.73250982812175" lon="8.506237131373886"><ele>364.0</ele><time>2026-04-07T12:19:41.003Z</time></trkpt><trkpt lat="45.7326007606718" lon="8.506178661038502"><ele>365.0</ele><time>2026-04-07T12:19:42.003Z</time></trkpt><trkpt lat="45.73270089399626" lon="8.50611989652985"><ele>366.0</ele><time>2026-04-07T12:19:43.003Z</time></trkpt><trkpt lat="45.732801382414806" lon="8.506064875537446"><ele>367.0</ele><time>2026-04-07T12:19:44.003Z</time></trkpt><trkpt lat="45.73292005711908" lon="8.505998382862234"><ele>367.0</ele><time>2026-04-07T12:19:45.003Z</time></trkpt><trkpt lat="45.73303496660567" lon="8.50594023564377"><ele>367.0</ele><time>2026-04-07T12:19:46.003Z</time></trkpt><trkpt lat="45.73314115626837" lon="8.505887995310825"><ele>367.0</ele><time>2026-04-07T12:19:47.003Z</time></trkpt><trkpt lat="45.73324941028564" lon="8.505845397555756"><ele>367.0</ele><time>2026-04-07T12:19:48.003Z</time></trkpt><trkpt lat="45.73333347889241" lon="8.505794776497764"><ele>367.0</ele><time>2026-04-07T12:19:49.003Z</time></trkpt><trkpt lat="45.7334102887648" lon="8.50573297297108"><ele>367.0</ele><time>2026-04-07T12:19:50.003Z</time></trkpt><trkpt lat="45.733478111903594" lon="8.505659169167096"><ele>367.0</ele><time>2026-04-07T12:19:51.003Z</time></trkpt><trkpt lat="45.733546756501674" lon="8.505571840494312"><ele>367.0</ele><time>2026-04-07T12:19:52.003Z</time></trkpt><trkpt lat="45.73362771499911" lon="8.505479467798178"><ele>367.0</ele><time>2026-04-07T12:19:53.003Z</time></trkpt><trkpt lat="45.73371012421824" lon="8.505391000863064"><ele>367.0</ele><time>2026-04-07T12:19:54.003Z</time></trkpt><trkpt lat="45.73378311755272" lon="8.50530845468011"><ele>366.66666666666663</ele><time>2026-04-07T12:19:55.001Z</time></trkpt><trkpt lat="45.73386716992559" lon="8.5052038559747"><ele>366.3333333333333</ele><time>2026-04-07T12:19:56.001Z</time></trkpt><trkpt lat="45.73394075636637" lon="8.505106153677408"><ele>366.0</ele><time>2026-04-07T12:19:57.001Z</time></trkpt><trkpt lat="45.73399322264268" lon="8.505015726783391"><ele>365.6666666666667</ele><time>2026-04-07T12:19:58.001Z</time></trkpt><trkpt lat="45.73404387548259" lon="8.50493106718467"><ele>365.33333333333337</ele><time>2026-04-07T12:19:59.001Z</time></trkpt><trkpt lat="45.734088526904316" lon="8.504860652921616"><ele>365.0</ele><time>2026-04-07T12:20:00.001Z</time></trkpt><trkpt lat="45.734140043299654" lon="8.504752291361065"><ele>365.0</ele><time>2026-04-07T12:20:01.001Z</time></trkpt><trkpt lat="45.73417357681379" lon="8.504639881775692"><ele>365.0</ele><time>2026-04-07T12:20:02.001Z</time></trkpt><trkpt lat="45.73419884092532" lon="8.504514174705916"><ele>365.0</ele><time>2026-04-07T12:20:03.001Z</time></trkpt><trkpt lat="45.73420627438025" lon="8.50438858853846"><ele>365.0</ele><time>2026-04-07T12:20:04.001Z</time></trkpt><trkpt lat="45.73419950529115" lon="8.50426449994609"><ele>365.0</ele><time>2026-04-07T12:20:05.001Z</time></trkpt><trkpt lat="45.734171649907225" lon="8.504157298423465"><ele>365.0</ele><time>2026-04-07T12:20:06.001Z</time></trkpt><trkpt lat="45.734124850480484" lon="8.504065974074546"><ele>365.1666666666667</ele><time>2026-04-07T12:20:07.001Z</time></trkpt><trkpt lat="45.73407180793359" lon="8.503974384005257"><ele>365.33333333333337</ele><time>2026-04-07T12:20:08Z</time></trkpt><trkpt lat="45.73401561135881" lon="8.503885189481066"><ele>365.5</ele><time>2026-04-07T12:20:09.001Z</time></trkpt><trkpt lat="45.733957305727635" lon="8.503806232031499"><ele>365.6666666666667</ele><time>2026-04-07T12:20:10.001Z</time></trkpt><trkpt lat="45.73388392390959" lon="8.503723827711099"><ele>365.8333333333333</ele><time>2026-04-07T12:20:11.001Z</time></trkpt><trkpt lat="45.73381607147632" lon="8.503624363150314"><ele>366.0</ele><time>2026-04-07T12:20:12.001Z</time></trkpt><trkpt lat="45.73375388254921" lon="8.503513542636536"><ele>365.5</ele><time>2026-04-07T12:20:13.001Z</time></trkpt><trkpt lat="45.73367695451497" lon="8.503385694077341"><ele>365.0</ele><time>2026-04-07T12:20:14.001Z</time></trkpt><trkpt lat="45.73359592557522" lon="8.50325560421956"><ele>364.5</ele><time>2026-04-07T12:20:15.001Z</time></trkpt><trkpt lat="45.73351708823874" lon="8.50312998861346"><ele>364.0</ele><time>2026-04-07T12:20:16.001Z</time></trkpt><trkpt lat="45.73345803793235" lon="8.5030256351887"><ele>363.66666666666663</ele><time>2026-04-07T12:20:17.001Z</time></trkpt><trkpt lat="45.73341392220353" lon="8.502947711739212"><ele>363.3333333333333</ele><time>2026-04-07T12:20:18.001Z</time></trkpt><trkpt lat="45.733382633506444" lon="8.502853428559453"><ele>363.0</ele><time>2026-04-07T12:20:20.001Z</time></trkpt><trkpt lat="45.733391017623205" lon="8.502756431958852"><ele>362.6666666666667</ele><time>2026-04-07T12:20:23.001Z</time></trkpt><trkpt lat="45.73342374380461" lon="8.502658576913039"><ele>362.33333333333337</ele><time>2026-04-07T12:20:45.001Z</time></trkpt><trkpt lat="45.73339812536974" lon="8.502480244689806"><ele>362.0</ele><time>2026-04-07T12:20:47.001Z</time></trkpt><trkpt lat="45.733323797113584" lon="8.502396190603335"><ele>360.75</ele><time>2026-04-07T12:20:48.001Z</time></trkpt><trkpt lat="45.733256745420356" lon="8.50226747899258"><ele>359.5</ele><time>2026-04-07T12:20:49.001Z</time></trkpt><trkpt lat="45.733174505544866" lon="8.502126503974813"><ele>358.25</ele><time>2026-04-07T12:20:50.001Z</time></trkpt><trkpt lat="45.73307880233721" lon="8.501983110048771"><ele>357.0</ele><time>2026-04-07T12:20:51.001Z</time></trkpt><trkpt lat="45.732974787198934" lon="8.501839739835294"><ele>356.6666666666667</ele><time>2026-04-07T12:20:52.001Z</time></trkpt><trkpt lat="45.732864686117125" lon="8.501695814062797"><ele>356.33333333333337</ele><time>2026-04-07T12:20:53.001Z</time></trkpt><trkpt lat="45.73275348846295" lon="8.50155251565016"><ele>356.0</ele><time>2026-04-07T12:20:54.001Z</time></trkpt><trkpt lat="45.732636178625974" lon="8.50140820740517"><ele>356.0</ele><time>2026-04-07T12:20:55.001Z</time></trkpt><trkpt lat="45.732513138422014" lon="8.501270256319378"><ele>356.0</ele><time>2026-04-07T12:20:56.001Z</time></trkpt><trkpt lat="45.732372686881085" lon="8.501129778770387"><ele>356.0</ele><time>2026-04-07T12:20:57.001Z</time></trkpt><trkpt lat="45.73222447640234" lon="8.50098523478696"><ele>355.33333333333337</ele><time>2026-04-07T12:20:58.001Z</time></trkpt><trkpt lat="45.73207796517586" lon="8.500841808151167"><ele>354.6666666666667</ele><time>2026-04-07T12:20:59.001Z</time></trkpt><trkpt lat="45.731939364067195" lon="8.500704575424173"><ele>354.0</ele><time>2026-04-07T12:21:00.001Z</time></trkpt><trkpt lat="45.73180777049399" lon="8.500572262038824"><ele>353.25</ele><time>2026-04-07T12:21:01.001Z</time></trkpt><trkpt lat="45.731681820437984" lon="8.500444661099682"><ele>352.5</ele><time>2026-04-07T12:21:02.002Z</time></trkpt><trkpt lat="45.73156543618253" lon="8.500326159927413"><ele>351.75</ele><time>2026-04-07T12:21:03.002Z</time></trkpt><trkpt lat="45.7314526041615" lon="8.500214813712144"><ele>351.0</ele><time>2026-04-07T12:21:04.002Z</time></trkpt><trkpt lat="45.73135655382193" lon="8.500118826826851"><ele>350.4</ele><time>2026-04-07T12:21:05.002Z</time></trkpt><trkpt lat="45.73127875723229" lon="8.500038501793838"><ele>349.8</ele><time>2026-04-07T12:21:06.002Z</time></trkpt><trkpt lat="45.73122046488644" lon="8.499967243261864"><ele>349.2</ele><time>2026-04-07T12:21:07.002Z</time></trkpt><trkpt lat="45.73118312195697" lon="8.499784511792877"><ele>348.59999999999997</ele><time>2026-04-07T12:21:09.002Z</time></trkpt><trkpt lat="45.73119601720701" lon="8.499657016863031"><ele>348.0</ele><time>2026-04-07T12:21:10.002Z</time></trkpt><trkpt lat="45.73122084506356" lon="8.499507453975585"><ele>347.79999999999995</ele><time>2026-04-07T12:21:11.002Z</time></trkpt><trkpt lat="45.73123905576265" lon="8.499347614436788"><ele>347.6</ele><time>2026-04-07T12:21:12.002Z</time></trkpt><trkpt lat="45.73125978182526" lon="8.49916788918474"><ele>347.4</ele><time>2026-04-07T12:21:13.002Z</time></trkpt><trkpt lat="45.73128205364305" lon="8.499031027589933"><ele>347.20000000000005</ele><time>2026-04-07T12:21:14.002Z</time></trkpt><trkpt lat="45.73130273398668" lon="8.49890300101412"><ele>347.0</ele><time>2026-04-07T12:21:15.002Z</time></trkpt><trkpt lat="45.7313233290604" lon="8.498787293326975"><ele>346.6666666666667</ele><time>2026-04-07T12:21:16.002Z</time></trkpt><trkpt lat="45.731338364585945" lon="8.498672916511751"><ele>346.33333333333337</ele><time>2026-04-07T12:21:17.002Z</time></trkpt><trkpt lat="45.73135033869077" lon="8.498567029596725"><ele>346.0</ele><time>2026-04-07T12:21:18.002Z</time></trkpt><trkpt lat="45.7313550850895" lon="8.498453188514814"><ele>345.6666666666667</ele><time>2026-04-07T12:21:19.002Z</time></trkpt><trkpt lat="45.7313566014941" lon="8.498323146481438"><ele>345.3333333333333</ele><time>2026-04-07T12:21:20.002Z</time></trkpt><trkpt lat="45.73134809597658" lon="8.498179518987381"><ele>345.0</ele><time>2026-04-07T12:21:21.002Z</time></trkpt><trkpt lat="45.73132699569037" lon="8.498015131811382"><ele>344.6</ele><time>2026-04-07T12:21:22.002Z</time></trkpt><trkpt lat="45.73131769551403" lon="8.497861707395762"><ele>344.2</ele><time>2026-04-07T12:21:23.002Z</time></trkpt><trkpt lat="45.73131853815347" lon="8.49771452323709"><ele>343.79999999999995</ele><time>2026-04-07T12:21:24.002Z</time></trkpt><trkpt lat="45.73133118848135" lon="8.497565183604141"><ele>343.4</ele><time>2026-04-07T12:21:25.002Z</time></trkpt><trkpt lat="45.7313468950694" lon="8.497429201586748"><ele>343.0</ele><time>2026-04-07T12:21:26.002Z</time></trkpt><trkpt lat="45.731351787132404" lon="8.497293306102405"><ele>343.0</ele><time>2026-04-07T12:21:27.002Z</time></trkpt><trkpt lat="45.73134405220069" lon="8.497147973679608"><ele>343.0</ele><time>2026-04-07T12:21:28.002Z</time></trkpt><trkpt lat="45.73130750662247" lon="8.497004798096965"><ele>343.0</ele><time>2026-04-07T12:21:29.002Z</time></trkpt><trkpt lat="45.73125673164354" lon="8.496844657212598"><ele>343.0</ele><time>2026-04-07T12:21:30.002Z</time></trkpt><trkpt lat="45.73122236566488" lon="8.496684094458791"><ele>343.0</ele><time>2026-04-07T12:21:31.002Z</time></trkpt><trkpt lat="45.731210241587995" lon="8.496534632022547"><ele>344.0</ele><time>2026-04-07T12:21:32.002Z</time></trkpt><trkpt lat="45.73120484722465" lon="8.496391948613585"><ele>345.0</ele><time>2026-04-07T12:21:33.002Z</time></trkpt><trkpt lat="45.731215124039814" lon="8.496255833028396"><ele>346.0</ele><time>2026-04-07T12:21:34.002Z</time></trkpt><trkpt lat="45.73122890619776" lon="8.496134910609564"><ele>347.0</ele><time>2026-04-07T12:21:35.002Z</time></trkpt><trkpt lat="45.73123442435311" lon="8.496031774243686"><ele>348.0</ele><time>2026-04-07T12:21:36.002Z</time></trkpt><trkpt lat="45.731167811757665" lon="8.495857380356075"><ele>349.59999999999997</ele><time>2026-04-07T12:21:38.002Z</time></trkpt><trkpt lat="45.73111561310399" lon="8.495776914855753"><ele>351.2</ele><time>2026-04-07T12:21:39.002Z</time></trkpt><trkpt lat="45.731111693027536" lon="8.495588897135454"><ele>352.8</ele><time>2026-04-07T12:21:41.002Z</time></trkpt><trkpt lat="45.73114191970577" lon="8.495484316334872"><ele>354.4</ele><time>2026-04-07T12:21:42.002Z</time></trkpt><trkpt lat="45.73118522340559" lon="8.495383810037463"><ele>356.0</ele><time>2026-04-07T12:21:43.002Z</time></trkpt><trkpt lat="45.73122073899148" lon="8.49527572124621"><ele>357.1666666666667</ele><time>2026-04-07T12:21:44.002Z</time></trkpt><trkpt lat="45.73125126457443" lon="8.495164132340904"><ele>358.33333333333337</ele><time>2026-04-07T12:21:45.002Z</time></trkpt><trkpt lat="45.731288954720206" lon="8.495072376889338"><ele>359.5</ele><time>2026-04-07T12:21:46.002Z</time></trkpt><trkpt lat="45.73132794040718" lon="8.494988947314994"><ele>360.6666666666667</ele><time>2026-04-07T12:21:47.002Z</time></trkpt><trkpt lat="45.731384219745436" lon="8.494849413043703"><ele>361.8333333333333</ele><time>2026-04-07T12:21:49.002Z</time></trkpt><trkpt lat="45.73144212839874" lon="8.494801464531449"><ele>363.0</ele><time>2026-04-07T12:21:51.003Z</time></trkpt><trkpt lat="45.731562827658315" lon="8.494851134034421"><ele>363.0</ele><time>2026-04-07T12:21:53.003Z</time></trkpt><trkpt lat="45.73163795716134" lon="8.494916925470832"><ele>363.0</ele><time>2026-04-07T12:21:54.003Z</time></trkpt><trkpt lat="45.731715160089344" lon="8.494960668217576"><ele>363.0</ele><time>2026-04-07T12:21:55.003Z</time></trkpt><trkpt lat="45.73178658703546" lon="8.495006663861844"><ele>363.0</ele><time>2026-04-07T12:21:56.003Z</time></trkpt><trkpt lat="45.73184575085419" lon="8.495066314799425"><ele>363.0</ele><time>2026-04-07T12:21:57.003Z</time></trkpt><trkpt lat="45.731905623251215" lon="8.495105183148512"><ele>363.0</ele><time>2026-04-07T12:21:58.003Z</time></trkpt><trkpt lat="45.732001643099245" lon="8.495124382564864"><ele>362.3333333333333</ele><time>2026-04-07T12:22:00.003Z</time></trkpt><trkpt lat="45.732102701637245" lon="8.495119452268536"><ele>361.6666666666667</ele><time>2026-04-07T12:22:02.001Z</time></trkpt><trkpt lat="45.7321864033024" lon="8.495226494738148"><ele>361.0</ele><time>2026-04-07T12:22:04.001Z</time></trkpt><trkpt lat="45.73224758484991" lon="8.495283886530718"><ele>360.33333333333337</ele><time>2026-04-07T12:22:05.001Z</time></trkpt><trkpt lat="45.73231685849234" lon="8.495343895648098"><ele>359.6666666666667</ele><time>2026-04-07T12:22:06.001Z</time></trkpt><trkpt lat="45.73237719739526" lon="8.495403285864928"><ele>359.0</ele><time>2026-04-07T12:22:07Z</time></trkpt><trkpt lat="45.73243476463774" lon="8.495457503320402"><ele>359.0</ele><time>2026-04-07T12:22:08Z</time></trkpt><trkpt lat="45.73253488854424" lon="8.495555097190053"><ele>359.0</ele><time>2026-04-07T12:22:10.001Z</time></trkpt><trkpt lat="45.73263067897407" lon="8.495605482483963"><ele>359.0</ele><time>2026-04-07T12:22:12.001Z</time></trkpt><trkpt lat="45.732705569659714" lon="8.495631211612894"><ele>359.0</ele><time>2026-04-07T12:22:16.001Z</time></trkpt><trkpt lat="45.73277870116325" lon="8.495709748650771"><ele>359.0</ele><time>2026-04-07T12:22:18.001Z</time></trkpt><trkpt lat="45.73287170281806" lon="8.495768345498169"><ele>360.6</ele><time>2026-04-07T12:22:20.001Z</time></trkpt><trkpt lat="45.7329435763368" lon="8.49576808014126"><ele>362.2</ele><time>2026-04-07T12:22:22.001Z</time></trkpt><trkpt lat="45.733047033364265" lon="8.495747426141122"><ele>363.8</ele><time>2026-04-07T12:22:24.001Z</time></trkpt><trkpt lat="45.73315643140993" lon="8.495784114896846"><ele>365.40000000000003</ele><time>2026-04-07T12:22:26.001Z</time></trkpt><trkpt lat="45.7332593068171" lon="8.495831041655673"><ele>367.0</ele><time>2026-04-07T12:22:28.001Z</time></trkpt><trkpt lat="45.73332247664403" lon="8.495861670893115"><ele>367.0</ele><time>2026-04-07T12:22:29.001Z</time></trkpt><trkpt lat="45.733395152587676" lon="8.49589339397604"><ele>367.0</ele><time>2026-04-07T12:22:30.001Z</time></trkpt><trkpt lat="45.73349305874314" lon="8.495948929324289"><ele>367.0</ele><time>2026-04-07T12:22:32.001Z</time></trkpt><trkpt lat="45.733556995647724" lon="8.495970833258232"><ele>367.0</ele><time>2026-04-07T12:22:34.001Z</time></trkpt><trkpt lat="45.7336366655624" lon="8.495980487432629"><ele>367.0</ele><time>2026-04-07T12:22:36.001Z</time></trkpt><trkpt lat="45.7336948809184" lon="8.496046040462044"><ele>367.0</ele><time>2026-04-07T12:22:38.001Z</time></trkpt><trkpt lat="45.733774402572955" lon="8.49607231034026"><ele>366.5</ele><time>2026-04-07T12:22:40.001Z</time></trkpt><trkpt lat="45.73387555191927" lon="8.496105334517942"><ele>366.0</ele><time>2026-04-07T12:22:42.001Z</time></trkpt><trkpt lat="45.7339623779204" lon="8.496149138550411"><ele>365.5</ele><time>2026-04-07T12:22:44.001Z</time></trkpt><trkpt lat="45.73405122812012" lon="8.496168464685505"><ele>365.0</ele><time>2026-04-07T12:22:46.001Z</time></trkpt><trkpt lat="45.7341241425425" lon="8.49619171468596"><ele>364.5</ele><time>2026-04-07T12:22:48.001Z</time></trkpt><trkpt lat="45.73420513882239" lon="8.496206602434786"><ele>364.0</ele><time>2026-04-07T12:22:50.001Z</time></trkpt><trkpt lat="45.73426071451287" lon="8.496287552848068"><ele>364.0</ele><time>2026-04-07T12:23:03.001Z</time></trkpt><trkpt lat="45.734334631430876" lon="8.496315178667306"><ele>364.0</ele><time>2026-04-07T12:23:10.002Z</time></trkpt><trkpt lat="45.7343655927837" lon="8.496425899711138"><ele>364.0</ele><time>2026-04-07T12:23:43.002Z</time></trkpt><trkpt lat="45.73431753368723" lon="8.496349003066582"><ele>364.0</ele><time>2026-04-07T12:24:10.001Z</time></trkpt><trkpt lat="45.73429023077059" lon="8.496263314966122"><ele>364.0</ele><time>2026-04-07T12:24:17Z</time></trkpt><trkpt lat="45.734319837994974" lon="8.49615552813511"><ele>364.0</ele><time>2026-04-07T12:24:40.001Z</time></trkpt><trkpt lat="45.73440536726675" lon="8.496185678535426"><ele>364.0</ele><time>2026-04-07T12:25:38.002Z</time></trkpt><trkpt lat="45.73445593215185" lon="8.496248415341883"><ele>364.0</ele><time>2026-04-07T12:25:54.002Z</time></trkpt><trkpt lat="45.73450508053668" lon="8.496349171443974"><ele>364.0</ele><time>2026-04-07T12:26:29Z</time></trkpt><trkpt lat="45.73446504884095" lon="8.496477201436091"><ele>364.0</ele><time>2026-04-07T12:27:07.001Z</time></trkpt><trkpt lat="45.73444120840172" lon="8.496385600508393"><ele>364.0</ele><time>2026-04-07T12:27:36.001Z</time></trkpt><trkpt lat="45.73449666305394" lon="8.496324848874222"><ele>364.0</ele><time>2026-04-07T12:28:12.002Z</time></trkpt><trkpt lat="45.73455056536774" lon="8.49627390857399"><ele>364.0</ele><time>2026-04-07T12:28:17.002Z</time></trkpt><trkpt lat="45.734618046276076" lon="8.496270596717716"><ele>364.0</ele><time>2026-04-07T12:28:19Z</time></trkpt><trkpt lat="45.73470769625937" lon="8.4962192501988"><ele>364.0</ele><time>2026-04-07T12:28:22Z</time></trkpt><trkpt lat="45.73477428515484" lon="8.49616331336235"><ele>364.0</ele><time>2026-04-07T12:28:23Z</time></trkpt><trkpt lat="45.73484682585664" lon="8.496099853692455"><ele>364.0</ele><time>2026-04-07T12:28:25Z</time></trkpt><trkpt lat="45.73492291356649" lon="8.496037200818824"><ele>364.0</ele><time>2026-04-07T12:28:28Z</time></trkpt><trkpt lat="45.73498792440759" lon="8.496028813690874"><ele>365.5</ele><time>2026-04-07T12:28:29Z</time></trkpt><trkpt lat="45.735050619747646" lon="8.495973313043448"><ele>367.0</ele><time>2026-04-07T12:28:31Z</time></trkpt><trkpt lat="45.73511233449439" lon="8.495950343233154"><ele>368.5</ele><time>2026-04-07T12:28:33Z</time></trkpt><trkpt lat="45.73521701742834" lon="8.495967434396627"><ele>370.0</ele><time>2026-04-07T12:28:36Z</time></trkpt><trkpt lat="45.73529579377111" lon="8.495944477763476"><ele>371.5</ele><time>2026-04-07T12:28:38Z</time></trkpt><trkpt lat="45.73536200871513" lon="8.495825152290148"><ele>373.0</ele><time>2026-04-07T12:28:41Z</time></trkpt><trkpt lat="45.73543422835672" lon="8.49584468584876"><ele>373.0</ele><time>2026-04-07T12:28:42Z</time></trkpt><trkpt lat="45.73550524027566" lon="8.495811041457895"><ele>373.0</ele><time>2026-04-07T12:28:43Z</time></trkpt><trkpt lat="45.73557163627474" lon="8.495792271598983"><ele>373.0</ele><time>2026-04-07T12:28:44Z</time></trkpt><trkpt lat="45.73564637597657" lon="8.49579568187245"><ele>373.0</ele><time>2026-04-07T12:28:45Z</time></trkpt><trkpt lat="45.73572904596747" lon="8.495700522381664"><ele>373.0</ele><time>2026-04-07T12:28:47Z</time></trkpt><trkpt lat="45.73576805057941" lon="8.495622694821117"><ele>373.0</ele><time>2026-04-07T12:28:48Z</time></trkpt><trkpt lat="45.7358003730435" lon="8.49553162248344"><ele>373.0</ele><time>2026-04-07T12:28:49Z</time></trkpt><trkpt lat="45.735849744419134" lon="8.495439066264236"><ele>373.0</ele><time>2026-04-07T12:28:50Z</time></trkpt><trkpt lat="45.73592025172347" lon="8.495380162849111"><ele>373.0</ele><time>2026-04-07T12:28:52Z</time></trkpt><trkpt lat="45.735998299759096" lon="8.495277855007343"><ele>373.0</ele><time>2026-04-07T12:28:54Z</time></trkpt><trkpt lat="45.73604238530248" lon="8.49521259359735"><ele>373.0</ele><time>2026-04-07T12:28:55.001Z</time></trkpt><trkpt lat="45.73607354276793" lon="8.495108550680992"><ele>373.0</ele><time>2026-04-07T12:28:57.001Z</time></trkpt><trkpt lat="45.73600621163254" lon="8.494989848288359"><ele>374.4</ele><time>2026-04-07T12:29:00.001Z</time></trkpt><trkpt lat="45.73596607248609" lon="8.49487682018081"><ele>375.79999999999995</ele><time>2026-04-07T12:29:02.001Z</time></trkpt><trkpt lat="45.735905777493684" lon="8.494700543259558"><ele>377.2</ele><time>2026-04-07T12:29:04.001Z</time></trkpt><trkpt lat="45.73587543743229" lon="8.494600496163002"><ele>378.6</ele><time>2026-04-07T12:29:05.001Z</time></trkpt><trkpt lat="45.735865415954954" lon="8.494503424735361"><ele>380.0</ele><time>2026-04-07T12:29:06.001Z</time></trkpt><trkpt lat="45.73580853432909" lon="8.494370897770251"><ele>380.0</ele><time>2026-04-07T12:29:08.001Z</time></trkpt><trkpt lat="45.73577215059159" lon="8.494203901035494"><ele>380.0</ele><time>2026-04-07T12:29:10.001Z</time></trkpt><trkpt lat="45.7357393235189" lon="8.49410331468333"><ele>380.0</ele><time>2026-04-07T12:29:11.001Z</time></trkpt><trkpt lat="45.73573074023237" lon="8.494001402228498"><ele>380.0</ele><time>2026-04-07T12:29:12.001Z</time></trkpt><trkpt lat="45.73576098818814" lon="8.493855811354742"><ele>380.0</ele><time>2026-04-07T12:29:14.001Z</time></trkpt><trkpt lat="45.735772283821746" lon="8.493753785769114"><ele>380.0</ele><time>2026-04-07T12:29:16.001Z</time></trkpt><trkpt lat="45.73583964282021" lon="8.49364491695719"><ele>380.0</ele><time>2026-04-07T12:29:18.001Z</time></trkpt><trkpt lat="45.73589066690335" lon="8.493570313865085"><ele>380.0</ele><time>2026-04-07T12:29:20.001Z</time></trkpt><trkpt lat="45.73595783257244" lon="8.493499169825867"><ele>380.0</ele><time>2026-04-07T12:29:22.001Z</time></trkpt><trkpt lat="45.7360925025812" lon="8.493497534509507"><ele>380.0</ele><time>2026-04-07T12:29:24.001Z</time></trkpt><trkpt lat="45.73619099090158" lon="8.49350254592834"><ele>380.0</ele><time>2026-04-07T12:29:25.001Z</time></trkpt><trkpt lat="45.736304621257446" lon="8.493524379066947"><ele>381.0</ele><time>2026-04-07T12:29:26.001Z</time></trkpt><trkpt lat="45.73643080648529" lon="8.493555926028064"><ele>382.0</ele><time>2026-04-07T12:29:27.001Z</time></trkpt><trkpt lat="45.736564291444694" lon="8.493583851853694"><ele>383.0</ele><time>2026-04-07T12:29:28.001Z</time></trkpt><trkpt lat="45.736708154744576" lon="8.493618185922191"><ele>384.0</ele><time>2026-04-07T12:29:29.001Z</time></trkpt><trkpt lat="45.73685254586388" lon="8.493638795439434"><ele>386.0</ele><time>2026-04-07T12:29:30.001Z</time></trkpt><trkpt lat="45.737004932192995" lon="8.493638320664578"><ele>388.0</ele><time>2026-04-07T12:29:31.001Z</time></trkpt><trkpt lat="45.737166500448566" lon="8.4936064131085"><ele>390.0</ele><time>2026-04-07T12:29:32.001Z</time></trkpt><trkpt lat="45.7373248648415" lon="8.49356566894268"><ele>390.0</ele><time>2026-04-07T12:29:33.001Z</time></trkpt><trkpt lat="45.73748453512779" lon="8.493531037434568"><ele>390.0</ele><time>2026-04-07T12:29:34.001Z</time></trkpt><trkpt lat="45.7376489672866" lon="8.493496658739978"><ele>390.0</ele><time>2026-04-07T12:29:35.001Z</time></trkpt><trkpt lat="45.73781698667085" lon="8.49346656737421"><ele>390.0</ele><time>2026-04-07T12:29:36.001Z</time></trkpt><trkpt lat="45.73798259884078" lon="8.493431328021408"><ele>390.0</ele><time>2026-04-07T12:29:37.001Z</time></trkpt><trkpt lat="45.73815113737955" lon="8.493404893531306"><ele>390.0</ele><time>2026-04-07T12:29:38.001Z</time></trkpt><trkpt lat="45.73831929341808" lon="8.493387950702008"><ele>390.0</ele><time>2026-04-07T12:29:39.001Z</time></trkpt><trkpt lat="45.73848619579199" lon="8.493397173950026"><ele>390.0</ele><time>2026-04-07T12:29:40.001Z</time></trkpt><trkpt lat="45.738650637124465" lon="8.493430983248565"><ele>390.0</ele><time>2026-04-07T12:29:41.001Z</time></trkpt><trkpt lat="45.73881410705562" lon="8.49347894050054"><ele>389.66666666666663</ele><time>2026-04-07T12:29:42.001Z</time></trkpt><trkpt lat="45.7389767607182" lon="8.493524865695555"><ele>389.3333333333333</ele><time>2026-04-07T12:29:43.001Z</time></trkpt><trkpt lat="45.73912984497972" lon="8.49355618855568"><ele>389.0</ele><time>2026-04-07T12:29:44.001Z</time></trkpt><trkpt lat="45.739284167575136" lon="8.493573002461124"><ele>388.66666666666663</ele><time>2026-04-07T12:29:45.001Z</time></trkpt><trkpt lat="45.739438771782844" lon="8.493568881424483"><ele>388.33333333333337</ele><time>2026-04-07T12:29:46.001Z</time></trkpt><trkpt lat="45.73959079450881" lon="8.493529688605376"><ele>388.0</ele><time>2026-04-07T12:29:47.001Z</time></trkpt><trkpt lat="45.73973907072584" lon="8.493463845451476"><ele>388.0</ele><time>2026-04-07T12:29:48.001Z</time></trkpt><trkpt lat="45.739880119147145" lon="8.493358854154922"><ele>388.0</ele><time>2026-04-07T12:29:49.001Z</time></trkpt><trkpt lat="45.74001049241783" lon="8.493236806714155"><ele>388.0</ele><time>2026-04-07T12:29:50.001Z</time></trkpt><trkpt lat="45.74014151923015" lon="8.493114484357921"><ele>387.6666666666667</ele><time>2026-04-07T12:29:51.001Z</time></trkpt><trkpt lat="45.74024682644619" lon="8.492952872059933"><ele>387.33333333333337</ele><time>2026-04-07T12:29:52.001Z</time></trkpt><trkpt lat="45.74034382424765" lon="8.492774354436197"><ele>387.0</ele><time>2026-04-07T12:29:53.001Z</time></trkpt><trkpt lat="45.74043781616792" lon="8.492587853226105"><ele>387.66666666666663</ele><time>2026-04-07T12:29:54.001Z</time></trkpt><trkpt lat="45.74053057674631" lon="8.492403302436403"><ele>388.3333333333333</ele><time>2026-04-07T12:29:55.002Z</time></trkpt><trkpt lat="45.74061330709572" lon="8.492205150778199"><ele>389.0</ele><time>2026-04-07T12:29:56.002Z</time></trkpt><trkpt lat="45.74070772163309" lon="8.492014943382463"><ele>389.75</ele><time>2026-04-07T12:29:57.002Z</time></trkpt><trkpt lat="45.74080112536999" lon="8.4918310094852"><ele>390.5</ele><time>2026-04-07T12:29:58.002Z</time></trkpt><trkpt lat="45.74088908267729" lon="8.4916632229904"><ele>391.25</ele><time>2026-04-07T12:29:59.002Z</time></trkpt><trkpt lat="45.740973368424704" lon="8.491507523395118"><ele>392.0</ele><time>2026-04-07T12:30:00.002Z</time></trkpt><trkpt lat="45.74104972277829" lon="8.491368055273355"><ele>393.0</ele><time>2026-04-07T12:30:01.002Z</time></trkpt><trkpt lat="45.74112973088507" lon="8.491245827074804"><ele>394.0</ele><time>2026-04-07T12:30:02.002Z</time></trkpt><trkpt lat="45.741223685377335" lon="8.491145240164949"><ele>395.0</ele><time>2026-04-07T12:30:03.002Z</time></trkpt><trkpt lat="45.74132678352648" lon="8.491060843755577"><ele>396.0</ele><time>2026-04-07T12:30:04.002Z</time></trkpt><trkpt lat="45.74143692787552" lon="8.490997722162232"><ele>396.0</ele><time>2026-04-07T12:30:05.002Z</time></trkpt><trkpt lat="45.741539047755786" lon="8.490947437505229"><ele>396.0</ele><time>2026-04-07T12:30:06.002Z</time></trkpt><trkpt lat="45.74163002385605" lon="8.490905077245111"><ele>396.0</ele><time>2026-04-07T12:30:07.002Z</time></trkpt><trkpt lat="45.74171164957068" lon="8.490872610678013"><ele>396.0</ele><time>2026-04-07T12:30:08.002Z</time></trkpt><trkpt lat="45.74179289946299" lon="8.490837785134826"><ele>396.0</ele><time>2026-04-07T12:30:09.002Z</time></trkpt><trkpt lat="45.741874440406775" lon="8.49081184108839"><ele>397.0</ele><time>2026-04-07T12:30:10.002Z</time></trkpt><trkpt lat="45.74195107793338" lon="8.490779684506727"><ele>398.0</ele><time>2026-04-07T12:30:11.002Z</time></trkpt><trkpt lat="45.74202358153079" lon="8.490750185842394"><ele>399.0</ele><time>2026-04-07T12:30:12.002Z</time></trkpt><trkpt lat="45.74209542377248" lon="8.490718249184347"><ele>400.0</ele><time>2026-04-07T12:30:13.002Z</time></trkpt><trkpt lat="45.74217023385202" lon="8.490693350291117"><ele>401.0</ele><time>2026-04-07T12:30:14.002Z</time></trkpt><trkpt lat="45.742244581415456" lon="8.490670312310101"><ele>402.0</ele><time>2026-04-07T12:30:15.002Z</time></trkpt><trkpt lat="45.7423222855977" lon="8.490645696970345"><ele>402.0</ele><time>2026-04-07T12:30:16.002Z</time></trkpt><trkpt lat="45.74240428051209" lon="8.490619692342207"><ele>402.0</ele><time>2026-04-07T12:30:17.002Z</time></trkpt><trkpt lat="45.74248802600899" lon="8.490594835859394"><ele>402.0</ele><time>2026-04-07T12:30:18.002Z</time></trkpt><trkpt lat="45.742577578138715" lon="8.490569416627949"><ele>402.0</ele><time>2026-04-07T12:30:19.002Z</time></trkpt><trkpt lat="45.742663784254155" lon="8.49054572425469"><ele>402.0</ele><time>2026-04-07T12:30:20.002Z</time></trkpt><trkpt lat="45.74274609053627" lon="8.490522058649704"><ele>402.0</ele><time>2026-04-07T12:30:21.002Z</time></trkpt><trkpt lat="45.74282785414742" lon="8.490492734891337"><ele>401.6</ele><time>2026-04-07T12:30:22.002Z</time></trkpt><trkpt lat="45.74291010624211" lon="8.490451816256028"><ele>401.20000000000005</ele><time>2026-04-07T12:30:23.002Z</time></trkpt><trkpt lat="45.74298927317361" lon="8.4903971662415"><ele>400.8</ele><time>2026-04-07T12:30:24.002Z</time></trkpt><trkpt lat="45.743075981633545" lon="8.490340567553197"><ele>400.4</ele><time>2026-04-07T12:30:24.999Z</time></trkpt><trkpt lat="45.7431693599861" lon="8.490283998965172"><ele>400.0</ele><time>2026-04-07T12:30:25.999Z</time></trkpt><trkpt lat="45.74325711156563" lon="8.490225866531402"><ele>400.0</ele><time>2026-04-07T12:30:26.999Z</time></trkpt><trkpt lat="45.74334660487896" lon="8.490164602194254"><ele>400.0</ele><time>2026-04-07T12:30:27.999Z</time></trkpt><trkpt lat="45.74343516619908" lon="8.490091701441488"><ele>400.0</ele><time>2026-04-07T12:30:28.999Z</time></trkpt><trkpt lat="45.743525537632514" lon="8.489996027754556"><ele>400.0</ele><time>2026-04-07T12:30:29.999Z</time></trkpt><trkpt lat="45.74361950883464" lon="8.48989881630019"><ele>400.0</ele><time>2026-04-07T12:30:30.999Z</time></trkpt><trkpt lat="45.74371442381382" lon="8.489803665933183"><ele>400.0</ele><time>2026-04-07T12:30:31.999Z</time></trkpt><trkpt lat="45.74381645690507" lon="8.489722718711453"><ele>400.0</ele><time>2026-04-07T12:30:32.999Z</time></trkpt><trkpt lat="45.74392093476436" lon="8.489665903195993"><ele>400.0</ele><time>2026-04-07T12:30:33.999Z</time></trkpt><trkpt lat="45.74403127210592" lon="8.489630128307546"><ele>400.0</ele><time>2026-04-07T12:30:34.999Z</time></trkpt><trkpt lat="45.744137632442545" lon="8.48959064896425"><ele>400.0</ele><time>2026-04-07T12:30:35.999Z</time></trkpt><trkpt lat="45.74425310476893" lon="8.489601101920663"><ele>400.0</ele><time>2026-04-07T12:30:36.999Z</time></trkpt><trkpt lat="45.74435734866131" lon="8.48962547549031"><ele>400.0</ele><time>2026-04-07T12:30:37.999Z</time></trkpt><trkpt lat="45.74447133279282" lon="8.489646815585848"><ele>400.0</ele><time>2026-04-07T12:30:38.999Z</time></trkpt><trkpt lat="45.74458373550627" lon="8.489659275353738"><ele>400.0</ele><time>2026-04-07T12:30:39.999Z</time></trkpt><trkpt lat="45.74469612922847" lon="8.489656357248492"><ele>400.6</ele><time>2026-04-07T12:30:40.999Z</time></trkpt><trkpt lat="45.74480730780998" lon="8.489634868807268"><ele>401.2</ele><time>2026-04-07T12:30:41.999Z</time></trkpt><trkpt lat="45.744913010831056" lon="8.489600938497466"><ele>401.79999999999995</ele><time>2026-04-07T12:30:42.999Z</time></trkpt><trkpt lat="45.745013508631686" lon="8.489544451717245"><ele>402.4</ele><time>2026-04-07T12:30:43.999Z</time></trkpt><trkpt lat="45.745109868429566" lon="8.489489455739962"><ele>403.0</ele><time>2026-04-07T12:30:44.999Z</time></trkpt><trkpt lat="45.7452169972343" lon="8.489445887652883"><ele>403.0</ele><time>2026-04-07T12:30:45.999Z</time></trkpt><trkpt lat="45.745326459549524" lon="8.48940242231789"><ele>403.0</ele><time>2026-04-07T12:30:46.999Z</time></trkpt><trkpt lat="45.74543219786975" lon="8.489358296792311"><ele>403.0</ele><time>2026-04-07T12:30:48Z</time></trkpt><trkpt lat="45.74553702525105" lon="8.489327754288365"><ele>403.0</ele><time>2026-04-07T12:30:49Z</time></trkpt><trkpt lat="45.74563311338676" lon="8.489313682040814"><ele>403.0</ele><time>2026-04-07T12:30:50Z</time></trkpt><trkpt lat="45.74573228000176" lon="8.489317518486866"><ele>403.0</ele><time>2026-04-07T12:30:51Z</time></trkpt><trkpt lat="45.74583003467799" lon="8.489325861246138"><ele>403.0</ele><time>2026-04-07T12:30:52Z</time></trkpt><trkpt lat="45.745938514734114" lon="8.48933384549807"><ele>403.0</ele><time>2026-04-07T12:30:53Z</time></trkpt><trkpt lat="45.746051795304794" lon="8.489338871649156"><ele>403.0</ele><time>2026-04-07T12:30:54Z</time></trkpt><trkpt lat="45.746165207760235" lon="8.489338277435134"><ele>403.0</ele><time>2026-04-07T12:30:55Z</time></trkpt><trkpt lat="45.74628604099816" lon="8.48933791019319"><ele>403.25</ele><time>2026-04-07T12:30:56Z</time></trkpt><trkpt lat="45.74641084607233" lon="8.489338117251359"><ele>403.5</ele><time>2026-04-07T12:30:57Z</time></trkpt><trkpt lat="45.74653333177243" lon="8.489332234811663"><ele>403.75</ele><time>2026-04-07T12:30:58Z</time></trkpt><trkpt lat="45.74666363115894" lon="8.48933418373973"><ele>404.0</ele><time>2026-04-07T12:30:59Z</time></trkpt><trkpt lat="45.7467893248686" lon="8.489343749530741"><ele>404.25</ele><time>2026-04-07T12:31:00Z</time></trkpt><trkpt lat="45.746913768790854" lon="8.489373014837795"><ele>404.5</ele><time>2026-04-07T12:31:01Z</time></trkpt><trkpt lat="45.74702784330918" lon="8.48941327191008"><ele>404.75</ele><time>2026-04-07T12:31:02Z</time></trkpt><trkpt lat="45.747143657613385" lon="8.489456369520546"><ele>405.0</ele><time>2026-04-07T12:31:03Z</time></trkpt><trkpt lat="45.747257217688414" lon="8.489503840885112"><ele>405.0</ele><time>2026-04-07T12:31:04Z</time></trkpt><trkpt lat="45.74736468821031" lon="8.489546643090717"><ele>405.0</ele><time>2026-04-07T12:31:05Z</time></trkpt><trkpt lat="45.747474386549" lon="8.489582770091687"><ele>405.0</ele><time>2026-04-07T12:31:06Z</time></trkpt><trkpt lat="45.74757787761434" lon="8.489593440655247"><ele>405.0</ele><time>2026-04-07T12:31:07Z</time></trkpt><trkpt lat="45.74768454742815" lon="8.489571884187539"><ele>405.0</ele><time>2026-04-07T12:31:08Z</time></trkpt><trkpt lat="45.74778138653694" lon="8.489537291422556"><ele>403.4</ele><time>2026-04-07T12:31:09Z</time></trkpt><trkpt lat="45.74786886094574" lon="8.489481440164624"><ele>401.8</ele><time>2026-04-07T12:31:10Z</time></trkpt><trkpt lat="45.74795145187617" lon="8.489411370168103"><ele>400.20000000000005</ele><time>2026-04-07T12:31:11Z</time></trkpt><trkpt lat="45.74802853265238" lon="8.489326299406471"><ele>398.6</ele><time>2026-04-07T12:31:12Z</time></trkpt><trkpt lat="45.748111745274684" lon="8.489224436366046"><ele>397.0</ele><time>2026-04-07T12:31:13Z</time></trkpt><trkpt lat="45.748202202340636" lon="8.489127972376622"><ele>397.0</ele><time>2026-04-07T12:31:14Z</time></trkpt><trkpt lat="45.748295956255625" lon="8.489023645670159"><ele>397.0</ele><time>2026-04-07T12:31:15Z</time></trkpt><trkpt lat="45.74840502153983" lon="8.488897097143251"><ele>397.0</ele><time>2026-04-07T12:31:16Z</time></trkpt><trkpt lat="45.74852266030928" lon="8.488750276626487"><ele>397.0</ele><time>2026-04-07T12:31:17Z</time></trkpt><trkpt lat="45.748655926658344" lon="8.488581339477415"><ele>395.33333333333337</ele><time>2026-04-07T12:31:18Z</time></trkpt><trkpt lat="45.74880024783887" lon="8.488394202738885"><ele>393.66666666666663</ele><time>2026-04-07T12:31:19Z</time></trkpt><trkpt lat="45.74895326483949" lon="8.48821879442641"><ele>392.0</ele><time>2026-04-07T12:31:20Z</time></trkpt><trkpt lat="45.74911038624471" lon="8.488049813831491"><ele>392.66666666666663</ele><time>2026-04-07T12:31:21Z</time></trkpt><trkpt lat="45.749258713452114" lon="8.487891561180938"><ele>393.33333333333337</ele><time>2026-04-07T12:31:22Z</time></trkpt><trkpt lat="45.74940317017326" lon="8.487735788473891"><ele>394.0</ele><time>2026-04-07T12:31:23Z</time></trkpt><trkpt lat="45.74954795857346" lon="8.487600454380265"><ele>395.33333333333337</ele><time>2026-04-07T12:31:24Z</time></trkpt><trkpt lat="45.74969564719557" lon="8.487488090981051"><ele>396.66666666666663</ele><time>2026-04-07T12:31:25Z</time></trkpt><trkpt lat="45.74985207564419" lon="8.487397525352867"><ele>398.0</ele><time>2026-04-07T12:31:26Z</time></trkpt><trkpt lat="45.75000608408243" lon="8.487325149928818"><ele>398.0</ele><time>2026-04-07T12:31:27Z</time></trkpt><trkpt lat="45.75015980031723" lon="8.487268460188439"><ele>398.0</ele><time>2026-04-07T12:31:28Z</time></trkpt><trkpt lat="45.75031562750474" lon="8.487223207523822"><ele>398.0</ele><time>2026-04-07T12:31:29.001Z</time></trkpt><trkpt lat="45.75047565736222" lon="8.48720293524181"><ele>400.3333333333333</ele><time>2026-04-07T12:31:30.001Z</time></trkpt><trkpt lat="45.750628151338695" lon="8.487226225838805"><ele>402.66666666666663</ele><time>2026-04-07T12:31:31.001Z</time></trkpt><trkpt lat="45.750779196884615" lon="8.487270482163183"><ele>405.0</ele><time>2026-04-07T12:31:32.001Z</time></trkpt><trkpt lat="45.75094001450593" lon="8.48731321288573"><ele>407.66666666666663</ele><time>2026-04-07T12:31:33.001Z</time></trkpt><trkpt lat="45.75110616621971" lon="8.48735359314304"><ele>410.3333333333333</ele><time>2026-04-07T12:31:34.001Z</time></trkpt><trkpt lat="45.75128203060037" lon="8.48739370742537"><ele>413.0</ele><time>2026-04-07T12:31:35.001Z</time></trkpt><trkpt lat="45.751453265272026" lon="8.487423661925094"><ele>413.0</ele><time>2026-04-07T12:31:36.001Z</time></trkpt><trkpt lat="45.751615459537305" lon="8.487421788734578"><ele>413.0</ele><time>2026-04-07T12:31:37.001Z</time></trkpt><trkpt lat="45.75176853932056" lon="8.487391940552953"><ele>413.0</ele><time>2026-04-07T12:31:38.001Z</time></trkpt><trkpt lat="45.751917339905674" lon="8.48733682882095"><ele>413.5</ele><time>2026-04-07T12:31:39.001Z</time></trkpt><trkpt lat="45.75206470233276" lon="8.487285207630933"><ele>414.0</ele><time>2026-04-07T12:31:40.001Z</time></trkpt><trkpt lat="45.75220516500604" lon="8.487258343572691"><ele>414.5</ele><time>2026-04-07T12:31:41.001Z</time></trkpt><trkpt lat="45.75233586545222" lon="8.487234347183344"><ele>415.0</ele><time>2026-04-07T12:31:42.001Z</time></trkpt><trkpt lat="45.7524620252778" lon="8.487217881967263"><ele>415.00000000000006</ele><time>2026-04-07T12:31:43.001Z</time></trkpt><trkpt lat="45.752577849447405" lon="8.48720161074299"><ele>415.0</ele><time>2026-04-07T12:31:44.001Z</time></trkpt><trkpt lat="45.7526802908652" lon="8.487188589090445"><ele>415.0</ele><time>2026-04-07T12:31:45.001Z</time></trkpt><trkpt lat="45.75275901140967" lon="8.487180993512622"><ele>415.0</ele><time>2026-04-07T12:31:46.001Z</time></trkpt><trkpt lat="45.75282945856193" lon="8.487167834869135"><ele>415.00000000000006</ele><time>2026-04-07T12:31:47.001Z</time></trkpt><trkpt lat="45.752892577258706" lon="8.487157563209669"><ele>415.0</ele><time>2026-04-07T12:31:48.001Z</time></trkpt><trkpt lat="45.75302193465304" lon="8.487121599758058"><ele>415.2</ele><time>2026-04-07T12:31:50.001Z</time></trkpt><trkpt lat="45.75308863819908" lon="8.48707488991535"><ele>415.4</ele><time>2026-04-07T12:31:51.001Z</time></trkpt><trkpt lat="45.75314136810753" lon="8.48691354303985"><ele>415.6</ele><time>2026-04-07T12:31:53.001Z</time></trkpt><trkpt lat="45.753131557957175" lon="8.486789464498184"><ele>415.8</ele><time>2026-04-07T12:31:54.001Z</time></trkpt><trkpt lat="45.75315937951189" lon="8.486659650962693"><ele>416.0</ele><time>2026-04-07T12:31:55.001Z</time></trkpt><trkpt lat="45.7532120090889" lon="8.486528540578776"><ele>416.0</ele><time>2026-04-07T12:31:56.001Z</time></trkpt><trkpt lat="45.75327977450226" lon="8.486395738322758"><ele>416.0</ele><time>2026-04-07T12:31:57.001Z</time></trkpt><trkpt lat="45.75336121893153" lon="8.486251898400976"><ele>416.0</ele><time>2026-04-07T12:31:58.001Z</time></trkpt><trkpt lat="45.753437402700136" lon="8.48611218823097"><ele>416.0</ele><time>2026-04-07T12:31:59.001Z</time></trkpt><trkpt lat="45.75351560059934" lon="8.485960900128722"><ele>416.75</ele><time>2026-04-07T12:32:00.001Z</time></trkpt><trkpt lat="45.753594227886204" lon="8.485806661747178"><ele>417.5</ele><time>2026-04-07T12:32:01.001Z</time></trkpt><trkpt lat="45.75367311414076" lon="8.485654304801901"><ele>418.25</ele><time>2026-04-07T12:32:02.001Z</time></trkpt><trkpt lat="45.75375112375493" lon="8.485504019886678"><ele>419.0</ele><time>2026-04-07T12:32:03.001Z</time></trkpt><trkpt lat="45.753829275325266" lon="8.485353850571403"><ele>419.0</ele><time>2026-04-07T12:32:04.001Z</time></trkpt><trkpt lat="45.753905346176836" lon="8.485208644141554"><ele>419.0</ele><time>2026-04-07T12:32:05.001Z</time></trkpt><trkpt lat="45.75397680252683" lon="8.485071125139264"><ele>419.0</ele><time>2026-04-07T12:32:06.001Z</time></trkpt><trkpt lat="45.75405222761626" lon="8.484934189147442"><ele>419.0</ele><time>2026-04-07T12:32:07.001Z</time></trkpt><trkpt lat="45.75412832155138" lon="8.484790768002572"><ele>419.0</ele><time>2026-04-07T12:32:08.001Z</time></trkpt><trkpt lat="45.754201134807424" lon="8.484639084707366"><ele>419.0</ele><time>2026-04-07T12:32:09.001Z</time></trkpt><trkpt lat="45.75428158084159" lon="8.484495445937126"><ele>419.0</ele><time>2026-04-07T12:32:10.001Z</time></trkpt><trkpt lat="45.75437487760592" lon="8.484368366256797"><ele>419.0</ele><time>2026-04-07T12:32:11.001Z</time></trkpt><trkpt lat="45.75448038289985" lon="8.484268281789197"><ele>419.75</ele><time>2026-04-07T12:32:12.001Z</time></trkpt><trkpt lat="45.75459876705396" lon="8.48419738379234"><ele>420.5</ele><time>2026-04-07T12:32:13.001Z</time></trkpt><trkpt lat="45.75472424003563" lon="8.484148292937842"><ele>421.25</ele><time>2026-04-07T12:32:14.001Z</time></trkpt><trkpt lat="45.75485028105555" lon="8.484098599221468"><ele>422.0</ele><time>2026-04-07T12:32:15.001Z</time></trkpt><trkpt lat="45.75496507725467" lon="8.484054588404103"><ele>422.0</ele><time>2026-04-07T12:32:16.001Z</time></trkpt><trkpt lat="45.75506654914493" lon="8.484016907220095"><ele>422.0</ele><time>2026-04-07T12:32:17.001Z</time></trkpt><trkpt lat="45.75515891556491" lon="8.483981520848744"><ele>422.0</ele><time>2026-04-07T12:32:18.001Z</time></trkpt><trkpt lat="45.75524139853811" lon="8.48394724043286"><ele>422.0</ele><time>2026-04-07T12:32:19.002Z</time></trkpt><trkpt lat="45.75532668748681" lon="8.483911130865117"><ele>422.0</ele><time>2026-04-07T12:32:21.002Z</time></trkpt><trkpt lat="45.755361192345084" lon="8.48378877834298"><ele>422.40000000000003</ele><time>2026-04-07T12:32:25.002Z</time></trkpt><trkpt lat="45.75533836335696" lon="8.483699180614959"><ele>422.8</ele><time>2026-04-07T12:32:26.002Z</time></trkpt><trkpt lat="45.75528375279723" lon="8.483590540371372"><ele>423.2</ele><time>2026-04-07T12:32:27.002Z</time></trkpt><trkpt lat="45.75523751435643" lon="8.483481549732838"><ele>423.6</ele><time>2026-04-07T12:32:28.002Z</time></trkpt><trkpt lat="45.75518630871581" lon="8.483356587144014"><ele>424.0</ele><time>2026-04-07T12:32:29.002Z</time></trkpt><trkpt lat="45.755132281832736" lon="8.483220952711319"><ele>424.0</ele><time>2026-04-07T12:32:30.002Z</time></trkpt><trkpt lat="45.75506974696243" lon="8.483076149645846"><ele>424.0</ele><time>2026-04-07T12:32:30.999Z</time></trkpt><trkpt lat="45.75501012195536" lon="8.482927164589055"><ele>424.0</ele><time>2026-04-07T12:32:31.999Z</time></trkpt><trkpt lat="45.754944500434746" lon="8.482770313163796"><ele>424.0</ele><time>2026-04-07T12:32:32.999Z</time></trkpt><trkpt lat="45.75487766318333" lon="8.482607565688403"><ele>424.5</ele><time>2026-04-07T12:32:33.999Z</time></trkpt><trkpt lat="45.75480901280227" lon="8.482435319816652"><ele>425.0</ele><time>2026-04-07T12:32:34.999Z</time></trkpt><trkpt lat="45.754744893871575" lon="8.482265795870198"><ele>425.5</ele><time>2026-04-07T12:32:35.999Z</time></trkpt><trkpt lat="45.75468258963656" lon="8.48209522726485"><ele>426.0</ele><time>2026-04-07T12:32:36.999Z</time></trkpt><trkpt lat="45.754615440106676" lon="8.48192526013663"><ele>426.0</ele><time>2026-04-07T12:32:37.999Z</time></trkpt><trkpt lat="45.75454969439895" lon="8.481768043741376"><ele>426.0</ele><time>2026-04-07T12:32:38.999Z</time></trkpt><trkpt lat="45.75447865682087" lon="8.481599919244303"><ele>426.0</ele><time>2026-04-07T12:32:39.999Z</time></trkpt><trkpt lat="45.75441003239766" lon="8.481438721595183"><ele>426.0</ele><time>2026-04-07T12:32:40.999Z</time></trkpt><trkpt lat="45.75434271551809" lon="8.481279574932154"><ele>426.75</ele><time>2026-04-07T12:32:41.999Z</time></trkpt><trkpt lat="45.754272514172065" lon="8.481120446478016"><ele>427.5</ele><time>2026-04-07T12:32:42.999Z</time></trkpt><trkpt lat="45.754192762123076" lon="8.480955855009872"><ele>428.25</ele><time>2026-04-07T12:32:43.999Z</time></trkpt><trkpt lat="45.754111211510406" lon="8.480790477381856"><ele>429.0</ele><time>2026-04-07T12:32:44.999Z</time></trkpt><trkpt lat="45.754029816332924" lon="8.480634146621666"><ele>429.0</ele><time>2026-04-07T12:32:45.999Z</time></trkpt><trkpt lat="45.75394641704588" lon="8.480475282883505"><ele>429.0</ele><time>2026-04-07T12:32:46.999Z</time></trkpt><trkpt lat="45.75386781206677" lon="8.480309023150424"><ele>429.0</ele><time>2026-04-07T12:32:47.999Z</time></trkpt><trkpt lat="45.753792218252585" lon="8.480136967134124"><ele>429.0</ele><time>2026-04-07T12:32:48.999Z</time></trkpt><trkpt lat="45.75372178099" lon="8.479973327306531"><ele>429.0</ele><time>2026-04-07T12:32:49.999Z</time></trkpt><trkpt lat="45.753657717566675" lon="8.479804456746269"><ele>429.0</ele><time>2026-04-07T12:32:50.999Z</time></trkpt><trkpt lat="45.753602254662844" lon="8.479632130317517"><ele>429.0</ele><time>2026-04-07T12:32:51.999Z</time></trkpt><trkpt lat="45.75355789455953" lon="8.479447073020594"><ele>429.0</ele><time>2026-04-07T12:32:52.999Z</time></trkpt><trkpt lat="45.75352406971616" lon="8.479254123118793"><ele>430.5</ele><time>2026-04-07T12:32:53.999Z</time></trkpt><trkpt lat="45.753502486321864" lon="8.479056276165627"><ele>432.0</ele><time>2026-04-07T12:32:54.999Z</time></trkpt><trkpt lat="45.753494350372925" lon="8.478848154542519"><ele>433.5</ele><time>2026-04-07T12:32:55.999Z</time></trkpt><trkpt lat="45.753491295461714" lon="8.478639508486175"><ele>435.0</ele><time>2026-04-07T12:32:56.999Z</time></trkpt><trkpt lat="45.753490678351625" lon="8.478436669742582"><ele>435.0</ele><time>2026-04-07T12:32:58Z</time></trkpt><trkpt lat="45.75348861985846" lon="8.47824816844811"><ele>435.0</ele><time>2026-04-07T12:32:59Z</time></trkpt><trkpt lat="45.75348527797509" lon="8.47806359027581"><ele>435.0</ele><time>2026-04-07T12:33:00Z</time></trkpt><trkpt lat="45.75348500902674" lon="8.477883709090955"><ele>435.0</ele><time>2026-04-07T12:33:01Z</time></trkpt><trkpt lat="45.75348826029799" lon="8.477698209674513"><ele>434.5</ele><time>2026-04-07T12:33:02Z</time></trkpt><trkpt lat="45.753498637288374" lon="8.477510300315277"><ele>434.0</ele><time>2026-04-07T12:33:03Z</time></trkpt><trkpt lat="45.753521451631755" lon="8.477315927899399"><ele>433.5</ele><time>2026-04-07T12:33:04Z</time></trkpt><trkpt lat="45.753546846668996" lon="8.477113974364926"><ele>433.0</ele><time>2026-04-07T12:33:05Z</time></trkpt><trkpt lat="45.75357771620085" lon="8.476920192569533"><ele>431.75</ele><time>2026-04-07T12:33:06Z</time></trkpt><trkpt lat="45.753607556782406" lon="8.476735289679201"><ele>430.5</ele><time>2026-04-07T12:33:07Z</time></trkpt><trkpt lat="45.753636799851755" lon="8.476548979233383"><ele>429.25</ele><time>2026-04-07T12:33:08Z</time></trkpt><trkpt lat="45.75366313916558" lon="8.47636470434369"><ele>428.0</ele><time>2026-04-07T12:33:09Z</time></trkpt><trkpt lat="45.75369110190096" lon="8.476176573183029"><ele>427.25</ele><time>2026-04-07T12:33:10Z</time></trkpt><trkpt lat="45.75371489848631" lon="8.475984272371974"><ele>426.5</ele><time>2026-04-07T12:33:11Z</time></trkpt><trkpt lat="45.753732240561625" lon="8.475790551059344"><ele>425.75</ele><time>2026-04-07T12:33:12Z</time></trkpt><trkpt lat="45.75374635045067" lon="8.475595638910564"><ele>425.0</ele><time>2026-04-07T12:33:13Z</time></trkpt><trkpt lat="45.75376642074429" lon="8.47538768320245"><ele>424.0</ele><time>2026-04-07T12:33:14Z</time></trkpt><trkpt lat="45.753786913334224" lon="8.475181552579139"><ele>423.0</ele><time>2026-04-07T12:33:15Z</time></trkpt><trkpt lat="45.75380583254582" lon="8.47497932984523"><ele>422.0</ele><time>2026-04-07T12:33:16Z</time></trkpt><trkpt lat="45.753822328498416" lon="8.474778165468424"><ele>421.0</ele><time>2026-04-07T12:33:17Z</time></trkpt><trkpt lat="45.753828372300504" lon="8.47457692506454"><ele>421.0</ele><time>2026-04-07T12:33:18Z</time></trkpt><trkpt lat="45.75382257890488" lon="8.474381138004691"><ele>421.0</ele><time>2026-04-07T12:33:19Z</time></trkpt><trkpt lat="45.75380870460172" lon="8.474188065612623"><ele>421.0</ele><time>2026-04-07T12:33:20Z</time></trkpt><trkpt lat="45.75379347448897" lon="8.473993106521792"><ele>421.0</ele><time>2026-04-07T12:33:21Z</time></trkpt><trkpt lat="45.75379076284296" lon="8.473794324386542"><ele>419.75</ele><time>2026-04-07T12:33:22Z</time></trkpt><trkpt lat="45.75380406493563" lon="8.473592365110845"><ele>418.5</ele><time>2026-04-07T12:33:23Z</time></trkpt><trkpt lat="45.75383129722942" lon="8.473394242329308"><ele>417.25</ele><time>2026-04-07T12:33:24Z</time></trkpt><trkpt lat="45.75386567136396" lon="8.473193599474483"><ele>416.0</ele><time>2026-04-07T12:33:25Z</time></trkpt><trkpt lat="45.75391189854002" lon="8.473004911293529"><ele>416.75</ele><time>2026-04-07T12:33:26Z</time></trkpt><trkpt lat="45.75397654793155" lon="8.472829900431178"><ele>417.5</ele><time>2026-04-07T12:33:27Z</time></trkpt><trkpt lat="45.754062057981926" lon="8.472670334641634"><ele>418.25</ele><time>2026-04-07T12:33:28Z</time></trkpt><trkpt lat="45.75415820012079" lon="8.472534144140848"><ele>419.0</ele><time>2026-04-07T12:33:29Z</time></trkpt><trkpt lat="45.75428086053568" lon="8.47244411840335"><ele>417.0</ele><time>2026-04-07T12:33:30Z</time></trkpt><trkpt lat="45.75440479093223" lon="8.472414715532073"><ele>415.0</ele><time>2026-04-07T12:33:31Z</time></trkpt><trkpt lat="45.75452471443866" lon="8.472389689611925"><ele>413.0</ele><time>2026-04-07T12:33:32.001Z</time></trkpt><trkpt lat="45.75462559750632" lon="8.472346744528807"><ele>411.0</ele><time>2026-04-07T12:33:33.001Z</time></trkpt><trkpt lat="45.754694453994865" lon="8.472299857650283"><ele>409.0</ele><time>2026-04-07T12:33:34.001Z</time></trkpt><trkpt lat="45.75478903141398" lon="8.472269736561186"><ele>409.0</ele><time>2026-04-07T12:33:36.001Z</time></trkpt><trkpt lat="45.754933975107505" lon="8.472304883571933"><ele>409.0</ele><time>2026-04-07T12:33:38.001Z</time></trkpt><trkpt lat="45.75500279690781" lon="8.472338655900744"><ele>409.0</ele><time>2026-04-07T12:33:39.001Z</time></trkpt><trkpt lat="45.75506729990997" lon="8.472396205777109"><ele>409.0</ele><time>2026-04-07T12:33:40.001Z</time></trkpt><trkpt lat="45.755140843222534" lon="8.472476511950084"><ele>409.0</ele><time>2026-04-07T12:33:41.001Z</time></trkpt><trkpt lat="45.755205001726615" lon="8.47254703235705"><ele>410.6</ele><time>2026-04-07T12:33:42.001Z</time></trkpt><trkpt lat="45.755271676802565" lon="8.472639206665518"><ele>412.2</ele><time>2026-04-07T12:33:43.001Z</time></trkpt><trkpt lat="45.755333459940026" lon="8.47272812566524"><ele>413.8</ele><time>2026-04-07T12:33:44.001Z</time></trkpt><trkpt lat="45.755403011520784" lon="8.472823397764065"><ele>415.40000000000003</ele><time>2026-04-07T12:33:45.001Z</time></trkpt><trkpt lat="45.75547312816939" lon="8.472922048981623"><ele>417.0</ele><time>2026-04-07T12:33:46.001Z</time></trkpt><trkpt lat="45.75553508369019" lon="8.473007940310127"><ele>417.0</ele><time>2026-04-07T12:33:47.001Z</time></trkpt><trkpt lat="45.755594093081804" lon="8.473088793091307"><ele>417.0</ele><time>2026-04-07T12:33:48.001Z</time></trkpt><trkpt lat="45.75565964841889" lon="8.47318264873668"><ele>417.0</ele><time>2026-04-07T12:33:49.001Z</time></trkpt><trkpt lat="45.75573461503436" lon="8.47328217416808"><ele>417.0</ele><time>2026-04-07T12:33:50.001Z</time></trkpt><trkpt lat="45.75580785381468" lon="8.473375566790065"><ele>417.0</ele><time>2026-04-07T12:33:51.001Z</time></trkpt><trkpt lat="45.75586239011777" lon="8.473462140142596"><ele>417.0</ele><time>2026-04-07T12:33:52.001Z</time></trkpt><trkpt lat="45.7559089577708" lon="8.473546730885714"><ele>417.0</ele><time>2026-04-07T12:33:53.001Z</time></trkpt><trkpt lat="45.75595895274386" lon="8.473652053725784"><ele>417.0</ele><time>2026-04-07T12:33:54.001Z</time></trkpt><trkpt lat="45.75602030316381" lon="8.473752612014906"><ele>417.0</ele><time>2026-04-07T12:33:55.001Z</time></trkpt><trkpt lat="45.7560749207378" lon="8.473807870217966"><ele>417.0</ele><time>2026-04-07T12:33:56.001Z</time></trkpt><trkpt lat="45.75612833914705" lon="8.473861578369752"><ele>417.0</ele><time>2026-04-07T12:33:57.001Z</time></trkpt><trkpt lat="45.75623295703575" lon="8.473900401640915"><ele>416.3333333333333</ele><time>2026-04-07T12:33:59.001Z</time></trkpt><trkpt lat="45.75630528819394" lon="8.473889221120046"><ele>415.66666666666663</ele><time>2026-04-07T12:34:00.001Z</time></trkpt><trkpt lat="45.756387449705436" lon="8.47387907704123"><ele>415.0</ele><time>2026-04-07T12:34:01.001Z</time></trkpt><trkpt lat="45.75648820585304" lon="8.473868436185217"><ele>414.3333333333333</ele><time>2026-04-07T12:34:02.001Z</time></trkpt><trkpt lat="45.75658284371917" lon="8.47383105811615"><ele>413.66666666666663</ele><time>2026-04-07T12:34:03.001Z</time></trkpt><trkpt lat="45.75666701542326" lon="8.473805700012836"><ele>413.0</ele><time>2026-04-07T12:34:04.001Z</time></trkpt><trkpt lat="45.75674629283061" lon="8.473780684434017"><ele>413.66666666666663</ele><time>2026-04-07T12:34:05.001Z</time></trkpt><trkpt lat="45.75682709216526" lon="8.473753818939887"><ele>414.3333333333333</ele><time>2026-04-07T12:34:06.001Z</time></trkpt><trkpt lat="45.75691290723094" lon="8.473720633631487"><ele>415.0</ele><time>2026-04-07T12:34:07.001Z</time></trkpt><trkpt lat="45.75700527892016" lon="8.473687773589065"><ele>415.66666666666663</ele><time>2026-04-07T12:34:08.001Z</time></trkpt><trkpt lat="45.75709467849321" lon="8.47363922918616"><ele>416.3333333333333</ele><time>2026-04-07T12:34:09.001Z</time></trkpt><trkpt lat="45.75717833712512" lon="8.473611028010303"><ele>417.0</ele><time>2026-04-07T12:34:10.001Z</time></trkpt><trkpt lat="45.7572619859618" lon="8.47356832176964"><ele>417.0</ele><time>2026-04-07T12:34:11.001Z</time></trkpt><trkpt lat="45.757338341282484" lon="8.47352041706182"><ele>417.0</ele><time>2026-04-07T12:34:12.001Z</time></trkpt><trkpt lat="45.757414276882336" lon="8.47346089893686"><ele>417.0</ele><time>2026-04-07T12:34:13.001Z</time></trkpt><trkpt lat="45.75749599316062" lon="8.473399922664976"><ele>417.0</ele><time>2026-04-07T12:34:14.002Z</time></trkpt><trkpt lat="45.75758109292978" lon="8.473354598580585"><ele>417.0</ele><time>2026-04-07T12:34:15.002Z</time></trkpt><trkpt lat="45.75765506854508" lon="8.473303869757384"><ele>417.0</ele><time>2026-04-07T12:34:16.002Z</time></trkpt><trkpt lat="45.75773618438129" lon="8.473228890264927"><ele>416.5</ele><time>2026-04-07T12:34:17.002Z</time></trkpt><trkpt lat="45.757806391331854" lon="8.473164690311606"><ele>416.0</ele><time>2026-04-07T12:34:18.002Z</time></trkpt><trkpt lat="45.75787361931677" lon="8.473129908748469"><ele>415.5</ele><time>2026-04-07T12:34:19.002Z</time></trkpt><trkpt lat="45.757948123088184" lon="8.473086978361202"><ele>415.0</ele><time>2026-04-07T12:34:20.002Z</time></trkpt><trkpt lat="45.75802824034249" lon="8.473055760553216"><ele>414.5</ele><time>2026-04-07T12:34:21.002Z</time></trkpt><trkpt lat="45.75812042814751" lon="8.473052730936388"><ele>414.0</ele><time>2026-04-07T12:34:22.002Z</time></trkpt><trkpt lat="45.75821961164441" lon="8.473053609570925"><ele>414.0</ele><time>2026-04-07T12:34:23.002Z</time></trkpt><trkpt lat="45.758308416842524" lon="8.473057433046447"><ele>414.0</ele><time>2026-04-07T12:34:24.002Z</time></trkpt><trkpt lat="45.75838233009608" lon="8.473054021904176"><ele>414.0</ele><time>2026-04-07T12:34:25.002Z</time></trkpt><trkpt lat="45.75844511307479" lon="8.473029164104771"><ele>414.0</ele><time>2026-04-07T12:34:26.002Z</time></trkpt><trkpt lat="45.75850416986038" lon="8.472997308184253"><ele>414.0</ele><time>2026-04-07T12:34:27.002Z</time></trkpt><trkpt lat="45.758589307974816" lon="8.472892636258768"><ele>414.0</ele><time>2026-04-07T12:34:29.002Z</time></trkpt><trkpt lat="45.758617450966796" lon="8.47281150431198"><ele>414.2</ele><time>2026-04-07T12:34:30.002Z</time></trkpt><trkpt lat="45.75861947478639" lon="8.472653327591395"><ele>414.4</ele><time>2026-04-07T12:34:32.002Z</time></trkpt><trkpt lat="45.758650465136434" lon="8.472573388886387"><ele>414.6</ele><time>2026-04-07T12:34:35.002Z</time></trkpt><trkpt lat="45.758719806566" lon="8.472518444478498"><ele>414.8</ele><time>2026-04-07T12:34:40.999Z</time></trkpt><trkpt lat="45.7588379633722" lon="8.472609474872204"><ele>415.0</ele><time>2026-04-07T12:34:42.999Z</time></trkpt><trkpt lat="45.7588995654459" lon="8.47264024792893"><ele>415.0</ele><time>2026-04-07T12:34:43.999Z</time></trkpt><trkpt lat="45.75897151094073" lon="8.472673087203805"><ele>415.0</ele><time>2026-04-07T12:34:44.999Z</time></trkpt><trkpt lat="45.759058761432705" lon="8.472708396623316"><ele>415.0</ele><time>2026-04-07T12:34:45.999Z</time></trkpt><trkpt lat="45.75915123429875" lon="8.472747271461142"><ele>415.0</ele><time>2026-04-07T12:34:46.999Z</time></trkpt><trkpt lat="45.759255458684045" lon="8.4727774960106"><ele>415.0</ele><time>2026-04-07T12:34:47.999Z</time></trkpt><trkpt lat="45.759370603385996" lon="8.47279614029298"><ele>414.75</ele><time>2026-04-07T12:34:48.999Z</time></trkpt><trkpt lat="45.75950203146991" lon="8.472811530950368"><ele>414.5</ele><time>2026-04-07T12:34:49.999Z</time></trkpt><trkpt lat="45.759615762905455" lon="8.472841625160148"><ele>414.25</ele><time>2026-04-07T12:34:50.999Z</time></trkpt><trkpt lat="45.7597281165364" lon="8.472883262041169"><ele>414.0</ele><time>2026-04-07T12:34:51.999Z</time></trkpt><trkpt lat="45.75982084917056" lon="8.472954210314619"><ele>413.6666666666667</ele><time>2026-04-07T12:34:52.999Z</time></trkpt><trkpt lat="45.75989659358801" lon="8.473043174290911"><ele>413.33333333333337</ele><time>2026-04-07T12:34:53.999Z</time></trkpt><trkpt lat="45.75996128474091" lon="8.473129759590847"><ele>413.0</ele><time>2026-04-07T12:34:54.999Z</time></trkpt><trkpt lat="45.76002296768789" lon="8.473211614537217"><ele>412.6666666666667</ele><time>2026-04-07T12:34:55.999Z</time></trkpt><trkpt lat="45.76008095736137" lon="8.473288644311843"><ele>412.33333333333337</ele><time>2026-04-07T12:34:56.999Z</time></trkpt><trkpt lat="45.76013717072308" lon="8.473362560722766"><ele>412.0</ele><time>2026-04-07T12:34:57.999Z</time></trkpt><trkpt lat="45.760192815356696" lon="8.473431914255059"><ele>411.83333333333337</ele><time>2026-04-07T12:34:59Z</time></trkpt><trkpt lat="45.76024343922794" lon="8.47349774337827"><ele>411.6666666666667</ele><time>2026-04-07T12:35:00Z</time></trkpt><trkpt lat="45.760322397391825" lon="8.473583223886882"><ele>411.5</ele><time>2026-04-07T12:35:02Z</time></trkpt><trkpt lat="45.76041849438245" lon="8.4735150352286"><ele>411.33333333333337</ele><time>2026-04-07T12:35:05Z</time></trkpt><trkpt lat="45.76044880931186" lon="8.473422993560815"><ele>411.1666666666667</ele><time>2026-04-07T12:35:06Z</time></trkpt><trkpt lat="45.76049307676783" lon="8.473319714067356"><ele>411.0</ele><time>2026-04-07T12:35:07Z</time></trkpt><trkpt lat="45.760556183505805" lon="8.473210833465707"><ele>411.0</ele><time>2026-04-07T12:35:08Z</time></trkpt><trkpt lat="45.76062239739504" lon="8.473087698057126"><ele>411.0</ele><time>2026-04-07T12:35:09Z</time></trkpt><trkpt lat="45.760690687296936" lon="8.472957059517036"><ele>411.0</ele><time>2026-04-07T12:35:10Z</time></trkpt><trkpt lat="45.76075199494349" lon="8.472837827506076"><ele>411.0</ele><time>2026-04-07T12:35:11Z</time></trkpt><trkpt lat="45.76080681384489" lon="8.47271824429445"><ele>411.0</ele><time>2026-04-07T12:35:12Z</time></trkpt><trkpt lat="45.76085335652024" lon="8.472594523639422"><ele>411.0</ele><time>2026-04-07T12:35:13Z</time></trkpt><trkpt lat="45.76088267698798" lon="8.472458270922314"><ele>411.0</ele><time>2026-04-07T12:35:14Z</time></trkpt><trkpt lat="45.760904734918455" lon="8.472330927404917"><ele>411.0</ele><time>2026-04-07T12:35:15Z</time></trkpt><trkpt lat="45.76093303115041" lon="8.47219359991599"><ele>411.0</ele><time>2026-04-07T12:35:16Z</time></trkpt><trkpt lat="45.76096718767858" lon="8.472057536033002"><ele>411.0</ele><time>2026-04-07T12:35:17Z</time></trkpt><trkpt lat="45.760999889134496" lon="8.471927788077227"><ele>410.6</ele><time>2026-04-07T12:35:18Z</time></trkpt><trkpt lat="45.761046682428436" lon="8.471790862558152"><ele>410.20000000000005</ele><time>2026-04-07T12:35:19Z</time></trkpt><trkpt lat="45.76109136888852" lon="8.471672987312235"><ele>409.79999999999995</ele><time>2026-04-07T12:35:20Z</time></trkpt><trkpt lat="45.76111940761393" lon="8.471560705463533"><ele>409.4</ele><time>2026-04-07T12:35:21Z</time></trkpt><trkpt lat="45.76114469615104" lon="8.471446565549087"><ele>409.0</ele><time>2026-04-07T12:35:22Z</time></trkpt><trkpt lat="45.761158651010554" lon="8.471312364022383"><ele>409.0</ele><time>2026-04-07T12:35:23Z</time></trkpt><trkpt lat="45.76115638473836" lon="8.471172144612364"><ele>409.0</ele><time>2026-04-07T12:35:24Z</time></trkpt><trkpt lat="45.76114756581387" lon="8.471027584510114"><ele>409.0</ele><time>2026-04-07T12:35:25Z</time></trkpt><trkpt lat="45.76114460020398" lon="8.470887040112101"><ele>409.0</ele><time>2026-04-07T12:35:26Z</time></trkpt><trkpt lat="45.7611383712191" lon="8.47075083232536"><ele>409.0</ele><time>2026-04-07T12:35:27Z</time></trkpt><trkpt lat="45.76113220657269" lon="8.470633530216286"><ele>409.0</ele><time>2026-04-07T12:35:28.001Z</time></trkpt><trkpt lat="45.76113778448619" lon="8.470534670098367"><ele>409.0</ele><time>2026-04-07T12:35:29.001Z</time></trkpt><trkpt lat="45.7611535347982" lon="8.470424277322936"><ele>409.0</ele><time>2026-04-07T12:35:30.001Z</time></trkpt><trkpt lat="45.76119030617942" lon="8.47028321368873"><ele>409.0</ele><time>2026-04-07T12:35:31.001Z</time></trkpt><trkpt lat="45.761237051632726" lon="8.470145299500548"><ele>409.0</ele><time>2026-04-07T12:35:32.001Z</time></trkpt><trkpt lat="45.76127930642396" lon="8.47001328317712"><ele>410.6</ele><time>2026-04-07T12:35:33.001Z</time></trkpt><trkpt lat="45.76131059209421" lon="8.469877747812385"><ele>412.2</ele><time>2026-04-07T12:35:34.001Z</time></trkpt><trkpt lat="45.761319391065385" lon="8.469736826885573"><ele>413.8</ele><time>2026-04-07T12:35:35.001Z</time></trkpt><trkpt lat="45.761297016831605" lon="8.469584611523846"><ele>415.40000000000003</ele><time>2026-04-07T12:35:36.001Z</time></trkpt><trkpt lat="45.76129149222931" lon="8.469444353749033"><ele>417.0</ele><time>2026-04-07T12:35:37.001Z</time></trkpt><trkpt lat="45.761331264521324" lon="8.469311724655979"><ele>417.40000000000003</ele><time>2026-04-07T12:35:38.001Z</time></trkpt><trkpt lat="45.76135012420182" lon="8.469181673539175"><ele>417.8</ele><time>2026-04-07T12:35:39.001Z</time></trkpt><trkpt lat="45.761386718988206" lon="8.469038954669022"><ele>418.2</ele><time>2026-04-07T12:35:40.001Z</time></trkpt><trkpt lat="45.76142180528975" lon="8.468914520755925"><ele>418.6</ele><time>2026-04-07T12:35:41.001Z</time></trkpt><trkpt lat="45.76145945989807" lon="8.468792416762911"><ele>419.0</ele><time>2026-04-07T12:35:42.001Z</time></trkpt><trkpt lat="45.76150631254973" lon="8.46868249600528"><ele>418.99999999999994</ele><time>2026-04-07T12:35:43.001Z</time></trkpt><trkpt lat="45.761564393488264" lon="8.468566996649608"><ele>419.0</ele><time>2026-04-07T12:35:44.001Z</time></trkpt><trkpt lat="45.76162549088833" lon="8.468462379205333"><ele>419.0</ele><time>2026-04-07T12:35:45.001Z</time></trkpt><trkpt lat="45.761679156521254" lon="8.468367827266151"><ele>419.0</ele><time>2026-04-07T12:35:46.001Z</time></trkpt><trkpt lat="45.7617359158731" lon="8.46826766258754"><ele>418.99999999999994</ele><time>2026-04-07T12:35:47.001Z</time></trkpt><trkpt lat="45.761776778226675" lon="8.468177332496328"><ele>419.0</ele><time>2026-04-07T12:35:48.001Z</time></trkpt><trkpt lat="45.761827130088896" lon="8.46808645491862"><ele>418.2</ele><time>2026-04-07T12:35:49.001Z</time></trkpt><trkpt lat="45.76188438398418" lon="8.4680112759412"><ele>417.4</ele><time>2026-04-07T12:35:50.001Z</time></trkpt><trkpt lat="45.76196302496294" lon="8.467888762875646"><ele>416.6</ele><time>2026-04-07T12:35:52.001Z</time></trkpt><trkpt lat="45.76198375815323" lon="8.467718923808764"><ele>415.8</ele><time>2026-04-07T12:35:54.001Z</time></trkpt><trkpt lat="45.761943714238086" lon="8.467600221295697"><ele>415.0</ele><time>2026-04-07T12:35:55.001Z</time></trkpt><trkpt lat="45.7618971716448" lon="8.467479271572286"><ele>414.5</ele><time>2026-04-07T12:35:56.001Z</time></trkpt><trkpt lat="45.76184784719794" lon="8.46732884965831"><ele>414.0</ele><time>2026-04-07T12:35:57.001Z</time></trkpt><trkpt lat="45.76179672848539" lon="8.467142779710333"><ele>413.5</ele><time>2026-04-07T12:35:58.001Z</time></trkpt><trkpt lat="45.76175562671712" lon="8.466962173597285"><ele>413.0</ele><time>2026-04-07T12:35:59.001Z</time></trkpt><trkpt lat="45.76170843301406" lon="8.466801143803114"><ele>412.2</ele><time>2026-04-07T12:36:00.001Z</time></trkpt><trkpt lat="45.761669787414796" lon="8.466662307501402"><ele>411.4</ele><time>2026-04-07T12:36:01.001Z</time></trkpt><trkpt lat="45.76165416336396" lon="8.466512092406344"><ele>410.59999999999997</ele><time>2026-04-07T12:36:02.001Z</time></trkpt><trkpt lat="45.76161949408129" lon="8.466363513818479"><ele>409.79999999999995</ele><time>2026-04-07T12:36:03.001Z</time></trkpt><trkpt lat="45.76157012942736" lon="8.46621378224685"><ele>409.0</ele><time>2026-04-07T12:36:04.002Z</time></trkpt><trkpt lat="45.761512281087526" lon="8.466061927390335"><ele>411.4</ele><time>2026-04-07T12:36:05.002Z</time></trkpt><trkpt lat="45.76146160178034" lon="8.46590775974148"><ele>413.79999999999995</ele><time>2026-04-07T12:36:06.002Z</time></trkpt><trkpt lat="45.76139678980753" lon="8.465791642025474"><ele>416.20000000000005</ele><time>2026-04-07T12:36:07.002Z</time></trkpt><trkpt lat="45.76134684180019" lon="8.465686108566775"><ele>418.6</ele><time>2026-04-07T12:36:08.002Z</time></trkpt><trkpt lat="45.76130074029719" lon="8.465605749920309"><ele>421.0</ele><time>2026-04-07T12:36:09.002Z</time></trkpt><trkpt lat="45.761240727587634" lon="8.465520194523178"><ele>420.4</ele><time>2026-04-07T12:36:10.002Z</time></trkpt><trkpt lat="45.76117183483771" lon="8.46543728632971"><ele>419.8</ele><time>2026-04-07T12:36:11.002Z</time></trkpt><trkpt lat="45.76110113287564" lon="8.465364730383007"><ele>419.2</ele><time>2026-04-07T12:36:12.002Z</time></trkpt><trkpt lat="45.76101952816669" lon="8.465246778119916"><ele>418.59999999999997</ele><time>2026-04-07T12:36:13.002Z</time></trkpt><trkpt lat="45.76094538027277" lon="8.465177533033973"><ele>418.0</ele><time>2026-04-07T12:36:14.002Z</time></trkpt><trkpt lat="45.760861910828744" lon="8.465125412412217"><ele>418.0</ele><time>2026-04-07T12:36:15.002Z</time></trkpt><trkpt lat="45.76078250994628" lon="8.465046474299909"><ele>418.0</ele><time>2026-04-07T12:36:16.002Z</time></trkpt><trkpt lat="45.76070645419161" lon="8.46500255288451"><ele>418.0</ele><time>2026-04-07T12:36:17.002Z</time></trkpt><trkpt lat="45.76058094818243" lon="8.464978114665556"><ele>418.0</ele><time>2026-04-07T12:36:18.002Z</time></trkpt><trkpt lat="45.76047691658267" lon="8.464963745452573"><ele>418.0</ele><time>2026-04-07T12:36:19.002Z</time></trkpt><trkpt lat="45.760385112807036" lon="8.4649165437461"><ele>418.0</ele><time>2026-04-07T12:36:20.002Z</time></trkpt><trkpt lat="45.76029828524461" lon="8.464806787815549"><ele>418.0</ele><time>2026-04-07T12:36:21.002Z</time></trkpt><trkpt lat="45.760222527434514" lon="8.464746774858652"><ele>418.0</ele><time>2026-04-07T12:36:22.002Z</time></trkpt><trkpt lat="45.7601512711311" lon="8.464703700886682"><ele>418.0</ele><time>2026-04-07T12:36:23.002Z</time></trkpt><trkpt lat="45.76007889955997" lon="8.464704492459816"><ele>418.0</ele><time>2026-04-07T12:36:24.002Z</time></trkpt><trkpt lat="45.75997819450606" lon="8.46469292705809"><ele>416.6666666666667</ele><time>2026-04-07T12:36:26.002Z</time></trkpt><trkpt lat="45.75986207369837" lon="8.464663679153091"><ele>415.33333333333337</ele><time>2026-04-07T12:36:28.002Z</time></trkpt><trkpt lat="45.75979825465878" lon="8.464646650970103"><ele>414.0</ele><time>2026-04-07T12:36:29.002Z</time></trkpt><trkpt lat="45.759724662392166" lon="8.464715210984725"><ele>412.66666666666663</ele><time>2026-04-07T12:36:31.002Z</time></trkpt><trkpt lat="45.759658226203406" lon="8.4648333677045"><ele>411.3333333333333</ele><time>2026-04-07T12:36:33.002Z</time></trkpt><trkpt lat="45.75958665521474" lon="8.464837080625022"><ele>410.0</ele><time>2026-04-07T12:36:34.002Z</time></trkpt><trkpt lat="45.759526112049734" lon="8.464808679257978"><ele>410.0</ele><time>2026-04-07T12:36:35.002Z</time></trkpt><trkpt lat="45.759405788263024" lon="8.464721212797732"><ele>410.0</ele><time>2026-04-07T12:36:37.002Z</time></trkpt><trkpt lat="45.75929431359188" lon="8.464624760117731"><ele>410.0</ele><time>2026-04-07T12:36:39.002Z</time></trkpt><trkpt lat="45.75920577677149" lon="8.464546377410738"><ele>410.0</ele><time>2026-04-07T12:36:41.002Z</time></trkpt><trkpt lat="45.759070559968436" lon="8.464591923637329"><ele>415.3333333333333</ele><time>2026-04-07T12:36:42.999Z</time></trkpt><trkpt lat="45.758989000556106" lon="8.464611053087788"><ele>420.66666666666663</ele><time>2026-04-07T12:36:43.999Z</time></trkpt><trkpt lat="45.75891143628382" lon="8.46460197513532"><ele>426.0</ele><time>2026-04-07T12:36:44.999Z</time></trkpt><trkpt lat="45.75882536645716" lon="8.464585160328307"><ele>431.33333333333337</ele><time>2026-04-07T12:36:45.999Z</time></trkpt><trkpt lat="45.758728073378535" lon="8.464553391226135"><ele>436.6666666666667</ele><time>2026-04-07T12:36:46.999Z</time></trkpt><trkpt lat="45.75864109746594" lon="8.46449949678797"><ele>442.0</ele><time>2026-04-07T12:36:47.999Z</time></trkpt><trkpt lat="45.758575011504604" lon="8.46446069347899"><ele>436.40000000000003</ele><time>2026-04-07T12:36:48.999Z</time></trkpt><trkpt lat="45.758473052793974" lon="8.464414926700945"><ele>430.80000000000007</ele><time>2026-04-07T12:36:50.999Z</time></trkpt><trkpt lat="45.75840264302354" lon="8.464346793296018"><ele>425.2</ele><time>2026-04-07T12:36:51.999Z</time></trkpt><trkpt lat="45.75829549457922" lon="8.464238965923576"><ele>419.6</ele><time>2026-04-07T12:36:52.999Z</time></trkpt><trkpt lat="45.758220620785664" lon="8.464105242070945"><ele>414.0</ele><time>2026-04-07T12:36:53.999Z</time></trkpt><trkpt lat="45.75814913922365" lon="8.464026614567858"><ele>414.0</ele><time>2026-04-07T12:36:54.999Z</time></trkpt><trkpt lat="45.758086442588" lon="8.463950925439017"><ele>414.0</ele><time>2026-04-07T12:36:55.999Z</time></trkpt><trkpt lat="45.75803059330308" lon="8.463886175392675"><ele>414.0</ele><time>2026-04-07T12:36:56.999Z</time></trkpt><trkpt lat="45.75799727671484" lon="8.463796491101915"><ele>414.0</ele><time>2026-04-07T12:36:57.999Z</time></trkpt><trkpt lat="45.75796536839616" lon="8.463693912698133"><ele>414.0</ele><time>2026-04-07T12:36:59Z</time></trkpt><trkpt lat="45.75790841799921" lon="8.46355905718148"><ele>414.0</ele><time>2026-04-07T12:37:01Z</time></trkpt><trkpt lat="45.75782638669154" lon="8.463465377897974"><ele>412.5</ele><time>2026-04-07T12:37:03Z</time></trkpt><trkpt lat="45.757786807630204" lon="8.46337198257068"><ele>411.0</ele><time>2026-04-07T12:37:05Z</time></trkpt><trkpt lat="45.75781089926018" lon="8.463218351791197"><ele>409.5</ele><time>2026-04-07T12:37:07Z</time></trkpt><trkpt lat="45.7578756793195" lon="8.463098870613496"><ele>408.0</ele><time>2026-04-07T12:37:09Z</time></trkpt><trkpt lat="45.75792342926036" lon="8.463018358411643"><ele>406.5</ele><time>2026-04-07T12:37:11Z</time></trkpt><trkpt lat="45.757968334913585" lon="8.462934003763554"><ele>405.0</ele><time>2026-04-07T12:37:14Z</time></trkpt><trkpt lat="45.75804730610739" lon="8.462832921428625"><ele>404.99999999999994</ele><time>2026-04-07T12:37:22Z</time></trkpt><trkpt lat="45.7581033123417" lon="8.462765520551306"><ele>405.0</ele><time>2026-04-07T12:37:23Z</time></trkpt><trkpt lat="45.758155321294296" lon="8.462695046884306"><ele>405.0</ele><time>2026-04-07T12:37:24Z</time></trkpt><trkpt lat="45.75819989972331" lon="8.46262325486045"><ele>405.0</ele><time>2026-04-07T12:37:25Z</time></trkpt><trkpt lat="45.75825197763663" lon="8.462546990378113"><ele>405.0</ele><time>2026-04-07T12:37:26Z</time></trkpt><trkpt lat="45.75829929467796" lon="8.462469493908047"><ele>404.99999999999994</ele><time>2026-04-07T12:37:27.001Z</time></trkpt><trkpt lat="45.758354102929616" lon="8.46241480211888"><ele>405.0</ele><time>2026-04-07T12:37:28.001Z</time></trkpt><trkpt lat="45.75841791129431" lon="8.462342001055118"><ele>405.0</ele><time>2026-04-07T12:37:29.001Z</time></trkpt><trkpt lat="45.75849376724691" lon="8.462261487922627"><ele>405.0</ele><time>2026-04-07T12:37:30.001Z</time></trkpt><trkpt lat="45.7585508855789" lon="8.46217894517345"><ele>405.0</ele><time>2026-04-07T12:37:31.001Z</time></trkpt><trkpt lat="45.75860302080949" lon="8.462102129976051"><ele>405.0</ele><time>2026-04-07T12:37:32.001Z</time></trkpt><trkpt lat="45.758646471933616" lon="8.46203174295472"><ele>405.0</ele><time>2026-04-07T12:37:33.001Z</time></trkpt><trkpt lat="45.75868475861139" lon="8.461946632748335"><ele>405.0</ele><time>2026-04-07T12:37:34.001Z</time></trkpt><trkpt lat="45.75872603077396" lon="8.461869658771125"><ele>407.6</ele><time>2026-04-07T12:37:35.001Z</time></trkpt><trkpt lat="45.75876352870928" lon="8.461766988140178"><ele>410.2</ele><time>2026-04-07T12:37:36.001Z</time></trkpt><trkpt lat="45.75879680271555" lon="8.461679854512365"><ele>412.79999999999995</ele><time>2026-04-07T12:37:37.001Z</time></trkpt><trkpt lat="45.758871792564726" lon="8.461546271690597"><ele>415.4</ele><time>2026-04-07T12:37:39.001Z</time></trkpt><trkpt lat="45.7589427451718" lon="8.461432352555006"><ele>418.0</ele><time>2026-04-07T12:37:41.001Z</time></trkpt><trkpt lat="45.759006911657906" lon="8.461339796767671"><ele>419.00000000000006</ele><time>2026-04-07T12:37:43.001Z</time></trkpt><trkpt lat="45.75906663477176" lon="8.461231262598165"><ele>420.0</ele><time>2026-04-07T12:37:45.001Z</time></trkpt><trkpt lat="45.75916146371876" lon="8.46113208159773"><ele>421.0</ele><time>2026-04-07T12:37:47.001Z</time></trkpt><trkpt lat="45.75921197949379" lon="8.46107603206227"><ele>422.0</ele><time>2026-04-07T12:37:48.001Z</time></trkpt><trkpt lat="45.75927752155117" lon="8.460991466558129"><ele>423.00000000000006</ele><time>2026-04-07T12:37:49.001Z</time></trkpt><trkpt lat="45.759323513926724" lon="8.460898152725605"><ele>424.0</ele><time>2026-04-07T12:37:50.001Z</time></trkpt><trkpt lat="45.759381255159276" lon="8.460731362855054"><ele>424.00000000000006</ele><time>2026-04-07T12:37:52.001Z</time></trkpt><trkpt lat="45.759425055816806" lon="8.460635060838953"><ele>424.0</ele><time>2026-04-07T12:37:53.001Z</time></trkpt><trkpt lat="45.75947746880572" lon="8.460546980853989"><ele>424.0</ele><time>2026-04-07T12:37:54.001Z</time></trkpt><trkpt lat="45.75953439853905" lon="8.460463607833281"><ele>424.0</ele><time>2026-04-07T12:37:55.001Z</time></trkpt><trkpt lat="45.7595960218884" lon="8.460382603885545"><ele>424.00000000000006</ele><time>2026-04-07T12:37:56.001Z</time></trkpt><trkpt lat="45.75967284446862" lon="8.460325036691673"><ele>424.0</ele><time>2026-04-07T12:37:57.001Z</time></trkpt><trkpt lat="45.75976310212069" lon="8.460274052479756"><ele>419.0</ele><time>2026-04-07T12:37:58.001Z</time></trkpt><trkpt lat="45.75985899537473" lon="8.460217502117125"><ele>414.0</ele><time>2026-04-07T12:37:59.001Z</time></trkpt><trkpt lat="45.75994710041718" lon="8.4601848211483"><ele>409.0</ele><time>2026-04-07T12:38:00.001Z</time></trkpt><trkpt lat="45.76002175632761" lon="8.460187393496353"><ele>404.0</ele><time>2026-04-07T12:38:01.002Z</time></trkpt><trkpt lat="45.76011455677378" lon="8.460118062373576"><ele>399.0</ele><time>2026-04-07T12:38:03.002Z</time></trkpt><trkpt lat="45.760166838865324" lon="8.460011521014476"><ele>400.3333333333333</ele><time>2026-04-07T12:38:05.002Z</time></trkpt><trkpt lat="45.760221817519835" lon="8.459957882601241"><ele>401.66666666666663</ele><time>2026-04-07T12:38:07.002Z</time></trkpt><trkpt lat="45.76032840894889" lon="8.459881429528878"><ele>403.0</ele><time>2026-04-07T12:38:09.002Z</time></trkpt><trkpt lat="45.76039189967984" lon="8.459810271898958"><ele>404.3333333333333</ele><time>2026-04-07T12:38:10.002Z</time></trkpt><trkpt lat="45.760449679837656" lon="8.459748816887695"><ele>405.66666666666663</ele><time>2026-04-07T12:38:11.002Z</time></trkpt><trkpt lat="45.76048511638755" lon="8.459670621790401"><ele>407.0</ele><time>2026-04-07T12:38:12.002Z</time></trkpt><trkpt lat="45.76052266650907" lon="8.459581899247299"><ele>407.0</ele><time>2026-04-07T12:38:13.002Z</time></trkpt><trkpt lat="45.76061374606202" lon="8.459419290853173"><ele>407.0</ele><time>2026-04-07T12:38:15.002Z</time></trkpt><trkpt lat="45.760683326917395" lon="8.459323326969315"><ele>407.0</ele><time>2026-04-07T12:38:16.002Z</time></trkpt><trkpt lat="45.76074618347344" lon="8.459231877951131"><ele>407.0</ele><time>2026-04-07T12:38:17.002Z</time></trkpt><trkpt lat="45.76080600619553" lon="8.459147946652676"><ele>407.0</ele><time>2026-04-07T12:38:19.002Z</time></trkpt><trkpt lat="45.760848206483146" lon="8.45901773018166"><ele>406.99999999999994</ele><time>2026-04-07T12:38:22.002Z</time></trkpt><trkpt lat="45.76089226352305" lon="8.45894505551461"><ele>407.0</ele><time>2026-04-07T12:38:23.002Z</time></trkpt><trkpt lat="45.76094893306138" lon="8.458861225955228"><ele>407.0</ele><time>2026-04-07T12:38:24.002Z</time></trkpt><trkpt lat="45.76101449785609" lon="8.458789389084203"><ele>407.0</ele><time>2026-04-07T12:38:25.002Z</time></trkpt><trkpt lat="45.76107342228375" lon="8.458716295957904"><ele>406.99999999999994</ele><time>2026-04-07T12:38:26.002Z</time></trkpt><trkpt lat="45.76115463452486" lon="8.458644228873185"><ele>407.0</ele><time>2026-04-07T12:38:27.002Z</time></trkpt><trkpt lat="45.76122468395486" lon="8.458568023351662"><ele>407.6</ele><time>2026-04-07T12:38:28.002Z</time></trkpt><trkpt lat="45.76130151582235" lon="8.458474028748842"><ele>408.20000000000005</ele><time>2026-04-07T12:38:29.002Z</time></trkpt><trkpt lat="45.761393289338244" lon="8.458384660317597"><ele>408.8</ele><time>2026-04-07T12:38:30.002Z</time></trkpt><trkpt lat="45.761484646247126" lon="8.458289343034433"><ele>409.4</ele><time>2026-04-07T12:38:31.002Z</time></trkpt><trkpt lat="45.7615613946698" lon="8.458216813245134"><ele>410.0</ele><time>2026-04-07T12:38:32.002Z</time></trkpt><trkpt lat="45.761606397021104" lon="8.458144523972242"><ele>410.0</ele><time>2026-04-07T12:38:33.002Z</time></trkpt><trkpt lat="45.76167554943091" lon="8.458088668275376"><ele>410.0</ele><time>2026-04-07T12:38:34.002Z</time></trkpt><trkpt lat="45.76175128281532" lon="8.458016577068408"><ele>410.0</ele><time>2026-04-07T12:38:35.002Z</time></trkpt><trkpt lat="45.76182539217461" lon="8.457944276038708"><ele>410.0</ele><time>2026-04-07T12:38:36.003Z</time></trkpt><trkpt lat="45.76190293485381" lon="8.457880186882841"><ele>410.0</ele><time>2026-04-07T12:38:37.003Z</time></trkpt><trkpt lat="45.76199402308113" lon="8.457808916344312"><ele>409.5</ele><time>2026-04-07T12:38:38.003Z</time></trkpt><trkpt lat="45.762105705977085" lon="8.457731664698835"><ele>409.0</ele><time>2026-04-07T12:38:39.003Z</time></trkpt><trkpt lat="45.762231300296946" lon="8.457643466784534"><ele>408.5</ele><time>2026-04-07T12:38:40.003Z</time></trkpt><trkpt lat="45.76236297779798" lon="8.457562242127318"><ele>408.0</ele><time>2026-04-07T12:38:41.003Z</time></trkpt><trkpt lat="45.762473936946726" lon="8.45748176762746"><ele>408.0</ele><time>2026-04-07T12:38:42.003Z</time></trkpt><trkpt lat="45.7625698395043" lon="8.457407081187451"><ele>408.0</ele><time>2026-04-07T12:38:43.003Z</time></trkpt><trkpt lat="45.762653417033704" lon="8.457349230433062"><ele>408.0</ele><time>2026-04-07T12:38:44.003Z</time></trkpt><trkpt lat="45.76273380698529" lon="8.457296107045417"><ele>408.0</ele><time>2026-04-07T12:38:45.003Z</time></trkpt><trkpt lat="45.762797455724865" lon="8.457255661719262"><ele>408.0</ele><time>2026-04-07T12:38:46.003Z</time></trkpt><trkpt lat="45.762853559808356" lon="8.457201447719948"><ele>408.0</ele><time>2026-04-07T12:38:48.003Z</time></trkpt><trkpt lat="45.76293845413684" lon="8.457135136372461"><ele>407.2</ele><time>2026-04-07T12:38:49.999Z</time></trkpt><trkpt lat="45.76302461150456" lon="8.457044863980059"><ele>406.4</ele><time>2026-04-07T12:38:51.999Z</time></trkpt><trkpt lat="45.763129615930715" lon="8.456930613553885"><ele>405.59999999999997</ele><time>2026-04-07T12:38:53.999Z</time></trkpt><trkpt lat="45.76319398943882" lon="8.456859732522409"><ele>404.79999999999995</ele><time>2026-04-07T12:38:54.999Z</time></trkpt><trkpt lat="45.76325581701817" lon="8.45679067817148"><ele>404.0</ele><time>2026-04-07T12:38:55.999Z</time></trkpt><trkpt lat="45.76334285495224" lon="8.456699324097572"><ele>403.99999999999994</ele><time>2026-04-07T12:38:57.999Z</time></trkpt><trkpt lat="45.7633987230949" lon="8.456640916472658"><ele>404.0</ele><time>2026-04-07T12:39:00Z</time></trkpt><trkpt lat="45.76343922706745" lon="8.4565571121095"><ele>404.0</ele><time>2026-04-07T12:39:03Z</time></trkpt><trkpt lat="45.76352642181236" lon="8.456460669884953"><ele>404.0</ele><time>2026-04-07T12:39:05Z</time></trkpt><trkpt lat="45.76361446371244" lon="8.456378716658959"><ele>403.99999999999994</ele><time>2026-04-07T12:39:07Z</time></trkpt><trkpt lat="45.7636573320493" lon="8.456302933180488"><ele>404.0</ele><time>2026-04-07T12:39:09Z</time></trkpt><trkpt lat="45.7637651526784" lon="8.456243779392514"><ele>402.16666666666663</ele><time>2026-04-07T12:39:11Z</time></trkpt><trkpt lat="45.763877178624874" lon="8.456230478784097"><ele>400.3333333333333</ele><time>2026-04-07T12:39:13Z</time></trkpt><trkpt lat="45.76394239166911" lon="8.456225153695646"><ele>398.5</ele><time>2026-04-07T12:39:14Z</time></trkpt><trkpt lat="45.76404247541824" lon="8.45624435169004"><ele>396.66666666666663</ele><time>2026-04-07T12:39:16Z</time></trkpt><trkpt lat="45.764123105031835" lon="8.456250203835188"><ele>394.8333333333333</ele><time>2026-04-07T12:39:18Z</time></trkpt><trkpt lat="45.76419463439569" lon="8.456256555394118"><ele>393.0</ele><time>2026-04-07T12:39:19Z</time></trkpt><trkpt lat="45.76426345628513" lon="8.456279076644819"><ele>393.0</ele><time>2026-04-07T12:39:20Z</time></trkpt><trkpt lat="45.76436137615412" lon="8.456230296911754"><ele>393.0</ele><time>2026-04-07T12:39:22Z</time></trkpt><trkpt lat="45.76446171158851" lon="8.456187005750031"><ele>393.0</ele><time>2026-04-07T12:39:24Z</time></trkpt><trkpt lat="45.76454723444983" lon="8.456147772346359"><ele>393.0</ele><time>2026-04-07T12:39:26Z</time></trkpt><trkpt lat="45.76460810163481" lon="8.456110252416508"><ele>393.0</ele><time>2026-04-07T12:39:27Z</time></trkpt><trkpt lat="45.764677301985614" lon="8.4560585955922"><ele>393.0</ele><time>2026-04-07T12:39:28.001Z</time></trkpt><trkpt lat="45.76476477026449" lon="8.456011423922382"><ele>394.2</ele><time>2026-04-07T12:39:29.001Z</time></trkpt><trkpt lat="45.764856697543976" lon="8.45596974879559"><ele>395.4</ele><time>2026-04-07T12:39:30.001Z</time></trkpt><trkpt lat="45.76494130368106" lon="8.455916087336345"><ele>396.59999999999997</ele><time>2026-04-07T12:39:31.001Z</time></trkpt><trkpt lat="45.76502022651291" lon="8.4558480613399"><ele>397.79999999999995</ele><time>2026-04-07T12:39:32.001Z</time></trkpt><trkpt lat="45.76510598775656" lon="8.455765569694638"><ele>399.0</ele><time>2026-04-07T12:39:33.001Z</time></trkpt><trkpt lat="45.7651859963867" lon="8.455709940532195"><ele>402.6</ele><time>2026-04-07T12:39:34.001Z</time></trkpt><trkpt lat="45.765262129885784" lon="8.455666335722482"><ele>406.2</ele><time>2026-04-07T12:39:35.001Z</time></trkpt><trkpt lat="45.765365541172315" lon="8.455667833837595"><ele>409.8</ele><time>2026-04-07T12:39:36.001Z</time></trkpt><trkpt lat="45.765448904730704" lon="8.455640860629735"><ele>413.40000000000003</ele><time>2026-04-07T12:39:37.001Z</time></trkpt><trkpt lat="45.7655167600943" lon="8.455604920610648"><ele>417.0</ele><time>2026-04-07T12:39:38.001Z</time></trkpt><trkpt lat="45.76564592852571" lon="8.455520335337066"><ele>417.0</ele><time>2026-04-07T12:39:40.001Z</time></trkpt><trkpt lat="45.76572096505708" lon="8.455507959046988"><ele>417.0</ele><time>2026-04-07T12:39:41.001Z</time></trkpt><trkpt lat="45.76580809019361" lon="8.455482276923256"><ele>417.0</ele><time>2026-04-07T12:39:42.001Z</time></trkpt><trkpt lat="45.76587691527843" lon="8.455437266931636"><ele>417.0</ele><time>2026-04-07T12:39:43.001Z</time></trkpt><trkpt lat="45.765949315421096" lon="8.45539034719551"><ele>417.0</ele><time>2026-04-07T12:39:44.001Z</time></trkpt><trkpt lat="45.766063167651836" lon="8.455340148586977"><ele>417.0</ele><time>2026-04-07T12:39:46.001Z</time></trkpt><trkpt lat="45.76612648912511" lon="8.455324550942098"><ele>413.8333333333333</ele><time>2026-04-07T12:39:47.001Z</time></trkpt><trkpt lat="45.76618901487088" lon="8.455298541605943"><ele>410.66666666666663</ele><time>2026-04-07T12:39:48.001Z</time></trkpt><trkpt lat="45.7662723383698" lon="8.455307502442103"><ele>407.5</ele><time>2026-04-07T12:39:49.001Z</time></trkpt><trkpt lat="45.76636036363979" lon="8.455297925965848"><ele>404.3333333333333</ele><time>2026-04-07T12:39:50.001Z</time></trkpt><trkpt lat="45.76645571176282" lon="8.455286215900573"><ele>401.16666666666663</ele><time>2026-04-07T12:39:51.001Z</time></trkpt><trkpt lat="45.76654662750218" lon="8.455267601433983"><ele>398.0</ele><time>2026-04-07T12:39:52.001Z</time></trkpt><trkpt lat="45.76661550648666" lon="8.45524517300983"><ele>397.99999999999994</ele><time>2026-04-07T12:39:53.001Z</time></trkpt><trkpt lat="45.76669239556719" lon="8.455245917622655"><ele>398.0</ele><time>2026-04-07T12:39:54.001Z</time></trkpt><trkpt lat="45.766775771783784" lon="8.455306193263361"><ele>398.0</ele><time>2026-04-07T12:39:55.001Z</time></trkpt><trkpt lat="45.766838845345546" lon="8.455330607488238"><ele>398.0</ele><time>2026-04-07T12:39:56.001Z</time></trkpt><trkpt lat="45.766904995117656" lon="8.455308891992"><ele>398.0</ele><time>2026-04-07T12:39:58.001Z</time></trkpt><trkpt lat="45.76696894027898" lon="8.455300166198107"><ele>397.99999999999994</ele><time>2026-04-07T12:39:59.002Z</time></trkpt><trkpt lat="45.76704331244152" lon="8.455314482493755"><ele>398.0</ele><time>2026-04-07T12:40:00.002Z</time></trkpt><trkpt lat="45.76711439311361" lon="8.455329141862972"><ele>398.16666666666663</ele><time>2026-04-07T12:40:01.002Z</time></trkpt><trkpt lat="45.76718590520382" lon="8.455320596706871"><ele>398.3333333333333</ele><time>2026-04-07T12:40:02.002Z</time></trkpt><trkpt lat="45.76726203462199" lon="8.45527824040081"><ele>398.5</ele><time>2026-04-07T12:40:03.002Z</time></trkpt><trkpt lat="45.76732689927997" lon="8.455245190257864"><ele>398.66666666666663</ele><time>2026-04-07T12:40:04.002Z</time></trkpt><trkpt lat="45.767435900613926" lon="8.455258519128337"><ele>398.8333333333333</ele><time>2026-04-07T12:40:06.002Z</time></trkpt><trkpt lat="45.7675044703866" lon="8.45532043737852"><ele>399.0</ele><time>2026-04-07T12:40:08.002Z</time></trkpt><trkpt lat="45.76753878414154" lon="8.45540601947093"><ele>399.6</ele><time>2026-04-07T12:40:09.002Z</time></trkpt><trkpt lat="45.767621491435506" lon="8.455515337106629"><ele>400.2</ele><time>2026-04-07T12:40:11.002Z</time></trkpt><trkpt lat="45.767687294649264" lon="8.455503640573916"><ele>400.8</ele><time>2026-04-07T12:40:12.002Z</time></trkpt><trkpt lat="45.76779908192867" lon="8.45542286334225"><ele>401.40000000000003</ele><time>2026-04-07T12:40:14.002Z</time></trkpt><trkpt lat="45.76783247323331" lon="8.455330716447252"><ele>402.0</ele><time>2026-04-07T12:40:15.002Z</time></trkpt><trkpt lat="45.76793709406889" lon="8.455238607287354"><ele>402.0</ele><time>2026-04-07T12:40:17.002Z</time></trkpt><trkpt lat="45.768038817639855" lon="8.455211930204426"><ele>402.0</ele><time>2026-04-07T12:40:19.002Z</time></trkpt><trkpt lat="45.76812718503811" lon="8.455200774095518"><ele>402.0</ele><time>2026-04-07T12:40:21.002Z</time></trkpt><trkpt lat="45.76820290433329" lon="8.455141294901503"><ele>402.0</ele><time>2026-04-07T12:40:23.002Z</time></trkpt><trkpt lat="45.768260019043225" lon="8.45509541439222"><ele>402.0</ele><time>2026-04-07T12:40:25.002Z</time></trkpt><trkpt lat="45.76834852126732" lon="8.455037330068604"><ele>402.0</ele><time>2026-04-07T12:40:27.002Z</time></trkpt><trkpt lat="45.76840960335605" lon="8.454983957506943"><ele>402.0</ele><time>2026-04-07T12:40:28.002Z</time></trkpt><trkpt lat="45.76848021492096" lon="8.454899974393454"><ele>402.0</ele><time>2026-04-07T12:40:29.002Z</time></trkpt><trkpt lat="45.76855384019671" lon="8.454813291563996"><ele>402.0</ele><time>2026-04-07T12:40:30.002Z</time></trkpt><trkpt lat="45.76861599358364" lon="8.454752316991085"><ele>402.0</ele><time>2026-04-07T12:40:31.002Z</time></trkpt><trkpt lat="45.76868062100105" lon="8.454713164652523"><ele>402.0</ele><time>2026-04-07T12:40:32.002Z</time></trkpt><trkpt lat="45.76875550639023" lon="8.454702083548018"><ele>402.0</ele><time>2026-04-07T12:40:33.003Z</time></trkpt><trkpt lat="45.76884934465564" lon="8.454640085798005"><ele>401.6</ele><time>2026-04-07T12:40:34.003Z</time></trkpt><trkpt lat="45.76892230912417" lon="8.454588457011125"><ele>401.20000000000005</ele><time>2026-04-07T12:40:35.003Z</time></trkpt><trkpt lat="45.76898667037691" lon="8.454496495819658"><ele>400.8</ele><time>2026-04-07T12:40:36.003Z</time></trkpt><trkpt lat="45.769070228298084" lon="8.454411269992121"><ele>400.4</ele><time>2026-04-07T12:40:38.003Z</time></trkpt><trkpt lat="45.76918583185951" lon="8.454366294220648"><ele>400.0</ele><time>2026-04-07T12:40:40.003Z</time></trkpt><trkpt lat="45.769300141151774" lon="8.454340882295059"><ele>400.0</ele><time>2026-04-07T12:40:42.003Z</time></trkpt><trkpt lat="45.769350391557616" lon="8.454280435881707"><ele>400.0</ele><time>2026-04-07T12:40:44.003Z</time></trkpt><trkpt lat="45.7693572887717" lon="8.45416880170977"><ele>400.0</ele><time>2026-04-07T12:40:47.003Z</time></trkpt><trkpt lat="45.769416013130225" lon="8.454054655878044"><ele>400.0</ele><time>2026-04-07T12:40:50.003Z</time></trkpt><trkpt lat="45.769510444919" lon="8.453990145261113"><ele>400.0</ele><time>2026-04-07T12:40:52.003Z</time></trkpt><trkpt lat="45.769626466623095" lon="8.453938881783369"><ele>401.50000000000006</ele><time>2026-04-07T12:40:54.003Z</time></trkpt><trkpt lat="45.769686344784915" lon="8.453909324369207"><ele>403.0</ele><time>2026-04-07T12:40:55Z</time></trkpt><trkpt lat="45.769758768224406" lon="8.453859815618907"><ele>404.5</ele><time>2026-04-07T12:40:56Z</time></trkpt><trkpt lat="45.76983589033657" lon="8.45380089411675"><ele>406.0</ele><time>2026-04-07T12:40:57Z</time></trkpt><trkpt lat="45.76990694516789" lon="8.453750225190605"><ele>407.50000000000006</ele><time>2026-04-07T12:40:58Z</time></trkpt><trkpt lat="45.76996998629455" lon="8.45370551458031"><ele>409.0</ele><time>2026-04-07T12:40:59Z</time></trkpt><trkpt lat="45.7700327281784" lon="8.453661100920282"><ele>409.0</ele><time>2026-04-07T12:41:00Z</time></trkpt><trkpt lat="45.77007833481473" lon="8.453597242401559"><ele>409.0</ele><time>2026-04-07T12:41:03Z</time></trkpt><trkpt lat="45.77004232595639" lon="8.4534886669378"><ele>409.0</ele><time>2026-04-07T12:41:05Z</time></trkpt><trkpt lat="45.769971229253066" lon="8.453377628308939"><ele>409.0</ele><time>2026-04-07T12:41:07Z</time></trkpt><trkpt lat="45.76996241779378" lon="8.453239259275596"><ele>409.0</ele><time>2026-04-07T12:41:09Z</time></trkpt><trkpt lat="45.769986288798066" lon="8.453021539979794"><ele>408.50000000000006</ele><time>2026-04-07T12:41:11Z</time></trkpt><trkpt lat="45.76998122023822" lon="8.452923901982732"><ele>408.0</ele><time>2026-04-07T12:41:12Z</time></trkpt><trkpt lat="45.76998763147133" lon="8.452817702147765"><ele>407.5</ele><time>2026-04-07T12:41:13Z</time></trkpt><trkpt lat="45.7699831011121" lon="8.452725373323554"><ele>407.0</ele><time>2026-04-07T12:41:14Z</time></trkpt><trkpt lat="45.76999981301372" lon="8.452555147512369"><ele>406.50000000000006</ele><time>2026-04-07T12:41:16Z</time></trkpt><trkpt lat="45.769994749478194" lon="8.452386939609815"><ele>406.0</ele><time>2026-04-07T12:41:18Z</time></trkpt><trkpt lat="45.7700292410996" lon="8.452210719212644"><ele>406.1666666666667</ele><time>2026-04-07T12:41:20Z</time></trkpt><trkpt lat="45.77002683323487" lon="8.452075994036173"><ele>406.33333333333337</ele><time>2026-04-07T12:41:22.001Z</time></trkpt><trkpt lat="45.77000246079854" lon="8.451987744486068"><ele>406.5</ele><time>2026-04-07T12:41:24.001Z</time></trkpt><trkpt lat="45.77003782069698" lon="8.451894315021763"><ele>406.66666666666663</ele><time>2026-04-07T12:41:27.001Z</time></trkpt><trkpt lat="45.77007215879207" lon="8.451794856145009"><ele>406.8333333333333</ele><time>2026-04-07T12:41:29.001Z</time></trkpt><trkpt lat="45.77008808626953" lon="8.45168053016626"><ele>407.0</ele><time>2026-04-07T12:41:38.001Z</time></trkpt><trkpt lat="45.770148061857334" lon="8.451539444229065"><ele>407.00000000000006</ele><time>2026-04-07T12:42:27.002Z</time></trkpt><trkpt lat="45.77020976251269" lon="8.45156394342759"><ele>407.0</ele><time>2026-04-07T12:43:27Z</time></trkpt><trkpt lat="45.770152377033426" lon="8.451497792157014"><ele>407.0</ele><time>2026-04-07T12:44:18.001Z</time></trkpt><trkpt lat="45.77018753903379" lon="8.451405584779819"><ele>407.0</ele><time>2026-04-07T13:02:43Z</time></trkpt><trkpt lat="45.77021945114445" lon="8.45132768449268"><ele>407.0</ele><time>2026-04-07T13:02:51Z</time></trkpt><trkpt lat="45.770201079105355" lon="8.451416339341623"><ele>407.00000000000006</ele><time>2026-04-07T13:03:51.002Z</time></trkpt><trkpt lat="45.77019498864484" lon="8.451320576633787"><ele>407.0</ele><time>2026-04-07T13:04:16.998Z</time></trkpt><trkpt lat="45.77024954161303" lon="8.451273050590302"><ele>408.16666666666663</ele><time>2026-04-07T13:04:21.999Z</time></trkpt><trkpt lat="45.77032082282949" lon="8.45121074122625"><ele>409.3333333333333</ele><time>2026-04-07T13:06:11.999Z</time></trkpt><trkpt lat="45.77037938535951" lon="8.451154655748349"><ele>410.5</ele><time>2026-04-07T13:06:13.999Z</time></trkpt><trkpt lat="45.770477918555926" lon="8.451133737204762"><ele>411.66666666666663</ele><time>2026-04-07T13:06:17.999Z</time></trkpt><trkpt lat="45.7705612304954" lon="8.451060791002172"><ele>412.8333333333333</ele><time>2026-04-07T13:06:19.999Z</time></trkpt><trkpt lat="45.77062682605347" lon="8.451017612613697"><ele>414.0</ele><time>2026-04-07T13:06:21.999Z</time></trkpt><trkpt lat="45.770808701574985" lon="8.45098062588335"><ele>414.0</ele><time>2026-04-07T13:06:28Z</time></trkpt><trkpt lat="45.77085658189183" lon="8.450898461397314"><ele>414.0</ele><time>2026-04-07T13:06:33Z</time></trkpt><trkpt lat="45.770940516774026" lon="8.450858577464036"><ele>414.0</ele><time>2026-04-07T13:06:35Z</time></trkpt><trkpt lat="45.771003890267735" lon="8.450820199867655"><ele>414.0</ele><time>2026-04-07T13:06:37Z</time></trkpt><trkpt lat="45.77105309684674" lon="8.450739578954055"><ele>414.0</ele><time>2026-04-07T13:06:41Z</time></trkpt><trkpt lat="45.77108656013761" lon="8.450633328654499"><ele>414.0</ele><time>2026-04-07T13:06:43Z</time></trkpt><trkpt lat="45.77112192312377" lon="8.450539554934455"><ele>415.2</ele><time>2026-04-07T13:06:46Z</time></trkpt><trkpt lat="45.771195864127584" lon="8.450490310126696"><ele>416.4</ele><time>2026-04-07T13:06:48Z</time></trkpt><trkpt lat="45.771256801264805" lon="8.450417810396742"><ele>417.6</ele><time>2026-04-07T13:06:50.001Z</time></trkpt><trkpt lat="45.77126194599591" lon="8.450306203113199"><ele>418.8</ele><time>2026-04-07T13:06:51.001Z</time></trkpt><trkpt lat="45.771277150212406" lon="8.450144318122952"><ele>420.0</ele><time>2026-04-07T13:06:53.001Z</time></trkpt><trkpt lat="45.771287259609245" lon="8.45000200664821"><ele>420.0</ele><time>2026-04-07T13:06:54.001Z</time></trkpt><trkpt lat="45.77129835707977" lon="8.449831156840252"><ele>420.0</ele><time>2026-04-07T13:06:56.001Z</time></trkpt><trkpt lat="45.771245484273805" lon="8.449734041212011"><ele>420.0</ele><time>2026-04-07T13:06:57.001Z</time></trkpt><trkpt lat="45.77123947298573" lon="8.449614669438628"><ele>420.0</ele><time>2026-04-07T13:06:58.001Z</time></trkpt><trkpt lat="45.771243458689234" lon="8.449507650661051"><ele>420.0</ele><time>2026-04-07T13:06:59.001Z</time></trkpt><trkpt lat="45.77128884746632" lon="8.449356996217194"><ele>420.2</ele><time>2026-04-07T13:07:00.001Z</time></trkpt><trkpt lat="45.771274360287414" lon="8.449226906691846"><ele>420.4</ele><time>2026-04-07T13:07:01.001Z</time></trkpt><trkpt lat="45.77130652677998" lon="8.449122736658511"><ele>420.6</ele><time>2026-04-07T13:07:04.001Z</time></trkpt><trkpt lat="45.7712733371194" lon="8.448961068897544"><ele>420.8</ele><time>2026-04-07T13:07:16.001Z</time></trkpt><trkpt lat="45.77125331966942" lon="8.44882353188358"><ele>421.0</ele><time>2026-04-07T13:07:20.001Z</time></trkpt><trkpt lat="45.771223997700616" lon="8.448742791401223"><ele>421.00000000000006</ele><time>2026-04-07T13:07:22.002Z</time></trkpt><trkpt lat="45.77120458466413" lon="8.448647283049764"><ele>421.0</ele><time>2026-04-07T13:07:27.002Z</time></trkpt><trkpt lat="45.7711329124925" lon="8.448580408252022"><ele>421.0</ele><time>2026-04-07T13:07:35.002Z</time></trkpt><trkpt lat="45.771219267062605" lon="8.44849833971348"><ele>421.0</ele><time>2026-04-07T13:07:37.002Z</time></trkpt><trkpt lat="45.771137567384656" lon="8.44848422151014"><ele>421.00000000000006</ele><time>2026-04-07T13:07:38.002Z</time></trkpt><trkpt lat="45.771093245529535" lon="8.448416826142982"><ele>421.0</ele><time>2026-04-07T13:07:40.002Z</time></trkpt><trkpt lat="45.77103112795598" lon="8.448351906404266"><ele>421.0</ele><time>2026-04-07T13:07:41.002Z</time></trkpt><trkpt lat="45.77098440731004" lon="8.448256616818487"><ele>421.0</ele><time>2026-04-07T13:07:42.002Z</time></trkpt><trkpt lat="45.77100823579" lon="8.44816709067751"><ele>421.0</ele><time>2026-04-07T13:07:43.002Z</time></trkpt><trkpt lat="45.771105353342605" lon="8.44812905609842"><ele>421.0</ele><time>2026-04-07T13:07:44.002Z</time></trkpt><trkpt lat="45.7709379178791" lon="8.448039006587662"><ele>421.0</ele><time>2026-04-07T13:07:47.002Z</time></trkpt><trkpt lat="45.77085737507129" lon="8.44799396198772"><ele>420.1666666666667</ele><time>2026-04-07T13:07:48.002Z</time></trkpt><trkpt lat="45.77078434607979" lon="8.447956442797897"><ele>419.33333333333337</ele><time>2026-04-07T13:07:49.002Z</time></trkpt><trkpt lat="45.77072030920411" lon="8.447936186779897"><ele>418.5</ele><time>2026-04-07T13:07:52.002Z</time></trkpt><trkpt lat="45.77071179995545" lon="8.447802880025845"><ele>417.66666666666663</ele><time>2026-04-07T13:07:54.003Z</time></trkpt><trkpt lat="45.77068178332315" lon="8.447693759185645"><ele>416.8333333333333</ele><time>2026-04-07T13:07:56.003Z</time></trkpt><trkpt lat="45.77070085505168" lon="8.447566575674491"><ele>416.0</ele><time>2026-04-07T13:07:58.003Z</time></trkpt><trkpt lat="45.7706630372728" lon="8.447477251277089"><ele>415.99999999999994</ele><time>2026-04-07T13:08:01.003Z</time></trkpt><trkpt lat="45.77059499096449" lon="8.447419847960179"><ele>416.0</ele><time>2026-04-07T13:08:03.003Z</time></trkpt><trkpt lat="45.77052404439913" lon="8.447399128106024"><ele>416.0</ele><time>2026-04-07T13:08:06.003Z</time></trkpt><trkpt lat="45.770514753222486" lon="8.447256358954515"><ele>416.0</ele><time>2026-04-07T13:08:11.003Z</time></trkpt><trkpt lat="45.77052901737386" lon="8.447098356079621"><ele>415.99999999999994</ele><time>2026-04-07T13:08:12.999Z</time></trkpt><trkpt lat="45.77051028928025" lon="8.44697976219859"><ele>416.0</ele><time>2026-04-07T13:08:14.999Z</time></trkpt><trkpt lat="45.77050294909194" lon="8.44685744039808"><ele>415.8</ele><time>2026-04-07T13:08:16.999Z</time></trkpt><trkpt lat="45.770505819687614" lon="8.446703865037938"><ele>415.6</ele><time>2026-04-07T13:08:19.999Z</time></trkpt><trkpt lat="45.77047558224172" lon="8.446588551410096"><ele>415.4</ele><time>2026-04-07T13:08:21.999Z</time></trkpt><trkpt lat="45.77043625926419" lon="8.446422004653144"><ele>415.2</ele><time>2026-04-07T13:08:23.999Z</time></trkpt><trkpt lat="45.77038904413266" lon="8.446333507897405"><ele>415.0</ele><time>2026-04-07T13:08:24.999Z</time></trkpt><trkpt lat="45.770390417538565" lon="8.446224431975288"><ele>415.33333333333337</ele><time>2026-04-07T13:08:25.999Z</time></trkpt><trkpt lat="45.77042329252294" lon="8.44603450338176"><ele>415.6666666666667</ele><time>2026-04-07T13:08:28Z</time></trkpt><trkpt lat="45.7704274824255" lon="8.445926784150958"><ele>416.0</ele><time>2026-04-07T13:08:30Z</time></trkpt><trkpt lat="45.77040040018428" lon="8.445819287475246"><ele>416.33333333333337</ele><time>2026-04-07T13:08:32Z</time></trkpt><trkpt lat="45.77039651151493" lon="8.445726566983147"><ele>416.6666666666667</ele><time>2026-04-07T13:08:34Z</time></trkpt><trkpt lat="45.7703559444224" lon="8.445632096781956"><ele>417.0</ele><time>2026-04-07T13:08:37Z</time></trkpt><trkpt lat="45.77038983727126" lon="8.445537551668965"><ele>418.0</ele><time>2026-04-07T13:08:42Z</time></trkpt><trkpt lat="45.77041556641363" lon="8.445439528279097"><ele>419.0</ele><time>2026-04-07T13:08:46Z</time></trkpt><trkpt lat="45.770459916554216" lon="8.44533616717967"><ele>420.0</ele><time>2026-04-07T13:08:50.001Z</time></trkpt><trkpt lat="45.77053074885658" lon="8.44528791951804"><ele>421.0</ele><time>2026-04-07T13:08:52.001Z</time></trkpt><trkpt lat="45.77065308439556" lon="8.445173840113341"><ele>422.0</ele><time>2026-04-07T13:08:54.001Z</time></trkpt><trkpt lat="45.77091743955793" lon="8.44497222402702"><ele>421.99999999999994</ele><time>2026-04-07T13:09:00.001Z</time></trkpt><trkpt lat="45.7709800451351" lon="8.444905871568105"><ele>422.0</ele><time>2026-04-07T13:09:01.001Z</time></trkpt><trkpt lat="45.77105487329116" lon="8.444850042554664"><ele>422.0</ele><time>2026-04-07T13:09:03.001Z</time></trkpt><trkpt lat="45.77111360452232" lon="8.444796093046602"><ele>422.0</ele><time>2026-04-07T13:09:05.001Z</time></trkpt><trkpt lat="45.77117153910219" lon="8.444747400169598"><ele>421.99999999999994</ele><time>2026-04-07T13:09:07.001Z</time></trkpt><trkpt lat="45.77123982417798" lon="8.444684696071343"><ele>422.0</ele><time>2026-04-07T13:09:10.001Z</time></trkpt><trkpt lat="45.77130931598718" lon="8.444627286152226"><ele>422.20000000000005</ele><time>2026-04-07T13:09:13.001Z</time></trkpt><trkpt lat="45.77141047878778" lon="8.444625824658388"><ele>422.4</ele><time>2026-04-07T13:09:15.001Z</time></trkpt><trkpt lat="45.77148422145088" lon="8.444647462034919"><ele>422.6</ele><time>2026-04-07T13:09:16.002Z</time></trkpt><trkpt lat="45.771543566068175" lon="8.444764200155586"><ele>422.79999999999995</ele><time>2026-04-07T13:09:18.002Z</time></trkpt><trkpt lat="45.771625440039614" lon="8.444888667798615"><ele>423.0</ele><time>2026-04-07T13:09:19.002Z</time></trkpt><trkpt lat="45.7716787481217" lon="8.44497467488775"><ele>423.0</ele><time>2026-04-07T13:09:20.002Z</time></trkpt><trkpt lat="45.77174044105461" lon="8.445027401043733"><ele>423.0</ele><time>2026-04-07T13:09:21.002Z</time></trkpt><trkpt lat="45.77181703909711" lon="8.445059566466588"><ele>423.0</ele><time>2026-04-07T13:09:22.002Z</time></trkpt><trkpt lat="45.771927707561154" lon="8.445064463367343"><ele>423.0</ele><time>2026-04-07T13:09:24.002Z</time></trkpt><trkpt lat="45.77202368680211" lon="8.445160599742144"><ele>423.0</ele><time>2026-04-07T13:09:26.002Z</time></trkpt><trkpt lat="45.77208431422658" lon="8.44518962311333"><ele>423.0</ele><time>2026-04-07T13:09:27.002Z</time></trkpt><trkpt lat="45.77219149265502" lon="8.445231292736484"><ele>422.4</ele><time>2026-04-07T13:09:29.002Z</time></trkpt><trkpt lat="45.77228642786604" lon="8.445315699039444"><ele>421.79999999999995</ele><time>2026-04-07T13:09:30.002Z</time></trkpt><trkpt lat="45.77234818710907" lon="8.445364023166212"><ele>421.2</ele><time>2026-04-07T13:09:31.002Z</time></trkpt><trkpt lat="45.772427065945806" lon="8.445399637117282"><ele>420.6</ele><time>2026-04-07T13:09:32.002Z</time></trkpt><trkpt lat="45.77250112090631" lon="8.445464674794685"><ele>420.0</ele><time>2026-04-07T13:09:34.002Z</time></trkpt><trkpt lat="45.772599497858266" lon="8.445523710227615"><ele>423.2</ele><time>2026-04-07T13:09:35.002Z</time></trkpt><trkpt lat="45.77271975930941" lon="8.445570866709643"><ele>426.4</ele><time>2026-04-07T13:09:36.002Z</time></trkpt><trkpt lat="45.77280686567676" lon="8.445625713310088"><ele>429.6</ele><time>2026-04-07T13:09:38.002Z</time></trkpt><trkpt lat="45.77286744780793" lon="8.445679517873323"><ele>432.8</ele><time>2026-04-07T13:09:41.002Z</time></trkpt><trkpt lat="45.77293078946244" lon="8.445702984291751"><ele>436.0</ele><time>2026-04-07T13:09:44.002Z</time></trkpt><trkpt lat="45.77304293963893" lon="8.445823126508397"><ele>436.0</ele><time>2026-04-07T13:09:46.002Z</time></trkpt><trkpt lat="45.773173223368936" lon="8.44595084352224"><ele>436.0</ele><time>2026-04-07T13:09:48.002Z</time></trkpt><trkpt lat="45.773284438333505" lon="8.445995727609002"><ele>436.0</ele><time>2026-04-07T13:09:50.003Z</time></trkpt><trkpt lat="45.773358922792205" lon="8.446060950328558"><ele>436.0</ele><time>2026-04-07T13:09:51.003Z</time></trkpt><trkpt lat="45.773432157756325" lon="8.446119462524312"><ele>436.0</ele><time>2026-04-07T13:09:52.003Z</time></trkpt><trkpt lat="45.773507688256835" lon="8.446175885763173"><ele>434.0</ele><time>2026-04-07T13:09:53.003Z</time></trkpt><trkpt lat="45.77357992120919" lon="8.446239382317211"><ele>432.0</ele><time>2026-04-07T13:09:54.003Z</time></trkpt><trkpt lat="45.77365420546147" lon="8.446297267159856"><ele>430.0</ele><time>2026-04-07T13:09:55.003Z</time></trkpt><trkpt lat="45.77379486398257" lon="8.446397797465862"><ele>428.0</ele><time>2026-04-07T13:09:57.003Z</time></trkpt><trkpt lat="45.773860624665865" lon="8.446437154934927"><ele>426.0</ele><time>2026-04-07T13:09:58.003Z</time></trkpt><trkpt lat="45.77396429432016" lon="8.446470616227495"><ele>426.0</ele><time>2026-04-07T13:10:00.003Z</time></trkpt><trkpt lat="45.774056641161785" lon="8.446512197763921"><ele>426.0</ele><time>2026-04-07T13:10:01.003Z</time></trkpt><trkpt lat="45.774127332085996" lon="8.44655695655659"><ele>426.0</ele><time>2026-04-07T13:10:02.003Z</time></trkpt><trkpt lat="45.774197934359115" lon="8.446601510336679"><ele>426.0</ele><time>2026-04-07T13:10:03.003Z</time></trkpt><trkpt lat="45.774284797693944" lon="8.446651473330324"><ele>426.0</ele><time>2026-04-07T13:10:06.003Z</time></trkpt><trkpt lat="45.77444158195994" lon="8.44676992791431"><ele>427.8</ele><time>2026-04-07T13:10:08.003Z</time></trkpt><trkpt lat="45.77449217780634" lon="8.446824846999256"><ele>429.6</ele><time>2026-04-07T13:10:09.003Z</time></trkpt><trkpt lat="45.774575421943624" lon="8.446913997441966"><ele>431.4</ele><time>2026-04-07T13:10:11.003Z</time></trkpt><trkpt lat="45.774642933519736" lon="8.44693411456338"><ele>433.2</ele><time>2026-04-07T13:10:12.003Z</time></trkpt><trkpt lat="45.77475914006175" lon="8.446973702582282"><ele>435.0</ele><time>2026-04-07T13:10:14.003Z</time></trkpt><trkpt lat="45.77485703971401" lon="8.446955614045061"><ele>435.0</ele><time>2026-04-07T13:10:16.003Z</time></trkpt><trkpt lat="45.77496450261888" lon="8.446921694788474"><ele>435.0</ele><time>2026-04-07T13:10:18.003Z</time></trkpt><trkpt lat="45.77503839376748" lon="8.446894809389487"><ele>435.0</ele><time>2026-04-07T13:10:20Z</time></trkpt><trkpt lat="45.77512302262584" lon="8.446878422859784"><ele>435.0</ele><time>2026-04-07T13:10:22Z</time></trkpt><trkpt lat="45.77521892399456" lon="8.446963204373766"><ele>435.0</ele><time>2026-04-07T13:10:56.001Z</time></trkpt><trkpt lat="45.77529148773931" lon="8.44701911136838"><ele>436.0</ele><time>2026-04-07T13:11:02.001Z</time></trkpt><trkpt lat="45.77524758310599" lon="8.447190391126114"><ele>437.0</ele><time>2026-04-07T13:11:05.001Z</time></trkpt><trkpt lat="45.77521278956047" lon="8.447311948682213"><ele>438.0</ele><time>2026-04-07T13:11:07.001Z</time></trkpt><trkpt lat="45.775274969930294" lon="8.447390873942092"><ele>439.0</ele><time>2026-04-07T13:11:13.001Z</time></trkpt><trkpt lat="45.77532341025617" lon="8.44745943635454"><ele>440.0</ele><time>2026-04-07T13:11:14.001Z</time></trkpt><trkpt lat="45.77537600675089" lon="8.447560302491999"><ele>440.0</ele><time>2026-04-07T13:11:15.001Z</time></trkpt><trkpt lat="45.77542354707756" lon="8.447667003274512"><ele>440.0</ele><time>2026-04-07T13:11:16.001Z</time></trkpt><trkpt lat="45.77549188456386" lon="8.447705462608178"><ele>440.0</ele><time>2026-04-07T13:11:17.001Z</time></trkpt><trkpt lat="45.77556760674254" lon="8.44780810284986"><ele>440.0</ele><time>2026-04-07T13:11:18.001Z</time></trkpt><trkpt lat="45.775628421873385" lon="8.447884254061877"><ele>440.0</ele><time>2026-04-07T13:11:19.001Z</time></trkpt><trkpt lat="45.77575112651758" lon="8.447974116894358"><ele>437.25</ele><time>2026-04-07T13:11:21.001Z</time></trkpt><trkpt lat="45.77584547424986" lon="8.448011540283286"><ele>434.5</ele><time>2026-04-07T13:11:23.001Z</time></trkpt><trkpt lat="45.77591694271488" lon="8.448295369781349"><ele>431.75</ele><time>2026-04-07T13:11:27.002Z</time></trkpt><trkpt lat="45.77596515761207" lon="8.448364209386192"><ele>429.0</ele><time>2026-04-07T13:11:28.002Z</time></trkpt><trkpt lat="45.77607211582785" lon="8.448523289988824"><ele>428.8333333333333</ele><time>2026-04-07T13:11:29.002Z</time></trkpt><trkpt lat="45.77613852944549" lon="8.448609041010783"><ele>428.66666666666663</ele><time>2026-04-07T13:11:30.002Z</time></trkpt><trkpt lat="45.77620588521204" lon="8.448662141843824"><ele>428.5</ele><time>2026-04-07T13:11:31.002Z</time></trkpt><trkpt lat="45.77627381332666" lon="8.448735180743267"><ele>428.3333333333333</ele><time>2026-04-07T13:11:32.002Z</time></trkpt><trkpt lat="45.77635334506835" lon="8.448793433051396"><ele>428.16666666666663</ele><time>2026-04-07T13:11:33.002Z</time></trkpt><trkpt lat="45.7764216475871" lon="8.448875107649041"><ele>428.0</ele><time>2026-04-07T13:11:34.002Z</time></trkpt><trkpt lat="45.77648961592965" lon="8.44895284039177"><ele>428.0</ele><time>2026-04-07T13:11:35.002Z</time></trkpt><trkpt lat="45.776558339064735" lon="8.44907391309921"><ele>427.99999999999994</ele><time>2026-04-07T13:11:36.002Z</time></trkpt><trkpt lat="45.77662958556027" lon="8.44916073444963"><ele>427.99999999999994</ele><time>2026-04-07T13:11:37.002Z</time></trkpt><trkpt lat="45.77670359066113" lon="8.44923476051177"><ele>428.0</ele><time>2026-04-07T13:11:38.002Z</time></trkpt><trkpt lat="45.7767781860903" lon="8.449298138071477"><ele>428.0</ele><time>2026-04-07T13:11:39.002Z</time></trkpt><trkpt lat="45.776875362423745" lon="8.449353471376394"><ele>428.0</ele><time>2026-04-07T13:11:40.002Z</time></trkpt><trkpt lat="45.776948883188616" lon="8.449408079845389"><ele>427.99999999999994</ele><time>2026-04-07T13:11:41.002Z</time></trkpt><trkpt lat="45.777014222664235" lon="8.449428295128039"><ele>427.99999999999994</ele><time>2026-04-07T13:11:42.002Z</time></trkpt><trkpt lat="45.777061030200535" lon="8.449494556543593"><ele>428.0</ele><time>2026-04-07T13:11:43.002Z</time></trkpt><trkpt lat="45.77718636099676" lon="8.449643407617142"><ele>428.0</ele><time>2026-04-07T13:11:45.002Z</time></trkpt><trkpt lat="45.777248499466985" lon="8.449693946069617"><ele>428.0</ele><time>2026-04-07T13:11:46.002Z</time></trkpt><trkpt lat="45.77738876385374" lon="8.449756228479464"><ele>428.0</ele><time>2026-04-07T13:11:48.002Z</time></trkpt><trkpt lat="45.777452244848604" lon="8.449768095624705"><ele>428.0</ele><time>2026-04-07T13:11:49.002Z</time></trkpt><trkpt lat="45.77754591348269" lon="8.449833307980027"><ele>428.0</ele><time>2026-04-07T13:11:50.002Z</time></trkpt><trkpt lat="45.77768682848762" lon="8.449857302407176"><ele>431.79999999999995</ele><time>2026-04-07T13:11:52.002Z</time></trkpt><trkpt lat="45.777826942002704" lon="8.449852936466796"><ele>435.59999999999997</ele><time>2026-04-07T13:11:53.002Z</time></trkpt><trkpt lat="45.77792040787843" lon="8.449873805562312"><ele>439.40000000000003</ele><time>2026-04-07T13:11:54.002Z</time></trkpt><trkpt lat="45.777979233532136" lon="8.449906861197825"><ele>443.20000000000005</ele><time>2026-04-07T13:11:55.002Z</time></trkpt><trkpt lat="45.77809231795547" lon="8.449920474164585"><ele>447.0</ele><time>2026-04-07T13:11:57.002Z</time></trkpt><trkpt lat="45.77813359746297" lon="8.44999016950359"><ele>447.0</ele><time>2026-04-07T13:11:58.002Z</time></trkpt><trkpt lat="45.77827050173749" lon="8.450097244236455"><ele>447.00000000000006</ele><time>2026-04-07T13:12:02.003Z</time></trkpt><trkpt lat="45.77836164488909" lon="8.4501564272898"><ele>447.00000000000006</ele><time>2026-04-07T13:12:03.003Z</time></trkpt><trkpt lat="45.778439134645275" lon="8.4501957275673"><ele>447.0</ele><time>2026-04-07T13:12:04.003Z</time></trkpt><trkpt lat="45.77848126267786" lon="8.450342459681437"><ele>447.0</ele><time>2026-04-07T13:12:07.003Z</time></trkpt><trkpt lat="45.77854705971139" lon="8.450410488584984"><ele>449.0</ele><time>2026-04-07T13:12:09.003Z</time></trkpt><trkpt lat="45.77864479230587" lon="8.450502200497894"><ele>451.00000000000006</ele><time>2026-04-07T13:12:11.003Z</time></trkpt><trkpt lat="45.77868505057626" lon="8.450576131895806"><ele>453.00000000000006</ele><time>2026-04-07T13:12:12.003Z</time></trkpt><trkpt lat="45.77869978618587" lon="8.450742789923106"><ele>455.0</ele><time>2026-04-07T13:12:14.003Z</time></trkpt><trkpt lat="45.77872869049022" lon="8.450885482287315"><ele>457.0</ele><time>2026-04-07T13:12:16.003Z</time></trkpt><trkpt lat="45.778740460397586" lon="8.45105156865063"><ele>457.0</ele><time>2026-04-07T13:12:18.003Z</time></trkpt><trkpt lat="45.77871997343296" lon="8.451156121831854"><ele>457.00000000000006</ele><time>2026-04-07T13:12:19.003Z</time></trkpt><trkpt lat="45.778811038981125" lon="8.451240232256222"><ele>457.00000000000006</ele><time>2026-04-07T13:12:21.003Z</time></trkpt><trkpt lat="45.77892922336106" lon="8.451398906991923"><ele>457.0</ele><time>2026-04-07T13:12:23.003Z</time></trkpt><trkpt lat="45.77897330033325" lon="8.451470119106721"><ele>457.0</ele><time>2026-04-07T13:12:24.003Z</time></trkpt><trkpt lat="45.77903820808001" lon="8.451564833553407"><ele>453.0</ele><time>2026-04-07T13:12:24.999Z</time></trkpt><trkpt lat="45.77909912299433" lon="8.451655691827746"><ele>449.0</ele><time>2026-04-07T13:12:25.999Z</time></trkpt><trkpt lat="45.779183624281124" lon="8.451802796299383"><ele>445.0</ele><time>2026-04-07T13:12:28Z</time></trkpt><trkpt lat="45.77926853278913" lon="8.451921517153407"><ele>441.0</ele><time>2026-04-07T13:12:30Z</time></trkpt><trkpt lat="45.77939119368208" lon="8.452017492352455"><ele>441.0</ele><time>2026-04-07T13:12:32Z</time></trkpt><trkpt lat="45.77950912465555" lon="8.452039616803136"><ele>441.0</ele><time>2026-04-07T13:12:34Z</time></trkpt><trkpt lat="45.779626000528104" lon="8.45201829414697"><ele>441.0</ele><time>2026-04-07T13:12:36Z</time></trkpt><trkpt lat="45.77973805178965" lon="8.451937836596084"><ele>441.0</ele><time>2026-04-07T13:12:38Z</time></trkpt><trkpt lat="45.77982027230727" lon="8.451856702161232"><ele>441.0</ele><time>2026-04-07T13:12:40Z</time></trkpt><trkpt lat="45.77988125979253" lon="8.451803725209063"><ele>441.0</ele><time>2026-04-07T13:12:44Z</time></trkpt><trkpt lat="45.7799512958447" lon="8.451708955025971"><ele>441.0</ele><time>2026-04-07T13:12:47Z</time></trkpt><trkpt lat="45.779978904528676" lon="8.451618555898923"><ele>441.0</ele><time>2026-04-07T13:12:49Z</time></trkpt><trkpt lat="45.77999315921212" lon="8.451518245396425"><ele>441.0</ele><time>2026-04-07T13:12:51Z</time></trkpt><trkpt lat="45.780026925356665" lon="8.45139898677712"><ele>441.0</ele><time>2026-04-07T13:12:53Z</time></trkpt><trkpt lat="45.780073100174825" lon="8.451284907913584"><ele>439.8</ele><time>2026-04-07T13:12:55Z</time></trkpt><trkpt lat="45.780149279238515" lon="8.451188654931828"><ele>438.6</ele><time>2026-04-07T13:12:57.001Z</time></trkpt><trkpt lat="45.78025302749244" lon="8.45113727567506"><ele>437.4</ele><time>2026-04-07T13:12:59.001Z</time></trkpt><trkpt lat="45.780325566402574" lon="8.451064798430336"><ele>436.2</ele><time>2026-04-07T13:13:00.001Z</time></trkpt><trkpt lat="45.78039556106751" lon="8.451069231112294"><ele>435.0</ele><time>2026-04-07T13:13:01.001Z</time></trkpt><trkpt lat="45.78049241351387" lon="8.450977633856441"><ele>435.0</ele><time>2026-04-07T13:13:03.001Z</time></trkpt><trkpt lat="45.78061543234466" lon="8.450913780092444"><ele>435.0</ele><time>2026-04-07T13:13:05.001Z</time></trkpt><trkpt lat="45.78067484275632" lon="8.450861094904893"><ele>435.0</ele><time>2026-04-07T13:13:06.001Z</time></trkpt><trkpt lat="45.78073595656043" lon="8.45079055337418"><ele>435.0</ele><time>2026-04-07T13:13:07.001Z</time></trkpt><trkpt lat="45.78084293038089" lon="8.450751143161972"><ele>435.0</ele><time>2026-04-07T13:13:09.001Z</time></trkpt><trkpt lat="45.78095570187703" lon="8.450739930370842"><ele>434.6666666666667</ele><time>2026-04-07T13:13:11.001Z</time></trkpt><trkpt lat="45.78108297684104" lon="8.450664170201946"><ele>434.33333333333337</ele><time>2026-04-07T13:13:13.001Z</time></trkpt><trkpt lat="45.781153656570204" lon="8.450602176989026"><ele>434.0</ele><time>2026-04-07T13:13:14.001Z</time></trkpt><trkpt lat="45.781212650767934" lon="8.450539983241294"><ele>433.6666666666667</ele><time>2026-04-07T13:13:15.001Z</time></trkpt><trkpt lat="45.781267591260224" lon="8.450469548882932"><ele>433.33333333333337</ele><time>2026-04-07T13:13:16.001Z</time></trkpt><trkpt lat="45.78132454140005" lon="8.450401020822797"><ele>433.0</ele><time>2026-04-07T13:13:17.001Z</time></trkpt><trkpt lat="45.781379288677066" lon="8.45033661783415"><ele>435.50000000000006</ele><time>2026-04-07T13:13:18.001Z</time></trkpt><trkpt lat="45.78142822418207" lon="8.450264685850845"><ele>438.0</ele><time>2026-04-07T13:13:19.001Z</time></trkpt><trkpt lat="45.781467680587916" lon="8.450191364762016"><ele>440.5</ele><time>2026-04-07T13:13:20.001Z</time></trkpt><trkpt lat="45.78155173128896" lon="8.450099711250395"><ele>443.0</ele><time>2026-04-07T13:13:22.001Z</time></trkpt><trkpt lat="45.78162362041603" lon="8.449988709753546"><ele>445.50000000000006</ele><time>2026-04-07T13:13:24.001Z</time></trkpt><trkpt lat="45.78170961835867" lon="8.449912269391476"><ele>448.0</ele><time>2026-04-07T13:13:26.001Z</time></trkpt><trkpt lat="45.781777273134594" lon="8.449868905919834"><ele>447.2</ele><time>2026-04-07T13:13:27.001Z</time></trkpt><trkpt lat="45.781903248909614" lon="8.449773702525142"><ele>446.4</ele><time>2026-04-07T13:13:29.001Z</time></trkpt><trkpt lat="45.781964767892504" lon="8.449740191103976"><ele>445.59999999999997</ele><time>2026-04-07T13:13:30.001Z</time></trkpt><trkpt lat="45.782025150975414" lon="8.449633243614528"><ele>444.79999999999995</ele><time>2026-04-07T13:13:32.002Z</time></trkpt><trkpt lat="45.78209344333196" lon="8.449573719309578"><ele>444.0</ele><time>2026-04-07T13:13:33.002Z</time></trkpt><trkpt lat="45.78218283399521" lon="8.449465253309812"><ele>447.0</ele><time>2026-04-07T13:13:35.002Z</time></trkpt><trkpt lat="45.782289946223095" lon="8.449379163287226"><ele>450.0</ele><time>2026-04-07T13:13:37.002Z</time></trkpt><trkpt lat="45.782360866180944" lon="8.449325928492161"><ele>453.0</ele><time>2026-04-07T13:13:38.002Z</time></trkpt><trkpt lat="45.78242524880035" lon="8.449275296917163"><ele>456.0</ele><time>2026-04-07T13:13:39.002Z</time></trkpt><trkpt lat="45.78249133261661" lon="8.449235362831933"><ele>459.0</ele><time>2026-04-07T13:13:40.002Z</time></trkpt><trkpt lat="45.782572780608966" lon="8.449179567070672"><ele>462.0</ele><time>2026-04-07T13:13:41.002Z</time></trkpt><trkpt lat="45.782635879116725" lon="8.449112972356737"><ele>461.20000000000005</ele><time>2026-04-07T13:13:42.002Z</time></trkpt><trkpt lat="45.78273535905885" lon="8.449030987770795"><ele>460.40000000000003</ele><time>2026-04-07T13:13:44.002Z</time></trkpt><trkpt lat="45.78285451978298" lon="8.448997980944938"><ele>459.59999999999997</ele><time>2026-04-07T13:13:46.002Z</time></trkpt><trkpt lat="45.78296771668615" lon="8.449018420029722"><ele>458.79999999999995</ele><time>2026-04-07T13:13:48.002Z</time></trkpt><trkpt lat="45.78304517532228" lon="8.44902946181613"><ele>458.0</ele><time>2026-04-07T13:13:49.002Z</time></trkpt><trkpt lat="45.78311926186014" lon="8.449013905200065"><ele>458.0</ele><time>2026-04-07T13:13:50.002Z</time></trkpt><trkpt lat="45.783236665238086" lon="8.449016685094547"><ele>457.99999999999994</ele><time>2026-04-07T13:13:52.002Z</time></trkpt><trkpt lat="45.7833484387259" lon="8.44903022586093"><ele>457.99999999999994</ele><time>2026-04-07T13:13:54.002Z</time></trkpt><trkpt lat="45.783425061707376" lon="8.449088756187173"><ele>458.0</ele><time>2026-04-07T13:13:56.002Z</time></trkpt><trkpt lat="45.78351568264202" lon="8.449098958431124"><ele>458.0</ele><time>2026-04-07T13:13:58.002Z</time></trkpt><trkpt lat="45.78359929735654" lon="8.449129529722779"><ele>460.79999999999995</ele><time>2026-04-07T13:14:01.002Z</time></trkpt><trkpt lat="45.78372331813875" lon="8.449177743476445"><ele>463.59999999999997</ele><time>2026-04-07T13:14:03.002Z</time></trkpt><trkpt lat="45.78381625180917" lon="8.449198513881003"><ele>466.40000000000003</ele><time>2026-04-07T13:14:04.002Z</time></trkpt><trkpt lat="45.78391460174613" lon="8.44922782695077"><ele>469.20000000000005</ele><time>2026-04-07T13:14:05.002Z</time></trkpt><trkpt lat="45.78400161345704" lon="8.449248364397146"><ele>472.0</ele><time>2026-04-07T13:14:06.002Z</time></trkpt><trkpt lat="45.78408055597944" lon="8.449263518174355"><ele>472.00000000000006</ele><time>2026-04-07T13:14:07.003Z</time></trkpt><trkpt lat="45.78415023205091" lon="8.449279417920692"><ele>472.0</ele><time>2026-04-07T13:14:08.003Z</time></trkpt><trkpt lat="45.784252769340576" lon="8.449316282867132"><ele>472.0</ele><time>2026-04-07T13:14:10.003Z</time></trkpt><trkpt lat="45.7843134344466" lon="8.44936512551943"><ele>472.0</ele><time>2026-04-07T13:14:12.003Z</time></trkpt><trkpt lat="45.78434799218673" lon="8.44946791272263"><ele>472.00000000000006</ele><time>2026-04-07T13:14:14.003Z</time></trkpt><trkpt lat="45.78441027741518" lon="8.449530109905366"><ele>472.0</ele><time>2026-04-07T13:14:18.003Z</time></trkpt><trkpt lat="45.78448212597594" lon="8.44956287457061"><ele>471.8</ele><time>2026-04-07T13:14:20.003Z</time></trkpt><trkpt lat="45.78455553009259" lon="8.449619401237856"><ele>471.6</ele><time>2026-04-07T13:14:22.003Z</time></trkpt><trkpt lat="45.78462126817567" lon="8.449668474958667"><ele>471.40000000000003</ele><time>2026-04-07T13:14:24.003Z</time></trkpt><trkpt lat="45.7847253121415" lon="8.449756128625248"><ele>471.20000000000005</ele><time>2026-04-07T13:14:26.003Z</time></trkpt><trkpt lat="45.78479823625199" lon="8.449867081859232"><ele>471.0</ele><time>2026-04-07T13:14:28.003Z</time></trkpt><trkpt lat="45.784847340738786" lon="8.44996646505715"><ele>471.0</ele><time>2026-04-07T13:14:30.003Z</time></trkpt><trkpt lat="45.784890621191266" lon="8.450104962115764"><ele>471.0</ele><time>2026-04-07T13:14:31.999Z</time></trkpt><trkpt lat="45.78497471468889" lon="8.450236406378565"><ele>471.0</ele><time>2026-04-07T13:14:33.999Z</time></trkpt><trkpt lat="45.78504153301429" lon="8.450310198018798"><ele>471.0</ele><time>2026-04-07T13:14:34.999Z</time></trkpt><trkpt lat="45.78511157381499" lon="8.450389961454606"><ele>471.0</ele><time>2026-04-07T13:14:36Z</time></trkpt><trkpt lat="45.785188467282396" lon="8.450476004862079"><ele>469.8333333333333</ele><time>2026-04-07T13:14:37Z</time></trkpt><trkpt lat="45.78526678848013" lon="8.450512317370587"><ele>468.66666666666663</ele><time>2026-04-07T13:14:38Z</time></trkpt><trkpt lat="45.78532865498444" lon="8.450567982965744"><ele>467.5</ele><time>2026-04-07T13:14:39Z</time></trkpt><trkpt lat="45.78538625961845" lon="8.450618257327594"><ele>466.3333333333333</ele><time>2026-04-07T13:14:40Z</time></trkpt><trkpt lat="45.78544234154803" lon="8.450687731092078"><ele>465.16666666666663</ele><time>2026-04-07T13:14:41Z</time></trkpt><trkpt lat="45.78550595159" lon="8.450721188661054"><ele>464.0</ele><time>2026-04-07T13:14:42Z</time></trkpt><trkpt lat="45.78560593748166" lon="8.450780436068055"><ele>463.99999999999994</ele><time>2026-04-07T13:14:44Z</time></trkpt><trkpt lat="45.7856735532361" lon="8.45081156408024"><ele>464.0</ele><time>2026-04-07T13:14:45Z</time></trkpt><trkpt lat="45.78573661865045" lon="8.450852740897501"><ele>464.0</ele><time>2026-04-07T13:14:46Z</time></trkpt><trkpt lat="45.785808076702914" lon="8.45088504115486"><ele>464.0</ele><time>2026-04-07T13:14:47Z</time></trkpt><trkpt lat="45.785870170441214" lon="8.450920804584301"><ele>463.99999999999994</ele><time>2026-04-07T13:14:48Z</time></trkpt><trkpt lat="45.78597133548469" lon="8.450955098821394"><ele>464.0</ele><time>2026-04-07T13:14:50Z</time></trkpt><trkpt lat="45.78611732931154" lon="8.450983238285126"><ele>463.8333333333333</ele><time>2026-04-07T13:14:52Z</time></trkpt><trkpt lat="45.78620577753376" lon="8.450984055474558"><ele>463.66666666666663</ele><time>2026-04-07T13:14:53Z</time></trkpt><trkpt lat="45.786292013631765" lon="8.451001002997751"><ele>463.5</ele><time>2026-04-07T13:14:54Z</time></trkpt><trkpt lat="45.78636823888677" lon="8.451002328159145"><ele>463.33333333333337</ele><time>2026-04-07T13:14:55Z</time></trkpt><trkpt lat="45.786446816430555" lon="8.450983410682591"><ele>463.1666666666667</ele><time>2026-04-07T13:14:56Z</time></trkpt><trkpt lat="45.786520395308244" lon="8.450963566730737"><ele>463.0</ele><time>2026-04-07T13:14:57Z</time></trkpt><trkpt lat="45.78660381158211" lon="8.450941077780426"><ele>463.0</ele><time>2026-04-07T13:14:58.001Z</time></trkpt><trkpt lat="45.78667064428813" lon="8.450907930590823"><ele>462.99999999999994</ele><time>2026-04-07T13:14:59.001Z</time></trkpt><trkpt lat="45.78679265732663" lon="8.450883660051936"><ele>462.99999999999994</ele><time>2026-04-07T13:15:01.001Z</time></trkpt><trkpt lat="45.786876577666824" lon="8.450869682532561"><ele>463.0</ele><time>2026-04-07T13:15:02.001Z</time></trkpt><trkpt lat="45.78695675109172" lon="8.450848054352647"><ele>463.0</ele><time>2026-04-07T13:15:03.001Z</time></trkpt><trkpt lat="45.787045232702255" lon="8.450812478707523"><ele>459.59999999999997</ele><time>2026-04-07T13:15:04.001Z</time></trkpt><trkpt lat="45.787130552414155" lon="8.450758022707708"><ele>456.19999999999993</ele><time>2026-04-07T13:15:05.001Z</time></trkpt><trkpt lat="45.787207215480876" lon="8.4506987380091"><ele>452.8</ele><time>2026-04-07T13:15:06.001Z</time></trkpt><trkpt lat="45.78727435811282" lon="8.450650487474935"><ele>449.4</ele><time>2026-04-07T13:15:07.001Z</time></trkpt><trkpt lat="45.787432285318815" lon="8.45055606403098"><ele>446.0</ele><time>2026-04-07T13:15:09.001Z</time></trkpt><trkpt lat="45.78753995358993" lon="8.45048456636544"><ele>446.6</ele><time>2026-04-07T13:15:10.001Z</time></trkpt><trkpt lat="45.7876589926571" lon="8.450406149014047"><ele>447.20000000000005</ele><time>2026-04-07T13:15:11.001Z</time></trkpt><trkpt lat="45.787740670066334" lon="8.45035294839206"><ele>447.79999999999995</ele><time>2026-04-07T13:15:12.001Z</time></trkpt><trkpt lat="45.787821870588836" lon="8.450296881073811"><ele>448.4</ele><time>2026-04-07T13:15:13.001Z</time></trkpt><trkpt lat="45.78789148385611" lon="8.450224750138432"><ele>449.0</ele><time>2026-04-07T13:15:14.001Z</time></trkpt><trkpt lat="45.787954934554655" lon="8.450172720546066"><ele>449.0</ele><time>2026-04-07T13:15:15.001Z</time></trkpt><trkpt lat="45.7880371013016" lon="8.450147556295438"><ele>449.0</ele><time>2026-04-07T13:15:17.001Z</time></trkpt><trkpt lat="45.788147933195646" lon="8.45013103306444"><ele>449.0</ele><time>2026-04-07T13:15:19.001Z</time></trkpt><trkpt lat="45.788236581864155" lon="8.450259054902661"><ele>449.0</ele><time>2026-04-07T13:15:21.001Z</time></trkpt><trkpt lat="45.788299274389345" lon="8.450376809652077"><ele>449.0</ele><time>2026-04-07T13:15:23.001Z</time></trkpt><trkpt lat="45.788332342665086" lon="8.450458286140186"><ele>444.0</ele><time>2026-04-07T13:15:25.001Z</time></trkpt></trkseg><trkseg><trkpt lat="45.78846690920408" lon="8.450545724859314"><ele>444.0</ele><time>2026-04-07T13:53:31.001Z</time></trkpt><trkpt lat="45.788404557992656" lon="8.450587805259579"><ele>444.0</ele><time>2026-04-07T13:54:32Z</time></trkpt><trkpt lat="45.78848853106742" lon="8.450587349072277"><ele>444.0</ele><time>2026-04-07T13:54:34Z</time></trkpt><trkpt lat="45.78860878712146" lon="8.45066349335986"><ele>444.0</ele><time>2026-04-07T13:54:36Z</time></trkpt><trkpt lat="45.7886822494005" lon="8.450694248685318"><ele>444.0</ele><time>2026-04-07T13:54:38Z</time></trkpt><trkpt lat="45.788807298962766" lon="8.45070109300656"><ele>444.0</ele><time>2026-04-07T13:54:40Z</time></trkpt><trkpt lat="45.78885600685989" lon="8.450615148723564"><ele>444.0</ele><time>2026-04-07T13:54:41Z</time></trkpt><trkpt lat="45.78891170523646" lon="8.450537871003377"><ele>444.0</ele><time>2026-04-07T13:54:42Z</time></trkpt><trkpt lat="45.788985771526264" lon="8.450480899549836"><ele>444.0</ele><time>2026-04-07T13:54:43Z</time></trkpt><trkpt lat="45.78907003632984" lon="8.450419022912591"><ele>444.0</ele><time>2026-04-07T13:54:44Z</time></trkpt><trkpt lat="45.78915803694401" lon="8.450354285814857"><ele>444.0</ele><time>2026-04-07T13:54:45Z</time></trkpt><trkpt lat="45.78924048327428" lon="8.45030394041225"><ele>444.0</ele><time>2026-04-07T13:54:46Z</time></trkpt><trkpt lat="45.78931308240245" lon="8.450257489892337"><ele>444.0</ele><time>2026-04-07T13:54:47Z</time></trkpt><trkpt lat="45.789376392470515" lon="8.450216683402942"><ele>444.0</ele><time>2026-04-07T13:54:48Z</time></trkpt><trkpt lat="45.78943653996252" lon="8.450170390547177"><ele>444.0</ele><time>2026-04-07T13:54:49Z</time></trkpt><trkpt lat="45.78949719391688" lon="8.450135555753233"><ele>444.0</ele><time>2026-04-07T13:54:50Z</time></trkpt><trkpt lat="45.78955846258466" lon="8.450099201671337"><ele>444.0</ele><time>2026-04-07T13:54:51Z</time></trkpt><trkpt lat="45.7896171779957" lon="8.450060302929913"><ele>444.0</ele><time>2026-04-07T13:54:52Z</time></trkpt><trkpt lat="45.78967825624135" lon="8.450021375909168"><ele>444.57142857142856</ele><time>2026-04-07T13:54:53Z</time></trkpt><trkpt lat="45.789744770726536" lon="8.450001748352783"><ele>445.14285714285717</ele><time>2026-04-07T13:54:54Z</time></trkpt><trkpt lat="45.789813093418985" lon="8.449999589651338"><ele>445.7142857142857</ele><time>2026-04-07T13:54:55Z</time></trkpt><trkpt lat="45.78988139098607" lon="8.450005529360109"><ele>446.2857142857143</ele><time>2026-04-07T13:54:56Z</time></trkpt><trkpt lat="45.789955243776774" lon="8.450021369666263"><ele>446.8571428571429</ele><time>2026-04-07T13:54:57Z</time></trkpt><trkpt lat="45.790021741747545" lon="8.450058449396076"><ele>447.42857142857144</ele><time>2026-04-07T13:54:58Z</time></trkpt><trkpt lat="45.79008156039134" lon="8.45010754306148"><ele>448.0</ele><time>2026-04-07T13:54:59Z</time></trkpt><trkpt lat="45.79018839531033" lon="8.450209810828149"><ele>449.57142857142856</ele><time>2026-04-07T13:55:01Z</time></trkpt><trkpt lat="45.79024404840169" lon="8.45025496419062"><ele>451.1428571428571</ele><time>2026-04-07T13:55:02Z</time></trkpt><trkpt lat="45.790301918113734" lon="8.450297311270067"><ele>452.7142857142857</ele><time>2026-04-07T13:55:03Z</time></trkpt><trkpt lat="45.79036472557742" lon="8.450330016856668"><ele>454.2857142857143</ele><time>2026-04-07T13:55:04Z</time></trkpt><trkpt lat="45.79043130586312" lon="8.450349347747439"><ele>455.85714285714283</ele><time>2026-04-07T13:55:05Z</time></trkpt><trkpt lat="45.79050065402905" lon="8.450360384371075"><ele>457.42857142857144</ele><time>2026-04-07T13:55:06Z</time></trkpt><trkpt lat="45.79057344527356" lon="8.450342637701933"><ele>459.0</ele><time>2026-04-07T13:55:07Z</time></trkpt><trkpt lat="45.7906452239309" lon="8.450345216963077"><ele>459.0</ele><time>2026-04-07T13:55:08Z</time></trkpt><trkpt lat="45.79070762825721" lon="8.450317251971395"><ele>459.0</ele><time>2026-04-07T13:55:09Z</time></trkpt><trkpt lat="45.790778286217666" lon="8.450213104460317"><ele>459.0</ele><time>2026-04-07T13:55:11Z</time></trkpt><trkpt lat="45.790784824039186" lon="8.450115290405373"><ele>459.0</ele><time>2026-04-07T13:55:12Z</time></trkpt><trkpt lat="45.79077037812574" lon="8.449997379598607"><ele>459.0</ele><time>2026-04-07T13:55:13Z</time></trkpt><trkpt lat="45.79072622765208" lon="8.449877979291148"><ele>459.0</ele><time>2026-04-07T13:55:14Z</time></trkpt><trkpt lat="45.79066457887109" lon="8.449780244804964"><ele>459.0</ele><time>2026-04-07T13:55:15Z</time></trkpt><trkpt lat="45.790596248433744" lon="8.449681890261557"><ele>459.0</ele><time>2026-04-07T13:55:16Z</time></trkpt><trkpt lat="45.79054457866813" lon="8.44955852523099"><ele>459.0</ele><time>2026-04-07T13:55:17Z</time></trkpt><trkpt lat="45.790519014336375" lon="8.449427481351346"><ele>459.0</ele><time>2026-04-07T13:55:18Z</time></trkpt><trkpt lat="45.7905194144252" lon="8.449313334944632"><ele>459.0</ele><time>2026-04-07T13:55:19Z</time></trkpt><trkpt lat="45.79053766133688" lon="8.449208446880531"><ele>459.0</ele><time>2026-04-07T13:55:20Z</time></trkpt><trkpt lat="45.790569740457734" lon="8.449118393439937"><ele>458.79999999999995</ele><time>2026-04-07T13:55:21Z</time></trkpt><trkpt lat="45.79062004893445" lon="8.449034661690026"><ele>458.59999999999997</ele><time>2026-04-07T13:55:22Z</time></trkpt><trkpt lat="45.79068922237678" lon="8.448951674331827"><ele>458.4</ele><time>2026-04-07T13:55:23Z</time></trkpt><trkpt lat="45.79077348772932" lon="8.448879314107062"><ele>458.2</ele><time>2026-04-07T13:55:24Z</time></trkpt><trkpt lat="45.79085743191902" lon="8.448810500328307"><ele>458.0</ele><time>2026-04-07T13:55:25Z</time></trkpt><trkpt lat="45.79094633521982" lon="8.448720353795897"><ele>458.16666666666663</ele><time>2026-04-07T13:55:26Z</time></trkpt><trkpt lat="45.79103147346906" lon="8.44862298576742"><ele>458.3333333333333</ele><time>2026-04-07T13:55:27Z</time></trkpt><trkpt lat="45.79110844721177" lon="8.448534996712556"><ele>458.5</ele><time>2026-04-07T13:55:28Z</time></trkpt><trkpt lat="45.79118324413386" lon="8.448473272126007"><ele>458.66666666666663</ele><time>2026-04-07T13:55:29Z</time></trkpt><trkpt lat="45.791251814546975" lon="8.448440141301724"><ele>458.8333333333333</ele><time>2026-04-07T13:55:30Z</time></trkpt><trkpt lat="45.79132256541058" lon="8.448424467448467"><ele>459.0</ele><time>2026-04-07T13:55:31Z</time></trkpt><trkpt lat="45.7914081590294" lon="8.448393185978304"><ele>459.0</ele><time>2026-04-07T13:55:32Z</time></trkpt><trkpt lat="45.79150358273167" lon="8.448355794064348"><ele>459.0</ele><time>2026-04-07T13:55:33Z</time></trkpt><trkpt lat="45.7915952955853" lon="8.448316231795044"><ele>459.0</ele><time>2026-04-07T13:55:34Z</time></trkpt><trkpt lat="45.79168467170598" lon="8.44828280711798"><ele>459.0</ele><time>2026-04-07T13:55:35Z</time></trkpt><trkpt lat="45.791781760914475" lon="8.44824270440396"><ele>459.0</ele><time>2026-04-07T13:55:36Z</time></trkpt><trkpt lat="45.79186789718622" lon="8.448213406640527"><ele>461.2</ele><time>2026-04-07T13:55:37Z</time></trkpt><trkpt lat="45.79195771165245" lon="8.448179580962725"><ele>463.4</ele><time>2026-04-07T13:55:38Z</time></trkpt><trkpt lat="45.79204959814616" lon="8.448155035961474"><ele>465.6</ele><time>2026-04-07T13:55:39Z</time></trkpt><trkpt lat="45.792148771830455" lon="8.448135953458515"><ele>467.8</ele><time>2026-04-07T13:55:40Z</time></trkpt><trkpt lat="45.792255553800395" lon="8.44811554343504"><ele>470.0</ele><time>2026-04-07T13:55:41Z</time></trkpt><trkpt lat="45.792372874518364" lon="8.448092447996077"><ele>470.0</ele><time>2026-04-07T13:55:42Z</time></trkpt><trkpt lat="45.792487830984626" lon="8.44807211100833"><ele>470.0</ele><time>2026-04-07T13:55:43Z</time></trkpt><trkpt lat="45.79259525492085" lon="8.448054416799494"><ele>470.0</ele><time>2026-04-07T13:55:44Z</time></trkpt><trkpt lat="45.79270277505944" lon="8.448035558242756"><ele>470.0</ele><time>2026-04-07T13:55:45Z</time></trkpt><trkpt lat="45.792817990113555" lon="8.448017233767613"><ele>470.0</ele><time>2026-04-07T13:55:46Z</time></trkpt><trkpt lat="45.792931104391776" lon="8.447991510489363"><ele>468.2</ele><time>2026-04-07T13:55:47Z</time></trkpt><trkpt lat="45.79303886636179" lon="8.447955467272838"><ele>466.4</ele><time>2026-04-07T13:55:48Z</time></trkpt><trkpt lat="45.79314124453417" lon="8.447911115101922"><ele>464.6</ele><time>2026-04-07T13:55:49Z</time></trkpt><trkpt lat="45.79324427534152" lon="8.447867751964763"><ele>462.8</ele><time>2026-04-07T13:55:50Z</time></trkpt><trkpt lat="45.793347703948406" lon="8.44783127759741"><ele>461.0</ele><time>2026-04-07T13:55:51Z</time></trkpt><trkpt lat="45.793449898806045" lon="8.447803015890772"><ele>462.20000000000005</ele><time>2026-04-07T13:55:52Z</time></trkpt><trkpt lat="45.79354922544877" lon="8.447767312007022"><ele>463.40000000000003</ele><time>2026-04-07T13:55:53Z</time></trkpt><trkpt lat="45.79364174914382" lon="8.447727052159127"><ele>464.6</ele><time>2026-04-07T13:55:54Z</time></trkpt><trkpt lat="45.79372220090765" lon="8.44765690896411"><ele>465.8</ele><time>2026-04-07T13:55:55Z</time></trkpt><trkpt lat="45.79380530329355" lon="8.447580150141118"><ele>467.0</ele><time>2026-04-07T13:55:56Z</time></trkpt><trkpt lat="45.79389093705047" lon="8.447521660966483"><ele>466.99999999999994</ele><time>2026-04-07T13:55:57Z</time></trkpt><trkpt lat="45.793974536522775" lon="8.447478017616628"><ele>467.0</ele><time>2026-04-07T13:55:58Z</time></trkpt><trkpt lat="45.79405622818078" lon="8.4474568270694"><ele>467.0</ele><time>2026-04-07T13:55:59Z</time></trkpt><trkpt lat="45.794119945442326" lon="8.447422611378139"><ele>467.0</ele><time>2026-04-07T13:56:00Z</time></trkpt><trkpt lat="45.7941762068081" lon="8.447380142517323"><ele>466.99999999999994</ele><time>2026-04-07T13:56:01Z</time></trkpt><trkpt lat="45.79424235773187" lon="8.447330778238262"><ele>467.0</ele><time>2026-04-07T13:56:02Z</time></trkpt><trkpt lat="45.7943232415527" lon="8.447268172340738"><ele>466.3333333333333</ele><time>2026-04-07T13:56:03Z</time></trkpt><trkpt lat="45.7944019993832" lon="8.447216408048536"><ele>465.66666666666663</ele><time>2026-04-07T13:56:04Z</time></trkpt><trkpt lat="45.794474080245465" lon="8.447155569604766"><ele>465.0</ele><time>2026-04-07T13:56:05Z</time></trkpt><trkpt lat="45.79454948896722" lon="8.4471018344927"><ele>464.33333333333337</ele><time>2026-04-07T13:56:06Z</time></trkpt><trkpt lat="45.79463062573101" lon="8.447057189301256"><ele>463.6666666666667</ele><time>2026-04-07T13:56:07Z</time></trkpt><trkpt lat="45.79471793729988" lon="8.447023457793716"><ele>463.0</ele><time>2026-04-07T13:56:08Z</time></trkpt><trkpt lat="45.79480359350697" lon="8.446986524584942"><ele>463.00000000000006</ele><time>2026-04-07T13:56:09Z</time></trkpt><trkpt lat="45.79488121336983" lon="8.446948716119064"><ele>463.0</ele><time>2026-04-07T13:56:10Z</time></trkpt><trkpt lat="45.79495444619992" lon="8.446903126686935"><ele>463.0</ele><time>2026-04-07T13:56:11Z</time></trkpt><trkpt lat="45.795025289818014" lon="8.446854210286508"><ele>463.0</ele><time>2026-04-07T13:56:12Z</time></trkpt><trkpt lat="45.79509702900568" lon="8.446801591862405"><ele>463.00000000000006</ele><time>2026-04-07T13:56:13Z</time></trkpt><trkpt lat="45.79516306289791" lon="8.446739382929135"><ele>463.0</ele><time>2026-04-07T13:56:14Z</time></trkpt><trkpt lat="45.795227151991455" lon="8.446670321372466"><ele>467.2</ele><time>2026-04-07T13:56:15Z</time></trkpt><trkpt lat="45.795302047129724" lon="8.446648187015152"><ele>471.4</ele><time>2026-04-07T13:56:16Z</time></trkpt><trkpt lat="45.79538821672285" lon="8.446573174020557"><ele>475.59999999999997</ele><time>2026-04-07T13:56:17Z</time></trkpt><trkpt lat="45.79547678110834" lon="8.446501391765345"><ele>479.79999999999995</ele><time>2026-04-07T13:56:18Z</time></trkpt><trkpt lat="45.79557071119437" lon="8.446406133005658"><ele>484.0</ele><time>2026-04-07T13:56:19Z</time></trkpt><trkpt lat="45.79567186345835" lon="8.446320609977336"><ele>483.0</ele><time>2026-04-07T13:56:20Z</time></trkpt><trkpt lat="45.7957648376409" lon="8.446237047498299"><ele>482.0</ele><time>2026-04-07T13:56:21Z</time></trkpt><trkpt lat="45.795852653389936" lon="8.446157011098327"><ele>481.0</ele><time>2026-04-07T13:56:22Z</time></trkpt><trkpt lat="45.79593987038431" lon="8.446065179048322"><ele>480.0</ele><time>2026-04-07T13:56:23Z</time></trkpt><trkpt lat="45.79603466905101" lon="8.445972322472892"><ele>479.0</ele><time>2026-04-07T13:56:24Z</time></trkpt><trkpt lat="45.79612821445544" lon="8.445880944351526"><ele>479.0</ele><time>2026-04-07T13:56:25Z</time></trkpt><trkpt lat="45.79622678328468" lon="8.445792031198017"><ele>479.0</ele><time>2026-04-07T13:56:26Z</time></trkpt><trkpt lat="45.796324352916095" lon="8.445699350493106"><ele>479.0</ele><time>2026-04-07T13:56:27Z</time></trkpt><trkpt lat="45.79642746665798" lon="8.445616910178877"><ele>479.0</ele><time>2026-04-07T13:56:28Z</time></trkpt><trkpt lat="45.79651669717721" lon="8.445515612755015"><ele>476.79999999999995</ele><time>2026-04-07T13:56:29Z</time></trkpt><trkpt lat="45.796590643258035" lon="8.445407778831383"><ele>474.59999999999997</ele><time>2026-04-07T13:56:30Z</time></trkpt><trkpt lat="45.79666000073071" lon="8.445325595659124"><ele>472.4</ele><time>2026-04-07T13:56:31Z</time></trkpt><trkpt lat="45.796724553895565" lon="8.44526086747911"><ele>470.2</ele><time>2026-04-07T13:56:32Z</time></trkpt><trkpt lat="45.79680632084743" lon="8.44520840106876"><ele>468.0</ele><time>2026-04-07T13:56:33Z</time></trkpt><trkpt lat="45.796898770441686" lon="8.445151025536923"><ele>468.0</ele><time>2026-04-07T13:56:34Z</time></trkpt><trkpt lat="45.796986279736196" lon="8.445079597779412"><ele>468.0</ele><time>2026-04-07T13:56:35Z</time></trkpt><trkpt lat="45.797057779552546" lon="8.444999808203633"><ele>468.0</ele><time>2026-04-07T13:56:36Z</time></trkpt><trkpt lat="45.797130446088346" lon="8.444930110754202"><ele>468.0</ele><time>2026-04-07T13:56:37Z</time></trkpt><trkpt lat="45.797205888928055" lon="8.444886301847"><ele>468.0</ele><time>2026-04-07T13:56:38Z</time></trkpt><trkpt lat="45.79728883168438" lon="8.44486575464808"><ele>468.0</ele><time>2026-04-07T13:56:39Z</time></trkpt><trkpt lat="45.797376577628484" lon="8.444847300572908"><ele>468.0</ele><time>2026-04-07T13:56:40Z</time></trkpt><trkpt lat="45.79746968749417" lon="8.444848857595531"><ele>468.0</ele><time>2026-04-07T13:56:41Z</time></trkpt><trkpt lat="45.79754919278831" lon="8.444889669225311"><ele>468.0</ele><time>2026-04-07T13:56:42Z</time></trkpt><trkpt lat="45.797640584483645" lon="8.444925897300793"><ele>468.0</ele><time>2026-04-07T13:56:43Z</time></trkpt><trkpt lat="45.797716241271125" lon="8.4449756279573"><ele>468.0</ele><time>2026-04-07T13:56:44Z</time></trkpt><trkpt lat="45.79779219876783" lon="8.445018572596778"><ele>468.0</ele><time>2026-04-07T13:56:45Z</time></trkpt><trkpt lat="45.79785518345385" lon="8.445062584868616"><ele>466.5</ele><time>2026-04-07T13:56:46Z</time></trkpt><trkpt lat="45.79794509902428" lon="8.445101273630048"><ele>465.0</ele><time>2026-04-07T13:56:48Z</time></trkpt><trkpt lat="45.79798709592458" lon="8.444987279390974"><ele>463.5</ele><time>2026-04-07T13:56:51Z</time></trkpt><trkpt lat="45.79795640386499" lon="8.444902903711313"><ele>462.0</ele><time>2026-04-07T13:56:52Z</time></trkpt><trkpt lat="45.79792197007239" lon="8.444801643469507"><ele>460.5</ele><time>2026-04-07T13:56:54Z</time></trkpt><trkpt lat="45.79791898898944" lon="8.444672686521859"><ele>459.0</ele><time>2026-04-07T13:56:56Z</time></trkpt><trkpt lat="45.797918131446856" lon="8.444537844932231"><ele>458.5</ele><time>2026-04-07T13:56:58Z</time></trkpt><trkpt lat="45.79790837877858" lon="8.444398581598136"><ele>458.0</ele><time>2026-04-07T13:57:00Z</time></trkpt><trkpt lat="45.79789003969188" lon="8.444295227739168"><ele>457.5</ele><time>2026-04-07T13:57:02Z</time></trkpt><trkpt lat="45.797869144394255" lon="8.444181463794115"><ele>457.0</ele><time>2026-04-07T13:57:04Z</time></trkpt><trkpt lat="45.79785414869325" lon="8.44405973804462"><ele>456.5</ele><time>2026-04-07T13:57:06Z</time></trkpt><trkpt lat="45.79783060710109" lon="8.443949923591441"><ele>456.0</ele><time>2026-04-07T13:57:08Z</time></trkpt><trkpt lat="45.79780756914918" lon="8.443848491592695"><ele>456.3333333333333</ele><time>2026-04-07T13:57:10Z</time></trkpt><trkpt lat="45.79778230662721" lon="8.443740235075804"><ele>456.66666666666663</ele><time>2026-04-07T13:57:12Z</time></trkpt><trkpt lat="45.79775758942194" lon="8.443629605642101"><ele>457.0</ele><time>2026-04-07T13:57:14Z</time></trkpt><trkpt lat="45.79773909354853" lon="8.443510356194125"><ele>457.3333333333333</ele><time>2026-04-07T13:57:16Z</time></trkpt><trkpt lat="45.79770915282653" lon="8.443381630585952"><ele>457.66666666666663</ele><time>2026-04-07T13:57:18Z</time></trkpt><trkpt lat="45.79764776141626" lon="8.443254775663535"><ele>458.0</ele><time>2026-04-07T13:57:20Z</time></trkpt><trkpt lat="45.797592878927155" lon="8.443167646331434"><ele>458.0</ele><time>2026-04-07T13:57:22Z</time></trkpt><trkpt lat="45.797510521388475" lon="8.443090441594796"><ele>457.99999999999994</ele><time>2026-04-07T13:57:25Z</time></trkpt><trkpt lat="45.797454600977105" lon="8.443022341588941"><ele>457.99999999999994</ele><time>2026-04-07T13:57:27Z</time></trkpt><trkpt lat="45.79739317792157" lon="8.442930238524822"><ele>458.0</ele><time>2026-04-07T13:57:29Z</time></trkpt><trkpt lat="45.7973208566818" lon="8.442814739871638"><ele>458.0</ele><time>2026-04-07T13:57:31Z</time></trkpt><trkpt lat="45.79724174289831" lon="8.442685938097597"><ele>457.75</ele><time>2026-04-07T13:57:33Z</time></trkpt><trkpt lat="45.797157721327395" lon="8.44256484327418"><ele>457.5</ele><time>2026-04-07T13:57:35Z</time></trkpt><trkpt lat="45.79706854298513" lon="8.442441412869544"><ele>457.25</ele><time>2026-04-07T13:57:37Z</time></trkpt><trkpt lat="45.796994936126445" lon="8.442310627217802"><ele>457.0</ele><time>2026-04-07T13:57:39Z</time></trkpt><trkpt lat="45.79692206886478" lon="8.442169435777169"><ele>456.8571428571429</ele><time>2026-04-07T13:57:41Z</time></trkpt><trkpt lat="45.796885119767204" lon="8.442093324858204"><ele>456.7142857142857</ele><time>2026-04-07T13:57:42Z</time></trkpt><trkpt lat="45.79685332477227" lon="8.442011692403197"><ele>456.57142857142856</ele><time>2026-04-07T13:57:43Z</time></trkpt><trkpt lat="45.79682504592025" lon="8.441930495122397"><ele>456.42857142857144</ele><time>2026-04-07T13:57:44Z</time></trkpt><trkpt lat="45.796792323229205" lon="8.441848649114597"><ele>456.2857142857142</ele><time>2026-04-07T13:57:45Z</time></trkpt><trkpt lat="45.79675462092807" lon="8.44177070317397"><ele>456.1428571428571</ele><time>2026-04-07T13:57:46Z</time></trkpt><trkpt lat="45.796714054683335" lon="8.441692589048722"><ele>456.0</ele><time>2026-04-07T13:57:47Z</time></trkpt><trkpt lat="45.79667318152962" lon="8.441615859102575"><ele>455.75</ele><time>2026-04-07T13:57:48Z</time></trkpt><trkpt lat="45.7965975437585" lon="8.441483626302624"><ele>455.5</ele><time>2026-04-07T13:57:50Z</time></trkpt><trkpt lat="45.79651476588939" lon="8.441366608952116"><ele>455.25</ele><time>2026-04-07T13:57:52Z</time></trkpt><trkpt lat="45.79642312947123" lon="8.441268851283855"><ele>455.0</ele><time>2026-04-07T13:57:54Z</time></trkpt><trkpt lat="45.796319239837395" lon="8.441173745972524"><ele>455.0</ele><time>2026-04-07T13:57:56Z</time></trkpt><trkpt lat="45.796262737512166" lon="8.441133077561705"><ele>455.0</ele><time>2026-04-07T13:57:57Z</time></trkpt><trkpt lat="45.79619991394557" lon="8.441094715757739"><ele>455.0</ele><time>2026-04-07T13:57:58Z</time></trkpt><trkpt lat="45.796136092317354" lon="8.441061263372196"><ele>455.0</ele><time>2026-04-07T13:57:59Z</time></trkpt><trkpt lat="45.796073194998485" lon="8.44103371738176"><ele>455.0</ele><time>2026-04-07T13:58:00Z</time></trkpt><trkpt lat="45.79601236040085" lon="8.440998824941314"><ele>455.0</ele><time>2026-04-07T13:58:01Z</time></trkpt><trkpt lat="45.79591148464244" lon="8.440919091352228"><ele>455.0</ele><time>2026-04-07T13:58:03Z</time></trkpt><trkpt lat="45.79585937871235" lon="8.44086614262419"><ele>454.66666666666663</ele><time>2026-04-07T13:58:04Z</time></trkpt><trkpt lat="45.79579097257723" lon="8.44077589379619"><ele>454.3333333333333</ele><time>2026-04-07T13:58:06Z</time></trkpt><trkpt lat="45.79578914986811" lon="8.440683573709716"><ele>454.0</ele><time>2026-04-07T13:58:08Z</time></trkpt><trkpt lat="45.79585574086213" lon="8.440588632271234"><ele>453.66666666666663</ele><time>2026-04-07T13:58:10Z</time></trkpt><trkpt lat="45.79591864300433" lon="8.440544730423637"><ele>453.3333333333333</ele><time>2026-04-07T13:58:11Z</time></trkpt><trkpt lat="45.79597986338834" lon="8.440500936376512"><ele>453.0</ele><time>2026-04-07T13:58:12Z</time></trkpt><trkpt lat="45.796046650265396" lon="8.440453887574703"><ele>453.6666666666667</ele><time>2026-04-07T13:58:13Z</time></trkpt><trkpt lat="45.79611628671727" lon="8.440400832997925"><ele>454.33333333333337</ele><time>2026-04-07T13:58:14Z</time></trkpt><trkpt lat="45.79618785272316" lon="8.440345751575192"><ele>455.0</ele><time>2026-04-07T13:58:15Z</time></trkpt><trkpt lat="45.79626301662797" lon="8.440289384162512"><ele>455.6666666666667</ele><time>2026-04-07T13:58:16Z</time></trkpt><trkpt lat="45.79633850745006" lon="8.440234142661208"><ele>456.33333333333337</ele><time>2026-04-07T13:58:17Z</time></trkpt><trkpt lat="45.7964095430638" lon="8.440186556384985"><ele>457.0</ele><time>2026-04-07T13:58:18Z</time></trkpt><trkpt lat="45.79648159262638" lon="8.440139507878397"><ele>457.00000000000006</ele><time>2026-04-07T13:58:19Z</time></trkpt><trkpt lat="45.79655481985483" lon="8.440098514316288"><ele>457.0</ele><time>2026-04-07T13:58:20Z</time></trkpt><trkpt lat="45.796631068445826" lon="8.440057456976339"><ele>457.0</ele><time>2026-04-07T13:58:21Z</time></trkpt><trkpt lat="45.796708191993254" lon="8.440020451108744"><ele>457.0</ele><time>2026-04-07T13:58:22Z</time></trkpt><trkpt lat="45.796788115693836" lon="8.43998140184695"><ele>457.00000000000006</ele><time>2026-04-07T13:58:23Z</time></trkpt><trkpt lat="45.79686341305531" lon="8.439940191328729"><ele>457.0</ele><time>2026-04-07T13:58:24Z</time></trkpt><trkpt lat="45.79694075044592" lon="8.439894907594853"><ele>457.1666666666667</ele><time>2026-04-07T13:58:25Z</time></trkpt><trkpt lat="45.79702059879954" lon="8.439853845195394"><ele>457.33333333333337</ele><time>2026-04-07T13:58:26Z</time></trkpt><trkpt lat="45.79710195887549" lon="8.439805416369621"><ele>457.5</ele><time>2026-04-07T13:58:27Z</time></trkpt><trkpt lat="45.79718854949214" lon="8.439757591726309"><ele>457.66666666666663</ele><time>2026-04-07T13:58:28Z</time></trkpt><trkpt lat="45.79727144078739" lon="8.439723628449029"><ele>457.8333333333333</ele><time>2026-04-07T13:58:29Z</time></trkpt><trkpt lat="45.797343608429074" lon="8.439695300694474"><ele>458.0</ele><time>2026-04-07T13:58:30Z</time></trkpt><trkpt lat="45.79740925214933" lon="8.439673369920387"><ele>457.79999999999995</ele><time>2026-04-07T13:58:31Z</time></trkpt><trkpt lat="45.79753146047068" lon="8.439632127171057"><ele>457.59999999999997</ele><time>2026-04-07T13:58:33Z</time></trkpt><trkpt lat="45.797646373569364" lon="8.439586148369091"><ele>457.40000000000003</ele><time>2026-04-07T13:58:35Z</time></trkpt><trkpt lat="45.79772601335379" lon="8.43955113871876"><ele>457.20000000000005</ele><time>2026-04-07T13:58:37Z</time></trkpt><trkpt lat="45.79781151291533" lon="8.439531625114766"><ele>457.0</ele><time>2026-04-07T13:58:47Z</time></trkpt><trkpt lat="45.79788162799371" lon="8.439536224720236"><ele>457.33333333333337</ele><time>2026-04-07T13:58:49Z</time></trkpt><trkpt lat="45.79799052577301" lon="8.439501778804312"><ele>457.6666666666667</ele><time>2026-04-07T13:58:51Z</time></trkpt><trkpt lat="45.79810417571239" lon="8.439439966699648"><ele>458.0</ele><time>2026-04-07T13:58:53Z</time></trkpt><trkpt lat="45.798163333988185" lon="8.439405207562901"><ele>458.33333333333337</ele><time>2026-04-07T13:58:54Z</time></trkpt><trkpt lat="45.798240147084904" lon="8.43937837147225"><ele>458.6666666666667</ele><time>2026-04-07T13:58:55Z</time></trkpt><trkpt lat="45.798303407725086" lon="8.439342208330144"><ele>459.0</ele><time>2026-04-07T13:58:56Z</time></trkpt><trkpt lat="45.79837674379974" lon="8.439313645732504"><ele>459.0</ele><time>2026-04-07T13:58:57Z</time></trkpt><trkpt lat="45.79844285660184" lon="8.439297541696897"><ele>459.0</ele><time>2026-04-07T13:58:58Z</time></trkpt><trkpt lat="45.79856671688037" lon="8.439280898956723"><ele>459.0</ele><time>2026-04-07T13:59:00Z</time></trkpt><trkpt lat="45.798643552426284" lon="8.439249488724995"><ele>459.0</ele><time>2026-04-07T13:59:01Z</time></trkpt><trkpt lat="45.798708358473256" lon="8.439217845543771"><ele>459.0</ele><time>2026-04-07T13:59:02Z</time></trkpt><trkpt lat="45.79881857785862" lon="8.43916590547107"><ele>459.6666666666667</ele><time>2026-04-07T13:59:04Z</time></trkpt><trkpt lat="45.798887288812566" lon="8.439173279859672"><ele>460.33333333333337</ele><time>2026-04-07T13:59:06Z</time></trkpt><trkpt lat="45.798923044630506" lon="8.439255443768875"><ele>461.0</ele><time>2026-04-07T13:59:08Z</time></trkpt><trkpt lat="45.79894879178085" lon="8.439348747844644"><ele>461.6666666666667</ele><time>2026-04-07T13:59:10Z</time></trkpt><trkpt lat="45.79898462728402" lon="8.439472424211809"><ele>462.33333333333337</ele><time>2026-04-07T13:59:12Z</time></trkpt><trkpt lat="45.799053448113945" lon="8.439509283095154"><ele>463.0</ele><time>2026-04-07T13:59:14Z</time></trkpt><trkpt lat="45.79915639788067" lon="8.439473405762852"><ele>463.00000000000006</ele><time>2026-04-07T13:59:16Z</time></trkpt><trkpt lat="45.79924997613659" lon="8.439471957280672"><ele>463.0</ele><time>2026-04-07T13:59:18Z</time></trkpt><trkpt lat="45.799321077724414" lon="8.439456746448307"><ele>463.0</ele><time>2026-04-07T13:59:19Z</time></trkpt><trkpt lat="45.79939103925561" lon="8.43944163229542"><ele>463.0</ele><time>2026-04-07T13:59:20Z</time></trkpt><trkpt lat="45.7994540165448" lon="8.439437341550656"><ele>463.00000000000006</ele><time>2026-04-07T13:59:21Z</time></trkpt><trkpt lat="45.79956739633804" lon="8.439421921451544"><ele>463.0</ele><time>2026-04-07T13:59:23Z</time></trkpt><trkpt lat="45.79966251417499" lon="8.439401952277791"><ele>463.6666666666667</ele><time>2026-04-07T13:59:25Z</time></trkpt><trkpt lat="45.79977143765936" lon="8.439359509000807"><ele>464.33333333333337</ele><time>2026-04-07T13:59:27Z</time></trkpt><trkpt lat="45.79983500428447" lon="8.439345889654506"><ele>465.0</ele><time>2026-04-07T13:59:28Z</time></trkpt><trkpt lat="45.79995126032752" lon="8.43930876812724"><ele>465.66666666666663</ele><time>2026-04-07T13:59:30Z</time></trkpt><trkpt lat="45.80002174591616" lon="8.43929041764672"><ele>466.3333333333333</ele><time>2026-04-07T13:59:31Z</time></trkpt><trkpt lat="45.80008612842825" lon="8.439286115520702"><ele>467.0</ele><time>2026-04-07T13:59:32Z</time></trkpt><trkpt lat="45.8002109062171" lon="8.439265277865534"><ele>468.49999999999994</ele><time>2026-04-07T13:59:34Z</time></trkpt><trkpt lat="45.80033172320936" lon="8.43925095243066"><ele>470.0</ele><time>2026-04-07T13:59:36Z</time></trkpt><trkpt lat="45.800401210480075" lon="8.439217726919207"><ele>471.5</ele><time>2026-04-07T13:59:37Z</time></trkpt><trkpt lat="45.800478372535935" lon="8.439177554608072"><ele>473.0</ele><time>2026-04-07T13:59:38Z</time></trkpt><trkpt lat="45.800558346633" lon="8.439145083347707"><ele>474.49999999999994</ele><time>2026-04-07T13:59:39Z</time></trkpt><trkpt lat="45.80064180609215" lon="8.439105936677576"><ele>476.0</ele><time>2026-04-07T13:59:40Z</time></trkpt><trkpt lat="45.800729571657726" lon="8.439057784224765"><ele>476.0</ele><time>2026-04-07T13:59:41Z</time></trkpt><trkpt lat="45.80080728904572" lon="8.439015650075788"><ele>476.0</ele><time>2026-04-07T13:59:42Z</time></trkpt><trkpt lat="45.80089440672102" lon="8.438974009082358"><ele>476.0</ele><time>2026-04-07T13:59:43Z</time></trkpt><trkpt lat="45.800993957413915" lon="8.43894207642609"><ele>476.0</ele><time>2026-04-07T13:59:44Z</time></trkpt><trkpt lat="45.80109518706292" lon="8.438914113120028"><ele>476.0</ele><time>2026-04-07T13:59:45Z</time></trkpt><trkpt lat="45.80118058087129" lon="8.43890075643351"><ele>477.66666666666663</ele><time>2026-04-07T13:59:46Z</time></trkpt><trkpt lat="45.801246775250476" lon="8.438907109377745"><ele>479.3333333333333</ele><time>2026-04-07T13:59:47Z</time></trkpt><trkpt lat="45.80132568683359" lon="8.438923259816601"><ele>481.0</ele><time>2026-04-07T13:59:48Z</time></trkpt><trkpt lat="45.80141463187767" lon="8.438949425687637"><ele>482.66666666666663</ele><time>2026-04-07T13:59:49Z</time></trkpt><trkpt lat="45.80150102726224" lon="8.438963866275449"><ele>484.3333333333333</ele><time>2026-04-07T13:59:50Z</time></trkpt><trkpt lat="45.80157944942683" lon="8.438961377997819"><ele>486.0</ele><time>2026-04-07T13:59:51Z</time></trkpt><trkpt lat="45.80165466305869" lon="8.438949808669879"><ele>486.0</ele><time>2026-04-07T13:59:52Z</time></trkpt><trkpt lat="45.80172394565577" lon="8.438918210411785"><ele>486.0</ele><time>2026-04-07T13:59:53Z</time></trkpt><trkpt lat="45.801821177161926" lon="8.438813655536133"><ele>486.0</ele><time>2026-04-07T13:59:55Z</time></trkpt><trkpt lat="45.80186348469499" lon="8.438737443659658"><ele>486.0</ele><time>2026-04-07T13:59:56Z</time></trkpt><trkpt lat="45.801893068668576" lon="8.438639466427977"><ele>486.0</ele><time>2026-04-07T13:59:57Z</time></trkpt><trkpt lat="45.80191045040289" lon="8.438526519512706"><ele>486.0</ele><time>2026-04-07T13:59:58Z</time></trkpt><trkpt lat="45.80192607510623" lon="8.438416556353276"><ele>483.1666666666667</ele><time>2026-04-07T13:59:59Z</time></trkpt><trkpt lat="45.801942035707356" lon="8.438308018759553"><ele>480.33333333333337</ele><time>2026-04-07T14:00:00Z</time></trkpt><trkpt lat="45.801962455099854" lon="8.438199994869755"><ele>477.5</ele><time>2026-04-07T14:00:01Z</time></trkpt><trkpt lat="45.80198667937167" lon="8.438098441574208"><ele>474.6666666666667</ele><time>2026-04-07T14:00:02Z</time></trkpt><trkpt lat="45.8020182064589" lon="8.437999971079604"><ele>471.83333333333337</ele><time>2026-04-07T14:00:03Z</time></trkpt><trkpt lat="45.8020686202816" lon="8.437919083551016"><ele>469.0</ele><time>2026-04-07T14:00:04Z</time></trkpt><trkpt lat="45.8021279651583" lon="8.437852083752777"><ele>469.0</ele><time>2026-04-07T14:00:05Z</time></trkpt><trkpt lat="45.802190219436696" lon="8.437775321721793"><ele>469.0</ele><time>2026-04-07T14:00:06Z</time></trkpt><trkpt lat="45.802257241250764" lon="8.437692410034169"><ele>469.0</ele><time>2026-04-07T14:00:07Z</time></trkpt><trkpt lat="45.802320044423986" lon="8.43759969968577"><ele>469.0</ele><time>2026-04-07T14:00:08Z</time></trkpt><trkpt lat="45.80238013205585" lon="8.437495211119439"><ele>469.0</ele><time>2026-04-07T14:00:09Z</time></trkpt><trkpt lat="45.80243829655794" lon="8.43737939047176"><ele>469.0</ele><time>2026-04-07T14:00:10Z</time></trkpt><trkpt lat="45.80249120628276" lon="8.437261228497446"><ele>469.0</ele><time>2026-04-07T14:00:11Z</time></trkpt><trkpt lat="45.802539447713286" lon="8.437144764889368"><ele>469.0</ele><time>2026-04-07T14:00:12Z</time></trkpt><trkpt lat="45.80257922623068" lon="8.43702439707794"><ele>469.0</ele><time>2026-04-07T14:00:13Z</time></trkpt><trkpt lat="45.80261017674524" lon="8.43691073471064"><ele>469.0</ele><time>2026-04-07T14:00:14Z</time></trkpt><trkpt lat="45.80263837897455" lon="8.436802044646187"><ele>469.33333333333337</ele><time>2026-04-07T14:00:15Z</time></trkpt><trkpt lat="45.802651780564375" lon="8.436701001448636"><ele>469.6666666666667</ele><time>2026-04-07T14:00:16Z</time></trkpt><trkpt lat="45.80264140133735" lon="8.436593418958092"><ele>470.0</ele><time>2026-04-07T14:00:17Z</time></trkpt><trkpt lat="45.802619226620436" lon="8.436484757771577"><ele>470.33333333333337</ele><time>2026-04-07T14:00:18Z</time></trkpt><trkpt lat="45.80260288236588" lon="8.436382152013364"><ele>470.6666666666667</ele><time>2026-04-07T14:00:19Z</time></trkpt><trkpt lat="45.8025941731473" lon="8.436290872115212"><ele>471.0</ele><time>2026-04-07T14:00:20Z</time></trkpt><trkpt lat="45.802602467396156" lon="8.436155119418322"><ele>471.20000000000005</ele><time>2026-04-07T14:00:22Z</time></trkpt><trkpt lat="45.802648351105724" lon="8.436037793817077"><ele>471.40000000000003</ele><time>2026-04-07T14:00:24Z</time></trkpt><trkpt lat="45.802735138945614" lon="8.43597055709472"><ele>471.6</ele><time>2026-04-07T14:00:26Z</time></trkpt><trkpt lat="45.80280599024831" lon="8.435987021940434"><ele>471.8</ele><time>2026-04-07T14:00:27Z</time></trkpt><trkpt lat="45.802889242334835" lon="8.43604333229836"><ele>472.0</ele><time>2026-04-07T14:00:28Z</time></trkpt><trkpt lat="45.80297848882673" lon="8.436095150264096"><ele>470.75</ele><time>2026-04-07T14:00:29Z</time></trkpt><trkpt lat="45.80308293878338" lon="8.436150880564814"><ele>469.5</ele><time>2026-04-07T14:00:30Z</time></trkpt><trkpt lat="45.80319222209901" lon="8.436206542809655"><ele>468.25</ele><time>2026-04-07T14:00:31Z</time></trkpt><trkpt lat="45.80331084133123" lon="8.436267176399873"><ele>467.0</ele><time>2026-04-07T14:00:32Z</time></trkpt><trkpt lat="45.80343251646466" lon="8.436331500517618"><ele>467.5</ele><time>2026-04-07T14:00:33Z</time></trkpt><trkpt lat="45.80356398138502" lon="8.43639830475785"><ele>468.0</ele><time>2026-04-07T14:00:34Z</time></trkpt><trkpt lat="45.80370355386162" lon="8.436464472284456"><ele>468.5</ele><time>2026-04-07T14:00:35Z</time></trkpt><trkpt lat="45.803841778934554" lon="8.436529352980196"><ele>469.0</ele><time>2026-04-07T14:00:36Z</time></trkpt><trkpt lat="45.8039826942178" lon="8.43659810320558"><ele>469.0</ele><time>2026-04-07T14:00:37Z</time></trkpt><trkpt lat="45.80412694008744" lon="8.436671875371083"><ele>469.0</ele><time>2026-04-07T14:00:38Z</time></trkpt><trkpt lat="45.80427292673255" lon="8.43674420104764"><ele>469.0</ele><time>2026-04-07T14:00:39Z</time></trkpt><trkpt lat="45.80441720142855" lon="8.436815566845565"><ele>471.0</ele><time>2026-04-07T14:00:40Z</time></trkpt><trkpt lat="45.80455936592942" lon="8.43688554549398"><ele>473.0</ele><time>2026-04-07T14:00:41Z</time></trkpt><trkpt lat="45.80470044304659" lon="8.436955557777434"><ele>475.0</ele><time>2026-04-07T14:00:42Z</time></trkpt><trkpt lat="45.804843061830816" lon="8.43702665924471"><ele>475.0</ele><time>2026-04-07T14:00:43Z</time></trkpt><trkpt lat="45.80498279915424" lon="8.43709786252134"><ele>475.0</ele><time>2026-04-07T14:00:44Z</time></trkpt><trkpt lat="45.80512316306264" lon="8.437170306375654"><ele>475.0</ele><time>2026-04-07T14:00:45Z</time></trkpt><trkpt lat="45.80526432680489" lon="8.437243751655256"><ele>475.0</ele><time>2026-04-07T14:00:46Z</time></trkpt><trkpt lat="45.805404955073165" lon="8.437314806419339"><ele>475.0</ele><time>2026-04-07T14:00:47Z</time></trkpt><trkpt lat="45.80554514124385" lon="8.437386377355683"><ele>475.0</ele><time>2026-04-07T14:00:48Z</time></trkpt><trkpt lat="45.805686188430734" lon="8.437456882874924"><ele>475.0</ele><time>2026-04-07T14:00:49Z</time></trkpt><trkpt lat="45.80582661659045" lon="8.437526761570187"><ele>475.0</ele><time>2026-04-07T14:00:50Z</time></trkpt><trkpt lat="45.80596796503965" lon="8.437594847096342"><ele>476.0</ele><time>2026-04-07T14:00:51Z</time></trkpt><trkpt lat="45.80610824429436" lon="8.437663405004738"><ele>477.0</ele><time>2026-04-07T14:00:52Z</time></trkpt><trkpt lat="45.806247763940696" lon="8.437732502087472"><ele>478.0</ele><time>2026-04-07T14:00:53Z</time></trkpt><trkpt lat="45.806387597876885" lon="8.437800736589374"><ele>479.0</ele><time>2026-04-07T14:00:54Z</time></trkpt><trkpt lat="45.80652557664519" lon="8.437869535567584"><ele>479.0</ele><time>2026-04-07T14:00:55Z</time></trkpt><trkpt lat="45.80666443189515" lon="8.437940031801054"><ele>479.0</ele><time>2026-04-07T14:00:56Z</time></trkpt><trkpt lat="45.806802810074274" lon="8.438010804859449"><ele>479.0</ele><time>2026-04-07T14:00:57Z</time></trkpt><trkpt lat="45.806942998297494" lon="8.438082197689512"><ele>479.0</ele><time>2026-04-07T14:00:58Z</time></trkpt><trkpt lat="45.807081215994515" lon="8.438151430309063"><ele>479.0</ele><time>2026-04-07T14:00:59Z</time></trkpt><trkpt lat="45.80721994955048" lon="8.438219379508434"><ele>479.0</ele><time>2026-04-07T14:01:00Z</time></trkpt><trkpt lat="45.8073617721127" lon="8.438281820667443"><ele>479.0</ele><time>2026-04-07T14:01:01Z</time></trkpt><trkpt lat="45.80750644042738" lon="8.438338589343521"><ele>479.0</ele><time>2026-04-07T14:01:02Z</time></trkpt><trkpt lat="45.80765401721737" lon="8.438388603029543"><ele>480.66666666666663</ele><time>2026-04-07T14:01:03Z</time></trkpt><trkpt lat="45.80780420128477" lon="8.438431231721635"><ele>482.33333333333337</ele><time>2026-04-07T14:01:04Z</time></trkpt><trkpt lat="45.80795711383014" lon="8.438463526396815"><ele>484.0</ele><time>2026-04-07T14:01:05Z</time></trkpt><trkpt lat="45.80810996727955" lon="8.438488765803363"><ele>484.0</ele><time>2026-04-07T14:01:06Z</time></trkpt><trkpt lat="45.80826167109513" lon="8.43850557535368"><ele>484.0</ele><time>2026-04-07T14:01:07Z</time></trkpt><trkpt lat="45.80841379657992" lon="8.438513397512457"><ele>484.0</ele><time>2026-04-07T14:01:08Z</time></trkpt><trkpt lat="45.80856792430549" lon="8.438508749707067"><ele>486.0</ele><time>2026-04-07T14:01:09Z</time></trkpt><trkpt lat="45.808722190001376" lon="8.438495653537851"><ele>488.0</ele><time>2026-04-07T14:01:10Z</time></trkpt><trkpt lat="45.808878795470626" lon="8.43847902872252"><ele>490.0</ele><time>2026-04-07T14:01:11Z</time></trkpt><trkpt lat="45.80903508674891" lon="8.438462962905406"><ele>490.0</ele><time>2026-04-07T14:01:12Z</time></trkpt><trkpt lat="45.80918944322671" lon="8.438448647408949"><ele>490.0</ele><time>2026-04-07T14:01:13Z</time></trkpt><trkpt lat="45.80934403900868" lon="8.438435050314395"><ele>490.0</ele><time>2026-04-07T14:01:14Z</time></trkpt><trkpt lat="45.80949725171509" lon="8.438424834843405"><ele>491.6666666666667</ele><time>2026-04-07T14:01:15Z</time></trkpt><trkpt lat="45.80965050518289" lon="8.438413800516459"><ele>493.33333333333337</ele><time>2026-04-07T14:01:16Z</time></trkpt><trkpt lat="45.80980179276406" lon="8.438402323614351"><ele>495.0</ele><time>2026-04-07T14:01:17Z</time></trkpt><trkpt lat="45.809952382997785" lon="8.438392999223163"><ele>495.0</ele><time>2026-04-07T14:01:18Z</time></trkpt><trkpt lat="45.810101722629064" lon="8.438379922776457"><ele>495.0</ele><time>2026-04-07T14:01:19Z</time></trkpt><trkpt lat="45.810251807483425" lon="8.438358459790972"><ele>495.0</ele><time>2026-04-07T14:01:20Z</time></trkpt><trkpt lat="45.81039164211357" lon="8.438324032032416"><ele>495.0</ele><time>2026-04-07T14:01:21Z</time></trkpt><trkpt lat="45.8105306077864" lon="8.438266380053294"><ele>495.75</ele><time>2026-04-07T14:01:22Z</time></trkpt><trkpt lat="45.81066554409439" lon="8.438174072543344"><ele>496.5</ele><time>2026-04-07T14:01:23Z</time></trkpt><trkpt lat="45.81078901441354" lon="8.438058158835759"><ele>497.25</ele><time>2026-04-07T14:01:24Z</time></trkpt><trkpt lat="45.81090482090831" lon="8.43792455372471"><ele>498.0</ele><time>2026-04-07T14:01:25Z</time></trkpt><trkpt lat="45.81101485894221" lon="8.437773745897736"><ele>500.75</ele><time>2026-04-07T14:01:26Z</time></trkpt><trkpt lat="45.81112133316617" lon="8.437618695036956"><ele>503.5</ele><time>2026-04-07T14:01:27Z</time></trkpt><trkpt lat="45.811225957395315" lon="8.437471542934796"><ele>506.25</ele><time>2026-04-07T14:01:28Z</time></trkpt><trkpt lat="45.81132933951564" lon="8.437333289007482"><ele>509.0</ele><time>2026-04-07T14:01:29Z</time></trkpt><trkpt lat="45.81143030270695" lon="8.43721049096407"><ele>509.6</ele><time>2026-04-07T14:01:30Z</time></trkpt><trkpt lat="45.811523032830664" lon="8.437113859493607"><ele>510.2</ele><time>2026-04-07T14:01:31Z</time></trkpt><trkpt lat="45.81161999195592" lon="8.437036030966263"><ele>510.80000000000007</ele><time>2026-04-07T14:01:32Z</time></trkpt><trkpt lat="45.811722232415725" lon="8.43697158957675"><ele>511.40000000000003</ele><time>2026-04-07T14:01:33Z</time></trkpt><trkpt lat="45.811826441177665" lon="8.436917821295543"><ele>512.0</ele><time>2026-04-07T14:01:34Z</time></trkpt><trkpt lat="45.81191916538301" lon="8.436873926670996"><ele>512.1666666666666</ele><time>2026-04-07T14:01:35Z</time></trkpt><trkpt lat="45.812003544713484" lon="8.436832604965726"><ele>512.3333333333333</ele><time>2026-04-07T14:01:36Z</time></trkpt><trkpt lat="45.81208739270885" lon="8.436792655496733"><ele>512.5</ele><time>2026-04-07T14:01:37Z</time></trkpt><trkpt lat="45.81217175269548" lon="8.436756006306245"><ele>512.6666666666666</ele><time>2026-04-07T14:01:38Z</time></trkpt><trkpt lat="45.8122530108283" lon="8.436719825995489"><ele>512.8333333333334</ele><time>2026-04-07T14:01:39Z</time></trkpt><trkpt lat="45.812331077554916" lon="8.436681872547451"><ele>513.0</ele><time>2026-04-07T14:01:40Z</time></trkpt><trkpt lat="45.8124100836572" lon="8.43664203574335"><ele>513.0</ele><time>2026-04-07T14:01:41Z</time></trkpt><trkpt lat="45.81248794915744" lon="8.436604184772568"><ele>513.0</ele><time>2026-04-07T14:01:42Z</time></trkpt><trkpt lat="45.81256596607165" lon="8.436565520293133"><ele>513.0</ele><time>2026-04-07T14:01:43Z</time></trkpt><trkpt lat="45.8126495629114" lon="8.436534136776913"><ele>513.0</ele><time>2026-04-07T14:01:44Z</time></trkpt><trkpt lat="45.81273966001157" lon="8.436498586627021"><ele>513.0</ele><time>2026-04-07T14:01:45Z</time></trkpt><trkpt lat="45.812833531426435" lon="8.43646631785299"><ele>513.0</ele><time>2026-04-07T14:01:46Z</time></trkpt><trkpt lat="45.812945560739415" lon="8.436437978431558"><ele>515.5</ele><time>2026-04-07T14:01:47Z</time></trkpt><trkpt lat="45.813058575375884" lon="8.436419998069367"><ele>518.0</ele><time>2026-04-07T14:01:48Z</time></trkpt><trkpt lat="45.81317368274381" lon="8.436396333823337"><ele>520.5</ele><time>2026-04-07T14:01:49Z</time></trkpt><trkpt lat="45.81328119530174" lon="8.436373015191952"><ele>523.0</ele><time>2026-04-07T14:01:50Z</time></trkpt><trkpt lat="45.81339620355407" lon="8.436348206456326"><ele>524.25</ele><time>2026-04-07T14:01:51Z</time></trkpt><trkpt lat="45.813516919867745" lon="8.436321846242544"><ele>525.5</ele><time>2026-04-07T14:01:52Z</time></trkpt><trkpt lat="45.813644851948574" lon="8.436296189349743"><ele>526.75</ele><time>2026-04-07T14:01:53Z</time></trkpt><trkpt lat="45.81377779946541" lon="8.436267627389666"><ele>528.0</ele><time>2026-04-07T14:01:54Z</time></trkpt><trkpt lat="45.81391131537521" lon="8.43624040852565"><ele>524.75</ele><time>2026-04-07T14:01:55Z</time></trkpt><trkpt lat="45.81404922406671" lon="8.436212983670218"><ele>521.5</ele><time>2026-04-07T14:01:56Z</time></trkpt><trkpt lat="45.81418702733123" lon="8.436180304368238"><ele>518.25</ele><time>2026-04-07T14:01:57Z</time></trkpt><trkpt lat="45.81432049981138" lon="8.436145219852326"><ele>515.0</ele><time>2026-04-07T14:01:58Z</time></trkpt><trkpt lat="45.81445237024577" lon="8.436105822297954"><ele>515.0</ele><time>2026-04-07T14:01:59Z</time></trkpt><trkpt lat="45.81458158249762" lon="8.43605555119086"><ele>515.0</ele><time>2026-04-07T14:02:00Z</time></trkpt><trkpt lat="45.81470910755687" lon="8.435991986221902"><ele>515.0</ele><time>2026-04-07T14:02:01Z</time></trkpt><trkpt lat="45.814839041578644" lon="8.435923465742276"><ele>515.0</ele><time>2026-04-07T14:02:02Z</time></trkpt><trkpt lat="45.81496303631728" lon="8.43585426533038"><ele>515.0</ele><time>2026-04-07T14:02:03Z</time></trkpt><trkpt lat="45.815083125772276" lon="8.435791586507174"><ele>515.0</ele><time>2026-04-07T14:02:04Z</time></trkpt><trkpt lat="45.81520485620086" lon="8.435750023314574"><ele>515.0</ele><time>2026-04-07T14:02:05Z</time></trkpt><trkpt lat="45.815328556933544" lon="8.435743664661011"><ele>515.0</ele><time>2026-04-07T14:02:06Z</time></trkpt><trkpt lat="45.81545671559349" lon="8.435772074420479"><ele>514.2</ele><time>2026-04-07T14:02:07Z</time></trkpt><trkpt lat="45.81557311040062" lon="8.435820420931362"><ele>513.4</ele><time>2026-04-07T14:02:08Z</time></trkpt><trkpt lat="45.815672750503616" lon="8.435868570331099"><ele>512.6</ele><time>2026-04-07T14:02:09Z</time></trkpt><trkpt lat="45.81576495297046" lon="8.435933846219708"><ele>511.8</ele><time>2026-04-07T14:02:10Z</time></trkpt><trkpt lat="45.81583484558227" lon="8.43599497319658"><ele>511.0</ele><time>2026-04-07T14:02:11Z</time></trkpt><trkpt lat="45.81592427725489" lon="8.436061886287547"><ele>511.00000000000006</ele><time>2026-04-07T14:02:13Z</time></trkpt><trkpt lat="45.81598113363358" lon="8.435971743224082"><ele>511.0</ele><time>2026-04-07T14:02:15Z</time></trkpt><trkpt lat="45.81596906379112" lon="8.435875320710544"><ele>511.0</ele><time>2026-04-07T14:02:16Z</time></trkpt><trkpt lat="45.81592016147674" lon="8.435770999038793"><ele>511.0</ele><time>2026-04-07T14:02:17Z</time></trkpt><trkpt lat="45.815882069239095" lon="8.435654105244616"><ele>511.00000000000006</ele><time>2026-04-07T14:02:18Z</time></trkpt><trkpt lat="45.815844735174885" lon="8.435531098899743"><ele>511.0</ele><time>2026-04-07T14:02:19Z</time></trkpt><trkpt lat="45.81580549085044" lon="8.435409790852814"><ele>509.6</ele><time>2026-04-07T14:02:20Z</time></trkpt><trkpt lat="45.81576173534369" lon="8.435285229949566"><ele>508.20000000000005</ele><time>2026-04-07T14:02:21Z</time></trkpt><trkpt lat="45.81571896970542" lon="8.435159328434057"><ele>506.79999999999995</ele><time>2026-04-07T14:02:22Z</time></trkpt><trkpt lat="45.81567931772122" lon="8.435028973656221"><ele>505.4</ele><time>2026-04-07T14:02:23Z</time></trkpt><trkpt lat="45.81564452088398" lon="8.434891975513517"><ele>504.0</ele><time>2026-04-07T14:02:24Z</time></trkpt><trkpt lat="45.81562728455071" lon="8.434745115813739"><ele>502.79999999999995</ele><time>2026-04-07T14:02:25Z</time></trkpt><trkpt lat="45.81563115193681" lon="8.434597351346985"><ele>501.59999999999997</ele><time>2026-04-07T14:02:26Z</time></trkpt><trkpt lat="45.8156489950847" lon="8.434457117184417"><ele>500.4</ele><time>2026-04-07T14:02:27Z</time></trkpt><trkpt lat="45.81567193528723" lon="8.434321292171383"><ele>499.2</ele><time>2026-04-07T14:02:28Z</time></trkpt><trkpt lat="45.81569770624062" lon="8.434188250825047"><ele>498.0</ele><time>2026-04-07T14:02:29Z</time></trkpt><trkpt lat="45.815726262699975" lon="8.434063439655159"><ele>498.0</ele><time>2026-04-07T14:02:30Z</time></trkpt><trkpt lat="45.81575129303703" lon="8.433969852313409"><ele>497.99999999999994</ele><time>2026-04-07T14:02:31Z</time></trkpt><trkpt lat="45.815771738560606" lon="8.433809467532363"><ele>497.99999999999994</ele><time>2026-04-07T14:02:33Z</time></trkpt><trkpt lat="45.815751883995546" lon="8.433661554845585"><ele>498.0</ele><time>2026-04-07T14:02:35Z</time></trkpt><trkpt lat="45.8158005114704" lon="8.433535563580403"><ele>498.0</ele><time>2026-04-07T14:02:37Z</time></trkpt><trkpt lat="45.81585590421841" lon="8.433489678647243"><ele>497.0</ele><time>2026-04-07T14:02:38Z</time></trkpt><trkpt lat="45.815962613049145" lon="8.433421575333139"><ele>495.99999999999994</ele><time>2026-04-07T14:02:40Z</time></trkpt><trkpt lat="45.81608416264937" lon="8.433401009749836"><ele>494.99999999999994</ele><time>2026-04-07T14:02:42Z</time></trkpt><trkpt lat="45.81616280967381" lon="8.433417770840911"><ele>494.0</ele><time>2026-04-07T14:02:43Z</time></trkpt><trkpt lat="45.81624414064316" lon="8.433431871714536"><ele>493.0</ele><time>2026-04-07T14:02:44Z</time></trkpt><trkpt lat="45.81632544980364" lon="8.433439839695405"><ele>492.83333333333337</ele><time>2026-04-07T14:02:45Z</time></trkpt><trkpt lat="45.81640664062462" lon="8.433439064236241"><ele>492.6666666666667</ele><time>2026-04-07T14:02:46Z</time></trkpt><trkpt lat="45.816480979737435" lon="8.433433366328405"><ele>492.5</ele><time>2026-04-07T14:02:47Z</time></trkpt><trkpt lat="45.81655157548512" lon="8.433419779908089"><ele>492.33333333333337</ele><time>2026-04-07T14:02:48Z</time></trkpt><trkpt lat="45.816623378212746" lon="8.433393259972076"><ele>492.1666666666667</ele><time>2026-04-07T14:02:49Z</time></trkpt><trkpt lat="45.81669868120781" lon="8.433364233494062"><ele>492.0</ele><time>2026-04-07T14:02:50Z</time></trkpt><trkpt lat="45.816778938005456" lon="8.43335681976507"><ele>492.1666666666667</ele><time>2026-04-07T14:02:51Z</time></trkpt><trkpt lat="45.81686433379924" lon="8.433364704019942"><ele>492.33333333333337</ele><time>2026-04-07T14:02:52Z</time></trkpt><trkpt lat="45.81694286154969" lon="8.433380062468501"><ele>492.5</ele><time>2026-04-07T14:02:53Z</time></trkpt><trkpt lat="45.81701058657081" lon="8.433397983375595"><ele>492.6666666666667</ele><time>2026-04-07T14:02:54Z</time></trkpt><trkpt lat="45.817083625456334" lon="8.433415704930038"><ele>492.83333333333337</ele><time>2026-04-07T14:02:55Z</time></trkpt><trkpt lat="45.8171616043118" lon="8.43343203184261"><ele>493.0</ele><time>2026-04-07T14:02:56Z</time></trkpt><trkpt lat="45.8172403462928" lon="8.433447346236461"><ele>493.00000000000006</ele><time>2026-04-07T14:02:57Z</time></trkpt><trkpt lat="45.81731674511677" lon="8.43346568347056"><ele>493.0</ele><time>2026-04-07T14:02:58Z</time></trkpt><trkpt lat="45.81738940188014" lon="8.433483834488987"><ele>493.0</ele><time>2026-04-07T14:02:59Z</time></trkpt><trkpt lat="45.81745568410131" lon="8.433503977149904"><ele>493.0</ele><time>2026-04-07T14:03:00Z</time></trkpt><trkpt lat="45.8175302141467" lon="8.43352903572381"><ele>493.00000000000006</ele><time>2026-04-07T14:03:01Z</time></trkpt><trkpt lat="45.81760751873044" lon="8.433551951004455"><ele>493.0</ele><time>2026-04-07T14:03:02Z</time></trkpt><trkpt lat="45.81768192246306" lon="8.433574167057616"><ele>493.57142857142856</ele><time>2026-04-07T14:03:03Z</time></trkpt><trkpt lat="45.817752132914094" lon="8.433599490983733"><ele>494.14285714285717</ele><time>2026-04-07T14:03:04Z</time></trkpt><trkpt lat="45.81781946494964" lon="8.433634030743923"><ele>494.7142857142857</ele><time>2026-04-07T14:03:05Z</time></trkpt><trkpt lat="45.817893789671345" lon="8.433667354336917"><ele>495.2857142857143</ele><time>2026-04-07T14:03:06Z</time></trkpt><trkpt lat="45.817960195071436" lon="8.433694620963736"><ele>495.8571428571429</ele><time>2026-04-07T14:03:07Z</time></trkpt><trkpt lat="45.8180347809782" lon="8.433723273689797"><ele>496.42857142857144</ele><time>2026-04-07T14:03:08Z</time></trkpt><trkpt lat="45.81811082754652" lon="8.433753529103877"><ele>497.0</ele><time>2026-04-07T14:03:09Z</time></trkpt><trkpt lat="45.81819412385185" lon="8.433796967519706"><ele>497.20000000000005</ele><time>2026-04-07T14:03:10Z</time></trkpt><trkpt lat="45.818280883859266" lon="8.433837530577158"><ele>497.40000000000003</ele><time>2026-04-07T14:03:11Z</time></trkpt><trkpt lat="45.81836892895555" lon="8.433862948217536"><ele>497.59999999999997</ele><time>2026-04-07T14:03:12Z</time></trkpt><trkpt lat="45.8184586765697" lon="8.433875230752593"><ele>497.79999999999995</ele><time>2026-04-07T14:03:13Z</time></trkpt><trkpt lat="45.818554482487365" lon="8.433869877216184"><ele>498.0</ele><time>2026-04-07T14:03:14Z</time></trkpt><trkpt lat="45.818645103252834" lon="8.43384278246449"><ele>498.79999999999995</ele><time>2026-04-07T14:03:15Z</time></trkpt><trkpt lat="45.81873463906067" lon="8.433781473546377"><ele>499.59999999999997</ele><time>2026-04-07T14:03:16Z</time></trkpt><trkpt lat="45.81882180743101" lon="8.433709311391079"><ele>500.40000000000003</ele><time>2026-04-07T14:03:17Z</time></trkpt><trkpt lat="45.81890820226773" lon="8.433671235145841"><ele>501.20000000000005</ele><time>2026-04-07T14:03:18Z</time></trkpt><trkpt lat="45.81900606142779" lon="8.43367724025261"><ele>502.0</ele><time>2026-04-07T14:03:19Z</time></trkpt><trkpt lat="45.81910784310472" lon="8.433700441926726"><ele>502.00000000000006</ele><time>2026-04-07T14:03:20Z</time></trkpt><trkpt lat="45.81921010389683" lon="8.433718388539033"><ele>502.0</ele><time>2026-04-07T14:03:21Z</time></trkpt><trkpt lat="45.81930845919453" lon="8.433741147562026"><ele>502.0</ele><time>2026-04-07T14:03:22Z</time></trkpt><trkpt lat="45.819392188960435" lon="8.433775532606765"><ele>502.0</ele><time>2026-04-07T14:03:23Z</time></trkpt><trkpt lat="45.81945631233355" lon="8.433828328634608"><ele>502.00000000000006</ele><time>2026-04-07T14:03:24Z</time></trkpt><trkpt lat="45.81952509532162" lon="8.433863452511435"><ele>502.0</ele><time>2026-04-07T14:03:25Z</time></trkpt><trkpt lat="45.819613616878684" lon="8.43388108662053"><ele>501.8</ele><time>2026-04-07T14:03:26Z</time></trkpt><trkpt lat="45.81970454657666" lon="8.433915439497254"><ele>501.6</ele><time>2026-04-07T14:03:27Z</time></trkpt><trkpt lat="45.819798523347295" lon="8.433962070027869"><ele>501.40000000000003</ele><time>2026-04-07T14:03:28Z</time></trkpt><trkpt lat="45.8198928692542" lon="8.433996959012562"><ele>501.20000000000005</ele><time>2026-04-07T14:03:29Z</time></trkpt><trkpt lat="45.819990470892286" lon="8.434010626900271"><ele>501.0</ele><time>2026-04-07T14:03:30Z</time></trkpt><trkpt lat="45.82007726010825" lon="8.434022679647162"><ele>500.8333333333333</ele><time>2026-04-07T14:03:31Z</time></trkpt><trkpt lat="45.820152912719266" lon="8.434028527523603"><ele>500.66666666666663</ele><time>2026-04-07T14:03:32Z</time></trkpt><trkpt lat="45.82023110783221" lon="8.434006845634057"><ele>500.5</ele><time>2026-04-07T14:03:33Z</time></trkpt><trkpt lat="45.82031437722709" lon="8.433960989569051"><ele>500.3333333333333</ele><time>2026-04-07T14:03:34Z</time></trkpt><trkpt lat="45.82039132193622" lon="8.433923086417261"><ele>500.16666666666663</ele><time>2026-04-07T14:03:35Z</time></trkpt><trkpt lat="45.82045566845797" lon="8.433911866247458"><ele>500.0</ele><time>2026-04-07T14:03:36Z</time></trkpt><trkpt lat="45.820535753556946" lon="8.43396175002921"><ele>499.99999999999994</ele><time>2026-04-07T14:03:38Z</time></trkpt><trkpt lat="45.820568871904335" lon="8.434045335556938"><ele>500.0</ele><time>2026-04-07T14:03:39Z</time></trkpt><trkpt lat="45.82058969831144" lon="8.43413652234697"><ele>500.0</ele><time>2026-04-07T14:03:40Z</time></trkpt><trkpt lat="45.820682977463214" lon="8.43418863570923"><ele>500.0</ele><time>2026-04-07T14:03:42Z</time></trkpt><trkpt lat="45.820797985445" lon="8.434109979374488"><ele>499.99999999999994</ele><time>2026-04-07T14:03:44Z</time></trkpt><trkpt lat="45.82086597979237" lon="8.43406530128113"><ele>500.0</ele><time>2026-04-07T14:03:45Z</time></trkpt><trkpt lat="45.82094965047114" lon="8.434074127739928"><ele>501.16666666666663</ele><time>2026-04-07T14:03:46Z</time></trkpt><trkpt lat="45.82103753683573" lon="8.434105584559497"><ele>502.3333333333333</ele><time>2026-04-07T14:03:47Z</time></trkpt><trkpt lat="45.82111822156705" lon="8.434111009410659"><ele>503.5</ele><time>2026-04-07T14:03:48Z</time></trkpt><trkpt lat="45.82119130613589" lon="8.434095007937183"><ele>504.66666666666663</ele><time>2026-04-07T14:03:49Z</time></trkpt><trkpt lat="45.821257132200984" lon="8.434069902316176"><ele>505.8333333333333</ele><time>2026-04-07T14:03:50Z</time></trkpt><trkpt lat="45.82132308836931" lon="8.434039647778809"><ele>507.0</ele><time>2026-04-07T14:03:51Z</time></trkpt><trkpt lat="45.821387338655256" lon="8.434008902836748"><ele>507.0</ele><time>2026-04-07T14:03:52Z</time></trkpt><trkpt lat="45.82145214805859" lon="8.43398174494429"><ele>507.0</ele><time>2026-04-07T14:03:53Z</time></trkpt><trkpt lat="45.82151841367201" lon="8.433968393372739"><ele>507.0</ele><time>2026-04-07T14:03:54Z</time></trkpt><trkpt lat="45.82160661931104" lon="8.433986141106947"><ele>507.0</ele><time>2026-04-07T14:03:56Z</time></trkpt><trkpt lat="45.821690142131395" lon="8.433999862599997"><ele>507.0</ele><time>2026-04-07T14:03:59Z</time></trkpt><trkpt lat="45.82176107718996" lon="8.434014161427227"><ele>507.0</ele><time>2026-04-07T14:04:01Z</time></trkpt><trkpt lat="45.82183901022562" lon="8.43404411633443"><ele>508.0</ele><time>2026-04-07T14:04:03Z</time></trkpt><trkpt lat="45.82192305326311" lon="8.434081545676815"><ele>509.0</ele><time>2026-04-07T14:04:05Z</time></trkpt><trkpt lat="45.822011585289175" lon="8.434142750285567"><ele>510.0</ele><time>2026-04-07T14:04:07Z</time></trkpt><trkpt lat="45.82210262962755" lon="8.434139966965578"><ele>511.0</ele><time>2026-04-07T14:04:09Z</time></trkpt><trkpt lat="45.82216549728652" lon="8.43410807817628"><ele>512.0</ele><time>2026-04-07T14:04:10Z</time></trkpt><trkpt lat="45.82223846392657" lon="8.434028672486637"><ele>513.0</ele><time>2026-04-07T14:04:11Z</time></trkpt><trkpt lat="45.82231564640084" lon="8.433947110637579"><ele>513.0</ele><time>2026-04-07T14:04:12Z</time></trkpt><trkpt lat="45.82240751343888" lon="8.43386579437545"><ele>513.0</ele><time>2026-04-07T14:04:13Z</time></trkpt><trkpt lat="45.82251670897915" lon="8.433801100109008"><ele>513.0</ele><time>2026-04-07T14:04:14Z</time></trkpt><trkpt lat="45.822632387177414" lon="8.433777646798504"><ele>513.0</ele><time>2026-04-07T14:04:15Z</time></trkpt><trkpt lat="45.82274976643319" lon="8.433793252403673"><ele>514.75</ele><time>2026-04-07T14:04:16Z</time></trkpt><trkpt lat="45.8228648872848" lon="8.43382191072233"><ele>516.5</ele><time>2026-04-07T14:04:17Z</time></trkpt><trkpt lat="45.822982135211035" lon="8.4338397196817"><ele>518.25</ele><time>2026-04-07T14:04:18Z</time></trkpt><trkpt lat="45.8231017541499" lon="8.43384861804053"><ele>520.0</ele><time>2026-04-07T14:04:19Z</time></trkpt><trkpt lat="45.82320575743645" lon="8.433852747733722"><ele>520.0</ele><time>2026-04-07T14:04:20Z</time></trkpt><trkpt lat="45.82329483532066" lon="8.433845538481659"><ele>520.0</ele><time>2026-04-07T14:04:21Z</time></trkpt><trkpt lat="45.823383990144066" lon="8.433828872283375"><ele>520.0</ele><time>2026-04-07T14:04:22Z</time></trkpt><trkpt lat="45.82347354777649" lon="8.43381631915646"><ele>520.0</ele><time>2026-04-07T14:04:23Z</time></trkpt><trkpt lat="45.82354551810977" lon="8.433811674356438"><ele>520.0</ele><time>2026-04-07T14:04:24Z</time></trkpt><trkpt lat="45.823650163367645" lon="8.433801411338873"><ele>520.0</ele><time>2026-04-07T14:04:26Z</time></trkpt><trkpt lat="45.823741163544604" lon="8.433764600211822"><ele>520.3333333333334</ele><time>2026-04-07T14:05:07Z</time></trkpt><trkpt lat="45.82377300847634" lon="8.433683846986026"><ele>520.6666666666667</ele><time>2026-04-07T14:05:09Z</time></trkpt><trkpt lat="45.823811741004455" lon="8.433588372213086"><ele>521.0</ele><time>2026-04-07T14:05:12Z</time></trkpt><trkpt lat="45.82384598880686" lon="8.43351077756856"><ele>521.3333333333334</ele><time>2026-04-07T14:05:14Z</time></trkpt><trkpt lat="45.8238685010895" lon="8.433411194554443"><ele>521.6666666666666</ele><time>2026-04-07T14:05:16Z</time></trkpt><trkpt lat="45.82391875341629" lon="8.433257998253614"><ele>522.0</ele><time>2026-04-07T14:05:18Z</time></trkpt><trkpt lat="45.82395333382307" lon="8.433163882933975"><ele>522.0</ele><time>2026-04-07T14:05:19Z</time></trkpt><trkpt lat="45.823992605074714" lon="8.43305715063406"><ele>522.0</ele><time>2026-04-07T14:05:20Z</time></trkpt><trkpt lat="45.82403954648146" lon="8.43293406687886"><ele>522.0</ele><time>2026-04-07T14:05:21Z</time></trkpt><trkpt lat="45.824100081124975" lon="8.432798985484382"><ele>522.0</ele><time>2026-04-07T14:05:22Z</time></trkpt><trkpt lat="45.82416360794026" lon="8.432659067452244"><ele>522.0</ele><time>2026-04-07T14:05:23Z</time></trkpt><trkpt lat="45.824236362445106" lon="8.432514076399254"><ele>520.75</ele><time>2026-04-07T14:05:24Z</time></trkpt><trkpt lat="45.82431547868588" lon="8.432361995185069"><ele>519.5</ele><time>2026-04-07T14:05:25Z</time></trkpt><trkpt lat="45.824401059269555" lon="8.432207024343265"><ele>518.25</ele><time>2026-04-07T14:05:26Z</time></trkpt><trkpt lat="45.82448644225319" lon="8.432050996906206"><ele>517.0</ele><time>2026-04-07T14:05:27Z</time></trkpt><trkpt lat="45.82457248125406" lon="8.431895133100248"><ele>517.0</ele><time>2026-04-07T14:05:28Z</time></trkpt><trkpt lat="45.82465854309881" lon="8.431739649111435"><ele>517.0</ele><time>2026-04-07T14:05:29Z</time></trkpt><trkpt lat="45.82474612259898" lon="8.431581334357688"><ele>517.0</ele><time>2026-04-07T14:05:30Z</time></trkpt><trkpt lat="45.82483025590784" lon="8.431424755208628"><ele>517.0</ele><time>2026-04-07T14:05:31Z</time></trkpt><trkpt lat="45.82491706980088" lon="8.431263775480918"><ele>517.3333333333334</ele><time>2026-04-07T14:05:32Z</time></trkpt><trkpt lat="45.82501852810703" lon="8.431105630478958"><ele>517.6666666666666</ele><time>2026-04-07T14:05:33Z</time></trkpt><trkpt lat="45.82513946831869" lon="8.430946061537494"><ele>518.0</ele><time>2026-04-07T14:05:34Z</time></trkpt><trkpt lat="45.825279261153085" lon="8.430798818346979"><ele>518.0</ele><time>2026-04-07T14:05:35Z</time></trkpt><trkpt lat="45.82541453429694" lon="8.430657790690073"><ele>518.0</ele><time>2026-04-07T14:05:36Z</time></trkpt><trkpt lat="45.82557388271476" lon="8.430548385221023"><ele>518.0</ele><time>2026-04-07T14:05:37Z</time></trkpt><trkpt lat="45.82570476164981" lon="8.430425459444796"><ele>517.0</ele><time>2026-04-07T14:05:38Z</time></trkpt><trkpt lat="45.825847606586215" lon="8.430294419209977"><ele>516.0</ele><time>2026-04-07T14:05:39Z</time></trkpt><trkpt lat="45.826002015311836" lon="8.430154603252271"><ele>515.0</ele><time>2026-04-07T14:05:40Z</time></trkpt><trkpt lat="45.826163596971185" lon="8.430009029078757"><ele>515.0</ele><time>2026-04-07T14:05:41Z</time></trkpt><trkpt lat="45.8263330971161" lon="8.429849074733745"><ele>515.0</ele><time>2026-04-07T14:05:42Z</time></trkpt><trkpt lat="45.82650267205906" lon="8.429689512219293"><ele>515.0</ele><time>2026-04-07T14:05:43Z</time></trkpt><trkpt lat="45.8266610485336" lon="8.429545058883361"><ele>513.3333333333333</ele><time>2026-04-07T14:05:44Z</time></trkpt><trkpt lat="45.826815322807676" lon="8.429405313718634"><ele>511.66666666666663</ele><time>2026-04-07T14:05:45Z</time></trkpt><trkpt lat="45.82697412879103" lon="8.42925948066004"><ele>510.0</ele><time>2026-04-07T14:05:46Z</time></trkpt><trkpt lat="45.82712410412968" lon="8.42912213640908"><ele>510.0</ele><time>2026-04-07T14:05:47Z</time></trkpt><trkpt lat="45.82726742817175" lon="8.428998214973529"><ele>510.0</ele><time>2026-04-07T14:05:48Z</time></trkpt><trkpt lat="45.82740942636239" lon="8.428890459975696"><ele>510.0</ele><time>2026-04-07T14:05:49Z</time></trkpt><trkpt lat="45.82755304127928" lon="8.428809385668341"><ele>508.75</ele><time>2026-04-07T14:05:50Z</time></trkpt><trkpt lat="45.827692728388946" lon="8.428755022858121"><ele>507.5</ele><time>2026-04-07T14:05:51Z</time></trkpt><trkpt lat="45.827829224672335" lon="8.42871397805798"><ele>506.25</ele><time>2026-04-07T14:05:52Z</time></trkpt><trkpt lat="45.827965962689674" lon="8.428679839936658"><ele>505.0</ele><time>2026-04-07T14:05:53Z</time></trkpt><trkpt lat="45.82810496794147" lon="8.428644091943537"><ele>505.0</ele><time>2026-04-07T14:05:54Z</time></trkpt><trkpt lat="45.828243992348604" lon="8.42860601004751"><ele>505.0</ele><time>2026-04-07T14:05:55Z</time></trkpt><trkpt lat="45.82837686646099" lon="8.428575534197094"><ele>505.0</ele><time>2026-04-07T14:05:56Z</time></trkpt><trkpt lat="45.828496543109736" lon="8.428554798993698"><ele>505.0</ele><time>2026-04-07T14:05:57Z</time></trkpt><trkpt lat="45.82861174161707" lon="8.42853769639674"><ele>505.6</ele><time>2026-04-07T14:05:58Z</time></trkpt><trkpt lat="45.828723363243945" lon="8.428517040808458"><ele>506.2</ele><time>2026-04-07T14:05:59Z</time></trkpt><trkpt lat="45.82883176277254" lon="8.428493822391639"><ele>506.79999999999995</ele><time>2026-04-07T14:06:00Z</time></trkpt><trkpt lat="45.828936644558674" lon="8.428468851149002"><ele>507.4</ele><time>2026-04-07T14:06:01Z</time></trkpt><trkpt lat="45.82903870989634" lon="8.42843827237241"><ele>508.0</ele><time>2026-04-07T14:06:02Z</time></trkpt><trkpt lat="45.82914615097598" lon="8.428412506450766"><ele>508.0</ele><time>2026-04-07T14:06:03Z</time></trkpt><trkpt lat="45.82924953984976" lon="8.42838903866294"><ele>507.99999999999994</ele><time>2026-04-07T14:06:04Z</time></trkpt><trkpt lat="45.8293492112274" lon="8.428370681989215"><ele>507.99999999999994</ele><time>2026-04-07T14:06:05Z</time></trkpt><trkpt lat="45.82944139208403" lon="8.428350791552667"><ele>508.0</ele><time>2026-04-07T14:06:06Z</time></trkpt><trkpt lat="45.829537479819436" lon="8.428306931313582"><ele>508.0</ele><time>2026-04-07T14:06:08Z</time></trkpt><trkpt lat="45.82952748164943" lon="8.428191488366348"><ele>508.00000000000006</ele><time>2026-04-07T14:06:10Z</time></trkpt><trkpt lat="45.829409481517025" lon="8.428101482817977"><ele>508.0</ele><time>2026-04-07T14:06:12Z</time></trkpt><trkpt lat="45.82932008101358" lon="8.428072399407267"><ele>508.0</ele><time>2026-04-07T14:06:13Z</time></trkpt><trkpt lat="45.82925309888123" lon="8.428065035826545"><ele>508.0</ele><time>2026-04-07T14:06:14Z</time></trkpt><trkpt lat="45.829187787580445" lon="8.428041665666397"><ele>508.00000000000006</ele><time>2026-04-07T14:06:15Z</time></trkpt><trkpt lat="45.82912115142322" lon="8.428014710216202"><ele>508.0</ele><time>2026-04-07T14:06:16Z</time></trkpt><trkpt lat="45.829053694420196" lon="8.427987632477624"><ele>504.6666666666667</ele><time>2026-04-07T14:06:17Z</time></trkpt><trkpt lat="45.82899083207411" lon="8.427973540542844"><ele>501.33333333333337</ele><time>2026-04-07T14:06:18Z</time></trkpt><trkpt lat="45.82892085934857" lon="8.427965732960233"><ele>498.0</ele><time>2026-04-07T14:06:19Z</time></trkpt><trkpt lat="45.828841599492144" lon="8.427895814968679"><ele>494.66666666666663</ele><time>2026-04-07T14:06:21Z</time></trkpt><trkpt lat="45.82881860965447" lon="8.42773077896033"><ele>491.3333333333333</ele><time>2026-04-07T14:06:23Z</time></trkpt><trkpt lat="45.8288326100802" lon="8.427633068298144"><ele>488.0</ele><time>2026-04-07T14:06:24Z</time></trkpt><trkpt lat="45.82885882766062" lon="8.427542128532533"><ele>487.99999999999994</ele><time>2026-04-07T14:06:25Z</time></trkpt><trkpt lat="45.828883703602884" lon="8.427451903007949"><ele>488.0</ele><time>2026-04-07T14:06:26Z</time></trkpt><trkpt lat="45.82890388347294" lon="8.427361653668774"><ele>487.99999999999994</ele><time>2026-04-07T14:06:27Z</time></trkpt><trkpt lat="45.82892609692421" lon="8.427264162804766"><ele>487.99999999999994</ele><time>2026-04-07T14:06:28Z</time></trkpt><trkpt lat="45.82895355259115" lon="8.427164840851262"><ele>488.0</ele><time>2026-04-07T14:06:29Z</time></trkpt><trkpt lat="45.82898293510631" lon="8.427062818158717"><ele>487.99999999999994</ele><time>2026-04-07T14:06:30Z</time></trkpt><trkpt lat="45.829010979986776" lon="8.426953048252974"><ele>487.99999999999994</ele><time>2026-04-07T14:06:31Z</time></trkpt><trkpt lat="45.82903598450824" lon="8.42683248193731"><ele>486.2</ele><time>2026-04-07T14:06:32Z</time></trkpt><trkpt lat="45.82905301525617" lon="8.426718929548718"><ele>484.4</ele><time>2026-04-07T14:06:33Z</time></trkpt><trkpt lat="45.82906672496621" lon="8.42661657170867"><ele>482.59999999999997</ele><time>2026-04-07T14:06:34Z</time></trkpt><trkpt lat="45.82907998962095" lon="8.426526688274272"><ele>480.79999999999995</ele><time>2026-04-07T14:06:35Z</time></trkpt><trkpt lat="45.82907068621944" lon="8.426371179827795"><ele>479.0</ele><time>2026-04-07T14:06:37Z</time></trkpt><trkpt lat="45.828990644552796" lon="8.426220198175729"><ele>477.3333333333333</ele><time>2026-04-07T14:06:39Z</time></trkpt><trkpt lat="45.828933806091044" lon="8.426141908579464"><ele>475.66666666666663</ele><time>2026-04-07T14:06:40Z</time></trkpt><trkpt lat="45.82888015934811" lon="8.426059677676719"><ele>474.0</ele><time>2026-04-07T14:06:41Z</time></trkpt><trkpt lat="45.82881661340333" lon="8.425983245092894"><ele>472.33333333333337</ele><time>2026-04-07T14:06:42Z</time></trkpt><trkpt lat="45.82876344859619" lon="8.425900680519252"><ele>470.6666666666667</ele><time>2026-04-07T14:06:43Z</time></trkpt><trkpt lat="45.82871820579531" lon="8.42581805501194"><ele>469.0</ele><time>2026-04-07T14:06:44Z</time></trkpt><trkpt lat="45.82869002573596" lon="8.425736595074149"><ele>469.0</ele><time>2026-04-07T14:06:45Z</time></trkpt><trkpt lat="45.82867946766741" lon="8.42563096455965"><ele>469.0</ele><time>2026-04-07T14:06:46Z</time></trkpt><trkpt lat="45.82868349315776" lon="8.425456282630412"><ele>469.0</ele><time>2026-04-07T14:06:48Z</time></trkpt><trkpt lat="45.82865943391076" lon="8.425289233313217"><ele>469.0</ele><time>2026-04-07T14:06:50Z</time></trkpt><trkpt lat="45.82862664084" lon="8.42513822377255"><ele>469.0</ele><time>2026-04-07T14:06:52Z</time></trkpt><trkpt lat="45.828592567421914" lon="8.425057800599921"><ele>467.6666666666667</ele><time>2026-04-07T14:06:53Z</time></trkpt><trkpt lat="45.82853404486616" lon="8.424997539243813"><ele>466.33333333333337</ele><time>2026-04-07T14:06:54Z</time></trkpt><trkpt lat="45.828458289306326" lon="8.424950410665192"><ele>465.0</ele><time>2026-04-07T14:06:55Z</time></trkpt><trkpt lat="45.82838721430418" lon="8.424900025318452"><ele>463.66666666666663</ele><time>2026-04-07T14:06:56Z</time></trkpt><trkpt lat="45.828313788107614" lon="8.424857834153585"><ele>462.3333333333333</ele><time>2026-04-07T14:06:57Z</time></trkpt><trkpt lat="45.82824159726202" lon="8.42480918510396"><ele>461.0</ele><time>2026-04-07T14:06:58Z</time></trkpt><trkpt lat="45.82817065237524" lon="8.424747321341952"><ele>460.99999999999994</ele><time>2026-04-07T14:06:59Z</time></trkpt><trkpt lat="45.82809829101337" lon="8.424690091881116"><ele>461.0</ele><time>2026-04-07T14:07:00Z</time></trkpt><trkpt lat="45.82802422940083" lon="8.424642020041892"><ele>461.0</ele><time>2026-04-07T14:07:01Z</time></trkpt><trkpt lat="45.82794296756644" lon="8.42460049502588"><ele>461.0</ele><time>2026-04-07T14:07:02Z</time></trkpt><trkpt lat="45.82785205460771" lon="8.4245722823675"><ele>460.99999999999994</ele><time>2026-04-07T14:07:03Z</time></trkpt><trkpt lat="45.827766260213735" lon="8.424547952227332"><ele>461.0</ele><time>2026-04-07T14:07:04Z</time></trkpt><trkpt lat="45.82768805605165" lon="8.424529287547994"><ele>453.6</ele><time>2026-04-07T14:07:05Z</time></trkpt><trkpt lat="45.827605842042054" lon="8.424527763838848"><ele>446.20000000000005</ele><time>2026-04-07T14:07:06Z</time></trkpt><trkpt lat="45.827518094086706" lon="8.424545261224226"><ele>438.79999999999995</ele><time>2026-04-07T14:07:07Z</time></trkpt><trkpt lat="45.82742483513955" lon="8.42455406005955"><ele>431.4</ele><time>2026-04-07T14:07:08Z</time></trkpt><trkpt lat="45.82732422152478" lon="8.424552913126208"><ele>424.0</ele><time>2026-04-07T14:07:09Z</time></trkpt><trkpt lat="45.82722243402455" lon="8.424568610855266"><ele>424.0</ele><time>2026-04-07T14:07:10Z</time></trkpt><trkpt lat="45.82713637311543" lon="8.424577880438585"><ele>424.0</ele><time>2026-04-07T14:07:11Z</time></trkpt><trkpt lat="45.827063564045325" lon="8.42457416899764"><ele>424.0</ele><time>2026-04-07T14:07:12Z</time></trkpt><trkpt lat="45.82699468586128" lon="8.424562975382102"><ele>424.0</ele><time>2026-04-07T14:07:13Z</time></trkpt><trkpt lat="45.8269289737007" lon="8.424516815622587"><ele>424.0</ele><time>2026-04-07T14:07:14Z</time></trkpt><trkpt lat="45.82687496899405" lon="8.424447169759887"><ele>424.0</ele><time>2026-04-07T14:07:15Z</time></trkpt><trkpt lat="45.826829555085546" lon="8.424384079129137"><ele>424.0</ele><time>2026-04-07T14:07:16Z</time></trkpt><trkpt lat="45.826778195911736" lon="8.424316015488134"><ele>423.00000000000006</ele><time>2026-04-07T14:07:17Z</time></trkpt><trkpt lat="45.82672932294436" lon="8.42424386124254"><ele>422.0</ele><time>2026-04-07T14:07:18Z</time></trkpt><trkpt lat="45.82667157035259" lon="8.424174084516856"><ele>421.0</ele><time>2026-04-07T14:07:19Z</time></trkpt><trkpt lat="45.826612312289384" lon="8.424108234037519"><ele>420.0</ele><time>2026-04-07T14:07:20Z</time></trkpt><trkpt lat="45.82656873508229" lon="8.42403810410674"><ele>419.00000000000006</ele><time>2026-04-07T14:07:21Z</time></trkpt><trkpt lat="45.8265197352032" lon="8.423900398311508"><ele>418.0</ele><time>2026-04-07T14:07:23Z</time></trkpt><trkpt lat="45.826577539418146" lon="8.423801747592382"><ele>418.0</ele><time>2026-04-07T14:07:26Z</time></trkpt><trkpt lat="45.8266859273649" lon="8.423865142211385"><ele>418.0</ele><time>2026-04-07T14:07:28Z</time></trkpt><trkpt lat="45.826782292529536" lon="8.423918678199565"><ele>418.0</ele><time>2026-04-07T14:07:30Z</time></trkpt><trkpt lat="45.82686476272807" lon="8.423930308175757"><ele>418.0</ele><time>2026-04-07T14:07:32Z</time></trkpt><trkpt lat="45.8269533425861" lon="8.423959528466721"><ele>418.0</ele><time>2026-04-07T14:07:34Z</time></trkpt><trkpt lat="45.82703774527814" lon="8.424018159249322"><ele>419.2</ele><time>2026-04-07T14:07:36Z</time></trkpt><trkpt lat="45.827133373489616" lon="8.424001493223779"><ele>420.4</ele><time>2026-04-07T14:07:38Z</time></trkpt><trkpt lat="45.82721262513545" lon="8.423911656135955"><ele>421.59999999999997</ele><time>2026-04-07T14:07:40Z</time></trkpt><trkpt lat="45.827264605740474" lon="8.4237726637934"><ele>422.79999999999995</ele><time>2026-04-07T14:07:42Z</time></trkpt><trkpt lat="45.82730439811896" lon="8.423668942727936"><ele>424.0</ele><time>2026-04-07T14:07:44Z</time></trkpt><trkpt lat="45.82733783528673" lon="8.423586157651057"><ele>420.00000000000006</ele><time>2026-04-07T14:07:46Z</time></trkpt><trkpt lat="45.82736323994355" lon="8.423476462655028"><ele>416.0</ele><time>2026-04-07T14:07:49Z</time></trkpt><trkpt lat="45.827384107193154" lon="8.4233844266592"><ele>412.0</ele><time>2026-04-07T14:07:51Z</time></trkpt><trkpt lat="45.827373834230585" lon="8.423267066987584"><ele>408.0</ele><time>2026-04-07T14:07:53Z</time></trkpt><trkpt lat="45.82735503783424" lon="8.423141076307871"><ele>404.00000000000006</ele><time>2026-04-07T14:07:55Z</time></trkpt><trkpt lat="45.82733549728086" lon="8.423004570037518"><ele>400.0</ele><time>2026-04-07T14:07:57Z</time></trkpt><trkpt lat="45.82730757660001" lon="8.422869834876868"><ele>397.00000000000006</ele><time>2026-04-07T14:07:59Z</time></trkpt><trkpt lat="45.82727014402825" lon="8.422750198239775"><ele>394.0</ele><time>2026-04-07T14:08:01Z</time></trkpt><trkpt lat="45.827248219014" lon="8.422639436588783"><ele>391.0</ele><time>2026-04-07T14:08:03Z</time></trkpt><trkpt lat="45.82726917303928" lon="8.422540355399562"><ele>388.0</ele><time>2026-04-07T14:08:05Z</time></trkpt><trkpt lat="45.82729857826284" lon="8.422448328756023"><ele>385.0</ele><time>2026-04-07T14:08:07Z</time></trkpt><trkpt lat="45.82735074308041" lon="8.4223710347137"><ele>382.0</ele><time>2026-04-07T14:08:09Z</time></trkpt><trkpt lat="45.827390964676226" lon="8.422294445956101"><ele>382.0</ele><time>2026-04-07T14:08:11Z</time></trkpt><trkpt lat="45.82744362464034" lon="8.422217719039018"><ele>382.0</ele><time>2026-04-07T14:08:13Z</time></trkpt><trkpt lat="45.82748688724204" lon="8.422103454801478"><ele>382.0</ele><time>2026-04-07T14:08:15Z</time></trkpt><trkpt lat="45.827527349714366" lon="8.421942468878225"><ele>382.0</ele><time>2026-04-07T14:08:17Z</time></trkpt><trkpt lat="45.82754301186009" lon="8.421759002905928"><ele>382.0</ele><time>2026-04-07T14:08:19Z</time></trkpt><trkpt lat="45.82757039035665" lon="8.421584645661401"><ele>380.0</ele><time>2026-04-07T14:08:21Z</time></trkpt><trkpt lat="45.827582735962025" lon="8.421443027744527"><ele>378.0</ele><time>2026-04-07T14:08:23Z</time></trkpt><trkpt lat="45.827576064642926" lon="8.421325561018087"><ele>376.0</ele><time>2026-04-07T14:08:25Z</time></trkpt><trkpt lat="45.82758841779418" lon="8.42121912551151"><ele>374.0</ele><time>2026-04-07T14:08:27Z</time></trkpt><trkpt lat="45.827644101070504" lon="8.421137261681682"><ele>372.0</ele><time>2026-04-07T14:08:29Z</time></trkpt><trkpt lat="45.827682315315194" lon="8.421040430968022"><ele>370.0</ele><time>2026-04-07T14:08:31Z</time></trkpt><trkpt lat="45.82768414059638" lon="8.420876166159898"><ele>370.0</ele><time>2026-04-07T14:08:33Z</time></trkpt><trkpt lat="45.82764660583724" lon="8.420763672478799"><ele>370.0</ele><time>2026-04-07T14:08:35Z</time></trkpt><trkpt lat="45.82757923600853" lon="8.420713032706844"><ele>370.0</ele><time>2026-04-07T14:08:37Z</time></trkpt><trkpt lat="45.82749737549371" lon="8.420713125380376"><ele>370.0</ele><time>2026-04-07T14:08:39Z</time></trkpt><trkpt lat="45.82743046002585" lon="8.420681825237732"><ele>370.0</ele><time>2026-04-07T14:08:41Z</time></trkpt><trkpt lat="45.827382219310564" lon="8.420613723564058"><ele>370.0</ele><time>2026-04-07T14:08:43Z</time></trkpt><trkpt lat="45.82731624608384" lon="8.420545442278867"><ele>369.8</ele><time>2026-04-07T14:08:45Z</time></trkpt><trkpt lat="45.827235609124685" lon="8.420490606125801"><ele>369.6</ele><time>2026-04-07T14:08:47Z</time></trkpt><trkpt lat="45.82716421968028" lon="8.420432006436783"><ele>369.4</ele><time>2026-04-07T14:08:49Z</time></trkpt><trkpt lat="45.82708703884984" lon="8.420361652168017"><ele>369.2</ele><time>2026-04-07T14:08:51Z</time></trkpt><trkpt lat="45.827027027592756" lon="8.420263306723344"><ele>369.0</ele><time>2026-04-07T14:08:53Z</time></trkpt><trkpt lat="45.826997372955496" lon="8.420117985335427"><ele>370.0</ele><time>2026-04-07T14:08:55Z</time></trkpt><trkpt lat="45.826983512652205" lon="8.42002785985186"><ele>371.0</ele><time>2026-04-07T14:08:56Z</time></trkpt><trkpt lat="45.826966425777094" lon="8.419938487255077"><ele>372.0</ele><time>2026-04-07T14:08:57Z</time></trkpt><trkpt lat="45.8269652037015" lon="8.419791901732465"><ele>373.0</ele><time>2026-04-07T14:08:59Z</time></trkpt><trkpt lat="45.82701975086721" lon="8.419681453129527"><ele>374.0</ele><time>2026-04-07T14:09:01Z</time></trkpt><trkpt lat="45.82711441293402" lon="8.419614907329903"><ele>375.0</ele><time>2026-04-07T14:09:03Z</time></trkpt><trkpt lat="45.82717807740456" lon="8.419571041084271"><ele>379.1666666666667</ele><time>2026-04-07T14:09:04Z</time></trkpt><trkpt lat="45.82723705427653" lon="8.419499899359883"><ele>383.33333333333337</ele><time>2026-04-07T14:09:05Z</time></trkpt><trkpt lat="45.827306314324595" lon="8.419447677283665"><ele>387.5</ele><time>2026-04-07T14:09:06Z</time></trkpt><trkpt lat="45.82738293151399" lon="8.419420408589987"><ele>391.6666666666667</ele><time>2026-04-07T14:09:07Z</time></trkpt><trkpt lat="45.827463229483605" lon="8.41940086459247"><ele>395.83333333333337</ele><time>2026-04-07T14:09:08Z</time></trkpt><trkpt lat="45.82754185209236" lon="8.419388521182357"><ele>400.0</ele><time>2026-04-07T14:09:09Z</time></trkpt><trkpt lat="45.82766797550744" lon="8.41939812514598"><ele>400.0</ele><time>2026-04-07T14:09:11Z</time></trkpt><trkpt lat="45.827787814021946" lon="8.41937455145226"><ele>400.0</ele><time>2026-04-07T14:09:13Z</time></trkpt><trkpt lat="45.827878727943016" lon="8.419339791805834"><ele>400.0</ele><time>2026-04-07T14:09:15Z</time></trkpt><trkpt lat="45.82792344597142" lon="8.419271651798788"><ele>400.0</ele><time>2026-04-07T14:09:17Z</time></trkpt><trkpt lat="45.82787328775223" lon="8.419176546400141"><ele>400.0</ele><time>2026-04-07T14:09:20Z</time></trkpt><trkpt lat="45.827787576070165" lon="8.419153037262602"><ele>400.0</ele><time>2026-04-07T14:09:22Z</time></trkpt><trkpt lat="45.82768629143768" lon="8.41912086735225"><ele>400.0</ele><time>2026-04-07T14:09:24Z</time></trkpt><trkpt lat="45.8275563100697" lon="8.41908479926848"><ele>400.0</ele><time>2026-04-07T14:09:26Z</time></trkpt><trkpt lat="45.827481607742975" lon="8.41907993220528"><ele>400.0</ele><time>2026-04-07T14:09:27Z</time></trkpt><trkpt lat="45.82740577483159" lon="8.41907991876059"><ele>400.0</ele><time>2026-04-07T14:09:28Z</time></trkpt><trkpt lat="45.82731754743399" lon="8.419078203049718"><ele>400.33333333333337</ele><time>2026-04-07T14:09:29Z</time></trkpt><trkpt lat="45.82723208301188" lon="8.419075151924094"><ele>400.6666666666667</ele><time>2026-04-07T14:09:30Z</time></trkpt><trkpt lat="45.82716000972131" lon="8.419076204919659"><ele>401.0</ele><time>2026-04-07T14:09:31Z</time></trkpt><trkpt lat="45.82709250495985" lon="8.41907804217402"><ele>401.33333333333337</ele><time>2026-04-07T14:09:32Z</time></trkpt><trkpt lat="45.82698125052321" lon="8.419112697731533"><ele>401.6666666666667</ele><time>2026-04-07T14:09:34Z</time></trkpt><trkpt lat="45.82691184652928" lon="8.41912770987054"><ele>402.0</ele><time>2026-04-07T14:09:35Z</time></trkpt><trkpt lat="45.82679143309103" lon="8.41906575667762"><ele>403.1428571428571</ele><time>2026-04-07T14:09:37Z</time></trkpt><trkpt lat="45.82673687122781" lon="8.419011586995737"><ele>404.28571428571433</ele><time>2026-04-07T14:09:38Z</time></trkpt><trkpt lat="45.82664995601688" lon="8.418949598832063"><ele>405.42857142857144</ele><time>2026-04-07T14:09:40Z</time></trkpt><trkpt lat="45.82658936556964" lon="8.418910171528234"><ele>406.57142857142856</ele><time>2026-04-07T14:09:42Z</time></trkpt><trkpt lat="45.826539061152644" lon="8.418854043856388"><ele>407.71428571428567</ele><time>2026-04-07T14:09:45Z</time></trkpt><trkpt lat="45.82647032431211" lon="8.418784265439864"><ele>408.8571428571429</ele><time>2026-04-07T14:09:48Z</time></trkpt><trkpt lat="45.82642511028666" lon="8.418708899197792"><ele>410.0</ele><time>2026-04-07T14:09:50Z</time></trkpt><trkpt lat="45.82638689951998" lon="8.418605241946224"><ele>412.16666666666663</ele><time>2026-04-07T14:09:52Z</time></trkpt><trkpt lat="45.82635492888123" lon="8.418484087195036"><ele>414.3333333333333</ele><time>2026-04-07T14:09:54Z</time></trkpt><trkpt lat="45.82626663283097" lon="8.418442950590453"><ele>416.5</ele><time>2026-04-07T14:09:56Z</time></trkpt><trkpt lat="45.82620289386444" lon="8.418448735886187"><ele>418.66666666666663</ele><time>2026-04-07T14:09:57Z</time></trkpt><trkpt lat="45.826126657908574" lon="8.418383236084756"><ele>420.8333333333333</ele><time>2026-04-07T14:09:59.001Z</time></trkpt><trkpt lat="45.82606759581088" lon="8.418287079118606"><ele>423.0</ele><time>2026-04-07T14:10:01.001Z</time></trkpt><trkpt lat="45.82601537282063" lon="8.418205337037802"><ele>423.0</ele><time>2026-04-07T14:10:03.001Z</time></trkpt><trkpt lat="45.82595484476299" lon="8.41809369466971"><ele>423.0</ele><time>2026-04-07T14:10:05Z</time></trkpt><trkpt lat="45.82589805467376" lon="8.418006858051026"><ele>423.0</ele><time>2026-04-07T14:10:08Z</time></trkpt><trkpt lat="45.82595828338335" lon="8.41794974402249"><ele>423.0</ele><time>2026-04-07T14:10:10Z</time></trkpt><trkpt lat="45.82604603453164" lon="8.418006588865532"><ele>423.0</ele><time>2026-04-07T14:10:12Z</time></trkpt><trkpt lat="45.82612867588429" lon="8.418011957928876"><ele>423.0</ele><time>2026-04-07T14:10:14Z</time></trkpt><trkpt lat="45.826200510916216" lon="8.418037100930103"><ele>423.5</ele><time>2026-04-07T14:10:17Z</time></trkpt><trkpt lat="45.82613897050133" lon="8.417972198726186"><ele>424.0</ele><time>2026-04-07T14:10:23Z</time></trkpt><trkpt lat="45.82603919367412" lon="8.417975136872576"><ele>424.5</ele><time>2026-04-07T14:10:26Z</time></trkpt><trkpt lat="45.82596448286433" lon="8.417927062790351"><ele>425.0</ele><time>2026-04-07T14:10:28Z</time></trkpt><trkpt lat="45.82588939796064" lon="8.417841386837027"><ele>425.5</ele><time>2026-04-07T14:10:30Z</time></trkpt><trkpt lat="45.82581226532671" lon="8.417782482845421"><ele>426.0</ele><time>2026-04-07T14:10:32Z</time></trkpt><trkpt lat="45.825762045366076" lon="8.417697901534748"><ele>426.0</ele><time>2026-04-07T14:10:34Z</time></trkpt><trkpt lat="45.825716154369424" lon="8.41760611399077"><ele>426.0</ele><time>2026-04-07T14:10:36Z</time></trkpt><trkpt lat="45.82570622480853" lon="8.41747058761441"><ele>426.0</ele><time>2026-04-07T14:10:38Z</time></trkpt><trkpt lat="45.82571342786296" lon="8.417284053333852"><ele>426.0</ele><time>2026-04-07T14:10:40Z</time></trkpt><trkpt lat="45.825705236584405" lon="8.41719203723148"><ele>426.0</ele><time>2026-04-07T14:10:41Z</time></trkpt><trkpt lat="45.825716242657506" lon="8.417052198416757"><ele>429.0</ele><time>2026-04-07T14:10:43Z</time></trkpt><trkpt lat="45.82581539238242" lon="8.416942972694251"><ele>432.0</ele><time>2026-04-07T14:10:45Z</time></trkpt><trkpt lat="45.82587806148635" lon="8.416904610277218"><ele>435.0</ele><time>2026-04-07T14:10:46Z</time></trkpt><trkpt lat="45.825985364475194" lon="8.416817251662948"><ele>438.0</ele><time>2026-04-07T14:10:48Z</time></trkpt><trkpt lat="45.826053394339915" lon="8.416674815442736"><ele>441.0</ele><time>2026-04-07T14:10:50Z</time></trkpt><trkpt lat="45.826114350284605" lon="8.416526676646464"><ele>442.8333333333333</ele><time>2026-04-07T14:10:52Z</time></trkpt><trkpt lat="45.826170347202705" lon="8.416446977267745"><ele>444.66666666666663</ele><time>2026-04-07T14:10:54Z</time></trkpt><trkpt lat="45.82627343053285" lon="8.416443647886489"><ele>446.5</ele><time>2026-04-07T14:10:56Z</time></trkpt><trkpt lat="45.82633641608651" lon="8.416456825811533"><ele>448.3333333333333</ele><time>2026-04-07T14:10:57Z</time></trkpt><trkpt lat="45.82640381497328" lon="8.416469558969522"><ele>450.16666666666663</ele><time>2026-04-07T14:10:58Z</time></trkpt><trkpt lat="45.82647760066603" lon="8.4164753519679"><ele>452.0</ele><time>2026-04-07T14:10:59Z</time></trkpt><trkpt lat="45.82656194767622" lon="8.416458705561995"><ele>452.0</ele><time>2026-04-07T14:11:00Z</time></trkpt><trkpt lat="45.82666136689273" lon="8.416429987529273"><ele>452.00000000000006</ele><time>2026-04-07T14:11:01Z</time></trkpt><trkpt lat="45.82675228698825" lon="8.416399365776076"><ele>452.00000000000006</ele><time>2026-04-07T14:11:02Z</time></trkpt><trkpt lat="45.826850798785486" lon="8.416368018279007"><ele>452.0</ele><time>2026-04-07T14:11:03Z</time></trkpt><trkpt lat="45.826945888354" lon="8.41634137385729"><ele>452.0</ele><time>2026-04-07T14:11:04Z</time></trkpt><trkpt lat="45.8270447103656" lon="8.416324786447925"><ele>454.40000000000003</ele><time>2026-04-07T14:11:05Z</time></trkpt><trkpt lat="45.82714005741607" lon="8.416311235640418"><ele>456.80000000000007</ele><time>2026-04-07T14:11:06Z</time></trkpt><trkpt lat="45.82723281450542" lon="8.416290470443995"><ele>459.2</ele><time>2026-04-07T14:11:07Z</time></trkpt><trkpt lat="45.82730590326049" lon="8.4162874640152"><ele>461.6</ele><time>2026-04-07T14:11:08Z</time></trkpt><trkpt lat="45.82742427588164" lon="8.416340428008995"><ele>464.0</ele><time>2026-04-07T14:11:10Z</time></trkpt><trkpt lat="45.827491198915524" lon="8.416371655646524"><ele>463.99999999999994</ele><time>2026-04-07T14:11:11Z</time></trkpt><trkpt lat="45.82755831226511" lon="8.416395526173732"><ele>464.0</ele><time>2026-04-07T14:11:12Z</time></trkpt><trkpt lat="45.827629392117466" lon="8.41641859401802"><ele>464.0</ele><time>2026-04-07T14:11:13Z</time></trkpt><trkpt lat="45.82770305187881" lon="8.416427993435398"><ele>464.0</ele><time>2026-04-07T14:11:14Z</time></trkpt><trkpt lat="45.827816964237435" lon="8.416440727410988"><ele>463.99999999999994</ele><time>2026-04-07T14:11:16Z</time></trkpt><trkpt lat="45.827880903492805" lon="8.416444395982387"><ele>464.0</ele><time>2026-04-07T14:11:17Z</time></trkpt><trkpt lat="45.82794433827288" lon="8.416453316954888"><ele>466.2</ele><time>2026-04-07T14:11:18Z</time></trkpt><trkpt lat="45.828006933427325" lon="8.416464281815765"><ele>468.4</ele><time>2026-04-07T14:11:19Z</time></trkpt><trkpt lat="45.82811106742436" lon="8.416475305196991"><ele>470.6</ele><time>2026-04-07T14:11:21Z</time></trkpt><trkpt lat="45.828194515810715" lon="8.416526893979235"><ele>472.8</ele><time>2026-04-07T14:11:23Z</time></trkpt><trkpt lat="45.82831616837728" lon="8.4165877960744"><ele>475.0</ele><time>2026-04-07T14:11:25Z</time></trkpt><trkpt lat="45.82838869150361" lon="8.416621068879913"><ele>475.0</ele><time>2026-04-07T14:11:26Z</time></trkpt><trkpt lat="45.82845977673327" lon="8.416652543056818"><ele>475.0</ele><time>2026-04-07T14:11:27Z</time></trkpt><trkpt lat="45.828573913799936" lon="8.416719114329453"><ele>475.0</ele><time>2026-04-07T14:11:29Z</time></trkpt><trkpt lat="45.828678658123266" lon="8.41674845585472"><ele>475.0</ele><time>2026-04-07T14:11:31Z</time></trkpt><trkpt lat="45.82879872375511" lon="8.4167300383245"><ele>475.0</ele><time>2026-04-07T14:11:33Z</time></trkpt><trkpt lat="45.82890830704648" lon="8.416700243785701"><ele>476.8</ele><time>2026-04-07T14:11:35Z</time></trkpt><trkpt lat="45.82899488818915" lon="8.4166992644504"><ele>478.6</ele><time>2026-04-07T14:11:37Z</time></trkpt><trkpt lat="45.82911128157247" lon="8.41663041982141"><ele>480.4</ele><time>2026-04-07T14:11:39Z</time></trkpt><trkpt lat="45.829217326659275" lon="8.416546277752923"><ele>482.2</ele><time>2026-04-07T14:11:41.001Z</time></trkpt><trkpt lat="45.82927790267002" lon="8.416520731325518"><ele>484.0</ele><time>2026-04-07T14:11:42.001Z</time></trkpt><trkpt lat="45.829348319628444" lon="8.416506788309464"><ele>484.83333333333337</ele><time>2026-04-07T14:11:43.001Z</time></trkpt><trkpt lat="45.829420773456874" lon="8.41650156256891"><ele>485.6666666666667</ele><time>2026-04-07T14:11:44.001Z</time></trkpt><trkpt lat="45.82951973125748" lon="8.41647165171779"><ele>486.5</ele><time>2026-04-07T14:11:46.001Z</time></trkpt><trkpt lat="45.829638150671336" lon="8.41643376089915"><ele>487.33333333333337</ele><time>2026-04-07T14:11:48.001Z</time></trkpt><trkpt lat="45.82970150157092" lon="8.416431855657741"><ele>488.1666666666667</ele><time>2026-04-07T14:11:49.001Z</time></trkpt><trkpt lat="45.82976611341324" lon="8.416421305039876"><ele>489.0</ele><time>2026-04-07T14:11:50.001Z</time></trkpt><trkpt lat="45.82986797256255" lon="8.416411760401171"><ele>489.0</ele><time>2026-04-07T14:11:52.001Z</time></trkpt><trkpt lat="45.82996670056671" lon="8.416398622005396"><ele>489.0</ele><time>2026-04-07T14:11:54.001Z</time></trkpt><trkpt lat="45.83008108326841" lon="8.416430734084168"><ele>489.0</ele><time>2026-04-07T14:11:56.001Z</time></trkpt><trkpt lat="45.830147977983735" lon="8.41644270807235"><ele>489.0</ele><time>2026-04-07T14:11:57.001Z</time></trkpt><trkpt lat="45.83022312449237" lon="8.416434041198528"><ele>489.0</ele><time>2026-04-07T14:11:58.001Z</time></trkpt><trkpt lat="45.83029690000049" lon="8.416426675882386"><ele>489.0</ele><time>2026-04-07T14:11:59.001Z</time></trkpt><trkpt lat="45.83036051455932" lon="8.416418004497533"><ele>489.6666666666667</ele><time>2026-04-07T14:12:00.001Z</time></trkpt><trkpt lat="45.830424412137575" lon="8.416396139968104"><ele>490.33333333333337</ele><time>2026-04-07T14:12:01.001Z</time></trkpt><trkpt lat="45.830499771795886" lon="8.416360483319362"><ele>491.0</ele><time>2026-04-07T14:12:02.001Z</time></trkpt><trkpt lat="45.830569996313756" lon="8.416319661930375"><ele>491.6666666666667</ele><time>2026-04-07T14:12:03.001Z</time></trkpt><trkpt lat="45.83061985476525" lon="8.416260538928292"><ele>492.33333333333337</ele><time>2026-04-07T14:12:05.001Z</time></trkpt><trkpt lat="45.83057488274466" lon="8.416162986989253"><ele>493.0</ele><time>2026-04-07T14:12:07.001Z</time></trkpt><trkpt lat="45.830490978006864" lon="8.416165244869024"><ele>497.59999999999997</ele><time>2026-04-07T14:12:08.001Z</time></trkpt><trkpt lat="45.830398329304444" lon="8.416198344447333"><ele>502.19999999999993</ele><time>2026-04-07T14:12:09.001Z</time></trkpt><trkpt lat="45.83027031816665" lon="8.416207346882214"><ele>506.8</ele><time>2026-04-07T14:12:11Z</time></trkpt><trkpt lat="45.8302045380464" lon="8.416207573698076"><ele>511.4</ele><time>2026-04-07T14:12:12Z</time></trkpt><trkpt lat="45.8301398027142" lon="8.41620930688045"><ele>516.0</ele><time>2026-04-07T14:12:13Z</time></trkpt><trkpt lat="45.830041257288386" lon="8.416156602425128"><ele>516.0</ele><time>2026-04-07T14:12:15Z</time></trkpt><trkpt lat="45.82995114157889" lon="8.41614447956111"><ele>516.0</ele><time>2026-04-07T14:12:18Z</time></trkpt><trkpt lat="45.82990797712141" lon="8.41604554274813"><ele>516.0</ele><time>2026-04-07T14:12:21Z</time></trkpt><trkpt lat="45.82997763256193" lon="8.41602330608676"><ele>516.0</ele><time>2026-04-07T14:12:23Z</time></trkpt><trkpt lat="45.82991372405316" lon="8.416030124783237"><ele>516.0</ele><time>2026-04-07T14:18:39Z</time></trkpt><trkpt lat="45.8299179113124" lon="8.416135375615331"><ele>516.0</ele><time>2026-04-07T14:19:21Z</time></trkpt><trkpt lat="45.82998763432505" lon="8.416160587203306"><ele>516.0</ele><time>2026-04-07T14:19:27Z</time></trkpt><trkpt lat="45.83006034488429" lon="8.416186169467748"><ele>516.0</ele><time>2026-04-07T14:19:30Z</time></trkpt><trkpt lat="45.83013217348415" lon="8.416206202469516"><ele>516.0</ele><time>2026-04-07T14:19:32.001Z</time></trkpt><trkpt lat="45.83023006543792" lon="8.416198478841904"><ele>516.0</ele><time>2026-04-07T14:19:34.001Z</time></trkpt><trkpt lat="45.830310188224786" lon="8.416187544293466"><ele>516.0</ele><time>2026-04-07T14:19:36.001Z</time></trkpt><trkpt lat="45.830396030753874" lon="8.416183466337475"><ele>516.0</ele><time>2026-04-07T14:19:38.001Z</time></trkpt><trkpt lat="45.83046842709226" lon="8.416199514308433"><ele>517.0</ele><time>2026-04-07T14:19:40.001Z</time></trkpt><trkpt lat="45.83054238383162" lon="8.416253164656965"><ele>518.0</ele><time>2026-04-07T14:19:43.001Z</time></trkpt><trkpt lat="45.83048395205017" lon="8.416345763265431"><ele>519.0</ele><time>2026-04-07T14:19:46.001Z</time></trkpt><trkpt lat="45.830392967359195" lon="8.416388285107326"><ele>520.0</ele><time>2026-04-07T14:19:48.001Z</time></trkpt><trkpt lat="45.83031449944301" lon="8.416370478635232"><ele>521.0</ele><time>2026-04-07T14:19:50.001Z</time></trkpt><trkpt lat="45.83024379792978" lon="8.416408886447805"><ele>522.0</ele><time>2026-04-07T14:19:52.001Z</time></trkpt><trkpt lat="45.83011827038786" lon="8.416437147884857"><ele>516.5</ele><time>2026-04-07T14:19:54.001Z</time></trkpt><trkpt lat="45.83001866460662" lon="8.4164146493695"><ele>511.0</ele><time>2026-04-07T14:19:56.001Z</time></trkpt><trkpt lat="45.829942628664746" lon="8.416402435389294"><ele>505.5</ele><time>2026-04-07T14:19:58.001Z</time></trkpt><trkpt lat="45.829844602259506" lon="8.41643985873689"><ele>500.0</ele><time>2026-04-07T14:20:00.001Z</time></trkpt><trkpt lat="45.829769204798836" lon="8.416440310180251"><ele>494.5</ele><time>2026-04-07T14:20:01.001Z</time></trkpt><trkpt lat="45.82970030646239" lon="8.416442929574247"><ele>489.0</ele><time>2026-04-07T14:20:02.001Z</time></trkpt><trkpt lat="45.82959914470534" lon="8.416464215198443"><ele>489.0</ele><time>2026-04-07T14:20:04.001Z</time></trkpt><trkpt lat="45.82952375816985" lon="8.41649066560945"><ele>489.0</ele><time>2026-04-07T14:20:09.001Z</time></trkpt><trkpt lat="45.8294539328556" lon="8.416520061678455"><ele>489.0</ele><time>2026-04-07T14:20:46Z</time></trkpt><trkpt lat="45.829363279795935" lon="8.416529869454891"><ele>489.0</ele><time>2026-04-07T14:20:48Z</time></trkpt><trkpt lat="45.829277990143595" lon="8.416546585218288"><ele>489.0</ele><time>2026-04-07T14:20:50Z</time></trkpt><trkpt lat="45.82919508202022" lon="8.416587139517299"><ele>489.0</ele><time>2026-04-07T14:20:52Z</time></trkpt><trkpt lat="45.82912134152525" lon="8.416638422438496"><ele>488.0</ele><time>2026-04-07T14:20:54Z</time></trkpt><trkpt lat="45.82905652678118" lon="8.416698540158768"><ele>487.0</ele><time>2026-04-07T14:20:56Z</time></trkpt><trkpt lat="45.828952969179724" lon="8.416721883994121"><ele>486.0</ele><time>2026-04-07T14:20:58Z</time></trkpt><trkpt lat="45.82886018991843" lon="8.416706054430342"><ele>485.0</ele><time>2026-04-07T14:21:00Z</time></trkpt><trkpt lat="45.82877730970388" lon="8.41674373817041"><ele>484.0</ele><time>2026-04-07T14:21:02Z</time></trkpt><trkpt lat="45.82868026253915" lon="8.416709359598045"><ele>484.00000000000006</ele><time>2026-04-07T14:21:04Z</time></trkpt><trkpt lat="45.8286156731096" lon="8.416683386651451"><ele>484.0</ele><time>2026-04-07T14:21:05Z</time></trkpt><trkpt lat="45.828548730871326" lon="8.416663529645078"><ele>484.0</ele><time>2026-04-07T14:21:06Z</time></trkpt><trkpt lat="45.82845785520728" lon="8.416626315660167"><ele>484.0</ele><time>2026-04-07T14:21:08Z</time></trkpt><trkpt lat="45.8283302071392" lon="8.416568584911621"><ele>484.00000000000006</ele><time>2026-04-07T14:21:10Z</time></trkpt><trkpt lat="45.8282691540315" lon="8.416544574777431"><ele>484.0</ele><time>2026-04-07T14:21:11Z</time></trkpt><trkpt lat="45.82816826584226" lon="8.41649221640814"><ele>482.50000000000006</ele><time>2026-04-07T14:21:13Z</time></trkpt><trkpt lat="45.828081583957406" lon="8.416448915725072"><ele>481.0</ele><time>2026-04-07T14:21:15Z</time></trkpt><trkpt lat="45.82798097460942" lon="8.416446682993744"><ele>479.5</ele><time>2026-04-07T14:21:17Z</time></trkpt><trkpt lat="45.82786271047976" lon="8.416432848558209"><ele>478.0</ele><time>2026-04-07T14:21:19Z</time></trkpt><trkpt lat="45.82779924112951" lon="8.416424794776425"><ele>476.50000000000006</ele><time>2026-04-07T14:21:20Z</time></trkpt><trkpt lat="45.82773396885238" lon="8.416416629471662"><ele>475.0</ele><time>2026-04-07T14:21:21Z</time></trkpt><trkpt lat="45.82767343442368" lon="8.416381158415646"><ele>476.2</ele><time>2026-04-07T14:21:22Z</time></trkpt><trkpt lat="45.82760688705115" lon="8.416365043875745"><ele>477.4</ele><time>2026-04-07T14:21:23Z</time></trkpt><trkpt lat="45.827542800212676" lon="8.41634605720287"><ele>478.6</ele><time>2026-04-07T14:21:24Z</time></trkpt><trkpt lat="45.82743489605513" lon="8.416299389191849"><ele>479.8</ele><time>2026-04-07T14:21:26Z</time></trkpt><trkpt lat="45.82734019174037" lon="8.416249695607403"><ele>481.0</ele><time>2026-04-07T14:21:28Z</time></trkpt><trkpt lat="45.82723190828125" lon="8.416242844748533"><ele>481.00000000000006</ele><time>2026-04-07T14:21:30Z</time></trkpt><trkpt lat="45.8271189637043" lon="8.416261704003354"><ele>481.0</ele><time>2026-04-07T14:21:32Z</time></trkpt><trkpt lat="45.82699758893449" lon="8.416275606573306"><ele>481.0</ele><time>2026-04-07T14:21:34Z</time></trkpt><trkpt lat="45.82693023060013" lon="8.416289580177914"><ele>481.0</ele><time>2026-04-07T14:21:35Z</time></trkpt><trkpt lat="45.82686794791349" lon="8.4163092891973"><ele>481.00000000000006</ele><time>2026-04-07T14:21:36Z</time></trkpt><trkpt lat="45.82680328283312" lon="8.416330010017418"><ele>481.0</ele><time>2026-04-07T14:21:37Z</time></trkpt><trkpt lat="45.82673815354812" lon="8.416350653616082"><ele>476.8571428571428</ele><time>2026-04-07T14:21:38Z</time></trkpt><trkpt lat="45.826669911997286" lon="8.416370952468602"><ele>472.71428571428567</ele><time>2026-04-07T14:21:39Z</time></trkpt><trkpt lat="45.82660072486634" lon="8.416391532585095"><ele>468.57142857142856</ele><time>2026-04-07T14:21:40Z</time></trkpt><trkpt lat="45.826530839887496" lon="8.416411173372643"><ele>464.4285714285714</ele><time>2026-04-07T14:21:41Z</time></trkpt><trkpt lat="45.82646260206652" lon="8.416424326310853"><ele>460.2857142857142</ele><time>2026-04-07T14:21:42.001Z</time></trkpt><trkpt lat="45.82639696476024" lon="8.416420348198537"><ele>456.14285714285717</ele><time>2026-04-07T14:21:43.001Z</time></trkpt><trkpt lat="45.826330876968015" lon="8.416404015814138"><ele>452.0</ele><time>2026-04-07T14:21:44.001Z</time></trkpt><trkpt lat="45.826264851366176" lon="8.416390867429158"><ele>451.99999999999994</ele><time>2026-04-07T14:21:45.001Z</time></trkpt><trkpt lat="45.82617355384772" lon="8.416384792882148"><ele>452.0</ele><time>2026-04-07T14:21:47.001Z</time></trkpt><trkpt lat="45.826112665226695" lon="8.416417334355705"><ele>452.0</ele><time>2026-04-07T14:21:49.001Z</time></trkpt><trkpt lat="45.826059772027335" lon="8.416521764764605"><ele>452.0</ele><time>2026-04-07T14:21:51.001Z</time></trkpt><trkpt lat="45.82601794643379" lon="8.41664484561748"><ele>451.99999999999994</ele><time>2026-04-07T14:21:53.001Z</time></trkpt><trkpt lat="45.825967585735114" lon="8.416749688060742"><ele>452.0</ele><time>2026-04-07T14:21:55.001Z</time></trkpt><trkpt lat="45.8259054843896" lon="8.416817437576947"><ele>450.16666666666663</ele><time>2026-04-07T14:21:57.001Z</time></trkpt><trkpt lat="45.825826505140554" lon="8.416871373800008"><ele>448.3333333333333</ele><time>2026-04-07T14:21:59.001Z</time></trkpt><trkpt lat="45.825755701822416" lon="8.41693185287182"><ele>446.5</ele><time>2026-04-07T14:22:01.001Z</time></trkpt><trkpt lat="45.82568758235501" lon="8.416998070081702"><ele>444.66666666666663</ele><time>2026-04-07T14:22:04.001Z</time></trkpt><trkpt lat="45.825584859188" lon="8.416985051153997"><ele>442.8333333333333</ele><time>2026-04-07T14:22:07.001Z</time></trkpt><trkpt lat="45.82550675957576" lon="8.416971412475968"><ele>441.0</ele><time>2026-04-07T14:22:09.001Z</time></trkpt><trkpt lat="45.82542514410811" lon="8.416941284248656"><ele>441.0</ele><time>2026-04-07T14:22:11.001Z</time></trkpt><trkpt lat="45.82536225374738" lon="8.416918832232149"><ele>441.0</ele><time>2026-04-07T14:22:12.001Z</time></trkpt><trkpt lat="45.82525445208641" lon="8.41689307380982"><ele>441.0</ele><time>2026-04-07T14:22:14.001Z</time></trkpt><trkpt lat="45.825134088415865" lon="8.416883496406037"><ele>441.0</ele><time>2026-04-07T14:22:16.001Z</time></trkpt><trkpt lat="45.82506940714051" lon="8.416879839301293"><ele>441.0</ele><time>2026-04-07T14:22:17.001Z</time></trkpt><trkpt lat="45.82494842754362" lon="8.416854759656571"><ele>441.14285714285717</ele><time>2026-04-07T14:22:19.001Z</time></trkpt><trkpt lat="45.824886687643925" lon="8.416831824895194"><ele>441.2857142857143</ele><time>2026-04-07T14:22:20.001Z</time></trkpt><trkpt lat="45.82482405228176" lon="8.416808671460426"><ele>441.42857142857144</ele><time>2026-04-07T14:22:21.001Z</time></trkpt><trkpt lat="45.824772394840295" lon="8.416750821087643"><ele>441.57142857142856</ele><time>2026-04-07T14:22:22.001Z</time></trkpt><trkpt lat="45.824727260360035" lon="8.416675331435933"><ele>441.7142857142857</ele><time>2026-04-07T14:22:23.001Z</time></trkpt><trkpt lat="45.824691447943174" lon="8.416582312660978"><ele>441.8571428571429</ele><time>2026-04-07T14:22:24.001Z</time></trkpt><trkpt lat="45.824671031848084" lon="8.416480721717681"><ele>442.0</ele><time>2026-04-07T14:22:25.001Z</time></trkpt><trkpt lat="45.824634353254325" lon="8.416387682352195"><ele>444.50000000000006</ele><time>2026-04-07T14:22:26.001Z</time></trkpt><trkpt lat="45.82462213086206" lon="8.416275217693663"><ele>447.0</ele><time>2026-04-07T14:22:27.001Z</time></trkpt><trkpt lat="45.8246067290174" lon="8.41617842211298"><ele>449.5</ele><time>2026-04-07T14:22:28.001Z</time></trkpt><trkpt lat="45.82457090524324" lon="8.416104012435602"><ele>452.0</ele><time>2026-04-07T14:22:29.001Z</time></trkpt><trkpt lat="45.82452910937245" lon="8.416023713335846"><ele>454.50000000000006</ele><time>2026-04-07T14:22:30.001Z</time></trkpt><trkpt lat="45.82443361767791" lon="8.415998909120347"><ele>457.0</ele><time>2026-04-07T14:22:31.001Z</time></trkpt><trkpt lat="45.824345327612356" lon="8.415967570576418"><ele>455.1666666666667</ele><time>2026-04-07T14:22:32.001Z</time></trkpt><trkpt lat="45.824262933929184" lon="8.415934350849707"><ele>453.33333333333337</ele><time>2026-04-07T14:22:33.001Z</time></trkpt><trkpt lat="45.824182016026526" lon="8.41590172611088"><ele>451.5</ele><time>2026-04-07T14:22:34.001Z</time></trkpt><trkpt lat="45.82410163035868" lon="8.415867162736546"><ele>449.66666666666663</ele><time>2026-04-07T14:22:35.001Z</time></trkpt><trkpt lat="45.82402583280037" lon="8.41583215358456"><ele>447.8333333333333</ele><time>2026-04-07T14:22:36.001Z</time></trkpt><trkpt lat="45.82395314583673" lon="8.415804788981768"><ele>446.0</ele><time>2026-04-07T14:22:37.001Z</time></trkpt><trkpt lat="45.823888047710746" lon="8.415783071751893"><ele>446.0</ele><time>2026-04-07T14:22:38.001Z</time></trkpt><trkpt lat="45.82382196661202" lon="8.415792962206506"><ele>446.0</ele><time>2026-04-07T14:22:39.001Z</time></trkpt><trkpt lat="45.82374336657513" lon="8.41577404050569"><ele>446.0</ele><time>2026-04-07T14:22:41Z</time></trkpt><trkpt lat="45.82367097163109" lon="8.415577327150764"><ele>446.0</ele><time>2026-04-07T14:22:43Z</time></trkpt><trkpt lat="45.82363518873635" lon="8.415424348698442"><ele>446.0</ele><time>2026-04-07T14:22:45Z</time></trkpt><trkpt lat="45.82362396186265" lon="8.415324850164438"><ele>446.66666666666663</ele><time>2026-04-07T14:22:47Z</time></trkpt><trkpt lat="45.82371584758615" lon="8.415252428522685"><ele>447.3333333333333</ele><time>2026-04-07T14:22:49Z</time></trkpt><trkpt lat="45.823816621658274" lon="8.415186955958823"><ele>448.0</ele><time>2026-04-07T14:22:51Z</time></trkpt><trkpt lat="45.823872445351086" lon="8.415135148409476"><ele>448.66666666666663</ele><time>2026-04-07T14:22:52Z</time></trkpt><trkpt lat="45.82392941324087" lon="8.415074673710906"><ele>449.3333333333333</ele><time>2026-04-07T14:22:53Z</time></trkpt><trkpt lat="45.82398352276036" lon="8.415010642596632"><ele>450.0</ele><time>2026-04-07T14:22:54Z</time></trkpt><trkpt lat="45.82403617693385" lon="8.414942251670647"><ele>450.00000000000006</ele><time>2026-04-07T14:22:55Z</time></trkpt><trkpt lat="45.824092189519554" lon="8.414888408154617"><ele>450.0</ele><time>2026-04-07T14:22:56Z</time></trkpt><trkpt lat="45.824153434132825" lon="8.414853499482561"><ele>450.00000000000006</ele><time>2026-04-07T14:22:57Z</time></trkpt><trkpt lat="45.8242181987565" lon="8.414831969173315"><ele>450.00000000000006</ele><time>2026-04-07T14:22:58Z</time></trkpt><trkpt lat="45.82428298503336" lon="8.414807466961483"><ele>450.0</ele><time>2026-04-07T14:22:59Z</time></trkpt><trkpt lat="45.824348906680015" lon="8.414780547841476"><ele>450.00000000000006</ele><time>2026-04-07T14:23:00Z</time></trkpt><trkpt lat="45.824420312065655" lon="8.414743076061225"><ele>450.00000000000006</ele><time>2026-04-07T14:23:01Z</time></trkpt><trkpt lat="45.824494525827085" lon="8.414699928322396"><ele>452.6666666666667</ele><time>2026-04-07T14:23:02Z</time></trkpt><trkpt lat="45.8245712692247" lon="8.41464928269712"><ele>455.33333333333337</ele><time>2026-04-07T14:23:03Z</time></trkpt><trkpt lat="45.82464390137949" lon="8.41459595236691"><ele>458.0</ele><time>2026-04-07T14:23:04Z</time></trkpt><trkpt lat="45.82471427615788" lon="8.414560453509921"><ele>460.6666666666667</ele><time>2026-04-07T14:23:05Z</time></trkpt><trkpt lat="45.82479500468997" lon="8.414543825634558"><ele>463.33333333333337</ele><time>2026-04-07T14:23:06Z</time></trkpt><trkpt lat="45.824873705746775" lon="8.414535426557016"><ele>466.0</ele><time>2026-04-07T14:23:07Z</time></trkpt><trkpt lat="45.82495210148506" lon="8.414538407291694"><ele>466.00000000000006</ele><time>2026-04-07T14:23:08Z</time></trkpt><trkpt lat="45.825032443244446" lon="8.414542484426974"><ele>466.0</ele><time>2026-04-07T14:23:09Z</time></trkpt><trkpt lat="45.82511408720055" lon="8.414555469722707"><ele>466.0</ele><time>2026-04-07T14:23:10Z</time></trkpt><trkpt lat="45.82519172404138" lon="8.414569173034756"><ele>466.0</ele><time>2026-04-07T14:23:11Z</time></trkpt><trkpt lat="45.82526274584636" lon="8.414579878101407"><ele>466.00000000000006</ele><time>2026-04-07T14:23:12Z</time></trkpt><trkpt lat="45.82533300745864" lon="8.414597738074997"><ele>466.0</ele><time>2026-04-07T14:23:13Z</time></trkpt><trkpt lat="45.82539812667307" lon="8.414631133978173"><ele>467.00000000000006</ele><time>2026-04-07T14:23:14Z</time></trkpt><trkpt lat="45.825475802097586" lon="8.414660230114281"><ele>468.0</ele><time>2026-04-07T14:23:15Z</time></trkpt><trkpt lat="45.82555480404501" lon="8.414695084212253"><ele>469.0</ele><time>2026-04-07T14:23:16Z</time></trkpt><trkpt lat="45.8256274768129" lon="8.414730520113139"><ele>470.0</ele><time>2026-04-07T14:23:17Z</time></trkpt><trkpt lat="45.825696258504024" lon="8.414767749597127"><ele>471.00000000000006</ele><time>2026-04-07T14:23:18Z</time></trkpt><trkpt lat="45.82576337344502" lon="8.414798021243428"><ele>472.0</ele><time>2026-04-07T14:23:19Z</time></trkpt><trkpt lat="45.825838713646114" lon="8.414796938001766"><ele>472.0</ele><time>2026-04-07T14:23:20Z</time></trkpt><trkpt lat="45.82590306183899" lon="8.414761856294716"><ele>472.00000000000006</ele><time>2026-04-07T14:23:21Z</time></trkpt><trkpt lat="45.825963088247036" lon="8.414715212053649"><ele>472.00000000000006</ele><time>2026-04-07T14:23:22Z</time></trkpt><trkpt lat="45.826060877527105" lon="8.414715756190414"><ele>472.0</ele><time>2026-04-07T14:23:24Z</time></trkpt><trkpt lat="45.8261302371069" lon="8.414819289487529"><ele>472.0</ele><time>2026-04-07T14:23:26Z</time></trkpt><trkpt lat="45.826252630719125" lon="8.414892779755435"><ele>474.1666666666667</ele><time>2026-04-07T14:23:28Z</time></trkpt><trkpt lat="45.82633051647961" lon="8.414889810985105"><ele>476.33333333333337</ele><time>2026-04-07T14:23:29Z</time></trkpt><trkpt lat="45.82640690072477" lon="8.414857691907265"><ele>478.5</ele><time>2026-04-07T14:23:30Z</time></trkpt><trkpt lat="45.82648661673038" lon="8.414808770377237"><ele>480.66666666666663</ele><time>2026-04-07T14:23:31Z</time></trkpt><trkpt lat="45.82655969772798" lon="8.41477229217076"><ele>482.8333333333333</ele><time>2026-04-07T14:23:32Z</time></trkpt><trkpt lat="45.82662688381425" lon="8.414749883505582"><ele>485.0</ele><time>2026-04-07T14:23:33Z</time></trkpt><trkpt lat="45.82669422482044" lon="8.414733914396933"><ele>486.16666666666663</ele><time>2026-04-07T14:23:34Z</time></trkpt><trkpt lat="45.826812249235104" lon="8.414705277916946"><ele>487.3333333333333</ele><time>2026-04-07T14:23:36Z</time></trkpt><trkpt lat="45.82687126285173" lon="8.41465813629274"><ele>488.5</ele><time>2026-04-07T14:23:37Z</time></trkpt><trkpt lat="45.82692916390339" lon="8.414575856702795"><ele>489.66666666666663</ele><time>2026-04-07T14:23:38Z</time></trkpt><trkpt lat="45.82697375070728" lon="8.414497283447007"><ele>490.8333333333333</ele><time>2026-04-07T14:23:39Z</time></trkpt><trkpt lat="45.827043963488435" lon="8.414434666320146"><ele>492.0</ele><time>2026-04-07T14:23:40Z</time></trkpt><trkpt lat="45.82708231750028" lon="8.414317048891512"><ele>493.8571428571429</ele><time>2026-04-07T14:23:41Z</time></trkpt><trkpt lat="45.82713368286794" lon="8.414230133916758"><ele>495.7142857142857</ele><time>2026-04-07T14:23:42Z</time></trkpt><trkpt lat="45.82718310272848" lon="8.414149431458608"><ele>497.57142857142856</ele><time>2026-04-07T14:23:43Z</time></trkpt><trkpt lat="45.82723063907411" lon="8.414071283741029"><ele>499.42857142857144</ele><time>2026-04-07T14:23:44Z</time></trkpt><trkpt lat="45.827276706564874" lon="8.413993722573966"><ele>501.2857142857142</ele><time>2026-04-07T14:23:45Z</time></trkpt><trkpt lat="45.82732167183785" lon="8.413916150919441"><ele>503.1428571428571</ele><time>2026-04-07T14:23:46Z</time></trkpt><trkpt lat="45.82736673390203" lon="8.413838887385698"><ele>505.0</ele><time>2026-04-07T14:23:47Z</time></trkpt><trkpt lat="45.82740561790489" lon="8.413765096864076"><ele>507.50000000000006</ele><time>2026-04-07T14:23:48Z</time></trkpt><trkpt lat="45.82747729033826" lon="8.41366223666979"><ele>510.0</ele><time>2026-04-07T14:23:50Z</time></trkpt><trkpt lat="45.827581516259926" lon="8.413656186708213"><ele>512.5</ele><time>2026-04-07T14:23:52Z</time></trkpt><trkpt lat="45.82765344760573" lon="8.413684157258627"><ele>515.0</ele><time>2026-04-07T14:23:53Z</time></trkpt><trkpt lat="45.827730845179616" lon="8.41370312727321"><ele>517.5</ele><time>2026-04-07T14:23:54Z</time></trkpt><trkpt lat="45.82781177289608" lon="8.413718767215556"><ele>520.0</ele><time>2026-04-07T14:23:55Z</time></trkpt><trkpt lat="45.82788609104162" lon="8.413731902683663"><ele>519.5714285714287</ele><time>2026-04-07T14:23:56Z</time></trkpt><trkpt lat="45.82796140448925" lon="8.413750020537778"><ele>519.1428571428571</ele><time>2026-04-07T14:23:57Z</time></trkpt><trkpt lat="45.82803289891077" lon="8.413768312567203"><ele>518.7142857142858</ele><time>2026-04-07T14:23:58Z</time></trkpt><trkpt lat="45.82810278473363" lon="8.41378770322262"><ele>518.2857142857143</ele><time>2026-04-07T14:23:59.001Z</time></trkpt><trkpt lat="45.828171377698915" lon="8.41380620453527"><ele>517.8571428571429</ele><time>2026-04-07T14:24:00.001Z</time></trkpt><trkpt lat="45.82823948759848" lon="8.413825666969464"><ele>517.4285714285714</ele><time>2026-04-07T14:24:01.001Z</time></trkpt><trkpt lat="45.82830641102189" lon="8.413844672831257"><ele>517.0</ele><time>2026-04-07T14:24:02.001Z</time></trkpt><trkpt lat="45.82837448350445" lon="8.413861376616637"><ele>517.0</ele><time>2026-04-07T14:24:03.001Z</time></trkpt><trkpt lat="45.82844033366288" lon="8.413877800664086"><ele>517.0</ele><time>2026-04-07T14:24:04.001Z</time></trkpt><trkpt lat="45.82850707254029" lon="8.413894630096685"><ele>517.0</ele><time>2026-04-07T14:24:05.001Z</time></trkpt><trkpt lat="45.82857052179734" lon="8.413907372458176"><ele>517.0</ele><time>2026-04-07T14:24:06.001Z</time></trkpt><trkpt lat="45.82869409836034" lon="8.413900842686678"><ele>517.0</ele><time>2026-04-07T14:24:08.001Z</time></trkpt><trkpt lat="45.82876242110517" lon="8.413899052594683"><ele>517.0</ele><time>2026-04-07T14:24:09.001Z</time></trkpt><trkpt lat="45.82883399478352" lon="8.41392321719254"><ele>519.3333333333334</ele><time>2026-04-07T14:24:10.001Z</time></trkpt><trkpt lat="45.8288988802834" lon="8.41394277825584"><ele>521.6666666666667</ele><time>2026-04-07T14:24:11.001Z</time></trkpt><trkpt lat="45.828961658373" lon="8.413965080619635"><ele>524.0</ele><time>2026-04-07T14:24:12.001Z</time></trkpt><trkpt lat="45.829088280675265" lon="8.41401223461407"><ele>526.3333333333334</ele><time>2026-04-07T14:24:14.001Z</time></trkpt><trkpt lat="45.829204117976865" lon="8.414035791087613"><ele>528.6666666666666</ele><time>2026-04-07T14:24:16.001Z</time></trkpt><trkpt lat="45.82926878765854" lon="8.414033541915217"><ele>531.0</ele><time>2026-04-07T14:24:17.001Z</time></trkpt><trkpt lat="45.82935082036216" lon="8.414022399617599"><ele>534.0</ele><time>2026-04-07T14:24:18.001Z</time></trkpt><trkpt lat="45.829426540334374" lon="8.414022146344434"><ele>537.0</ele><time>2026-04-07T14:24:19.001Z</time></trkpt><trkpt lat="45.82949768958295" lon="8.414024256325984"><ele>540.0</ele><time>2026-04-07T14:24:20.001Z</time></trkpt><trkpt lat="45.82956600429994" lon="8.414021347866354"><ele>543.0</ele><time>2026-04-07T14:24:21.001Z</time></trkpt><trkpt lat="45.82967615045074" lon="8.414101588884966"><ele>546.0</ele><time>2026-04-07T14:24:23.001Z</time></trkpt><trkpt lat="45.82972747755517" lon="8.414157808866312"><ele>549.0</ele><time>2026-04-07T14:24:24.001Z</time></trkpt><trkpt lat="45.82978574463489" lon="8.414201425304276"><ele>549.0</ele><time>2026-04-07T14:24:25.001Z</time></trkpt><trkpt lat="45.82985286831236" lon="8.41427782373705"><ele>549.0</ele><time>2026-04-07T14:24:27.001Z</time></trkpt><trkpt lat="45.829913867532184" lon="8.414312158081994"><ele>549.0</ele><time>2026-04-07T14:24:28.001Z</time></trkpt><trkpt lat="45.830027158314856" lon="8.414332066562896"><ele>549.0</ele><time>2026-04-07T14:24:30.001Z</time></trkpt><trkpt lat="45.83013987386031" lon="8.414417253522593"><ele>549.0</ele><time>2026-04-07T14:24:32.001Z</time></trkpt><trkpt lat="45.83024515730217" lon="8.414470127789164"><ele>551.0</ele><time>2026-04-07T14:24:34.001Z</time></trkpt><trkpt lat="45.83037349404456" lon="8.414466038953632"><ele>553.0</ele><time>2026-04-07T14:24:36.001Z</time></trkpt><trkpt lat="45.83044377202346" lon="8.414447651691061"><ele>555.0</ele><time>2026-04-07T14:24:37.001Z</time></trkpt><trkpt lat="45.830527967927495" lon="8.414424418724927"><ele>557.0</ele><time>2026-04-07T14:24:38.001Z</time></trkpt><trkpt lat="45.830610710099165" lon="8.414400871830765"><ele>559.0</ele><time>2026-04-07T14:24:39.001Z</time></trkpt><trkpt lat="45.83068879611567" lon="8.41437653030524"><ele>559.0</ele><time>2026-04-07T14:24:40.001Z</time></trkpt><trkpt lat="45.830769229463414" lon="8.41434591189262"><ele>559.0</ele><time>2026-04-07T14:24:41.001Z</time></trkpt><trkpt lat="45.830859288184996" lon="8.41432929230348"><ele>559.0</ele><time>2026-04-07T14:24:42.001Z</time></trkpt><trkpt lat="45.830924959884996" lon="8.414303753988188"><ele>559.0</ele><time>2026-04-07T14:24:43.001Z</time></trkpt><trkpt lat="45.830998077024425" lon="8.414289631184529"><ele>559.0</ele><time>2026-04-07T14:24:44.001Z</time></trkpt><trkpt lat="45.83106216638454" lon="8.414272482781863"><ele>559.0</ele><time>2026-04-07T14:24:45.001Z</time></trkpt><trkpt lat="45.831128657384625" lon="8.414247240005716"><ele>560.3333333333334</ele><time>2026-04-07T14:24:46.001Z</time></trkpt><trkpt lat="45.831240772563476" lon="8.414184240032242"><ele>561.6666666666667</ele><time>2026-04-07T14:24:48Z</time></trkpt><trkpt lat="45.831329486527935" lon="8.414114924887025"><ele>563.0</ele><time>2026-04-07T14:24:49Z</time></trkpt><trkpt lat="45.83139993830884" lon="8.414080367877403"><ele>564.3333333333334</ele><time>2026-04-07T14:24:50Z</time></trkpt><trkpt lat="45.83146447179382" lon="8.414036798324945"><ele>565.6666666666666</ele><time>2026-04-07T14:24:51Z</time></trkpt><trkpt lat="45.83151649553418" lon="8.413963894908276"><ele>567.0</ele><time>2026-04-07T14:24:52Z</time></trkpt><trkpt lat="45.83162414944418" lon="8.413906185967724"><ele>567.0</ele><time>2026-04-07T14:24:54Z</time></trkpt><trkpt lat="45.83168451715434" lon="8.413868136296603"><ele>567.0</ele><time>2026-04-07T14:24:55Z</time></trkpt><trkpt lat="45.83174431328878" lon="8.413808174157058"><ele>567.0</ele><time>2026-04-07T14:24:56Z</time></trkpt><trkpt lat="45.831798875636" lon="8.413749772042692"><ele>567.0</ele><time>2026-04-07T14:24:57Z</time></trkpt><trkpt lat="45.83186141896588" lon="8.4137063576578"><ele>567.0</ele><time>2026-04-07T14:24:58Z</time></trkpt><trkpt lat="45.831921067695845" lon="8.413666060553926"><ele>567.0</ele><time>2026-04-07T14:24:59Z</time></trkpt><trkpt lat="45.831987183136036" lon="8.413604154793493"><ele>567.0</ele><time>2026-04-07T14:25:00Z</time></trkpt><trkpt lat="45.83204828529035" lon="8.413532947661599"><ele>570.8333333333334</ele><time>2026-04-07T14:25:01Z</time></trkpt><trkpt lat="45.83209632453016" lon="8.41346127247734"><ele>574.6666666666666</ele><time>2026-04-07T14:25:02Z</time></trkpt><trkpt lat="45.83215645421858" lon="8.413333759643375"><ele>578.5</ele><time>2026-04-07T14:25:04Z</time></trkpt><trkpt lat="45.83220602033452" lon="8.413240712712948"><ele>582.3333333333333</ele><time>2026-04-07T14:25:06Z</time></trkpt><trkpt lat="45.83225542146423" lon="8.413157661952752"><ele>586.1666666666666</ele><time>2026-04-07T14:25:08Z</time></trkpt><trkpt lat="45.8323469232853" lon="8.413113086775741"><ele>590.0</ele><time>2026-04-07T14:25:10Z</time></trkpt><trkpt lat="45.83243004328165" lon="8.41308324883145"><ele>590.0</ele><time>2026-04-07T14:25:12Z</time></trkpt><trkpt lat="45.832502850111176" lon="8.413061261480102"><ele>590.0</ele><time>2026-04-07T14:25:14Z</time></trkpt><trkpt lat="45.83259562670434" lon="8.413023493275015"><ele>590.0</ele><time>2026-04-07T14:25:16Z</time></trkpt><trkpt lat="45.83267481214843" lon="8.413002097697678"><ele>590.0</ele><time>2026-04-07T14:25:18Z</time></trkpt><trkpt lat="45.83278159312521" lon="8.41299779778065"><ele>590.0</ele><time>2026-04-07T14:25:20Z</time></trkpt><trkpt lat="45.83284973682516" lon="8.412983901665411"><ele>590.0</ele><time>2026-04-07T14:25:21Z</time></trkpt><trkpt lat="45.832953706002655" lon="8.412963735832642"><ele>596.0</ele><time>2026-04-07T14:25:23Z</time></trkpt><trkpt lat="45.83305222745787" lon="8.412974319053186"><ele>602.0</ele><time>2026-04-07T14:25:25Z</time></trkpt><trkpt lat="45.83313534827528" lon="8.412967976167659"><ele>608.0</ele><time>2026-04-07T14:25:26Z</time></trkpt><trkpt lat="45.833258024531986" lon="8.412960965001961"><ele>614.0</ele><time>2026-04-07T14:25:28Z</time></trkpt><trkpt lat="45.83335695888957" lon="8.412964300253657"><ele>620.0</ele><time>2026-04-07T14:25:31Z</time></trkpt><trkpt lat="45.833436034587585" lon="8.412946004316426"><ele>618.5</ele><time>2026-04-07T14:25:33Z</time></trkpt><trkpt lat="45.83354231313628" lon="8.41291208377547"><ele>617.0</ele><time>2026-04-07T14:25:35Z</time></trkpt><trkpt lat="45.833603894433864" lon="8.412872308295249"><ele>615.5</ele><time>2026-04-07T14:25:36Z</time></trkpt><trkpt lat="45.83366317878259" lon="8.412819165659943"><ele>614.0</ele><time>2026-04-07T14:25:37Z</time></trkpt><trkpt lat="45.83370867916027" lon="8.412742156925257"><ele>612.5</ele><time>2026-04-07T14:25:38Z</time></trkpt><trkpt lat="45.83380533376981" lon="8.412632612883806"><ele>611.0</ele><time>2026-04-07T14:25:40Z</time></trkpt><trkpt lat="45.83386578807541" lon="8.41256151788887"><ele>611.0</ele><time>2026-04-07T14:25:41Z</time></trkpt><trkpt lat="45.83394350143717" lon="8.412425538477347"><ele>611.0</ele><time>2026-04-07T14:25:43Z</time></trkpt><trkpt lat="45.83399324211934" lon="8.41229497740287"><ele>611.0</ele><time>2026-04-07T14:25:45Z</time></trkpt><trkpt lat="45.83396316268089" lon="8.412163423807419"><ele>611.0</ele><time>2026-04-07T14:25:47Z</time></trkpt><trkpt lat="45.83391252982891" lon="8.41203335284319"><ele>611.0</ele><time>2026-04-07T14:25:49Z</time></trkpt><trkpt lat="45.83384606897616" lon="8.411873572946126"><ele>613.0000000000001</ele><time>2026-04-07T14:25:51Z</time></trkpt><trkpt lat="45.8338126665726" lon="8.411762674857476"><ele>615.0</ele><time>2026-04-07T14:25:53Z</time></trkpt><trkpt lat="45.833802443742314" lon="8.411666838596178"><ele>617.0</ele><time>2026-04-07T14:25:56Z</time></trkpt><trkpt lat="45.83386558317858" lon="8.41165111301499"><ele>619.0</ele><time>2026-04-07T14:25:59Z</time></trkpt><trkpt lat="45.833936120754096" lon="8.411666429044983"><ele>621.0</ele><time>2026-04-07T14:26:02Z</time></trkpt><trkpt lat="45.834002436164006" lon="8.411659005316155"><ele>623.0000000000001</ele><time>2026-04-07T14:26:04Z</time></trkpt><trkpt lat="45.8340746200001" lon="8.411606573111676"><ele>625.0</ele><time>2026-04-07T14:26:05Z</time></trkpt><trkpt lat="45.83416109646215" lon="8.411569932687263"><ele>625.0</ele><time>2026-04-07T14:26:06Z</time></trkpt><trkpt lat="45.83424336735562" lon="8.411528933406496"><ele>625.0</ele><time>2026-04-07T14:26:07Z</time></trkpt><trkpt lat="45.83433110974214" lon="8.41148966581373"><ele>625.0</ele><time>2026-04-07T14:26:08Z</time></trkpt><trkpt lat="45.834431623064255" lon="8.411465187997761"><ele>625.0</ele><time>2026-04-07T14:26:09Z</time></trkpt><trkpt lat="45.83452212134571" lon="8.411440600128245"><ele>625.0</ele><time>2026-04-07T14:26:10Z</time></trkpt><trkpt lat="45.8345982606802" lon="8.411402582682983"><ele>625.3333333333334</ele><time>2026-04-07T14:26:11Z</time></trkpt><trkpt lat="45.834676269951494" lon="8.411357783882634"><ele>625.6666666666667</ele><time>2026-04-07T14:26:12Z</time></trkpt><trkpt lat="45.8347606920471" lon="8.411300409060843"><ele>626.0</ele><time>2026-04-07T14:26:13Z</time></trkpt><trkpt lat="45.834859692815755" lon="8.41124626243838"><ele>626.3333333333334</ele><time>2026-04-07T14:26:14Z</time></trkpt><trkpt lat="45.834942799138425" lon="8.411196220837773"><ele>626.6666666666666</ele><time>2026-04-07T14:26:15Z</time></trkpt><trkpt lat="45.83500694589444" lon="8.411148760445075"><ele>627.0</ele><time>2026-04-07T14:26:16Z</time></trkpt><trkpt lat="45.835053010033725" lon="8.411085621717085"><ele>627.0</ele><time>2026-04-07T14:26:17Z</time></trkpt><trkpt lat="45.835125180641555" lon="8.410951996154715"><ele>627.0</ele><time>2026-04-07T14:26:19.001Z</time></trkpt><trkpt lat="45.83522882364413" lon="8.410894035562247"><ele>627.0</ele><time>2026-04-07T14:26:21.001Z</time></trkpt><trkpt lat="45.83530878699098" lon="8.410850205838738"><ele>627.0</ele><time>2026-04-07T14:26:23.001Z</time></trkpt><trkpt lat="45.83540663516982" lon="8.410800483543552"><ele>627.0</ele><time>2026-04-07T14:26:25.001Z</time></trkpt><trkpt lat="45.83552203411241" lon="8.41077659932853"><ele>623.0</ele><time>2026-04-07T14:26:27.001Z</time></trkpt><trkpt lat="45.835642511374644" lon="8.410735190542118"><ele>619.0</ele><time>2026-04-07T14:26:29.001Z</time></trkpt><trkpt lat="45.83575471299695" lon="8.41071886898609"><ele>615.0</ele><time>2026-04-07T14:26:31.001Z</time></trkpt><trkpt lat="45.83585364529986" lon="8.410700206534845"><ele>611.0</ele><time>2026-04-07T14:26:33.001Z</time></trkpt><trkpt lat="45.83595905462275" lon="8.410630119290406"><ele>610.2</ele><time>2026-04-07T14:26:35.001Z</time></trkpt><trkpt lat="45.83605074269772" lon="8.410543424618094"><ele>609.4000000000001</ele><time>2026-04-07T14:26:37.001Z</time></trkpt><trkpt lat="45.83615960355326" lon="8.410501827832361"><ele>608.6</ele><time>2026-04-07T14:26:39.001Z</time></trkpt><trkpt lat="45.83627577989173" lon="8.410432997722825"><ele>607.8000000000001</ele><time>2026-04-07T14:26:41.001Z</time></trkpt><trkpt lat="45.836335683020266" lon="8.41040308456528"><ele>607.0</ele><time>2026-04-07T14:26:42.001Z</time></trkpt><trkpt lat="45.83644517172111" lon="8.410352011037254"><ele>607.0</ele><time>2026-04-07T14:26:44.001Z</time></trkpt><trkpt lat="45.836518123393496" lon="8.410311848819783"><ele>607.0</ele><time>2026-04-07T14:26:46.001Z</time></trkpt><trkpt lat="45.836642567227756" lon="8.41028024805302"><ele>607.0</ele><time>2026-04-07T14:26:48.001Z</time></trkpt><trkpt lat="45.83671206146722" lon="8.410273784117583"><ele>607.0</ele><time>2026-04-07T14:26:49.001Z</time></trkpt><trkpt lat="45.836787068575006" lon="8.410243085601975"><ele>607.0</ele><time>2026-04-07T14:26:50.001Z</time></trkpt><trkpt lat="45.836850717397134" lon="8.410209277956447"><ele>607.0</ele><time>2026-04-07T14:26:51.001Z</time></trkpt><trkpt lat="45.836948634738725" lon="8.410129693302665"><ele>604.1666666666667</ele><time>2026-04-07T14:26:52.999Z</time></trkpt><trkpt lat="45.8370272038383" lon="8.410057007698606"><ele>601.3333333333334</ele><time>2026-04-07T14:26:55Z</time></trkpt><trkpt lat="45.837139389896386" lon="8.410034752531638"><ele>598.5</ele><time>2026-04-07T14:26:57Z</time></trkpt><trkpt lat="45.83721113727166" lon="8.410024690542818"><ele>595.6666666666666</ele><time>2026-04-07T14:26:58Z</time></trkpt><trkpt lat="45.83728382375496" lon="8.410012250129414"><ele>592.8333333333333</ele><time>2026-04-07T14:26:59Z</time></trkpt><trkpt lat="45.83736607511947" lon="8.410007282786678"><ele>590.0</ele><time>2026-04-07T14:27:00Z</time></trkpt><trkpt lat="45.837444820379815" lon="8.409983157292618"><ele>590.0</ele><time>2026-04-07T14:27:01Z</time></trkpt><trkpt lat="45.837508553019475" lon="8.409955794488994"><ele>590.0</ele><time>2026-04-07T14:27:02Z</time></trkpt><trkpt lat="45.83760056385761" lon="8.409911502620563"><ele>590.0</ele><time>2026-04-07T14:27:04Z</time></trkpt><trkpt lat="45.837729130399836" lon="8.409835978318082"><ele>590.0</ele><time>2026-04-07T14:27:06Z</time></trkpt><trkpt lat="45.837798583879646" lon="8.409808091031685"><ele>590.0</ele><time>2026-04-07T14:27:07Z</time></trkpt><trkpt lat="45.83785080139738" lon="8.409757465092325"><ele>590.0</ele><time>2026-04-07T14:27:08Z</time></trkpt><trkpt lat="45.83794740622507" lon="8.409657134343199"><ele>587.0</ele><time>2026-04-07T14:27:10Z</time></trkpt><trkpt lat="45.83803605427829" lon="8.409580944540068"><ele>584.0</ele><time>2026-04-07T14:27:12Z</time></trkpt><trkpt lat="45.83814035430711" lon="8.409519864709027"><ele>581.0</ele><time>2026-04-07T14:27:14Z</time></trkpt><trkpt lat="45.83823479871602" lon="8.409517129394976"><ele>578.0</ele><time>2026-04-07T14:27:16Z</time></trkpt><trkpt lat="45.83831372149485" lon="8.409514074325818"><ele>575.0</ele><time>2026-04-07T14:27:18Z</time></trkpt><trkpt lat="45.838405310362624" lon="8.409560871689765"><ele>574.2</ele><time>2026-04-07T14:27:21Z</time></trkpt><trkpt lat="45.8384904511462" lon="8.409637509159467"><ele>573.4</ele><time>2026-04-07T14:27:23Z</time></trkpt><trkpt lat="45.83859318949434" lon="8.409698123361123"><ele>572.6</ele><time>2026-04-07T14:27:25Z</time></trkpt><trkpt lat="45.83867552430502" lon="8.409760640884693"><ele>571.8</ele><time>2026-04-07T14:27:27Z</time></trkpt><trkpt lat="45.83875408541913" lon="8.409804458969361"><ele>571.0</ele><time>2026-04-07T14:27:29Z</time></trkpt><trkpt lat="45.838833833932206" lon="8.409849659127342"><ele>571.0</ele><time>2026-04-07T14:27:31Z</time></trkpt><trkpt lat="45.83890743598514" lon="8.4098910403134"><ele>571.0</ele><time>2026-04-07T14:27:33.001Z</time></trkpt><trkpt lat="45.8389938801996" lon="8.409904952762398"><ele>571.0</ele><time>2026-04-07T14:27:35.001Z</time></trkpt><trkpt lat="45.83909267875558" lon="8.409890015519817"><ele>571.0</ele><time>2026-04-07T14:27:37.001Z</time></trkpt><trkpt lat="45.839160102707304" lon="8.409867074927387"><ele>571.0</ele><time>2026-04-07T14:27:39.001Z</time></trkpt><trkpt lat="45.839191019091274" lon="8.409973333745688"><ele>571.0</ele><time>2026-04-07T14:27:44.001Z</time></trkpt><trkpt lat="45.839217610154655" lon="8.410071538894478"><ele>571.0</ele><time>2026-04-07T14:27:52.001Z</time></trkpt><trkpt lat="45.83926998224882" lon="8.410121829151338"><ele>571.0</ele><time>2026-04-07T14:27:59.001Z</time></trkpt><trkpt lat="45.83926264117391" lon="8.410257877000246"><ele>571.0</ele><time>2026-04-07T14:28:44.001Z</time></trkpt><trkpt lat="45.839200486674244" lon="8.410332375751112"><ele>571.0</ele><time>2026-04-07T14:28:54.002Z</time></trkpt><trkpt lat="45.839227722923994" lon="8.41041517528624"><ele>571.0</ele><time>2026-04-07T14:28:58.002Z</time></trkpt><trkpt lat="45.83915715909839" lon="8.410294694613384"><ele>571.0</ele><time>2026-04-07T14:29:26Z</time></trkpt><trkpt lat="45.83910839329701" lon="8.410157986874898"><ele>571.0</ele><time>2026-04-07T14:29:28Z</time></trkpt><trkpt lat="45.83905832735951" lon="8.410068604222483"><ele>571.0</ele><time>2026-04-07T14:29:30Z</time></trkpt><trkpt lat="45.8390766398104" lon="8.409977776622243"><ele>571.0</ele><time>2026-04-07T14:29:36Z</time></trkpt><trkpt lat="45.83912993724478" lon="8.410027518775705"><ele>571.0</ele><time>2026-04-07T14:29:39Z</time></trkpt><trkpt lat="45.83918604641752" lon="8.41009316853598"><ele>571.0</ele><time>2026-04-07T14:29:43Z</time></trkpt><trkpt lat="45.839261728840206" lon="8.41010174540401"><ele>571.0</ele><time>2026-04-07T14:29:55.001Z</time></trkpt><trkpt lat="45.839339992753565" lon="8.410100463586588"><ele>571.0</ele><time>2026-04-07T14:29:59.001Z</time></trkpt><trkpt lat="45.83941248050333" lon="8.41012340681553"><ele>568.3333333333334</ele><time>2026-04-07T14:30:03.001Z</time></trkpt><trkpt lat="45.8394764961021" lon="8.410146369533665"><ele>565.6666666666667</ele><time>2026-04-07T14:30:06.001Z</time></trkpt><trkpt lat="45.83954145752856" lon="8.410165542468432"><ele>563.0</ele><time>2026-04-07T14:30:09.001Z</time></trkpt><trkpt lat="45.83962061586083" lon="8.410188139804422"><ele>560.3333333333334</ele><time>2026-04-07T14:30:13.001Z</time></trkpt><trkpt lat="45.83969567075397" lon="8.4101988208821"><ele>557.6666666666666</ele><time>2026-04-07T14:30:16.001Z</time></trkpt><trkpt lat="45.83978152735887" lon="8.410251192446388"><ele>555.0</ele><time>2026-04-07T14:30:29.001Z</time></trkpt><trkpt lat="45.839835121348244" lon="8.410338752942225"><ele>555.0000000000001</ele><time>2026-04-07T14:30:32.001Z</time></trkpt><trkpt lat="45.83990062260319" lon="8.410338695780197"><ele>555.0</ele><time>2026-04-07T14:30:34.001Z</time></trkpt><trkpt lat="45.83996865311332" lon="8.410335914540678"><ele>555.0</ele><time>2026-04-07T14:30:37.001Z</time></trkpt><trkpt lat="45.840024225380624" lon="8.410281002149492"><ele>555.0</ele><time>2026-04-07T14:30:40.001Z</time></trkpt><trkpt lat="45.840091494471636" lon="8.410329001021386"><ele>555.0</ele><time>2026-04-07T14:30:44.001Z</time></trkpt><trkpt lat="45.84016424045363" lon="8.410372089359036"><ele>555.0000000000001</ele><time>2026-04-07T14:30:47.001Z</time></trkpt><trkpt lat="45.84024225238231" lon="8.410378963787565"><ele>555.0</ele><time>2026-04-07T14:30:50.001Z</time></trkpt><trkpt lat="45.84033087467715" lon="8.410362144808428"><ele>552.5714285714287</ele><time>2026-04-07T14:30:53.001Z</time></trkpt><trkpt lat="45.84040636110277" lon="8.410409935697084"><ele>550.1428571428571</ele><time>2026-04-07T14:30:56.001Z</time></trkpt><trkpt lat="45.840471044910785" lon="8.410435570641257"><ele>547.7142857142858</ele><time>2026-04-07T14:30:59.001Z</time></trkpt><trkpt lat="45.840524078271706" lon="8.41048628224414"><ele>545.2857142857143</ele><time>2026-04-07T14:31:22Z</time></trkpt><trkpt lat="45.84055774613298" lon="8.410584163936916"><ele>542.8571428571429</ele><time>2026-04-07T14:31:33Z</time></trkpt><trkpt lat="45.84057572630989" lon="8.410673197978172"><ele>540.4285714285714</ele><time>2026-04-07T14:31:36Z</time></trkpt><trkpt lat="45.84055206696397" lon="8.410784798523107"><ele>538.0</ele><time>2026-04-07T14:31:44Z</time></trkpt><trkpt lat="45.84048616757331" lon="8.410735288991185"><ele>538.0</ele><time>2026-04-07T14:31:46Z</time></trkpt><trkpt lat="45.84041315290071" lon="8.410685593768157"><ele>538.0</ele><time>2026-04-07T14:31:51Z</time></trkpt><trkpt lat="45.84046702313661" lon="8.41059322460698"><ele>538.0</ele><time>2026-04-07T14:32:01Z</time></trkpt><trkpt lat="45.8405130398026" lon="8.410528837398935"><ele>538.0</ele><time>2026-04-07T14:32:04.001Z</time></trkpt><trkpt lat="45.84057316333187" lon="8.410464103382335"><ele>538.0</ele><time>2026-04-07T14:32:25.001Z</time></trkpt><trkpt lat="45.84063009878792" lon="8.410406949452105"><ele>538.0</ele><time>2026-04-07T14:32:36.001Z</time></trkpt><trkpt lat="45.84056053621485" lon="8.410445886209777"><ele>538.0</ele><time>2026-04-07T14:32:52.001Z</time></trkpt><trkpt lat="45.8406362942019" lon="8.41042679941342"><ele>537.8571428571429</ele><time>2026-04-07T14:33:09.001Z</time></trkpt><trkpt lat="45.84070406970466" lon="8.410434379910704"><ele>537.7142857142858</ele><time>2026-04-07T14:33:11Z</time></trkpt><trkpt lat="45.84079804019581" lon="8.410404661909393"><ele>537.5714285714286</ele><time>2026-04-07T14:33:14Z</time></trkpt><trkpt lat="45.84087151835402" lon="8.4104091555245"><ele>537.4285714285714</ele><time>2026-04-07T14:33:16Z</time></trkpt><trkpt lat="45.84093749177317" lon="8.410423733288104"><ele>537.2857142857142</ele><time>2026-04-07T14:33:19Z</time></trkpt><trkpt lat="45.84100878801227" lon="8.41042818408203"><ele>537.1428571428571</ele><time>2026-04-07T14:33:22Z</time></trkpt><trkpt lat="45.84107166366622" lon="8.410421690782561"><ele>537.0</ele><time>2026-04-07T14:33:24Z</time></trkpt><trkpt lat="45.84109789053691" lon="8.410507414260866"><ele>533.6666666666666</ele><time>2026-04-07T14:33:26Z</time></trkpt><trkpt lat="45.84116220110762" lon="8.410553203948057"><ele>530.3333333333334</ele><time>2026-04-07T14:33:29Z</time></trkpt><trkpt lat="45.841238475941076" lon="8.410613660256367"><ele>527.0</ele><time>2026-04-07T14:33:32Z</time></trkpt><trkpt lat="45.841310989900116" lon="8.41068700279197"><ele>523.6666666666667</ele><time>2026-04-07T14:33:36Z</time></trkpt><trkpt lat="45.8413576626856" lon="8.410773477485563"><ele>520.3333333333334</ele><time>2026-04-07T14:33:39Z</time></trkpt><trkpt lat="45.84138762604191" lon="8.410872416207132"><ele>517.0</ele><time>2026-04-07T14:33:42Z</time></trkpt><trkpt lat="45.84140177846417" lon="8.410985857191733"><ele>517.0</ele><time>2026-04-07T14:33:46Z</time></trkpt><trkpt lat="45.84141871600983" lon="8.41109504245694"><ele>517.0</ele><time>2026-04-07T14:33:49Z</time></trkpt><trkpt lat="45.84144751640947" lon="8.41121615035043"><ele>517.0</ele><time>2026-04-07T14:33:51Z</time></trkpt><trkpt lat="45.84147450634636" lon="8.41131197009983"><ele>517.0</ele><time>2026-04-07T14:33:54Z</time></trkpt><trkpt lat="45.84149721575646" lon="8.411415807003637"><ele>517.0</ele><time>2026-04-07T14:33:58Z</time></trkpt><trkpt lat="45.84151404073501" lon="8.411509848472773"><ele>517.0</ele><time>2026-04-07T14:34:00Z</time></trkpt><trkpt lat="45.84153130550892" lon="8.411603557632144"><ele>515.3333333333334</ele><time>2026-04-07T14:34:07Z</time></trkpt><trkpt lat="45.84159591450457" lon="8.41166511211766"><ele>513.6666666666667</ele><time>2026-04-07T14:34:11Z</time></trkpt><trkpt lat="45.84165631003564" lon="8.411708601981964"><ele>512.0</ele><time>2026-04-07T14:34:13.001Z</time></trkpt><trkpt lat="45.841720621797904" lon="8.41172700098783"><ele>510.33333333333337</ele><time>2026-04-07T14:34:16.001Z</time></trkpt><trkpt lat="45.84177455690872" lon="8.41167230773881"><ele>508.6666666666667</ele><time>2026-04-07T14:34:19.001Z</time></trkpt><trkpt lat="45.84184747153877" lon="8.411599936390655"><ele>507.0</ele><time>2026-04-07T14:34:22.001Z</time></trkpt><trkpt lat="45.84192355235842" lon="8.411456730125499"><ele>504.40000000000003</ele><time>2026-04-07T14:34:25.001Z</time></trkpt><trkpt lat="45.842083230647376" lon="8.411333368855612"><ele>501.80000000000007</ele><time>2026-04-07T14:34:27.001Z</time></trkpt><trkpt lat="45.84217432120844" lon="8.41128816012401"><ele>499.2</ele><time>2026-04-07T14:34:30.001Z</time></trkpt><trkpt lat="45.8422500027764" lon="8.411262720813282"><ele>496.6</ele><time>2026-04-07T14:34:32.001Z</time></trkpt><trkpt lat="45.8423366669925" lon="8.41122902337989"><ele>494.0</ele><time>2026-04-07T14:34:34.001Z</time></trkpt><trkpt lat="45.84242114239121" lon="8.411153224870832"><ele>493.99999999999994</ele><time>2026-04-07T14:34:36.001Z</time></trkpt><trkpt lat="45.84251854792986" lon="8.411112661163997"><ele>494.0</ele><time>2026-04-07T14:34:38.001Z</time></trkpt><trkpt lat="45.842608932093185" lon="8.411048148046111"><ele>494.0</ele><time>2026-04-07T14:34:40.001Z</time></trkpt><trkpt lat="45.84266362022529" lon="8.41098761020659"><ele>494.0</ele><time>2026-04-07T14:34:42.001Z</time></trkpt><trkpt lat="45.84267835377415" lon="8.41089676520807"><ele>493.99999999999994</ele><time>2026-04-07T14:34:45.001Z</time></trkpt><trkpt lat="45.84274088494797" lon="8.410797718794914"><ele>494.0</ele><time>2026-04-07T14:34:47.001Z</time></trkpt><trkpt lat="45.842808078371625" lon="8.410712978568117"><ele>490.3333333333333</ele><time>2026-04-07T14:34:49.001Z</time></trkpt><trkpt lat="45.84285383859309" lon="8.41060650901142"><ele>486.66666666666663</ele><time>2026-04-07T14:34:51.001Z</time></trkpt><trkpt lat="45.84290443186445" lon="8.41050434777466"><ele>483.0</ele><time>2026-04-07T14:34:53.001Z</time></trkpt><trkpt lat="45.84290338330787" lon="8.410388330208164"><ele>479.33333333333337</ele><time>2026-04-07T14:34:56.001Z</time></trkpt><trkpt lat="45.84293059032332" lon="8.4103019937537"><ele>475.6666666666667</ele><time>2026-04-07T14:34:58.001Z</time></trkpt><trkpt lat="45.84300636698246" lon="8.410310846840575"><ele>472.0</ele><time>2026-04-07T14:35:01.001Z</time></trkpt><trkpt lat="45.84308791404006" lon="8.410409198791246"><ele>471.6</ele><time>2026-04-07T14:35:03.001Z</time></trkpt><trkpt lat="45.84315821187875" lon="8.410510568674415"><ele>471.20000000000005</ele><time>2026-04-07T14:35:05.001Z</time></trkpt><trkpt lat="45.8432461013298" lon="8.410577180043262"><ele>470.8</ele><time>2026-04-07T14:35:07.001Z</time></trkpt><trkpt lat="45.84333746175538" lon="8.410604588167853"><ele>470.4</ele><time>2026-04-07T14:35:09.001Z</time></trkpt><trkpt lat="45.843438447717126" lon="8.410637822793484"><ele>470.0</ele><time>2026-04-07T14:35:11.001Z</time></trkpt><trkpt lat="45.84352899031281" lon="8.41067843473464"><ele>467.6</ele><time>2026-04-07T14:35:13.001Z</time></trkpt><trkpt lat="45.84362592452716" lon="8.410716924195134"><ele>465.2</ele><time>2026-04-07T14:35:15.001Z</time></trkpt><trkpt lat="45.84372032817215" lon="8.41076624421771"><ele>462.79999999999995</ele><time>2026-04-07T14:35:17Z</time></trkpt><trkpt lat="45.8438291838194" lon="8.410821513162867"><ele>460.4</ele><time>2026-04-07T14:35:19Z</time></trkpt><trkpt lat="45.84395410927802" lon="8.410878635844687"><ele>458.0</ele><time>2026-04-07T14:35:21Z</time></trkpt><trkpt lat="45.844059241701224" lon="8.410939361316018"><ele>458.0</ele><time>2026-04-07T14:35:23Z</time></trkpt><trkpt lat="45.84414374153879" lon="8.411069949760552"><ele>457.99999999999994</ele><time>2026-04-07T14:35:25Z</time></trkpt><trkpt lat="45.84420383855595" lon="8.411160179773711"><ele>457.99999999999994</ele><time>2026-04-07T14:35:27Z</time></trkpt><trkpt lat="45.844288053716035" lon="8.411233076995607"><ele>458.0</ele><time>2026-04-07T14:35:30Z</time></trkpt><trkpt lat="45.8443561037629" lon="8.411210525391922"><ele>458.0</ele><time>2026-04-07T14:35:31Z</time></trkpt><trkpt lat="45.84443408971051" lon="8.411152344852502"><ele>456.2</ele><time>2026-04-07T14:35:32Z</time></trkpt><trkpt lat="45.84451889233717" lon="8.411094147336838"><ele>454.4</ele><time>2026-04-07T14:35:33Z</time></trkpt><trkpt lat="45.844620304055056" lon="8.411049665974312"><ele>452.59999999999997</ele><time>2026-04-07T14:35:34Z</time></trkpt><trkpt lat="45.84473093957621" lon="8.411023880218098"><ele>450.79999999999995</ele><time>2026-04-07T14:35:35Z</time></trkpt><trkpt lat="45.84485060349821" lon="8.41101608753367"><ele>449.0</ele><time>2026-04-07T14:35:36Z</time></trkpt><trkpt lat="45.84496570063607" lon="8.411029243719494"><ele>449.0</ele><time>2026-04-07T14:35:37Z</time></trkpt><trkpt lat="45.84507774572763" lon="8.41106071290519"><ele>449.0</ele><time>2026-04-07T14:35:38Z</time></trkpt><trkpt lat="45.8451815086933" lon="8.411122477659644"><ele>449.0</ele><time>2026-04-07T14:35:39Z</time></trkpt><trkpt lat="45.84527248452704" lon="8.411204052093687"><ele>449.0</ele><time>2026-04-07T14:35:40Z</time></trkpt><trkpt lat="45.84535312378539" lon="8.411297302552496"><ele>449.0</ele><time>2026-04-07T14:35:41Z</time></trkpt><trkpt lat="45.845430718446345" lon="8.411387761632607"><ele>449.8333333333333</ele><time>2026-04-07T14:35:42Z</time></trkpt><trkpt lat="45.84550821630759" lon="8.411477757699837"><ele>450.66666666666663</ele><time>2026-04-07T14:35:43Z</time></trkpt><trkpt lat="45.845583749867444" lon="8.411577918133409"><ele>451.5</ele><time>2026-04-07T14:35:44Z</time></trkpt><trkpt lat="45.84563633491135" lon="8.411680852961538"><ele>452.33333333333337</ele><time>2026-04-07T14:35:45Z</time></trkpt><trkpt lat="45.845679076734676" lon="8.411758370127124"><ele>453.1666666666667</ele><time>2026-04-07T14:35:46Z</time></trkpt><trkpt lat="45.84574224936356" lon="8.411776813313798"><ele>454.0</ele><time>2026-04-07T14:35:47Z</time></trkpt><trkpt lat="45.845808166343765" lon="8.411726601197772"><ele>454.0</ele><time>2026-04-07T14:35:48Z</time></trkpt><trkpt lat="45.84584309988342" lon="8.411625356285557"><ele>454.0</ele><time>2026-04-07T14:35:49Z</time></trkpt><trkpt lat="45.8458458685723" lon="8.411490790863073"><ele>454.0</ele><time>2026-04-07T14:35:50Z</time></trkpt><trkpt lat="45.845850592030196" lon="8.411356526594117"><ele>454.0</ele><time>2026-04-07T14:35:51Z</time></trkpt><trkpt lat="45.84590516916854" lon="8.411235278738703"><ele>454.0</ele><time>2026-04-07T14:35:52Z</time></trkpt><trkpt lat="45.84599010631571" lon="8.411120096092834"><ele>452.5</ele><time>2026-04-07T14:35:53Z</time></trkpt><trkpt lat="45.846071084357675" lon="8.410981986813582"><ele>451.0</ele><time>2026-04-07T14:35:54Z</time></trkpt><trkpt lat="45.84613326032543" lon="8.410801125906687"><ele>449.5</ele><time>2026-04-07T14:35:55Z</time></trkpt><trkpt lat="45.846197045758295" lon="8.410632721890774"><ele>448.0</ele><time>2026-04-07T14:35:56Z</time></trkpt><trkpt lat="45.84629359300323" lon="8.410502986537324"><ele>446.25</ele><time>2026-04-07T14:35:57Z</time></trkpt><trkpt lat="45.84641099714961" lon="8.41041189558563"><ele>444.5</ele><time>2026-04-07T14:35:58Z</time></trkpt><trkpt lat="45.846537487573485" lon="8.410350665231814"><ele>442.75</ele><time>2026-04-07T14:35:59Z</time></trkpt><trkpt lat="45.84667276827018" lon="8.41031207883693"><ele>441.0</ele><time>2026-04-07T14:36:00Z</time></trkpt><trkpt lat="45.84681145482889" lon="8.41028160057528"><ele>441.0</ele><time>2026-04-07T14:36:01Z</time></trkpt><trkpt lat="45.84695363924064" lon="8.410244269337703"><ele>441.0</ele><time>2026-04-07T14:36:02Z</time></trkpt><trkpt lat="45.8470939754523" lon="8.410193963093276"><ele>441.0</ele><time>2026-04-07T14:36:03Z</time></trkpt><trkpt lat="45.84723167071134" lon="8.41013199403584"><ele>441.0</ele><time>2026-04-07T14:36:04Z</time></trkpt><trkpt lat="45.847359095145436" lon="8.41005759773126"><ele>441.0</ele><time>2026-04-07T14:36:05Z</time></trkpt><trkpt lat="45.8474792982573" lon="8.409967872504133"><ele>441.0</ele><time>2026-04-07T14:36:06Z</time></trkpt><trkpt lat="45.84759537571877" lon="8.4098746129899"><ele>441.0</ele><time>2026-04-07T14:36:07Z</time></trkpt><trkpt lat="45.84771070375797" lon="8.40978812468231"><ele>441.0</ele><time>2026-04-07T14:36:08Z</time></trkpt><trkpt lat="45.84782683621426" lon="8.409713304502151"><ele>436.5</ele><time>2026-04-07T14:36:09Z</time></trkpt><trkpt lat="45.847940853557446" lon="8.409640708274484"><ele>432.0</ele><time>2026-04-07T14:36:10Z</time></trkpt><trkpt lat="45.84805785746871" lon="8.409563480962094"><ele>427.5</ele><time>2026-04-07T14:36:11Z</time></trkpt><trkpt lat="45.8481780406158" lon="8.409509541682937"><ele>423.0</ele><time>2026-04-07T14:36:12Z</time></trkpt><trkpt lat="45.84830407830623" lon="8.40948437482293"><ele>423.0</ele><time>2026-04-07T14:36:13Z</time></trkpt><trkpt lat="45.84843147399492" lon="8.40948540857096"><ele>423.0</ele><time>2026-04-07T14:36:14Z</time></trkpt><trkpt lat="45.848560656768214" lon="8.409496439370827"><ele>423.0</ele><time>2026-04-07T14:36:15Z</time></trkpt><trkpt lat="45.848689206318305" lon="8.409505649732633"><ele>423.0</ele><time>2026-04-07T14:36:16Z</time></trkpt><trkpt lat="45.848822693646895" lon="8.409509647846866"><ele>421.25</ele><time>2026-04-07T14:36:17Z</time></trkpt><trkpt lat="45.8489547730652" lon="8.409506305698931"><ele>419.5</ele><time>2026-04-07T14:36:18Z</time></trkpt><trkpt lat="45.84908704359246" lon="8.40951440141357"><ele>417.75</ele><time>2026-04-07T14:36:19Z</time></trkpt><trkpt lat="45.84922419607611" lon="8.40952472987707"><ele>416.0</ele><time>2026-04-07T14:36:20Z</time></trkpt><trkpt lat="45.84936117438466" lon="8.40954697379312"><ele>415.25</ele><time>2026-04-07T14:36:21Z</time></trkpt><trkpt lat="45.8494890518274" lon="8.409575504553327"><ele>414.5</ele><time>2026-04-07T14:36:22Z</time></trkpt><trkpt lat="45.84961194581406" lon="8.40961334270786"><ele>413.75</ele><time>2026-04-07T14:36:23.001Z</time></trkpt><trkpt lat="45.84973274733514" lon="8.409619003047569"><ele>413.0</ele><time>2026-04-07T14:36:24.001Z</time></trkpt><trkpt lat="45.849854096190654" lon="8.409561683209384"><ele>413.0</ele><time>2026-04-07T14:36:25.001Z</time></trkpt><trkpt lat="45.84996121091243" lon="8.409481488560672"><ele>413.0</ele><time>2026-04-07T14:36:26.001Z</time></trkpt><trkpt lat="45.8500745772515" lon="8.409406886949323"><ele>413.0</ele><time>2026-04-07T14:36:27.001Z</time></trkpt><trkpt lat="45.85019513189031" lon="8.409343855632713"><ele>413.0</ele><time>2026-04-07T14:36:28.001Z</time></trkpt><trkpt lat="45.85032012131217" lon="8.409284160131174"><ele>413.0</ele><time>2026-04-07T14:36:29.001Z</time></trkpt><trkpt lat="45.85045049661703" lon="8.409222732181163"><ele>413.0</ele><time>2026-04-07T14:36:30.001Z</time></trkpt><trkpt lat="45.85057730056031" lon="8.409156927883894"><ele>413.0</ele><time>2026-04-07T14:36:31.001Z</time></trkpt><trkpt lat="45.85070660410609" lon="8.409093953541309"><ele>413.0</ele><time>2026-04-07T14:36:32.001Z</time></trkpt><trkpt lat="45.85083516238535" lon="8.409044450536857"><ele>412.25</ele><time>2026-04-07T14:36:33.001Z</time></trkpt><trkpt lat="45.85096190997895" lon="8.409020290679578"><ele>411.5</ele><time>2026-04-07T14:36:34.001Z</time></trkpt><trkpt lat="45.85109088830641" lon="8.409032382674996"><ele>410.75</ele><time>2026-04-07T14:36:35.001Z</time></trkpt><trkpt lat="45.85122508453915" lon="8.409068713190587"><ele>410.0</ele><time>2026-04-07T14:36:36.001Z</time></trkpt><trkpt lat="45.851370016472096" lon="8.409091264105792"><ele>410.0</ele><time>2026-04-07T14:36:37.001Z</time></trkpt><trkpt lat="45.85151155773429" lon="8.409090674367947"><ele>410.0</ele><time>2026-04-07T14:36:38.001Z</time></trkpt><trkpt lat="45.851664917680225" lon="8.409097538780845"><ele>410.0</ele><time>2026-04-07T14:36:39.001Z</time></trkpt><trkpt lat="45.851809945379266" lon="8.409111068659683"><ele>410.0</ele><time>2026-04-07T14:36:40.001Z</time></trkpt><trkpt lat="45.85195521256699" lon="8.409123694319343"><ele>409.0</ele><time>2026-04-07T14:36:41.001Z</time></trkpt><trkpt lat="45.85209021575581" lon="8.409141075471382"><ele>408.0</ele><time>2026-04-07T14:36:42.001Z</time></trkpt><trkpt lat="45.85223135569868" lon="8.409152513891483"><ele>407.0</ele><time>2026-04-07T14:36:43.001Z</time></trkpt><trkpt lat="45.852376324559074" lon="8.40914217378574"><ele>406.0</ele><time>2026-04-07T14:36:44.001Z</time></trkpt><trkpt lat="45.8525152412313" lon="8.40912357616975"><ele>402.5</ele><time>2026-04-07T14:36:45.001Z</time></trkpt><trkpt lat="45.85265135857416" lon="8.409094998837253"><ele>399.0</ele><time>2026-04-07T14:36:46.001Z</time></trkpt><trkpt lat="45.85278668230577" lon="8.409073068497452"><ele>395.5</ele><time>2026-04-07T14:36:47.001Z</time></trkpt><trkpt lat="45.85292008958795" lon="8.409074810190875"><ele>392.0</ele><time>2026-04-07T14:36:48.001Z</time></trkpt><trkpt lat="45.853056476109174" lon="8.409115194816446"><ele>392.0</ele><time>2026-04-07T14:36:49.001Z</time></trkpt><trkpt lat="45.85318518340124" lon="8.40918728751807"><ele>392.0</ele><time>2026-04-07T14:36:50.001Z</time></trkpt><trkpt lat="45.85330483488504" lon="8.409282184554865"><ele>392.0</ele><time>2026-04-07T14:36:51.001Z</time></trkpt><trkpt lat="45.85343644874309" lon="8.409382426625767"><ele>392.0</ele><time>2026-04-07T14:36:52.001Z</time></trkpt><trkpt lat="45.85356168258991" lon="8.409500050616213"><ele>391.5</ele><time>2026-04-07T14:36:53.001Z</time></trkpt><trkpt lat="45.85368195810168" lon="8.409631515407355"><ele>391.0</ele><time>2026-04-07T14:36:54.001Z</time></trkpt><trkpt lat="45.85380138522321" lon="8.409753175755629"><ele>390.5</ele><time>2026-04-07T14:36:55.001Z</time></trkpt><trkpt lat="45.853913812985446" lon="8.409872297100698"><ele>390.0</ele><time>2026-04-07T14:36:56.001Z</time></trkpt><trkpt lat="45.85402329584631" lon="8.409991021691146"><ele>390.0</ele><time>2026-04-07T14:36:57.001Z</time></trkpt><trkpt lat="45.85413299699462" lon="8.410110441775705"><ele>390.0</ele><time>2026-04-07T14:36:58.001Z</time></trkpt><trkpt lat="45.85424659858067" lon="8.4102096741992"><ele>390.0</ele><time>2026-04-07T14:36:59.001Z</time></trkpt><trkpt lat="45.85435887934361" lon="8.410307536021458"><ele>390.0</ele><time>2026-04-07T14:37:00.001Z</time></trkpt><trkpt lat="45.854483095939734" lon="8.410386369676443"><ele>391.25</ele><time>2026-04-07T14:37:01.001Z</time></trkpt><trkpt lat="45.854616071119445" lon="8.410435531158592"><ele>392.5</ele><time>2026-04-07T14:37:02.001Z</time></trkpt><trkpt lat="45.854755882780395" lon="8.41046831582657"><ele>393.75</ele><time>2026-04-07T14:37:03.001Z</time></trkpt><trkpt lat="45.85489042042818" lon="8.410500854908722"><ele>395.0</ele><time>2026-04-07T14:37:04.001Z</time></trkpt><trkpt lat="45.85502617317864" lon="8.410535172814617"><ele>390.75</ele><time>2026-04-07T14:37:05.001Z</time></trkpt><trkpt lat="45.85516115971067" lon="8.410573496189249"><ele>386.5</ele><time>2026-04-07T14:37:06.001Z</time></trkpt><trkpt lat="45.85529936550664" lon="8.410609079541546"><ele>382.25</ele><time>2026-04-07T14:37:07.001Z</time></trkpt><trkpt lat="45.855433291117464" lon="8.410641715900764"><ele>378.0</ele><time>2026-04-07T14:37:08.001Z</time></trkpt><trkpt lat="45.855567237271714" lon="8.41066795428872"><ele>378.0</ele><time>2026-04-07T14:37:09.001Z</time></trkpt><trkpt lat="45.855703118082545" lon="8.410698561022604"><ele>378.0</ele><time>2026-04-07T14:37:10.001Z</time></trkpt><trkpt lat="45.855837737488436" lon="8.41072761927479"><ele>378.0</ele><time>2026-04-07T14:37:11.001Z</time></trkpt><trkpt lat="45.8559702381275" lon="8.410752365832575"><ele>378.0</ele><time>2026-04-07T14:37:12.001Z</time></trkpt><trkpt lat="45.85610137695122" lon="8.410775827173191"><ele>374.75</ele><time>2026-04-07T14:37:13.001Z</time></trkpt><trkpt lat="45.85623139564038" lon="8.410797707938231"><ele>371.5</ele><time>2026-04-07T14:37:14.001Z</time></trkpt><trkpt lat="45.85635921738547" lon="8.410826078867949"><ele>368.25</ele><time>2026-04-07T14:37:15.001Z</time></trkpt><trkpt lat="45.85648270705782" lon="8.410874683666403"><ele>365.0</ele><time>2026-04-07T14:37:16.001Z</time></trkpt><trkpt lat="45.85659319740457" lon="8.41094212082189"><ele>365.0</ele><time>2026-04-07T14:37:17.001Z</time></trkpt><trkpt lat="45.8567057426454" lon="8.411018390165152"><ele>365.0</ele><time>2026-04-07T14:37:18.001Z</time></trkpt><trkpt lat="45.856823174038375" lon="8.41109290726379"><ele>365.0</ele><time>2026-04-07T14:37:19.001Z</time></trkpt><trkpt lat="45.856945017523515" lon="8.411167311475722"><ele>365.0</ele><time>2026-04-07T14:37:20.001Z</time></trkpt><trkpt lat="45.85707185495359" lon="8.41124792967378"><ele>367.0</ele><time>2026-04-07T14:37:21.001Z</time></trkpt><trkpt lat="45.85719864226084" lon="8.411317532889381"><ele>369.0</ele><time>2026-04-07T14:37:22.001Z</time></trkpt><trkpt lat="45.8573285271551" lon="8.411378897061894"><ele>371.0</ele><time>2026-04-07T14:37:23Z</time></trkpt><trkpt lat="45.857451970435" lon="8.411437169270904"><ele>373.0</ele><time>2026-04-07T14:37:24Z</time></trkpt><trkpt lat="45.857568402079714" lon="8.411496390762055"><ele>367.59999999999997</ele><time>2026-04-07T14:37:25Z</time></trkpt><trkpt lat="45.85767373206365" lon="8.411569023313534"><ele>362.2</ele><time>2026-04-07T14:37:26Z</time></trkpt><trkpt lat="45.85775523716774" lon="8.411632837065117"><ele>356.8</ele><time>2026-04-07T14:37:27Z</time></trkpt><trkpt lat="45.857814016354226" lon="8.411676019379108"><ele>351.4</ele><time>2026-04-07T14:37:28Z</time></trkpt><trkpt lat="45.85790637817548" lon="8.411645201407561"><ele>346.0</ele><time>2026-04-07T14:37:30Z</time></trkpt><trkpt lat="45.85789237942933" lon="8.411510873959152"><ele>346.0</ele><time>2026-04-07T14:37:32Z</time></trkpt><trkpt lat="45.857825254971" lon="8.411456877141315"><ele>346.0</ele><time>2026-04-07T14:37:33Z</time></trkpt><trkpt lat="45.85773938028175" lon="8.411403954759223"><ele>346.0</ele><time>2026-04-07T14:37:34Z</time></trkpt><trkpt lat="45.85765302061165" lon="8.411332919111976"><ele>346.0</ele><time>2026-04-07T14:37:35Z</time></trkpt><trkpt lat="45.857562087441664" lon="8.4112624625826"><ele>346.0</ele><time>2026-04-07T14:37:36Z</time></trkpt><trkpt lat="45.857458480913515" lon="8.411179561219248"><ele>345.4</ele><time>2026-04-07T14:37:37Z</time></trkpt><trkpt lat="45.85735876087312" lon="8.41109223915768"><ele>344.8</ele><time>2026-04-07T14:37:38Z</time></trkpt><trkpt lat="45.857266131143135" lon="8.411010224287596"><ele>344.2</ele><time>2026-04-07T14:37:39Z</time></trkpt><trkpt lat="45.85717568853332" lon="8.410932531929827"><ele>343.59999999999997</ele><time>2026-04-07T14:37:40Z</time></trkpt><trkpt lat="45.85708593320779" lon="8.410854686383928"><ele>343.0</ele><time>2026-04-07T14:37:41Z</time></trkpt><trkpt lat="45.8569966071838" lon="8.410779522195515"><ele>343.0</ele><time>2026-04-07T14:37:42Z</time></trkpt><trkpt lat="45.85691569810828" lon="8.410713592198979"><ele>343.0</ele><time>2026-04-07T14:37:43Z</time></trkpt><trkpt lat="45.85684185452468" lon="8.410660513482338"><ele>343.0</ele><time>2026-04-07T14:37:44Z</time></trkpt><trkpt lat="45.85677481185441" lon="8.410624014120678"><ele>343.0</ele><time>2026-04-07T14:37:45Z</time></trkpt><trkpt lat="45.85670670691289" lon="8.410556819930928"><ele>343.0</ele><time>2026-04-07T14:37:47Z</time></trkpt><trkpt lat="45.85674612623841" lon="8.41047170583431"><ele>343.0</ele><time>2026-04-07T14:37:49Z</time></trkpt><trkpt lat="45.856812169699275" lon="8.410484012956289"><ele>343.0</ele><time>2026-04-07T14:37:50Z</time></trkpt><trkpt lat="45.85688852782826" lon="8.410552796693262"><ele>343.0</ele><time>2026-04-07T14:37:51Z</time></trkpt><trkpt lat="45.856976856343906" lon="8.410596309481921"><ele>343.0</ele><time>2026-04-07T14:37:52Z</time></trkpt><trkpt lat="45.857073423932135" lon="8.41064111737059"><ele>343.0</ele><time>2026-04-07T14:37:53Z</time></trkpt><trkpt lat="45.85718803905797" lon="8.410690421148454"><ele>343.0</ele><time>2026-04-07T14:37:54Z</time></trkpt><trkpt lat="45.85731383925313" lon="8.41074814028135"><ele>343.0</ele><time>2026-04-07T14:37:55Z</time></trkpt><trkpt lat="45.85743838499843" lon="8.410801950277554"><ele>343.0</ele><time>2026-04-07T14:37:56Z</time></trkpt><trkpt lat="45.85756484624835" lon="8.410864964584434"><ele>343.0</ele><time>2026-04-07T14:37:57Z</time></trkpt><trkpt lat="45.85769062829562" lon="8.410933962437737"><ele>343.0</ele><time>2026-04-07T14:37:58Z</time></trkpt><trkpt lat="45.85781987684777" lon="8.41100163296061"><ele>343.75</ele><time>2026-04-07T14:37:59Z</time></trkpt><trkpt lat="45.85794620622089" lon="8.411074265879208"><ele>344.5</ele><time>2026-04-07T14:38:00Z</time></trkpt><trkpt lat="45.85806043138462" lon="8.411169224983599"><ele>345.25</ele><time>2026-04-07T14:38:01Z</time></trkpt><trkpt lat="45.85816743459732" lon="8.41127837375601"><ele>346.0</ele><time>2026-04-07T14:38:02Z</time></trkpt><trkpt lat="45.85826613659019" lon="8.411391974100692"><ele>346.0</ele><time>2026-04-07T14:38:03Z</time></trkpt><trkpt lat="45.85836510696107" lon="8.411504308049723"><ele>346.0</ele><time>2026-04-07T14:38:04Z</time></trkpt><trkpt lat="45.858467027499636" lon="8.411605646090248"><ele>346.0</ele><time>2026-04-07T14:38:05Z</time></trkpt><trkpt lat="45.85856949405506" lon="8.41169237250232"><ele>346.0</ele><time>2026-04-07T14:38:06Z</time></trkpt><trkpt lat="45.858678892843166" lon="8.411761975635828"><ele>340.75</ele><time>2026-04-07T14:38:07Z</time></trkpt><trkpt lat="45.858794958530005" lon="8.411803858485262"><ele>335.5</ele><time>2026-04-07T14:38:08Z</time></trkpt><trkpt lat="45.85891109922193" lon="8.41181121817566"><ele>330.25</ele><time>2026-04-07T14:38:09Z</time></trkpt><trkpt lat="45.859036842946935" lon="8.411796311719122"><ele>325.0</ele><time>2026-04-07T14:38:10.001Z</time></trkpt><trkpt lat="45.859162242183636" lon="8.411788228899727"><ele>322.5</ele><time>2026-04-07T14:38:11Z</time></trkpt><trkpt lat="45.85928919906347" lon="8.411783333933274"><ele>320.0</ele><time>2026-04-07T14:38:12Z</time></trkpt><trkpt lat="45.859421516534425" lon="8.411778730835971"><ele>317.5</ele><time>2026-04-07T14:38:13Z</time></trkpt><trkpt lat="45.859553344667965" lon="8.411773718805934"><ele>315.0</ele><time>2026-04-07T14:38:14Z</time></trkpt><trkpt lat="45.85968074526195" lon="8.411772612523027"><ele>315.0</ele><time>2026-04-07T14:38:15Z</time></trkpt><trkpt lat="45.85980505205404" lon="8.411789102676174"><ele>315.0</ele><time>2026-04-07T14:38:16Z</time></trkpt><trkpt lat="45.859929077295575" lon="8.4118159659609"><ele>315.0</ele><time>2026-04-07T14:38:17Z</time></trkpt><trkpt lat="45.86005002798397" lon="8.411854267452473"><ele>315.0</ele><time>2026-04-07T14:38:18Z</time></trkpt><trkpt lat="45.860168079617885" lon="8.411885748377296"><ele>312.75</ele><time>2026-04-07T14:38:19Z</time></trkpt><trkpt lat="45.860280298279946" lon="8.411926531012547"><ele>310.5</ele><time>2026-04-07T14:38:20Z</time></trkpt><trkpt lat="45.860389525729666" lon="8.411976502859451"><ele>308.25</ele><time>2026-04-07T14:38:21Z</time></trkpt><trkpt lat="45.86049877361419" lon="8.412030061003218"><ele>306.0</ele><time>2026-04-07T14:38:22Z</time></trkpt><trkpt lat="45.860601774343806" lon="8.412081366798105"><ele>306.0</ele><time>2026-04-07T14:38:23Z</time></trkpt><trkpt lat="45.86070189191048" lon="8.41213118014215"><ele>306.0</ele><time>2026-04-07T14:38:24Z</time></trkpt><trkpt lat="45.86079804159934" lon="8.412180035815357"><ele>306.0</ele><time>2026-04-07T14:38:25Z</time></trkpt><trkpt lat="45.86088181951567" lon="8.412224389095572"><ele>306.0</ele><time>2026-04-07T14:38:26Z</time></trkpt><trkpt lat="45.86094870679833" lon="8.412262316352574"><ele>306.0</ele><time>2026-04-07T14:38:27Z</time></trkpt><trkpt lat="45.86103844965219" lon="8.412303859342112"><ele>306.0</ele><time>2026-04-07T14:38:29Z</time></trkpt><trkpt lat="45.86110207137432" lon="8.412324525691032"><ele>306.0</ele><time>2026-04-07T14:38:31Z</time></trkpt><trkpt lat="45.86116453196162" lon="8.412304413136399"><ele>306.0</ele><time>2026-04-07T14:41:14.001Z</time></trkpt><trkpt lat="45.8610800531404" lon="8.412272137619283"><ele>306.0</ele><time>2026-04-07T14:41:18.001Z</time></trkpt><trkpt lat="45.86088638292318" lon="8.412197137193225"><ele>306.0</ele><time>2026-04-07T14:41:20.001Z</time></trkpt><trkpt lat="45.86079722641406" lon="8.41214474281406"><ele>306.0</ele><time>2026-04-07T14:41:21.001Z</time></trkpt><trkpt lat="45.860711039604325" lon="8.412102176460015"><ele>306.0</ele><time>2026-04-07T14:41:22.001Z</time></trkpt><trkpt lat="45.86062408658406" lon="8.412060864821095"><ele>306.0</ele><time>2026-04-07T14:41:23.001Z</time></trkpt><trkpt lat="45.860539404453995" lon="8.412019423579384"><ele>306.0</ele><time>2026-04-07T14:41:24.001Z</time></trkpt><trkpt lat="45.86045363833924" lon="8.411987520840354"><ele>306.0</ele><time>2026-04-07T14:41:25.001Z</time></trkpt><trkpt lat="45.860367086469616" lon="8.411945903634393"><ele>306.0</ele><time>2026-04-07T14:41:26.001Z</time></trkpt><trkpt lat="45.860278465274355" lon="8.411900242471003"><ele>306.0</ele><time>2026-04-07T14:41:27.001Z</time></trkpt><trkpt lat="45.86021176048527" lon="8.411869243023428"><ele>306.0</ele><time>2026-04-07T14:41:28.001Z</time></trkpt><trkpt lat="45.86011685535101" lon="8.411824562141026"><ele>306.0</ele><time>2026-04-07T14:41:30.001Z</time></trkpt><trkpt lat="45.860161985523796" lon="8.412062731142226"><ele>306.0</ele><time>2026-04-07T14:41:34.001Z</time></trkpt><trkpt lat="45.86025276839858" lon="8.412100263698715"><ele>308.75</ele><time>2026-04-07T14:41:35Z</time></trkpt><trkpt lat="45.86034127802127" lon="8.412171348587734"><ele>311.5</ele><time>2026-04-07T14:41:36Z</time></trkpt><trkpt lat="45.860438449544176" lon="8.412253115656297"><ele>314.25</ele><time>2026-04-07T14:41:37Z</time></trkpt><trkpt lat="45.86054429000251" lon="8.4123447843983"><ele>317.0</ele><time>2026-04-07T14:41:38Z</time></trkpt><trkpt lat="45.86065683748251" lon="8.412438844426383"><ele>317.0</ele><time>2026-04-07T14:41:39Z</time></trkpt><trkpt lat="45.86077842010252" lon="8.412539055381124"><ele>317.0</ele><time>2026-04-07T14:41:40Z</time></trkpt><trkpt lat="45.860908093184506" lon="8.412645596848249"><ele>317.0</ele><time>2026-04-07T14:41:41Z</time></trkpt><trkpt lat="45.86104085209701" lon="8.41274555957347"><ele>317.0</ele><time>2026-04-07T14:41:42Z</time></trkpt><trkpt lat="45.86117913277836" lon="8.412832707692724"><ele>319.25</ele><time>2026-04-07T14:41:43Z</time></trkpt><trkpt lat="45.86132024180728" lon="8.412907034694877"><ele>321.5</ele><time>2026-04-07T14:41:44Z</time></trkpt><trkpt lat="45.86145902082" lon="8.412980960269518"><ele>323.75</ele><time>2026-04-07T14:41:45Z</time></trkpt><trkpt lat="45.86159647104858" lon="8.413053101240353"><ele>326.0</ele><time>2026-04-07T14:41:46Z</time></trkpt><trkpt lat="45.86173110022725" lon="8.413121713179295"><ele>323.5</ele><time>2026-04-07T14:41:47Z</time></trkpt><trkpt lat="45.861865033473606" lon="8.413189223363846"><ele>321.0</ele><time>2026-04-07T14:41:48Z</time></trkpt><trkpt lat="45.86199732422636" lon="8.413256214399176"><ele>318.5</ele><time>2026-04-07T14:41:49Z</time></trkpt><trkpt lat="45.862129700477446" lon="8.413321265480837"><ele>316.0</ele><time>2026-04-07T14:41:50Z</time></trkpt><trkpt lat="45.86225975035694" lon="8.413382312961769"><ele>316.0</ele><time>2026-04-07T14:41:51Z</time></trkpt><trkpt lat="45.862393661244035" lon="8.413442420336702"><ele>316.0</ele><time>2026-04-07T14:41:52Z</time></trkpt><trkpt lat="45.862531583124664" lon="8.413507427886936"><ele>316.0</ele><time>2026-04-07T14:41:53Z</time></trkpt><trkpt lat="45.8626697238857" lon="8.413570135951149"><ele>316.0</ele><time>2026-04-07T14:41:54Z</time></trkpt><trkpt lat="45.862803975961036" lon="8.413631429137775"><ele>313.75</ele><time>2026-04-07T14:41:55Z</time></trkpt><trkpt lat="45.86293571688651" lon="8.413690752241942"><ele>311.5</ele><time>2026-04-07T14:41:56Z</time></trkpt><trkpt lat="45.86306382507415" lon="8.413750034125835"><ele>309.25</ele><time>2026-04-07T14:41:57Z</time></trkpt><trkpt lat="45.86319332135446" lon="8.413807752700212"><ele>307.0</ele><time>2026-04-07T14:41:58Z</time></trkpt><trkpt lat="45.86332470075319" lon="8.413869813504776"><ele>311.5</ele><time>2026-04-07T14:41:59Z</time></trkpt><trkpt lat="45.863459913105174" lon="8.413929120043221"><ele>316.0</ele><time>2026-04-07T14:42:00Z</time></trkpt><trkpt lat="45.86359875815893" lon="8.413985637250471"><ele>320.5</ele><time>2026-04-07T14:42:01Z</time></trkpt><trkpt lat="45.86373449356112" lon="8.414037984091708"><ele>325.0</ele><time>2026-04-07T14:42:02Z</time></trkpt><trkpt lat="45.863870409274504" lon="8.414072805850934"><ele>325.0</ele><time>2026-04-07T14:42:03Z</time></trkpt><trkpt lat="45.86401324828395" lon="8.414094646953021"><ele>325.0</ele><time>2026-04-07T14:42:04Z</time></trkpt><trkpt lat="45.8641599408428" lon="8.414114001602517"><ele>325.0</ele><time>2026-04-07T14:42:05Z</time></trkpt><trkpt lat="45.864305668751676" lon="8.41413173041692"><ele>325.0</ele><time>2026-04-07T14:42:06Z</time></trkpt><trkpt lat="45.86445230295042" lon="8.41415214110726"><ele>323.25</ele><time>2026-04-07T14:42:07Z</time></trkpt><trkpt lat="45.86459963408963" lon="8.414179017774957"><ele>321.5</ele><time>2026-04-07T14:42:08Z</time></trkpt><trkpt lat="45.86474073868265" lon="8.414216845610921"><ele>319.75</ele><time>2026-04-07T14:42:09Z</time></trkpt><trkpt lat="45.864882860145826" lon="8.414256020507414"><ele>318.0</ele><time>2026-04-07T14:42:10Z</time></trkpt><trkpt lat="45.86502463411389" lon="8.414298033267443"><ele>315.5</ele><time>2026-04-07T14:42:11Z</time></trkpt><trkpt lat="45.86516567034824" lon="8.414344469838348"><ele>313.0</ele><time>2026-04-07T14:42:12Z</time></trkpt><trkpt lat="45.86530639686598" lon="8.414388488295407"><ele>310.5</ele><time>2026-04-07T14:42:13Z</time></trkpt><trkpt lat="45.86545220247783" lon="8.414442378911456"><ele>308.0</ele><time>2026-04-07T14:42:14Z</time></trkpt><trkpt lat="45.86560020275482" lon="8.414491357377427"><ele>308.0</ele><time>2026-04-07T14:42:15Z</time></trkpt><trkpt lat="45.86574216304143" lon="8.414532733368588"><ele>308.0</ele><time>2026-04-07T14:42:16.001Z</time></trkpt><trkpt lat="45.86588565357554" lon="8.414570431184055"><ele>308.0</ele><time>2026-04-07T14:42:17.001Z</time></trkpt><trkpt lat="45.86603037345299" lon="8.414598376497677"><ele>308.0</ele><time>2026-04-07T14:42:18.001Z</time></trkpt><trkpt lat="45.866177418402344" lon="8.414608777049159"><ele>307.6666666666667</ele><time>2026-04-07T14:42:19.001Z</time></trkpt><trkpt lat="45.86633143091565" lon="8.414607328593435"><ele>307.3333333333333</ele><time>2026-04-07T14:42:20.001Z</time></trkpt><trkpt lat="45.86647946295582" lon="8.414602981704562"><ele>307.0</ele><time>2026-04-07T14:42:21.001Z</time></trkpt><trkpt lat="45.86662771856725" lon="8.414595012118015"><ele>307.0</ele><time>2026-04-07T14:42:22.001Z</time></trkpt><trkpt lat="45.86677352842482" lon="8.414584375137684"><ele>307.0</ele><time>2026-04-07T14:42:23.001Z</time></trkpt><trkpt lat="45.86692053242522" lon="8.414569557124723"><ele>307.0</ele><time>2026-04-07T14:42:24.001Z</time></trkpt><trkpt lat="45.86706279584609" lon="8.414546608677425"><ele>307.0</ele><time>2026-04-07T14:42:25.001Z</time></trkpt><trkpt lat="45.8672012623652" lon="8.41452018005978"><ele>307.5</ele><time>2026-04-07T14:42:26.001Z</time></trkpt><trkpt lat="45.867341055204164" lon="8.414497066148645"><ele>308.0</ele><time>2026-04-07T14:42:27.001Z</time></trkpt><trkpt lat="45.86747593588326" lon="8.414471023425653"><ele>308.5</ele><time>2026-04-07T14:42:28.001Z</time></trkpt><trkpt lat="45.86760726539825" lon="8.414439893439862"><ele>309.0</ele><time>2026-04-07T14:42:29.001Z</time></trkpt><trkpt lat="45.8677355630115" lon="8.414385859375416"><ele>309.75</ele><time>2026-04-07T14:42:30.001Z</time></trkpt><trkpt lat="45.86786341935631" lon="8.4143172925504"><ele>310.5</ele><time>2026-04-07T14:42:31.001Z</time></trkpt><trkpt lat="45.86798570668165" lon="8.414227382851767"><ele>311.25</ele><time>2026-04-07T14:42:32.001Z</time></trkpt><trkpt lat="45.868107288700465" lon="8.41411755934871"><ele>312.0</ele><time>2026-04-07T14:42:33.001Z</time></trkpt><trkpt lat="45.868230420955655" lon="8.414008511062452"><ele>312.0</ele><time>2026-04-07T14:42:34.001Z</time></trkpt><trkpt lat="45.868358655071034" lon="8.41391823829667"><ele>312.0</ele><time>2026-04-07T14:42:35.001Z</time></trkpt><trkpt lat="45.86848683000409" lon="8.413821447655078"><ele>312.0</ele><time>2026-04-07T14:42:36.001Z</time></trkpt><trkpt lat="45.868609957612655" lon="8.413723024145563"><ele>312.0</ele><time>2026-04-07T14:42:37.001Z</time></trkpt><trkpt lat="45.86872950332735" lon="8.413639698156002"><ele>311.0</ele><time>2026-04-07T14:42:38.001Z</time></trkpt><trkpt lat="45.86883627207249" lon="8.413546586641365"><ele>310.0</ele><time>2026-04-07T14:42:39.001Z</time></trkpt><trkpt lat="45.868934430809084" lon="8.41344612742249"><ele>309.0</ele><time>2026-04-07T14:42:40.001Z</time></trkpt><trkpt lat="45.86901904102164" lon="8.413344564519704"><ele>308.0</ele><time>2026-04-07T14:42:41.001Z</time></trkpt><trkpt lat="45.86910095468561" lon="8.413250197015508"><ele>308.0</ele><time>2026-04-07T14:42:42.001Z</time></trkpt><trkpt lat="45.869205125906404" lon="8.413200485663031"><ele>308.0</ele><time>2026-04-07T14:42:43.001Z</time></trkpt><trkpt lat="45.869328802643366" lon="8.413178462547076"><ele>308.0</ele><time>2026-04-07T14:42:44.001Z</time></trkpt><trkpt lat="45.869468540410175" lon="8.413171156390433"><ele>308.0</ele><time>2026-04-07T14:42:45.001Z</time></trkpt><trkpt lat="45.869610789981316" lon="8.413182737405661"><ele>308.6666666666667</ele><time>2026-04-07T14:42:46.001Z</time></trkpt><trkpt lat="45.86976495995922" lon="8.413209698948261"><ele>309.3333333333333</ele><time>2026-04-07T14:42:47.001Z</time></trkpt><trkpt lat="45.86992510046298" lon="8.413240267312869"><ele>310.0</ele><time>2026-04-07T14:42:48.001Z</time></trkpt><trkpt lat="45.870096113619475" lon="8.413274090967866"><ele>309.0</ele><time>2026-04-07T14:42:49.001Z</time></trkpt><trkpt lat="45.87026738890172" lon="8.413296343953254"><ele>308.0</ele><time>2026-04-07T14:42:50.001Z</time></trkpt><trkpt lat="45.870449782494845" lon="8.413325601548028"><ele>307.0</ele><time>2026-04-07T14:42:51.001Z</time></trkpt><trkpt lat="45.87062783819769" lon="8.413355969705295"><ele>307.0</ele><time>2026-04-07T14:42:52.001Z</time></trkpt><trkpt lat="45.870800489476586" lon="8.413376662695898"><ele>307.0</ele><time>2026-04-07T14:42:53.001Z</time></trkpt><trkpt lat="45.870966253949724" lon="8.41339895224405"><ele>307.0</ele><time>2026-04-07T14:42:54.001Z</time></trkpt><trkpt lat="45.87112734402586" lon="8.413420607440743"><ele>307.66666666666663</ele><time>2026-04-07T14:42:55.001Z</time></trkpt><trkpt lat="45.87128809790537" lon="8.413442672998936"><ele>308.3333333333333</ele><time>2026-04-07T14:42:56.001Z</time></trkpt><trkpt lat="45.871448825438904" lon="8.413468214388859"><ele>309.0</ele><time>2026-04-07T14:42:57.001Z</time></trkpt><trkpt lat="45.87161048634129" lon="8.413488410363694"><ele>309.0</ele><time>2026-04-07T14:42:58.001Z</time></trkpt><trkpt lat="45.87177107541877" lon="8.413501779129904"><ele>309.0</ele><time>2026-04-07T14:42:59.001Z</time></trkpt><trkpt lat="45.87192376509574" lon="8.413505865030796"><ele>309.0</ele><time>2026-04-07T14:43:00.001Z</time></trkpt><trkpt lat="45.87206975519779" lon="8.413513911704884"><ele>307.75</ele><time>2026-04-07T14:43:01.001Z</time></trkpt><trkpt lat="45.87220934318085" lon="8.413522814062576"><ele>306.5</ele><time>2026-04-07T14:43:02.001Z</time></trkpt><trkpt lat="45.87234055555224" lon="8.413530794911035"><ele>305.25</ele><time>2026-04-07T14:43:03.001Z</time></trkpt><trkpt lat="45.87246710947466" lon="8.413534263281198"><ele>304.0</ele><time>2026-04-07T14:43:04.001Z</time></trkpt><trkpt lat="45.872588415965204" lon="8.413523209573219"><ele>305.0</ele><time>2026-04-07T14:43:05.001Z</time></trkpt><trkpt lat="45.872714107088534" lon="8.413494115434268"><ele>306.0</ele><time>2026-04-07T14:43:06.001Z</time></trkpt><trkpt lat="45.87283244031404" lon="8.413454094537373"><ele>307.0</ele><time>2026-04-07T14:43:07.001Z</time></trkpt><trkpt lat="45.872935974371806" lon="8.413419151439868"><ele>308.0</ele><time>2026-04-07T14:43:08.001Z</time></trkpt><trkpt lat="45.87302781122131" lon="8.413388136058405"><ele>308.0</ele><time>2026-04-07T14:43:09.001Z</time></trkpt><trkpt lat="45.873089738774894" lon="8.413359831658173"><ele>308.0</ele><time>2026-04-07T14:43:10.001Z</time></trkpt><trkpt lat="45.87317062057104" lon="8.41331806611648"><ele>308.0</ele><time>2026-04-07T14:43:12.001Z</time></trkpt><trkpt lat="45.87329332506246" lon="8.413214218894009"><ele>308.0</ele><time>2026-04-07T14:43:14.001Z</time></trkpt><trkpt lat="45.873376706541315" lon="8.4131553047984"><ele>308.0</ele><time>2026-04-07T14:43:15.001Z</time></trkpt><trkpt lat="45.87347059903267" lon="8.413105384060072"><ele>307.0</ele><time>2026-04-07T14:43:16.001Z</time></trkpt><trkpt lat="45.873578098109114" lon="8.4130600941252"><ele>306.0</ele><time>2026-04-07T14:43:17.001Z</time></trkpt><trkpt lat="45.873697026562816" lon="8.413013098502276"><ele>305.0</ele><time>2026-04-07T14:43:18.001Z</time></trkpt><trkpt lat="45.873818267762395" lon="8.412963535094782"><ele>304.0</ele><time>2026-04-07T14:43:19.001Z</time></trkpt><trkpt lat="45.87395187881576" lon="8.412909353071681"><ele>304.0</ele><time>2026-04-07T14:43:20.001Z</time></trkpt><trkpt lat="45.87408908604339" lon="8.412859969636914"><ele>304.0</ele><time>2026-04-07T14:43:21.001Z</time></trkpt><trkpt lat="45.874223158469476" lon="8.412807699693225"><ele>304.0</ele><time>2026-04-07T14:43:22.001Z</time></trkpt><trkpt lat="45.87434660847253" lon="8.412763028918933"><ele>304.0</ele><time>2026-04-07T14:43:23.001Z</time></trkpt><trkpt lat="45.874459421050325" lon="8.412721572797889"><ele>305.0</ele><time>2026-04-07T14:43:24.001Z</time></trkpt><trkpt lat="45.87456850620893" lon="8.412680082764162"><ele>306.0</ele><time>2026-04-07T14:43:25.001Z</time></trkpt><trkpt lat="45.874666186432535" lon="8.412641141378913"><ele>307.0</ele><time>2026-04-07T14:43:26.001Z</time></trkpt><trkpt lat="45.874756782132884" lon="8.412608093900174"><ele>308.0</ele><time>2026-04-07T14:43:27.001Z</time></trkpt><trkpt lat="45.87483838915799" lon="8.412578976674235"><ele>309.0</ele><time>2026-04-07T14:43:28.001Z</time></trkpt><trkpt lat="45.874911219905755" lon="8.412549997276386"><ele>309.0</ele><time>2026-04-07T14:43:29.001Z</time></trkpt><trkpt lat="45.875009676980625" lon="8.412507354381203"><ele>309.0</ele><time>2026-04-07T14:43:31.001Z</time></trkpt><trkpt lat="45.87507665992379" lon="8.412476850053174"><ele>309.0</ele><time>2026-04-07T14:43:33.001Z</time></trkpt><trkpt lat="45.87515975401909" lon="8.412445294853766"><ele>309.0</ele><time>2026-04-07T14:43:35.001Z</time></trkpt><trkpt lat="45.87528289011232" lon="8.412384969667363"><ele>309.0</ele><time>2026-04-07T14:43:37.001Z</time></trkpt><trkpt lat="45.8753539275441" lon="8.412346011845834"><ele>309.28571428571433</ele><time>2026-04-07T14:43:38.001Z</time></trkpt><trkpt lat="45.875429521113006" lon="8.412305996934942"><ele>309.57142857142856</ele><time>2026-04-07T14:43:39.001Z</time></trkpt><trkpt lat="45.87550077357659" lon="8.412267947224507"><ele>309.8571428571429</ele><time>2026-04-07T14:43:40.001Z</time></trkpt><trkpt lat="45.87557168285746" lon="8.412237422157402"><ele>310.14285714285717</ele><time>2026-04-07T14:43:41Z</time></trkpt><trkpt lat="45.87563979139491" lon="8.412204139412601"><ele>310.42857142857144</ele><time>2026-04-07T14:43:42Z</time></trkpt><trkpt lat="45.87570596429104" lon="8.412168614526381"><ele>310.7142857142857</ele><time>2026-04-07T14:43:43Z</time></trkpt><trkpt lat="45.87577421763448" lon="8.412134960463007"><ele>311.0</ele><time>2026-04-07T14:43:44Z</time></trkpt><trkpt lat="45.87584400315064" lon="8.412104139475897"><ele>310.1428571428571</ele><time>2026-04-07T14:43:45Z</time></trkpt><trkpt lat="45.87591179523675" lon="8.412075108494987"><ele>309.28571428571433</ele><time>2026-04-07T14:43:46Z</time></trkpt><trkpt lat="45.87598057365114" lon="8.412045389720607"><ele>308.42857142857144</ele><time>2026-04-07T14:43:47Z</time></trkpt><trkpt lat="45.8760474612188" lon="8.412021429792027"><ele>307.57142857142856</ele><time>2026-04-07T14:43:48Z</time></trkpt><trkpt lat="45.87611125097908" lon="8.411992805769"><ele>306.71428571428567</ele><time>2026-04-07T14:43:49Z</time></trkpt><trkpt lat="45.876171180167205" lon="8.41196178669707"><ele>305.8571428571429</ele><time>2026-04-07T14:43:50Z</time></trkpt><trkpt lat="45.876266740739034" lon="8.411904744578981"><ele>305.0</ele><time>2026-04-07T14:43:52Z</time></trkpt><trkpt lat="45.876330131435225" lon="8.411859210842346"><ele>304.83333333333337</ele><time>2026-04-07T14:43:54Z</time></trkpt><trkpt lat="45.87641378006737" lon="8.411779659788069"><ele>304.6666666666667</ele><time>2026-04-07T14:43:56Z</time></trkpt><trkpt lat="45.87648344624795" lon="8.411747393349478"><ele>304.5</ele><time>2026-04-07T14:43:58Z</time></trkpt><trkpt lat="45.876567454569006" lon="8.411776086466112"><ele>304.3333333333333</ele><time>2026-04-07T14:44:01Z</time></trkpt><trkpt lat="45.8766365333177" lon="8.411898647040022"><ele>304.16666666666663</ele><time>2026-04-07T14:44:03Z</time></trkpt><trkpt lat="45.87667353770893" lon="8.411979911533939"><ele>304.0</ele><time>2026-04-07T14:44:04Z</time></trkpt><trkpt lat="45.87671977876473" lon="8.412065875197078"><ele>304.0</ele><time>2026-04-07T14:44:05Z</time></trkpt><trkpt lat="45.876771809760605" lon="8.412159541541893"><ele>304.0</ele><time>2026-04-07T14:44:06Z</time></trkpt><trkpt lat="45.87682319238027" lon="8.41224806124585"><ele>304.0</ele><time>2026-04-07T14:44:07Z</time></trkpt><trkpt lat="45.876858929482594" lon="8.412331219579224"><ele>304.0</ele><time>2026-04-07T14:44:08Z</time></trkpt><trkpt lat="45.87690498535897" lon="8.412399485645048"><ele>304.0</ele><time>2026-04-07T14:44:09Z</time></trkpt><trkpt lat="45.87695431357405" lon="8.412467731494898"><ele>304.0</ele><time>2026-04-07T14:44:10Z</time></trkpt><trkpt lat="45.87700889422153" lon="8.412534723183073"><ele>304.0</ele><time>2026-04-07T14:44:11Z</time></trkpt><trkpt lat="45.877067401996804" lon="8.412597724843954"><ele>304.0</ele><time>2026-04-07T14:44:12Z</time></trkpt><trkpt lat="45.87712437230375" lon="8.412652599119266"><ele>304.0</ele><time>2026-04-07T14:44:13Z</time></trkpt><trkpt lat="45.877182412557545" lon="8.412694382355905"><ele>304.0</ele><time>2026-04-07T14:44:14Z</time></trkpt><trkpt lat="45.87725121355219" lon="8.412731202565764"><ele>304.0</ele><time>2026-04-07T14:44:15Z</time></trkpt><trkpt lat="45.877324749390354" lon="8.412766056119082"><ele>304.0</ele><time>2026-04-07T14:44:16Z</time></trkpt><trkpt lat="45.87739833950571" lon="8.412800474450574"><ele>304.0</ele><time>2026-04-07T14:44:17Z</time></trkpt><trkpt lat="45.87746706706919" lon="8.412834843266777"><ele>304.0</ele><time>2026-04-07T14:44:18Z</time></trkpt><trkpt lat="45.877531009165565" lon="8.412865265170822"><ele>304.0</ele><time>2026-04-07T14:44:19Z</time></trkpt><trkpt lat="45.877592628244926" lon="8.412894446575422"><ele>304.0</ele><time>2026-04-07T14:44:20Z</time></trkpt><trkpt lat="45.87772609646176" lon="8.412957878667429"><ele>304.0</ele><time>2026-04-07T14:44:22Z</time></trkpt><trkpt lat="45.87780834610148" lon="8.412983889405686"><ele>304.0</ele><time>2026-04-07T14:44:23Z</time></trkpt><trkpt lat="45.877900912493374" lon="8.41301251942864"><ele>304.0</ele><time>2026-04-07T14:44:24Z</time></trkpt><trkpt lat="45.87799532843872" lon="8.413047367273931"><ele>304.0</ele><time>2026-04-07T14:44:25Z</time></trkpt><trkpt lat="45.87809124806285" lon="8.413078779846895"><ele>304.0</ele><time>2026-04-07T14:44:26Z</time></trkpt><trkpt lat="45.87817992033879" lon="8.413107552086672"><ele>304.0</ele><time>2026-04-07T14:44:27Z</time></trkpt><trkpt lat="45.87825865307761" lon="8.41312639069455"><ele>304.0</ele><time>2026-04-07T14:44:28Z</time></trkpt><trkpt lat="45.878333806597624" lon="8.413144453708615"><ele>304.0</ele><time>2026-04-07T14:44:29Z</time></trkpt><trkpt lat="45.87840658210105" lon="8.413160224828005"><ele>304.0</ele><time>2026-04-07T14:44:30Z</time></trkpt><trkpt lat="45.87848117265968" lon="8.41316832396153"><ele>304.0</ele><time>2026-04-07T14:44:31Z</time></trkpt><trkpt lat="45.87855257703612" lon="8.413170825296483"><ele>304.0</ele><time>2026-04-07T14:44:32Z</time></trkpt><trkpt lat="45.87862538230104" lon="8.41316321412677"><ele>304.0</ele><time>2026-04-07T14:44:33Z</time></trkpt><trkpt lat="45.87869901285018" lon="8.413155722951046"><ele>304.0</ele><time>2026-04-07T14:44:34Z</time></trkpt><trkpt lat="45.87877406884201" lon="8.413150197579421"><ele>304.0</ele><time>2026-04-07T14:44:35Z</time></trkpt><trkpt lat="45.87884830813586" lon="8.41315876405528"><ele>304.0</ele><time>2026-04-07T14:44:36Z</time></trkpt><trkpt lat="45.87892109668237" lon="8.413182026443183"><ele>304.0</ele><time>2026-04-07T14:44:37Z</time></trkpt><trkpt lat="45.87900643487472" lon="8.413209562692508"><ele>304.0</ele><time>2026-04-07T14:44:39Z</time></trkpt><trkpt lat="45.879091758710956" lon="8.413237912500204"><ele>304.0</ele><time>2026-04-07T14:44:42Z</time></trkpt><trkpt lat="45.879178196614895" lon="8.413241048713306"><ele>304.0</ele><time>2026-04-07T14:44:44Z</time></trkpt><trkpt lat="45.879309293776856" lon="8.413250832068597"><ele>304.0</ele><time>2026-04-07T14:44:46.001Z</time></trkpt><trkpt lat="45.87938052347223" lon="8.413250199611733"><ele>304.0</ele><time>2026-04-07T14:44:47.001Z</time></trkpt><trkpt lat="45.87946609138307" lon="8.413243267728358"><ele>303.66666666666663</ele><time>2026-04-07T14:44:48.001Z</time></trkpt><trkpt lat="45.87954700405044" lon="8.413229464380304"><ele>303.3333333333333</ele><time>2026-04-07T14:44:49.001Z</time></trkpt><trkpt lat="45.87962579748342" lon="8.413206245545432"><ele>303.0</ele><time>2026-04-07T14:44:50.001Z</time></trkpt><trkpt lat="45.87971167958323" lon="8.413189243544764"><ele>302.6666666666667</ele><time>2026-04-07T14:44:51.001Z</time></trkpt><trkpt lat="45.879794880871245" lon="8.413172524925448"><ele>302.33333333333337</ele><time>2026-04-07T14:44:52.001Z</time></trkpt><trkpt lat="45.87987178162891" lon="8.413157880046285"><ele>302.0</ele><time>2026-04-07T14:44:53.001Z</time></trkpt><trkpt lat="45.87994831671441" lon="8.413140366523336"><ele>302.0</ele><time>2026-04-07T14:44:54.001Z</time></trkpt><trkpt lat="45.8800273336651" lon="8.413121268419088"><ele>302.0</ele><time>2026-04-07T14:44:55.001Z</time></trkpt><trkpt lat="45.88011018294967" lon="8.413101178320051"><ele>302.0</ele><time>2026-04-07T14:44:56.001Z</time></trkpt><trkpt lat="45.88019753697299" lon="8.41308857734506"><ele>302.0</ele><time>2026-04-07T14:44:57.001Z</time></trkpt><trkpt lat="45.88028919212013" lon="8.413089124359582"><ele>302.0</ele><time>2026-04-07T14:44:58.001Z</time></trkpt><trkpt lat="45.880383767093996" lon="8.413089100368937"><ele>302.0</ele><time>2026-04-07T14:44:59.001Z</time></trkpt><trkpt lat="45.88048166984662" lon="8.413091875748291"><ele>302.2</ele><time>2026-04-07T14:45:00.001Z</time></trkpt><trkpt lat="45.880579974615266" lon="8.413088878698211"><ele>302.4</ele><time>2026-04-07T14:45:01.001Z</time></trkpt><trkpt lat="45.88069045477773" lon="8.413089216788302"><ele>302.6</ele><time>2026-04-07T14:45:02.001Z</time></trkpt><trkpt lat="45.88079838804802" lon="8.41308013929496"><ele>302.8</ele><time>2026-04-07T14:45:03.001Z</time></trkpt><trkpt lat="45.88089925223121" lon="8.413071260932657"><ele>303.0</ele><time>2026-04-07T14:45:04.001Z</time></trkpt><trkpt lat="45.880998255896145" lon="8.413045943026397"><ele>304.0</ele><time>2026-04-07T14:45:05.001Z</time></trkpt><trkpt lat="45.88109442051281" lon="8.413006949365116"><ele>305.0</ele><time>2026-04-07T14:45:06.001Z</time></trkpt><trkpt lat="45.881187425408626" lon="8.412956683114064"><ele>306.0</ele><time>2026-04-07T14:45:07.001Z</time></trkpt><trkpt lat="45.88127658592253" lon="8.412895004610862"><ele>307.0</ele><time>2026-04-07T14:45:08.001Z</time></trkpt><trkpt lat="45.88136173657932" lon="8.412824783607332"><ele>308.0</ele><time>2026-04-07T14:45:09.001Z</time></trkpt><trkpt lat="45.8814428125014" lon="8.412752145106491"><ele>307.2</ele><time>2026-04-07T14:45:10.001Z</time></trkpt><trkpt lat="45.881522571471116" lon="8.412685081278594"><ele>306.4</ele><time>2026-04-07T14:45:11.001Z</time></trkpt><trkpt lat="45.88160331847143" lon="8.412629735338728"><ele>305.59999999999997</ele><time>2026-04-07T14:45:12.001Z</time></trkpt><trkpt lat="45.8816915385639" lon="8.412593892865841"><ele>304.8</ele><time>2026-04-07T14:45:13.001Z</time></trkpt><trkpt lat="45.88177540095418" lon="8.41255548364745"><ele>304.0</ele><time>2026-04-07T14:45:14.001Z</time></trkpt><trkpt lat="45.88185882086292" lon="8.412511286922552"><ele>304.0</ele><time>2026-04-07T14:45:15.001Z</time></trkpt><trkpt lat="45.881939225897526" lon="8.412452743720538"><ele>304.0</ele><time>2026-04-07T14:45:16.001Z</time></trkpt><trkpt lat="45.8820205946708" lon="8.412387668986204"><ele>304.0</ele><time>2026-04-07T14:45:17.001Z</time></trkpt><trkpt lat="45.88209941075689" lon="8.412318027106435"><ele>304.0</ele><time>2026-04-07T14:45:18.001Z</time></trkpt><trkpt lat="45.88217993125855" lon="8.4122457973718"><ele>304.0</ele><time>2026-04-07T14:45:19.001Z</time></trkpt><trkpt lat="45.88226029469329" lon="8.412174723842337"><ele>303.16666666666663</ele><time>2026-04-07T14:45:20.001Z</time></trkpt><trkpt lat="45.882340873289436" lon="8.41211528596819"><ele>302.3333333333333</ele><time>2026-04-07T14:45:21.001Z</time></trkpt><trkpt lat="45.88241512003227" lon="8.412057559495414"><ele>301.5</ele><time>2026-04-07T14:45:22.001Z</time></trkpt><trkpt lat="45.88248755840016" lon="8.412000478560017"><ele>300.6666666666667</ele><time>2026-04-07T14:45:23.001Z</time></trkpt><trkpt lat="45.88255630465117" lon="8.411944798812415"><ele>299.83333333333337</ele><time>2026-04-07T14:45:24.001Z</time></trkpt><trkpt lat="45.88262490585269" lon="8.411888419419185"><ele>299.0</ele><time>2026-04-07T14:45:25.001Z</time></trkpt><trkpt lat="45.882692384887854" lon="8.41182553047278"><ele>299.0</ele><time>2026-04-07T14:45:26.001Z</time></trkpt><trkpt lat="45.88276230503246" lon="8.41176331955879"><ele>299.0</ele><time>2026-04-07T14:45:27.001Z</time></trkpt><trkpt lat="45.882823606329545" lon="8.411706579537576"><ele>299.0</ele><time>2026-04-07T14:45:28.001Z</time></trkpt><trkpt lat="45.88287990399915" lon="8.411657602349237"><ele>299.0</ele><time>2026-04-07T14:45:29.001Z</time></trkpt><trkpt lat="45.88297480241264" lon="8.411568405958551"><ele>299.0</ele><time>2026-04-07T14:45:31.001Z</time></trkpt><trkpt lat="45.883045418638595" lon="8.411490227168947"><ele>299.0</ele><time>2026-04-07T14:45:33.001Z</time></trkpt><trkpt lat="45.88314649242185" lon="8.411397365942976"><ele>299.0</ele><time>2026-04-07T14:45:35.001Z</time></trkpt><trkpt lat="45.88324940078914" lon="8.411387069986773"><ele>299.0</ele><time>2026-04-07T14:45:37.001Z</time></trkpt><trkpt lat="45.883350778513176" lon="8.411345310878936"><ele>299.0</ele><time>2026-04-07T14:45:39.001Z</time></trkpt><trkpt lat="45.88339142942207" lon="8.411226105043145"><ele>299.0</ele><time>2026-04-07T14:45:41.001Z</time></trkpt><trkpt lat="45.88332731087123" lon="8.411079996331358"><ele>299.0</ele><time>2026-04-07T14:45:43.001Z</time></trkpt><trkpt lat="45.88326494909705" lon="8.411029140240165"><ele>297.42857142857144</ele><time>2026-04-07T14:45:44.001Z</time></trkpt><trkpt lat="45.883198458624086" lon="8.410987575688734"><ele>295.8571428571429</ele><time>2026-04-07T14:45:45.001Z</time></trkpt><trkpt lat="45.88313895911171" lon="8.410932544168018"><ele>294.28571428571433</ele><time>2026-04-07T14:45:46.001Z</time></trkpt><trkpt lat="45.883089315398436" lon="8.41086601581725"><ele>292.7142857142857</ele><time>2026-04-07T14:45:46.999Z</time></trkpt><trkpt lat="45.88303817882432" lon="8.410793168495031"><ele>291.14285714285717</ele><time>2026-04-07T14:45:47.999Z</time></trkpt><trkpt lat="45.882986299714396" lon="8.410720913142608"><ele>289.5714285714286</ele><time>2026-04-07T14:45:48.999Z</time></trkpt><trkpt lat="45.88293420101214" lon="8.410649638421702"><ele>288.0</ele><time>2026-04-07T14:45:49.999Z</time></trkpt><trkpt lat="45.882882881929945" lon="8.410577450221407"><ele>288.0</ele><time>2026-04-07T14:45:50.999Z</time></trkpt><trkpt lat="45.88283263915301" lon="8.410507565332074"><ele>288.0</ele><time>2026-04-07T14:45:51.999Z</time></trkpt><trkpt lat="45.88278615801895" lon="8.410441868630597"><ele>288.0</ele><time>2026-04-07T14:45:52.999Z</time></trkpt><trkpt lat="45.8827045632917" lon="8.410324968255388"><ele>288.0</ele><time>2026-04-07T14:45:55Z</time></trkpt><trkpt lat="45.8826403320871" lon="8.410236722788605"><ele>288.0</ele><time>2026-04-07T14:45:57Z</time></trkpt><trkpt lat="45.88257602196576" lon="8.410154598673762"><ele>288.0</ele><time>2026-04-07T14:45:59Z</time></trkpt><trkpt lat="45.882500857607724" lon="8.410079702064891"><ele>288.1666666666667</ele><time>2026-04-07T14:46:01Z</time></trkpt><trkpt lat="45.88245909948738" lon="8.410003852693855"><ele>288.3333333333333</ele><time>2026-04-07T14:46:02Z</time></trkpt><trkpt lat="45.88243616874488" lon="8.409893435788243"><ele>288.5</ele><time>2026-04-07T14:46:03Z</time></trkpt><trkpt lat="45.88244378630128" lon="8.409799527675565"><ele>288.66666666666663</ele><time>2026-04-07T14:46:04Z</time></trkpt><trkpt lat="45.88254134916066" lon="8.409662554031074"><ele>288.8333333333333</ele><time>2026-04-07T14:46:06Z</time></trkpt><trkpt lat="45.882613868649386" lon="8.409574119032866"><ele>289.0</ele><time>2026-04-07T14:46:07Z</time></trkpt><trkpt lat="45.88269290479474" lon="8.40947402602616"><ele>289.0</ele><time>2026-04-07T14:46:08Z</time></trkpt><trkpt lat="45.88276535328567" lon="8.409386522831444"><ele>289.0</ele><time>2026-04-07T14:46:09Z</time></trkpt><trkpt lat="45.88284141356416" lon="8.409308826965987"><ele>289.0</ele><time>2026-04-07T14:46:10Z</time></trkpt><trkpt lat="45.88293036703919" lon="8.409246216874633"><ele>289.0</ele><time>2026-04-07T14:46:11Z</time></trkpt><trkpt lat="45.8830293824969" lon="8.409202378985745"><ele>289.0</ele><time>2026-04-07T14:46:12Z</time></trkpt><trkpt lat="45.88313873194717" lon="8.409179711024471"><ele>289.0</ele><time>2026-04-07T14:46:13Z</time></trkpt><trkpt lat="45.883256267493124" lon="8.409162139757262"><ele>289.0</ele><time>2026-04-07T14:46:14Z</time></trkpt><trkpt lat="45.89510885035801" lon="8.412544236324658"><ele>285.25</ele><time>2026-04-07T14:48:16Z</time></trkpt><trkpt lat="45.89526838860006" lon="8.41266555224504"><ele>281.5</ele><time>2026-04-07T14:48:18Z</time></trkpt><trkpt lat="45.89535528033557" lon="8.412725853051754"><ele>277.75</ele><time>2026-04-07T14:48:19Z</time></trkpt><trkpt lat="45.89544284635221" lon="8.41278778056012"><ele>274.0</ele><time>2026-04-07T14:48:20Z</time></trkpt><trkpt lat="45.895531767465336" lon="8.412853900173946"><ele>274.0</ele><time>2026-04-07T14:48:21Z</time></trkpt><trkpt lat="45.89562053068946" lon="8.412922301924949"><ele>274.0</ele><time>2026-04-07T14:48:22Z</time></trkpt><trkpt lat="45.89571027638901" lon="8.412998791023137"><ele>274.0</ele><time>2026-04-07T14:48:23Z</time></trkpt><trkpt lat="45.895803193290185" lon="8.413074712226297"><ele>274.0</ele><time>2026-04-07T14:48:24Z</time></trkpt><trkpt lat="45.89590517077975" lon="8.41315555718621"><ele>274.0</ele><time>2026-04-07T14:48:25Z</time></trkpt><trkpt lat="45.89601313641777" lon="8.413232679024022"><ele>272.75</ele><time>2026-04-07T14:48:26Z</time></trkpt><trkpt lat="45.896119966232455" lon="8.413309967245235"><ele>271.5</ele><time>2026-04-07T14:48:27Z</time></trkpt><trkpt lat="45.89622512787553" lon="8.413388443575256"><ele>270.25</ele><time>2026-04-07T14:48:28Z</time></trkpt><trkpt lat="45.89633249817397" lon="8.413470155327232"><ele>269.0</ele><time>2026-04-07T14:48:29Z</time></trkpt><trkpt lat="45.89644149637143" lon="8.41355253860727"><ele>269.0</ele><time>2026-04-07T14:48:30Z</time></trkpt><trkpt lat="45.896555326367114" lon="8.41363880965782"><ele>269.0</ele><time>2026-04-07T14:48:31Z</time></trkpt><trkpt lat="45.896671725269435" lon="8.413727200910284"><ele>269.0</ele><time>2026-04-07T14:48:32Z</time></trkpt><trkpt lat="45.8967898205379" lon="8.413816148587477"><ele>269.0</ele><time>2026-04-07T14:48:33Z</time></trkpt><trkpt lat="45.896911707936" lon="8.413902504557033"><ele>268.25</ele><time>2026-04-07T14:48:34Z</time></trkpt><trkpt lat="45.897033557280544" lon="8.413988523230284"><ele>267.5</ele><time>2026-04-07T14:48:35Z</time></trkpt><trkpt lat="45.89715398766274" lon="8.414076070695327"><ele>266.75</ele><time>2026-04-07T14:48:36Z</time></trkpt><trkpt lat="45.89727598590581" lon="8.414169473677099"><ele>266.0</ele><time>2026-04-07T14:48:37Z</time></trkpt><trkpt lat="45.897514505439275" lon="8.414346405215035"><ele>266.25</ele><time>2026-04-07T14:48:39Z</time></trkpt><trkpt lat="45.89763536419034" lon="8.414433076475731"><ele>266.5</ele><time>2026-04-07T14:48:40Z</time></trkpt><trkpt lat="45.897756404573755" lon="8.414524673084326"><ele>266.75</ele><time>2026-04-07T14:48:41Z</time></trkpt><trkpt lat="45.89787806450387" lon="8.414618024251988"><ele>267.0</ele><time>2026-04-07T14:48:42Z</time></trkpt><trkpt lat="45.89799936206178" lon="8.414706964754082"><ele>267.0</ele><time>2026-04-07T14:48:43Z</time></trkpt><trkpt lat="45.89811813272961" lon="8.414801105312634"><ele>267.0</ele><time>2026-04-07T14:48:44Z</time></trkpt><trkpt lat="45.898236956959494" lon="8.414894684643052"><ele>267.0</ele><time>2026-04-07T14:48:45Z</time></trkpt><trkpt lat="45.89835934773484" lon="8.414985035206536"><ele>267.0</ele><time>2026-04-07T14:48:46Z</time></trkpt><trkpt lat="45.89847726180847" lon="8.415072037935222"><ele>266.5</ele><time>2026-04-07T14:48:47Z</time></trkpt><trkpt lat="45.89859394733741" lon="8.415160153618706"><ele>266.0</ele><time>2026-04-07T14:48:48Z</time></trkpt><trkpt lat="45.89870838848369" lon="8.415246934281337"><ele>265.5</ele><time>2026-04-07T14:48:49Z</time></trkpt><trkpt lat="45.89881194756519" lon="8.415328716942504"><ele>265.0</ele><time>2026-04-07T14:48:50Z</time></trkpt><trkpt lat="45.89891213658338" lon="8.415405240946766"><ele>265.0</ele><time>2026-04-07T14:48:51Z</time></trkpt><trkpt lat="45.89900623022931" lon="8.415477025008627"><ele>265.0</ele><time>2026-04-07T14:48:52Z</time></trkpt><trkpt lat="45.899093235485175" lon="8.415543112144503"><ele>265.0</ele><time>2026-04-07T14:48:53Z</time></trkpt><trkpt lat="45.89917527207216" lon="8.415599598480902"><ele>265.0</ele><time>2026-04-07T14:48:54Z</time></trkpt><trkpt lat="45.89925212311434" lon="8.415654818845972"><ele>265.0</ele><time>2026-04-07T14:48:55.001Z</time></trkpt><trkpt lat="45.89932570066152" lon="8.415698887508503"><ele>264.0</ele><time>2026-04-07T14:48:56.001Z</time></trkpt><trkpt lat="45.89939749454123" lon="8.415743111012691"><ele>264.0</ele><time>2026-04-07T14:48:57.001Z</time></trkpt><trkpt lat="45.899465740835005" lon="8.41578962868196"><ele>264.0</ele><time>2026-04-07T14:48:58.001Z</time></trkpt></trkseg></trk></gpx>